<?xml version="1.0" encoding="UTF-8"?>
<gpx version="1.1" creator="https://www.youtrack.es" xsi:schemaLocation="http://www.topografix.com/GPX/1/1 http://www.topografix.com/GPX/1/1/gpx.xsd http://www.garmin.com/xmlschemas/GpxExtensions/v3 http://www.garmin.com/xmlschemas/GpxExtensionsv3.xsd http://www.garmin.com/xmlschemas/TrackPointExtension/v1 http://www.garmin.com/xmlschemas/TrackPointExtensionv1.xsd" xmlns:gpxtpx="http://www.garmin.com/xmlschemas/TrackPointExtension/v1" xmlns:gpxx="http://www.garmin.com/xmlschemas/GpxExtensions/v3" xmlns:xsi="http://www.w3.org/2001/XMLSchema-instance">
  <metadata>
    <author>
      <name>Miren Saiz</name>
      <email id="mirensaiz" domain="hotmail.com"/>
    </author>
    <link href="https://www.youtrack.es">
      <text>YouTrack.es</text>
    </link>
    <time>2026-05-10T13:43:07Z</time>
  </metadata>
  <trk>
    <src>https://www.youtrack.es</src>
    <link href="https://www.youtrack.es/ruta/24216-vasco-navarro-bide-berdea">
      <text>YouTrack.es</text>
    </link>
    <trkseg>
      <trkpt lat="42.83133" lon="-2.62815">
        <ele>511.8</ele>
        <time>2021-07-24 10:28:43</time>
      </trkpt>
      <trkpt lat="42.83126" lon="-2.62816">
        <ele>511.6</ele>
        <time>2021-07-24 10:28:47</time>
      </trkpt>
      <trkpt lat="42.83117" lon="-2.62818">
        <ele>511.6</ele>
        <time>2021-07-24 10:28:51</time>
      </trkpt>
      <trkpt lat="42.83107" lon="-2.6282">
        <ele>511.8</ele>
        <time>2021-07-24 10:28:55</time>
      </trkpt>
      <trkpt lat="42.83096" lon="-2.62822">
        <ele>511.8</ele>
        <time>2021-07-24 10:28:59</time>
      </trkpt>
      <trkpt lat="42.83087" lon="-2.62823">
        <ele>511.6</ele>
        <time>2021-07-24 10:29:03</time>
      </trkpt>
      <trkpt lat="42.83079" lon="-2.62823">
        <ele>511.8</ele>
        <time>2021-07-24 10:29:07</time>
      </trkpt>
      <trkpt lat="42.83074" lon="-2.62827">
        <ele>512</ele>
        <time>2021-07-24 10:29:11</time>
      </trkpt>
      <trkpt lat="42.8307" lon="-2.62836">
        <ele>511.8</ele>
        <time>2021-07-24 10:29:15</time>
      </trkpt>
      <trkpt lat="42.83066" lon="-2.62849">
        <ele>512.4</ele>
        <time>2021-07-24 10:29:19</time>
      </trkpt>
      <trkpt lat="42.83062" lon="-2.6286">
        <ele>512.2</ele>
        <time>2021-07-24 10:29:23</time>
      </trkpt>
      <trkpt lat="42.8306" lon="-2.62868">
        <ele>512.8</ele>
        <time>2021-07-24 10:29:27</time>
      </trkpt>
      <trkpt lat="42.83058" lon="-2.62876">
        <ele>512.4</ele>
        <time>2021-07-24 10:29:31</time>
      </trkpt>
      <trkpt lat="42.83055" lon="-2.62885">
        <ele>512.8</ele>
        <time>2021-07-24 10:29:35</time>
      </trkpt>
      <trkpt lat="42.83052" lon="-2.62895">
        <ele>512.8</ele>
        <time>2021-07-24 10:29:39</time>
      </trkpt>
      <trkpt lat="42.83051" lon="-2.62906">
        <ele>513.2</ele>
        <time>2021-07-24 10:29:43</time>
      </trkpt>
      <trkpt lat="42.83048" lon="-2.62915">
        <ele>513.2</ele>
        <time>2021-07-24 10:29:47</time>
      </trkpt>
      <trkpt lat="42.83043" lon="-2.62917">
        <ele>513.2</ele>
        <time>2021-07-24 10:29:51</time>
      </trkpt>
      <trkpt lat="42.83036" lon="-2.62917">
        <ele>513</ele>
        <time>2021-07-24 10:29:55</time>
      </trkpt>
      <trkpt lat="42.83028" lon="-2.62918">
        <ele>513</ele>
        <time>2021-07-24 10:29:59</time>
      </trkpt>
      <trkpt lat="42.83019" lon="-2.62918">
        <ele>513.8</ele>
        <time>2021-07-24 10:30:03</time>
      </trkpt>
      <trkpt lat="42.83019" lon="-2.62918">
        <ele>513.2</ele>
        <time>2021-07-24 10:30:07</time>
      </trkpt>
      <trkpt lat="42.83019" lon="-2.62918">
        <ele>513.4</ele>
        <time>2021-07-24 10:30:11</time>
      </trkpt>
      <trkpt lat="42.83019" lon="-2.62918">
        <ele>513.2</ele>
        <time>2021-07-24 10:30:15</time>
      </trkpt>
      <trkpt lat="42.83019" lon="-2.62918">
        <ele>513</ele>
        <time>2021-07-24 10:30:19</time>
      </trkpt>
      <trkpt lat="42.83019" lon="-2.62918">
        <ele>513.4</ele>
        <time>2021-07-24 10:30:23</time>
      </trkpt>
      <trkpt lat="42.83019" lon="-2.62918">
        <ele>513.2</ele>
        <time>2021-07-24 10:30:27</time>
      </trkpt>
      <trkpt lat="42.83019" lon="-2.62918">
        <ele>513</ele>
        <time>2021-07-24 10:30:31</time>
      </trkpt>
      <trkpt lat="42.83019" lon="-2.62918">
        <ele>513</ele>
        <time>2021-07-24 10:30:35</time>
      </trkpt>
      <trkpt lat="42.83019" lon="-2.62918">
        <ele>513.4</ele>
        <time>2021-07-24 10:30:39</time>
      </trkpt>
      <trkpt lat="42.83019" lon="-2.62918">
        <ele>513.2</ele>
        <time>2021-07-24 10:30:43</time>
      </trkpt>
      <trkpt lat="42.83016" lon="-2.62918">
        <ele>513.6</ele>
        <time>2021-07-24 10:30:47</time>
      </trkpt>
      <trkpt lat="42.8301" lon="-2.62918">
        <ele>513.6</ele>
        <time>2021-07-24 10:30:51</time>
      </trkpt>
      <trkpt lat="42.83005" lon="-2.62919">
        <ele>513.8</ele>
        <time>2021-07-24 10:30:55</time>
      </trkpt>
      <trkpt lat="42.83005" lon="-2.62919">
        <ele>513.8</ele>
        <time>2021-07-24 10:30:59</time>
      </trkpt>
      <trkpt lat="42.83005" lon="-2.62919">
        <ele>513.6</ele>
        <time>2021-07-24 10:31:03</time>
      </trkpt>
      <trkpt lat="42.83005" lon="-2.62919">
        <ele>513.6</ele>
        <time>2021-07-24 10:31:07</time>
      </trkpt>
      <trkpt lat="42.83005" lon="-2.62919">
        <ele>513.6</ele>
        <time>2021-07-24 10:31:11</time>
      </trkpt>
      <trkpt lat="42.83005" lon="-2.62919">
        <ele>513.6</ele>
        <time>2021-07-24 10:31:15</time>
      </trkpt>
      <trkpt lat="42.83005" lon="-2.62919">
        <ele>513.6</ele>
        <time>2021-07-24 10:31:19</time>
      </trkpt>
      <trkpt lat="42.83005" lon="-2.62919">
        <ele>513.4</ele>
        <time>2021-07-24 10:31:23</time>
      </trkpt>
      <trkpt lat="42.83005" lon="-2.62919">
        <ele>513.6</ele>
        <time>2021-07-24 10:31:27</time>
      </trkpt>
      <trkpt lat="42.83002" lon="-2.62919">
        <ele>513.4</ele>
        <time>2021-07-24 10:31:31</time>
      </trkpt>
      <trkpt lat="42.82996" lon="-2.62921">
        <ele>513.8</ele>
        <time>2021-07-24 10:31:35</time>
      </trkpt>
      <trkpt lat="42.82989" lon="-2.62924">
        <ele>514</ele>
        <time>2021-07-24 10:31:39</time>
      </trkpt>
      <trkpt lat="42.82983" lon="-2.62928">
        <ele>514.2</ele>
        <time>2021-07-24 10:31:43</time>
      </trkpt>
      <trkpt lat="42.82974" lon="-2.62932">
        <ele>515</ele>
        <time>2021-07-24 10:31:47</time>
      </trkpt>
      <trkpt lat="42.82965" lon="-2.62936">
        <ele>515.2</ele>
        <time>2021-07-24 10:31:51</time>
      </trkpt>
      <trkpt lat="42.82956" lon="-2.6294">
        <ele>516</ele>
        <time>2021-07-24 10:31:55</time>
      </trkpt>
      <trkpt lat="42.8295" lon="-2.62943">
        <ele>516.4</ele>
        <time>2021-07-24 10:31:59</time>
      </trkpt>
      <trkpt lat="42.82946" lon="-2.6294">
        <ele>516.4</ele>
        <time>2021-07-24 10:32:03</time>
      </trkpt>
      <trkpt lat="42.82947" lon="-2.62928">
        <ele>516.6</ele>
        <time>2021-07-24 10:32:07</time>
      </trkpt>
      <trkpt lat="42.82948" lon="-2.6291">
        <ele>516</ele>
        <time>2021-07-24 10:32:11</time>
      </trkpt>
      <trkpt lat="42.82948" lon="-2.62893">
        <ele>516</ele>
        <time>2021-07-24 10:32:15</time>
      </trkpt>
      <trkpt lat="42.82948" lon="-2.62874">
        <ele>515.8</ele>
        <time>2021-07-24 10:32:19</time>
      </trkpt>
      <trkpt lat="42.82948" lon="-2.62854">
        <ele>515.4</ele>
        <time>2021-07-24 10:32:23</time>
      </trkpt>
      <trkpt lat="42.82948" lon="-2.62833">
        <ele>515.8</ele>
        <time>2021-07-24 10:32:27</time>
      </trkpt>
      <trkpt lat="42.82948" lon="-2.62811">
        <ele>515.2</ele>
        <time>2021-07-24 10:32:31</time>
      </trkpt>
      <trkpt lat="42.82948" lon="-2.62788">
        <ele>515.8</ele>
        <time>2021-07-24 10:32:35</time>
      </trkpt>
      <trkpt lat="42.82948" lon="-2.62764">
        <ele>515.4</ele>
        <time>2021-07-24 10:32:39</time>
      </trkpt>
      <trkpt lat="42.82947" lon="-2.62741">
        <ele>515.4</ele>
        <time>2021-07-24 10:32:43</time>
      </trkpt>
      <trkpt lat="42.82947" lon="-2.62717">
        <ele>516</ele>
        <time>2021-07-24 10:32:47</time>
      </trkpt>
      <trkpt lat="42.82948" lon="-2.62696">
        <ele>516.2</ele>
        <time>2021-07-24 10:32:51</time>
      </trkpt>
      <trkpt lat="42.82948" lon="-2.62676">
        <ele>515.8</ele>
        <time>2021-07-24 10:32:55</time>
      </trkpt>
      <trkpt lat="42.82949" lon="-2.62656">
        <ele>516</ele>
        <time>2021-07-24 10:32:59</time>
      </trkpt>
      <trkpt lat="42.82949" lon="-2.62635">
        <ele>516.2</ele>
        <time>2021-07-24 10:33:03</time>
      </trkpt>
      <trkpt lat="42.82948" lon="-2.62614">
        <ele>515.2</ele>
        <time>2021-07-24 10:33:07</time>
      </trkpt>
      <trkpt lat="42.82948" lon="-2.62595">
        <ele>516</ele>
        <time>2021-07-24 10:33:11</time>
      </trkpt>
      <trkpt lat="42.8295" lon="-2.62576">
        <ele>517.8</ele>
        <time>2021-07-24 10:33:15</time>
      </trkpt>
      <trkpt lat="42.8295" lon="-2.62556">
        <ele>518.4</ele>
        <time>2021-07-24 10:33:19</time>
      </trkpt>
      <trkpt lat="42.8295" lon="-2.62541">
        <ele>519.4</ele>
        <time>2021-07-24 10:33:23</time>
      </trkpt>
      <trkpt lat="42.8295" lon="-2.62526">
        <ele>519</ele>
        <time>2021-07-24 10:33:27</time>
      </trkpt>
      <trkpt lat="42.8295" lon="-2.62504">
        <ele>518</ele>
        <time>2021-07-24 10:33:31</time>
      </trkpt>
      <trkpt lat="42.8295" lon="-2.62474">
        <ele>514.6</ele>
        <time>2021-07-24 10:33:35</time>
      </trkpt>
      <trkpt lat="42.82948" lon="-2.62442">
        <ele>515</ele>
        <time>2021-07-24 10:33:39</time>
      </trkpt>
      <trkpt lat="42.8295" lon="-2.62411">
        <ele>515.2</ele>
        <time>2021-07-24 10:33:43</time>
      </trkpt>
      <trkpt lat="42.82951" lon="-2.62386">
        <ele>515.6</ele>
        <time>2021-07-24 10:33:47</time>
      </trkpt>
      <trkpt lat="42.82951" lon="-2.62363">
        <ele>515.6</ele>
        <time>2021-07-24 10:33:51</time>
      </trkpt>
      <trkpt lat="42.82951" lon="-2.62339">
        <ele>516</ele>
        <time>2021-07-24 10:33:55</time>
      </trkpt>
      <trkpt lat="42.82951" lon="-2.62318">
        <ele>516</ele>
        <time>2021-07-24 10:33:59</time>
      </trkpt>
      <trkpt lat="42.8295" lon="-2.62295">
        <ele>515.4</ele>
        <time>2021-07-24 10:34:03</time>
      </trkpt>
      <trkpt lat="42.8295" lon="-2.62271">
        <ele>515.2</ele>
        <time>2021-07-24 10:34:07</time>
      </trkpt>
      <trkpt lat="42.8295" lon="-2.62245">
        <ele>515</ele>
        <time>2021-07-24 10:34:11</time>
      </trkpt>
      <trkpt lat="42.8295" lon="-2.62219">
        <ele>515</ele>
        <time>2021-07-24 10:34:15</time>
      </trkpt>
      <trkpt lat="42.8295" lon="-2.62191">
        <ele>515.2</ele>
        <time>2021-07-24 10:34:19</time>
      </trkpt>
      <trkpt lat="42.82949" lon="-2.62163">
        <ele>515</ele>
        <time>2021-07-24 10:34:23</time>
      </trkpt>
      <trkpt lat="42.82949" lon="-2.62135">
        <ele>515</ele>
        <time>2021-07-24 10:34:27</time>
      </trkpt>
      <trkpt lat="42.8295" lon="-2.62108">
        <ele>515.2</ele>
        <time>2021-07-24 10:34:31</time>
      </trkpt>
      <trkpt lat="42.8295" lon="-2.62081">
        <ele>515.2</ele>
        <time>2021-07-24 10:34:35</time>
      </trkpt>
      <trkpt lat="42.82949" lon="-2.62054">
        <ele>515.8</ele>
        <time>2021-07-24 10:34:39</time>
      </trkpt>
      <trkpt lat="42.82949" lon="-2.62027">
        <ele>515.4</ele>
        <time>2021-07-24 10:34:43</time>
      </trkpt>
      <trkpt lat="42.82949" lon="-2.61999">
        <ele>515.6</ele>
        <time>2021-07-24 10:34:47</time>
      </trkpt>
      <trkpt lat="42.8295" lon="-2.61971">
        <ele>515</ele>
        <time>2021-07-24 10:34:51</time>
      </trkpt>
      <trkpt lat="42.82949" lon="-2.61944">
        <ele>515.2</ele>
        <time>2021-07-24 10:34:55</time>
      </trkpt>
      <trkpt lat="42.82949" lon="-2.61916">
        <ele>515.2</ele>
        <time>2021-07-24 10:34:59</time>
      </trkpt>
      <trkpt lat="42.8295" lon="-2.61888">
        <ele>515.2</ele>
        <time>2021-07-24 10:35:03</time>
      </trkpt>
      <trkpt lat="42.8295" lon="-2.61861">
        <ele>515.6</ele>
        <time>2021-07-24 10:35:07</time>
      </trkpt>
      <trkpt lat="42.8295" lon="-2.61833">
        <ele>515.6</ele>
        <time>2021-07-24 10:35:11</time>
      </trkpt>
      <trkpt lat="42.8295" lon="-2.61805">
        <ele>515.6</ele>
        <time>2021-07-24 10:35:15</time>
      </trkpt>
      <trkpt lat="42.8295" lon="-2.61778">
        <ele>515.6</ele>
        <time>2021-07-24 10:35:19</time>
      </trkpt>
      <trkpt lat="42.8295" lon="-2.61751">
        <ele>515.2</ele>
        <time>2021-07-24 10:35:23</time>
      </trkpt>
      <trkpt lat="42.82951" lon="-2.61722">
        <ele>515.8</ele>
        <time>2021-07-24 10:35:27</time>
      </trkpt>
      <trkpt lat="42.82951" lon="-2.61695">
        <ele>515.6</ele>
        <time>2021-07-24 10:35:31</time>
      </trkpt>
      <trkpt lat="42.82951" lon="-2.61667">
        <ele>516</ele>
        <time>2021-07-24 10:35:35</time>
      </trkpt>
      <trkpt lat="42.82951" lon="-2.6164">
        <ele>515.8</ele>
        <time>2021-07-24 10:35:39</time>
      </trkpt>
      <trkpt lat="42.82951" lon="-2.61613">
        <ele>515.8</ele>
        <time>2021-07-24 10:35:43</time>
      </trkpt>
      <trkpt lat="42.82951" lon="-2.61586">
        <ele>515.8</ele>
        <time>2021-07-24 10:35:47</time>
      </trkpt>
      <trkpt lat="42.82951" lon="-2.61559">
        <ele>515.8</ele>
        <time>2021-07-24 10:35:51</time>
      </trkpt>
      <trkpt lat="42.82951" lon="-2.61531">
        <ele>515.8</ele>
        <time>2021-07-24 10:35:55</time>
      </trkpt>
      <trkpt lat="42.82951" lon="-2.61503">
        <ele>515.6</ele>
        <time>2021-07-24 10:35:59</time>
      </trkpt>
      <trkpt lat="42.82952" lon="-2.61473">
        <ele>515.4</ele>
        <time>2021-07-24 10:36:03</time>
      </trkpt>
      <trkpt lat="42.82952" lon="-2.61443">
        <ele>516</ele>
        <time>2021-07-24 10:36:07</time>
      </trkpt>
      <trkpt lat="42.82952" lon="-2.61412">
        <ele>515</ele>
        <time>2021-07-24 10:36:11</time>
      </trkpt>
      <trkpt lat="42.82952" lon="-2.61383">
        <ele>514.8</ele>
        <time>2021-07-24 10:36:15</time>
      </trkpt>
      <trkpt lat="42.82953" lon="-2.61354">
        <ele>515</ele>
        <time>2021-07-24 10:36:19</time>
      </trkpt>
      <trkpt lat="42.82953" lon="-2.61325">
        <ele>515</ele>
        <time>2021-07-24 10:36:23</time>
      </trkpt>
      <trkpt lat="42.82953" lon="-2.61295">
        <ele>515</ele>
        <time>2021-07-24 10:36:27</time>
      </trkpt>
      <trkpt lat="42.82954" lon="-2.61266">
        <ele>515.4</ele>
        <time>2021-07-24 10:36:31</time>
      </trkpt>
      <trkpt lat="42.82953" lon="-2.61236">
        <ele>515.2</ele>
        <time>2021-07-24 10:36:35</time>
      </trkpt>
      <trkpt lat="42.82952" lon="-2.61207">
        <ele>515.6</ele>
        <time>2021-07-24 10:36:39</time>
      </trkpt>
      <trkpt lat="42.82953" lon="-2.61178">
        <ele>515.2</ele>
        <time>2021-07-24 10:36:43</time>
      </trkpt>
      <trkpt lat="42.82953" lon="-2.61152">
        <ele>515.2</ele>
        <time>2021-07-24 10:36:47</time>
      </trkpt>
      <trkpt lat="42.82953" lon="-2.61126">
        <ele>515.6</ele>
        <time>2021-07-24 10:36:51</time>
      </trkpt>
      <trkpt lat="42.82952" lon="-2.61099">
        <ele>515.2</ele>
        <time>2021-07-24 10:36:55</time>
      </trkpt>
      <trkpt lat="42.82952" lon="-2.61072">
        <ele>515.6</ele>
        <time>2021-07-24 10:36:59</time>
      </trkpt>
      <trkpt lat="42.82953" lon="-2.61047">
        <ele>515.6</ele>
        <time>2021-07-24 10:37:03</time>
      </trkpt>
      <trkpt lat="42.82953" lon="-2.61019">
        <ele>516</ele>
        <time>2021-07-24 10:37:07</time>
      </trkpt>
      <trkpt lat="42.82952" lon="-2.60992">
        <ele>516.4</ele>
        <time>2021-07-24 10:37:11</time>
      </trkpt>
      <trkpt lat="42.82952" lon="-2.60965">
        <ele>516.6</ele>
        <time>2021-07-24 10:37:15</time>
      </trkpt>
      <trkpt lat="42.82951" lon="-2.60938">
        <ele>516.6</ele>
        <time>2021-07-24 10:37:19</time>
      </trkpt>
      <trkpt lat="42.8295" lon="-2.60911">
        <ele>517.2</ele>
        <time>2021-07-24 10:37:23</time>
      </trkpt>
      <trkpt lat="42.8295" lon="-2.60884">
        <ele>517.4</ele>
        <time>2021-07-24 10:37:27</time>
      </trkpt>
      <trkpt lat="42.82948" lon="-2.60858">
        <ele>517</ele>
        <time>2021-07-24 10:37:31</time>
      </trkpt>
      <trkpt lat="42.82947" lon="-2.60833">
        <ele>517.6</ele>
        <time>2021-07-24 10:37:35</time>
      </trkpt>
      <trkpt lat="42.82946" lon="-2.60807">
        <ele>518</ele>
        <time>2021-07-24 10:37:39</time>
      </trkpt>
      <trkpt lat="42.82944" lon="-2.60782">
        <ele>518</ele>
        <time>2021-07-24 10:37:43</time>
      </trkpt>
      <trkpt lat="42.82942" lon="-2.60758">
        <ele>517.8</ele>
        <time>2021-07-24 10:37:47</time>
      </trkpt>
      <trkpt lat="42.82941" lon="-2.60733">
        <ele>518.2</ele>
        <time>2021-07-24 10:37:51</time>
      </trkpt>
      <trkpt lat="42.82939" lon="-2.60709">
        <ele>518.2</ele>
        <time>2021-07-24 10:37:55</time>
      </trkpt>
      <trkpt lat="42.82938" lon="-2.60686">
        <ele>519.4</ele>
        <time>2021-07-24 10:37:59</time>
      </trkpt>
      <trkpt lat="42.82936" lon="-2.60664">
        <ele>519.4</ele>
        <time>2021-07-24 10:38:03</time>
      </trkpt>
      <trkpt lat="42.82935" lon="-2.6064">
        <ele>519.4</ele>
        <time>2021-07-24 10:38:07</time>
      </trkpt>
      <trkpt lat="42.82933" lon="-2.60616">
        <ele>519.6</ele>
        <time>2021-07-24 10:38:11</time>
      </trkpt>
      <trkpt lat="42.82931" lon="-2.60592">
        <ele>519.8</ele>
        <time>2021-07-24 10:38:15</time>
      </trkpt>
      <trkpt lat="42.8293" lon="-2.6057">
        <ele>520.4</ele>
        <time>2021-07-24 10:38:19</time>
      </trkpt>
      <trkpt lat="42.82929" lon="-2.60547">
        <ele>520.6</ele>
        <time>2021-07-24 10:38:23</time>
      </trkpt>
      <trkpt lat="42.82928" lon="-2.60525">
        <ele>520</ele>
        <time>2021-07-24 10:38:27</time>
      </trkpt>
      <trkpt lat="42.82926" lon="-2.60504">
        <ele>520.6</ele>
        <time>2021-07-24 10:38:31</time>
      </trkpt>
      <trkpt lat="42.82925" lon="-2.60483">
        <ele>520</ele>
        <time>2021-07-24 10:38:35</time>
      </trkpt>
      <trkpt lat="42.82924" lon="-2.60464">
        <ele>520.8</ele>
        <time>2021-07-24 10:38:39</time>
      </trkpt>
      <trkpt lat="42.82923" lon="-2.60446">
        <ele>521.2</ele>
        <time>2021-07-24 10:38:43</time>
      </trkpt>
      <trkpt lat="42.82922" lon="-2.60426">
        <ele>520.8</ele>
        <time>2021-07-24 10:38:47</time>
      </trkpt>
      <trkpt lat="42.8292" lon="-2.60405">
        <ele>521.2</ele>
        <time>2021-07-24 10:38:51</time>
      </trkpt>
      <trkpt lat="42.82919" lon="-2.60384">
        <ele>521</ele>
        <time>2021-07-24 10:38:55</time>
      </trkpt>
      <trkpt lat="42.82918" lon="-2.60364">
        <ele>522.2</ele>
        <time>2021-07-24 10:38:59</time>
      </trkpt>
      <trkpt lat="42.82917" lon="-2.60343">
        <ele>522</ele>
        <time>2021-07-24 10:39:03</time>
      </trkpt>
      <trkpt lat="42.82915" lon="-2.60323">
        <ele>522.2</ele>
        <time>2021-07-24 10:39:07</time>
      </trkpt>
      <trkpt lat="42.82914" lon="-2.60303">
        <ele>522.6</ele>
        <time>2021-07-24 10:39:11</time>
      </trkpt>
      <trkpt lat="42.82914" lon="-2.60282">
        <ele>522.6</ele>
        <time>2021-07-24 10:39:15</time>
      </trkpt>
      <trkpt lat="42.82912" lon="-2.60261">
        <ele>523.2</ele>
        <time>2021-07-24 10:39:19</time>
      </trkpt>
      <trkpt lat="42.82911" lon="-2.6024">
        <ele>523.4</ele>
        <time>2021-07-24 10:39:23</time>
      </trkpt>
      <trkpt lat="42.82909" lon="-2.6022">
        <ele>523.6</ele>
        <time>2021-07-24 10:39:27</time>
      </trkpt>
      <trkpt lat="42.82908" lon="-2.60198">
        <ele>523.4</ele>
        <time>2021-07-24 10:39:31</time>
      </trkpt>
      <trkpt lat="42.82907" lon="-2.60177">
        <ele>524.2</ele>
        <time>2021-07-24 10:39:35</time>
      </trkpt>
      <trkpt lat="42.82906" lon="-2.60156">
        <ele>524</ele>
        <time>2021-07-24 10:39:39</time>
      </trkpt>
      <trkpt lat="42.82904" lon="-2.60134">
        <ele>524.6</ele>
        <time>2021-07-24 10:39:43</time>
      </trkpt>
      <trkpt lat="42.82903" lon="-2.60111">
        <ele>524.4</ele>
        <time>2021-07-24 10:39:47</time>
      </trkpt>
      <trkpt lat="42.82902" lon="-2.60089">
        <ele>525</ele>
        <time>2021-07-24 10:39:51</time>
      </trkpt>
      <trkpt lat="42.829" lon="-2.60067">
        <ele>525</ele>
        <time>2021-07-24 10:39:55</time>
      </trkpt>
      <trkpt lat="42.82899" lon="-2.60046">
        <ele>524.6</ele>
        <time>2021-07-24 10:39:59</time>
      </trkpt>
      <trkpt lat="42.82898" lon="-2.60024">
        <ele>524.4</ele>
        <time>2021-07-24 10:40:03</time>
      </trkpt>
      <trkpt lat="42.82897" lon="-2.60004">
        <ele>525</ele>
        <time>2021-07-24 10:40:07</time>
      </trkpt>
      <trkpt lat="42.82896" lon="-2.59985">
        <ele>526.2</ele>
        <time>2021-07-24 10:40:11</time>
      </trkpt>
      <trkpt lat="42.82894" lon="-2.59967">
        <ele>526</ele>
        <time>2021-07-24 10:40:15</time>
      </trkpt>
      <trkpt lat="42.82893" lon="-2.59947">
        <ele>525.6</ele>
        <time>2021-07-24 10:40:19</time>
      </trkpt>
      <trkpt lat="42.82892" lon="-2.59926">
        <ele>525.6</ele>
        <time>2021-07-24 10:40:23</time>
      </trkpt>
      <trkpt lat="42.82891" lon="-2.59904">
        <ele>526.6</ele>
        <time>2021-07-24 10:40:27</time>
      </trkpt>
      <trkpt lat="42.8289" lon="-2.59883">
        <ele>526.4</ele>
        <time>2021-07-24 10:40:31</time>
      </trkpt>
      <trkpt lat="42.82888" lon="-2.59861">
        <ele>526</ele>
        <time>2021-07-24 10:40:35</time>
      </trkpt>
      <trkpt lat="42.82887" lon="-2.5984">
        <ele>526.2</ele>
        <time>2021-07-24 10:40:39</time>
      </trkpt>
      <trkpt lat="42.82886" lon="-2.59818">
        <ele>526.6</ele>
        <time>2021-07-24 10:40:43</time>
      </trkpt>
      <trkpt lat="42.82884" lon="-2.59796">
        <ele>526.6</ele>
        <time>2021-07-24 10:40:47</time>
      </trkpt>
      <trkpt lat="42.82882" lon="-2.59775">
        <ele>527</ele>
        <time>2021-07-24 10:40:51</time>
      </trkpt>
      <trkpt lat="42.82881" lon="-2.59754">
        <ele>527.4</ele>
        <time>2021-07-24 10:40:55</time>
      </trkpt>
      <trkpt lat="42.82879" lon="-2.59733">
        <ele>527.2</ele>
        <time>2021-07-24 10:40:59</time>
      </trkpt>
      <trkpt lat="42.82879" lon="-2.59712">
        <ele>528.2</ele>
        <time>2021-07-24 10:41:03</time>
      </trkpt>
      <trkpt lat="42.82877" lon="-2.5969">
        <ele>528</ele>
        <time>2021-07-24 10:41:07</time>
      </trkpt>
      <trkpt lat="42.82876" lon="-2.59668">
        <ele>528</ele>
        <time>2021-07-24 10:41:11</time>
      </trkpt>
      <trkpt lat="42.82874" lon="-2.59645">
        <ele>527.8</ele>
        <time>2021-07-24 10:41:15</time>
      </trkpt>
      <trkpt lat="42.82873" lon="-2.59621">
        <ele>528.4</ele>
        <time>2021-07-24 10:41:19</time>
      </trkpt>
      <trkpt lat="42.82872" lon="-2.59597">
        <ele>528.2</ele>
        <time>2021-07-24 10:41:23</time>
      </trkpt>
      <trkpt lat="42.8287" lon="-2.59573">
        <ele>528.6</ele>
        <time>2021-07-24 10:41:27</time>
      </trkpt>
      <trkpt lat="42.82868" lon="-2.59548">
        <ele>528.2</ele>
        <time>2021-07-24 10:41:31</time>
      </trkpt>
      <trkpt lat="42.82867" lon="-2.59524">
        <ele>529.2</ele>
        <time>2021-07-24 10:41:35</time>
      </trkpt>
      <trkpt lat="42.82866" lon="-2.59502">
        <ele>529.4</ele>
        <time>2021-07-24 10:41:39</time>
      </trkpt>
      <trkpt lat="42.82865" lon="-2.59481">
        <ele>528.4</ele>
        <time>2021-07-24 10:41:43</time>
      </trkpt>
      <trkpt lat="42.82865" lon="-2.59457">
        <ele>528.4</ele>
        <time>2021-07-24 10:41:47</time>
      </trkpt>
      <trkpt lat="42.82864" lon="-2.59435">
        <ele>529.2</ele>
        <time>2021-07-24 10:41:51</time>
      </trkpt>
      <trkpt lat="42.82862" lon="-2.59411">
        <ele>529</ele>
        <time>2021-07-24 10:41:55</time>
      </trkpt>
      <trkpt lat="42.82861" lon="-2.59387">
        <ele>529</ele>
        <time>2021-07-24 10:41:59</time>
      </trkpt>
      <trkpt lat="42.82859" lon="-2.59364">
        <ele>529.2</ele>
        <time>2021-07-24 10:42:03</time>
      </trkpt>
      <trkpt lat="42.82856" lon="-2.5934">
        <ele>529.4</ele>
        <time>2021-07-24 10:42:07</time>
      </trkpt>
      <trkpt lat="42.82854" lon="-2.59318">
        <ele>529.2</ele>
        <time>2021-07-24 10:42:11</time>
      </trkpt>
      <trkpt lat="42.82853" lon="-2.59295">
        <ele>529.2</ele>
        <time>2021-07-24 10:42:15</time>
      </trkpt>
      <trkpt lat="42.82852" lon="-2.59271">
        <ele>529.4</ele>
        <time>2021-07-24 10:42:19</time>
      </trkpt>
      <trkpt lat="42.82851" lon="-2.59247">
        <ele>529.2</ele>
        <time>2021-07-24 10:42:23</time>
      </trkpt>
      <trkpt lat="42.82849" lon="-2.59222">
        <ele>529.4</ele>
        <time>2021-07-24 10:42:27</time>
      </trkpt>
      <trkpt lat="42.82848" lon="-2.59197">
        <ele>529</ele>
        <time>2021-07-24 10:42:31</time>
      </trkpt>
      <trkpt lat="42.82846" lon="-2.59174">
        <ele>529.2</ele>
        <time>2021-07-24 10:42:35</time>
      </trkpt>
      <trkpt lat="42.82845" lon="-2.5915">
        <ele>529.8</ele>
        <time>2021-07-24 10:42:39</time>
      </trkpt>
      <trkpt lat="42.82843" lon="-2.59125">
        <ele>529.8</ele>
        <time>2021-07-24 10:42:43</time>
      </trkpt>
      <trkpt lat="42.82841" lon="-2.59101">
        <ele>530.2</ele>
        <time>2021-07-24 10:42:47</time>
      </trkpt>
      <trkpt lat="42.82841" lon="-2.59078">
        <ele>529.8</ele>
        <time>2021-07-24 10:42:51</time>
      </trkpt>
      <trkpt lat="42.82841" lon="-2.59052">
        <ele>529.8</ele>
        <time>2021-07-24 10:42:55</time>
      </trkpt>
      <trkpt lat="42.8284" lon="-2.59027">
        <ele>530.4</ele>
        <time>2021-07-24 10:42:59</time>
      </trkpt>
      <trkpt lat="42.8284" lon="-2.59003">
        <ele>530</ele>
        <time>2021-07-24 10:43:03</time>
      </trkpt>
      <trkpt lat="42.82839" lon="-2.58979">
        <ele>529.2</ele>
        <time>2021-07-24 10:43:07</time>
      </trkpt>
      <trkpt lat="42.82838" lon="-2.58952">
        <ele>528.6</ele>
        <time>2021-07-24 10:43:11</time>
      </trkpt>
      <trkpt lat="42.82836" lon="-2.58926">
        <ele>528.8</ele>
        <time>2021-07-24 10:43:15</time>
      </trkpt>
      <trkpt lat="42.82833" lon="-2.58902">
        <ele>529</ele>
        <time>2021-07-24 10:43:19</time>
      </trkpt>
      <trkpt lat="42.8283" lon="-2.58876">
        <ele>529</ele>
        <time>2021-07-24 10:43:23</time>
      </trkpt>
      <trkpt lat="42.82827" lon="-2.5885">
        <ele>529.8</ele>
        <time>2021-07-24 10:43:27</time>
      </trkpt>
      <trkpt lat="42.82826" lon="-2.58824">
        <ele>529.2</ele>
        <time>2021-07-24 10:43:31</time>
      </trkpt>
      <trkpt lat="42.82824" lon="-2.58797">
        <ele>528.8</ele>
        <time>2021-07-24 10:43:35</time>
      </trkpt>
      <trkpt lat="42.82823" lon="-2.58771">
        <ele>528.4</ele>
        <time>2021-07-24 10:43:39</time>
      </trkpt>
      <trkpt lat="42.82821" lon="-2.58744">
        <ele>527.4</ele>
        <time>2021-07-24 10:43:43</time>
      </trkpt>
      <trkpt lat="42.8282" lon="-2.58717">
        <ele>528.6</ele>
        <time>2021-07-24 10:43:47</time>
      </trkpt>
      <trkpt lat="42.82818" lon="-2.58689">
        <ele>528</ele>
        <time>2021-07-24 10:43:51</time>
      </trkpt>
      <trkpt lat="42.82817" lon="-2.5866">
        <ele>528.2</ele>
        <time>2021-07-24 10:43:55</time>
      </trkpt>
      <trkpt lat="42.82815" lon="-2.58635">
        <ele>528</ele>
        <time>2021-07-24 10:43:59</time>
      </trkpt>
      <trkpt lat="42.82813" lon="-2.58606">
        <ele>527.2</ele>
        <time>2021-07-24 10:44:03</time>
      </trkpt>
      <trkpt lat="42.82811" lon="-2.58577">
        <ele>527.4</ele>
        <time>2021-07-24 10:44:07</time>
      </trkpt>
      <trkpt lat="42.82811" lon="-2.58549">
        <ele>527.6</ele>
        <time>2021-07-24 10:44:11</time>
      </trkpt>
      <trkpt lat="42.82811" lon="-2.58522">
        <ele>527.6</ele>
        <time>2021-07-24 10:44:15</time>
      </trkpt>
      <trkpt lat="42.82809" lon="-2.58494">
        <ele>527.6</ele>
        <time>2021-07-24 10:44:19</time>
      </trkpt>
      <trkpt lat="42.82808" lon="-2.58466">
        <ele>527.6</ele>
        <time>2021-07-24 10:44:23</time>
      </trkpt>
      <trkpt lat="42.82805" lon="-2.58438">
        <ele>527.8</ele>
        <time>2021-07-24 10:44:27</time>
      </trkpt>
      <trkpt lat="42.82802" lon="-2.58411">
        <ele>528.4</ele>
        <time>2021-07-24 10:44:31</time>
      </trkpt>
      <trkpt lat="42.82801" lon="-2.58384">
        <ele>528.8</ele>
        <time>2021-07-24 10:44:35</time>
      </trkpt>
      <trkpt lat="42.828" lon="-2.58357">
        <ele>528.4</ele>
        <time>2021-07-24 10:44:39</time>
      </trkpt>
      <trkpt lat="42.82798" lon="-2.5833">
        <ele>528.4</ele>
        <time>2021-07-24 10:44:43</time>
      </trkpt>
      <trkpt lat="42.82795" lon="-2.58303">
        <ele>528.4</ele>
        <time>2021-07-24 10:44:47</time>
      </trkpt>
      <trkpt lat="42.82793" lon="-2.58274">
        <ele>528</ele>
        <time>2021-07-24 10:44:51</time>
      </trkpt>
      <trkpt lat="42.82792" lon="-2.58246">
        <ele>528.4</ele>
        <time>2021-07-24 10:44:55</time>
      </trkpt>
      <trkpt lat="42.8279" lon="-2.58219">
        <ele>528.4</ele>
        <time>2021-07-24 10:44:59</time>
      </trkpt>
      <trkpt lat="42.82789" lon="-2.58194">
        <ele>528.8</ele>
        <time>2021-07-24 10:45:03</time>
      </trkpt>
      <trkpt lat="42.8279" lon="-2.58168">
        <ele>528.4</ele>
        <time>2021-07-24 10:45:07</time>
      </trkpt>
      <trkpt lat="42.82791" lon="-2.58137">
        <ele>528.2</ele>
        <time>2021-07-24 10:45:11</time>
      </trkpt>
      <trkpt lat="42.82789" lon="-2.58108">
        <ele>528.2</ele>
        <time>2021-07-24 10:45:15</time>
      </trkpt>
      <trkpt lat="42.82786" lon="-2.58078">
        <ele>527.8</ele>
        <time>2021-07-24 10:45:19</time>
      </trkpt>
      <trkpt lat="42.82782" lon="-2.58048">
        <ele>528.2</ele>
        <time>2021-07-24 10:45:23</time>
      </trkpt>
      <trkpt lat="42.82779" lon="-2.5802">
        <ele>528.2</ele>
        <time>2021-07-24 10:45:27</time>
      </trkpt>
      <trkpt lat="42.82776" lon="-2.57993">
        <ele>528</ele>
        <time>2021-07-24 10:45:31</time>
      </trkpt>
      <trkpt lat="42.82775" lon="-2.57965">
        <ele>528.8</ele>
        <time>2021-07-24 10:45:35</time>
      </trkpt>
      <trkpt lat="42.82772" lon="-2.57937">
        <ele>528.4</ele>
        <time>2021-07-24 10:45:39</time>
      </trkpt>
      <trkpt lat="42.8277" lon="-2.57909">
        <ele>528.2</ele>
        <time>2021-07-24 10:45:43</time>
      </trkpt>
      <trkpt lat="42.82768" lon="-2.57883">
        <ele>528.8</ele>
        <time>2021-07-24 10:45:47</time>
      </trkpt>
      <trkpt lat="42.82769" lon="-2.57856">
        <ele>529.2</ele>
        <time>2021-07-24 10:45:51</time>
      </trkpt>
      <trkpt lat="42.8277" lon="-2.5783">
        <ele>528.8</ele>
        <time>2021-07-24 10:45:55</time>
      </trkpt>
      <trkpt lat="42.82773" lon="-2.57804">
        <ele>529</ele>
        <time>2021-07-24 10:45:59</time>
      </trkpt>
      <trkpt lat="42.82776" lon="-2.57775">
        <ele>528.4</ele>
        <time>2021-07-24 10:46:03</time>
      </trkpt>
      <trkpt lat="42.8278" lon="-2.57746">
        <ele>528.6</ele>
        <time>2021-07-24 10:46:07</time>
      </trkpt>
      <trkpt lat="42.82787" lon="-2.57718">
        <ele>528.6</ele>
        <time>2021-07-24 10:46:11</time>
      </trkpt>
      <trkpt lat="42.82793" lon="-2.57691">
        <ele>528.4</ele>
        <time>2021-07-24 10:46:15</time>
      </trkpt>
      <trkpt lat="42.82799" lon="-2.57664">
        <ele>528.6</ele>
        <time>2021-07-24 10:46:19</time>
      </trkpt>
      <trkpt lat="42.82806" lon="-2.57636">
        <ele>529</ele>
        <time>2021-07-24 10:46:23</time>
      </trkpt>
      <trkpt lat="42.82814" lon="-2.57608">
        <ele>528.8</ele>
        <time>2021-07-24 10:46:27</time>
      </trkpt>
      <trkpt lat="42.82819" lon="-2.5758">
        <ele>528.8</ele>
        <time>2021-07-24 10:46:31</time>
      </trkpt>
      <trkpt lat="42.82826" lon="-2.57551">
        <ele>528.4</ele>
        <time>2021-07-24 10:46:35</time>
      </trkpt>
      <trkpt lat="42.82832" lon="-2.57523">
        <ele>528.6</ele>
        <time>2021-07-24 10:46:39</time>
      </trkpt>
      <trkpt lat="42.82838" lon="-2.57495">
        <ele>528.8</ele>
        <time>2021-07-24 10:46:43</time>
      </trkpt>
      <trkpt lat="42.82845" lon="-2.57468">
        <ele>528.6</ele>
        <time>2021-07-24 10:46:47</time>
      </trkpt>
      <trkpt lat="42.82852" lon="-2.57442">
        <ele>528.8</ele>
        <time>2021-07-24 10:46:51</time>
      </trkpt>
      <trkpt lat="42.82858" lon="-2.57415">
        <ele>528.6</ele>
        <time>2021-07-24 10:46:55</time>
      </trkpt>
      <trkpt lat="42.82864" lon="-2.57389">
        <ele>529.4</ele>
        <time>2021-07-24 10:46:59</time>
      </trkpt>
      <trkpt lat="42.8287" lon="-2.57364">
        <ele>528.8</ele>
        <time>2021-07-24 10:47:03</time>
      </trkpt>
      <trkpt lat="42.82876" lon="-2.57339">
        <ele>529</ele>
        <time>2021-07-24 10:47:07</time>
      </trkpt>
      <trkpt lat="42.82883" lon="-2.57313">
        <ele>528.6</ele>
        <time>2021-07-24 10:47:11</time>
      </trkpt>
      <trkpt lat="42.82889" lon="-2.57288">
        <ele>529.2</ele>
        <time>2021-07-24 10:47:15</time>
      </trkpt>
      <trkpt lat="42.82895" lon="-2.57263">
        <ele>529</ele>
        <time>2021-07-24 10:47:19</time>
      </trkpt>
      <trkpt lat="42.82901" lon="-2.57237">
        <ele>528.8</ele>
        <time>2021-07-24 10:47:23</time>
      </trkpt>
      <trkpt lat="42.82907" lon="-2.57212">
        <ele>529.2</ele>
        <time>2021-07-24 10:47:27</time>
      </trkpt>
      <trkpt lat="42.82913" lon="-2.57187">
        <ele>529.2</ele>
        <time>2021-07-24 10:47:31</time>
      </trkpt>
      <trkpt lat="42.82918" lon="-2.57161">
        <ele>528.6</ele>
        <time>2021-07-24 10:47:35</time>
      </trkpt>
      <trkpt lat="42.82924" lon="-2.57136">
        <ele>529.2</ele>
        <time>2021-07-24 10:47:39</time>
      </trkpt>
      <trkpt lat="42.82929" lon="-2.57112">
        <ele>529.8</ele>
        <time>2021-07-24 10:47:43</time>
      </trkpt>
      <trkpt lat="42.82932" lon="-2.57095">
        <ele>531</ele>
        <time>2021-07-24 10:47:47</time>
      </trkpt>
      <trkpt lat="42.82935" lon="-2.57082">
        <ele>529.8</ele>
        <time>2021-07-24 10:47:51</time>
      </trkpt>
      <trkpt lat="42.82939" lon="-2.57068">
        <ele>528.4</ele>
        <time>2021-07-24 10:47:55</time>
      </trkpt>
      <trkpt lat="42.82944" lon="-2.57048">
        <ele>527.4</ele>
        <time>2021-07-24 10:47:59</time>
      </trkpt>
      <trkpt lat="42.8295" lon="-2.57025">
        <ele>527.8</ele>
        <time>2021-07-24 10:48:03</time>
      </trkpt>
      <trkpt lat="42.82955" lon="-2.57003">
        <ele>528.4</ele>
        <time>2021-07-24 10:48:07</time>
      </trkpt>
      <trkpt lat="42.8296" lon="-2.56979">
        <ele>528.4</ele>
        <time>2021-07-24 10:48:11</time>
      </trkpt>
      <trkpt lat="42.82966" lon="-2.56957">
        <ele>528.6</ele>
        <time>2021-07-24 10:48:15</time>
      </trkpt>
      <trkpt lat="42.82971" lon="-2.56935">
        <ele>529</ele>
        <time>2021-07-24 10:48:19</time>
      </trkpt>
      <trkpt lat="42.82977" lon="-2.56912">
        <ele>529</ele>
        <time>2021-07-24 10:48:23</time>
      </trkpt>
      <trkpt lat="42.82982" lon="-2.56893">
        <ele>529.4</ele>
        <time>2021-07-24 10:48:27</time>
      </trkpt>
      <trkpt lat="42.82984" lon="-2.56887">
        <ele>529.2</ele>
        <time>2021-07-24 10:48:31</time>
      </trkpt>
      <trkpt lat="42.82986" lon="-2.56877">
        <ele>529.2</ele>
        <time>2021-07-24 10:48:35</time>
      </trkpt>
      <trkpt lat="42.82989" lon="-2.56862">
        <ele>528</ele>
        <time>2021-07-24 10:48:39</time>
      </trkpt>
      <trkpt lat="42.82994" lon="-2.56838">
        <ele>524.8</ele>
        <time>2021-07-24 10:48:43</time>
      </trkpt>
      <trkpt lat="42.82997" lon="-2.56816">
        <ele>526.4</ele>
        <time>2021-07-24 10:48:47</time>
      </trkpt>
      <trkpt lat="42.83005" lon="-2.56799">
        <ele>527.4</ele>
        <time>2021-07-24 10:48:51</time>
      </trkpt>
      <trkpt lat="42.8301" lon="-2.56789">
        <ele>528.6</ele>
        <time>2021-07-24 10:48:55</time>
      </trkpt>
      <trkpt lat="42.83015" lon="-2.56778">
        <ele>528.8</ele>
        <time>2021-07-24 10:48:59</time>
      </trkpt>
      <trkpt lat="42.8302" lon="-2.56761">
        <ele>528.2</ele>
        <time>2021-07-24 10:49:03</time>
      </trkpt>
      <trkpt lat="42.83025" lon="-2.56744">
        <ele>528.6</ele>
        <time>2021-07-24 10:49:07</time>
      </trkpt>
      <trkpt lat="42.83025" lon="-2.5673">
        <ele>528.8</ele>
        <time>2021-07-24 10:49:11</time>
      </trkpt>
      <trkpt lat="42.83025" lon="-2.5672">
        <ele>529.2</ele>
        <time>2021-07-24 10:49:15</time>
      </trkpt>
      <trkpt lat="42.83028" lon="-2.56709">
        <ele>528.8</ele>
        <time>2021-07-24 10:49:19</time>
      </trkpt>
      <trkpt lat="42.83034" lon="-2.5669">
        <ele>528.6</ele>
        <time>2021-07-24 10:49:23</time>
      </trkpt>
      <trkpt lat="42.83039" lon="-2.56668">
        <ele>529</ele>
        <time>2021-07-24 10:49:27</time>
      </trkpt>
      <trkpt lat="42.83044" lon="-2.56646">
        <ele>529.6</ele>
        <time>2021-07-24 10:49:31</time>
      </trkpt>
      <trkpt lat="42.83049" lon="-2.56624">
        <ele>529.8</ele>
        <time>2021-07-24 10:49:35</time>
      </trkpt>
      <trkpt lat="42.83054" lon="-2.56603">
        <ele>529.8</ele>
        <time>2021-07-24 10:49:39</time>
      </trkpt>
      <trkpt lat="42.83057" lon="-2.56581">
        <ele>530.6</ele>
        <time>2021-07-24 10:49:43</time>
      </trkpt>
      <trkpt lat="42.83058" lon="-2.56559">
        <ele>530.6</ele>
        <time>2021-07-24 10:49:47</time>
      </trkpt>
      <trkpt lat="42.83059" lon="-2.56536">
        <ele>530.6</ele>
        <time>2021-07-24 10:49:51</time>
      </trkpt>
      <trkpt lat="42.83059" lon="-2.56514">
        <ele>531.2</ele>
        <time>2021-07-24 10:49:55</time>
      </trkpt>
      <trkpt lat="42.83058" lon="-2.56491">
        <ele>531.4</ele>
        <time>2021-07-24 10:49:59</time>
      </trkpt>
      <trkpt lat="42.83056" lon="-2.56469">
        <ele>532.6</ele>
        <time>2021-07-24 10:50:03</time>
      </trkpt>
      <trkpt lat="42.83053" lon="-2.56446">
        <ele>532.6</ele>
        <time>2021-07-24 10:50:07</time>
      </trkpt>
      <trkpt lat="42.83049" lon="-2.56424">
        <ele>532.8</ele>
        <time>2021-07-24 10:50:11</time>
      </trkpt>
      <trkpt lat="42.83044" lon="-2.56403">
        <ele>533.6</ele>
        <time>2021-07-24 10:50:15</time>
      </trkpt>
      <trkpt lat="42.83038" lon="-2.56382">
        <ele>533.6</ele>
        <time>2021-07-24 10:50:19</time>
      </trkpt>
      <trkpt lat="42.8303" lon="-2.56362">
        <ele>534.2</ele>
        <time>2021-07-24 10:50:23</time>
      </trkpt>
      <trkpt lat="42.83021" lon="-2.56339">
        <ele>533.6</ele>
        <time>2021-07-24 10:50:27</time>
      </trkpt>
      <trkpt lat="42.83015" lon="-2.56322">
        <ele>534.8</ele>
        <time>2021-07-24 10:50:31</time>
      </trkpt>
      <trkpt lat="42.83008" lon="-2.56307">
        <ele>534.8</ele>
        <time>2021-07-24 10:50:35</time>
      </trkpt>
      <trkpt lat="42.83001" lon="-2.56289">
        <ele>535.2</ele>
        <time>2021-07-24 10:50:39</time>
      </trkpt>
      <trkpt lat="42.82993" lon="-2.56271">
        <ele>535.4</ele>
        <time>2021-07-24 10:50:43</time>
      </trkpt>
      <trkpt lat="42.82986" lon="-2.56253">
        <ele>535.2</ele>
        <time>2021-07-24 10:50:47</time>
      </trkpt>
      <trkpt lat="42.82978" lon="-2.56234">
        <ele>536.2</ele>
        <time>2021-07-24 10:50:51</time>
      </trkpt>
      <trkpt lat="42.8297" lon="-2.56214">
        <ele>536.2</ele>
        <time>2021-07-24 10:50:55</time>
      </trkpt>
      <trkpt lat="42.82963" lon="-2.56196">
        <ele>536.8</ele>
        <time>2021-07-24 10:50:59</time>
      </trkpt>
      <trkpt lat="42.82955" lon="-2.56178">
        <ele>537.4</ele>
        <time>2021-07-24 10:51:03</time>
      </trkpt>
      <trkpt lat="42.82948" lon="-2.56159">
        <ele>537.4</ele>
        <time>2021-07-24 10:51:07</time>
      </trkpt>
      <trkpt lat="42.8294" lon="-2.5614">
        <ele>537.4</ele>
        <time>2021-07-24 10:51:11</time>
      </trkpt>
      <trkpt lat="42.82932" lon="-2.56121">
        <ele>538</ele>
        <time>2021-07-24 10:51:15</time>
      </trkpt>
      <trkpt lat="42.82924" lon="-2.56102">
        <ele>538.2</ele>
        <time>2021-07-24 10:51:19</time>
      </trkpt>
      <trkpt lat="42.82916" lon="-2.56083">
        <ele>538.2</ele>
        <time>2021-07-24 10:51:23</time>
      </trkpt>
      <trkpt lat="42.82909" lon="-2.56064">
        <ele>538.6</ele>
        <time>2021-07-24 10:51:27</time>
      </trkpt>
      <trkpt lat="42.82901" lon="-2.56045">
        <ele>539</ele>
        <time>2021-07-24 10:51:31</time>
      </trkpt>
      <trkpt lat="42.82893" lon="-2.56026">
        <ele>539.2</ele>
        <time>2021-07-24 10:51:35</time>
      </trkpt>
      <trkpt lat="42.82885" lon="-2.56007">
        <ele>539.6</ele>
        <time>2021-07-24 10:51:39</time>
      </trkpt>
      <trkpt lat="42.82877" lon="-2.55988">
        <ele>540.2</ele>
        <time>2021-07-24 10:51:43</time>
      </trkpt>
      <trkpt lat="42.8287" lon="-2.55969">
        <ele>540.6</ele>
        <time>2021-07-24 10:51:47</time>
      </trkpt>
      <trkpt lat="42.82862" lon="-2.55951">
        <ele>541</ele>
        <time>2021-07-24 10:51:51</time>
      </trkpt>
      <trkpt lat="42.82855" lon="-2.55932">
        <ele>541</ele>
        <time>2021-07-24 10:51:55</time>
      </trkpt>
      <trkpt lat="42.82847" lon="-2.55913">
        <ele>541.2</ele>
        <time>2021-07-24 10:51:59</time>
      </trkpt>
      <trkpt lat="42.82839" lon="-2.55894">
        <ele>541.8</ele>
        <time>2021-07-24 10:52:03</time>
      </trkpt>
      <trkpt lat="42.82831" lon="-2.55876">
        <ele>542.2</ele>
        <time>2021-07-24 10:52:07</time>
      </trkpt>
      <trkpt lat="42.82823" lon="-2.55857">
        <ele>542.4</ele>
        <time>2021-07-24 10:52:11</time>
      </trkpt>
      <trkpt lat="42.82815" lon="-2.55838">
        <ele>542</ele>
        <time>2021-07-24 10:52:15</time>
      </trkpt>
      <trkpt lat="42.82807" lon="-2.55819">
        <ele>542.8</ele>
        <time>2021-07-24 10:52:19</time>
      </trkpt>
      <trkpt lat="42.82799" lon="-2.55799">
        <ele>542.8</ele>
        <time>2021-07-24 10:52:23</time>
      </trkpt>
      <trkpt lat="42.82791" lon="-2.55781">
        <ele>543.4</ele>
        <time>2021-07-24 10:52:27</time>
      </trkpt>
      <trkpt lat="42.82784" lon="-2.55763">
        <ele>544</ele>
        <time>2021-07-24 10:52:31</time>
      </trkpt>
      <trkpt lat="42.82777" lon="-2.55744">
        <ele>543.8</ele>
        <time>2021-07-24 10:52:35</time>
      </trkpt>
      <trkpt lat="42.82769" lon="-2.55726">
        <ele>544.2</ele>
        <time>2021-07-24 10:52:39</time>
      </trkpt>
      <trkpt lat="42.82761" lon="-2.55707">
        <ele>544.6</ele>
        <time>2021-07-24 10:52:43</time>
      </trkpt>
      <trkpt lat="42.82754" lon="-2.55688">
        <ele>544.8</ele>
        <time>2021-07-24 10:52:47</time>
      </trkpt>
      <trkpt lat="42.82746" lon="-2.5567">
        <ele>546</ele>
        <time>2021-07-24 10:52:51</time>
      </trkpt>
      <trkpt lat="42.82738" lon="-2.55651">
        <ele>545.6</ele>
        <time>2021-07-24 10:52:55</time>
      </trkpt>
      <trkpt lat="42.82731" lon="-2.55632">
        <ele>545.8</ele>
        <time>2021-07-24 10:52:59</time>
      </trkpt>
      <trkpt lat="42.82722" lon="-2.55613">
        <ele>546.2</ele>
        <time>2021-07-24 10:53:03</time>
      </trkpt>
      <trkpt lat="42.82715" lon="-2.55595">
        <ele>546.6</ele>
        <time>2021-07-24 10:53:07</time>
      </trkpt>
      <trkpt lat="42.82707" lon="-2.55577">
        <ele>547</ele>
        <time>2021-07-24 10:53:11</time>
      </trkpt>
      <trkpt lat="42.82705" lon="-2.55562">
        <ele>547.4</ele>
        <time>2021-07-24 10:53:15</time>
      </trkpt>
      <trkpt lat="42.82707" lon="-2.55546">
        <ele>548</ele>
        <time>2021-07-24 10:53:19</time>
      </trkpt>
      <trkpt lat="42.82699" lon="-2.55527">
        <ele>548.4</ele>
        <time>2021-07-24 10:53:23</time>
      </trkpt>
      <trkpt lat="42.82692" lon="-2.55508">
        <ele>548.4</ele>
        <time>2021-07-24 10:53:27</time>
      </trkpt>
      <trkpt lat="42.82685" lon="-2.5549">
        <ele>548.8</ele>
        <time>2021-07-24 10:53:31</time>
      </trkpt>
      <trkpt lat="42.82678" lon="-2.55471">
        <ele>549</ele>
        <time>2021-07-24 10:53:35</time>
      </trkpt>
      <trkpt lat="42.82671" lon="-2.55453">
        <ele>549.4</ele>
        <time>2021-07-24 10:53:39</time>
      </trkpt>
      <trkpt lat="42.82663" lon="-2.55433">
        <ele>549.6</ele>
        <time>2021-07-24 10:53:43</time>
      </trkpt>
      <trkpt lat="42.82655" lon="-2.55411">
        <ele>549.2</ele>
        <time>2021-07-24 10:53:47</time>
      </trkpt>
      <trkpt lat="42.82646" lon="-2.55387">
        <ele>548.8</ele>
        <time>2021-07-24 10:53:51</time>
      </trkpt>
      <trkpt lat="42.82637" lon="-2.55363">
        <ele>548.2</ele>
        <time>2021-07-24 10:53:55</time>
      </trkpt>
      <trkpt lat="42.82628" lon="-2.55336">
        <ele>547.6</ele>
        <time>2021-07-24 10:53:59</time>
      </trkpt>
      <trkpt lat="42.82618" lon="-2.5531">
        <ele>546</ele>
        <time>2021-07-24 10:54:03</time>
      </trkpt>
      <trkpt lat="42.82607" lon="-2.55285">
        <ele>546</ele>
        <time>2021-07-24 10:54:07</time>
      </trkpt>
      <trkpt lat="42.82594" lon="-2.55266">
        <ele>549</ele>
        <time>2021-07-24 10:54:11</time>
      </trkpt>
      <trkpt lat="42.82587" lon="-2.55257">
        <ele>550</ele>
        <time>2021-07-24 10:54:15</time>
      </trkpt>
      <trkpt lat="42.82581" lon="-2.55253">
        <ele>552.2</ele>
        <time>2021-07-24 10:54:19</time>
      </trkpt>
      <trkpt lat="42.82574" lon="-2.55249">
        <ele>553.2</ele>
        <time>2021-07-24 10:54:23</time>
      </trkpt>
      <trkpt lat="42.82569" lon="-2.55236">
        <ele>553.2</ele>
        <time>2021-07-24 10:54:27</time>
      </trkpt>
      <trkpt lat="42.82562" lon="-2.5522">
        <ele>552.8</ele>
        <time>2021-07-24 10:54:31</time>
      </trkpt>
      <trkpt lat="42.82555" lon="-2.55204">
        <ele>553.4</ele>
        <time>2021-07-24 10:54:35</time>
      </trkpt>
      <trkpt lat="42.82548" lon="-2.55187">
        <ele>554.4</ele>
        <time>2021-07-24 10:54:39</time>
      </trkpt>
      <trkpt lat="42.82541" lon="-2.5517">
        <ele>553.8</ele>
        <time>2021-07-24 10:54:43</time>
      </trkpt>
      <trkpt lat="42.82534" lon="-2.55151">
        <ele>554.6</ele>
        <time>2021-07-24 10:54:47</time>
      </trkpt>
      <trkpt lat="42.82526" lon="-2.55133">
        <ele>555.2</ele>
        <time>2021-07-24 10:54:51</time>
      </trkpt>
      <trkpt lat="42.82519" lon="-2.55114">
        <ele>556.2</ele>
        <time>2021-07-24 10:54:55</time>
      </trkpt>
      <trkpt lat="42.82511" lon="-2.55097">
        <ele>555.8</ele>
        <time>2021-07-24 10:54:59</time>
      </trkpt>
      <trkpt lat="42.82503" lon="-2.55079">
        <ele>556</ele>
        <time>2021-07-24 10:55:03</time>
      </trkpt>
      <trkpt lat="42.82495" lon="-2.5506">
        <ele>556.2</ele>
        <time>2021-07-24 10:55:07</time>
      </trkpt>
      <trkpt lat="42.82485" lon="-2.55044">
        <ele>556.6</ele>
        <time>2021-07-24 10:55:11</time>
      </trkpt>
      <trkpt lat="42.82475" lon="-2.55027">
        <ele>557</ele>
        <time>2021-07-24 10:55:15</time>
      </trkpt>
      <trkpt lat="42.82466" lon="-2.55013">
        <ele>557.4</ele>
        <time>2021-07-24 10:55:19</time>
      </trkpt>
      <trkpt lat="42.82456" lon="-2.54999">
        <ele>558</ele>
        <time>2021-07-24 10:55:23</time>
      </trkpt>
      <trkpt lat="42.82446" lon="-2.54984">
        <ele>558.4</ele>
        <time>2021-07-24 10:55:27</time>
      </trkpt>
      <trkpt lat="42.82437" lon="-2.5497">
        <ele>558.8</ele>
        <time>2021-07-24 10:55:31</time>
      </trkpt>
      <trkpt lat="42.82426" lon="-2.54955">
        <ele>558.4</ele>
        <time>2021-07-24 10:55:35</time>
      </trkpt>
      <trkpt lat="42.82415" lon="-2.54939">
        <ele>558</ele>
        <time>2021-07-24 10:55:39</time>
      </trkpt>
      <trkpt lat="42.82402" lon="-2.54921">
        <ele>557.6</ele>
        <time>2021-07-24 10:55:43</time>
      </trkpt>
      <trkpt lat="42.82385" lon="-2.549">
        <ele>557</ele>
        <time>2021-07-24 10:55:47</time>
      </trkpt>
      <trkpt lat="42.82375" lon="-2.54892">
        <ele>557.4</ele>
        <time>2021-07-24 10:55:51</time>
      </trkpt>
      <trkpt lat="42.82375" lon="-2.54892">
        <ele>558.2</ele>
        <time>2021-07-24 10:55:55</time>
      </trkpt>
      <trkpt lat="42.82375" lon="-2.54892">
        <ele>559</ele>
        <time>2021-07-24 10:55:59</time>
      </trkpt>
      <trkpt lat="42.82285" lon="-2.54754">
        <ele>558.8</ele>
        <time>2021-07-24 10:56:03</time>
      </trkpt>
      <trkpt lat="42.82276" lon="-2.54743">
        <ele>559</ele>
        <time>2021-07-24 10:56:07</time>
      </trkpt>
      <trkpt lat="42.82263" lon="-2.54725">
        <ele>560</ele>
        <time>2021-07-24 10:56:11</time>
      </trkpt>
      <trkpt lat="42.8225" lon="-2.54707">
        <ele>560</ele>
        <time>2021-07-24 10:56:15</time>
      </trkpt>
      <trkpt lat="42.82237" lon="-2.5469">
        <ele>560</ele>
        <time>2021-07-24 10:56:19</time>
      </trkpt>
      <trkpt lat="42.82225" lon="-2.54673">
        <ele>560.2</ele>
        <time>2021-07-24 10:56:23</time>
      </trkpt>
      <trkpt lat="42.82213" lon="-2.54656">
        <ele>560.8</ele>
        <time>2021-07-24 10:56:27</time>
      </trkpt>
      <trkpt lat="42.82201" lon="-2.54638">
        <ele>560.2</ele>
        <time>2021-07-24 10:56:31</time>
      </trkpt>
      <trkpt lat="42.82188" lon="-2.54621">
        <ele>561</ele>
        <time>2021-07-24 10:56:35</time>
      </trkpt>
      <trkpt lat="42.82176" lon="-2.54603">
        <ele>560.6</ele>
        <time>2021-07-24 10:56:39</time>
      </trkpt>
      <trkpt lat="42.82163" lon="-2.54585">
        <ele>561.8</ele>
        <time>2021-07-24 10:56:43</time>
      </trkpt>
      <trkpt lat="42.82151" lon="-2.54568">
        <ele>562</ele>
        <time>2021-07-24 10:56:47</time>
      </trkpt>
      <trkpt lat="42.82139" lon="-2.54551">
        <ele>560.8</ele>
        <time>2021-07-24 10:56:51</time>
      </trkpt>
      <trkpt lat="42.82127" lon="-2.54534">
        <ele>558.4</ele>
        <time>2021-07-24 10:56:55</time>
      </trkpt>
      <trkpt lat="42.82114" lon="-2.54516">
        <ele>560</ele>
        <time>2021-07-24 10:56:59</time>
      </trkpt>
      <trkpt lat="42.82099" lon="-2.54497">
        <ele>561</ele>
        <time>2021-07-24 10:57:03</time>
      </trkpt>
      <trkpt lat="42.8209" lon="-2.54484">
        <ele>562.4</ele>
        <time>2021-07-24 10:57:07</time>
      </trkpt>
      <trkpt lat="42.82083" lon="-2.54471">
        <ele>562.2</ele>
        <time>2021-07-24 10:57:11</time>
      </trkpt>
      <trkpt lat="42.82072" lon="-2.54453">
        <ele>562.4</ele>
        <time>2021-07-24 10:57:15</time>
      </trkpt>
      <trkpt lat="42.8206" lon="-2.54433">
        <ele>563</ele>
        <time>2021-07-24 10:57:19</time>
      </trkpt>
      <trkpt lat="42.82051" lon="-2.54412">
        <ele>563</ele>
        <time>2021-07-24 10:57:23</time>
      </trkpt>
      <trkpt lat="42.82042" lon="-2.5439">
        <ele>563.2</ele>
        <time>2021-07-24 10:57:27</time>
      </trkpt>
      <trkpt lat="42.82034" lon="-2.54368">
        <ele>563.2</ele>
        <time>2021-07-24 10:57:31</time>
      </trkpt>
      <trkpt lat="42.82028" lon="-2.54346">
        <ele>564.2</ele>
        <time>2021-07-24 10:57:35</time>
      </trkpt>
      <trkpt lat="42.82023" lon="-2.54324">
        <ele>564</ele>
        <time>2021-07-24 10:57:39</time>
      </trkpt>
      <trkpt lat="42.82019" lon="-2.54303">
        <ele>564.2</ele>
        <time>2021-07-24 10:57:43</time>
      </trkpt>
      <trkpt lat="42.82015" lon="-2.5428">
        <ele>564</ele>
        <time>2021-07-24 10:57:47</time>
      </trkpt>
      <trkpt lat="42.8201" lon="-2.54258">
        <ele>564.2</ele>
        <time>2021-07-24 10:57:51</time>
      </trkpt>
      <trkpt lat="42.82006" lon="-2.54236">
        <ele>563.6</ele>
        <time>2021-07-24 10:57:55</time>
      </trkpt>
      <trkpt lat="42.82002" lon="-2.54213">
        <ele>564.4</ele>
        <time>2021-07-24 10:57:59</time>
      </trkpt>
      <trkpt lat="42.81997" lon="-2.54188">
        <ele>564.6</ele>
        <time>2021-07-24 10:58:03</time>
      </trkpt>
      <trkpt lat="42.81991" lon="-2.54164">
        <ele>565</ele>
        <time>2021-07-24 10:58:07</time>
      </trkpt>
      <trkpt lat="42.81986" lon="-2.54141">
        <ele>564.6</ele>
        <time>2021-07-24 10:58:11</time>
      </trkpt>
      <trkpt lat="42.81982" lon="-2.54117">
        <ele>565.4</ele>
        <time>2021-07-24 10:58:15</time>
      </trkpt>
      <trkpt lat="42.81977" lon="-2.54093">
        <ele>565.8</ele>
        <time>2021-07-24 10:58:19</time>
      </trkpt>
      <trkpt lat="42.81973" lon="-2.54071">
        <ele>566.4</ele>
        <time>2021-07-24 10:58:23</time>
      </trkpt>
      <trkpt lat="42.81969" lon="-2.54049">
        <ele>566.4</ele>
        <time>2021-07-24 10:58:27</time>
      </trkpt>
      <trkpt lat="42.81964" lon="-2.54031">
        <ele>567</ele>
        <time>2021-07-24 10:58:31</time>
      </trkpt>
      <trkpt lat="42.81961" lon="-2.54012">
        <ele>566.8</ele>
        <time>2021-07-24 10:58:35</time>
      </trkpt>
      <trkpt lat="42.81957" lon="-2.53993">
        <ele>567</ele>
        <time>2021-07-24 10:58:39</time>
      </trkpt>
      <trkpt lat="42.81953" lon="-2.53972">
        <ele>567.4</ele>
        <time>2021-07-24 10:58:43</time>
      </trkpt>
      <trkpt lat="42.81948" lon="-2.5395">
        <ele>567.2</ele>
        <time>2021-07-24 10:58:47</time>
      </trkpt>
      <trkpt lat="42.81944" lon="-2.53928">
        <ele>567.8</ele>
        <time>2021-07-24 10:58:51</time>
      </trkpt>
      <trkpt lat="42.81939" lon="-2.53906">
        <ele>568.2</ele>
        <time>2021-07-24 10:58:55</time>
      </trkpt>
      <trkpt lat="42.81935" lon="-2.53885">
        <ele>568.2</ele>
        <time>2021-07-24 10:58:59</time>
      </trkpt>
      <trkpt lat="42.81931" lon="-2.53863">
        <ele>568.2</ele>
        <time>2021-07-24 10:59:03</time>
      </trkpt>
      <trkpt lat="42.81927" lon="-2.53843">
        <ele>568.8</ele>
        <time>2021-07-24 10:59:07</time>
      </trkpt>
      <trkpt lat="42.81923" lon="-2.53825">
        <ele>568.8</ele>
        <time>2021-07-24 10:59:11</time>
      </trkpt>
      <trkpt lat="42.81919" lon="-2.53804">
        <ele>568.2</ele>
        <time>2021-07-24 10:59:15</time>
      </trkpt>
      <trkpt lat="42.81914" lon="-2.53782">
        <ele>568.6</ele>
        <time>2021-07-24 10:59:19</time>
      </trkpt>
      <trkpt lat="42.81909" lon="-2.53758">
        <ele>569.2</ele>
        <time>2021-07-24 10:59:23</time>
      </trkpt>
      <trkpt lat="42.81905" lon="-2.53735">
        <ele>569</ele>
        <time>2021-07-24 10:59:27</time>
      </trkpt>
      <trkpt lat="42.81901" lon="-2.53713">
        <ele>569.2</ele>
        <time>2021-07-24 10:59:31</time>
      </trkpt>
      <trkpt lat="42.81896" lon="-2.53691">
        <ele>569</ele>
        <time>2021-07-24 10:59:35</time>
      </trkpt>
      <trkpt lat="42.81891" lon="-2.53668">
        <ele>569.4</ele>
        <time>2021-07-24 10:59:39</time>
      </trkpt>
      <trkpt lat="42.81886" lon="-2.53645">
        <ele>570.2</ele>
        <time>2021-07-24 10:59:43</time>
      </trkpt>
      <trkpt lat="42.81882" lon="-2.53622">
        <ele>570.2</ele>
        <time>2021-07-24 10:59:47</time>
      </trkpt>
      <trkpt lat="42.81877" lon="-2.53599">
        <ele>570.6</ele>
        <time>2021-07-24 10:59:51</time>
      </trkpt>
      <trkpt lat="42.81873" lon="-2.53578">
        <ele>570.4</ele>
        <time>2021-07-24 10:59:55</time>
      </trkpt>
      <trkpt lat="42.81869" lon="-2.53557">
        <ele>570.8</ele>
        <time>2021-07-24 10:59:59</time>
      </trkpt>
      <trkpt lat="42.81865" lon="-2.53536">
        <ele>571.2</ele>
        <time>2021-07-24 11:00:03</time>
      </trkpt>
      <trkpt lat="42.8186" lon="-2.53514">
        <ele>571.2</ele>
        <time>2021-07-24 11:00:07</time>
      </trkpt>
      <trkpt lat="42.81856" lon="-2.53492">
        <ele>570.4</ele>
        <time>2021-07-24 11:00:11</time>
      </trkpt>
      <trkpt lat="42.81851" lon="-2.53468">
        <ele>571</ele>
        <time>2021-07-24 11:00:15</time>
      </trkpt>
      <trkpt lat="42.81846" lon="-2.53444">
        <ele>571.2</ele>
        <time>2021-07-24 11:00:19</time>
      </trkpt>
      <trkpt lat="42.81842" lon="-2.53422">
        <ele>571.4</ele>
        <time>2021-07-24 11:00:23</time>
      </trkpt>
      <trkpt lat="42.81837" lon="-2.534">
        <ele>571.6</ele>
        <time>2021-07-24 11:00:27</time>
      </trkpt>
      <trkpt lat="42.81832" lon="-2.53377">
        <ele>571.6</ele>
        <time>2021-07-24 11:00:31</time>
      </trkpt>
      <trkpt lat="42.81827" lon="-2.53353">
        <ele>572.4</ele>
        <time>2021-07-24 11:00:35</time>
      </trkpt>
      <trkpt lat="42.81823" lon="-2.5333">
        <ele>572.6</ele>
        <time>2021-07-24 11:00:39</time>
      </trkpt>
      <trkpt lat="42.81818" lon="-2.53307">
        <ele>573.2</ele>
        <time>2021-07-24 11:00:43</time>
      </trkpt>
      <trkpt lat="42.81813" lon="-2.53285">
        <ele>573.2</ele>
        <time>2021-07-24 11:00:47</time>
      </trkpt>
      <trkpt lat="42.81808" lon="-2.53262">
        <ele>573.2</ele>
        <time>2021-07-24 11:00:51</time>
      </trkpt>
      <trkpt lat="42.81803" lon="-2.53239">
        <ele>570.8</ele>
        <time>2021-07-24 11:00:55</time>
      </trkpt>
      <trkpt lat="42.81798" lon="-2.5321">
        <ele>571</ele>
        <time>2021-07-24 11:00:59</time>
      </trkpt>
      <trkpt lat="42.81792" lon="-2.53183">
        <ele>573.6</ele>
        <time>2021-07-24 11:01:03</time>
      </trkpt>
      <trkpt lat="42.81788" lon="-2.53165">
        <ele>573.4</ele>
        <time>2021-07-24 11:01:07</time>
      </trkpt>
      <trkpt lat="42.81784" lon="-2.53146">
        <ele>574.2</ele>
        <time>2021-07-24 11:01:11</time>
      </trkpt>
      <trkpt lat="42.8178" lon="-2.53124">
        <ele>574.4</ele>
        <time>2021-07-24 11:01:15</time>
      </trkpt>
      <trkpt lat="42.81776" lon="-2.53102">
        <ele>574</ele>
        <time>2021-07-24 11:01:19</time>
      </trkpt>
      <trkpt lat="42.81771" lon="-2.53081">
        <ele>575</ele>
        <time>2021-07-24 11:01:23</time>
      </trkpt>
      <trkpt lat="42.81767" lon="-2.53059">
        <ele>574.4</ele>
        <time>2021-07-24 11:01:27</time>
      </trkpt>
      <trkpt lat="42.81763" lon="-2.53037">
        <ele>574.6</ele>
        <time>2021-07-24 11:01:31</time>
      </trkpt>
      <trkpt lat="42.81758" lon="-2.53016">
        <ele>575.2</ele>
        <time>2021-07-24 11:01:35</time>
      </trkpt>
      <trkpt lat="42.81754" lon="-2.52994">
        <ele>575.4</ele>
        <time>2021-07-24 11:01:39</time>
      </trkpt>
      <trkpt lat="42.81749" lon="-2.52973">
        <ele>575.6</ele>
        <time>2021-07-24 11:01:43</time>
      </trkpt>
      <trkpt lat="42.81746" lon="-2.52954">
        <ele>575.8</ele>
        <time>2021-07-24 11:01:47</time>
      </trkpt>
      <trkpt lat="42.81741" lon="-2.52934">
        <ele>576</ele>
        <time>2021-07-24 11:01:51</time>
      </trkpt>
      <trkpt lat="42.81737" lon="-2.52913">
        <ele>576.2</ele>
        <time>2021-07-24 11:01:55</time>
      </trkpt>
      <trkpt lat="42.81733" lon="-2.52893">
        <ele>576.8</ele>
        <time>2021-07-24 11:01:59</time>
      </trkpt>
      <trkpt lat="42.81728" lon="-2.52871">
        <ele>577.2</ele>
        <time>2021-07-24 11:02:03</time>
      </trkpt>
      <trkpt lat="42.81724" lon="-2.52846">
        <ele>577.4</ele>
        <time>2021-07-24 11:02:07</time>
      </trkpt>
      <trkpt lat="42.81718" lon="-2.5282">
        <ele>577.6</ele>
        <time>2021-07-24 11:02:11</time>
      </trkpt>
      <trkpt lat="42.81713" lon="-2.52793">
        <ele>577.6</ele>
        <time>2021-07-24 11:02:15</time>
      </trkpt>
      <trkpt lat="42.81708" lon="-2.52765">
        <ele>577.4</ele>
        <time>2021-07-24 11:02:19</time>
      </trkpt>
      <trkpt lat="42.81703" lon="-2.52739">
        <ele>577.4</ele>
        <time>2021-07-24 11:02:23</time>
      </trkpt>
      <trkpt lat="42.81698" lon="-2.52715">
        <ele>577.2</ele>
        <time>2021-07-24 11:02:27</time>
      </trkpt>
      <trkpt lat="42.81693" lon="-2.52692">
        <ele>578.4</ele>
        <time>2021-07-24 11:02:31</time>
      </trkpt>
      <trkpt lat="42.81688" lon="-2.52667">
        <ele>578.4</ele>
        <time>2021-07-24 11:02:35</time>
      </trkpt>
      <trkpt lat="42.81683" lon="-2.52642">
        <ele>577.6</ele>
        <time>2021-07-24 11:02:39</time>
      </trkpt>
      <trkpt lat="42.81679" lon="-2.52617">
        <ele>578.6</ele>
        <time>2021-07-24 11:02:43</time>
      </trkpt>
      <trkpt lat="42.81676" lon="-2.52592">
        <ele>578.8</ele>
        <time>2021-07-24 11:02:47</time>
      </trkpt>
      <trkpt lat="42.81673" lon="-2.52566">
        <ele>579.2</ele>
        <time>2021-07-24 11:02:51</time>
      </trkpt>
      <trkpt lat="42.81672" lon="-2.5254">
        <ele>579.8</ele>
        <time>2021-07-24 11:02:55</time>
      </trkpt>
      <trkpt lat="42.81672" lon="-2.52514">
        <ele>580.2</ele>
        <time>2021-07-24 11:02:59</time>
      </trkpt>
      <trkpt lat="42.81672" lon="-2.52488">
        <ele>580.2</ele>
        <time>2021-07-24 11:03:03</time>
      </trkpt>
      <trkpt lat="42.81673" lon="-2.52468">
        <ele>579.4</ele>
        <time>2021-07-24 11:03:07</time>
      </trkpt>
      <trkpt lat="42.81674" lon="-2.52453">
        <ele>579.4</ele>
        <time>2021-07-24 11:03:11</time>
      </trkpt>
      <trkpt lat="42.81675" lon="-2.52442">
        <ele>577.8</ele>
        <time>2021-07-24 11:03:15</time>
      </trkpt>
      <trkpt lat="42.81675" lon="-2.52428">
        <ele>577.8</ele>
        <time>2021-07-24 11:03:19</time>
      </trkpt>
      <trkpt lat="42.81676" lon="-2.52418">
        <ele>577.8</ele>
        <time>2021-07-24 11:03:23</time>
      </trkpt>
      <trkpt lat="42.81684" lon="-2.52411">
        <ele>578.2</ele>
        <time>2021-07-24 11:03:27</time>
      </trkpt>
      <trkpt lat="42.81692" lon="-2.52402">
        <ele>579.2</ele>
        <time>2021-07-24 11:03:31</time>
      </trkpt>
      <trkpt lat="42.81692" lon="-2.5239">
        <ele>579.8</ele>
        <time>2021-07-24 11:03:35</time>
      </trkpt>
      <trkpt lat="42.81692" lon="-2.52383">
        <ele>579.4</ele>
        <time>2021-07-24 11:03:39</time>
      </trkpt>
      <trkpt lat="42.81694" lon="-2.5237">
        <ele>580.6</ele>
        <time>2021-07-24 11:03:43</time>
      </trkpt>
      <trkpt lat="42.81696" lon="-2.52356">
        <ele>580.6</ele>
        <time>2021-07-24 11:03:47</time>
      </trkpt>
      <trkpt lat="42.81699" lon="-2.52339">
        <ele>580.2</ele>
        <time>2021-07-24 11:03:51</time>
      </trkpt>
      <trkpt lat="42.81702" lon="-2.52321">
        <ele>581.2</ele>
        <time>2021-07-24 11:03:55</time>
      </trkpt>
      <trkpt lat="42.81705" lon="-2.52301">
        <ele>581.2</ele>
        <time>2021-07-24 11:03:59</time>
      </trkpt>
      <trkpt lat="42.81706" lon="-2.5228">
        <ele>581.6</ele>
        <time>2021-07-24 11:04:03</time>
      </trkpt>
      <trkpt lat="42.81705" lon="-2.5226">
        <ele>581.4</ele>
        <time>2021-07-24 11:04:07</time>
      </trkpt>
      <trkpt lat="42.81708" lon="-2.5224">
        <ele>581.4</ele>
        <time>2021-07-24 11:04:11</time>
      </trkpt>
      <trkpt lat="42.81712" lon="-2.52219">
        <ele>581.2</ele>
        <time>2021-07-24 11:04:15</time>
      </trkpt>
      <trkpt lat="42.81717" lon="-2.52196">
        <ele>582</ele>
        <time>2021-07-24 11:04:19</time>
      </trkpt>
      <trkpt lat="42.81721" lon="-2.52175">
        <ele>580.8</ele>
        <time>2021-07-24 11:04:23</time>
      </trkpt>
      <trkpt lat="42.81726" lon="-2.52153">
        <ele>581.8</ele>
        <time>2021-07-24 11:04:27</time>
      </trkpt>
      <trkpt lat="42.81731" lon="-2.52132">
        <ele>582.2</ele>
        <time>2021-07-24 11:04:31</time>
      </trkpt>
      <trkpt lat="42.81733" lon="-2.5211">
        <ele>581.6</ele>
        <time>2021-07-24 11:04:35</time>
      </trkpt>
      <trkpt lat="42.81736" lon="-2.52087">
        <ele>582</ele>
        <time>2021-07-24 11:04:39</time>
      </trkpt>
      <trkpt lat="42.81738" lon="-2.52066">
        <ele>582.8</ele>
        <time>2021-07-24 11:04:43</time>
      </trkpt>
      <trkpt lat="42.8174" lon="-2.52045">
        <ele>582.6</ele>
        <time>2021-07-24 11:04:47</time>
      </trkpt>
      <trkpt lat="42.8174" lon="-2.52024">
        <ele>582.8</ele>
        <time>2021-07-24 11:04:51</time>
      </trkpt>
      <trkpt lat="42.81739" lon="-2.52002">
        <ele>583</ele>
        <time>2021-07-24 11:04:55</time>
      </trkpt>
      <trkpt lat="42.8174" lon="-2.51979">
        <ele>582.6</ele>
        <time>2021-07-24 11:04:59</time>
      </trkpt>
      <trkpt lat="42.8174" lon="-2.51954">
        <ele>582.6</ele>
        <time>2021-07-24 11:05:03</time>
      </trkpt>
      <trkpt lat="42.81739" lon="-2.51928">
        <ele>583.4</ele>
        <time>2021-07-24 11:05:07</time>
      </trkpt>
      <trkpt lat="42.81737" lon="-2.51903">
        <ele>583.2</ele>
        <time>2021-07-24 11:05:11</time>
      </trkpt>
      <trkpt lat="42.81735" lon="-2.51878">
        <ele>583.4</ele>
        <time>2021-07-24 11:05:15</time>
      </trkpt>
      <trkpt lat="42.81734" lon="-2.51853">
        <ele>583.4</ele>
        <time>2021-07-24 11:05:19</time>
      </trkpt>
      <trkpt lat="42.81732" lon="-2.51828">
        <ele>583.8</ele>
        <time>2021-07-24 11:05:23</time>
      </trkpt>
      <trkpt lat="42.81731" lon="-2.51803">
        <ele>584.2</ele>
        <time>2021-07-24 11:05:27</time>
      </trkpt>
      <trkpt lat="42.81729" lon="-2.51779">
        <ele>584.2</ele>
        <time>2021-07-24 11:05:31</time>
      </trkpt>
      <trkpt lat="42.81727" lon="-2.51756">
        <ele>584.6</ele>
        <time>2021-07-24 11:05:35</time>
      </trkpt>
      <trkpt lat="42.81726" lon="-2.51732">
        <ele>584.8</ele>
        <time>2021-07-24 11:05:39</time>
      </trkpt>
      <trkpt lat="42.81724" lon="-2.51709">
        <ele>585</ele>
        <time>2021-07-24 11:05:43</time>
      </trkpt>
      <trkpt lat="42.81723" lon="-2.51686">
        <ele>585</ele>
        <time>2021-07-24 11:05:47</time>
      </trkpt>
      <trkpt lat="42.81721" lon="-2.51662">
        <ele>586</ele>
        <time>2021-07-24 11:05:51</time>
      </trkpt>
      <trkpt lat="42.8172" lon="-2.51639">
        <ele>585.8</ele>
        <time>2021-07-24 11:05:55</time>
      </trkpt>
      <trkpt lat="42.81718" lon="-2.51615">
        <ele>585.6</ele>
        <time>2021-07-24 11:05:59</time>
      </trkpt>
      <trkpt lat="42.81717" lon="-2.51591">
        <ele>586.4</ele>
        <time>2021-07-24 11:06:03</time>
      </trkpt>
      <trkpt lat="42.81715" lon="-2.51567">
        <ele>586.4</ele>
        <time>2021-07-24 11:06:07</time>
      </trkpt>
      <trkpt lat="42.81714" lon="-2.51543">
        <ele>586.8</ele>
        <time>2021-07-24 11:06:11</time>
      </trkpt>
      <trkpt lat="42.81713" lon="-2.5152">
        <ele>587.2</ele>
        <time>2021-07-24 11:06:15</time>
      </trkpt>
      <trkpt lat="42.81712" lon="-2.51497">
        <ele>587.4</ele>
        <time>2021-07-24 11:06:19</time>
      </trkpt>
      <trkpt lat="42.8171" lon="-2.51476">
        <ele>588.2</ele>
        <time>2021-07-24 11:06:23</time>
      </trkpt>
      <trkpt lat="42.81709" lon="-2.51455">
        <ele>588.2</ele>
        <time>2021-07-24 11:06:27</time>
      </trkpt>
      <trkpt lat="42.81707" lon="-2.51432">
        <ele>588.8</ele>
        <time>2021-07-24 11:06:31</time>
      </trkpt>
      <trkpt lat="42.81705" lon="-2.51409">
        <ele>588.2</ele>
        <time>2021-07-24 11:06:35</time>
      </trkpt>
      <trkpt lat="42.81704" lon="-2.51386">
        <ele>587.8</ele>
        <time>2021-07-24 11:06:39</time>
      </trkpt>
      <trkpt lat="42.81702" lon="-2.51363">
        <ele>588.6</ele>
        <time>2021-07-24 11:06:43</time>
      </trkpt>
      <trkpt lat="42.81701" lon="-2.51341">
        <ele>588.6</ele>
        <time>2021-07-24 11:06:47</time>
      </trkpt>
      <trkpt lat="42.81699" lon="-2.51318">
        <ele>589</ele>
        <time>2021-07-24 11:06:51</time>
      </trkpt>
      <trkpt lat="42.81698" lon="-2.51295">
        <ele>589.6</ele>
        <time>2021-07-24 11:06:55</time>
      </trkpt>
      <trkpt lat="42.81697" lon="-2.51273">
        <ele>589.6</ele>
        <time>2021-07-24 11:06:59</time>
      </trkpt>
      <trkpt lat="42.81695" lon="-2.51252">
        <ele>589.2</ele>
        <time>2021-07-24 11:07:03</time>
      </trkpt>
      <trkpt lat="42.81694" lon="-2.5123">
        <ele>590.2</ele>
        <time>2021-07-24 11:07:07</time>
      </trkpt>
      <trkpt lat="42.81693" lon="-2.51209">
        <ele>590.2</ele>
        <time>2021-07-24 11:07:11</time>
      </trkpt>
      <trkpt lat="42.81691" lon="-2.51188">
        <ele>589.8</ele>
        <time>2021-07-24 11:07:15</time>
      </trkpt>
      <trkpt lat="42.8169" lon="-2.51167">
        <ele>590.8</ele>
        <time>2021-07-24 11:07:19</time>
      </trkpt>
      <trkpt lat="42.81688" lon="-2.51145">
        <ele>591.2</ele>
        <time>2021-07-24 11:07:23</time>
      </trkpt>
      <trkpt lat="42.81687" lon="-2.51123">
        <ele>591</ele>
        <time>2021-07-24 11:07:27</time>
      </trkpt>
      <trkpt lat="42.81685" lon="-2.51101">
        <ele>591.2</ele>
        <time>2021-07-24 11:07:31</time>
      </trkpt>
      <trkpt lat="42.81684" lon="-2.51079">
        <ele>591.4</ele>
        <time>2021-07-24 11:07:35</time>
      </trkpt>
      <trkpt lat="42.81683" lon="-2.51058">
        <ele>591.6</ele>
        <time>2021-07-24 11:07:39</time>
      </trkpt>
      <trkpt lat="42.81681" lon="-2.51036">
        <ele>591.6</ele>
        <time>2021-07-24 11:07:43</time>
      </trkpt>
      <trkpt lat="42.8168" lon="-2.51014">
        <ele>592.2</ele>
        <time>2021-07-24 11:07:47</time>
      </trkpt>
      <trkpt lat="42.81678" lon="-2.50992">
        <ele>592.6</ele>
        <time>2021-07-24 11:07:51</time>
      </trkpt>
      <trkpt lat="42.81677" lon="-2.5097">
        <ele>593.6</ele>
        <time>2021-07-24 11:07:55</time>
      </trkpt>
      <trkpt lat="42.81675" lon="-2.50948">
        <ele>593.2</ele>
        <time>2021-07-24 11:07:59</time>
      </trkpt>
      <trkpt lat="42.81674" lon="-2.50927">
        <ele>593.4</ele>
        <time>2021-07-24 11:08:03</time>
      </trkpt>
      <trkpt lat="42.81673" lon="-2.50906">
        <ele>592.8</ele>
        <time>2021-07-24 11:08:07</time>
      </trkpt>
      <trkpt lat="42.81672" lon="-2.50884">
        <ele>593.8</ele>
        <time>2021-07-24 11:08:11</time>
      </trkpt>
      <trkpt lat="42.8167" lon="-2.50862">
        <ele>593.8</ele>
        <time>2021-07-24 11:08:15</time>
      </trkpt>
      <trkpt lat="42.81669" lon="-2.5084">
        <ele>593.4</ele>
        <time>2021-07-24 11:08:19</time>
      </trkpt>
      <trkpt lat="42.81667" lon="-2.50819">
        <ele>594</ele>
        <time>2021-07-24 11:08:23</time>
      </trkpt>
      <trkpt lat="42.81666" lon="-2.50796">
        <ele>594.4</ele>
        <time>2021-07-24 11:08:27</time>
      </trkpt>
      <trkpt lat="42.81664" lon="-2.50775">
        <ele>594.4</ele>
        <time>2021-07-24 11:08:31</time>
      </trkpt>
      <trkpt lat="42.81663" lon="-2.50754">
        <ele>594.8</ele>
        <time>2021-07-24 11:08:35</time>
      </trkpt>
      <trkpt lat="42.81661" lon="-2.50734">
        <ele>594.8</ele>
        <time>2021-07-24 11:08:39</time>
      </trkpt>
      <trkpt lat="42.8166" lon="-2.50716">
        <ele>595.2</ele>
        <time>2021-07-24 11:08:43</time>
      </trkpt>
      <trkpt lat="42.81659" lon="-2.50696">
        <ele>595.6</ele>
        <time>2021-07-24 11:08:47</time>
      </trkpt>
      <trkpt lat="42.81657" lon="-2.50674">
        <ele>596.8</ele>
        <time>2021-07-24 11:08:51</time>
      </trkpt>
      <trkpt lat="42.81656" lon="-2.50654">
        <ele>596.2</ele>
        <time>2021-07-24 11:08:55</time>
      </trkpt>
      <trkpt lat="42.81654" lon="-2.50633">
        <ele>596.4</ele>
        <time>2021-07-24 11:08:59</time>
      </trkpt>
      <trkpt lat="42.81654" lon="-2.50616">
        <ele>596.6</ele>
        <time>2021-07-24 11:09:03</time>
      </trkpt>
      <trkpt lat="42.81653" lon="-2.50598">
        <ele>596.6</ele>
        <time>2021-07-24 11:09:07</time>
      </trkpt>
      <trkpt lat="42.81652" lon="-2.5058">
        <ele>597.2</ele>
        <time>2021-07-24 11:09:11</time>
      </trkpt>
      <trkpt lat="42.81651" lon="-2.50571">
        <ele>597.2</ele>
        <time>2021-07-24 11:09:15</time>
      </trkpt>
      <trkpt lat="42.8165" lon="-2.50569">
        <ele>596.8</ele>
        <time>2021-07-24 11:09:19</time>
      </trkpt>
      <trkpt lat="42.8165" lon="-2.50562">
        <ele>597.2</ele>
        <time>2021-07-24 11:09:23</time>
      </trkpt>
      <trkpt lat="42.8165" lon="-2.50556">
        <ele>597.4</ele>
        <time>2021-07-24 11:09:27</time>
      </trkpt>
      <trkpt lat="42.8165" lon="-2.50556">
        <ele>597</ele>
        <time>2021-07-24 11:09:31</time>
      </trkpt>
      <trkpt lat="42.8165" lon="-2.50556">
        <ele>597</ele>
        <time>2021-07-24 11:09:35</time>
      </trkpt>
      <trkpt lat="42.8165" lon="-2.50556">
        <ele>596.8</ele>
        <time>2021-07-24 11:09:39</time>
      </trkpt>
      <trkpt lat="42.8165" lon="-2.50556">
        <ele>597</ele>
        <time>2021-07-24 11:09:43</time>
      </trkpt>
      <trkpt lat="42.8165" lon="-2.50556">
        <ele>597.2</ele>
        <time>2021-07-24 11:09:47</time>
      </trkpt>
      <trkpt lat="42.8165" lon="-2.50554">
        <ele>596.8</ele>
        <time>2021-07-24 11:09:51</time>
      </trkpt>
      <trkpt lat="42.81652" lon="-2.50557">
        <ele>597</ele>
        <time>2021-07-24 11:09:55</time>
      </trkpt>
      <trkpt lat="42.81652" lon="-2.50566">
        <ele>596.8</ele>
        <time>2021-07-24 11:09:59</time>
      </trkpt>
      <trkpt lat="42.81653" lon="-2.5058">
        <ele>596.4</ele>
        <time>2021-07-24 11:10:03</time>
      </trkpt>
      <trkpt lat="42.81654" lon="-2.50596">
        <ele>596.4</ele>
        <time>2021-07-24 11:10:07</time>
      </trkpt>
      <trkpt lat="42.81656" lon="-2.50613">
        <ele>596.4</ele>
        <time>2021-07-24 11:10:11</time>
      </trkpt>
      <trkpt lat="42.81655" lon="-2.5063">
        <ele>596.2</ele>
        <time>2021-07-24 11:10:15</time>
      </trkpt>
      <trkpt lat="42.81653" lon="-2.5064">
        <ele>596.4</ele>
        <time>2021-07-24 11:10:19</time>
      </trkpt>
      <trkpt lat="42.81653" lon="-2.5064">
        <ele>596.4</ele>
        <time>2021-07-24 11:10:23</time>
      </trkpt>
      <trkpt lat="42.81653" lon="-2.5064">
        <ele>596.4</ele>
        <time>2021-07-24 11:10:27</time>
      </trkpt>
      <trkpt lat="42.81653" lon="-2.5064">
        <ele>596.2</ele>
        <time>2021-07-24 11:10:31</time>
      </trkpt>
      <trkpt lat="42.81653" lon="-2.5064">
        <ele>596.4</ele>
        <time>2021-07-24 11:10:35</time>
      </trkpt>
      <trkpt lat="42.81653" lon="-2.5064">
        <ele>596.2</ele>
        <time>2021-07-24 11:10:39</time>
      </trkpt>
      <trkpt lat="42.81653" lon="-2.5064">
        <ele>596</ele>
        <time>2021-07-24 11:10:43</time>
      </trkpt>
      <trkpt lat="42.81653" lon="-2.5064">
        <ele>596.2</ele>
        <time>2021-07-24 11:10:47</time>
      </trkpt>
      <trkpt lat="42.81653" lon="-2.5064">
        <ele>596.2</ele>
        <time>2021-07-24 11:10:51</time>
      </trkpt>
      <trkpt lat="42.81653" lon="-2.5064">
        <ele>596</ele>
        <time>2021-07-24 11:10:55</time>
      </trkpt>
      <trkpt lat="42.81653" lon="-2.5064">
        <ele>596.2</ele>
        <time>2021-07-24 11:10:59</time>
      </trkpt>
      <trkpt lat="42.81653" lon="-2.5064">
        <ele>595.8</ele>
        <time>2021-07-24 11:11:03</time>
      </trkpt>
      <trkpt lat="42.81653" lon="-2.5064">
        <ele>596.2</ele>
        <time>2021-07-24 11:11:07</time>
      </trkpt>
      <trkpt lat="42.81653" lon="-2.5064">
        <ele>596</ele>
        <time>2021-07-24 11:11:11</time>
      </trkpt>
      <trkpt lat="42.81653" lon="-2.5064">
        <ele>596</ele>
        <time>2021-07-24 11:11:15</time>
      </trkpt>
      <trkpt lat="42.81653" lon="-2.5064">
        <ele>596</ele>
        <time>2021-07-24 11:11:19</time>
      </trkpt>
      <trkpt lat="42.81653" lon="-2.5064">
        <ele>596</ele>
        <time>2021-07-24 11:11:23</time>
      </trkpt>
      <trkpt lat="42.81653" lon="-2.5064">
        <ele>596.2</ele>
        <time>2021-07-24 11:11:27</time>
      </trkpt>
      <trkpt lat="42.81653" lon="-2.5064">
        <ele>596.2</ele>
        <time>2021-07-24 11:11:31</time>
      </trkpt>
      <trkpt lat="42.81653" lon="-2.5064">
        <ele>596</ele>
        <time>2021-07-24 11:11:35</time>
      </trkpt>
      <trkpt lat="42.81653" lon="-2.5064">
        <ele>596.2</ele>
        <time>2021-07-24 11:11:39</time>
      </trkpt>
      <trkpt lat="42.81653" lon="-2.5064">
        <ele>596.2</ele>
        <time>2021-07-24 11:11:43</time>
      </trkpt>
      <trkpt lat="42.81653" lon="-2.5064">
        <ele>596</ele>
        <time>2021-07-24 11:11:47</time>
      </trkpt>
      <trkpt lat="42.81653" lon="-2.5064">
        <ele>596</ele>
        <time>2021-07-24 11:11:51</time>
      </trkpt>
      <trkpt lat="42.81653" lon="-2.5064">
        <ele>595.8</ele>
        <time>2021-07-24 11:11:55</time>
      </trkpt>
      <trkpt lat="42.81653" lon="-2.5064">
        <ele>596</ele>
        <time>2021-07-24 11:11:59</time>
      </trkpt>
      <trkpt lat="42.81653" lon="-2.5064">
        <ele>596.6</ele>
        <time>2021-07-24 11:12:03</time>
      </trkpt>
      <trkpt lat="42.81653" lon="-2.5064">
        <ele>596.6</ele>
        <time>2021-07-24 11:12:07</time>
      </trkpt>
      <trkpt lat="42.81653" lon="-2.5064">
        <ele>596.8</ele>
        <time>2021-07-24 11:12:11</time>
      </trkpt>
      <trkpt lat="42.81653" lon="-2.5064">
        <ele>596.2</ele>
        <time>2021-07-24 11:12:15</time>
      </trkpt>
      <trkpt lat="42.81653" lon="-2.5064">
        <ele>596.2</ele>
        <time>2021-07-24 11:12:19</time>
      </trkpt>
      <trkpt lat="42.81653" lon="-2.5064">
        <ele>596.2</ele>
        <time>2021-07-24 11:12:23</time>
      </trkpt>
      <trkpt lat="42.81653" lon="-2.5064">
        <ele>596.2</ele>
        <time>2021-07-24 11:12:27</time>
      </trkpt>
      <trkpt lat="42.81653" lon="-2.5064">
        <ele>596.4</ele>
        <time>2021-07-24 11:12:31</time>
      </trkpt>
      <trkpt lat="42.81653" lon="-2.5064">
        <ele>596.6</ele>
        <time>2021-07-24 11:12:35</time>
      </trkpt>
      <trkpt lat="42.81653" lon="-2.5064">
        <ele>596.6</ele>
        <time>2021-07-24 11:12:39</time>
      </trkpt>
      <trkpt lat="42.81653" lon="-2.5064">
        <ele>596.2</ele>
        <time>2021-07-24 11:12:43</time>
      </trkpt>
      <trkpt lat="42.81653" lon="-2.5064">
        <ele>596.2</ele>
        <time>2021-07-24 11:12:47</time>
      </trkpt>
      <trkpt lat="42.81653" lon="-2.5064">
        <ele>596.8</ele>
        <time>2021-07-24 11:12:51</time>
      </trkpt>
      <trkpt lat="42.81653" lon="-2.5064">
        <ele>596.6</ele>
        <time>2021-07-24 11:12:55</time>
      </trkpt>
      <trkpt lat="42.81653" lon="-2.5064">
        <ele>596.8</ele>
        <time>2021-07-24 11:12:59</time>
      </trkpt>
      <trkpt lat="42.81653" lon="-2.5064">
        <ele>596.6</ele>
        <time>2021-07-24 11:13:03</time>
      </trkpt>
      <trkpt lat="42.81653" lon="-2.5064">
        <ele>596.6</ele>
        <time>2021-07-24 11:13:07</time>
      </trkpt>
      <trkpt lat="42.81653" lon="-2.5064">
        <ele>597.2</ele>
        <time>2021-07-24 11:13:11</time>
      </trkpt>
      <trkpt lat="42.81653" lon="-2.5064">
        <ele>596.8</ele>
        <time>2021-07-24 11:13:15</time>
      </trkpt>
      <trkpt lat="42.81653" lon="-2.5064">
        <ele>596.8</ele>
        <time>2021-07-24 11:13:19</time>
      </trkpt>
      <trkpt lat="42.81653" lon="-2.5064">
        <ele>596.6</ele>
        <time>2021-07-24 11:13:23</time>
      </trkpt>
      <trkpt lat="42.81653" lon="-2.5064">
        <ele>597</ele>
        <time>2021-07-24 11:13:27</time>
      </trkpt>
      <trkpt lat="42.81653" lon="-2.5064">
        <ele>597.4</ele>
        <time>2021-07-24 11:13:31</time>
      </trkpt>
      <trkpt lat="42.81653" lon="-2.5064">
        <ele>597.2</ele>
        <time>2021-07-24 11:13:35</time>
      </trkpt>
      <trkpt lat="42.81653" lon="-2.5064">
        <ele>597.4</ele>
        <time>2021-07-24 11:13:39</time>
      </trkpt>
      <trkpt lat="42.81653" lon="-2.5064">
        <ele>597.4</ele>
        <time>2021-07-24 11:13:43</time>
      </trkpt>
      <trkpt lat="42.81653" lon="-2.5064">
        <ele>597.4</ele>
        <time>2021-07-24 11:13:47</time>
      </trkpt>
      <trkpt lat="42.81653" lon="-2.5064">
        <ele>597.4</ele>
        <time>2021-07-24 11:13:51</time>
      </trkpt>
      <trkpt lat="42.81653" lon="-2.5064">
        <ele>597.4</ele>
        <time>2021-07-24 11:13:55</time>
      </trkpt>
      <trkpt lat="42.81653" lon="-2.5064">
        <ele>597.2</ele>
        <time>2021-07-24 11:13:59</time>
      </trkpt>
      <trkpt lat="42.81653" lon="-2.5064">
        <ele>597.4</ele>
        <time>2021-07-24 11:14:03</time>
      </trkpt>
      <trkpt lat="42.81653" lon="-2.5064">
        <ele>597.4</ele>
        <time>2021-07-24 11:14:07</time>
      </trkpt>
      <trkpt lat="42.81653" lon="-2.5064">
        <ele>597.4</ele>
        <time>2021-07-24 11:14:11</time>
      </trkpt>
      <trkpt lat="42.81653" lon="-2.5064">
        <ele>597</ele>
        <time>2021-07-24 11:14:15</time>
      </trkpt>
      <trkpt lat="42.81653" lon="-2.5064">
        <ele>597.4</ele>
        <time>2021-07-24 11:14:19</time>
      </trkpt>
      <trkpt lat="42.81653" lon="-2.5064">
        <ele>597.6</ele>
        <time>2021-07-24 11:14:23</time>
      </trkpt>
      <trkpt lat="42.81653" lon="-2.5064">
        <ele>597.6</ele>
        <time>2021-07-24 11:14:27</time>
      </trkpt>
      <trkpt lat="42.81653" lon="-2.5064">
        <ele>597.6</ele>
        <time>2021-07-24 11:14:31</time>
      </trkpt>
      <trkpt lat="42.81653" lon="-2.5064">
        <ele>597.6</ele>
        <time>2021-07-24 11:14:35</time>
      </trkpt>
      <trkpt lat="42.81653" lon="-2.5064">
        <ele>597.2</ele>
        <time>2021-07-24 11:14:39</time>
      </trkpt>
      <trkpt lat="42.81653" lon="-2.5064">
        <ele>597.8</ele>
        <time>2021-07-24 11:14:43</time>
      </trkpt>
      <trkpt lat="42.81653" lon="-2.5064">
        <ele>597.4</ele>
        <time>2021-07-24 11:14:47</time>
      </trkpt>
      <trkpt lat="42.81653" lon="-2.5064">
        <ele>597.4</ele>
        <time>2021-07-24 11:14:51</time>
      </trkpt>
      <trkpt lat="42.81653" lon="-2.5064">
        <ele>597.4</ele>
        <time>2021-07-24 11:14:55</time>
      </trkpt>
      <trkpt lat="42.81653" lon="-2.5064">
        <ele>597.2</ele>
        <time>2021-07-24 11:14:59</time>
      </trkpt>
      <trkpt lat="42.81653" lon="-2.5064">
        <ele>597.6</ele>
        <time>2021-07-24 11:15:03</time>
      </trkpt>
      <trkpt lat="42.81653" lon="-2.5064">
        <ele>597.8</ele>
        <time>2021-07-24 11:15:07</time>
      </trkpt>
      <trkpt lat="42.81653" lon="-2.5064">
        <ele>597.4</ele>
        <time>2021-07-24 11:15:11</time>
      </trkpt>
      <trkpt lat="42.81653" lon="-2.5064">
        <ele>597.2</ele>
        <time>2021-07-24 11:15:15</time>
      </trkpt>
      <trkpt lat="42.81653" lon="-2.5064">
        <ele>597.4</ele>
        <time>2021-07-24 11:15:19</time>
      </trkpt>
      <trkpt lat="42.81653" lon="-2.5064">
        <ele>597.6</ele>
        <time>2021-07-24 11:15:23</time>
      </trkpt>
      <trkpt lat="42.81653" lon="-2.5064">
        <ele>597.6</ele>
        <time>2021-07-24 11:15:27</time>
      </trkpt>
      <trkpt lat="42.81653" lon="-2.5064">
        <ele>597.4</ele>
        <time>2021-07-24 11:15:31</time>
      </trkpt>
      <trkpt lat="42.81653" lon="-2.5064">
        <ele>597.6</ele>
        <time>2021-07-24 11:15:35</time>
      </trkpt>
      <trkpt lat="42.81653" lon="-2.5064">
        <ele>597.8</ele>
        <time>2021-07-24 11:15:39</time>
      </trkpt>
      <trkpt lat="42.81653" lon="-2.5064">
        <ele>597.8</ele>
        <time>2021-07-24 11:15:43</time>
      </trkpt>
      <trkpt lat="42.81653" lon="-2.5064">
        <ele>597.4</ele>
        <time>2021-07-24 11:15:47</time>
      </trkpt>
      <trkpt lat="42.81653" lon="-2.5064">
        <ele>597.8</ele>
        <time>2021-07-24 11:15:51</time>
      </trkpt>
      <trkpt lat="42.81653" lon="-2.5064">
        <ele>597.8</ele>
        <time>2021-07-24 11:15:55</time>
      </trkpt>
      <trkpt lat="42.81653" lon="-2.5064">
        <ele>597.8</ele>
        <time>2021-07-24 11:15:59</time>
      </trkpt>
      <trkpt lat="42.81653" lon="-2.5064">
        <ele>597.6</ele>
        <time>2021-07-24 11:16:03</time>
      </trkpt>
      <trkpt lat="42.81653" lon="-2.5064">
        <ele>598.2</ele>
        <time>2021-07-24 11:16:07</time>
      </trkpt>
      <trkpt lat="42.81653" lon="-2.5064">
        <ele>598.2</ele>
        <time>2021-07-24 11:16:11</time>
      </trkpt>
      <trkpt lat="42.81653" lon="-2.5064">
        <ele>598.2</ele>
        <time>2021-07-24 11:16:15</time>
      </trkpt>
      <trkpt lat="42.81653" lon="-2.5064">
        <ele>598.2</ele>
        <time>2021-07-24 11:16:19</time>
      </trkpt>
      <trkpt lat="42.81653" lon="-2.5064">
        <ele>597.8</ele>
        <time>2021-07-24 11:16:23</time>
      </trkpt>
      <trkpt lat="42.81653" lon="-2.5064">
        <ele>598.2</ele>
        <time>2021-07-24 11:16:27</time>
      </trkpt>
      <trkpt lat="42.81653" lon="-2.5064">
        <ele>597.8</ele>
        <time>2021-07-24 11:16:31</time>
      </trkpt>
      <trkpt lat="42.81653" lon="-2.5064">
        <ele>598</ele>
        <time>2021-07-24 11:16:35</time>
      </trkpt>
      <trkpt lat="42.81653" lon="-2.5064">
        <ele>598.2</ele>
        <time>2021-07-24 11:16:39</time>
      </trkpt>
      <trkpt lat="42.81653" lon="-2.5064">
        <ele>597.8</ele>
        <time>2021-07-24 11:16:43</time>
      </trkpt>
      <trkpt lat="42.81653" lon="-2.5064">
        <ele>598.2</ele>
        <time>2021-07-24 11:16:47</time>
      </trkpt>
      <trkpt lat="42.81653" lon="-2.5064">
        <ele>598.2</ele>
        <time>2021-07-24 11:16:51</time>
      </trkpt>
      <trkpt lat="42.81653" lon="-2.5064">
        <ele>598.4</ele>
        <time>2021-07-24 11:16:55</time>
      </trkpt>
      <trkpt lat="42.81653" lon="-2.5064">
        <ele>598.4</ele>
        <time>2021-07-24 11:16:59</time>
      </trkpt>
      <trkpt lat="42.81653" lon="-2.5064">
        <ele>598.6</ele>
        <time>2021-07-24 11:17:03</time>
      </trkpt>
      <trkpt lat="42.81653" lon="-2.5064">
        <ele>598.4</ele>
        <time>2021-07-24 11:17:07</time>
      </trkpt>
      <trkpt lat="42.81653" lon="-2.5064">
        <ele>598.2</ele>
        <time>2021-07-24 11:17:11</time>
      </trkpt>
      <trkpt lat="42.81653" lon="-2.5064">
        <ele>598.6</ele>
        <time>2021-07-24 11:17:15</time>
      </trkpt>
      <trkpt lat="42.81653" lon="-2.5064">
        <ele>598.6</ele>
        <time>2021-07-24 11:17:19</time>
      </trkpt>
      <trkpt lat="42.81653" lon="-2.5064">
        <ele>598.4</ele>
        <time>2021-07-24 11:17:23</time>
      </trkpt>
      <trkpt lat="42.81653" lon="-2.5064">
        <ele>598.4</ele>
        <time>2021-07-24 11:17:27</time>
      </trkpt>
      <trkpt lat="42.81653" lon="-2.5064">
        <ele>598.8</ele>
        <time>2021-07-24 11:17:31</time>
      </trkpt>
      <trkpt lat="42.81653" lon="-2.5064">
        <ele>598.6</ele>
        <time>2021-07-24 11:17:35</time>
      </trkpt>
      <trkpt lat="42.81653" lon="-2.5064">
        <ele>599</ele>
        <time>2021-07-24 11:17:39</time>
      </trkpt>
      <trkpt lat="42.81653" lon="-2.5064">
        <ele>599</ele>
        <time>2021-07-24 11:17:43</time>
      </trkpt>
      <trkpt lat="42.81653" lon="-2.5064">
        <ele>599</ele>
        <time>2021-07-24 11:17:47</time>
      </trkpt>
      <trkpt lat="42.81653" lon="-2.5064">
        <ele>598.6</ele>
        <time>2021-07-24 11:17:51</time>
      </trkpt>
      <trkpt lat="42.81653" lon="-2.5064">
        <ele>598.8</ele>
        <time>2021-07-24 11:17:55</time>
      </trkpt>
      <trkpt lat="42.81653" lon="-2.5064">
        <ele>598.4</ele>
        <time>2021-07-24 11:17:59</time>
      </trkpt>
      <trkpt lat="42.81653" lon="-2.5064">
        <ele>599</ele>
        <time>2021-07-24 11:18:03</time>
      </trkpt>
      <trkpt lat="42.81653" lon="-2.5064">
        <ele>598.4</ele>
        <time>2021-07-24 11:18:07</time>
      </trkpt>
      <trkpt lat="42.81653" lon="-2.5064">
        <ele>599</ele>
        <time>2021-07-24 11:18:11</time>
      </trkpt>
      <trkpt lat="42.81653" lon="-2.5064">
        <ele>599</ele>
        <time>2021-07-24 11:18:15</time>
      </trkpt>
      <trkpt lat="42.81653" lon="-2.5064">
        <ele>599</ele>
        <time>2021-07-24 11:18:19</time>
      </trkpt>
      <trkpt lat="42.81653" lon="-2.5064">
        <ele>599</ele>
        <time>2021-07-24 11:18:23</time>
      </trkpt>
      <trkpt lat="42.81653" lon="-2.5064">
        <ele>599</ele>
        <time>2021-07-24 11:18:27</time>
      </trkpt>
      <trkpt lat="42.81655" lon="-2.50642">
        <ele>599.6</ele>
        <time>2021-07-24 11:18:31</time>
      </trkpt>
      <trkpt lat="42.81655" lon="-2.50638">
        <ele>599</ele>
        <time>2021-07-24 11:18:35</time>
      </trkpt>
      <trkpt lat="42.81655" lon="-2.50636">
        <ele>599</ele>
        <time>2021-07-24 11:18:39</time>
      </trkpt>
      <trkpt lat="42.81655" lon="-2.50628">
        <ele>599</ele>
        <time>2021-07-24 11:18:43</time>
      </trkpt>
      <trkpt lat="42.81655" lon="-2.50615">
        <ele>599</ele>
        <time>2021-07-24 11:18:47</time>
      </trkpt>
      <trkpt lat="42.81654" lon="-2.506">
        <ele>599</ele>
        <time>2021-07-24 11:18:51</time>
      </trkpt>
      <trkpt lat="42.81653" lon="-2.50584">
        <ele>599.6</ele>
        <time>2021-07-24 11:18:55</time>
      </trkpt>
      <trkpt lat="42.81652" lon="-2.50566">
        <ele>599.6</ele>
        <time>2021-07-24 11:18:59</time>
      </trkpt>
      <trkpt lat="42.81651" lon="-2.50548">
        <ele>600</ele>
        <time>2021-07-24 11:19:03</time>
      </trkpt>
      <trkpt lat="42.8165" lon="-2.5053">
        <ele>600.4</ele>
        <time>2021-07-24 11:19:07</time>
      </trkpt>
      <trkpt lat="42.81648" lon="-2.50512">
        <ele>600.4</ele>
        <time>2021-07-24 11:19:11</time>
      </trkpt>
      <trkpt lat="42.81647" lon="-2.50494">
        <ele>600.8</ele>
        <time>2021-07-24 11:19:15</time>
      </trkpt>
      <trkpt lat="42.81646" lon="-2.50476">
        <ele>600.8</ele>
        <time>2021-07-24 11:19:19</time>
      </trkpt>
      <trkpt lat="42.81645" lon="-2.50458">
        <ele>601.2</ele>
        <time>2021-07-24 11:19:23</time>
      </trkpt>
      <trkpt lat="42.81644" lon="-2.50441">
        <ele>601.6</ele>
        <time>2021-07-24 11:19:27</time>
      </trkpt>
      <trkpt lat="42.81642" lon="-2.50423">
        <ele>601.4</ele>
        <time>2021-07-24 11:19:31</time>
      </trkpt>
      <trkpt lat="42.81641" lon="-2.50404">
        <ele>601.8</ele>
        <time>2021-07-24 11:19:35</time>
      </trkpt>
      <trkpt lat="42.8164" lon="-2.50385">
        <ele>601.6</ele>
        <time>2021-07-24 11:19:39</time>
      </trkpt>
      <trkpt lat="42.81639" lon="-2.50367">
        <ele>602.4</ele>
        <time>2021-07-24 11:19:43</time>
      </trkpt>
      <trkpt lat="42.81638" lon="-2.50349">
        <ele>603</ele>
        <time>2021-07-24 11:19:47</time>
      </trkpt>
      <trkpt lat="42.81637" lon="-2.5033">
        <ele>603.2</ele>
        <time>2021-07-24 11:19:51</time>
      </trkpt>
      <trkpt lat="42.81636" lon="-2.50313">
        <ele>603.8</ele>
        <time>2021-07-24 11:19:55</time>
      </trkpt>
      <trkpt lat="42.81635" lon="-2.50297">
        <ele>604.8</ele>
        <time>2021-07-24 11:19:59</time>
      </trkpt>
      <trkpt lat="42.81634" lon="-2.5028">
        <ele>604.2</ele>
        <time>2021-07-24 11:20:03</time>
      </trkpt>
      <trkpt lat="42.81633" lon="-2.50262">
        <ele>604.2</ele>
        <time>2021-07-24 11:20:07</time>
      </trkpt>
      <trkpt lat="42.81632" lon="-2.50244">
        <ele>604.4</ele>
        <time>2021-07-24 11:20:11</time>
      </trkpt>
      <trkpt lat="42.81631" lon="-2.50225">
        <ele>604.8</ele>
        <time>2021-07-24 11:20:15</time>
      </trkpt>
      <trkpt lat="42.8163" lon="-2.50207">
        <ele>604.8</ele>
        <time>2021-07-24 11:20:19</time>
      </trkpt>
      <trkpt lat="42.8163" lon="-2.5019">
        <ele>605.4</ele>
        <time>2021-07-24 11:20:23</time>
      </trkpt>
      <trkpt lat="42.81629" lon="-2.5018">
        <ele>605.6</ele>
        <time>2021-07-24 11:20:27</time>
      </trkpt>
      <trkpt lat="42.81628" lon="-2.50169">
        <ele>606.2</ele>
        <time>2021-07-24 11:20:31</time>
      </trkpt>
      <trkpt lat="42.81627" lon="-2.50154">
        <ele>606</ele>
        <time>2021-07-24 11:20:35</time>
      </trkpt>
      <trkpt lat="42.81625" lon="-2.50135">
        <ele>605.8</ele>
        <time>2021-07-24 11:20:39</time>
      </trkpt>
      <trkpt lat="42.81624" lon="-2.50116">
        <ele>606.6</ele>
        <time>2021-07-24 11:20:43</time>
      </trkpt>
      <trkpt lat="42.81622" lon="-2.50097">
        <ele>606.8</ele>
        <time>2021-07-24 11:20:47</time>
      </trkpt>
      <trkpt lat="42.81621" lon="-2.50078">
        <ele>606.8</ele>
        <time>2021-07-24 11:20:51</time>
      </trkpt>
      <trkpt lat="42.8162" lon="-2.50058">
        <ele>607.2</ele>
        <time>2021-07-24 11:20:55</time>
      </trkpt>
      <trkpt lat="42.81619" lon="-2.50038">
        <ele>607</ele>
        <time>2021-07-24 11:20:59</time>
      </trkpt>
      <trkpt lat="42.81618" lon="-2.50019">
        <ele>607.4</ele>
        <time>2021-07-24 11:21:03</time>
      </trkpt>
      <trkpt lat="42.81616" lon="-2.49999">
        <ele>607.8</ele>
        <time>2021-07-24 11:21:07</time>
      </trkpt>
      <trkpt lat="42.81615" lon="-2.49979">
        <ele>607.6</ele>
        <time>2021-07-24 11:21:11</time>
      </trkpt>
      <trkpt lat="42.81614" lon="-2.49959">
        <ele>608.6</ele>
        <time>2021-07-24 11:21:15</time>
      </trkpt>
      <trkpt lat="42.81612" lon="-2.4994">
        <ele>608.8</ele>
        <time>2021-07-24 11:21:19</time>
      </trkpt>
      <trkpt lat="42.81611" lon="-2.49921">
        <ele>609.4</ele>
        <time>2021-07-24 11:21:23</time>
      </trkpt>
      <trkpt lat="42.8161" lon="-2.49903">
        <ele>609.2</ele>
        <time>2021-07-24 11:21:27</time>
      </trkpt>
      <trkpt lat="42.81608" lon="-2.49884">
        <ele>609.4</ele>
        <time>2021-07-24 11:21:31</time>
      </trkpt>
      <trkpt lat="42.81607" lon="-2.49866">
        <ele>609.4</ele>
        <time>2021-07-24 11:21:35</time>
      </trkpt>
      <trkpt lat="42.81606" lon="-2.4985">
        <ele>609.2</ele>
        <time>2021-07-24 11:21:39</time>
      </trkpt>
      <trkpt lat="42.81606" lon="-2.49833">
        <ele>609.4</ele>
        <time>2021-07-24 11:21:43</time>
      </trkpt>
      <trkpt lat="42.81605" lon="-2.49815">
        <ele>610</ele>
        <time>2021-07-24 11:21:47</time>
      </trkpt>
      <trkpt lat="42.81604" lon="-2.49797">
        <ele>610</ele>
        <time>2021-07-24 11:21:51</time>
      </trkpt>
      <trkpt lat="42.81603" lon="-2.49779">
        <ele>610.2</ele>
        <time>2021-07-24 11:21:55</time>
      </trkpt>
      <trkpt lat="42.81602" lon="-2.49761">
        <ele>610.6</ele>
        <time>2021-07-24 11:21:59</time>
      </trkpt>
      <trkpt lat="42.816" lon="-2.49743">
        <ele>610.8</ele>
        <time>2021-07-24 11:22:03</time>
      </trkpt>
      <trkpt lat="42.81599" lon="-2.49725">
        <ele>611.4</ele>
        <time>2021-07-24 11:22:07</time>
      </trkpt>
      <trkpt lat="42.81598" lon="-2.49707">
        <ele>611.6</ele>
        <time>2021-07-24 11:22:11</time>
      </trkpt>
      <trkpt lat="42.81597" lon="-2.4969">
        <ele>612.2</ele>
        <time>2021-07-24 11:22:15</time>
      </trkpt>
      <trkpt lat="42.81597" lon="-2.49673">
        <ele>613.6</ele>
        <time>2021-07-24 11:22:19</time>
      </trkpt>
      <trkpt lat="42.81597" lon="-2.49659">
        <ele>613.6</ele>
        <time>2021-07-24 11:22:23</time>
      </trkpt>
      <trkpt lat="42.81596" lon="-2.49651">
        <ele>613.6</ele>
        <time>2021-07-24 11:22:27</time>
      </trkpt>
      <trkpt lat="42.81595" lon="-2.49643">
        <ele>614</ele>
        <time>2021-07-24 11:22:31</time>
      </trkpt>
      <trkpt lat="42.81593" lon="-2.49631">
        <ele>614</ele>
        <time>2021-07-24 11:22:35</time>
      </trkpt>
      <trkpt lat="42.81591" lon="-2.49617">
        <ele>614.2</ele>
        <time>2021-07-24 11:22:39</time>
      </trkpt>
      <trkpt lat="42.81591" lon="-2.49602">
        <ele>614.6</ele>
        <time>2021-07-24 11:22:43</time>
      </trkpt>
      <trkpt lat="42.8159" lon="-2.49586">
        <ele>614.6</ele>
        <time>2021-07-24 11:22:47</time>
      </trkpt>
      <trkpt lat="42.81589" lon="-2.49568">
        <ele>614.2</ele>
        <time>2021-07-24 11:22:51</time>
      </trkpt>
      <trkpt lat="42.81588" lon="-2.49548">
        <ele>614.8</ele>
        <time>2021-07-24 11:22:55</time>
      </trkpt>
      <trkpt lat="42.81586" lon="-2.49529">
        <ele>615.2</ele>
        <time>2021-07-24 11:22:59</time>
      </trkpt>
      <trkpt lat="42.81584" lon="-2.4951">
        <ele>615.2</ele>
        <time>2021-07-24 11:23:03</time>
      </trkpt>
      <trkpt lat="42.81583" lon="-2.49488">
        <ele>615.4</ele>
        <time>2021-07-24 11:23:07</time>
      </trkpt>
      <trkpt lat="42.81582" lon="-2.49465">
        <ele>615.4</ele>
        <time>2021-07-24 11:23:11</time>
      </trkpt>
      <trkpt lat="42.81581" lon="-2.49443">
        <ele>615.6</ele>
        <time>2021-07-24 11:23:15</time>
      </trkpt>
      <trkpt lat="42.8158" lon="-2.49422">
        <ele>615.8</ele>
        <time>2021-07-24 11:23:19</time>
      </trkpt>
      <trkpt lat="42.81578" lon="-2.49401">
        <ele>616.2</ele>
        <time>2021-07-24 11:23:23</time>
      </trkpt>
      <trkpt lat="42.81577" lon="-2.49381">
        <ele>616.8</ele>
        <time>2021-07-24 11:23:27</time>
      </trkpt>
      <trkpt lat="42.81576" lon="-2.49361">
        <ele>616.8</ele>
        <time>2021-07-24 11:23:31</time>
      </trkpt>
      <trkpt lat="42.81574" lon="-2.49342">
        <ele>617.4</ele>
        <time>2021-07-24 11:23:35</time>
      </trkpt>
      <trkpt lat="42.81573" lon="-2.49324">
        <ele>617.6</ele>
        <time>2021-07-24 11:23:39</time>
      </trkpt>
      <trkpt lat="42.81571" lon="-2.49304">
        <ele>618.2</ele>
        <time>2021-07-24 11:23:43</time>
      </trkpt>
      <trkpt lat="42.8157" lon="-2.49284">
        <ele>618.4</ele>
        <time>2021-07-24 11:23:47</time>
      </trkpt>
      <trkpt lat="42.81569" lon="-2.49265">
        <ele>619</ele>
        <time>2021-07-24 11:23:51</time>
      </trkpt>
      <trkpt lat="42.81567" lon="-2.49246">
        <ele>619.4</ele>
        <time>2021-07-24 11:23:55</time>
      </trkpt>
      <trkpt lat="42.81565" lon="-2.49226">
        <ele>619</ele>
        <time>2021-07-24 11:23:59</time>
      </trkpt>
      <trkpt lat="42.81562" lon="-2.49206">
        <ele>619.4</ele>
        <time>2021-07-24 11:24:03</time>
      </trkpt>
      <trkpt lat="42.81558" lon="-2.49187">
        <ele>619.4</ele>
        <time>2021-07-24 11:24:07</time>
      </trkpt>
      <trkpt lat="42.81553" lon="-2.49169">
        <ele>620.2</ele>
        <time>2021-07-24 11:24:11</time>
      </trkpt>
      <trkpt lat="42.81547" lon="-2.4915">
        <ele>619.6</ele>
        <time>2021-07-24 11:24:15</time>
      </trkpt>
      <trkpt lat="42.81541" lon="-2.49132">
        <ele>620.4</ele>
        <time>2021-07-24 11:24:19</time>
      </trkpt>
      <trkpt lat="42.81534" lon="-2.49115">
        <ele>620.6</ele>
        <time>2021-07-24 11:24:23</time>
      </trkpt>
      <trkpt lat="42.81526" lon="-2.49098">
        <ele>620.8</ele>
        <time>2021-07-24 11:24:27</time>
      </trkpt>
      <trkpt lat="42.81518" lon="-2.49082">
        <ele>621.4</ele>
        <time>2021-07-24 11:24:31</time>
      </trkpt>
      <trkpt lat="42.81508" lon="-2.49066">
        <ele>621.8</ele>
        <time>2021-07-24 11:24:35</time>
      </trkpt>
      <trkpt lat="42.81498" lon="-2.4905">
        <ele>622</ele>
        <time>2021-07-24 11:24:39</time>
      </trkpt>
      <trkpt lat="42.81487" lon="-2.49036">
        <ele>622</ele>
        <time>2021-07-24 11:24:43</time>
      </trkpt>
      <trkpt lat="42.81476" lon="-2.49022">
        <ele>622.2</ele>
        <time>2021-07-24 11:24:47</time>
      </trkpt>
      <trkpt lat="42.81465" lon="-2.49008">
        <ele>622.2</ele>
        <time>2021-07-24 11:24:51</time>
      </trkpt>
      <trkpt lat="42.81455" lon="-2.48994">
        <ele>623.2</ele>
        <time>2021-07-24 11:24:55</time>
      </trkpt>
      <trkpt lat="42.81445" lon="-2.48982">
        <ele>623</ele>
        <time>2021-07-24 11:24:59</time>
      </trkpt>
      <trkpt lat="42.81435" lon="-2.48967">
        <ele>623.2</ele>
        <time>2021-07-24 11:25:03</time>
      </trkpt>
      <trkpt lat="42.81425" lon="-2.48952">
        <ele>623.4</ele>
        <time>2021-07-24 11:25:07</time>
      </trkpt>
      <trkpt lat="42.81414" lon="-2.48938">
        <ele>623.6</ele>
        <time>2021-07-24 11:25:11</time>
      </trkpt>
      <trkpt lat="42.81402" lon="-2.48924">
        <ele>624</ele>
        <time>2021-07-24 11:25:15</time>
      </trkpt>
      <trkpt lat="42.81392" lon="-2.4891">
        <ele>624.6</ele>
        <time>2021-07-24 11:25:19</time>
      </trkpt>
      <trkpt lat="42.81381" lon="-2.48897">
        <ele>624.8</ele>
        <time>2021-07-24 11:25:23</time>
      </trkpt>
      <trkpt lat="42.81371" lon="-2.48884">
        <ele>625.4</ele>
        <time>2021-07-24 11:25:27</time>
      </trkpt>
      <trkpt lat="42.8136" lon="-2.48871">
        <ele>625.8</ele>
        <time>2021-07-24 11:25:31</time>
      </trkpt>
      <trkpt lat="42.81349" lon="-2.48858">
        <ele>625.4</ele>
        <time>2021-07-24 11:25:35</time>
      </trkpt>
      <trkpt lat="42.81338" lon="-2.48843">
        <ele>625.6</ele>
        <time>2021-07-24 11:25:39</time>
      </trkpt>
      <trkpt lat="42.81326" lon="-2.48827">
        <ele>625.8</ele>
        <time>2021-07-24 11:25:43</time>
      </trkpt>
      <trkpt lat="42.81315" lon="-2.48812">
        <ele>626.8</ele>
        <time>2021-07-24 11:25:47</time>
      </trkpt>
      <trkpt lat="42.81304" lon="-2.48797">
        <ele>626.8</ele>
        <time>2021-07-24 11:25:51</time>
      </trkpt>
      <trkpt lat="42.81292" lon="-2.48782">
        <ele>627.2</ele>
        <time>2021-07-24 11:25:55</time>
      </trkpt>
      <trkpt lat="42.8128" lon="-2.48767">
        <ele>627</ele>
        <time>2021-07-24 11:25:59</time>
      </trkpt>
      <trkpt lat="42.81269" lon="-2.48751">
        <ele>627.4</ele>
        <time>2021-07-24 11:26:03</time>
      </trkpt>
      <trkpt lat="42.81257" lon="-2.48737">
        <ele>627.6</ele>
        <time>2021-07-24 11:26:07</time>
      </trkpt>
      <trkpt lat="42.81246" lon="-2.48723">
        <ele>628.2</ele>
        <time>2021-07-24 11:26:11</time>
      </trkpt>
      <trkpt lat="42.81235" lon="-2.48709">
        <ele>628.2</ele>
        <time>2021-07-24 11:26:15</time>
      </trkpt>
      <trkpt lat="42.81225" lon="-2.48695">
        <ele>629.8</ele>
        <time>2021-07-24 11:26:19</time>
      </trkpt>
      <trkpt lat="42.81218" lon="-2.48685">
        <ele>631.2</ele>
        <time>2021-07-24 11:26:23</time>
      </trkpt>
      <trkpt lat="42.81213" lon="-2.48679">
        <ele>631.2</ele>
        <time>2021-07-24 11:26:27</time>
      </trkpt>
      <trkpt lat="42.81208" lon="-2.48672">
        <ele>632.6</ele>
        <time>2021-07-24 11:26:31</time>
      </trkpt>
      <trkpt lat="42.81204" lon="-2.48666">
        <ele>633.8</ele>
        <time>2021-07-24 11:26:35</time>
      </trkpt>
      <trkpt lat="42.812" lon="-2.48659">
        <ele>634.6</ele>
        <time>2021-07-24 11:26:39</time>
      </trkpt>
      <trkpt lat="42.81197" lon="-2.48651">
        <ele>635.6</ele>
        <time>2021-07-24 11:26:43</time>
      </trkpt>
      <trkpt lat="42.81193" lon="-2.48643">
        <ele>636.6</ele>
        <time>2021-07-24 11:26:47</time>
      </trkpt>
      <trkpt lat="42.81189" lon="-2.48637">
        <ele>636</ele>
        <time>2021-07-24 11:26:51</time>
      </trkpt>
      <trkpt lat="42.81188" lon="-2.48629">
        <ele>636</ele>
        <time>2021-07-24 11:26:55</time>
      </trkpt>
      <trkpt lat="42.81183" lon="-2.48619">
        <ele>636.2</ele>
        <time>2021-07-24 11:26:59</time>
      </trkpt>
      <trkpt lat="42.81178" lon="-2.48607">
        <ele>636</ele>
        <time>2021-07-24 11:27:03</time>
      </trkpt>
      <trkpt lat="42.81171" lon="-2.48596">
        <ele>636.4</ele>
        <time>2021-07-24 11:27:07</time>
      </trkpt>
      <trkpt lat="42.81164" lon="-2.48583">
        <ele>636.2</ele>
        <time>2021-07-24 11:27:11</time>
      </trkpt>
      <trkpt lat="42.81159" lon="-2.48574">
        <ele>636.2</ele>
        <time>2021-07-24 11:27:15</time>
      </trkpt>
      <trkpt lat="42.81153" lon="-2.48566">
        <ele>636.2</ele>
        <time>2021-07-24 11:27:19</time>
      </trkpt>
      <trkpt lat="42.81145" lon="-2.48556">
        <ele>635.4</ele>
        <time>2021-07-24 11:27:23</time>
      </trkpt>
      <trkpt lat="42.81136" lon="-2.48547">
        <ele>636</ele>
        <time>2021-07-24 11:27:27</time>
      </trkpt>
      <trkpt lat="42.81127" lon="-2.48539">
        <ele>636</ele>
        <time>2021-07-24 11:27:31</time>
      </trkpt>
      <trkpt lat="42.81116" lon="-2.48532">
        <ele>636</ele>
        <time>2021-07-24 11:27:35</time>
      </trkpt>
      <trkpt lat="42.81104" lon="-2.48526">
        <ele>636.2</ele>
        <time>2021-07-24 11:27:39</time>
      </trkpt>
      <trkpt lat="42.81093" lon="-2.48522">
        <ele>636.6</ele>
        <time>2021-07-24 11:27:43</time>
      </trkpt>
      <trkpt lat="42.81085" lon="-2.48519">
        <ele>636.6</ele>
        <time>2021-07-24 11:27:47</time>
      </trkpt>
      <trkpt lat="42.81079" lon="-2.48514">
        <ele>636.2</ele>
        <time>2021-07-24 11:27:51</time>
      </trkpt>
      <trkpt lat="42.81075" lon="-2.48505">
        <ele>634.4</ele>
        <time>2021-07-24 11:27:55</time>
      </trkpt>
      <trkpt lat="42.81065" lon="-2.48491">
        <ele>634.2</ele>
        <time>2021-07-24 11:27:59</time>
      </trkpt>
      <trkpt lat="42.81051" lon="-2.48472">
        <ele>632</ele>
        <time>2021-07-24 11:28:03</time>
      </trkpt>
      <trkpt lat="42.81038" lon="-2.48454">
        <ele>633.8</ele>
        <time>2021-07-24 11:28:07</time>
      </trkpt>
      <trkpt lat="42.81028" lon="-2.4844">
        <ele>634</ele>
        <time>2021-07-24 11:28:11</time>
      </trkpt>
      <trkpt lat="42.81021" lon="-2.48427">
        <ele>634.6</ele>
        <time>2021-07-24 11:28:15</time>
      </trkpt>
      <trkpt lat="42.81012" lon="-2.48414">
        <ele>634.8</ele>
        <time>2021-07-24 11:28:19</time>
      </trkpt>
      <trkpt lat="42.81006" lon="-2.484">
        <ele>634.8</ele>
        <time>2021-07-24 11:28:23</time>
      </trkpt>
      <trkpt lat="42.80997" lon="-2.48384">
        <ele>635.6</ele>
        <time>2021-07-24 11:28:27</time>
      </trkpt>
      <trkpt lat="42.80991" lon="-2.4837">
        <ele>635.8</ele>
        <time>2021-07-24 11:28:31</time>
      </trkpt>
      <trkpt lat="42.80983" lon="-2.48353">
        <ele>636</ele>
        <time>2021-07-24 11:28:35</time>
      </trkpt>
      <trkpt lat="42.80976" lon="-2.48337">
        <ele>636.6</ele>
        <time>2021-07-24 11:28:39</time>
      </trkpt>
      <trkpt lat="42.80972" lon="-2.48322">
        <ele>636.6</ele>
        <time>2021-07-24 11:28:43</time>
      </trkpt>
      <trkpt lat="42.80968" lon="-2.48304">
        <ele>636.6</ele>
        <time>2021-07-24 11:28:47</time>
      </trkpt>
      <trkpt lat="42.80966" lon="-2.48287">
        <ele>636.8</ele>
        <time>2021-07-24 11:28:51</time>
      </trkpt>
      <trkpt lat="42.80965" lon="-2.48271">
        <ele>637.4</ele>
        <time>2021-07-24 11:28:55</time>
      </trkpt>
      <trkpt lat="42.80964" lon="-2.48251">
        <ele>637.4</ele>
        <time>2021-07-24 11:28:59</time>
      </trkpt>
      <trkpt lat="42.80964" lon="-2.48233">
        <ele>637.4</ele>
        <time>2021-07-24 11:29:03</time>
      </trkpt>
      <trkpt lat="42.80962" lon="-2.48213">
        <ele>638</ele>
        <time>2021-07-24 11:29:07</time>
      </trkpt>
      <trkpt lat="42.80962" lon="-2.48194">
        <ele>638.2</ele>
        <time>2021-07-24 11:29:11</time>
      </trkpt>
      <trkpt lat="42.80961" lon="-2.48178">
        <ele>638.6</ele>
        <time>2021-07-24 11:29:15</time>
      </trkpt>
      <trkpt lat="42.8096" lon="-2.48156">
        <ele>638.6</ele>
        <time>2021-07-24 11:29:19</time>
      </trkpt>
      <trkpt lat="42.8096" lon="-2.48136">
        <ele>638.6</ele>
        <time>2021-07-24 11:29:23</time>
      </trkpt>
      <trkpt lat="42.8096" lon="-2.48116">
        <ele>639.2</ele>
        <time>2021-07-24 11:29:27</time>
      </trkpt>
      <trkpt lat="42.80959" lon="-2.48096">
        <ele>639.2</ele>
        <time>2021-07-24 11:29:31</time>
      </trkpt>
      <trkpt lat="42.80958" lon="-2.48079">
        <ele>640.2</ele>
        <time>2021-07-24 11:29:35</time>
      </trkpt>
      <trkpt lat="42.80955" lon="-2.48061">
        <ele>639.8</ele>
        <time>2021-07-24 11:29:39</time>
      </trkpt>
      <trkpt lat="42.80956" lon="-2.48028">
        <ele>639.6</ele>
        <time>2021-07-24 11:29:43</time>
      </trkpt>
      <trkpt lat="42.80956" lon="-2.48006">
        <ele>640.4</ele>
        <time>2021-07-24 11:29:47</time>
      </trkpt>
      <trkpt lat="42.80956" lon="-2.47982">
        <ele>640.8</ele>
        <time>2021-07-24 11:29:51</time>
      </trkpt>
      <trkpt lat="42.80956" lon="-2.47962">
        <ele>641.6</ele>
        <time>2021-07-24 11:29:55</time>
      </trkpt>
      <trkpt lat="42.80956" lon="-2.47938">
        <ele>641.8</ele>
        <time>2021-07-24 11:29:59</time>
      </trkpt>
      <trkpt lat="42.80955" lon="-2.47918">
        <ele>642.4</ele>
        <time>2021-07-24 11:30:03</time>
      </trkpt>
      <trkpt lat="42.80953" lon="-2.47898">
        <ele>642.2</ele>
        <time>2021-07-24 11:30:07</time>
      </trkpt>
      <trkpt lat="42.8095" lon="-2.4788">
        <ele>642.6</ele>
        <time>2021-07-24 11:30:11</time>
      </trkpt>
      <trkpt lat="42.80948" lon="-2.47862">
        <ele>643</ele>
        <time>2021-07-24 11:30:15</time>
      </trkpt>
      <trkpt lat="42.80943" lon="-2.47846">
        <ele>642.8</ele>
        <time>2021-07-24 11:30:19</time>
      </trkpt>
      <trkpt lat="42.80938" lon="-2.47826">
        <ele>643.4</ele>
        <time>2021-07-24 11:30:23</time>
      </trkpt>
      <trkpt lat="42.80931" lon="-2.47806">
        <ele>643.2</ele>
        <time>2021-07-24 11:30:27</time>
      </trkpt>
      <trkpt lat="42.80929" lon="-2.47779">
        <ele>642.8</ele>
        <time>2021-07-24 11:30:31</time>
      </trkpt>
      <trkpt lat="42.80925" lon="-2.47756">
        <ele>643.6</ele>
        <time>2021-07-24 11:30:35</time>
      </trkpt>
      <trkpt lat="42.80921" lon="-2.47737">
        <ele>643.4</ele>
        <time>2021-07-24 11:30:39</time>
      </trkpt>
      <trkpt lat="42.80917" lon="-2.47716">
        <ele>644.6</ele>
        <time>2021-07-24 11:30:43</time>
      </trkpt>
      <trkpt lat="42.80914" lon="-2.47696">
        <ele>644.4</ele>
        <time>2021-07-24 11:30:47</time>
      </trkpt>
      <trkpt lat="42.8091" lon="-2.47675">
        <ele>644.8</ele>
        <time>2021-07-24 11:30:51</time>
      </trkpt>
      <trkpt lat="42.80905" lon="-2.47655">
        <ele>644.8</ele>
        <time>2021-07-24 11:30:55</time>
      </trkpt>
      <trkpt lat="42.80901" lon="-2.47637">
        <ele>645.2</ele>
        <time>2021-07-24 11:30:59</time>
      </trkpt>
      <trkpt lat="42.80897" lon="-2.47619">
        <ele>645.6</ele>
        <time>2021-07-24 11:31:03</time>
      </trkpt>
      <trkpt lat="42.80893" lon="-2.47601">
        <ele>645.6</ele>
        <time>2021-07-24 11:31:07</time>
      </trkpt>
      <trkpt lat="42.8089" lon="-2.47581">
        <ele>645.8</ele>
        <time>2021-07-24 11:31:11</time>
      </trkpt>
      <trkpt lat="42.80886" lon="-2.47562">
        <ele>646.2</ele>
        <time>2021-07-24 11:31:15</time>
      </trkpt>
      <trkpt lat="42.80882" lon="-2.47544">
        <ele>646.6</ele>
        <time>2021-07-24 11:31:19</time>
      </trkpt>
      <trkpt lat="42.80878" lon="-2.47525">
        <ele>646.6</ele>
        <time>2021-07-24 11:31:23</time>
      </trkpt>
      <trkpt lat="42.80875" lon="-2.47506">
        <ele>647.2</ele>
        <time>2021-07-24 11:31:27</time>
      </trkpt>
      <trkpt lat="42.80872" lon="-2.47487">
        <ele>647.2</ele>
        <time>2021-07-24 11:31:31</time>
      </trkpt>
      <trkpt lat="42.80868" lon="-2.47468">
        <ele>647.6</ele>
        <time>2021-07-24 11:31:35</time>
      </trkpt>
      <trkpt lat="42.80864" lon="-2.47451">
        <ele>648</ele>
        <time>2021-07-24 11:31:39</time>
      </trkpt>
      <trkpt lat="42.80861" lon="-2.47434">
        <ele>648</ele>
        <time>2021-07-24 11:31:43</time>
      </trkpt>
      <trkpt lat="42.80856" lon="-2.47416">
        <ele>649.4</ele>
        <time>2021-07-24 11:31:47</time>
      </trkpt>
      <trkpt lat="42.80852" lon="-2.47397">
        <ele>649</ele>
        <time>2021-07-24 11:31:51</time>
      </trkpt>
      <trkpt lat="42.80848" lon="-2.47379">
        <ele>649</ele>
        <time>2021-07-24 11:31:55</time>
      </trkpt>
      <trkpt lat="42.80844" lon="-2.4736">
        <ele>649</ele>
        <time>2021-07-24 11:31:59</time>
      </trkpt>
      <trkpt lat="42.80839" lon="-2.47341">
        <ele>649.6</ele>
        <time>2021-07-24 11:32:03</time>
      </trkpt>
      <trkpt lat="42.80835" lon="-2.47322">
        <ele>649.2</ele>
        <time>2021-07-24 11:32:07</time>
      </trkpt>
      <trkpt lat="42.80829" lon="-2.47305">
        <ele>650.4</ele>
        <time>2021-07-24 11:32:11</time>
      </trkpt>
      <trkpt lat="42.80823" lon="-2.47289">
        <ele>651.2</ele>
        <time>2021-07-24 11:32:15</time>
      </trkpt>
      <trkpt lat="42.80817" lon="-2.47274">
        <ele>651.2</ele>
        <time>2021-07-24 11:32:19</time>
      </trkpt>
      <trkpt lat="42.80809" lon="-2.47259">
        <ele>652.2</ele>
        <time>2021-07-24 11:32:23</time>
      </trkpt>
      <trkpt lat="42.80801" lon="-2.47245">
        <ele>651.2</ele>
        <time>2021-07-24 11:32:27</time>
      </trkpt>
      <trkpt lat="42.80791" lon="-2.47233">
        <ele>651.6</ele>
        <time>2021-07-24 11:32:31</time>
      </trkpt>
      <trkpt lat="42.80781" lon="-2.47221">
        <ele>651.4</ele>
        <time>2021-07-24 11:32:35</time>
      </trkpt>
      <trkpt lat="42.8077" lon="-2.47209">
        <ele>651.6</ele>
        <time>2021-07-24 11:32:39</time>
      </trkpt>
      <trkpt lat="42.80761" lon="-2.47195">
        <ele>652.4</ele>
        <time>2021-07-24 11:32:43</time>
      </trkpt>
      <trkpt lat="42.8075" lon="-2.47183">
        <ele>652.8</ele>
        <time>2021-07-24 11:32:47</time>
      </trkpt>
      <trkpt lat="42.8074" lon="-2.47171">
        <ele>653.6</ele>
        <time>2021-07-24 11:32:51</time>
      </trkpt>
      <trkpt lat="42.80731" lon="-2.47158">
        <ele>653</ele>
        <time>2021-07-24 11:32:55</time>
      </trkpt>
      <trkpt lat="42.80719" lon="-2.47145">
        <ele>653.6</ele>
        <time>2021-07-24 11:32:59</time>
      </trkpt>
      <trkpt lat="42.80708" lon="-2.47134">
        <ele>653.6</ele>
        <time>2021-07-24 11:33:03</time>
      </trkpt>
      <trkpt lat="42.80697" lon="-2.47122">
        <ele>654.4</ele>
        <time>2021-07-24 11:33:07</time>
      </trkpt>
      <trkpt lat="42.80686" lon="-2.47108">
        <ele>654.4</ele>
        <time>2021-07-24 11:33:11</time>
      </trkpt>
      <trkpt lat="42.80676" lon="-2.47095">
        <ele>655</ele>
        <time>2021-07-24 11:33:15</time>
      </trkpt>
      <trkpt lat="42.80666" lon="-2.47081">
        <ele>655.4</ele>
        <time>2021-07-24 11:33:19</time>
      </trkpt>
      <trkpt lat="42.80655" lon="-2.47069">
        <ele>655.4</ele>
        <time>2021-07-24 11:33:23</time>
      </trkpt>
      <trkpt lat="42.80644" lon="-2.47056">
        <ele>655</ele>
        <time>2021-07-24 11:33:27</time>
      </trkpt>
      <trkpt lat="42.80633" lon="-2.47041">
        <ele>656</ele>
        <time>2021-07-24 11:33:31</time>
      </trkpt>
      <trkpt lat="42.80621" lon="-2.47028">
        <ele>655.6</ele>
        <time>2021-07-24 11:33:35</time>
      </trkpt>
      <trkpt lat="42.80609" lon="-2.47013">
        <ele>655.4</ele>
        <time>2021-07-24 11:33:39</time>
      </trkpt>
      <trkpt lat="42.80599" lon="-2.46999">
        <ele>655.8</ele>
        <time>2021-07-24 11:33:43</time>
      </trkpt>
      <trkpt lat="42.80589" lon="-2.46984">
        <ele>655.6</ele>
        <time>2021-07-24 11:33:47</time>
      </trkpt>
      <trkpt lat="42.80578" lon="-2.4697">
        <ele>656.2</ele>
        <time>2021-07-24 11:33:51</time>
      </trkpt>
      <trkpt lat="42.80565" lon="-2.46956">
        <ele>656.6</ele>
        <time>2021-07-24 11:33:55</time>
      </trkpt>
      <trkpt lat="42.80554" lon="-2.46941">
        <ele>655.8</ele>
        <time>2021-07-24 11:33:59</time>
      </trkpt>
      <trkpt lat="42.80545" lon="-2.46922">
        <ele>655.8</ele>
        <time>2021-07-24 11:34:03</time>
      </trkpt>
      <trkpt lat="42.80536" lon="-2.46904">
        <ele>656.4</ele>
        <time>2021-07-24 11:34:07</time>
      </trkpt>
      <trkpt lat="42.80528" lon="-2.46886">
        <ele>656</ele>
        <time>2021-07-24 11:34:11</time>
      </trkpt>
      <trkpt lat="42.80521" lon="-2.46867">
        <ele>656.6</ele>
        <time>2021-07-24 11:34:15</time>
      </trkpt>
      <trkpt lat="42.80515" lon="-2.46847">
        <ele>656.4</ele>
        <time>2021-07-24 11:34:19</time>
      </trkpt>
      <trkpt lat="42.80512" lon="-2.4683">
        <ele>657.2</ele>
        <time>2021-07-24 11:34:23</time>
      </trkpt>
      <trkpt lat="42.80511" lon="-2.46818">
        <ele>657.2</ele>
        <time>2021-07-24 11:34:27</time>
      </trkpt>
      <trkpt lat="42.80508" lon="-2.46799">
        <ele>657.4</ele>
        <time>2021-07-24 11:34:31</time>
      </trkpt>
      <trkpt lat="42.80508" lon="-2.46778">
        <ele>658</ele>
        <time>2021-07-24 11:34:35</time>
      </trkpt>
      <trkpt lat="42.80508" lon="-2.4676">
        <ele>657.4</ele>
        <time>2021-07-24 11:34:39</time>
      </trkpt>
      <trkpt lat="42.80509" lon="-2.46742">
        <ele>657.8</ele>
        <time>2021-07-24 11:34:43</time>
      </trkpt>
      <trkpt lat="42.8051" lon="-2.46724">
        <ele>657.6</ele>
        <time>2021-07-24 11:34:47</time>
      </trkpt>
      <trkpt lat="42.80514" lon="-2.46708">
        <ele>658.2</ele>
        <time>2021-07-24 11:34:51</time>
      </trkpt>
      <trkpt lat="42.80518" lon="-2.46691">
        <ele>658.8</ele>
        <time>2021-07-24 11:34:55</time>
      </trkpt>
      <trkpt lat="42.80523" lon="-2.46675">
        <ele>659.2</ele>
        <time>2021-07-24 11:34:59</time>
      </trkpt>
      <trkpt lat="42.80527" lon="-2.46661">
        <ele>659.6</ele>
        <time>2021-07-24 11:35:03</time>
      </trkpt>
      <trkpt lat="42.80534" lon="-2.46645">
        <ele>659.6</ele>
        <time>2021-07-24 11:35:07</time>
      </trkpt>
      <trkpt lat="42.80541" lon="-2.46628">
        <ele>659.8</ele>
        <time>2021-07-24 11:35:11</time>
      </trkpt>
      <trkpt lat="42.80548" lon="-2.46611">
        <ele>660.8</ele>
        <time>2021-07-24 11:35:15</time>
      </trkpt>
      <trkpt lat="42.80555" lon="-2.46594">
        <ele>660.8</ele>
        <time>2021-07-24 11:35:19</time>
      </trkpt>
      <trkpt lat="42.80562" lon="-2.46577">
        <ele>661</ele>
        <time>2021-07-24 11:35:23</time>
      </trkpt>
      <trkpt lat="42.80569" lon="-2.4656">
        <ele>661.2</ele>
        <time>2021-07-24 11:35:27</time>
      </trkpt>
      <trkpt lat="42.80577" lon="-2.46544">
        <ele>662</ele>
        <time>2021-07-24 11:35:31</time>
      </trkpt>
      <trkpt lat="42.80583" lon="-2.46528">
        <ele>661.8</ele>
        <time>2021-07-24 11:35:35</time>
      </trkpt>
      <trkpt lat="42.80591" lon="-2.46512">
        <ele>662.4</ele>
        <time>2021-07-24 11:35:39</time>
      </trkpt>
      <trkpt lat="42.80596" lon="-2.46496">
        <ele>662.4</ele>
        <time>2021-07-24 11:35:43</time>
      </trkpt>
      <trkpt lat="42.80601" lon="-2.46481">
        <ele>662.6</ele>
        <time>2021-07-24 11:35:47</time>
      </trkpt>
      <trkpt lat="42.80605" lon="-2.46467">
        <ele>663</ele>
        <time>2021-07-24 11:35:51</time>
      </trkpt>
      <trkpt lat="42.80607" lon="-2.46449">
        <ele>663.2</ele>
        <time>2021-07-24 11:35:55</time>
      </trkpt>
      <trkpt lat="42.80609" lon="-2.46431">
        <ele>663.8</ele>
        <time>2021-07-24 11:35:59</time>
      </trkpt>
      <trkpt lat="42.8061" lon="-2.46412">
        <ele>663.8</ele>
        <time>2021-07-24 11:36:03</time>
      </trkpt>
      <trkpt lat="42.80611" lon="-2.46395">
        <ele>664</ele>
        <time>2021-07-24 11:36:07</time>
      </trkpt>
      <trkpt lat="42.80612" lon="-2.46378">
        <ele>664.4</ele>
        <time>2021-07-24 11:36:11</time>
      </trkpt>
      <trkpt lat="42.80611" lon="-2.46363">
        <ele>664.6</ele>
        <time>2021-07-24 11:36:15</time>
      </trkpt>
      <trkpt lat="42.8061" lon="-2.46343">
        <ele>664.2</ele>
        <time>2021-07-24 11:36:19</time>
      </trkpt>
      <trkpt lat="42.80609" lon="-2.46322">
        <ele>664.4</ele>
        <time>2021-07-24 11:36:23</time>
      </trkpt>
      <trkpt lat="42.80607" lon="-2.46303">
        <ele>663.8</ele>
        <time>2021-07-24 11:36:27</time>
      </trkpt>
      <trkpt lat="42.80605" lon="-2.4628">
        <ele>664.8</ele>
        <time>2021-07-24 11:36:31</time>
      </trkpt>
      <trkpt lat="42.80604" lon="-2.46259">
        <ele>665.4</ele>
        <time>2021-07-24 11:36:35</time>
      </trkpt>
      <trkpt lat="42.80601" lon="-2.46241">
        <ele>665.4</ele>
        <time>2021-07-24 11:36:39</time>
      </trkpt>
      <trkpt lat="42.80598" lon="-2.4622">
        <ele>665.8</ele>
        <time>2021-07-24 11:36:43</time>
      </trkpt>
      <trkpt lat="42.80596" lon="-2.46199">
        <ele>666</ele>
        <time>2021-07-24 11:36:47</time>
      </trkpt>
      <trkpt lat="42.80594" lon="-2.46175">
        <ele>666.2</ele>
        <time>2021-07-24 11:36:51</time>
      </trkpt>
      <trkpt lat="42.8059" lon="-2.46155">
        <ele>666.8</ele>
        <time>2021-07-24 11:36:55</time>
      </trkpt>
      <trkpt lat="42.80588" lon="-2.46137">
        <ele>666.8</ele>
        <time>2021-07-24 11:36:59</time>
      </trkpt>
      <trkpt lat="42.80585" lon="-2.46119">
        <ele>666.8</ele>
        <time>2021-07-24 11:37:03</time>
      </trkpt>
      <trkpt lat="42.80584" lon="-2.46101">
        <ele>666.8</ele>
        <time>2021-07-24 11:37:07</time>
      </trkpt>
      <trkpt lat="42.80582" lon="-2.46083">
        <ele>667.2</ele>
        <time>2021-07-24 11:37:11</time>
      </trkpt>
      <trkpt lat="42.80578" lon="-2.46063">
        <ele>667.4</ele>
        <time>2021-07-24 11:37:15</time>
      </trkpt>
      <trkpt lat="42.80577" lon="-2.46044">
        <ele>667.8</ele>
        <time>2021-07-24 11:37:19</time>
      </trkpt>
      <trkpt lat="42.80575" lon="-2.46024">
        <ele>668.2</ele>
        <time>2021-07-24 11:37:23</time>
      </trkpt>
      <trkpt lat="42.80573" lon="-2.46009">
        <ele>668.2</ele>
        <time>2021-07-24 11:37:27</time>
      </trkpt>
      <trkpt lat="42.80568" lon="-2.45996">
        <ele>668.6</ele>
        <time>2021-07-24 11:37:31</time>
      </trkpt>
      <trkpt lat="42.80565" lon="-2.45981">
        <ele>668.4</ele>
        <time>2021-07-24 11:37:35</time>
      </trkpt>
      <trkpt lat="42.80561" lon="-2.45965">
        <ele>669.4</ele>
        <time>2021-07-24 11:37:39</time>
      </trkpt>
      <trkpt lat="42.80556" lon="-2.45947">
        <ele>669.2</ele>
        <time>2021-07-24 11:37:43</time>
      </trkpt>
      <trkpt lat="42.80549" lon="-2.4593">
        <ele>669.4</ele>
        <time>2021-07-24 11:37:47</time>
      </trkpt>
      <trkpt lat="42.80541" lon="-2.45912">
        <ele>669.4</ele>
        <time>2021-07-24 11:37:51</time>
      </trkpt>
      <trkpt lat="42.80532" lon="-2.45897">
        <ele>670</ele>
        <time>2021-07-24 11:37:55</time>
      </trkpt>
      <trkpt lat="42.80522" lon="-2.4588">
        <ele>670</ele>
        <time>2021-07-24 11:37:59</time>
      </trkpt>
      <trkpt lat="42.80511" lon="-2.45866">
        <ele>670.2</ele>
        <time>2021-07-24 11:38:03</time>
      </trkpt>
      <trkpt lat="42.80501" lon="-2.45854">
        <ele>670.8</ele>
        <time>2021-07-24 11:38:07</time>
      </trkpt>
      <trkpt lat="42.80488" lon="-2.45842">
        <ele>671</ele>
        <time>2021-07-24 11:38:11</time>
      </trkpt>
      <trkpt lat="42.80474" lon="-2.4583">
        <ele>671.6</ele>
        <time>2021-07-24 11:38:15</time>
      </trkpt>
      <trkpt lat="42.80459" lon="-2.4582">
        <ele>671.6</ele>
        <time>2021-07-24 11:38:19</time>
      </trkpt>
      <trkpt lat="42.80444" lon="-2.45809">
        <ele>671.6</ele>
        <time>2021-07-24 11:38:23</time>
      </trkpt>
      <trkpt lat="42.80428" lon="-2.45802">
        <ele>672.2</ele>
        <time>2021-07-24 11:38:27</time>
      </trkpt>
      <trkpt lat="42.80413" lon="-2.45796">
        <ele>672.8</ele>
        <time>2021-07-24 11:38:31</time>
      </trkpt>
      <trkpt lat="42.80398" lon="-2.4579">
        <ele>672.8</ele>
        <time>2021-07-24 11:38:35</time>
      </trkpt>
      <trkpt lat="42.80382" lon="-2.45786">
        <ele>673</ele>
        <time>2021-07-24 11:38:39</time>
      </trkpt>
      <trkpt lat="42.80366" lon="-2.45781">
        <ele>673.4</ele>
        <time>2021-07-24 11:38:43</time>
      </trkpt>
      <trkpt lat="42.8035" lon="-2.45777">
        <ele>673.8</ele>
        <time>2021-07-24 11:38:47</time>
      </trkpt>
      <trkpt lat="42.80334" lon="-2.45773">
        <ele>674.6</ele>
        <time>2021-07-24 11:38:51</time>
      </trkpt>
      <trkpt lat="42.80319" lon="-2.4577">
        <ele>673.8</ele>
        <time>2021-07-24 11:38:55</time>
      </trkpt>
      <trkpt lat="42.80302" lon="-2.45767">
        <ele>674.6</ele>
        <time>2021-07-24 11:38:59</time>
      </trkpt>
      <trkpt lat="42.80286" lon="-2.45763">
        <ele>675.2</ele>
        <time>2021-07-24 11:39:03</time>
      </trkpt>
      <trkpt lat="42.80271" lon="-2.4576">
        <ele>675.4</ele>
        <time>2021-07-24 11:39:07</time>
      </trkpt>
      <trkpt lat="42.80256" lon="-2.45758">
        <ele>675.8</ele>
        <time>2021-07-24 11:39:11</time>
      </trkpt>
      <trkpt lat="42.80242" lon="-2.45755">
        <ele>676</ele>
        <time>2021-07-24 11:39:15</time>
      </trkpt>
      <trkpt lat="42.80228" lon="-2.45751">
        <ele>676</ele>
        <time>2021-07-24 11:39:19</time>
      </trkpt>
      <trkpt lat="42.80213" lon="-2.45745">
        <ele>676.4</ele>
        <time>2021-07-24 11:39:23</time>
      </trkpt>
      <trkpt lat="42.80196" lon="-2.45742">
        <ele>676.8</ele>
        <time>2021-07-24 11:39:27</time>
      </trkpt>
      <trkpt lat="42.80182" lon="-2.45734">
        <ele>676.2</ele>
        <time>2021-07-24 11:39:31</time>
      </trkpt>
      <trkpt lat="42.80167" lon="-2.45729">
        <ele>676.6</ele>
        <time>2021-07-24 11:39:35</time>
      </trkpt>
      <trkpt lat="42.8015" lon="-2.45723">
        <ele>677.2</ele>
        <time>2021-07-24 11:39:39</time>
      </trkpt>
      <trkpt lat="42.80134" lon="-2.45717">
        <ele>677.2</ele>
        <time>2021-07-24 11:39:43</time>
      </trkpt>
      <trkpt lat="42.80117" lon="-2.45711">
        <ele>677.4</ele>
        <time>2021-07-24 11:39:47</time>
      </trkpt>
      <trkpt lat="42.80102" lon="-2.45705">
        <ele>677.6</ele>
        <time>2021-07-24 11:39:51</time>
      </trkpt>
      <trkpt lat="42.80087" lon="-2.457">
        <ele>678</ele>
        <time>2021-07-24 11:39:55</time>
      </trkpt>
      <trkpt lat="42.80074" lon="-2.45695">
        <ele>679</ele>
        <time>2021-07-24 11:39:59</time>
      </trkpt>
      <trkpt lat="42.80058" lon="-2.45691">
        <ele>679.2</ele>
        <time>2021-07-24 11:40:03</time>
      </trkpt>
      <trkpt lat="42.80043" lon="-2.45688">
        <ele>679.2</ele>
        <time>2021-07-24 11:40:07</time>
      </trkpt>
      <trkpt lat="42.80028" lon="-2.45682">
        <ele>679.6</ele>
        <time>2021-07-24 11:40:11</time>
      </trkpt>
      <trkpt lat="42.80015" lon="-2.45679">
        <ele>679.6</ele>
        <time>2021-07-24 11:40:15</time>
      </trkpt>
      <trkpt lat="42.80002" lon="-2.45673">
        <ele>679.8</ele>
        <time>2021-07-24 11:40:19</time>
      </trkpt>
      <trkpt lat="42.79987" lon="-2.45665">
        <ele>680.6</ele>
        <time>2021-07-24 11:40:23</time>
      </trkpt>
      <trkpt lat="42.79971" lon="-2.45657">
        <ele>680.8</ele>
        <time>2021-07-24 11:40:27</time>
      </trkpt>
      <trkpt lat="42.79954" lon="-2.45651">
        <ele>681.2</ele>
        <time>2021-07-24 11:40:31</time>
      </trkpt>
      <trkpt lat="42.7994" lon="-2.45646">
        <ele>681.6</ele>
        <time>2021-07-24 11:40:35</time>
      </trkpt>
      <trkpt lat="42.7994" lon="-2.45646">
        <ele>681.8</ele>
        <time>2021-07-24 11:40:39</time>
      </trkpt>
      <trkpt lat="42.7994" lon="-2.45646">
        <ele>681.8</ele>
        <time>2021-07-24 11:40:43</time>
      </trkpt>
      <trkpt lat="42.7994" lon="-2.45646">
        <ele>681.8</ele>
        <time>2021-07-24 11:40:47</time>
      </trkpt>
      <trkpt lat="42.7994" lon="-2.45646">
        <ele>681.6</ele>
        <time>2021-07-24 11:40:51</time>
      </trkpt>
      <trkpt lat="42.79932" lon="-2.45641">
        <ele>681.6</ele>
        <time>2021-07-24 11:40:55</time>
      </trkpt>
      <trkpt lat="42.7993" lon="-2.45637">
        <ele>681.6</ele>
        <time>2021-07-24 11:40:59</time>
      </trkpt>
      <trkpt lat="42.7993" lon="-2.45637">
        <ele>681.6</ele>
        <time>2021-07-24 11:41:03</time>
      </trkpt>
      <trkpt lat="42.7993" lon="-2.45637">
        <ele>681.8</ele>
        <time>2021-07-24 11:41:07</time>
      </trkpt>
      <trkpt lat="42.7993" lon="-2.45637">
        <ele>681.4</ele>
        <time>2021-07-24 11:41:11</time>
      </trkpt>
      <trkpt lat="42.7993" lon="-2.45637">
        <ele>681.6</ele>
        <time>2021-07-24 11:41:15</time>
      </trkpt>
      <trkpt lat="42.7993" lon="-2.45637">
        <ele>681.6</ele>
        <time>2021-07-24 11:41:19</time>
      </trkpt>
      <trkpt lat="42.7993" lon="-2.45637">
        <ele>681.6</ele>
        <time>2021-07-24 11:41:23</time>
      </trkpt>
      <trkpt lat="42.7993" lon="-2.45637">
        <ele>681.6</ele>
        <time>2021-07-24 11:41:27</time>
      </trkpt>
      <trkpt lat="42.7993" lon="-2.45637">
        <ele>681.6</ele>
        <time>2021-07-24 11:41:31</time>
      </trkpt>
      <trkpt lat="42.7993" lon="-2.45637">
        <ele>681.6</ele>
        <time>2021-07-24 11:41:35</time>
      </trkpt>
      <trkpt lat="42.7993" lon="-2.45637">
        <ele>681.6</ele>
        <time>2021-07-24 11:41:39</time>
      </trkpt>
      <trkpt lat="42.7993" lon="-2.45637">
        <ele>681.4</ele>
        <time>2021-07-24 11:41:43</time>
      </trkpt>
      <trkpt lat="42.7993" lon="-2.45637">
        <ele>681.6</ele>
        <time>2021-07-24 11:41:47</time>
      </trkpt>
      <trkpt lat="42.7993" lon="-2.45637">
        <ele>681.4</ele>
        <time>2021-07-24 11:41:51</time>
      </trkpt>
      <trkpt lat="42.7993" lon="-2.45637">
        <ele>681.6</ele>
        <time>2021-07-24 11:41:55</time>
      </trkpt>
      <trkpt lat="42.7993" lon="-2.45637">
        <ele>681.6</ele>
        <time>2021-07-24 11:41:59</time>
      </trkpt>
      <trkpt lat="42.7993" lon="-2.45637">
        <ele>681.6</ele>
        <time>2021-07-24 11:42:03</time>
      </trkpt>
      <trkpt lat="42.7993" lon="-2.45637">
        <ele>681.8</ele>
        <time>2021-07-24 11:42:07</time>
      </trkpt>
      <trkpt lat="42.7993" lon="-2.45637">
        <ele>682</ele>
        <time>2021-07-24 11:42:11</time>
      </trkpt>
      <trkpt lat="42.7993" lon="-2.45637">
        <ele>681.8</ele>
        <time>2021-07-24 11:42:15</time>
      </trkpt>
      <trkpt lat="42.7993" lon="-2.45637">
        <ele>681.8</ele>
        <time>2021-07-24 11:42:19</time>
      </trkpt>
      <trkpt lat="42.7993" lon="-2.45637">
        <ele>681.4</ele>
        <time>2021-07-24 11:42:23</time>
      </trkpt>
      <trkpt lat="42.7993" lon="-2.45637">
        <ele>681.6</ele>
        <time>2021-07-24 11:42:27</time>
      </trkpt>
      <trkpt lat="42.7993" lon="-2.45637">
        <ele>681.6</ele>
        <time>2021-07-24 11:42:31</time>
      </trkpt>
      <trkpt lat="42.7993" lon="-2.45637">
        <ele>681.6</ele>
        <time>2021-07-24 11:42:35</time>
      </trkpt>
      <trkpt lat="42.7993" lon="-2.45637">
        <ele>681.6</ele>
        <time>2021-07-24 11:42:39</time>
      </trkpt>
      <trkpt lat="42.7993" lon="-2.45637">
        <ele>681.6</ele>
        <time>2021-07-24 11:42:43</time>
      </trkpt>
      <trkpt lat="42.7993" lon="-2.45637">
        <ele>681.6</ele>
        <time>2021-07-24 11:42:47</time>
      </trkpt>
      <trkpt lat="42.7993" lon="-2.45637">
        <ele>681.6</ele>
        <time>2021-07-24 11:42:51</time>
      </trkpt>
      <trkpt lat="42.7993" lon="-2.45637">
        <ele>681.6</ele>
        <time>2021-07-24 11:42:55</time>
      </trkpt>
      <trkpt lat="42.7993" lon="-2.45637">
        <ele>681.8</ele>
        <time>2021-07-24 11:42:59</time>
      </trkpt>
      <trkpt lat="42.7993" lon="-2.45637">
        <ele>681.6</ele>
        <time>2021-07-24 11:43:03</time>
      </trkpt>
      <trkpt lat="42.7993" lon="-2.45637">
        <ele>681.4</ele>
        <time>2021-07-24 11:43:07</time>
      </trkpt>
      <trkpt lat="42.7993" lon="-2.45637">
        <ele>681.6</ele>
        <time>2021-07-24 11:43:11</time>
      </trkpt>
      <trkpt lat="42.7993" lon="-2.45637">
        <ele>681.6</ele>
        <time>2021-07-24 11:43:15</time>
      </trkpt>
      <trkpt lat="42.7993" lon="-2.45637">
        <ele>681.6</ele>
        <time>2021-07-24 11:43:19</time>
      </trkpt>
      <trkpt lat="42.7993" lon="-2.45637">
        <ele>681.8</ele>
        <time>2021-07-24 11:43:23</time>
      </trkpt>
      <trkpt lat="42.7993" lon="-2.45637">
        <ele>681.6</ele>
        <time>2021-07-24 11:43:27</time>
      </trkpt>
      <trkpt lat="42.7993" lon="-2.45637">
        <ele>682</ele>
        <time>2021-07-24 11:43:31</time>
      </trkpt>
      <trkpt lat="42.7993" lon="-2.45637">
        <ele>681.6</ele>
        <time>2021-07-24 11:43:35</time>
      </trkpt>
      <trkpt lat="42.7993" lon="-2.45637">
        <ele>681.8</ele>
        <time>2021-07-24 11:43:39</time>
      </trkpt>
      <trkpt lat="42.7993" lon="-2.45637">
        <ele>681.8</ele>
        <time>2021-07-24 11:43:43</time>
      </trkpt>
      <trkpt lat="42.7993" lon="-2.45637">
        <ele>682</ele>
        <time>2021-07-24 11:43:47</time>
      </trkpt>
      <trkpt lat="42.7993" lon="-2.45637">
        <ele>681.8</ele>
        <time>2021-07-24 11:43:51</time>
      </trkpt>
      <trkpt lat="42.7993" lon="-2.45637">
        <ele>681.8</ele>
        <time>2021-07-24 11:43:55</time>
      </trkpt>
      <trkpt lat="42.7993" lon="-2.45637">
        <ele>681.8</ele>
        <time>2021-07-24 11:43:59</time>
      </trkpt>
      <trkpt lat="42.7993" lon="-2.45637">
        <ele>681.6</ele>
        <time>2021-07-24 11:44:03</time>
      </trkpt>
      <trkpt lat="42.7993" lon="-2.45637">
        <ele>681.6</ele>
        <time>2021-07-24 11:44:07</time>
      </trkpt>
      <trkpt lat="42.7993" lon="-2.45637">
        <ele>681.8</ele>
        <time>2021-07-24 11:44:11</time>
      </trkpt>
      <trkpt lat="42.7993" lon="-2.45637">
        <ele>681.8</ele>
        <time>2021-07-24 11:44:15</time>
      </trkpt>
      <trkpt lat="42.7993" lon="-2.45637">
        <ele>682</ele>
        <time>2021-07-24 11:44:19</time>
      </trkpt>
      <trkpt lat="42.7993" lon="-2.45637">
        <ele>682</ele>
        <time>2021-07-24 11:44:23</time>
      </trkpt>
      <trkpt lat="42.7993" lon="-2.45637">
        <ele>682.2</ele>
        <time>2021-07-24 11:44:27</time>
      </trkpt>
      <trkpt lat="42.7993" lon="-2.45637">
        <ele>681.8</ele>
        <time>2021-07-24 11:44:31</time>
      </trkpt>
      <trkpt lat="42.7993" lon="-2.45637">
        <ele>681.8</ele>
        <time>2021-07-24 11:44:35</time>
      </trkpt>
      <trkpt lat="42.7993" lon="-2.45637">
        <ele>681.6</ele>
        <time>2021-07-24 11:44:39</time>
      </trkpt>
      <trkpt lat="42.7993" lon="-2.45637">
        <ele>682.2</ele>
        <time>2021-07-24 11:44:43</time>
      </trkpt>
      <trkpt lat="42.7993" lon="-2.45637">
        <ele>681.8</ele>
        <time>2021-07-24 11:44:47</time>
      </trkpt>
      <trkpt lat="42.7993" lon="-2.45637">
        <ele>681.6</ele>
        <time>2021-07-24 11:44:51</time>
      </trkpt>
      <trkpt lat="42.7993" lon="-2.45637">
        <ele>681.6</ele>
        <time>2021-07-24 11:44:55</time>
      </trkpt>
      <trkpt lat="42.7993" lon="-2.45637">
        <ele>681.8</ele>
        <time>2021-07-24 11:44:59</time>
      </trkpt>
      <trkpt lat="42.7993" lon="-2.45637">
        <ele>681.8</ele>
        <time>2021-07-24 11:45:03</time>
      </trkpt>
      <trkpt lat="42.7993" lon="-2.45637">
        <ele>681.6</ele>
        <time>2021-07-24 11:45:07</time>
      </trkpt>
      <trkpt lat="42.7993" lon="-2.45637">
        <ele>681.6</ele>
        <time>2021-07-24 11:45:11</time>
      </trkpt>
      <trkpt lat="42.7993" lon="-2.45637">
        <ele>681.8</ele>
        <time>2021-07-24 11:45:15</time>
      </trkpt>
      <trkpt lat="42.7993" lon="-2.45637">
        <ele>681.6</ele>
        <time>2021-07-24 11:45:19</time>
      </trkpt>
      <trkpt lat="42.7993" lon="-2.45637">
        <ele>682</ele>
        <time>2021-07-24 11:45:23</time>
      </trkpt>
      <trkpt lat="42.7993" lon="-2.45637">
        <ele>681.8</ele>
        <time>2021-07-24 11:45:27</time>
      </trkpt>
      <trkpt lat="42.7993" lon="-2.45637">
        <ele>681.8</ele>
        <time>2021-07-24 11:45:31</time>
      </trkpt>
      <trkpt lat="42.7993" lon="-2.45637">
        <ele>681.8</ele>
        <time>2021-07-24 11:45:35</time>
      </trkpt>
      <trkpt lat="42.7993" lon="-2.45637">
        <ele>681.8</ele>
        <time>2021-07-24 11:45:39</time>
      </trkpt>
      <trkpt lat="42.7993" lon="-2.45637">
        <ele>681.8</ele>
        <time>2021-07-24 11:45:43</time>
      </trkpt>
      <trkpt lat="42.7993" lon="-2.45637">
        <ele>682</ele>
        <time>2021-07-24 11:45:47</time>
      </trkpt>
      <trkpt lat="42.7993" lon="-2.45637">
        <ele>681.8</ele>
        <time>2021-07-24 11:45:51</time>
      </trkpt>
      <trkpt lat="42.7993" lon="-2.45637">
        <ele>682</ele>
        <time>2021-07-24 11:45:55</time>
      </trkpt>
      <trkpt lat="42.7993" lon="-2.45637">
        <ele>681.8</ele>
        <time>2021-07-24 11:45:59</time>
      </trkpt>
      <trkpt lat="42.79933" lon="-2.45632">
        <ele>682</ele>
        <time>2021-07-24 11:46:03</time>
      </trkpt>
      <trkpt lat="42.79933" lon="-2.45632">
        <ele>681.6</ele>
        <time>2021-07-24 11:46:07</time>
      </trkpt>
      <trkpt lat="42.79933" lon="-2.45632">
        <ele>682</ele>
        <time>2021-07-24 11:46:11</time>
      </trkpt>
      <trkpt lat="42.79933" lon="-2.45632">
        <ele>682</ele>
        <time>2021-07-24 11:46:15</time>
      </trkpt>
      <trkpt lat="42.79931" lon="-2.45634">
        <ele>681.6</ele>
        <time>2021-07-24 11:46:19</time>
      </trkpt>
      <trkpt lat="42.79932" lon="-2.45633">
        <ele>681.4</ele>
        <time>2021-07-24 11:46:23</time>
      </trkpt>
      <trkpt lat="42.79931" lon="-2.45626">
        <ele>681.2</ele>
        <time>2021-07-24 11:46:27</time>
      </trkpt>
      <trkpt lat="42.79928" lon="-2.45617">
        <ele>680</ele>
        <time>2021-07-24 11:46:31</time>
      </trkpt>
      <trkpt lat="42.79924" lon="-2.45605">
        <ele>679.2</ele>
        <time>2021-07-24 11:46:35</time>
      </trkpt>
      <trkpt lat="42.79924" lon="-2.45591">
        <ele>678.8</ele>
        <time>2021-07-24 11:46:39</time>
      </trkpt>
      <trkpt lat="42.79924" lon="-2.45575">
        <ele>678.8</ele>
        <time>2021-07-24 11:46:43</time>
      </trkpt>
      <trkpt lat="42.79925" lon="-2.45559">
        <ele>678.6</ele>
        <time>2021-07-24 11:46:47</time>
      </trkpt>
      <trkpt lat="42.79927" lon="-2.45542">
        <ele>678.4</ele>
        <time>2021-07-24 11:46:51</time>
      </trkpt>
      <trkpt lat="42.79929" lon="-2.45525">
        <ele>678.6</ele>
        <time>2021-07-24 11:46:55</time>
      </trkpt>
      <trkpt lat="42.79931" lon="-2.45507">
        <ele>679</ele>
        <time>2021-07-24 11:46:59</time>
      </trkpt>
      <trkpt lat="42.79932" lon="-2.45491">
        <ele>679</ele>
        <time>2021-07-24 11:47:03</time>
      </trkpt>
      <trkpt lat="42.79933" lon="-2.45475">
        <ele>678.8</ele>
        <time>2021-07-24 11:47:07</time>
      </trkpt>
      <trkpt lat="42.79934" lon="-2.45466">
        <ele>680.2</ele>
        <time>2021-07-24 11:47:11</time>
      </trkpt>
      <trkpt lat="42.79934" lon="-2.4546">
        <ele>680.4</ele>
        <time>2021-07-24 11:47:15</time>
      </trkpt>
      <trkpt lat="42.79934" lon="-2.45451">
        <ele>680.2</ele>
        <time>2021-07-24 11:47:19</time>
      </trkpt>
      <trkpt lat="42.79931" lon="-2.45445">
        <ele>680</ele>
        <time>2021-07-24 11:47:23</time>
      </trkpt>
      <trkpt lat="42.79931" lon="-2.45445">
        <ele>680.2</ele>
        <time>2021-07-24 11:47:27</time>
      </trkpt>
      <trkpt lat="42.79931" lon="-2.45445">
        <ele>680.2</ele>
        <time>2021-07-24 11:47:31</time>
      </trkpt>
      <trkpt lat="42.79931" lon="-2.45445">
        <ele>680.4</ele>
        <time>2021-07-24 11:47:35</time>
      </trkpt>
      <trkpt lat="42.79931" lon="-2.45445">
        <ele>679.8</ele>
        <time>2021-07-24 11:47:39</time>
      </trkpt>
      <trkpt lat="42.7993" lon="-2.45444">
        <ele>680.4</ele>
        <time>2021-07-24 11:47:43</time>
      </trkpt>
      <trkpt lat="42.7992" lon="-2.45438">
        <ele>680.4</ele>
        <time>2021-07-24 11:47:47</time>
      </trkpt>
      <trkpt lat="42.79911" lon="-2.45433">
        <ele>681.2</ele>
        <time>2021-07-24 11:47:51</time>
      </trkpt>
      <trkpt lat="42.79906" lon="-2.45431">
        <ele>681.8</ele>
        <time>2021-07-24 11:47:55</time>
      </trkpt>
      <trkpt lat="42.799" lon="-2.4543">
        <ele>682</ele>
        <time>2021-07-24 11:47:59</time>
      </trkpt>
      <trkpt lat="42.7989" lon="-2.45426">
        <ele>681.4</ele>
        <time>2021-07-24 11:48:03</time>
      </trkpt>
      <trkpt lat="42.79881" lon="-2.45422">
        <ele>682.8</ele>
        <time>2021-07-24 11:48:07</time>
      </trkpt>
      <trkpt lat="42.79875" lon="-2.45417">
        <ele>684</ele>
        <time>2021-07-24 11:48:11</time>
      </trkpt>
      <trkpt lat="42.79871" lon="-2.45414">
        <ele>684.8</ele>
        <time>2021-07-24 11:48:15</time>
      </trkpt>
      <trkpt lat="42.79866" lon="-2.45409">
        <ele>684.8</ele>
        <time>2021-07-24 11:48:19</time>
      </trkpt>
      <trkpt lat="42.79858" lon="-2.45404">
        <ele>684.4</ele>
        <time>2021-07-24 11:48:23</time>
      </trkpt>
      <trkpt lat="42.79849" lon="-2.45392">
        <ele>684.4</ele>
        <time>2021-07-24 11:48:27</time>
      </trkpt>
      <trkpt lat="42.79841" lon="-2.4538">
        <ele>685.2</ele>
        <time>2021-07-24 11:48:31</time>
      </trkpt>
      <trkpt lat="42.79833" lon="-2.45369">
        <ele>685.2</ele>
        <time>2021-07-24 11:48:35</time>
      </trkpt>
      <trkpt lat="42.79826" lon="-2.45351">
        <ele>686.4</ele>
        <time>2021-07-24 11:48:39</time>
      </trkpt>
      <trkpt lat="42.79824" lon="-2.45342">
        <ele>687</ele>
        <time>2021-07-24 11:48:43</time>
      </trkpt>
      <trkpt lat="42.7982" lon="-2.45332">
        <ele>687.6</ele>
        <time>2021-07-24 11:48:47</time>
      </trkpt>
      <trkpt lat="42.79817" lon="-2.45315">
        <ele>687.2</ele>
        <time>2021-07-24 11:48:51</time>
      </trkpt>
      <trkpt lat="42.79813" lon="-2.45297">
        <ele>686.6</ele>
        <time>2021-07-24 11:48:55</time>
      </trkpt>
      <trkpt lat="42.79806" lon="-2.45275">
        <ele>686.6</ele>
        <time>2021-07-24 11:48:59</time>
      </trkpt>
      <trkpt lat="42.798" lon="-2.45255">
        <ele>686.4</ele>
        <time>2021-07-24 11:49:03</time>
      </trkpt>
      <trkpt lat="42.79795" lon="-2.45235">
        <ele>687.6</ele>
        <time>2021-07-24 11:49:07</time>
      </trkpt>
      <trkpt lat="42.79789" lon="-2.45215">
        <ele>687.4</ele>
        <time>2021-07-24 11:49:11</time>
      </trkpt>
      <trkpt lat="42.79785" lon="-2.45202">
        <ele>688.2</ele>
        <time>2021-07-24 11:49:15</time>
      </trkpt>
      <trkpt lat="42.79777" lon="-2.45188">
        <ele>688</ele>
        <time>2021-07-24 11:49:19</time>
      </trkpt>
      <trkpt lat="42.79764" lon="-2.45179">
        <ele>688</ele>
        <time>2021-07-24 11:49:23</time>
      </trkpt>
      <trkpt lat="42.7975" lon="-2.45171">
        <ele>688</ele>
        <time>2021-07-24 11:49:27</time>
      </trkpt>
      <trkpt lat="42.79735" lon="-2.45163">
        <ele>688.2</ele>
        <time>2021-07-24 11:49:31</time>
      </trkpt>
      <trkpt lat="42.79726" lon="-2.45158">
        <ele>688.8</ele>
        <time>2021-07-24 11:49:35</time>
      </trkpt>
      <trkpt lat="42.79719" lon="-2.45152">
        <ele>690.4</ele>
        <time>2021-07-24 11:49:39</time>
      </trkpt>
      <trkpt lat="42.79711" lon="-2.45145">
        <ele>691.4</ele>
        <time>2021-07-24 11:49:43</time>
      </trkpt>
      <trkpt lat="42.79701" lon="-2.45136">
        <ele>692</ele>
        <time>2021-07-24 11:49:47</time>
      </trkpt>
      <trkpt lat="42.79692" lon="-2.45128">
        <ele>692.8</ele>
        <time>2021-07-24 11:49:51</time>
      </trkpt>
      <trkpt lat="42.79685" lon="-2.45119">
        <ele>693.6</ele>
        <time>2021-07-24 11:49:55</time>
      </trkpt>
      <trkpt lat="42.79679" lon="-2.45113">
        <ele>694.8</ele>
        <time>2021-07-24 11:49:59</time>
      </trkpt>
      <trkpt lat="42.79679" lon="-2.45113">
        <ele>695.2</ele>
        <time>2021-07-24 11:50:03</time>
      </trkpt>
      <trkpt lat="42.79671" lon="-2.45104">
        <ele>695.8</ele>
        <time>2021-07-24 11:50:07</time>
      </trkpt>
      <trkpt lat="42.79666" lon="-2.45101">
        <ele>696.4</ele>
        <time>2021-07-24 11:50:11</time>
      </trkpt>
      <trkpt lat="42.7966" lon="-2.45098">
        <ele>697.2</ele>
        <time>2021-07-24 11:50:15</time>
      </trkpt>
      <trkpt lat="42.79655" lon="-2.45095">
        <ele>698</ele>
        <time>2021-07-24 11:50:19</time>
      </trkpt>
      <trkpt lat="42.79648" lon="-2.45092">
        <ele>698.6</ele>
        <time>2021-07-24 11:50:23</time>
      </trkpt>
      <trkpt lat="42.79643" lon="-2.45087">
        <ele>700.4</ele>
        <time>2021-07-24 11:50:27</time>
      </trkpt>
      <trkpt lat="42.7964" lon="-2.45082">
        <ele>701</ele>
        <time>2021-07-24 11:50:31</time>
      </trkpt>
      <trkpt lat="42.79635" lon="-2.4508">
        <ele>702.4</ele>
        <time>2021-07-24 11:50:35</time>
      </trkpt>
      <trkpt lat="42.7963" lon="-2.45078">
        <ele>702.6</ele>
        <time>2021-07-24 11:50:39</time>
      </trkpt>
      <trkpt lat="42.79626" lon="-2.45076">
        <ele>703.6</ele>
        <time>2021-07-24 11:50:43</time>
      </trkpt>
      <trkpt lat="42.79621" lon="-2.45074">
        <ele>704.6</ele>
        <time>2021-07-24 11:50:47</time>
      </trkpt>
      <trkpt lat="42.79616" lon="-2.45071">
        <ele>705</ele>
        <time>2021-07-24 11:50:51</time>
      </trkpt>
      <trkpt lat="42.79611" lon="-2.4507">
        <ele>705</ele>
        <time>2021-07-24 11:50:55</time>
      </trkpt>
      <trkpt lat="42.79606" lon="-2.45069">
        <ele>705.8</ele>
        <time>2021-07-24 11:50:59</time>
      </trkpt>
      <trkpt lat="42.79602" lon="-2.45062">
        <ele>707.2</ele>
        <time>2021-07-24 11:51:03</time>
      </trkpt>
      <trkpt lat="42.796" lon="-2.45056">
        <ele>707.4</ele>
        <time>2021-07-24 11:51:07</time>
      </trkpt>
      <trkpt lat="42.796" lon="-2.45049">
        <ele>708.6</ele>
        <time>2021-07-24 11:51:11</time>
      </trkpt>
      <trkpt lat="42.79598" lon="-2.45042">
        <ele>709</ele>
        <time>2021-07-24 11:51:15</time>
      </trkpt>
      <trkpt lat="42.79597" lon="-2.45033">
        <ele>709.8</ele>
        <time>2021-07-24 11:51:19</time>
      </trkpt>
      <trkpt lat="42.79596" lon="-2.45027">
        <ele>710.2</ele>
        <time>2021-07-24 11:51:23</time>
      </trkpt>
      <trkpt lat="42.79596" lon="-2.45022">
        <ele>711.2</ele>
        <time>2021-07-24 11:51:27</time>
      </trkpt>
      <trkpt lat="42.796" lon="-2.45018">
        <ele>711.8</ele>
        <time>2021-07-24 11:51:31</time>
      </trkpt>
      <trkpt lat="42.79603" lon="-2.45013">
        <ele>712.8</ele>
        <time>2021-07-24 11:51:35</time>
      </trkpt>
      <trkpt lat="42.79606" lon="-2.45009">
        <ele>713.6</ele>
        <time>2021-07-24 11:51:39</time>
      </trkpt>
      <trkpt lat="42.79608" lon="-2.45004">
        <ele>714</ele>
        <time>2021-07-24 11:51:43</time>
      </trkpt>
      <trkpt lat="42.79612" lon="-2.44999">
        <ele>714.6</ele>
        <time>2021-07-24 11:51:47</time>
      </trkpt>
      <trkpt lat="42.79615" lon="-2.44992">
        <ele>715</ele>
        <time>2021-07-24 11:51:51</time>
      </trkpt>
      <trkpt lat="42.79619" lon="-2.44984">
        <ele>715.6</ele>
        <time>2021-07-24 11:51:55</time>
      </trkpt>
      <trkpt lat="42.79621" lon="-2.44977">
        <ele>716.4</ele>
        <time>2021-07-24 11:51:59</time>
      </trkpt>
      <trkpt lat="42.79626" lon="-2.44971">
        <ele>716.4</ele>
        <time>2021-07-24 11:52:03</time>
      </trkpt>
      <trkpt lat="42.7963" lon="-2.44964">
        <ele>716.8</ele>
        <time>2021-07-24 11:52:07</time>
      </trkpt>
      <trkpt lat="42.79631" lon="-2.44955">
        <ele>717</ele>
        <time>2021-07-24 11:52:11</time>
      </trkpt>
      <trkpt lat="42.79636" lon="-2.4495">
        <ele>717.6</ele>
        <time>2021-07-24 11:52:15</time>
      </trkpt>
      <trkpt lat="42.79638" lon="-2.44942">
        <ele>717.6</ele>
        <time>2021-07-24 11:52:19</time>
      </trkpt>
      <trkpt lat="42.79638" lon="-2.44923">
        <ele>719</ele>
        <time>2021-07-24 11:52:23</time>
      </trkpt>
      <trkpt lat="42.79639" lon="-2.44916">
        <ele>719.6</ele>
        <time>2021-07-24 11:52:27</time>
      </trkpt>
      <trkpt lat="42.7964" lon="-2.44909">
        <ele>720.8</ele>
        <time>2021-07-24 11:52:31</time>
      </trkpt>
      <trkpt lat="42.79638" lon="-2.44902">
        <ele>722</ele>
        <time>2021-07-24 11:52:35</time>
      </trkpt>
      <trkpt lat="42.79638" lon="-2.44896">
        <ele>722.2</ele>
        <time>2021-07-24 11:52:39</time>
      </trkpt>
      <trkpt lat="42.79638" lon="-2.44889">
        <ele>723.4</ele>
        <time>2021-07-24 11:52:43</time>
      </trkpt>
      <trkpt lat="42.7964" lon="-2.44882">
        <ele>724.6</ele>
        <time>2021-07-24 11:52:47</time>
      </trkpt>
      <trkpt lat="42.79641" lon="-2.44877">
        <ele>725.4</ele>
        <time>2021-07-24 11:52:51</time>
      </trkpt>
      <trkpt lat="42.79643" lon="-2.4487">
        <ele>726.4</ele>
        <time>2021-07-24 11:52:55</time>
      </trkpt>
      <trkpt lat="42.79643" lon="-2.4487">
        <ele>726.8</ele>
        <time>2021-07-24 11:52:59</time>
      </trkpt>
      <trkpt lat="42.79643" lon="-2.4487">
        <ele>726.6</ele>
        <time>2021-07-24 11:53:03</time>
      </trkpt>
      <trkpt lat="42.79643" lon="-2.4487">
        <ele>726.4</ele>
        <time>2021-07-24 11:53:07</time>
      </trkpt>
      <trkpt lat="42.79643" lon="-2.4487">
        <ele>726.4</ele>
        <time>2021-07-24 11:53:11</time>
      </trkpt>
      <trkpt lat="42.79643" lon="-2.4487">
        <ele>726.2</ele>
        <time>2021-07-24 11:53:15</time>
      </trkpt>
      <trkpt lat="42.79643" lon="-2.4487">
        <ele>726.2</ele>
        <time>2021-07-24 11:53:19</time>
      </trkpt>
      <trkpt lat="42.79643" lon="-2.4487">
        <ele>726.2</ele>
        <time>2021-07-24 11:53:23</time>
      </trkpt>
      <trkpt lat="42.79643" lon="-2.4487">
        <ele>726.4</ele>
        <time>2021-07-24 11:53:27</time>
      </trkpt>
      <trkpt lat="42.79643" lon="-2.4487">
        <ele>726.6</ele>
        <time>2021-07-24 11:53:31</time>
      </trkpt>
      <trkpt lat="42.79643" lon="-2.4487">
        <ele>726.4</ele>
        <time>2021-07-24 11:53:35</time>
      </trkpt>
      <trkpt lat="42.79643" lon="-2.4487">
        <ele>726.4</ele>
        <time>2021-07-24 11:53:39</time>
      </trkpt>
      <trkpt lat="42.79643" lon="-2.4487">
        <ele>726.4</ele>
        <time>2021-07-24 11:53:43</time>
      </trkpt>
      <trkpt lat="42.79643" lon="-2.4487">
        <ele>726.2</ele>
        <time>2021-07-24 11:53:47</time>
      </trkpt>
      <trkpt lat="42.79643" lon="-2.4487">
        <ele>726.2</ele>
        <time>2021-07-24 11:53:51</time>
      </trkpt>
      <trkpt lat="42.79643" lon="-2.4487">
        <ele>726.4</ele>
        <time>2021-07-24 11:53:55</time>
      </trkpt>
      <trkpt lat="42.79643" lon="-2.4487">
        <ele>726.4</ele>
        <time>2021-07-24 11:53:59</time>
      </trkpt>
      <trkpt lat="42.79643" lon="-2.4487">
        <ele>726.2</ele>
        <time>2021-07-24 11:54:03</time>
      </trkpt>
      <trkpt lat="42.79643" lon="-2.4487">
        <ele>726.2</ele>
        <time>2021-07-24 11:54:07</time>
      </trkpt>
      <trkpt lat="42.79643" lon="-2.4487">
        <ele>726.2</ele>
        <time>2021-07-24 11:54:11</time>
      </trkpt>
      <trkpt lat="42.79643" lon="-2.4487">
        <ele>726</ele>
        <time>2021-07-24 11:54:15</time>
      </trkpt>
      <trkpt lat="42.79643" lon="-2.4487">
        <ele>726.4</ele>
        <time>2021-07-24 11:54:19</time>
      </trkpt>
      <trkpt lat="42.79643" lon="-2.4487">
        <ele>726.2</ele>
        <time>2021-07-24 11:54:23</time>
      </trkpt>
      <trkpt lat="42.79649" lon="-2.44862">
        <ele>726.2</ele>
        <time>2021-07-24 11:54:27</time>
      </trkpt>
      <trkpt lat="42.79648" lon="-2.44856">
        <ele>726.4</ele>
        <time>2021-07-24 11:54:31</time>
      </trkpt>
      <trkpt lat="42.79647" lon="-2.44849">
        <ele>726.4</ele>
        <time>2021-07-24 11:54:35</time>
      </trkpt>
      <trkpt lat="42.79645" lon="-2.4484">
        <ele>726.8</ele>
        <time>2021-07-24 11:54:39</time>
      </trkpt>
      <trkpt lat="42.79641" lon="-2.44836">
        <ele>726.8</ele>
        <time>2021-07-24 11:54:43</time>
      </trkpt>
      <trkpt lat="42.79637" lon="-2.44831">
        <ele>728.6</ele>
        <time>2021-07-24 11:54:47</time>
      </trkpt>
      <trkpt lat="42.79633" lon="-2.44828">
        <ele>729.2</ele>
        <time>2021-07-24 11:54:51</time>
      </trkpt>
      <trkpt lat="42.79625" lon="-2.44826">
        <ele>729.6</ele>
        <time>2021-07-24 11:54:55</time>
      </trkpt>
      <trkpt lat="42.7962" lon="-2.44822">
        <ele>730.2</ele>
        <time>2021-07-24 11:54:59</time>
      </trkpt>
      <trkpt lat="42.79615" lon="-2.44816">
        <ele>731.2</ele>
        <time>2021-07-24 11:55:03</time>
      </trkpt>
      <trkpt lat="42.79611" lon="-2.44808">
        <ele>731.8</ele>
        <time>2021-07-24 11:55:07</time>
      </trkpt>
      <trkpt lat="42.79608" lon="-2.44797">
        <ele>732.2</ele>
        <time>2021-07-24 11:55:11</time>
      </trkpt>
      <trkpt lat="42.79604" lon="-2.44787">
        <ele>732.6</ele>
        <time>2021-07-24 11:55:15</time>
      </trkpt>
      <trkpt lat="42.79603" lon="-2.44778">
        <ele>733.6</ele>
        <time>2021-07-24 11:55:19</time>
      </trkpt>
      <trkpt lat="42.79602" lon="-2.44769">
        <ele>734</ele>
        <time>2021-07-24 11:55:23</time>
      </trkpt>
      <trkpt lat="42.79603" lon="-2.44761">
        <ele>734.8</ele>
        <time>2021-07-24 11:55:27</time>
      </trkpt>
      <trkpt lat="42.79604" lon="-2.44755">
        <ele>735.4</ele>
        <time>2021-07-24 11:55:31</time>
      </trkpt>
      <trkpt lat="42.79605" lon="-2.44748">
        <ele>736.8</ele>
        <time>2021-07-24 11:55:35</time>
      </trkpt>
      <trkpt lat="42.79607" lon="-2.44743">
        <ele>737.6</ele>
        <time>2021-07-24 11:55:39</time>
      </trkpt>
      <trkpt lat="42.79609" lon="-2.44738">
        <ele>737.8</ele>
        <time>2021-07-24 11:55:43</time>
      </trkpt>
      <trkpt lat="42.79612" lon="-2.44732">
        <ele>738.8</ele>
        <time>2021-07-24 11:55:47</time>
      </trkpt>
      <trkpt lat="42.79615" lon="-2.44725">
        <ele>739.8</ele>
        <time>2021-07-24 11:55:51</time>
      </trkpt>
      <trkpt lat="42.79618" lon="-2.44719">
        <ele>740.8</ele>
        <time>2021-07-24 11:55:55</time>
      </trkpt>
      <trkpt lat="42.79622" lon="-2.44712">
        <ele>740.8</ele>
        <time>2021-07-24 11:55:59</time>
      </trkpt>
      <trkpt lat="42.79625" lon="-2.44705">
        <ele>741.2</ele>
        <time>2021-07-24 11:56:03</time>
      </trkpt>
      <trkpt lat="42.79629" lon="-2.44695">
        <ele>741.8</ele>
        <time>2021-07-24 11:56:07</time>
      </trkpt>
      <trkpt lat="42.79632" lon="-2.44683">
        <ele>742.4</ele>
        <time>2021-07-24 11:56:11</time>
      </trkpt>
      <trkpt lat="42.79636" lon="-2.44674">
        <ele>743.2</ele>
        <time>2021-07-24 11:56:15</time>
      </trkpt>
      <trkpt lat="42.79638" lon="-2.44667">
        <ele>743.8</ele>
        <time>2021-07-24 11:56:19</time>
      </trkpt>
      <trkpt lat="42.79641" lon="-2.4466">
        <ele>744.6</ele>
        <time>2021-07-24 11:56:23</time>
      </trkpt>
      <trkpt lat="42.79645" lon="-2.44653">
        <ele>745.8</ele>
        <time>2021-07-24 11:56:27</time>
      </trkpt>
      <trkpt lat="42.79649" lon="-2.44647">
        <ele>746.6</ele>
        <time>2021-07-24 11:56:31</time>
      </trkpt>
      <trkpt lat="42.79653" lon="-2.44641">
        <ele>748.4</ele>
        <time>2021-07-24 11:56:35</time>
      </trkpt>
      <trkpt lat="42.79657" lon="-2.44637">
        <ele>748.6</ele>
        <time>2021-07-24 11:56:39</time>
      </trkpt>
      <trkpt lat="42.79659" lon="-2.44631">
        <ele>750</ele>
        <time>2021-07-24 11:56:43</time>
      </trkpt>
      <trkpt lat="42.79665" lon="-2.44627">
        <ele>751.2</ele>
        <time>2021-07-24 11:56:47</time>
      </trkpt>
      <trkpt lat="42.79668" lon="-2.44624">
        <ele>751.8</ele>
        <time>2021-07-24 11:56:51</time>
      </trkpt>
      <trkpt lat="42.79673" lon="-2.4462">
        <ele>752.4</ele>
        <time>2021-07-24 11:56:55</time>
      </trkpt>
      <trkpt lat="42.79678" lon="-2.44616">
        <ele>752.6</ele>
        <time>2021-07-24 11:56:59</time>
      </trkpt>
      <trkpt lat="42.79683" lon="-2.44614">
        <ele>753.2</ele>
        <time>2021-07-24 11:57:03</time>
      </trkpt>
      <trkpt lat="42.79691" lon="-2.44613">
        <ele>753</ele>
        <time>2021-07-24 11:57:07</time>
      </trkpt>
      <trkpt lat="42.79698" lon="-2.44613">
        <ele>754.4</ele>
        <time>2021-07-24 11:57:11</time>
      </trkpt>
      <trkpt lat="42.79704" lon="-2.44615">
        <ele>754.2</ele>
        <time>2021-07-24 11:57:15</time>
      </trkpt>
      <trkpt lat="42.79709" lon="-2.44615">
        <ele>755.4</ele>
        <time>2021-07-24 11:57:19</time>
      </trkpt>
      <trkpt lat="42.79714" lon="-2.44616">
        <ele>755.8</ele>
        <time>2021-07-24 11:57:23</time>
      </trkpt>
      <trkpt lat="42.79719" lon="-2.44617">
        <ele>756.6</ele>
        <time>2021-07-24 11:57:27</time>
      </trkpt>
      <trkpt lat="42.79725" lon="-2.4462">
        <ele>756.2</ele>
        <time>2021-07-24 11:57:31</time>
      </trkpt>
      <trkpt lat="42.79731" lon="-2.44627">
        <ele>756</ele>
        <time>2021-07-24 11:57:35</time>
      </trkpt>
      <trkpt lat="42.79736" lon="-2.44638">
        <ele>756.2</ele>
        <time>2021-07-24 11:57:39</time>
      </trkpt>
      <trkpt lat="42.79739" lon="-2.44651">
        <ele>756.2</ele>
        <time>2021-07-24 11:57:43</time>
      </trkpt>
      <trkpt lat="42.79742" lon="-2.44661">
        <ele>757.2</ele>
        <time>2021-07-24 11:57:47</time>
      </trkpt>
      <trkpt lat="42.79746" lon="-2.44657">
        <ele>757</ele>
        <time>2021-07-24 11:57:51</time>
      </trkpt>
      <trkpt lat="42.79747" lon="-2.44649">
        <ele>758.2</ele>
        <time>2021-07-24 11:57:55</time>
      </trkpt>
      <trkpt lat="42.79749" lon="-2.44641">
        <ele>758.2</ele>
        <time>2021-07-24 11:57:59</time>
      </trkpt>
      <trkpt lat="42.7975" lon="-2.44633">
        <ele>759.2</ele>
        <time>2021-07-24 11:58:03</time>
      </trkpt>
      <trkpt lat="42.79753" lon="-2.44626">
        <ele>760.2</ele>
        <time>2021-07-24 11:58:07</time>
      </trkpt>
      <trkpt lat="42.79755" lon="-2.44618">
        <ele>760.8</ele>
        <time>2021-07-24 11:58:11</time>
      </trkpt>
      <trkpt lat="42.79756" lon="-2.4461">
        <ele>760.8</ele>
        <time>2021-07-24 11:58:15</time>
      </trkpt>
      <trkpt lat="42.79758" lon="-2.44603">
        <ele>761.8</ele>
        <time>2021-07-24 11:58:19</time>
      </trkpt>
      <trkpt lat="42.7976" lon="-2.44594">
        <ele>762.6</ele>
        <time>2021-07-24 11:58:23</time>
      </trkpt>
      <trkpt lat="42.79762" lon="-2.44585">
        <ele>763.8</ele>
        <time>2021-07-24 11:58:27</time>
      </trkpt>
      <trkpt lat="42.79764" lon="-2.44577">
        <ele>764.4</ele>
        <time>2021-07-24 11:58:31</time>
      </trkpt>
      <trkpt lat="42.79766" lon="-2.44569">
        <ele>764.4</ele>
        <time>2021-07-24 11:58:35</time>
      </trkpt>
      <trkpt lat="42.79767" lon="-2.44561">
        <ele>766.2</ele>
        <time>2021-07-24 11:58:39</time>
      </trkpt>
      <trkpt lat="42.79767" lon="-2.44554">
        <ele>766.4</ele>
        <time>2021-07-24 11:58:43</time>
      </trkpt>
      <trkpt lat="42.79765" lon="-2.44546">
        <ele>766.2</ele>
        <time>2021-07-24 11:58:47</time>
      </trkpt>
      <trkpt lat="42.79765" lon="-2.44546">
        <ele>767.8</ele>
        <time>2021-07-24 11:58:51</time>
      </trkpt>
      <trkpt lat="42.79764" lon="-2.44543">
        <ele>768</ele>
        <time>2021-07-24 11:58:55</time>
      </trkpt>
      <trkpt lat="42.79763" lon="-2.4454">
        <ele>768.2</ele>
        <time>2021-07-24 11:58:59</time>
      </trkpt>
      <trkpt lat="42.79763" lon="-2.4454">
        <ele>768.2</ele>
        <time>2021-07-24 11:59:03</time>
      </trkpt>
      <trkpt lat="42.79763" lon="-2.4454">
        <ele>768.2</ele>
        <time>2021-07-24 11:59:07</time>
      </trkpt>
      <trkpt lat="42.79763" lon="-2.4454">
        <ele>768.4</ele>
        <time>2021-07-24 11:59:11</time>
      </trkpt>
      <trkpt lat="42.79763" lon="-2.4454">
        <ele>768.2</ele>
        <time>2021-07-24 11:59:15</time>
      </trkpt>
      <trkpt lat="42.79763" lon="-2.4454">
        <ele>768.4</ele>
        <time>2021-07-24 11:59:19</time>
      </trkpt>
      <trkpt lat="42.79763" lon="-2.4454">
        <ele>768.4</ele>
        <time>2021-07-24 11:59:23</time>
      </trkpt>
      <trkpt lat="42.79763" lon="-2.4454">
        <ele>768.4</ele>
        <time>2021-07-24 11:59:27</time>
      </trkpt>
      <trkpt lat="42.79763" lon="-2.4454">
        <ele>768.2</ele>
        <time>2021-07-24 11:59:31</time>
      </trkpt>
      <trkpt lat="42.79763" lon="-2.4454">
        <ele>768.4</ele>
        <time>2021-07-24 11:59:35</time>
      </trkpt>
      <trkpt lat="42.79763" lon="-2.4454">
        <ele>768.6</ele>
        <time>2021-07-24 11:59:39</time>
      </trkpt>
      <trkpt lat="42.79763" lon="-2.4454">
        <ele>768.2</ele>
        <time>2021-07-24 11:59:43</time>
      </trkpt>
      <trkpt lat="42.79763" lon="-2.4454">
        <ele>768.4</ele>
        <time>2021-07-24 11:59:47</time>
      </trkpt>
      <trkpt lat="42.79763" lon="-2.4454">
        <ele>768.2</ele>
        <time>2021-07-24 11:59:51</time>
      </trkpt>
      <trkpt lat="42.79763" lon="-2.4454">
        <ele>768.4</ele>
        <time>2021-07-24 11:59:55</time>
      </trkpt>
      <trkpt lat="42.79763" lon="-2.4454">
        <ele>768.2</ele>
        <time>2021-07-24 11:59:59</time>
      </trkpt>
      <trkpt lat="42.79763" lon="-2.4454">
        <ele>768.2</ele>
        <time>2021-07-24 12:00:03</time>
      </trkpt>
      <trkpt lat="42.79763" lon="-2.4454">
        <ele>768.2</ele>
        <time>2021-07-24 12:00:07</time>
      </trkpt>
      <trkpt lat="42.79763" lon="-2.4454">
        <ele>768.2</ele>
        <time>2021-07-24 12:00:11</time>
      </trkpt>
      <trkpt lat="42.79763" lon="-2.4454">
        <ele>768</ele>
        <time>2021-07-24 12:00:15</time>
      </trkpt>
      <trkpt lat="42.79763" lon="-2.4454">
        <ele>768.2</ele>
        <time>2021-07-24 12:00:19</time>
      </trkpt>
      <trkpt lat="42.79763" lon="-2.4454">
        <ele>768.4</ele>
        <time>2021-07-24 12:00:23</time>
      </trkpt>
      <trkpt lat="42.79763" lon="-2.4454">
        <ele>768.2</ele>
        <time>2021-07-24 12:00:27</time>
      </trkpt>
      <trkpt lat="42.79763" lon="-2.4454">
        <ele>768.2</ele>
        <time>2021-07-24 12:00:31</time>
      </trkpt>
      <trkpt lat="42.79763" lon="-2.4454">
        <ele>768.2</ele>
        <time>2021-07-24 12:00:35</time>
      </trkpt>
      <trkpt lat="42.79763" lon="-2.4454">
        <ele>767.8</ele>
        <time>2021-07-24 12:00:39</time>
      </trkpt>
      <trkpt lat="42.79763" lon="-2.4454">
        <ele>767.8</ele>
        <time>2021-07-24 12:00:43</time>
      </trkpt>
      <trkpt lat="42.79763" lon="-2.4454">
        <ele>768.4</ele>
        <time>2021-07-24 12:00:47</time>
      </trkpt>
      <trkpt lat="42.79763" lon="-2.4454">
        <ele>768.2</ele>
        <time>2021-07-24 12:00:51</time>
      </trkpt>
      <trkpt lat="42.79763" lon="-2.4454">
        <ele>768.2</ele>
        <time>2021-07-24 12:00:55</time>
      </trkpt>
      <trkpt lat="42.79763" lon="-2.4454">
        <ele>768.2</ele>
        <time>2021-07-24 12:00:59</time>
      </trkpt>
      <trkpt lat="42.79763" lon="-2.4454">
        <ele>767.8</ele>
        <time>2021-07-24 12:01:03</time>
      </trkpt>
      <trkpt lat="42.79763" lon="-2.4454">
        <ele>767.8</ele>
        <time>2021-07-24 12:01:07</time>
      </trkpt>
      <trkpt lat="42.79763" lon="-2.4454">
        <ele>768.2</ele>
        <time>2021-07-24 12:01:11</time>
      </trkpt>
      <trkpt lat="42.79763" lon="-2.4454">
        <ele>767.8</ele>
        <time>2021-07-24 12:01:15</time>
      </trkpt>
      <trkpt lat="42.79763" lon="-2.4454">
        <ele>768</ele>
        <time>2021-07-24 12:01:19</time>
      </trkpt>
      <trkpt lat="42.79763" lon="-2.4454">
        <ele>767.6</ele>
        <time>2021-07-24 12:01:23</time>
      </trkpt>
      <trkpt lat="42.79763" lon="-2.4454">
        <ele>767.6</ele>
        <time>2021-07-24 12:01:27</time>
      </trkpt>
      <trkpt lat="42.79763" lon="-2.4454">
        <ele>767.8</ele>
        <time>2021-07-24 12:01:31</time>
      </trkpt>
      <trkpt lat="42.79763" lon="-2.4454">
        <ele>767.4</ele>
        <time>2021-07-24 12:01:35</time>
      </trkpt>
      <trkpt lat="42.79763" lon="-2.4454">
        <ele>767.8</ele>
        <time>2021-07-24 12:01:39</time>
      </trkpt>
      <trkpt lat="42.79763" lon="-2.4454">
        <ele>768</ele>
        <time>2021-07-24 12:01:43</time>
      </trkpt>
      <trkpt lat="42.79763" lon="-2.4454">
        <ele>767.8</ele>
        <time>2021-07-24 12:01:47</time>
      </trkpt>
      <trkpt lat="42.79763" lon="-2.4454">
        <ele>767.8</ele>
        <time>2021-07-24 12:01:51</time>
      </trkpt>
      <trkpt lat="42.79763" lon="-2.4454">
        <ele>767.8</ele>
        <time>2021-07-24 12:01:55</time>
      </trkpt>
      <trkpt lat="42.79763" lon="-2.4454">
        <ele>767.8</ele>
        <time>2021-07-24 12:01:59</time>
      </trkpt>
      <trkpt lat="42.79763" lon="-2.4454">
        <ele>767.6</ele>
        <time>2021-07-24 12:02:03</time>
      </trkpt>
      <trkpt lat="42.79763" lon="-2.4454">
        <ele>768</ele>
        <time>2021-07-24 12:02:07</time>
      </trkpt>
      <trkpt lat="42.79763" lon="-2.4454">
        <ele>767.6</ele>
        <time>2021-07-24 12:02:11</time>
      </trkpt>
      <trkpt lat="42.79763" lon="-2.4454">
        <ele>767.6</ele>
        <time>2021-07-24 12:02:15</time>
      </trkpt>
      <trkpt lat="42.79766" lon="-2.44541">
        <ele>767.6</ele>
        <time>2021-07-24 12:02:19</time>
      </trkpt>
      <trkpt lat="42.79766" lon="-2.44541">
        <ele>767.6</ele>
        <time>2021-07-24 12:02:23</time>
      </trkpt>
      <trkpt lat="42.79767" lon="-2.44536">
        <ele>768</ele>
        <time>2021-07-24 12:02:27</time>
      </trkpt>
      <trkpt lat="42.79765" lon="-2.44529">
        <ele>768.6</ele>
        <time>2021-07-24 12:02:31</time>
      </trkpt>
      <trkpt lat="42.79765" lon="-2.44523">
        <ele>769.6</ele>
        <time>2021-07-24 12:02:35</time>
      </trkpt>
      <trkpt lat="42.79764" lon="-2.44515">
        <ele>770</ele>
        <time>2021-07-24 12:02:39</time>
      </trkpt>
      <trkpt lat="42.79762" lon="-2.44508">
        <ele>770.8</ele>
        <time>2021-07-24 12:02:43</time>
      </trkpt>
      <trkpt lat="42.79758" lon="-2.44503">
        <ele>771.8</ele>
        <time>2021-07-24 12:02:47</time>
      </trkpt>
      <trkpt lat="42.79752" lon="-2.44498">
        <ele>772.8</ele>
        <time>2021-07-24 12:02:51</time>
      </trkpt>
      <trkpt lat="42.79748" lon="-2.44497">
        <ele>773.8</ele>
        <time>2021-07-24 12:02:55</time>
      </trkpt>
      <trkpt lat="42.79741" lon="-2.44496">
        <ele>774.8</ele>
        <time>2021-07-24 12:02:59</time>
      </trkpt>
      <trkpt lat="42.79735" lon="-2.44497">
        <ele>775.8</ele>
        <time>2021-07-24 12:03:03</time>
      </trkpt>
      <trkpt lat="42.7973" lon="-2.44498">
        <ele>776.4</ele>
        <time>2021-07-24 12:03:07</time>
      </trkpt>
      <trkpt lat="42.79725" lon="-2.44499">
        <ele>777.6</ele>
        <time>2021-07-24 12:03:11</time>
      </trkpt>
      <trkpt lat="42.7972" lon="-2.44501">
        <ele>778.2</ele>
        <time>2021-07-24 12:03:15</time>
      </trkpt>
      <trkpt lat="42.79717" lon="-2.44502">
        <ele>778.8</ele>
        <time>2021-07-24 12:03:19</time>
      </trkpt>
      <trkpt lat="42.79717" lon="-2.44502">
        <ele>779</ele>
        <time>2021-07-24 12:03:23</time>
      </trkpt>
      <trkpt lat="42.79717" lon="-2.44502">
        <ele>778.8</ele>
        <time>2021-07-24 12:03:27</time>
      </trkpt>
      <trkpt lat="42.79717" lon="-2.44502">
        <ele>778.6</ele>
        <time>2021-07-24 12:03:31</time>
      </trkpt>
      <trkpt lat="42.79717" lon="-2.44502">
        <ele>778.6</ele>
        <time>2021-07-24 12:03:35</time>
      </trkpt>
      <trkpt lat="42.79717" lon="-2.44502">
        <ele>778.4</ele>
        <time>2021-07-24 12:03:39</time>
      </trkpt>
      <trkpt lat="42.79717" lon="-2.44502">
        <ele>778.6</ele>
        <time>2021-07-24 12:03:43</time>
      </trkpt>
      <trkpt lat="42.79717" lon="-2.44502">
        <ele>778.6</ele>
        <time>2021-07-24 12:03:47</time>
      </trkpt>
      <trkpt lat="42.79717" lon="-2.44502">
        <ele>778</ele>
        <time>2021-07-24 12:03:51</time>
      </trkpt>
      <trkpt lat="42.79717" lon="-2.44502">
        <ele>778.2</ele>
        <time>2021-07-24 12:03:55</time>
      </trkpt>
      <trkpt lat="42.79717" lon="-2.44502">
        <ele>778.2</ele>
        <time>2021-07-24 12:03:59</time>
      </trkpt>
      <trkpt lat="42.79717" lon="-2.44502">
        <ele>778</ele>
        <time>2021-07-24 12:04:03</time>
      </trkpt>
      <trkpt lat="42.79717" lon="-2.44502">
        <ele>778.4</ele>
        <time>2021-07-24 12:04:07</time>
      </trkpt>
      <trkpt lat="42.79717" lon="-2.44502">
        <ele>778</ele>
        <time>2021-07-24 12:04:11</time>
      </trkpt>
      <trkpt lat="42.79717" lon="-2.44502">
        <ele>778.4</ele>
        <time>2021-07-24 12:04:15</time>
      </trkpt>
      <trkpt lat="42.79711" lon="-2.44499">
        <ele>778.8</ele>
        <time>2021-07-24 12:04:19</time>
      </trkpt>
      <trkpt lat="42.79711" lon="-2.44495">
        <ele>779.4</ele>
        <time>2021-07-24 12:04:23</time>
      </trkpt>
      <trkpt lat="42.7971" lon="-2.44492">
        <ele>779.6</ele>
        <time>2021-07-24 12:04:27</time>
      </trkpt>
      <trkpt lat="42.79706" lon="-2.44484">
        <ele>780.2</ele>
        <time>2021-07-24 12:04:31</time>
      </trkpt>
      <trkpt lat="42.79704" lon="-2.44478">
        <ele>781.2</ele>
        <time>2021-07-24 12:04:35</time>
      </trkpt>
      <trkpt lat="42.79703" lon="-2.44473">
        <ele>782.6</ele>
        <time>2021-07-24 12:04:39</time>
      </trkpt>
      <trkpt lat="42.79702" lon="-2.44469">
        <ele>783.6</ele>
        <time>2021-07-24 12:04:43</time>
      </trkpt>
      <trkpt lat="42.79702" lon="-2.44464">
        <ele>784.4</ele>
        <time>2021-07-24 12:04:47</time>
      </trkpt>
      <trkpt lat="42.797" lon="-2.44458">
        <ele>785.2</ele>
        <time>2021-07-24 12:04:51</time>
      </trkpt>
      <trkpt lat="42.79698" lon="-2.44451">
        <ele>785</ele>
        <time>2021-07-24 12:04:55</time>
      </trkpt>
      <trkpt lat="42.79697" lon="-2.44445">
        <ele>786.4</ele>
        <time>2021-07-24 12:04:59</time>
      </trkpt>
      <trkpt lat="42.79696" lon="-2.44441">
        <ele>787</ele>
        <time>2021-07-24 12:05:03</time>
      </trkpt>
      <trkpt lat="42.79696" lon="-2.44441">
        <ele>788.2</ele>
        <time>2021-07-24 12:05:07</time>
      </trkpt>
      <trkpt lat="42.79696" lon="-2.44441">
        <ele>788.6</ele>
        <time>2021-07-24 12:05:11</time>
      </trkpt>
      <trkpt lat="42.79696" lon="-2.44441">
        <ele>788.6</ele>
        <time>2021-07-24 12:05:15</time>
      </trkpt>
      <trkpt lat="42.79696" lon="-2.44441">
        <ele>789.2</ele>
        <time>2021-07-24 12:05:19</time>
      </trkpt>
      <trkpt lat="42.79696" lon="-2.44441">
        <ele>789.2</ele>
        <time>2021-07-24 12:05:23</time>
      </trkpt>
      <trkpt lat="42.79696" lon="-2.44441">
        <ele>790.4</ele>
        <time>2021-07-24 12:05:27</time>
      </trkpt>
      <trkpt lat="42.79686" lon="-2.44426">
        <ele>790.4</ele>
        <time>2021-07-24 12:05:31</time>
      </trkpt>
      <trkpt lat="42.79684" lon="-2.44425">
        <ele>790.8</ele>
        <time>2021-07-24 12:05:35</time>
      </trkpt>
      <trkpt lat="42.79684" lon="-2.44425">
        <ele>791.6</ele>
        <time>2021-07-24 12:05:39</time>
      </trkpt>
      <trkpt lat="42.79684" lon="-2.44425">
        <ele>791.6</ele>
        <time>2021-07-24 12:05:43</time>
      </trkpt>
      <trkpt lat="42.79684" lon="-2.44425">
        <ele>792.4</ele>
        <time>2021-07-24 12:05:47</time>
      </trkpt>
      <trkpt lat="42.79684" lon="-2.44425">
        <ele>793</ele>
        <time>2021-07-24 12:05:51</time>
      </trkpt>
      <trkpt lat="42.79684" lon="-2.44425">
        <ele>793</ele>
        <time>2021-07-24 12:05:55</time>
      </trkpt>
      <trkpt lat="42.79684" lon="-2.44425">
        <ele>792.8</ele>
        <time>2021-07-24 12:05:59</time>
      </trkpt>
      <trkpt lat="42.79684" lon="-2.44425">
        <ele>793</ele>
        <time>2021-07-24 12:06:03</time>
      </trkpt>
      <trkpt lat="42.79684" lon="-2.44425">
        <ele>793</ele>
        <time>2021-07-24 12:06:07</time>
      </trkpt>
      <trkpt lat="42.79684" lon="-2.44425">
        <ele>793.4</ele>
        <time>2021-07-24 12:06:11</time>
      </trkpt>
      <trkpt lat="42.79684" lon="-2.44425">
        <ele>793.4</ele>
        <time>2021-07-24 12:06:15</time>
      </trkpt>
      <trkpt lat="42.79684" lon="-2.44425">
        <ele>793.6</ele>
        <time>2021-07-24 12:06:19</time>
      </trkpt>
      <trkpt lat="42.79684" lon="-2.44425">
        <ele>793.8</ele>
        <time>2021-07-24 12:06:23</time>
      </trkpt>
      <trkpt lat="42.79671" lon="-2.44416">
        <ele>794.6</ele>
        <time>2021-07-24 12:06:27</time>
      </trkpt>
      <trkpt lat="42.79664" lon="-2.44417">
        <ele>795</ele>
        <time>2021-07-24 12:06:31</time>
      </trkpt>
      <trkpt lat="42.79661" lon="-2.44417">
        <ele>795.6</ele>
        <time>2021-07-24 12:06:35</time>
      </trkpt>
      <trkpt lat="42.79656" lon="-2.44416">
        <ele>796.4</ele>
        <time>2021-07-24 12:06:39</time>
      </trkpt>
      <trkpt lat="42.79653" lon="-2.44417">
        <ele>797.2</ele>
        <time>2021-07-24 12:06:43</time>
      </trkpt>
      <trkpt lat="42.7965" lon="-2.44419">
        <ele>797.4</ele>
        <time>2021-07-24 12:06:47</time>
      </trkpt>
      <trkpt lat="42.79645" lon="-2.4442">
        <ele>797.8</ele>
        <time>2021-07-24 12:06:51</time>
      </trkpt>
      <trkpt lat="42.7964" lon="-2.4442">
        <ele>798.6</ele>
        <time>2021-07-24 12:06:55</time>
      </trkpt>
      <trkpt lat="42.7964" lon="-2.4442">
        <ele>799.4</ele>
        <time>2021-07-24 12:06:59</time>
      </trkpt>
      <trkpt lat="42.7964" lon="-2.4442">
        <ele>799.4</ele>
        <time>2021-07-24 12:07:03</time>
      </trkpt>
      <trkpt lat="42.79636" lon="-2.44418">
        <ele>799.6</ele>
        <time>2021-07-24 12:07:07</time>
      </trkpt>
      <trkpt lat="42.79632" lon="-2.44422">
        <ele>800.2</ele>
        <time>2021-07-24 12:07:11</time>
      </trkpt>
      <trkpt lat="42.79632" lon="-2.44422">
        <ele>800</ele>
        <time>2021-07-24 12:07:15</time>
      </trkpt>
      <trkpt lat="42.79631" lon="-2.44423">
        <ele>800.2</ele>
        <time>2021-07-24 12:07:19</time>
      </trkpt>
      <trkpt lat="42.79626" lon="-2.44425">
        <ele>801</ele>
        <time>2021-07-24 12:07:23</time>
      </trkpt>
      <trkpt lat="42.79622" lon="-2.44428">
        <ele>800.8</ele>
        <time>2021-07-24 12:07:27</time>
      </trkpt>
      <trkpt lat="42.79616" lon="-2.44432">
        <ele>801.6</ele>
        <time>2021-07-24 12:07:31</time>
      </trkpt>
      <trkpt lat="42.79611" lon="-2.44434">
        <ele>803.2</ele>
        <time>2021-07-24 12:07:35</time>
      </trkpt>
      <trkpt lat="42.79607" lon="-2.44436">
        <ele>803.8</ele>
        <time>2021-07-24 12:07:39</time>
      </trkpt>
      <trkpt lat="42.796" lon="-2.44436">
        <ele>805</ele>
        <time>2021-07-24 12:07:43</time>
      </trkpt>
      <trkpt lat="42.79594" lon="-2.44437">
        <ele>805.8</ele>
        <time>2021-07-24 12:07:47</time>
      </trkpt>
      <trkpt lat="42.79588" lon="-2.44437">
        <ele>805.8</ele>
        <time>2021-07-24 12:07:51</time>
      </trkpt>
      <trkpt lat="42.79583" lon="-2.44436">
        <ele>807.4</ele>
        <time>2021-07-24 12:07:55</time>
      </trkpt>
      <trkpt lat="42.79578" lon="-2.44435">
        <ele>808.6</ele>
        <time>2021-07-24 12:07:59</time>
      </trkpt>
      <trkpt lat="42.79573" lon="-2.44436">
        <ele>808.6</ele>
        <time>2021-07-24 12:08:03</time>
      </trkpt>
      <trkpt lat="42.79568" lon="-2.44436">
        <ele>809.4</ele>
        <time>2021-07-24 12:08:07</time>
      </trkpt>
      <trkpt lat="42.79564" lon="-2.44437">
        <ele>810.6</ele>
        <time>2021-07-24 12:08:11</time>
      </trkpt>
      <trkpt lat="42.79559" lon="-2.44436">
        <ele>810.8</ele>
        <time>2021-07-24 12:08:15</time>
      </trkpt>
      <trkpt lat="42.79555" lon="-2.44436">
        <ele>812</ele>
        <time>2021-07-24 12:08:19</time>
      </trkpt>
      <trkpt lat="42.79551" lon="-2.44436">
        <ele>812.2</ele>
        <time>2021-07-24 12:08:23</time>
      </trkpt>
      <trkpt lat="42.79547" lon="-2.44436">
        <ele>813.2</ele>
        <time>2021-07-24 12:08:27</time>
      </trkpt>
      <trkpt lat="42.79542" lon="-2.44436">
        <ele>813.4</ele>
        <time>2021-07-24 12:08:31</time>
      </trkpt>
      <trkpt lat="42.79537" lon="-2.44434">
        <ele>814.2</ele>
        <time>2021-07-24 12:08:35</time>
      </trkpt>
      <trkpt lat="42.79532" lon="-2.44435">
        <ele>814.2</ele>
        <time>2021-07-24 12:08:39</time>
      </trkpt>
      <trkpt lat="42.79527" lon="-2.44435">
        <ele>815.2</ele>
        <time>2021-07-24 12:08:43</time>
      </trkpt>
      <trkpt lat="42.79523" lon="-2.44434">
        <ele>815.6</ele>
        <time>2021-07-24 12:08:47</time>
      </trkpt>
      <trkpt lat="42.79519" lon="-2.44432">
        <ele>816.6</ele>
        <time>2021-07-24 12:08:51</time>
      </trkpt>
      <trkpt lat="42.79514" lon="-2.4443">
        <ele>817.4</ele>
        <time>2021-07-24 12:08:55</time>
      </trkpt>
      <trkpt lat="42.7951" lon="-2.44429">
        <ele>817.6</ele>
        <time>2021-07-24 12:08:59</time>
      </trkpt>
      <trkpt lat="42.79504" lon="-2.44429">
        <ele>818.6</ele>
        <time>2021-07-24 12:09:03</time>
      </trkpt>
      <trkpt lat="42.795" lon="-2.44429">
        <ele>819.2</ele>
        <time>2021-07-24 12:09:07</time>
      </trkpt>
      <trkpt lat="42.79495" lon="-2.4443">
        <ele>820.2</ele>
        <time>2021-07-24 12:09:11</time>
      </trkpt>
      <trkpt lat="42.79491" lon="-2.44431">
        <ele>820.4</ele>
        <time>2021-07-24 12:09:15</time>
      </trkpt>
      <trkpt lat="42.79489" lon="-2.44431">
        <ele>820.6</ele>
        <time>2021-07-24 12:09:19</time>
      </trkpt>
      <trkpt lat="42.79487" lon="-2.44432">
        <ele>821.6</ele>
        <time>2021-07-24 12:09:23</time>
      </trkpt>
      <trkpt lat="42.79487" lon="-2.44432">
        <ele>822</ele>
        <time>2021-07-24 12:09:27</time>
      </trkpt>
      <trkpt lat="42.79487" lon="-2.44432">
        <ele>822.4</ele>
        <time>2021-07-24 12:09:31</time>
      </trkpt>
      <trkpt lat="42.79487" lon="-2.44432">
        <ele>822.8</ele>
        <time>2021-07-24 12:09:35</time>
      </trkpt>
      <trkpt lat="42.79478" lon="-2.44439">
        <ele>823.4</ele>
        <time>2021-07-24 12:09:39</time>
      </trkpt>
      <trkpt lat="42.79473" lon="-2.44442">
        <ele>823.8</ele>
        <time>2021-07-24 12:09:43</time>
      </trkpt>
      <trkpt lat="42.7947" lon="-2.44445">
        <ele>824.6</ele>
        <time>2021-07-24 12:09:47</time>
      </trkpt>
      <trkpt lat="42.79466" lon="-2.44447">
        <ele>825.6</ele>
        <time>2021-07-24 12:09:51</time>
      </trkpt>
      <trkpt lat="42.79463" lon="-2.44448">
        <ele>826</ele>
        <time>2021-07-24 12:09:55</time>
      </trkpt>
      <trkpt lat="42.79461" lon="-2.44449">
        <ele>826.4</ele>
        <time>2021-07-24 12:09:59</time>
      </trkpt>
      <trkpt lat="42.79459" lon="-2.4445">
        <ele>826.6</ele>
        <time>2021-07-24 12:10:03</time>
      </trkpt>
      <trkpt lat="42.79456" lon="-2.4445">
        <ele>827</ele>
        <time>2021-07-24 12:10:07</time>
      </trkpt>
      <trkpt lat="42.79454" lon="-2.44451">
        <ele>827.4</ele>
        <time>2021-07-24 12:10:11</time>
      </trkpt>
      <trkpt lat="42.79452" lon="-2.44451">
        <ele>827.6</ele>
        <time>2021-07-24 12:10:15</time>
      </trkpt>
      <trkpt lat="42.79452" lon="-2.44451">
        <ele>828.2</ele>
        <time>2021-07-24 12:10:19</time>
      </trkpt>
      <trkpt lat="42.79452" lon="-2.44451">
        <ele>828.8</ele>
        <time>2021-07-24 12:10:23</time>
      </trkpt>
      <trkpt lat="42.79452" lon="-2.44451">
        <ele>829.4</ele>
        <time>2021-07-24 12:10:27</time>
      </trkpt>
      <trkpt lat="42.79452" lon="-2.44451">
        <ele>829.6</ele>
        <time>2021-07-24 12:10:31</time>
      </trkpt>
      <trkpt lat="42.79444" lon="-2.44454">
        <ele>830.2</ele>
        <time>2021-07-24 12:10:35</time>
      </trkpt>
      <trkpt lat="42.79441" lon="-2.44456">
        <ele>831.2</ele>
        <time>2021-07-24 12:10:39</time>
      </trkpt>
      <trkpt lat="42.79441" lon="-2.44456">
        <ele>831.8</ele>
        <time>2021-07-24 12:10:43</time>
      </trkpt>
      <trkpt lat="42.79441" lon="-2.44456">
        <ele>831.8</ele>
        <time>2021-07-24 12:10:47</time>
      </trkpt>
      <trkpt lat="42.79441" lon="-2.44456">
        <ele>831.6</ele>
        <time>2021-07-24 12:10:51</time>
      </trkpt>
      <trkpt lat="42.79441" lon="-2.44456">
        <ele>832</ele>
        <time>2021-07-24 12:10:55</time>
      </trkpt>
      <trkpt lat="42.79441" lon="-2.44456">
        <ele>832.4</ele>
        <time>2021-07-24 12:10:59</time>
      </trkpt>
      <trkpt lat="42.79441" lon="-2.44456">
        <ele>832</ele>
        <time>2021-07-24 12:11:03</time>
      </trkpt>
      <trkpt lat="42.79438" lon="-2.44458">
        <ele>832.4</ele>
        <time>2021-07-24 12:11:07</time>
      </trkpt>
      <trkpt lat="42.79438" lon="-2.44458">
        <ele>832.4</ele>
        <time>2021-07-24 12:11:11</time>
      </trkpt>
      <trkpt lat="42.79438" lon="-2.44458">
        <ele>832.8</ele>
        <time>2021-07-24 12:11:15</time>
      </trkpt>
      <trkpt lat="42.79438" lon="-2.44458">
        <ele>833.2</ele>
        <time>2021-07-24 12:11:19</time>
      </trkpt>
      <trkpt lat="42.79438" lon="-2.44458">
        <ele>833.6</ele>
        <time>2021-07-24 12:11:23</time>
      </trkpt>
      <trkpt lat="42.79438" lon="-2.44458">
        <ele>833.6</ele>
        <time>2021-07-24 12:11:27</time>
      </trkpt>
      <trkpt lat="42.79432" lon="-2.44466">
        <ele>833.2</ele>
        <time>2021-07-24 12:11:31</time>
      </trkpt>
      <trkpt lat="42.79432" lon="-2.44466">
        <ele>833.2</ele>
        <time>2021-07-24 12:11:35</time>
      </trkpt>
      <trkpt lat="42.79432" lon="-2.44466">
        <ele>833.2</ele>
        <time>2021-07-24 12:11:39</time>
      </trkpt>
      <trkpt lat="42.79432" lon="-2.44466">
        <ele>833.2</ele>
        <time>2021-07-24 12:11:43</time>
      </trkpt>
      <trkpt lat="42.79432" lon="-2.44466">
        <ele>833.2</ele>
        <time>2021-07-24 12:11:47</time>
      </trkpt>
      <trkpt lat="42.79432" lon="-2.44466">
        <ele>833.2</ele>
        <time>2021-07-24 12:11:51</time>
      </trkpt>
      <trkpt lat="42.79432" lon="-2.44466">
        <ele>833</ele>
        <time>2021-07-24 12:11:55</time>
      </trkpt>
      <trkpt lat="42.79432" lon="-2.44466">
        <ele>832.8</ele>
        <time>2021-07-24 12:11:59</time>
      </trkpt>
      <trkpt lat="42.79432" lon="-2.44466">
        <ele>833</ele>
        <time>2021-07-24 12:12:03</time>
      </trkpt>
      <trkpt lat="42.79432" lon="-2.44466">
        <ele>833.4</ele>
        <time>2021-07-24 12:12:07</time>
      </trkpt>
      <trkpt lat="42.79432" lon="-2.44466">
        <ele>833.4</ele>
        <time>2021-07-24 12:12:11</time>
      </trkpt>
      <trkpt lat="42.79432" lon="-2.44466">
        <ele>833.8</ele>
        <time>2021-07-24 12:12:15</time>
      </trkpt>
      <trkpt lat="42.79431" lon="-2.44468">
        <ele>833.4</ele>
        <time>2021-07-24 12:12:19</time>
      </trkpt>
      <trkpt lat="42.79429" lon="-2.44472">
        <ele>833</ele>
        <time>2021-07-24 12:12:23</time>
      </trkpt>
      <trkpt lat="42.79429" lon="-2.44474">
        <ele>833.2</ele>
        <time>2021-07-24 12:12:27</time>
      </trkpt>
      <trkpt lat="42.79425" lon="-2.44481">
        <ele>833</ele>
        <time>2021-07-24 12:12:31</time>
      </trkpt>
      <trkpt lat="42.79419" lon="-2.44491">
        <ele>833</ele>
        <time>2021-07-24 12:12:35</time>
      </trkpt>
      <trkpt lat="42.79413" lon="-2.44498">
        <ele>833.2</ele>
        <time>2021-07-24 12:12:39</time>
      </trkpt>
      <trkpt lat="42.79408" lon="-2.445">
        <ele>833.4</ele>
        <time>2021-07-24 12:12:43</time>
      </trkpt>
      <trkpt lat="42.79404" lon="-2.44502">
        <ele>833.4</ele>
        <time>2021-07-24 12:12:47</time>
      </trkpt>
      <trkpt lat="42.79399" lon="-2.44503">
        <ele>833.8</ele>
        <time>2021-07-24 12:12:51</time>
      </trkpt>
      <trkpt lat="42.79393" lon="-2.44506">
        <ele>833.8</ele>
        <time>2021-07-24 12:12:55</time>
      </trkpt>
      <trkpt lat="42.79387" lon="-2.44509">
        <ele>834.4</ele>
        <time>2021-07-24 12:12:59</time>
      </trkpt>
      <trkpt lat="42.7938" lon="-2.44511">
        <ele>834.4</ele>
        <time>2021-07-24 12:13:03</time>
      </trkpt>
      <trkpt lat="42.79374" lon="-2.44512">
        <ele>834.8</ele>
        <time>2021-07-24 12:13:07</time>
      </trkpt>
      <trkpt lat="42.79368" lon="-2.44515">
        <ele>835.2</ele>
        <time>2021-07-24 12:13:11</time>
      </trkpt>
      <trkpt lat="42.79362" lon="-2.44519">
        <ele>835.2</ele>
        <time>2021-07-24 12:13:15</time>
      </trkpt>
      <trkpt lat="42.79356" lon="-2.44521">
        <ele>835.6</ele>
        <time>2021-07-24 12:13:19</time>
      </trkpt>
      <trkpt lat="42.79351" lon="-2.44525">
        <ele>835.8</ele>
        <time>2021-07-24 12:13:23</time>
      </trkpt>
      <trkpt lat="42.79345" lon="-2.44527">
        <ele>836</ele>
        <time>2021-07-24 12:13:27</time>
      </trkpt>
      <trkpt lat="42.79339" lon="-2.44529">
        <ele>836.2</ele>
        <time>2021-07-24 12:13:31</time>
      </trkpt>
      <trkpt lat="42.79332" lon="-2.44533">
        <ele>836.4</ele>
        <time>2021-07-24 12:13:35</time>
      </trkpt>
      <trkpt lat="42.79326" lon="-2.44536">
        <ele>837.4</ele>
        <time>2021-07-24 12:13:39</time>
      </trkpt>
      <trkpt lat="42.7932" lon="-2.44539">
        <ele>837.4</ele>
        <time>2021-07-24 12:13:43</time>
      </trkpt>
      <trkpt lat="42.79314" lon="-2.44542">
        <ele>838.2</ele>
        <time>2021-07-24 12:13:47</time>
      </trkpt>
      <trkpt lat="42.79308" lon="-2.44544">
        <ele>838.4</ele>
        <time>2021-07-24 12:13:51</time>
      </trkpt>
      <trkpt lat="42.79302" lon="-2.44547">
        <ele>838.8</ele>
        <time>2021-07-24 12:13:55</time>
      </trkpt>
      <trkpt lat="42.79296" lon="-2.4455">
        <ele>839.4</ele>
        <time>2021-07-24 12:13:59</time>
      </trkpt>
      <trkpt lat="42.7929" lon="-2.44553">
        <ele>840</ele>
        <time>2021-07-24 12:14:03</time>
      </trkpt>
      <trkpt lat="42.79284" lon="-2.44555">
        <ele>840.4</ele>
        <time>2021-07-24 12:14:07</time>
      </trkpt>
      <trkpt lat="42.79277" lon="-2.44557">
        <ele>841</ele>
        <time>2021-07-24 12:14:11</time>
      </trkpt>
      <trkpt lat="42.79271" lon="-2.44559">
        <ele>842</ele>
        <time>2021-07-24 12:14:15</time>
      </trkpt>
      <trkpt lat="42.79267" lon="-2.4456">
        <ele>842.4</ele>
        <time>2021-07-24 12:14:19</time>
      </trkpt>
      <trkpt lat="42.79266" lon="-2.44564">
        <ele>843.4</ele>
        <time>2021-07-24 12:14:23</time>
      </trkpt>
      <trkpt lat="42.79266" lon="-2.44564">
        <ele>843.2</ele>
        <time>2021-07-24 12:14:27</time>
      </trkpt>
      <trkpt lat="42.79266" lon="-2.44564">
        <ele>843</ele>
        <time>2021-07-24 12:14:31</time>
      </trkpt>
      <trkpt lat="42.79266" lon="-2.44564">
        <ele>843.2</ele>
        <time>2021-07-24 12:14:35</time>
      </trkpt>
      <trkpt lat="42.79266" lon="-2.44564">
        <ele>843.4</ele>
        <time>2021-07-24 12:14:39</time>
      </trkpt>
      <trkpt lat="42.79266" lon="-2.44564">
        <ele>843.6</ele>
        <time>2021-07-24 12:14:43</time>
      </trkpt>
      <trkpt lat="42.79266" lon="-2.44564">
        <ele>843.2</ele>
        <time>2021-07-24 12:14:47</time>
      </trkpt>
      <trkpt lat="42.79266" lon="-2.44564">
        <ele>843.2</ele>
        <time>2021-07-24 12:14:51</time>
      </trkpt>
      <trkpt lat="42.79266" lon="-2.44564">
        <ele>843</ele>
        <time>2021-07-24 12:14:55</time>
      </trkpt>
      <trkpt lat="42.79266" lon="-2.44564">
        <ele>842.8</ele>
        <time>2021-07-24 12:14:59</time>
      </trkpt>
      <trkpt lat="42.79266" lon="-2.44564">
        <ele>842.4</ele>
        <time>2021-07-24 12:15:03</time>
      </trkpt>
      <trkpt lat="42.79266" lon="-2.44564">
        <ele>842.8</ele>
        <time>2021-07-24 12:15:07</time>
      </trkpt>
      <trkpt lat="42.79266" lon="-2.44564">
        <ele>843.2</ele>
        <time>2021-07-24 12:15:11</time>
      </trkpt>
      <trkpt lat="42.79266" lon="-2.44564">
        <ele>843.4</ele>
        <time>2021-07-24 12:15:15</time>
      </trkpt>
      <trkpt lat="42.79266" lon="-2.44564">
        <ele>843.4</ele>
        <time>2021-07-24 12:15:19</time>
      </trkpt>
      <trkpt lat="42.79266" lon="-2.44564">
        <ele>843.2</ele>
        <time>2021-07-24 12:15:23</time>
      </trkpt>
      <trkpt lat="42.79266" lon="-2.44564">
        <ele>843.2</ele>
        <time>2021-07-24 12:15:27</time>
      </trkpt>
      <trkpt lat="42.79266" lon="-2.44564">
        <ele>843</ele>
        <time>2021-07-24 12:15:31</time>
      </trkpt>
      <trkpt lat="42.79266" lon="-2.44564">
        <ele>843.6</ele>
        <time>2021-07-24 12:15:35</time>
      </trkpt>
      <trkpt lat="42.79266" lon="-2.44564">
        <ele>843.2</ele>
        <time>2021-07-24 12:15:39</time>
      </trkpt>
      <trkpt lat="42.79266" lon="-2.44564">
        <ele>843.4</ele>
        <time>2021-07-24 12:15:43</time>
      </trkpt>
      <trkpt lat="42.79266" lon="-2.44564">
        <ele>843.4</ele>
        <time>2021-07-24 12:15:47</time>
      </trkpt>
      <trkpt lat="42.79266" lon="-2.44564">
        <ele>843.2</ele>
        <time>2021-07-24 12:15:51</time>
      </trkpt>
      <trkpt lat="42.79266" lon="-2.44564">
        <ele>843.4</ele>
        <time>2021-07-24 12:15:55</time>
      </trkpt>
      <trkpt lat="42.79266" lon="-2.44564">
        <ele>843.2</ele>
        <time>2021-07-24 12:15:59</time>
      </trkpt>
      <trkpt lat="42.79266" lon="-2.44564">
        <ele>843.2</ele>
        <time>2021-07-24 12:16:03</time>
      </trkpt>
      <trkpt lat="42.79266" lon="-2.44564">
        <ele>843.6</ele>
        <time>2021-07-24 12:16:07</time>
      </trkpt>
      <trkpt lat="42.79266" lon="-2.44564">
        <ele>843.6</ele>
        <time>2021-07-24 12:16:11</time>
      </trkpt>
      <trkpt lat="42.79266" lon="-2.44564">
        <ele>843</ele>
        <time>2021-07-24 12:16:15</time>
      </trkpt>
      <trkpt lat="42.79266" lon="-2.44564">
        <ele>843.6</ele>
        <time>2021-07-24 12:16:19</time>
      </trkpt>
      <trkpt lat="42.79266" lon="-2.44564">
        <ele>843.4</ele>
        <time>2021-07-24 12:16:23</time>
      </trkpt>
      <trkpt lat="42.79266" lon="-2.44564">
        <ele>843.6</ele>
        <time>2021-07-24 12:16:27</time>
      </trkpt>
      <trkpt lat="42.79266" lon="-2.44564">
        <ele>843.6</ele>
        <time>2021-07-24 12:16:31</time>
      </trkpt>
      <trkpt lat="42.79266" lon="-2.44564">
        <ele>843.6</ele>
        <time>2021-07-24 12:16:35</time>
      </trkpt>
      <trkpt lat="42.79266" lon="-2.44564">
        <ele>843.2</ele>
        <time>2021-07-24 12:16:39</time>
      </trkpt>
      <trkpt lat="42.79266" lon="-2.44564">
        <ele>843.6</ele>
        <time>2021-07-24 12:16:43</time>
      </trkpt>
      <trkpt lat="42.79266" lon="-2.44564">
        <ele>844</ele>
        <time>2021-07-24 12:16:47</time>
      </trkpt>
      <trkpt lat="42.79266" lon="-2.44564">
        <ele>843.4</ele>
        <time>2021-07-24 12:16:51</time>
      </trkpt>
      <trkpt lat="42.79266" lon="-2.44564">
        <ele>843.6</ele>
        <time>2021-07-24 12:16:55</time>
      </trkpt>
      <trkpt lat="42.79266" lon="-2.44564">
        <ele>843.8</ele>
        <time>2021-07-24 12:16:59</time>
      </trkpt>
      <trkpt lat="42.79266" lon="-2.44564">
        <ele>843.6</ele>
        <time>2021-07-24 12:17:03</time>
      </trkpt>
      <trkpt lat="42.79266" lon="-2.44564">
        <ele>843.6</ele>
        <time>2021-07-24 12:17:07</time>
      </trkpt>
      <trkpt lat="42.79266" lon="-2.44564">
        <ele>843.8</ele>
        <time>2021-07-24 12:17:11</time>
      </trkpt>
      <trkpt lat="42.79266" lon="-2.44564">
        <ele>844</ele>
        <time>2021-07-24 12:17:15</time>
      </trkpt>
      <trkpt lat="42.79266" lon="-2.44564">
        <ele>843.8</ele>
        <time>2021-07-24 12:17:19</time>
      </trkpt>
      <trkpt lat="42.79266" lon="-2.44564">
        <ele>843.8</ele>
        <time>2021-07-24 12:17:23</time>
      </trkpt>
      <trkpt lat="42.79266" lon="-2.44564">
        <ele>843.8</ele>
        <time>2021-07-24 12:17:27</time>
      </trkpt>
      <trkpt lat="42.79266" lon="-2.44564">
        <ele>844</ele>
        <time>2021-07-24 12:17:31</time>
      </trkpt>
      <trkpt lat="42.79266" lon="-2.44564">
        <ele>844</ele>
        <time>2021-07-24 12:17:35</time>
      </trkpt>
      <trkpt lat="42.79266" lon="-2.44564">
        <ele>843.8</ele>
        <time>2021-07-24 12:17:39</time>
      </trkpt>
      <trkpt lat="42.79266" lon="-2.44564">
        <ele>843.8</ele>
        <time>2021-07-24 12:17:43</time>
      </trkpt>
      <trkpt lat="42.79266" lon="-2.44564">
        <ele>844</ele>
        <time>2021-07-24 12:17:47</time>
      </trkpt>
      <trkpt lat="42.79266" lon="-2.44564">
        <ele>844</ele>
        <time>2021-07-24 12:17:51</time>
      </trkpt>
      <trkpt lat="42.79266" lon="-2.44564">
        <ele>843.8</ele>
        <time>2021-07-24 12:17:55</time>
      </trkpt>
      <trkpt lat="42.79266" lon="-2.44564">
        <ele>843.8</ele>
        <time>2021-07-24 12:17:59</time>
      </trkpt>
      <trkpt lat="42.79266" lon="-2.44564">
        <ele>843.8</ele>
        <time>2021-07-24 12:18:03</time>
      </trkpt>
      <trkpt lat="42.79266" lon="-2.44564">
        <ele>844.2</ele>
        <time>2021-07-24 12:18:07</time>
      </trkpt>
      <trkpt lat="42.79266" lon="-2.44564">
        <ele>844</ele>
        <time>2021-07-24 12:18:11</time>
      </trkpt>
      <trkpt lat="42.79266" lon="-2.44564">
        <ele>844.6</ele>
        <time>2021-07-24 12:18:15</time>
      </trkpt>
      <trkpt lat="42.79266" lon="-2.44564">
        <ele>844.4</ele>
        <time>2021-07-24 12:18:19</time>
      </trkpt>
      <trkpt lat="42.79266" lon="-2.44564">
        <ele>844.4</ele>
        <time>2021-07-24 12:18:23</time>
      </trkpt>
      <trkpt lat="42.79266" lon="-2.44564">
        <ele>844.6</ele>
        <time>2021-07-24 12:18:27</time>
      </trkpt>
      <trkpt lat="42.79266" lon="-2.44564">
        <ele>844.2</ele>
        <time>2021-07-24 12:18:31</time>
      </trkpt>
      <trkpt lat="42.79266" lon="-2.44564">
        <ele>844.2</ele>
        <time>2021-07-24 12:18:35</time>
      </trkpt>
      <trkpt lat="42.79266" lon="-2.44564">
        <ele>844.2</ele>
        <time>2021-07-24 12:18:39</time>
      </trkpt>
      <trkpt lat="42.79266" lon="-2.44564">
        <ele>844.6</ele>
        <time>2021-07-24 12:18:43</time>
      </trkpt>
      <trkpt lat="42.79266" lon="-2.44564">
        <ele>844.2</ele>
        <time>2021-07-24 12:18:47</time>
      </trkpt>
      <trkpt lat="42.79266" lon="-2.44564">
        <ele>844</ele>
        <time>2021-07-24 12:18:51</time>
      </trkpt>
      <trkpt lat="42.79266" lon="-2.44564">
        <ele>844.2</ele>
        <time>2021-07-24 12:18:55</time>
      </trkpt>
      <trkpt lat="42.79266" lon="-2.44564">
        <ele>844.2</ele>
        <time>2021-07-24 12:18:59</time>
      </trkpt>
      <trkpt lat="42.79266" lon="-2.44564">
        <ele>844.8</ele>
        <time>2021-07-24 12:19:03</time>
      </trkpt>
      <trkpt lat="42.79266" lon="-2.44564">
        <ele>844.6</ele>
        <time>2021-07-24 12:19:07</time>
      </trkpt>
      <trkpt lat="42.79266" lon="-2.44564">
        <ele>844.4</ele>
        <time>2021-07-24 12:19:11</time>
      </trkpt>
      <trkpt lat="42.79266" lon="-2.44564">
        <ele>844</ele>
        <time>2021-07-24 12:19:15</time>
      </trkpt>
      <trkpt lat="42.79266" lon="-2.44564">
        <ele>844.6</ele>
        <time>2021-07-24 12:19:19</time>
      </trkpt>
      <trkpt lat="42.79266" lon="-2.44564">
        <ele>845.2</ele>
        <time>2021-07-24 12:19:23</time>
      </trkpt>
      <trkpt lat="42.79266" lon="-2.44564">
        <ele>844.8</ele>
        <time>2021-07-24 12:19:27</time>
      </trkpt>
      <trkpt lat="42.79266" lon="-2.44564">
        <ele>844.8</ele>
        <time>2021-07-24 12:19:31</time>
      </trkpt>
      <trkpt lat="42.79266" lon="-2.44564">
        <ele>844.8</ele>
        <time>2021-07-24 12:19:35</time>
      </trkpt>
      <trkpt lat="42.79266" lon="-2.44564">
        <ele>844.6</ele>
        <time>2021-07-24 12:19:39</time>
      </trkpt>
      <trkpt lat="42.79266" lon="-2.44564">
        <ele>845</ele>
        <time>2021-07-24 12:19:43</time>
      </trkpt>
      <trkpt lat="42.79266" lon="-2.44564">
        <ele>845</ele>
        <time>2021-07-24 12:19:47</time>
      </trkpt>
      <trkpt lat="42.79266" lon="-2.44564">
        <ele>844.8</ele>
        <time>2021-07-24 12:19:51</time>
      </trkpt>
      <trkpt lat="42.79266" lon="-2.44564">
        <ele>844.8</ele>
        <time>2021-07-24 12:19:55</time>
      </trkpt>
      <trkpt lat="42.79266" lon="-2.44564">
        <ele>845</ele>
        <time>2021-07-24 12:19:59</time>
      </trkpt>
      <trkpt lat="42.79266" lon="-2.44564">
        <ele>844.8</ele>
        <time>2021-07-24 12:20:03</time>
      </trkpt>
      <trkpt lat="42.79266" lon="-2.44564">
        <ele>844.6</ele>
        <time>2021-07-24 12:20:07</time>
      </trkpt>
      <trkpt lat="42.79266" lon="-2.44564">
        <ele>844.6</ele>
        <time>2021-07-24 12:20:11</time>
      </trkpt>
      <trkpt lat="42.79266" lon="-2.44564">
        <ele>844.6</ele>
        <time>2021-07-24 12:20:15</time>
      </trkpt>
      <trkpt lat="42.79266" lon="-2.44564">
        <ele>844.6</ele>
        <time>2021-07-24 12:20:19</time>
      </trkpt>
      <trkpt lat="42.79266" lon="-2.44564">
        <ele>845.2</ele>
        <time>2021-07-24 12:20:23</time>
      </trkpt>
      <trkpt lat="42.79266" lon="-2.44564">
        <ele>844.6</ele>
        <time>2021-07-24 12:20:27</time>
      </trkpt>
      <trkpt lat="42.79266" lon="-2.44564">
        <ele>844.6</ele>
        <time>2021-07-24 12:20:31</time>
      </trkpt>
      <trkpt lat="42.79266" lon="-2.44564">
        <ele>844.4</ele>
        <time>2021-07-24 12:20:35</time>
      </trkpt>
      <trkpt lat="42.79266" lon="-2.44564">
        <ele>844.8</ele>
        <time>2021-07-24 12:20:39</time>
      </trkpt>
      <trkpt lat="42.79266" lon="-2.44564">
        <ele>844.8</ele>
        <time>2021-07-24 12:20:43</time>
      </trkpt>
      <trkpt lat="42.79266" lon="-2.44564">
        <ele>844.8</ele>
        <time>2021-07-24 12:20:47</time>
      </trkpt>
      <trkpt lat="42.79266" lon="-2.44564">
        <ele>844.8</ele>
        <time>2021-07-24 12:20:51</time>
      </trkpt>
      <trkpt lat="42.79266" lon="-2.44564">
        <ele>845</ele>
        <time>2021-07-24 12:20:55</time>
      </trkpt>
      <trkpt lat="42.79266" lon="-2.44564">
        <ele>844.6</ele>
        <time>2021-07-24 12:20:59</time>
      </trkpt>
      <trkpt lat="42.79266" lon="-2.44564">
        <ele>844.8</ele>
        <time>2021-07-24 12:21:03</time>
      </trkpt>
      <trkpt lat="42.79266" lon="-2.44564">
        <ele>845</ele>
        <time>2021-07-24 12:21:07</time>
      </trkpt>
      <trkpt lat="42.79266" lon="-2.44564">
        <ele>844.8</ele>
        <time>2021-07-24 12:21:11</time>
      </trkpt>
      <trkpt lat="42.79266" lon="-2.44564">
        <ele>844.8</ele>
        <time>2021-07-24 12:21:15</time>
      </trkpt>
      <trkpt lat="42.79266" lon="-2.44564">
        <ele>845.2</ele>
        <time>2021-07-24 12:21:19</time>
      </trkpt>
      <trkpt lat="42.79266" lon="-2.44564">
        <ele>845</ele>
        <time>2021-07-24 12:21:23</time>
      </trkpt>
      <trkpt lat="42.79266" lon="-2.44564">
        <ele>844.8</ele>
        <time>2021-07-24 12:21:27</time>
      </trkpt>
      <trkpt lat="42.79266" lon="-2.44564">
        <ele>845</ele>
        <time>2021-07-24 12:21:31</time>
      </trkpt>
      <trkpt lat="42.79266" lon="-2.44564">
        <ele>845.4</ele>
        <time>2021-07-24 12:21:35</time>
      </trkpt>
      <trkpt lat="42.79266" lon="-2.44564">
        <ele>845</ele>
        <time>2021-07-24 12:21:39</time>
      </trkpt>
      <trkpt lat="42.79266" lon="-2.44564">
        <ele>845</ele>
        <time>2021-07-24 12:21:43</time>
      </trkpt>
      <trkpt lat="42.79266" lon="-2.44564">
        <ele>845.2</ele>
        <time>2021-07-24 12:21:47</time>
      </trkpt>
      <trkpt lat="42.79266" lon="-2.44564">
        <ele>844.8</ele>
        <time>2021-07-24 12:21:51</time>
      </trkpt>
      <trkpt lat="42.79266" lon="-2.44564">
        <ele>844.8</ele>
        <time>2021-07-24 12:21:55</time>
      </trkpt>
      <trkpt lat="42.79266" lon="-2.44564">
        <ele>845</ele>
        <time>2021-07-24 12:21:59</time>
      </trkpt>
      <trkpt lat="42.79266" lon="-2.44564">
        <ele>845.2</ele>
        <time>2021-07-24 12:22:03</time>
      </trkpt>
      <trkpt lat="42.79266" lon="-2.44564">
        <ele>844.8</ele>
        <time>2021-07-24 12:22:07</time>
      </trkpt>
      <trkpt lat="42.79266" lon="-2.44564">
        <ele>844.8</ele>
        <time>2021-07-24 12:22:11</time>
      </trkpt>
      <trkpt lat="42.79266" lon="-2.44564">
        <ele>845.4</ele>
        <time>2021-07-24 12:22:15</time>
      </trkpt>
      <trkpt lat="42.79266" lon="-2.44564">
        <ele>845</ele>
        <time>2021-07-24 12:22:19</time>
      </trkpt>
      <trkpt lat="42.79266" lon="-2.44564">
        <ele>845</ele>
        <time>2021-07-24 12:22:23</time>
      </trkpt>
      <trkpt lat="42.79266" lon="-2.44564">
        <ele>845.2</ele>
        <time>2021-07-24 12:22:27</time>
      </trkpt>
      <trkpt lat="42.79266" lon="-2.44564">
        <ele>844.8</ele>
        <time>2021-07-24 12:22:31</time>
      </trkpt>
      <trkpt lat="42.79266" lon="-2.44564">
        <ele>845</ele>
        <time>2021-07-24 12:22:35</time>
      </trkpt>
      <trkpt lat="42.79266" lon="-2.44564">
        <ele>845</ele>
        <time>2021-07-24 12:22:39</time>
      </trkpt>
      <trkpt lat="42.79266" lon="-2.44564">
        <ele>844.8</ele>
        <time>2021-07-24 12:22:43</time>
      </trkpt>
      <trkpt lat="42.79266" lon="-2.44564">
        <ele>844.8</ele>
        <time>2021-07-24 12:22:47</time>
      </trkpt>
      <trkpt lat="42.79266" lon="-2.44564">
        <ele>844.8</ele>
        <time>2021-07-24 12:22:51</time>
      </trkpt>
      <trkpt lat="42.79266" lon="-2.44564">
        <ele>845</ele>
        <time>2021-07-24 12:22:55</time>
      </trkpt>
      <trkpt lat="42.79266" lon="-2.44564">
        <ele>844.8</ele>
        <time>2021-07-24 12:22:59</time>
      </trkpt>
      <trkpt lat="42.79266" lon="-2.44564">
        <ele>844.6</ele>
        <time>2021-07-24 12:23:03</time>
      </trkpt>
      <trkpt lat="42.79266" lon="-2.44564">
        <ele>844.8</ele>
        <time>2021-07-24 12:23:07</time>
      </trkpt>
      <trkpt lat="42.79266" lon="-2.44564">
        <ele>844.6</ele>
        <time>2021-07-24 12:23:11</time>
      </trkpt>
      <trkpt lat="42.79266" lon="-2.44564">
        <ele>844.8</ele>
        <time>2021-07-24 12:23:15</time>
      </trkpt>
      <trkpt lat="42.79266" lon="-2.44564">
        <ele>844.6</ele>
        <time>2021-07-24 12:23:19</time>
      </trkpt>
      <trkpt lat="42.79266" lon="-2.44564">
        <ele>844.6</ele>
        <time>2021-07-24 12:23:23</time>
      </trkpt>
      <trkpt lat="42.79266" lon="-2.44564">
        <ele>844.4</ele>
        <time>2021-07-24 12:23:27</time>
      </trkpt>
      <trkpt lat="42.79266" lon="-2.44564">
        <ele>844.8</ele>
        <time>2021-07-24 12:23:31</time>
      </trkpt>
      <trkpt lat="42.79266" lon="-2.44564">
        <ele>844.6</ele>
        <time>2021-07-24 12:23:35</time>
      </trkpt>
      <trkpt lat="42.79266" lon="-2.44564">
        <ele>844.6</ele>
        <time>2021-07-24 12:23:39</time>
      </trkpt>
      <trkpt lat="42.79266" lon="-2.44564">
        <ele>844.8</ele>
        <time>2021-07-24 12:23:43</time>
      </trkpt>
      <trkpt lat="42.79266" lon="-2.44564">
        <ele>844.8</ele>
        <time>2021-07-24 12:23:47</time>
      </trkpt>
      <trkpt lat="42.79266" lon="-2.44564">
        <ele>844.8</ele>
        <time>2021-07-24 12:23:51</time>
      </trkpt>
      <trkpt lat="42.79266" lon="-2.44564">
        <ele>844.8</ele>
        <time>2021-07-24 12:23:55</time>
      </trkpt>
      <trkpt lat="42.79266" lon="-2.44564">
        <ele>845.2</ele>
        <time>2021-07-24 12:23:59</time>
      </trkpt>
      <trkpt lat="42.79266" lon="-2.44564">
        <ele>844.8</ele>
        <time>2021-07-24 12:24:03</time>
      </trkpt>
      <trkpt lat="42.79266" lon="-2.44564">
        <ele>845.2</ele>
        <time>2021-07-24 12:24:07</time>
      </trkpt>
      <trkpt lat="42.79266" lon="-2.44564">
        <ele>845.2</ele>
        <time>2021-07-24 12:24:11</time>
      </trkpt>
      <trkpt lat="42.79266" lon="-2.44564">
        <ele>844.8</ele>
        <time>2021-07-24 12:24:15</time>
      </trkpt>
      <trkpt lat="42.79266" lon="-2.44564">
        <ele>845</ele>
        <time>2021-07-24 12:24:19</time>
      </trkpt>
      <trkpt lat="42.79266" lon="-2.44564">
        <ele>844.8</ele>
        <time>2021-07-24 12:24:23</time>
      </trkpt>
      <trkpt lat="42.79266" lon="-2.44564">
        <ele>844.6</ele>
        <time>2021-07-24 12:24:27</time>
      </trkpt>
      <trkpt lat="42.79266" lon="-2.44564">
        <ele>844.6</ele>
        <time>2021-07-24 12:24:31</time>
      </trkpt>
      <trkpt lat="42.79266" lon="-2.44564">
        <ele>844.8</ele>
        <time>2021-07-24 12:24:35</time>
      </trkpt>
      <trkpt lat="42.79266" lon="-2.44564">
        <ele>845</ele>
        <time>2021-07-24 12:24:39</time>
      </trkpt>
      <trkpt lat="42.79266" lon="-2.44564">
        <ele>844.6</ele>
        <time>2021-07-24 12:24:43</time>
      </trkpt>
      <trkpt lat="42.79266" lon="-2.44564">
        <ele>845</ele>
        <time>2021-07-24 12:24:47</time>
      </trkpt>
      <trkpt lat="42.79266" lon="-2.44564">
        <ele>845</ele>
        <time>2021-07-24 12:24:51</time>
      </trkpt>
      <trkpt lat="42.79266" lon="-2.44564">
        <ele>845</ele>
        <time>2021-07-24 12:24:55</time>
      </trkpt>
      <trkpt lat="42.79266" lon="-2.44564">
        <ele>845</ele>
        <time>2021-07-24 12:24:59</time>
      </trkpt>
      <trkpt lat="42.79266" lon="-2.44564">
        <ele>845</ele>
        <time>2021-07-24 12:25:03</time>
      </trkpt>
      <trkpt lat="42.79266" lon="-2.44564">
        <ele>845.4</ele>
        <time>2021-07-24 12:25:07</time>
      </trkpt>
      <trkpt lat="42.79266" lon="-2.44564">
        <ele>845.4</ele>
        <time>2021-07-24 12:25:11</time>
      </trkpt>
      <trkpt lat="42.79266" lon="-2.44564">
        <ele>845.4</ele>
        <time>2021-07-24 12:25:15</time>
      </trkpt>
      <trkpt lat="42.79266" lon="-2.44564">
        <ele>845</ele>
        <time>2021-07-24 12:25:19</time>
      </trkpt>
      <trkpt lat="42.79266" lon="-2.44564">
        <ele>845.2</ele>
        <time>2021-07-24 12:25:23</time>
      </trkpt>
      <trkpt lat="42.79266" lon="-2.44564">
        <ele>845.2</ele>
        <time>2021-07-24 12:25:27</time>
      </trkpt>
      <trkpt lat="42.79266" lon="-2.44564">
        <ele>845</ele>
        <time>2021-07-24 12:25:31</time>
      </trkpt>
      <trkpt lat="42.79266" lon="-2.44564">
        <ele>845.2</ele>
        <time>2021-07-24 12:25:35</time>
      </trkpt>
      <trkpt lat="42.79266" lon="-2.44564">
        <ele>845.4</ele>
        <time>2021-07-24 12:25:39</time>
      </trkpt>
      <trkpt lat="42.79266" lon="-2.44564">
        <ele>845.6</ele>
        <time>2021-07-24 12:25:43</time>
      </trkpt>
      <trkpt lat="42.79266" lon="-2.44564">
        <ele>845.4</ele>
        <time>2021-07-24 12:25:47</time>
      </trkpt>
      <trkpt lat="42.79266" lon="-2.44564">
        <ele>845.4</ele>
        <time>2021-07-24 12:25:51</time>
      </trkpt>
      <trkpt lat="42.79266" lon="-2.44564">
        <ele>845.2</ele>
        <time>2021-07-24 12:25:55</time>
      </trkpt>
      <trkpt lat="42.79266" lon="-2.44564">
        <ele>845.2</ele>
        <time>2021-07-24 12:25:59</time>
      </trkpt>
      <trkpt lat="42.79266" lon="-2.44564">
        <ele>845.2</ele>
        <time>2021-07-24 12:26:03</time>
      </trkpt>
      <trkpt lat="42.79266" lon="-2.44564">
        <ele>845.2</ele>
        <time>2021-07-24 12:26:07</time>
      </trkpt>
      <trkpt lat="42.79266" lon="-2.44564">
        <ele>845.4</ele>
        <time>2021-07-24 12:26:11</time>
      </trkpt>
      <trkpt lat="42.79266" lon="-2.44564">
        <ele>845</ele>
        <time>2021-07-24 12:26:15</time>
      </trkpt>
      <trkpt lat="42.79266" lon="-2.44564">
        <ele>845.8</ele>
        <time>2021-07-24 12:26:19</time>
      </trkpt>
      <trkpt lat="42.79266" lon="-2.44564">
        <ele>845.4</ele>
        <time>2021-07-24 12:26:23</time>
      </trkpt>
      <trkpt lat="42.79266" lon="-2.44564">
        <ele>845.4</ele>
        <time>2021-07-24 12:26:27</time>
      </trkpt>
      <trkpt lat="42.79266" lon="-2.44564">
        <ele>845.2</ele>
        <time>2021-07-24 12:26:31</time>
      </trkpt>
      <trkpt lat="42.79266" lon="-2.44564">
        <ele>845</ele>
        <time>2021-07-24 12:26:35</time>
      </trkpt>
      <trkpt lat="42.79266" lon="-2.44564">
        <ele>845.2</ele>
        <time>2021-07-24 12:26:39</time>
      </trkpt>
      <trkpt lat="42.79266" lon="-2.44564">
        <ele>845.4</ele>
        <time>2021-07-24 12:26:43</time>
      </trkpt>
      <trkpt lat="42.79266" lon="-2.44564">
        <ele>845</ele>
        <time>2021-07-24 12:26:47</time>
      </trkpt>
      <trkpt lat="42.79266" lon="-2.44564">
        <ele>845.4</ele>
        <time>2021-07-24 12:26:51</time>
      </trkpt>
      <trkpt lat="42.79266" lon="-2.44564">
        <ele>845.4</ele>
        <time>2021-07-24 12:26:55</time>
      </trkpt>
      <trkpt lat="42.79266" lon="-2.44564">
        <ele>845.8</ele>
        <time>2021-07-24 12:26:59</time>
      </trkpt>
      <trkpt lat="42.79266" lon="-2.44564">
        <ele>845.6</ele>
        <time>2021-07-24 12:27:03</time>
      </trkpt>
      <trkpt lat="42.79266" lon="-2.44564">
        <ele>845.8</ele>
        <time>2021-07-24 12:27:07</time>
      </trkpt>
      <trkpt lat="42.79266" lon="-2.44564">
        <ele>845.4</ele>
        <time>2021-07-24 12:27:11</time>
      </trkpt>
      <trkpt lat="42.79266" lon="-2.44564">
        <ele>845.4</ele>
        <time>2021-07-24 12:27:15</time>
      </trkpt>
      <trkpt lat="42.79266" lon="-2.44564">
        <ele>845.4</ele>
        <time>2021-07-24 12:27:19</time>
      </trkpt>
      <trkpt lat="42.79266" lon="-2.44564">
        <ele>845.4</ele>
        <time>2021-07-24 12:27:23</time>
      </trkpt>
      <trkpt lat="42.79266" lon="-2.44564">
        <ele>845.2</ele>
        <time>2021-07-24 12:27:27</time>
      </trkpt>
      <trkpt lat="42.79266" lon="-2.44564">
        <ele>845.4</ele>
        <time>2021-07-24 12:27:31</time>
      </trkpt>
      <trkpt lat="42.79266" lon="-2.44564">
        <ele>845.6</ele>
        <time>2021-07-24 12:27:35</time>
      </trkpt>
      <trkpt lat="42.79266" lon="-2.44564">
        <ele>845.6</ele>
        <time>2021-07-24 12:27:39</time>
      </trkpt>
      <trkpt lat="42.79266" lon="-2.44564">
        <ele>846</ele>
        <time>2021-07-24 12:27:43</time>
      </trkpt>
      <trkpt lat="42.79266" lon="-2.44564">
        <ele>845.4</ele>
        <time>2021-07-24 12:27:47</time>
      </trkpt>
      <trkpt lat="42.79266" lon="-2.44564">
        <ele>845.8</ele>
        <time>2021-07-24 12:27:51</time>
      </trkpt>
      <trkpt lat="42.79266" lon="-2.44564">
        <ele>845.4</ele>
        <time>2021-07-24 12:27:55</time>
      </trkpt>
      <trkpt lat="42.79266" lon="-2.44564">
        <ele>845.4</ele>
        <time>2021-07-24 12:27:59</time>
      </trkpt>
      <trkpt lat="42.79266" lon="-2.44564">
        <ele>845.2</ele>
        <time>2021-07-24 12:28:03</time>
      </trkpt>
      <trkpt lat="42.79266" lon="-2.44564">
        <ele>845.6</ele>
        <time>2021-07-24 12:28:07</time>
      </trkpt>
      <trkpt lat="42.79266" lon="-2.44564">
        <ele>845.2</ele>
        <time>2021-07-24 12:28:11</time>
      </trkpt>
      <trkpt lat="42.79266" lon="-2.44564">
        <ele>845.6</ele>
        <time>2021-07-24 12:28:15</time>
      </trkpt>
      <trkpt lat="42.79266" lon="-2.44564">
        <ele>845.8</ele>
        <time>2021-07-24 12:28:19</time>
      </trkpt>
      <trkpt lat="42.79266" lon="-2.44564">
        <ele>845.4</ele>
        <time>2021-07-24 12:28:23</time>
      </trkpt>
      <trkpt lat="42.79266" lon="-2.44564">
        <ele>845.6</ele>
        <time>2021-07-24 12:28:27</time>
      </trkpt>
      <trkpt lat="42.79266" lon="-2.44564">
        <ele>845.6</ele>
        <time>2021-07-24 12:28:31</time>
      </trkpt>
      <trkpt lat="42.79266" lon="-2.44564">
        <ele>845.4</ele>
        <time>2021-07-24 12:28:35</time>
      </trkpt>
      <trkpt lat="42.79266" lon="-2.44564">
        <ele>845.4</ele>
        <time>2021-07-24 12:28:39</time>
      </trkpt>
      <trkpt lat="42.79266" lon="-2.44564">
        <ele>845.6</ele>
        <time>2021-07-24 12:28:43</time>
      </trkpt>
      <trkpt lat="42.79266" lon="-2.44564">
        <ele>845.4</ele>
        <time>2021-07-24 12:28:47</time>
      </trkpt>
      <trkpt lat="42.79266" lon="-2.44564">
        <ele>845.4</ele>
        <time>2021-07-24 12:28:51</time>
      </trkpt>
      <trkpt lat="42.79266" lon="-2.44564">
        <ele>846</ele>
        <time>2021-07-24 12:28:55</time>
      </trkpt>
      <trkpt lat="42.79266" lon="-2.44564">
        <ele>845.4</ele>
        <time>2021-07-24 12:28:59</time>
      </trkpt>
      <trkpt lat="42.79266" lon="-2.44564">
        <ele>845.6</ele>
        <time>2021-07-24 12:29:03</time>
      </trkpt>
      <trkpt lat="42.79266" lon="-2.44564">
        <ele>845.8</ele>
        <time>2021-07-24 12:29:07</time>
      </trkpt>
      <trkpt lat="42.79266" lon="-2.44564">
        <ele>845.4</ele>
        <time>2021-07-24 12:29:11</time>
      </trkpt>
      <trkpt lat="42.79266" lon="-2.44564">
        <ele>845.6</ele>
        <time>2021-07-24 12:29:15</time>
      </trkpt>
      <trkpt lat="42.79266" lon="-2.44564">
        <ele>845.8</ele>
        <time>2021-07-24 12:29:19</time>
      </trkpt>
      <trkpt lat="42.79266" lon="-2.44564">
        <ele>845.8</ele>
        <time>2021-07-24 12:29:23</time>
      </trkpt>
      <trkpt lat="42.79266" lon="-2.44564">
        <ele>845.8</ele>
        <time>2021-07-24 12:29:27</time>
      </trkpt>
      <trkpt lat="42.79266" lon="-2.44564">
        <ele>845.8</ele>
        <time>2021-07-24 12:29:31</time>
      </trkpt>
      <trkpt lat="42.79266" lon="-2.44564">
        <ele>845.8</ele>
        <time>2021-07-24 12:29:35</time>
      </trkpt>
      <trkpt lat="42.79266" lon="-2.44564">
        <ele>846</ele>
        <time>2021-07-24 12:29:39</time>
      </trkpt>
      <trkpt lat="42.79266" lon="-2.44564">
        <ele>846.4</ele>
        <time>2021-07-24 12:29:43</time>
      </trkpt>
      <trkpt lat="42.79266" lon="-2.44564">
        <ele>846</ele>
        <time>2021-07-24 12:29:47</time>
      </trkpt>
      <trkpt lat="42.79266" lon="-2.44564">
        <ele>845.8</ele>
        <time>2021-07-24 12:29:51</time>
      </trkpt>
      <trkpt lat="42.79266" lon="-2.44564">
        <ele>846</ele>
        <time>2021-07-24 12:29:55</time>
      </trkpt>
      <trkpt lat="42.79266" lon="-2.44564">
        <ele>845.8</ele>
        <time>2021-07-24 12:29:59</time>
      </trkpt>
      <trkpt lat="42.79268" lon="-2.44566">
        <ele>846</ele>
        <time>2021-07-24 12:30:03</time>
      </trkpt>
      <trkpt lat="42.79268" lon="-2.44566">
        <ele>846.2</ele>
        <time>2021-07-24 12:30:07</time>
      </trkpt>
      <trkpt lat="42.79268" lon="-2.44566">
        <ele>846</ele>
        <time>2021-07-24 12:30:11</time>
      </trkpt>
      <trkpt lat="42.79268" lon="-2.44562">
        <ele>845.8</ele>
        <time>2021-07-24 12:30:15</time>
      </trkpt>
      <trkpt lat="42.79267" lon="-2.44555">
        <ele>845</ele>
        <time>2021-07-24 12:30:19</time>
      </trkpt>
      <trkpt lat="42.79263" lon="-2.44546">
        <ele>844.8</ele>
        <time>2021-07-24 12:30:23</time>
      </trkpt>
      <trkpt lat="42.79258" lon="-2.44536">
        <ele>843.8</ele>
        <time>2021-07-24 12:30:27</time>
      </trkpt>
      <trkpt lat="42.79254" lon="-2.44525">
        <ele>842.6</ele>
        <time>2021-07-24 12:30:31</time>
      </trkpt>
      <trkpt lat="42.7925" lon="-2.44515">
        <ele>841.2</ele>
        <time>2021-07-24 12:30:35</time>
      </trkpt>
      <trkpt lat="42.79246" lon="-2.44504">
        <ele>839.8</ele>
        <time>2021-07-24 12:30:39</time>
      </trkpt>
      <trkpt lat="42.79241" lon="-2.44494">
        <ele>838.4</ele>
        <time>2021-07-24 12:30:43</time>
      </trkpt>
      <trkpt lat="42.79235" lon="-2.44489">
        <ele>837.2</ele>
        <time>2021-07-24 12:30:47</time>
      </trkpt>
      <trkpt lat="42.79229" lon="-2.44485">
        <ele>835.8</ele>
        <time>2021-07-24 12:30:51</time>
      </trkpt>
      <trkpt lat="42.79219" lon="-2.44485">
        <ele>833.6</ele>
        <time>2021-07-24 12:30:55</time>
      </trkpt>
      <trkpt lat="42.79209" lon="-2.4449">
        <ele>832.6</ele>
        <time>2021-07-24 12:30:59</time>
      </trkpt>
      <trkpt lat="42.79199" lon="-2.44494">
        <ele>831</ele>
        <time>2021-07-24 12:31:03</time>
      </trkpt>
      <trkpt lat="42.79188" lon="-2.44497">
        <ele>830.8</ele>
        <time>2021-07-24 12:31:07</time>
      </trkpt>
      <trkpt lat="42.79179" lon="-2.44496">
        <ele>831</ele>
        <time>2021-07-24 12:31:11</time>
      </trkpt>
      <trkpt lat="42.79172" lon="-2.44493">
        <ele>832.2</ele>
        <time>2021-07-24 12:31:15</time>
      </trkpt>
      <trkpt lat="42.79166" lon="-2.44491">
        <ele>832.8</ele>
        <time>2021-07-24 12:31:19</time>
      </trkpt>
      <trkpt lat="42.7916" lon="-2.44489">
        <ele>833.6</ele>
        <time>2021-07-24 12:31:23</time>
      </trkpt>
      <trkpt lat="42.79154" lon="-2.44487">
        <ele>834.4</ele>
        <time>2021-07-24 12:31:27</time>
      </trkpt>
      <trkpt lat="42.79148" lon="-2.44485">
        <ele>835.2</ele>
        <time>2021-07-24 12:31:31</time>
      </trkpt>
      <trkpt lat="42.79142" lon="-2.44484">
        <ele>835.8</ele>
        <time>2021-07-24 12:31:35</time>
      </trkpt>
      <trkpt lat="42.79136" lon="-2.44482">
        <ele>836.4</ele>
        <time>2021-07-24 12:31:39</time>
      </trkpt>
      <trkpt lat="42.79131" lon="-2.44482">
        <ele>836.4</ele>
        <time>2021-07-24 12:31:43</time>
      </trkpt>
      <trkpt lat="42.79126" lon="-2.4448">
        <ele>837.4</ele>
        <time>2021-07-24 12:31:47</time>
      </trkpt>
      <trkpt lat="42.79121" lon="-2.44478">
        <ele>837.4</ele>
        <time>2021-07-24 12:31:51</time>
      </trkpt>
      <trkpt lat="42.79115" lon="-2.44477">
        <ele>838.2</ele>
        <time>2021-07-24 12:31:55</time>
      </trkpt>
      <trkpt lat="42.79111" lon="-2.44475">
        <ele>839.2</ele>
        <time>2021-07-24 12:31:59</time>
      </trkpt>
      <trkpt lat="42.79106" lon="-2.44473">
        <ele>839.8</ele>
        <time>2021-07-24 12:32:03</time>
      </trkpt>
      <trkpt lat="42.79102" lon="-2.44472">
        <ele>840.6</ele>
        <time>2021-07-24 12:32:07</time>
      </trkpt>
      <trkpt lat="42.79102" lon="-2.44472">
        <ele>841</ele>
        <time>2021-07-24 12:32:11</time>
      </trkpt>
      <trkpt lat="42.79098" lon="-2.4447">
        <ele>841.4</ele>
        <time>2021-07-24 12:32:15</time>
      </trkpt>
      <trkpt lat="42.79096" lon="-2.44469">
        <ele>842</ele>
        <time>2021-07-24 12:32:19</time>
      </trkpt>
      <trkpt lat="42.79093" lon="-2.44468">
        <ele>843</ele>
        <time>2021-07-24 12:32:23</time>
      </trkpt>
      <trkpt lat="42.7909" lon="-2.44467">
        <ele>843.2</ele>
        <time>2021-07-24 12:32:27</time>
      </trkpt>
      <trkpt lat="42.79088" lon="-2.44466">
        <ele>843.6</ele>
        <time>2021-07-24 12:32:31</time>
      </trkpt>
      <trkpt lat="42.79085" lon="-2.44465">
        <ele>844</ele>
        <time>2021-07-24 12:32:35</time>
      </trkpt>
      <trkpt lat="42.79082" lon="-2.44464">
        <ele>844.2</ele>
        <time>2021-07-24 12:32:39</time>
      </trkpt>
      <trkpt lat="42.79082" lon="-2.44464">
        <ele>844.6</ele>
        <time>2021-07-24 12:32:43</time>
      </trkpt>
      <trkpt lat="42.79079" lon="-2.44463">
        <ele>845</ele>
        <time>2021-07-24 12:32:47</time>
      </trkpt>
      <trkpt lat="42.79076" lon="-2.44463">
        <ele>845.8</ele>
        <time>2021-07-24 12:32:51</time>
      </trkpt>
      <trkpt lat="42.79074" lon="-2.44462">
        <ele>846</ele>
        <time>2021-07-24 12:32:55</time>
      </trkpt>
      <trkpt lat="42.79072" lon="-2.44462">
        <ele>846.8</ele>
        <time>2021-07-24 12:32:59</time>
      </trkpt>
      <trkpt lat="42.79069" lon="-2.44461">
        <ele>847</ele>
        <time>2021-07-24 12:33:03</time>
      </trkpt>
      <trkpt lat="42.79066" lon="-2.44461">
        <ele>847.6</ele>
        <time>2021-07-24 12:33:07</time>
      </trkpt>
      <trkpt lat="42.79064" lon="-2.4446">
        <ele>847.8</ele>
        <time>2021-07-24 12:33:11</time>
      </trkpt>
      <trkpt lat="42.79061" lon="-2.44459">
        <ele>848.6</ele>
        <time>2021-07-24 12:33:15</time>
      </trkpt>
      <trkpt lat="42.79058" lon="-2.44458">
        <ele>848.6</ele>
        <time>2021-07-24 12:33:19</time>
      </trkpt>
      <trkpt lat="42.79056" lon="-2.44458">
        <ele>849.4</ele>
        <time>2021-07-24 12:33:23</time>
      </trkpt>
      <trkpt lat="42.79053" lon="-2.44458">
        <ele>849.4</ele>
        <time>2021-07-24 12:33:27</time>
      </trkpt>
      <trkpt lat="42.7905" lon="-2.44457">
        <ele>850.6</ele>
        <time>2021-07-24 12:33:31</time>
      </trkpt>
      <trkpt lat="42.79048" lon="-2.44457">
        <ele>850.8</ele>
        <time>2021-07-24 12:33:35</time>
      </trkpt>
      <trkpt lat="42.79046" lon="-2.44456">
        <ele>851.2</ele>
        <time>2021-07-24 12:33:39</time>
      </trkpt>
      <trkpt lat="42.79043" lon="-2.44456">
        <ele>851.8</ele>
        <time>2021-07-24 12:33:43</time>
      </trkpt>
      <trkpt lat="42.7904" lon="-2.44455">
        <ele>852.2</ele>
        <time>2021-07-24 12:33:47</time>
      </trkpt>
      <trkpt lat="42.79038" lon="-2.44454">
        <ele>852.8</ele>
        <time>2021-07-24 12:33:51</time>
      </trkpt>
      <trkpt lat="42.79035" lon="-2.44455">
        <ele>853</ele>
        <time>2021-07-24 12:33:55</time>
      </trkpt>
      <trkpt lat="42.79033" lon="-2.44455">
        <ele>853.6</ele>
        <time>2021-07-24 12:33:59</time>
      </trkpt>
      <trkpt lat="42.79033" lon="-2.44455">
        <ele>853.6</ele>
        <time>2021-07-24 12:34:03</time>
      </trkpt>
      <trkpt lat="42.79033" lon="-2.44455">
        <ele>854</ele>
        <time>2021-07-24 12:34:07</time>
      </trkpt>
      <trkpt lat="42.7903" lon="-2.44456">
        <ele>854.2</ele>
        <time>2021-07-24 12:34:11</time>
      </trkpt>
      <trkpt lat="42.79026" lon="-2.44456">
        <ele>854.6</ele>
        <time>2021-07-24 12:34:15</time>
      </trkpt>
      <trkpt lat="42.79023" lon="-2.44456">
        <ele>855</ele>
        <time>2021-07-24 12:34:19</time>
      </trkpt>
      <trkpt lat="42.79019" lon="-2.44457">
        <ele>855.6</ele>
        <time>2021-07-24 12:34:23</time>
      </trkpt>
      <trkpt lat="42.79016" lon="-2.44458">
        <ele>856</ele>
        <time>2021-07-24 12:34:27</time>
      </trkpt>
      <trkpt lat="42.79013" lon="-2.44459">
        <ele>856.8</ele>
        <time>2021-07-24 12:34:31</time>
      </trkpt>
      <trkpt lat="42.79013" lon="-2.44459">
        <ele>856.6</ele>
        <time>2021-07-24 12:34:35</time>
      </trkpt>
      <trkpt lat="42.79013" lon="-2.44459">
        <ele>856.4</ele>
        <time>2021-07-24 12:34:39</time>
      </trkpt>
      <trkpt lat="42.79013" lon="-2.44459">
        <ele>856.4</ele>
        <time>2021-07-24 12:34:43</time>
      </trkpt>
      <trkpt lat="42.79013" lon="-2.44459">
        <ele>856.8</ele>
        <time>2021-07-24 12:34:47</time>
      </trkpt>
      <trkpt lat="42.79011" lon="-2.44458">
        <ele>856.8</ele>
        <time>2021-07-24 12:34:51</time>
      </trkpt>
      <trkpt lat="42.79005" lon="-2.4446">
        <ele>856.8</ele>
        <time>2021-07-24 12:34:55</time>
      </trkpt>
      <trkpt lat="42.79" lon="-2.44461">
        <ele>857.2</ele>
        <time>2021-07-24 12:34:59</time>
      </trkpt>
      <trkpt lat="42.78993" lon="-2.44464">
        <ele>857</ele>
        <time>2021-07-24 12:35:03</time>
      </trkpt>
      <trkpt lat="42.78986" lon="-2.44467">
        <ele>857.8</ele>
        <time>2021-07-24 12:35:07</time>
      </trkpt>
      <trkpt lat="42.78978" lon="-2.4447">
        <ele>857.6</ele>
        <time>2021-07-24 12:35:11</time>
      </trkpt>
      <trkpt lat="42.78971" lon="-2.44472">
        <ele>858.4</ele>
        <time>2021-07-24 12:35:15</time>
      </trkpt>
      <trkpt lat="42.78965" lon="-2.44475">
        <ele>858.8</ele>
        <time>2021-07-24 12:35:19</time>
      </trkpt>
      <trkpt lat="42.78958" lon="-2.44476">
        <ele>859</ele>
        <time>2021-07-24 12:35:23</time>
      </trkpt>
      <trkpt lat="42.78951" lon="-2.44476">
        <ele>858.8</ele>
        <time>2021-07-24 12:35:27</time>
      </trkpt>
      <trkpt lat="42.78945" lon="-2.44472">
        <ele>859.4</ele>
        <time>2021-07-24 12:35:31</time>
      </trkpt>
      <trkpt lat="42.78938" lon="-2.44467">
        <ele>858.4</ele>
        <time>2021-07-24 12:35:35</time>
      </trkpt>
      <trkpt lat="42.78932" lon="-2.44462">
        <ele>857.6</ele>
        <time>2021-07-24 12:35:39</time>
      </trkpt>
      <trkpt lat="42.78925" lon="-2.44457">
        <ele>858.4</ele>
        <time>2021-07-24 12:35:43</time>
      </trkpt>
      <trkpt lat="42.78916" lon="-2.44454">
        <ele>858</ele>
        <time>2021-07-24 12:35:47</time>
      </trkpt>
      <trkpt lat="42.78908" lon="-2.44452">
        <ele>857.8</ele>
        <time>2021-07-24 12:35:51</time>
      </trkpt>
      <trkpt lat="42.78901" lon="-2.44449">
        <ele>859.2</ele>
        <time>2021-07-24 12:35:55</time>
      </trkpt>
      <trkpt lat="42.78898" lon="-2.44447">
        <ele>860.2</ele>
        <time>2021-07-24 12:35:59</time>
      </trkpt>
      <trkpt lat="42.78892" lon="-2.44445">
        <ele>861</ele>
        <time>2021-07-24 12:36:03</time>
      </trkpt>
      <trkpt lat="42.78886" lon="-2.44443">
        <ele>861.8</ele>
        <time>2021-07-24 12:36:07</time>
      </trkpt>
      <trkpt lat="42.78881" lon="-2.44441">
        <ele>863</ele>
        <time>2021-07-24 12:36:11</time>
      </trkpt>
      <trkpt lat="42.78877" lon="-2.44437">
        <ele>863.6</ele>
        <time>2021-07-24 12:36:15</time>
      </trkpt>
      <trkpt lat="42.78873" lon="-2.44434">
        <ele>863.6</ele>
        <time>2021-07-24 12:36:19</time>
      </trkpt>
      <trkpt lat="42.78869" lon="-2.44429">
        <ele>863.6</ele>
        <time>2021-07-24 12:36:23</time>
      </trkpt>
      <trkpt lat="42.78864" lon="-2.44424">
        <ele>863.6</ele>
        <time>2021-07-24 12:36:27</time>
      </trkpt>
      <trkpt lat="42.7886" lon="-2.44418">
        <ele>863.8</ele>
        <time>2021-07-24 12:36:31</time>
      </trkpt>
      <trkpt lat="42.78855" lon="-2.44413">
        <ele>863.4</ele>
        <time>2021-07-24 12:36:35</time>
      </trkpt>
      <trkpt lat="42.78849" lon="-2.44404">
        <ele>863.4</ele>
        <time>2021-07-24 12:36:39</time>
      </trkpt>
      <trkpt lat="42.78845" lon="-2.4439">
        <ele>863.4</ele>
        <time>2021-07-24 12:36:43</time>
      </trkpt>
      <trkpt lat="42.78842" lon="-2.44377">
        <ele>863.4</ele>
        <time>2021-07-24 12:36:47</time>
      </trkpt>
      <trkpt lat="42.7884" lon="-2.44365">
        <ele>862.8</ele>
        <time>2021-07-24 12:36:51</time>
      </trkpt>
      <trkpt lat="42.78836" lon="-2.44351">
        <ele>862.8</ele>
        <time>2021-07-24 12:36:55</time>
      </trkpt>
      <trkpt lat="42.78832" lon="-2.44344">
        <ele>863</ele>
        <time>2021-07-24 12:36:59</time>
      </trkpt>
      <trkpt lat="42.78827" lon="-2.44339">
        <ele>863.8</ele>
        <time>2021-07-24 12:37:03</time>
      </trkpt>
      <trkpt lat="42.78819" lon="-2.44336">
        <ele>863.8</ele>
        <time>2021-07-24 12:37:07</time>
      </trkpt>
      <trkpt lat="42.78813" lon="-2.44335">
        <ele>864.8</ele>
        <time>2021-07-24 12:37:11</time>
      </trkpt>
      <trkpt lat="42.78809" lon="-2.44335">
        <ele>866.2</ele>
        <time>2021-07-24 12:37:15</time>
      </trkpt>
      <trkpt lat="42.78806" lon="-2.44339">
        <ele>866.2</ele>
        <time>2021-07-24 12:37:19</time>
      </trkpt>
      <trkpt lat="42.788" lon="-2.44342">
        <ele>866.8</ele>
        <time>2021-07-24 12:37:23</time>
      </trkpt>
      <trkpt lat="42.78793" lon="-2.44347">
        <ele>867.8</ele>
        <time>2021-07-24 12:37:27</time>
      </trkpt>
      <trkpt lat="42.78786" lon="-2.44353">
        <ele>868.2</ele>
        <time>2021-07-24 12:37:31</time>
      </trkpt>
      <trkpt lat="42.78778" lon="-2.44357">
        <ele>869.2</ele>
        <time>2021-07-24 12:37:35</time>
      </trkpt>
      <trkpt lat="42.78773" lon="-2.44358">
        <ele>869</ele>
        <time>2021-07-24 12:37:39</time>
      </trkpt>
      <trkpt lat="42.78768" lon="-2.44356">
        <ele>870.4</ele>
        <time>2021-07-24 12:37:43</time>
      </trkpt>
      <trkpt lat="42.78764" lon="-2.44353">
        <ele>871</ele>
        <time>2021-07-24 12:37:47</time>
      </trkpt>
      <trkpt lat="42.78759" lon="-2.44349">
        <ele>871.8</ele>
        <time>2021-07-24 12:37:51</time>
      </trkpt>
      <trkpt lat="42.78754" lon="-2.44346">
        <ele>872.2</ele>
        <time>2021-07-24 12:37:55</time>
      </trkpt>
      <trkpt lat="42.7875" lon="-2.44341">
        <ele>873.2</ele>
        <time>2021-07-24 12:37:59</time>
      </trkpt>
      <trkpt lat="42.78746" lon="-2.44336">
        <ele>873.2</ele>
        <time>2021-07-24 12:38:03</time>
      </trkpt>
      <trkpt lat="42.78741" lon="-2.44331">
        <ele>873.6</ele>
        <time>2021-07-24 12:38:07</time>
      </trkpt>
      <trkpt lat="42.78738" lon="-2.44326">
        <ele>873.6</ele>
        <time>2021-07-24 12:38:11</time>
      </trkpt>
      <trkpt lat="42.78734" lon="-2.44318">
        <ele>873.8</ele>
        <time>2021-07-24 12:38:15</time>
      </trkpt>
      <trkpt lat="42.78729" lon="-2.44312">
        <ele>874.4</ele>
        <time>2021-07-24 12:38:19</time>
      </trkpt>
      <trkpt lat="42.78725" lon="-2.44305">
        <ele>874.4</ele>
        <time>2021-07-24 12:38:23</time>
      </trkpt>
      <trkpt lat="42.7872" lon="-2.44296">
        <ele>874</ele>
        <time>2021-07-24 12:38:27</time>
      </trkpt>
      <trkpt lat="42.78714" lon="-2.44288">
        <ele>873.8</ele>
        <time>2021-07-24 12:38:31</time>
      </trkpt>
      <trkpt lat="42.78708" lon="-2.4428">
        <ele>874</ele>
        <time>2021-07-24 12:38:35</time>
      </trkpt>
      <trkpt lat="42.78702" lon="-2.44271">
        <ele>874</ele>
        <time>2021-07-24 12:38:39</time>
      </trkpt>
      <trkpt lat="42.78695" lon="-2.44261">
        <ele>873.6</ele>
        <time>2021-07-24 12:38:43</time>
      </trkpt>
      <trkpt lat="42.78688" lon="-2.44249">
        <ele>872.8</ele>
        <time>2021-07-24 12:38:47</time>
      </trkpt>
      <trkpt lat="42.7868" lon="-2.44237">
        <ele>872.4</ele>
        <time>2021-07-24 12:38:51</time>
      </trkpt>
      <trkpt lat="42.78673" lon="-2.44224">
        <ele>871.6</ele>
        <time>2021-07-24 12:38:55</time>
      </trkpt>
      <trkpt lat="42.78666" lon="-2.4421">
        <ele>870.6</ele>
        <time>2021-07-24 12:38:59</time>
      </trkpt>
      <trkpt lat="42.7866" lon="-2.44196">
        <ele>869.6</ele>
        <time>2021-07-24 12:39:03</time>
      </trkpt>
      <trkpt lat="42.78654" lon="-2.44185">
        <ele>869</ele>
        <time>2021-07-24 12:39:07</time>
      </trkpt>
      <trkpt lat="42.78649" lon="-2.44176">
        <ele>868.4</ele>
        <time>2021-07-24 12:39:11</time>
      </trkpt>
      <trkpt lat="42.78649" lon="-2.44176">
        <ele>868.4</ele>
        <time>2021-07-24 12:39:15</time>
      </trkpt>
      <trkpt lat="42.78645" lon="-2.44169">
        <ele>868.4</ele>
        <time>2021-07-24 12:39:19</time>
      </trkpt>
      <trkpt lat="42.78639" lon="-2.44169">
        <ele>868.4</ele>
        <time>2021-07-24 12:39:23</time>
      </trkpt>
      <trkpt lat="42.78632" lon="-2.4417">
        <ele>866.2</ele>
        <time>2021-07-24 12:39:27</time>
      </trkpt>
      <trkpt lat="42.78627" lon="-2.44172">
        <ele>864.6</ele>
        <time>2021-07-24 12:39:31</time>
      </trkpt>
      <trkpt lat="42.7862" lon="-2.44177">
        <ele>864.6</ele>
        <time>2021-07-24 12:39:35</time>
      </trkpt>
      <trkpt lat="42.78614" lon="-2.44183">
        <ele>863.4</ele>
        <time>2021-07-24 12:39:39</time>
      </trkpt>
      <trkpt lat="42.78606" lon="-2.44189">
        <ele>861.8</ele>
        <time>2021-07-24 12:39:43</time>
      </trkpt>
      <trkpt lat="42.78599" lon="-2.44196">
        <ele>860</ele>
        <time>2021-07-24 12:39:47</time>
      </trkpt>
      <trkpt lat="42.78593" lon="-2.442">
        <ele>859.2</ele>
        <time>2021-07-24 12:39:51</time>
      </trkpt>
      <trkpt lat="42.78587" lon="-2.44207">
        <ele>857.8</ele>
        <time>2021-07-24 12:39:55</time>
      </trkpt>
      <trkpt lat="42.7858" lon="-2.44214">
        <ele>856.8</ele>
        <time>2021-07-24 12:39:59</time>
      </trkpt>
      <trkpt lat="42.78573" lon="-2.4422">
        <ele>855.6</ele>
        <time>2021-07-24 12:40:03</time>
      </trkpt>
      <trkpt lat="42.78567" lon="-2.44226">
        <ele>854.4</ele>
        <time>2021-07-24 12:40:07</time>
      </trkpt>
      <trkpt lat="42.78561" lon="-2.44235">
        <ele>854.4</ele>
        <time>2021-07-24 12:40:11</time>
      </trkpt>
      <trkpt lat="42.78555" lon="-2.4424">
        <ele>852.8</ele>
        <time>2021-07-24 12:40:15</time>
      </trkpt>
      <trkpt lat="42.78548" lon="-2.44244">
        <ele>851.8</ele>
        <time>2021-07-24 12:40:19</time>
      </trkpt>
      <trkpt lat="42.78544" lon="-2.44237">
        <ele>851</ele>
        <time>2021-07-24 12:40:23</time>
      </trkpt>
      <trkpt lat="42.78544" lon="-2.44224">
        <ele>849.8</ele>
        <time>2021-07-24 12:40:27</time>
      </trkpt>
      <trkpt lat="42.78551" lon="-2.44212">
        <ele>849</ele>
        <time>2021-07-24 12:40:31</time>
      </trkpt>
      <trkpt lat="42.7856" lon="-2.442">
        <ele>847.6</ele>
        <time>2021-07-24 12:40:35</time>
      </trkpt>
      <trkpt lat="42.78568" lon="-2.44188">
        <ele>846.4</ele>
        <time>2021-07-24 12:40:39</time>
      </trkpt>
      <trkpt lat="42.78575" lon="-2.44175">
        <ele>844.6</ele>
        <time>2021-07-24 12:40:43</time>
      </trkpt>
      <trkpt lat="42.78585" lon="-2.44162">
        <ele>843.8</ele>
        <time>2021-07-24 12:40:47</time>
      </trkpt>
      <trkpt lat="42.78591" lon="-2.4415">
        <ele>843.2</ele>
        <time>2021-07-24 12:40:51</time>
      </trkpt>
      <trkpt lat="42.78598" lon="-2.44138">
        <ele>841.6</ele>
        <time>2021-07-24 12:40:55</time>
      </trkpt>
      <trkpt lat="42.78605" lon="-2.44126">
        <ele>840.2</ele>
        <time>2021-07-24 12:40:59</time>
      </trkpt>
      <trkpt lat="42.78612" lon="-2.44115">
        <ele>839.2</ele>
        <time>2021-07-24 12:41:03</time>
      </trkpt>
      <trkpt lat="42.7862" lon="-2.44102">
        <ele>838.4</ele>
        <time>2021-07-24 12:41:07</time>
      </trkpt>
      <trkpt lat="42.78628" lon="-2.4409">
        <ele>837</ele>
        <time>2021-07-24 12:41:11</time>
      </trkpt>
      <trkpt lat="42.78637" lon="-2.44074">
        <ele>835.6</ele>
        <time>2021-07-24 12:41:15</time>
      </trkpt>
      <trkpt lat="42.78644" lon="-2.44062">
        <ele>835.4</ele>
        <time>2021-07-24 12:41:19</time>
      </trkpt>
      <trkpt lat="42.7865" lon="-2.44051">
        <ele>834.2</ele>
        <time>2021-07-24 12:41:23</time>
      </trkpt>
      <trkpt lat="42.78655" lon="-2.44038">
        <ele>832.8</ele>
        <time>2021-07-24 12:41:27</time>
      </trkpt>
      <trkpt lat="42.78661" lon="-2.44026">
        <ele>832.4</ele>
        <time>2021-07-24 12:41:31</time>
      </trkpt>
      <trkpt lat="42.78666" lon="-2.44016">
        <ele>830.2</ele>
        <time>2021-07-24 12:41:35</time>
      </trkpt>
      <trkpt lat="42.78671" lon="-2.44008">
        <ele>829.2</ele>
        <time>2021-07-24 12:41:39</time>
      </trkpt>
      <trkpt lat="42.78674" lon="-2.44">
        <ele>827.4</ele>
        <time>2021-07-24 12:41:43</time>
      </trkpt>
      <trkpt lat="42.78672" lon="-2.43984">
        <ele>826.2</ele>
        <time>2021-07-24 12:41:47</time>
      </trkpt>
      <trkpt lat="42.78671" lon="-2.43967">
        <ele>826.4</ele>
        <time>2021-07-24 12:41:51</time>
      </trkpt>
      <trkpt lat="42.78673" lon="-2.4395">
        <ele>825.8</ele>
        <time>2021-07-24 12:41:55</time>
      </trkpt>
      <trkpt lat="42.78679" lon="-2.43932">
        <ele>823.4</ele>
        <time>2021-07-24 12:41:59</time>
      </trkpt>
      <trkpt lat="42.78685" lon="-2.43911">
        <ele>822.4</ele>
        <time>2021-07-24 12:42:03</time>
      </trkpt>
      <trkpt lat="42.78686" lon="-2.43898">
        <ele>823.6</ele>
        <time>2021-07-24 12:42:07</time>
      </trkpt>
      <trkpt lat="42.78682" lon="-2.43893">
        <ele>825.2</ele>
        <time>2021-07-24 12:42:11</time>
      </trkpt>
      <trkpt lat="42.78678" lon="-2.43888">
        <ele>825.8</ele>
        <time>2021-07-24 12:42:15</time>
      </trkpt>
      <trkpt lat="42.78674" lon="-2.43884">
        <ele>826.6</ele>
        <time>2021-07-24 12:42:19</time>
      </trkpt>
      <trkpt lat="42.78668" lon="-2.4388">
        <ele>827.2</ele>
        <time>2021-07-24 12:42:23</time>
      </trkpt>
      <trkpt lat="42.78662" lon="-2.43879">
        <ele>827.6</ele>
        <time>2021-07-24 12:42:27</time>
      </trkpt>
      <trkpt lat="42.78656" lon="-2.43876">
        <ele>828.2</ele>
        <time>2021-07-24 12:42:31</time>
      </trkpt>
      <trkpt lat="42.7865" lon="-2.43875">
        <ele>828.2</ele>
        <time>2021-07-24 12:42:35</time>
      </trkpt>
      <trkpt lat="42.78645" lon="-2.43874">
        <ele>828.2</ele>
        <time>2021-07-24 12:42:39</time>
      </trkpt>
      <trkpt lat="42.78639" lon="-2.43873">
        <ele>829</ele>
        <time>2021-07-24 12:42:43</time>
      </trkpt>
      <trkpt lat="42.78634" lon="-2.43873">
        <ele>829.2</ele>
        <time>2021-07-24 12:42:47</time>
      </trkpt>
      <trkpt lat="42.78629" lon="-2.43874">
        <ele>829.8</ele>
        <time>2021-07-24 12:42:51</time>
      </trkpt>
      <trkpt lat="42.78624" lon="-2.43874">
        <ele>830.8</ele>
        <time>2021-07-24 12:42:55</time>
      </trkpt>
      <trkpt lat="42.78619" lon="-2.43876">
        <ele>831</ele>
        <time>2021-07-24 12:42:59</time>
      </trkpt>
      <trkpt lat="42.78613" lon="-2.43877">
        <ele>831.4</ele>
        <time>2021-07-24 12:43:03</time>
      </trkpt>
      <trkpt lat="42.78607" lon="-2.43879">
        <ele>831.8</ele>
        <time>2021-07-24 12:43:07</time>
      </trkpt>
      <trkpt lat="42.786" lon="-2.43881">
        <ele>832.8</ele>
        <time>2021-07-24 12:43:11</time>
      </trkpt>
      <trkpt lat="42.78593" lon="-2.43882">
        <ele>832.8</ele>
        <time>2021-07-24 12:43:15</time>
      </trkpt>
      <trkpt lat="42.78587" lon="-2.43883">
        <ele>833.4</ele>
        <time>2021-07-24 12:43:19</time>
      </trkpt>
      <trkpt lat="42.78581" lon="-2.43885">
        <ele>834.4</ele>
        <time>2021-07-24 12:43:23</time>
      </trkpt>
      <trkpt lat="42.78574" lon="-2.43887">
        <ele>835.2</ele>
        <time>2021-07-24 12:43:27</time>
      </trkpt>
      <trkpt lat="42.78568" lon="-2.4389">
        <ele>836.2</ele>
        <time>2021-07-24 12:43:31</time>
      </trkpt>
      <trkpt lat="42.78563" lon="-2.43891">
        <ele>837</ele>
        <time>2021-07-24 12:43:35</time>
      </trkpt>
      <trkpt lat="42.78558" lon="-2.43893">
        <ele>837.2</ele>
        <time>2021-07-24 12:43:39</time>
      </trkpt>
      <trkpt lat="42.78554" lon="-2.43895">
        <ele>837.8</ele>
        <time>2021-07-24 12:43:43</time>
      </trkpt>
      <trkpt lat="42.78547" lon="-2.43899">
        <ele>838.4</ele>
        <time>2021-07-24 12:43:47</time>
      </trkpt>
      <trkpt lat="42.78541" lon="-2.43901">
        <ele>839.4</ele>
        <time>2021-07-24 12:43:51</time>
      </trkpt>
      <trkpt lat="42.78534" lon="-2.43904">
        <ele>839.8</ele>
        <time>2021-07-24 12:43:55</time>
      </trkpt>
      <trkpt lat="42.78527" lon="-2.43906">
        <ele>840.2</ele>
        <time>2021-07-24 12:43:59</time>
      </trkpt>
      <trkpt lat="42.7852" lon="-2.43907">
        <ele>840.6</ele>
        <time>2021-07-24 12:44:03</time>
      </trkpt>
      <trkpt lat="42.78514" lon="-2.43909">
        <ele>840.8</ele>
        <time>2021-07-24 12:44:07</time>
      </trkpt>
      <trkpt lat="42.78507" lon="-2.43908">
        <ele>840.8</ele>
        <time>2021-07-24 12:44:11</time>
      </trkpt>
      <trkpt lat="42.785" lon="-2.43908">
        <ele>840.8</ele>
        <time>2021-07-24 12:44:15</time>
      </trkpt>
      <trkpt lat="42.78492" lon="-2.43904">
        <ele>840.8</ele>
        <time>2021-07-24 12:44:19</time>
      </trkpt>
      <trkpt lat="42.78481" lon="-2.43896">
        <ele>840.4</ele>
        <time>2021-07-24 12:44:23</time>
      </trkpt>
      <trkpt lat="42.7847" lon="-2.43883">
        <ele>839.6</ele>
        <time>2021-07-24 12:44:27</time>
      </trkpt>
      <trkpt lat="42.7846" lon="-2.43869">
        <ele>839.2</ele>
        <time>2021-07-24 12:44:31</time>
      </trkpt>
      <trkpt lat="42.78451" lon="-2.43848">
        <ele>837.4</ele>
        <time>2021-07-24 12:44:35</time>
      </trkpt>
      <trkpt lat="42.78442" lon="-2.43827">
        <ele>835.8</ele>
        <time>2021-07-24 12:44:39</time>
      </trkpt>
      <trkpt lat="42.78435" lon="-2.43802">
        <ele>834.6</ele>
        <time>2021-07-24 12:44:43</time>
      </trkpt>
      <trkpt lat="42.78427" lon="-2.4378">
        <ele>834</ele>
        <time>2021-07-24 12:44:47</time>
      </trkpt>
      <trkpt lat="42.78422" lon="-2.43757">
        <ele>833.2</ele>
        <time>2021-07-24 12:44:51</time>
      </trkpt>
      <trkpt lat="42.78416" lon="-2.43738">
        <ele>834.6</ele>
        <time>2021-07-24 12:44:55</time>
      </trkpt>
      <trkpt lat="42.78409" lon="-2.43727">
        <ele>834.6</ele>
        <time>2021-07-24 12:44:59</time>
      </trkpt>
      <trkpt lat="42.78403" lon="-2.43716">
        <ele>834.8</ele>
        <time>2021-07-24 12:45:03</time>
      </trkpt>
      <trkpt lat="42.78395" lon="-2.43703">
        <ele>834.8</ele>
        <time>2021-07-24 12:45:07</time>
      </trkpt>
      <trkpt lat="42.78388" lon="-2.43685">
        <ele>834.4</ele>
        <time>2021-07-24 12:45:11</time>
      </trkpt>
      <trkpt lat="42.78379" lon="-2.43669">
        <ele>834.6</ele>
        <time>2021-07-24 12:45:15</time>
      </trkpt>
      <trkpt lat="42.78375" lon="-2.4365">
        <ele>834</ele>
        <time>2021-07-24 12:45:19</time>
      </trkpt>
      <trkpt lat="42.78375" lon="-2.43631">
        <ele>834</ele>
        <time>2021-07-24 12:45:23</time>
      </trkpt>
      <trkpt lat="42.78375" lon="-2.43614">
        <ele>834.8</ele>
        <time>2021-07-24 12:45:27</time>
      </trkpt>
      <trkpt lat="42.78373" lon="-2.43598">
        <ele>835.4</ele>
        <time>2021-07-24 12:45:31</time>
      </trkpt>
      <trkpt lat="42.78373" lon="-2.43583">
        <ele>836</ele>
        <time>2021-07-24 12:45:35</time>
      </trkpt>
      <trkpt lat="42.78377" lon="-2.4357">
        <ele>835.4</ele>
        <time>2021-07-24 12:45:39</time>
      </trkpt>
      <trkpt lat="42.78386" lon="-2.43558">
        <ele>835</ele>
        <time>2021-07-24 12:45:43</time>
      </trkpt>
      <trkpt lat="42.78399" lon="-2.43547">
        <ele>834.6</ele>
        <time>2021-07-24 12:45:47</time>
      </trkpt>
      <trkpt lat="42.78408" lon="-2.43539">
        <ele>834.4</ele>
        <time>2021-07-24 12:45:51</time>
      </trkpt>
      <trkpt lat="42.78416" lon="-2.4353">
        <ele>832.8</ele>
        <time>2021-07-24 12:45:55</time>
      </trkpt>
      <trkpt lat="42.78425" lon="-2.43518">
        <ele>829.4</ele>
        <time>2021-07-24 12:45:59</time>
      </trkpt>
      <trkpt lat="42.78432" lon="-2.43506">
        <ele>827.4</ele>
        <time>2021-07-24 12:46:03</time>
      </trkpt>
      <trkpt lat="42.78442" lon="-2.43492">
        <ele>825.2</ele>
        <time>2021-07-24 12:46:07</time>
      </trkpt>
      <trkpt lat="42.78451" lon="-2.43479">
        <ele>824</ele>
        <time>2021-07-24 12:46:11</time>
      </trkpt>
      <trkpt lat="42.78463" lon="-2.43467">
        <ele>823.4</ele>
        <time>2021-07-24 12:46:15</time>
      </trkpt>
      <trkpt lat="42.78473" lon="-2.43455">
        <ele>821.2</ele>
        <time>2021-07-24 12:46:19</time>
      </trkpt>
      <trkpt lat="42.78481" lon="-2.43439">
        <ele>819.2</ele>
        <time>2021-07-24 12:46:23</time>
      </trkpt>
      <trkpt lat="42.78487" lon="-2.43424">
        <ele>817</ele>
        <time>2021-07-24 12:46:27</time>
      </trkpt>
      <trkpt lat="42.78495" lon="-2.43408">
        <ele>817</ele>
        <time>2021-07-24 12:46:31</time>
      </trkpt>
      <trkpt lat="42.78501" lon="-2.43391">
        <ele>814.6</ele>
        <time>2021-07-24 12:46:35</time>
      </trkpt>
      <trkpt lat="42.78504" lon="-2.43375">
        <ele>813</ele>
        <time>2021-07-24 12:46:39</time>
      </trkpt>
      <trkpt lat="42.78503" lon="-2.43357">
        <ele>811.4</ele>
        <time>2021-07-24 12:46:43</time>
      </trkpt>
      <trkpt lat="42.78494" lon="-2.43352">
        <ele>813.2</ele>
        <time>2021-07-24 12:46:47</time>
      </trkpt>
      <trkpt lat="42.78489" lon="-2.4335">
        <ele>814.2</ele>
        <time>2021-07-24 12:46:51</time>
      </trkpt>
      <trkpt lat="42.78485" lon="-2.43349">
        <ele>815.2</ele>
        <time>2021-07-24 12:46:55</time>
      </trkpt>
      <trkpt lat="42.78481" lon="-2.43347">
        <ele>816.4</ele>
        <time>2021-07-24 12:46:59</time>
      </trkpt>
      <trkpt lat="42.78476" lon="-2.43346">
        <ele>817</ele>
        <time>2021-07-24 12:47:03</time>
      </trkpt>
      <trkpt lat="42.78472" lon="-2.43345">
        <ele>818.2</ele>
        <time>2021-07-24 12:47:07</time>
      </trkpt>
      <trkpt lat="42.78467" lon="-2.43345">
        <ele>818.8</ele>
        <time>2021-07-24 12:47:11</time>
      </trkpt>
      <trkpt lat="42.78463" lon="-2.43344">
        <ele>820.2</ele>
        <time>2021-07-24 12:47:15</time>
      </trkpt>
      <trkpt lat="42.78458" lon="-2.43345">
        <ele>820.4</ele>
        <time>2021-07-24 12:47:19</time>
      </trkpt>
      <trkpt lat="42.78454" lon="-2.43345">
        <ele>821.2</ele>
        <time>2021-07-24 12:47:23</time>
      </trkpt>
      <trkpt lat="42.78449" lon="-2.43343">
        <ele>821.6</ele>
        <time>2021-07-24 12:47:27</time>
      </trkpt>
      <trkpt lat="42.78449" lon="-2.43343">
        <ele>822.4</ele>
        <time>2021-07-24 12:47:31</time>
      </trkpt>
      <trkpt lat="42.78449" lon="-2.43343">
        <ele>822.2</ele>
        <time>2021-07-24 12:47:35</time>
      </trkpt>
      <trkpt lat="42.78449" lon="-2.43343">
        <ele>822.6</ele>
        <time>2021-07-24 12:47:39</time>
      </trkpt>
      <trkpt lat="42.78448" lon="-2.43344">
        <ele>822.8</ele>
        <time>2021-07-24 12:47:43</time>
      </trkpt>
      <trkpt lat="42.78445" lon="-2.43343">
        <ele>823.4</ele>
        <time>2021-07-24 12:47:47</time>
      </trkpt>
      <trkpt lat="42.78442" lon="-2.43342">
        <ele>823.8</ele>
        <time>2021-07-24 12:47:51</time>
      </trkpt>
      <trkpt lat="42.78438" lon="-2.43342">
        <ele>824</ele>
        <time>2021-07-24 12:47:55</time>
      </trkpt>
      <trkpt lat="42.78435" lon="-2.43342">
        <ele>824.8</ele>
        <time>2021-07-24 12:47:59</time>
      </trkpt>
      <trkpt lat="42.78432" lon="-2.43342">
        <ele>824.8</ele>
        <time>2021-07-24 12:48:03</time>
      </trkpt>
      <trkpt lat="42.78429" lon="-2.43342">
        <ele>825.6</ele>
        <time>2021-07-24 12:48:07</time>
      </trkpt>
      <trkpt lat="42.78426" lon="-2.43342">
        <ele>826.2</ele>
        <time>2021-07-24 12:48:11</time>
      </trkpt>
      <trkpt lat="42.78423" lon="-2.43342">
        <ele>826.2</ele>
        <time>2021-07-24 12:48:15</time>
      </trkpt>
      <trkpt lat="42.7842" lon="-2.43341">
        <ele>826.8</ele>
        <time>2021-07-24 12:48:19</time>
      </trkpt>
      <trkpt lat="42.78417" lon="-2.4334">
        <ele>827</ele>
        <time>2021-07-24 12:48:23</time>
      </trkpt>
      <trkpt lat="42.78414" lon="-2.43338">
        <ele>827.8</ele>
        <time>2021-07-24 12:48:27</time>
      </trkpt>
      <trkpt lat="42.78411" lon="-2.43338">
        <ele>828.4</ele>
        <time>2021-07-24 12:48:31</time>
      </trkpt>
      <trkpt lat="42.78411" lon="-2.43338">
        <ele>828.2</ele>
        <time>2021-07-24 12:48:35</time>
      </trkpt>
      <trkpt lat="42.78409" lon="-2.43337">
        <ele>829</ele>
        <time>2021-07-24 12:48:39</time>
      </trkpt>
      <trkpt lat="42.78406" lon="-2.43336">
        <ele>829.4</ele>
        <time>2021-07-24 12:48:43</time>
      </trkpt>
      <trkpt lat="42.78403" lon="-2.43335">
        <ele>829.8</ele>
        <time>2021-07-24 12:48:47</time>
      </trkpt>
      <trkpt lat="42.78401" lon="-2.43333">
        <ele>830.2</ele>
        <time>2021-07-24 12:48:51</time>
      </trkpt>
      <trkpt lat="42.78398" lon="-2.43331">
        <ele>830.8</ele>
        <time>2021-07-24 12:48:55</time>
      </trkpt>
      <trkpt lat="42.78395" lon="-2.43329">
        <ele>831</ele>
        <time>2021-07-24 12:48:59</time>
      </trkpt>
      <trkpt lat="42.78393" lon="-2.43326">
        <ele>831.8</ele>
        <time>2021-07-24 12:49:03</time>
      </trkpt>
      <trkpt lat="42.78391" lon="-2.43324">
        <ele>832.4</ele>
        <time>2021-07-24 12:49:07</time>
      </trkpt>
      <trkpt lat="42.78389" lon="-2.43323">
        <ele>832.8</ele>
        <time>2021-07-24 12:49:11</time>
      </trkpt>
      <trkpt lat="42.78386" lon="-2.43321">
        <ele>833.6</ele>
        <time>2021-07-24 12:49:15</time>
      </trkpt>
      <trkpt lat="42.78383" lon="-2.43319">
        <ele>834</ele>
        <time>2021-07-24 12:49:19</time>
      </trkpt>
      <trkpt lat="42.78381" lon="-2.43316">
        <ele>834.6</ele>
        <time>2021-07-24 12:49:23</time>
      </trkpt>
      <trkpt lat="42.78378" lon="-2.43315">
        <ele>835</ele>
        <time>2021-07-24 12:49:27</time>
      </trkpt>
      <trkpt lat="42.78376" lon="-2.43313">
        <ele>835.2</ele>
        <time>2021-07-24 12:49:31</time>
      </trkpt>
      <trkpt lat="42.78373" lon="-2.43312">
        <ele>835.8</ele>
        <time>2021-07-24 12:49:35</time>
      </trkpt>
      <trkpt lat="42.78369" lon="-2.4331">
        <ele>835.8</ele>
        <time>2021-07-24 12:49:39</time>
      </trkpt>
      <trkpt lat="42.78366" lon="-2.43307">
        <ele>836.4</ele>
        <time>2021-07-24 12:49:43</time>
      </trkpt>
      <trkpt lat="42.78363" lon="-2.43304">
        <ele>836.6</ele>
        <time>2021-07-24 12:49:47</time>
      </trkpt>
      <trkpt lat="42.7836" lon="-2.43301">
        <ele>836.8</ele>
        <time>2021-07-24 12:49:51</time>
      </trkpt>
      <trkpt lat="42.78357" lon="-2.43298">
        <ele>837.4</ele>
        <time>2021-07-24 12:49:55</time>
      </trkpt>
      <trkpt lat="42.78354" lon="-2.43295">
        <ele>837.6</ele>
        <time>2021-07-24 12:49:59</time>
      </trkpt>
      <trkpt lat="42.78352" lon="-2.43291">
        <ele>837.8</ele>
        <time>2021-07-24 12:50:03</time>
      </trkpt>
      <trkpt lat="42.78349" lon="-2.43288">
        <ele>838.2</ele>
        <time>2021-07-24 12:50:07</time>
      </trkpt>
      <trkpt lat="42.78346" lon="-2.43285">
        <ele>839</ele>
        <time>2021-07-24 12:50:11</time>
      </trkpt>
      <trkpt lat="42.78344" lon="-2.43281">
        <ele>839.2</ele>
        <time>2021-07-24 12:50:15</time>
      </trkpt>
      <trkpt lat="42.78342" lon="-2.43277">
        <ele>840.2</ele>
        <time>2021-07-24 12:50:19</time>
      </trkpt>
      <trkpt lat="42.7834" lon="-2.43274">
        <ele>840.2</ele>
        <time>2021-07-24 12:50:23</time>
      </trkpt>
      <trkpt lat="42.78339" lon="-2.43271">
        <ele>840.6</ele>
        <time>2021-07-24 12:50:27</time>
      </trkpt>
      <trkpt lat="42.78337" lon="-2.43267">
        <ele>841</ele>
        <time>2021-07-24 12:50:31</time>
      </trkpt>
      <trkpt lat="42.78334" lon="-2.43264">
        <ele>841.4</ele>
        <time>2021-07-24 12:50:35</time>
      </trkpt>
      <trkpt lat="42.78332" lon="-2.4326">
        <ele>842</ele>
        <time>2021-07-24 12:50:39</time>
      </trkpt>
      <trkpt lat="42.7833" lon="-2.43256">
        <ele>842.6</ele>
        <time>2021-07-24 12:50:43</time>
      </trkpt>
      <trkpt lat="42.78328" lon="-2.43251">
        <ele>842.8</ele>
        <time>2021-07-24 12:50:47</time>
      </trkpt>
      <trkpt lat="42.78327" lon="-2.43246">
        <ele>843.2</ele>
        <time>2021-07-24 12:50:51</time>
      </trkpt>
      <trkpt lat="42.78326" lon="-2.43241">
        <ele>844</ele>
        <time>2021-07-24 12:50:55</time>
      </trkpt>
      <trkpt lat="42.78325" lon="-2.43236">
        <ele>844</ele>
        <time>2021-07-24 12:50:59</time>
      </trkpt>
      <trkpt lat="42.78325" lon="-2.43231">
        <ele>844.4</ele>
        <time>2021-07-24 12:51:03</time>
      </trkpt>
      <trkpt lat="42.78325" lon="-2.43226">
        <ele>845.4</ele>
        <time>2021-07-24 12:51:07</time>
      </trkpt>
      <trkpt lat="42.78325" lon="-2.43221">
        <ele>846</ele>
        <time>2021-07-24 12:51:11</time>
      </trkpt>
      <trkpt lat="42.78325" lon="-2.43217">
        <ele>846.6</ele>
        <time>2021-07-24 12:51:15</time>
      </trkpt>
      <trkpt lat="42.78325" lon="-2.43212">
        <ele>846.6</ele>
        <time>2021-07-24 12:51:19</time>
      </trkpt>
      <trkpt lat="42.78325" lon="-2.4321">
        <ele>846.6</ele>
        <time>2021-07-24 12:51:23</time>
      </trkpt>
      <trkpt lat="42.78327" lon="-2.43206">
        <ele>847</ele>
        <time>2021-07-24 12:51:27</time>
      </trkpt>
      <trkpt lat="42.78328" lon="-2.43201">
        <ele>848</ele>
        <time>2021-07-24 12:51:31</time>
      </trkpt>
      <trkpt lat="42.7833" lon="-2.43196">
        <ele>848.8</ele>
        <time>2021-07-24 12:51:35</time>
      </trkpt>
      <trkpt lat="42.78331" lon="-2.43192">
        <ele>848.8</ele>
        <time>2021-07-24 12:51:39</time>
      </trkpt>
      <trkpt lat="42.78332" lon="-2.43187">
        <ele>849.8</ele>
        <time>2021-07-24 12:51:43</time>
      </trkpt>
      <trkpt lat="42.78334" lon="-2.43182">
        <ele>850</ele>
        <time>2021-07-24 12:51:47</time>
      </trkpt>
      <trkpt lat="42.78334" lon="-2.43182">
        <ele>850</ele>
        <time>2021-07-24 12:51:51</time>
      </trkpt>
      <trkpt lat="42.78334" lon="-2.43182">
        <ele>850.6</ele>
        <time>2021-07-24 12:51:55</time>
      </trkpt>
      <trkpt lat="42.78334" lon="-2.43182">
        <ele>850.6</ele>
        <time>2021-07-24 12:51:59</time>
      </trkpt>
      <trkpt lat="42.78335" lon="-2.43179">
        <ele>850.6</ele>
        <time>2021-07-24 12:52:03</time>
      </trkpt>
      <trkpt lat="42.78337" lon="-2.43172">
        <ele>850.6</ele>
        <time>2021-07-24 12:52:07</time>
      </trkpt>
      <trkpt lat="42.78339" lon="-2.43164">
        <ele>851.2</ele>
        <time>2021-07-24 12:52:11</time>
      </trkpt>
      <trkpt lat="42.78341" lon="-2.43156">
        <ele>851.6</ele>
        <time>2021-07-24 12:52:15</time>
      </trkpt>
      <trkpt lat="42.78342" lon="-2.43146">
        <ele>851.8</ele>
        <time>2021-07-24 12:52:19</time>
      </trkpt>
      <trkpt lat="42.78343" lon="-2.43135">
        <ele>850.8</ele>
        <time>2021-07-24 12:52:23</time>
      </trkpt>
      <trkpt lat="42.78346" lon="-2.43123">
        <ele>850.4</ele>
        <time>2021-07-24 12:52:27</time>
      </trkpt>
      <trkpt lat="42.78348" lon="-2.4311">
        <ele>849.8</ele>
        <time>2021-07-24 12:52:31</time>
      </trkpt>
      <trkpt lat="42.78351" lon="-2.43094">
        <ele>849</ele>
        <time>2021-07-24 12:52:35</time>
      </trkpt>
      <trkpt lat="42.78351" lon="-2.43077">
        <ele>848</ele>
        <time>2021-07-24 12:52:39</time>
      </trkpt>
      <trkpt lat="42.78348" lon="-2.43051">
        <ele>848.8</ele>
        <time>2021-07-24 12:52:43</time>
      </trkpt>
      <trkpt lat="42.78345" lon="-2.4303">
        <ele>849.4</ele>
        <time>2021-07-24 12:52:47</time>
      </trkpt>
      <trkpt lat="42.78343" lon="-2.43014">
        <ele>849</ele>
        <time>2021-07-24 12:52:51</time>
      </trkpt>
      <trkpt lat="42.78337" lon="-2.42998">
        <ele>848.4</ele>
        <time>2021-07-24 12:52:55</time>
      </trkpt>
      <trkpt lat="42.78326" lon="-2.42994">
        <ele>849.6</ele>
        <time>2021-07-24 12:52:59</time>
      </trkpt>
      <trkpt lat="42.78319" lon="-2.42999">
        <ele>850.8</ele>
        <time>2021-07-24 12:53:03</time>
      </trkpt>
      <trkpt lat="42.78312" lon="-2.43001">
        <ele>852</ele>
        <time>2021-07-24 12:53:07</time>
      </trkpt>
      <trkpt lat="42.78305" lon="-2.43">
        <ele>852.2</ele>
        <time>2021-07-24 12:53:11</time>
      </trkpt>
      <trkpt lat="42.78299" lon="-2.42995">
        <ele>852</ele>
        <time>2021-07-24 12:53:15</time>
      </trkpt>
      <trkpt lat="42.78291" lon="-2.4299">
        <ele>851.4</ele>
        <time>2021-07-24 12:53:19</time>
      </trkpt>
      <trkpt lat="42.78279" lon="-2.42986">
        <ele>850</ele>
        <time>2021-07-24 12:53:23</time>
      </trkpt>
      <trkpt lat="42.78266" lon="-2.42981">
        <ele>849</ele>
        <time>2021-07-24 12:53:27</time>
      </trkpt>
      <trkpt lat="42.78249" lon="-2.42973">
        <ele>848.4</ele>
        <time>2021-07-24 12:53:31</time>
      </trkpt>
      <trkpt lat="42.78234" lon="-2.42962">
        <ele>848.2</ele>
        <time>2021-07-24 12:53:35</time>
      </trkpt>
      <trkpt lat="42.7822" lon="-2.42952">
        <ele>848.6</ele>
        <time>2021-07-24 12:53:39</time>
      </trkpt>
      <trkpt lat="42.78207" lon="-2.42946">
        <ele>848.4</ele>
        <time>2021-07-24 12:53:43</time>
      </trkpt>
      <trkpt lat="42.78193" lon="-2.42939">
        <ele>847.6</ele>
        <time>2021-07-24 12:53:47</time>
      </trkpt>
      <trkpt lat="42.78182" lon="-2.4293">
        <ele>846.4</ele>
        <time>2021-07-24 12:53:51</time>
      </trkpt>
      <trkpt lat="42.78171" lon="-2.42921">
        <ele>845.6</ele>
        <time>2021-07-24 12:53:55</time>
      </trkpt>
      <trkpt lat="42.78159" lon="-2.42912">
        <ele>844.4</ele>
        <time>2021-07-24 12:53:59</time>
      </trkpt>
      <trkpt lat="42.78149" lon="-2.42903">
        <ele>843.2</ele>
        <time>2021-07-24 12:54:03</time>
      </trkpt>
      <trkpt lat="42.7814" lon="-2.42897">
        <ele>842.8</ele>
        <time>2021-07-24 12:54:07</time>
      </trkpt>
      <trkpt lat="42.7814" lon="-2.42897">
        <ele>842.4</ele>
        <time>2021-07-24 12:54:11</time>
      </trkpt>
      <trkpt lat="42.7814" lon="-2.42897">
        <ele>842.6</ele>
        <time>2021-07-24 12:54:15</time>
      </trkpt>
      <trkpt lat="42.7814" lon="-2.42897">
        <ele>842.4</ele>
        <time>2021-07-24 12:54:19</time>
      </trkpt>
      <trkpt lat="42.7814" lon="-2.42897">
        <ele>842.4</ele>
        <time>2021-07-24 12:54:23</time>
      </trkpt>
      <trkpt lat="42.7814" lon="-2.42897">
        <ele>840.2</ele>
        <time>2021-07-24 12:54:27</time>
      </trkpt>
      <trkpt lat="42.7814" lon="-2.42897">
        <ele>842.8</ele>
        <time>2021-07-24 12:54:31</time>
      </trkpt>
      <trkpt lat="42.7814" lon="-2.42897">
        <ele>842.8</ele>
        <time>2021-07-24 12:54:35</time>
      </trkpt>
      <trkpt lat="42.7814" lon="-2.42897">
        <ele>842.6</ele>
        <time>2021-07-24 12:54:39</time>
      </trkpt>
      <trkpt lat="42.7814" lon="-2.42897">
        <ele>843</ele>
        <time>2021-07-24 12:54:43</time>
      </trkpt>
      <trkpt lat="42.7814" lon="-2.42897">
        <ele>843.2</ele>
        <time>2021-07-24 12:54:47</time>
      </trkpt>
      <trkpt lat="42.7814" lon="-2.42897">
        <ele>842.4</ele>
        <time>2021-07-24 12:54:51</time>
      </trkpt>
      <trkpt lat="42.7814" lon="-2.42897">
        <ele>842</ele>
        <time>2021-07-24 12:54:55</time>
      </trkpt>
      <trkpt lat="42.7814" lon="-2.42897">
        <ele>842.4</ele>
        <time>2021-07-24 12:54:59</time>
      </trkpt>
      <trkpt lat="42.7814" lon="-2.42897">
        <ele>842.6</ele>
        <time>2021-07-24 12:55:03</time>
      </trkpt>
      <trkpt lat="42.7814" lon="-2.42897">
        <ele>842</ele>
        <time>2021-07-24 12:55:07</time>
      </trkpt>
      <trkpt lat="42.7814" lon="-2.42897">
        <ele>842</ele>
        <time>2021-07-24 12:55:11</time>
      </trkpt>
      <trkpt lat="42.7814" lon="-2.42897">
        <ele>841.6</ele>
        <time>2021-07-24 12:55:15</time>
      </trkpt>
      <trkpt lat="42.7814" lon="-2.42897">
        <ele>842.2</ele>
        <time>2021-07-24 12:55:19</time>
      </trkpt>
      <trkpt lat="42.7814" lon="-2.42897">
        <ele>842</ele>
        <time>2021-07-24 12:55:23</time>
      </trkpt>
      <trkpt lat="42.78131" lon="-2.42894">
        <ele>841.8</ele>
        <time>2021-07-24 12:55:27</time>
      </trkpt>
      <trkpt lat="42.78122" lon="-2.42894">
        <ele>839.8</ele>
        <time>2021-07-24 12:55:31</time>
      </trkpt>
      <trkpt lat="42.7811" lon="-2.42891">
        <ele>839.4</ele>
        <time>2021-07-24 12:55:35</time>
      </trkpt>
      <trkpt lat="42.78098" lon="-2.42892">
        <ele>839</ele>
        <time>2021-07-24 12:55:39</time>
      </trkpt>
      <trkpt lat="42.78091" lon="-2.42902">
        <ele>839</ele>
        <time>2021-07-24 12:55:43</time>
      </trkpt>
      <trkpt lat="42.78088" lon="-2.42908">
        <ele>838.6</ele>
        <time>2021-07-24 12:55:47</time>
      </trkpt>
      <trkpt lat="42.78083" lon="-2.42919">
        <ele>840</ele>
        <time>2021-07-24 12:55:51</time>
      </trkpt>
      <trkpt lat="42.78079" lon="-2.42929">
        <ele>841</ele>
        <time>2021-07-24 12:55:55</time>
      </trkpt>
      <trkpt lat="42.78074" lon="-2.42938">
        <ele>840.4</ele>
        <time>2021-07-24 12:55:59</time>
      </trkpt>
      <trkpt lat="42.78069" lon="-2.42948">
        <ele>841.6</ele>
        <time>2021-07-24 12:56:03</time>
      </trkpt>
      <trkpt lat="42.78063" lon="-2.42958">
        <ele>840.8</ele>
        <time>2021-07-24 12:56:07</time>
      </trkpt>
      <trkpt lat="42.78056" lon="-2.42968">
        <ele>841.4</ele>
        <time>2021-07-24 12:56:11</time>
      </trkpt>
      <trkpt lat="42.78049" lon="-2.42976">
        <ele>841.8</ele>
        <time>2021-07-24 12:56:15</time>
      </trkpt>
      <trkpt lat="42.78042" lon="-2.42983">
        <ele>843</ele>
        <time>2021-07-24 12:56:19</time>
      </trkpt>
      <trkpt lat="42.78035" lon="-2.4299">
        <ele>843.6</ele>
        <time>2021-07-24 12:56:23</time>
      </trkpt>
      <trkpt lat="42.78029" lon="-2.42997">
        <ele>844</ele>
        <time>2021-07-24 12:56:27</time>
      </trkpt>
      <trkpt lat="42.78022" lon="-2.43006">
        <ele>844</ele>
        <time>2021-07-24 12:56:31</time>
      </trkpt>
      <trkpt lat="42.78015" lon="-2.43014">
        <ele>844.2</ele>
        <time>2021-07-24 12:56:35</time>
      </trkpt>
      <trkpt lat="42.78008" lon="-2.4302">
        <ele>844.8</ele>
        <time>2021-07-24 12:56:39</time>
      </trkpt>
      <trkpt lat="42.78002" lon="-2.43028">
        <ele>844.8</ele>
        <time>2021-07-24 12:56:43</time>
      </trkpt>
      <trkpt lat="42.77994" lon="-2.43037">
        <ele>844.2</ele>
        <time>2021-07-24 12:56:47</time>
      </trkpt>
      <trkpt lat="42.77989" lon="-2.4305">
        <ele>843</ele>
        <time>2021-07-24 12:56:51</time>
      </trkpt>
      <trkpt lat="42.77985" lon="-2.43065">
        <ele>840.8</ele>
        <time>2021-07-24 12:56:55</time>
      </trkpt>
      <trkpt lat="42.77979" lon="-2.43084">
        <ele>839.4</ele>
        <time>2021-07-24 12:56:59</time>
      </trkpt>
      <trkpt lat="42.77974" lon="-2.43102">
        <ele>838</ele>
        <time>2021-07-24 12:57:03</time>
      </trkpt>
      <trkpt lat="42.77969" lon="-2.43121">
        <ele>837</ele>
        <time>2021-07-24 12:57:07</time>
      </trkpt>
      <trkpt lat="42.77965" lon="-2.43138">
        <ele>836</ele>
        <time>2021-07-24 12:57:11</time>
      </trkpt>
      <trkpt lat="42.7796" lon="-2.43156">
        <ele>834.6</ele>
        <time>2021-07-24 12:57:15</time>
      </trkpt>
      <trkpt lat="42.77956" lon="-2.43171">
        <ele>834.6</ele>
        <time>2021-07-24 12:57:19</time>
      </trkpt>
      <trkpt lat="42.77953" lon="-2.43187">
        <ele>833.6</ele>
        <time>2021-07-24 12:57:23</time>
      </trkpt>
      <trkpt lat="42.77948" lon="-2.43204">
        <ele>833</ele>
        <time>2021-07-24 12:57:27</time>
      </trkpt>
      <trkpt lat="42.77942" lon="-2.43219">
        <ele>832</ele>
        <time>2021-07-24 12:57:31</time>
      </trkpt>
      <trkpt lat="42.77936" lon="-2.43233">
        <ele>830.8</ele>
        <time>2021-07-24 12:57:35</time>
      </trkpt>
      <trkpt lat="42.77929" lon="-2.43246">
        <ele>829.4</ele>
        <time>2021-07-24 12:57:39</time>
      </trkpt>
      <trkpt lat="42.77924" lon="-2.4326">
        <ele>826.8</ele>
        <time>2021-07-24 12:57:43</time>
      </trkpt>
      <trkpt lat="42.77921" lon="-2.43275">
        <ele>825.4</ele>
        <time>2021-07-24 12:57:47</time>
      </trkpt>
      <trkpt lat="42.77919" lon="-2.43288">
        <ele>824.4</ele>
        <time>2021-07-24 12:57:51</time>
      </trkpt>
      <trkpt lat="42.77914" lon="-2.43303">
        <ele>822.6</ele>
        <time>2021-07-24 12:57:55</time>
      </trkpt>
      <trkpt lat="42.77906" lon="-2.43314">
        <ele>821</ele>
        <time>2021-07-24 12:57:59</time>
      </trkpt>
      <trkpt lat="42.77898" lon="-2.43324">
        <ele>819.4</ele>
        <time>2021-07-24 12:58:03</time>
      </trkpt>
      <trkpt lat="42.7789" lon="-2.43332">
        <ele>818.4</ele>
        <time>2021-07-24 12:58:07</time>
      </trkpt>
      <trkpt lat="42.77882" lon="-2.4334">
        <ele>817.6</ele>
        <time>2021-07-24 12:58:11</time>
      </trkpt>
      <trkpt lat="42.77874" lon="-2.43347">
        <ele>816.6</ele>
        <time>2021-07-24 12:58:15</time>
      </trkpt>
      <trkpt lat="42.77869" lon="-2.43354">
        <ele>815.6</ele>
        <time>2021-07-24 12:58:19</time>
      </trkpt>
      <trkpt lat="42.77863" lon="-2.43362">
        <ele>814.6</ele>
        <time>2021-07-24 12:58:23</time>
      </trkpt>
      <trkpt lat="42.77858" lon="-2.4337">
        <ele>812.4</ele>
        <time>2021-07-24 12:58:27</time>
      </trkpt>
      <trkpt lat="42.77852" lon="-2.43379">
        <ele>811.2</ele>
        <time>2021-07-24 12:58:31</time>
      </trkpt>
      <trkpt lat="42.77845" lon="-2.43389">
        <ele>809</ele>
        <time>2021-07-24 12:58:35</time>
      </trkpt>
      <trkpt lat="42.77835" lon="-2.43395">
        <ele>807</ele>
        <time>2021-07-24 12:58:39</time>
      </trkpt>
      <trkpt lat="42.77824" lon="-2.43399">
        <ele>804.8</ele>
        <time>2021-07-24 12:58:43</time>
      </trkpt>
      <trkpt lat="42.77814" lon="-2.43403">
        <ele>804</ele>
        <time>2021-07-24 12:58:47</time>
      </trkpt>
      <trkpt lat="42.77803" lon="-2.43407">
        <ele>803</ele>
        <time>2021-07-24 12:58:51</time>
      </trkpt>
      <trkpt lat="42.77791" lon="-2.43409">
        <ele>801</ele>
        <time>2021-07-24 12:58:55</time>
      </trkpt>
      <trkpt lat="42.7778" lon="-2.4341">
        <ele>799.6</ele>
        <time>2021-07-24 12:58:59</time>
      </trkpt>
      <trkpt lat="42.77769" lon="-2.4341">
        <ele>799.4</ele>
        <time>2021-07-24 12:59:03</time>
      </trkpt>
      <trkpt lat="42.7776" lon="-2.43413">
        <ele>798.6</ele>
        <time>2021-07-24 12:59:07</time>
      </trkpt>
      <trkpt lat="42.77752" lon="-2.43416">
        <ele>796.8</ele>
        <time>2021-07-24 12:59:11</time>
      </trkpt>
      <trkpt lat="42.77744" lon="-2.43421">
        <ele>795.2</ele>
        <time>2021-07-24 12:59:15</time>
      </trkpt>
      <trkpt lat="42.77735" lon="-2.43426">
        <ele>793</ele>
        <time>2021-07-24 12:59:19</time>
      </trkpt>
      <trkpt lat="42.77725" lon="-2.43433">
        <ele>791.8</ele>
        <time>2021-07-24 12:59:23</time>
      </trkpt>
      <trkpt lat="42.77716" lon="-2.4344">
        <ele>789.8</ele>
        <time>2021-07-24 12:59:27</time>
      </trkpt>
      <trkpt lat="42.77707" lon="-2.43447">
        <ele>788.4</ele>
        <time>2021-07-24 12:59:31</time>
      </trkpt>
      <trkpt lat="42.777" lon="-2.43453">
        <ele>787.2</ele>
        <time>2021-07-24 12:59:35</time>
      </trkpt>
      <trkpt lat="42.77689" lon="-2.43461">
        <ele>786.2</ele>
        <time>2021-07-24 12:59:39</time>
      </trkpt>
      <trkpt lat="42.77676" lon="-2.43468">
        <ele>784.2</ele>
        <time>2021-07-24 12:59:43</time>
      </trkpt>
      <trkpt lat="42.77659" lon="-2.43474">
        <ele>783.6</ele>
        <time>2021-07-24 12:59:47</time>
      </trkpt>
      <trkpt lat="42.7764" lon="-2.4348">
        <ele>782.6</ele>
        <time>2021-07-24 12:59:51</time>
      </trkpt>
      <trkpt lat="42.77621" lon="-2.43485">
        <ele>782.4</ele>
        <time>2021-07-24 12:59:55</time>
      </trkpt>
      <trkpt lat="42.77601" lon="-2.43489">
        <ele>782</ele>
        <time>2021-07-24 12:59:59</time>
      </trkpt>
      <trkpt lat="42.77582" lon="-2.43493">
        <ele>781.4</ele>
        <time>2021-07-24 13:00:03</time>
      </trkpt>
      <trkpt lat="42.7756" lon="-2.43497">
        <ele>779.2</ele>
        <time>2021-07-24 13:00:07</time>
      </trkpt>
      <trkpt lat="42.77538" lon="-2.43498">
        <ele>778.4</ele>
        <time>2021-07-24 13:00:11</time>
      </trkpt>
      <trkpt lat="42.77519" lon="-2.43492">
        <ele>777.8</ele>
        <time>2021-07-24 13:00:15</time>
      </trkpt>
      <trkpt lat="42.77504" lon="-2.43483">
        <ele>776.2</ele>
        <time>2021-07-24 13:00:19</time>
      </trkpt>
      <trkpt lat="42.77489" lon="-2.43468">
        <ele>775.2</ele>
        <time>2021-07-24 13:00:23</time>
      </trkpt>
      <trkpt lat="42.77471" lon="-2.43458">
        <ele>774</ele>
        <time>2021-07-24 13:00:27</time>
      </trkpt>
      <trkpt lat="42.77456" lon="-2.43454">
        <ele>773.2</ele>
        <time>2021-07-24 13:00:31</time>
      </trkpt>
      <trkpt lat="42.77445" lon="-2.43446">
        <ele>772.4</ele>
        <time>2021-07-24 13:00:35</time>
      </trkpt>
      <trkpt lat="42.77444" lon="-2.43431">
        <ele>772.6</ele>
        <time>2021-07-24 13:00:39</time>
      </trkpt>
      <trkpt lat="42.77448" lon="-2.43421">
        <ele>772</ele>
        <time>2021-07-24 13:00:43</time>
      </trkpt>
      <trkpt lat="42.77448" lon="-2.43421">
        <ele>772.2</ele>
        <time>2021-07-24 13:00:47</time>
      </trkpt>
      <trkpt lat="42.77448" lon="-2.43421">
        <ele>771.8</ele>
        <time>2021-07-24 13:00:51</time>
      </trkpt>
      <trkpt lat="42.77448" lon="-2.43421">
        <ele>771.8</ele>
        <time>2021-07-24 13:00:55</time>
      </trkpt>
      <trkpt lat="42.77448" lon="-2.43421">
        <ele>772.2</ele>
        <time>2021-07-24 13:00:59</time>
      </trkpt>
      <trkpt lat="42.77448" lon="-2.43421">
        <ele>772</ele>
        <time>2021-07-24 13:01:03</time>
      </trkpt>
      <trkpt lat="42.77448" lon="-2.43421">
        <ele>772</ele>
        <time>2021-07-24 13:01:07</time>
      </trkpt>
      <trkpt lat="42.77448" lon="-2.43421">
        <ele>771.6</ele>
        <time>2021-07-24 13:01:11</time>
      </trkpt>
      <trkpt lat="42.77448" lon="-2.43421">
        <ele>772</ele>
        <time>2021-07-24 13:01:15</time>
      </trkpt>
      <trkpt lat="42.77448" lon="-2.43421">
        <ele>771.8</ele>
        <time>2021-07-24 13:01:19</time>
      </trkpt>
      <trkpt lat="42.77448" lon="-2.43421">
        <ele>772</ele>
        <time>2021-07-24 13:01:23</time>
      </trkpt>
      <trkpt lat="42.77448" lon="-2.43421">
        <ele>772.4</ele>
        <time>2021-07-24 13:01:27</time>
      </trkpt>
      <trkpt lat="42.77448" lon="-2.43421">
        <ele>771.8</ele>
        <time>2021-07-24 13:01:31</time>
      </trkpt>
      <trkpt lat="42.77448" lon="-2.43421">
        <ele>772</ele>
        <time>2021-07-24 13:01:35</time>
      </trkpt>
      <trkpt lat="42.77448" lon="-2.43421">
        <ele>772.6</ele>
        <time>2021-07-24 13:01:39</time>
      </trkpt>
      <trkpt lat="42.77448" lon="-2.43421">
        <ele>772.4</ele>
        <time>2021-07-24 13:01:43</time>
      </trkpt>
      <trkpt lat="42.77448" lon="-2.43421">
        <ele>771.8</ele>
        <time>2021-07-24 13:01:47</time>
      </trkpt>
      <trkpt lat="42.77449" lon="-2.43417">
        <ele>772</ele>
        <time>2021-07-24 13:01:51</time>
      </trkpt>
      <trkpt lat="42.77448" lon="-2.43411">
        <ele>771.2</ele>
        <time>2021-07-24 13:01:55</time>
      </trkpt>
      <trkpt lat="42.7744" lon="-2.43403">
        <ele>769.8</ele>
        <time>2021-07-24 13:01:59</time>
      </trkpt>
      <trkpt lat="42.77427" lon="-2.43394">
        <ele>768.8</ele>
        <time>2021-07-24 13:02:03</time>
      </trkpt>
      <trkpt lat="42.77412" lon="-2.43386">
        <ele>768</ele>
        <time>2021-07-24 13:02:07</time>
      </trkpt>
      <trkpt lat="42.77393" lon="-2.43381">
        <ele>767</ele>
        <time>2021-07-24 13:02:11</time>
      </trkpt>
      <trkpt lat="42.77378" lon="-2.43386">
        <ele>766</ele>
        <time>2021-07-24 13:02:15</time>
      </trkpt>
      <trkpt lat="42.77365" lon="-2.43393">
        <ele>764.8</ele>
        <time>2021-07-24 13:02:19</time>
      </trkpt>
      <trkpt lat="42.77354" lon="-2.434">
        <ele>763.2</ele>
        <time>2021-07-24 13:02:23</time>
      </trkpt>
      <trkpt lat="42.7734" lon="-2.43407">
        <ele>761.2</ele>
        <time>2021-07-24 13:02:27</time>
      </trkpt>
      <trkpt lat="42.77326" lon="-2.43412">
        <ele>758.2</ele>
        <time>2021-07-24 13:02:31</time>
      </trkpt>
      <trkpt lat="42.7731" lon="-2.43415">
        <ele>756.2</ele>
        <time>2021-07-24 13:02:35</time>
      </trkpt>
      <trkpt lat="42.77291" lon="-2.43417">
        <ele>753.2</ele>
        <time>2021-07-24 13:02:39</time>
      </trkpt>
      <trkpt lat="42.77271" lon="-2.43423">
        <ele>752.2</ele>
        <time>2021-07-24 13:02:43</time>
      </trkpt>
      <trkpt lat="42.77251" lon="-2.4344">
        <ele>749.2</ele>
        <time>2021-07-24 13:02:47</time>
      </trkpt>
      <trkpt lat="42.77237" lon="-2.43472">
        <ele>748.4</ele>
        <time>2021-07-24 13:02:51</time>
      </trkpt>
      <trkpt lat="42.77229" lon="-2.43511">
        <ele>744.8</ele>
        <time>2021-07-24 13:02:55</time>
      </trkpt>
      <trkpt lat="42.77223" lon="-2.43548">
        <ele>744</ele>
        <time>2021-07-24 13:02:59</time>
      </trkpt>
      <trkpt lat="42.77217" lon="-2.43584">
        <ele>742.6</ele>
        <time>2021-07-24 13:03:03</time>
      </trkpt>
      <trkpt lat="42.77211" lon="-2.4361">
        <ele>742.6</ele>
        <time>2021-07-24 13:03:07</time>
      </trkpt>
      <trkpt lat="42.77207" lon="-2.43622">
        <ele>742.4</ele>
        <time>2021-07-24 13:03:11</time>
      </trkpt>
      <trkpt lat="42.77201" lon="-2.43629">
        <ele>741</ele>
        <time>2021-07-24 13:03:15</time>
      </trkpt>
      <trkpt lat="42.77186" lon="-2.43633">
        <ele>738.6</ele>
        <time>2021-07-24 13:03:19</time>
      </trkpt>
      <trkpt lat="42.77167" lon="-2.43633">
        <ele>736.2</ele>
        <time>2021-07-24 13:03:23</time>
      </trkpt>
      <trkpt lat="42.77147" lon="-2.43616">
        <ele>735.2</ele>
        <time>2021-07-24 13:03:27</time>
      </trkpt>
      <trkpt lat="42.7714" lon="-2.43585">
        <ele>733</ele>
        <time>2021-07-24 13:03:31</time>
      </trkpt>
      <trkpt lat="42.77146" lon="-2.43555">
        <ele>733</ele>
        <time>2021-07-24 13:03:35</time>
      </trkpt>
      <trkpt lat="42.77165" lon="-2.43532">
        <ele>729.8</ele>
        <time>2021-07-24 13:03:39</time>
      </trkpt>
      <trkpt lat="42.77186" lon="-2.43504">
        <ele>727</ele>
        <time>2021-07-24 13:03:43</time>
      </trkpt>
      <trkpt lat="42.77188" lon="-2.43465">
        <ele>726.8</ele>
        <time>2021-07-24 13:03:47</time>
      </trkpt>
      <trkpt lat="42.77166" lon="-2.43437">
        <ele>722.8</ele>
        <time>2021-07-24 13:03:51</time>
      </trkpt>
      <trkpt lat="42.77133" lon="-2.43436">
        <ele>717.2</ele>
        <time>2021-07-24 13:03:55</time>
      </trkpt>
      <trkpt lat="42.77097" lon="-2.43448">
        <ele>713.4</ele>
        <time>2021-07-24 13:03:59</time>
      </trkpt>
      <trkpt lat="42.77065" lon="-2.43467">
        <ele>709.8</ele>
        <time>2021-07-24 13:04:03</time>
      </trkpt>
      <trkpt lat="42.77035" lon="-2.43494">
        <ele>707</ele>
        <time>2021-07-24 13:04:07</time>
      </trkpt>
      <trkpt lat="42.77005" lon="-2.43521">
        <ele>705</ele>
        <time>2021-07-24 13:04:11</time>
      </trkpt>
      <trkpt lat="42.76977" lon="-2.43546">
        <ele>704</ele>
        <time>2021-07-24 13:04:15</time>
      </trkpt>
      <trkpt lat="42.7695" lon="-2.43571">
        <ele>700.2</ele>
        <time>2021-07-24 13:04:19</time>
      </trkpt>
      <trkpt lat="42.76923" lon="-2.43597">
        <ele>697.4</ele>
        <time>2021-07-24 13:04:23</time>
      </trkpt>
      <trkpt lat="42.76896" lon="-2.43621">
        <ele>695</ele>
        <time>2021-07-24 13:04:27</time>
      </trkpt>
      <trkpt lat="42.76866" lon="-2.43641">
        <ele>691</ele>
        <time>2021-07-24 13:04:31</time>
      </trkpt>
      <trkpt lat="42.76832" lon="-2.43662">
        <ele>686.8</ele>
        <time>2021-07-24 13:04:35</time>
      </trkpt>
      <trkpt lat="42.76795" lon="-2.43687">
        <ele>682.4</ele>
        <time>2021-07-24 13:04:39</time>
      </trkpt>
      <trkpt lat="42.76759" lon="-2.43711">
        <ele>680.6</ele>
        <time>2021-07-24 13:04:43</time>
      </trkpt>
      <trkpt lat="42.76731" lon="-2.43728">
        <ele>677.8</ele>
        <time>2021-07-24 13:04:47</time>
      </trkpt>
      <trkpt lat="42.76704" lon="-2.43747">
        <ele>675.6</ele>
        <time>2021-07-24 13:04:51</time>
      </trkpt>
      <trkpt lat="42.76678" lon="-2.43765">
        <ele>672.2</ele>
        <time>2021-07-24 13:04:55</time>
      </trkpt>
      <trkpt lat="42.76649" lon="-2.43787">
        <ele>671.2</ele>
        <time>2021-07-24 13:04:59</time>
      </trkpt>
      <trkpt lat="42.76621" lon="-2.43804">
        <ele>669.6</ele>
        <time>2021-07-24 13:05:03</time>
      </trkpt>
      <trkpt lat="42.76592" lon="-2.43819">
        <ele>669</ele>
        <time>2021-07-24 13:05:07</time>
      </trkpt>
      <trkpt lat="42.76565" lon="-2.43833">
        <ele>668.4</ele>
        <time>2021-07-24 13:05:11</time>
      </trkpt>
      <trkpt lat="42.76539" lon="-2.43837">
        <ele>669</ele>
        <time>2021-07-24 13:05:15</time>
      </trkpt>
      <trkpt lat="42.76516" lon="-2.43832">
        <ele>668.6</ele>
        <time>2021-07-24 13:05:19</time>
      </trkpt>
      <trkpt lat="42.76495" lon="-2.43825">
        <ele>668.4</ele>
        <time>2021-07-24 13:05:23</time>
      </trkpt>
      <trkpt lat="42.76472" lon="-2.43819">
        <ele>666.6</ele>
        <time>2021-07-24 13:05:27</time>
      </trkpt>
      <trkpt lat="42.76447" lon="-2.43825">
        <ele>662.8</ele>
        <time>2021-07-24 13:05:31</time>
      </trkpt>
      <trkpt lat="42.76425" lon="-2.43856">
        <ele>660.6</ele>
        <time>2021-07-24 13:05:35</time>
      </trkpt>
      <trkpt lat="42.76406" lon="-2.43895">
        <ele>660.2</ele>
        <time>2021-07-24 13:05:39</time>
      </trkpt>
      <trkpt lat="42.76384" lon="-2.43926">
        <ele>658.8</ele>
        <time>2021-07-24 13:05:43</time>
      </trkpt>
      <trkpt lat="42.76356" lon="-2.43945">
        <ele>658.8</ele>
        <time>2021-07-24 13:05:47</time>
      </trkpt>
      <trkpt lat="42.76332" lon="-2.43965">
        <ele>658.8</ele>
        <time>2021-07-24 13:05:51</time>
      </trkpt>
      <trkpt lat="42.76314" lon="-2.43991">
        <ele>657.6</ele>
        <time>2021-07-24 13:05:55</time>
      </trkpt>
      <trkpt lat="42.76297" lon="-2.44019">
        <ele>656.8</ele>
        <time>2021-07-24 13:05:59</time>
      </trkpt>
      <trkpt lat="42.7628" lon="-2.44046">
        <ele>656.6</ele>
        <time>2021-07-24 13:06:03</time>
      </trkpt>
      <trkpt lat="42.76265" lon="-2.4407">
        <ele>656.4</ele>
        <time>2021-07-24 13:06:07</time>
      </trkpt>
      <trkpt lat="42.7625" lon="-2.44092">
        <ele>655.8</ele>
        <time>2021-07-24 13:06:11</time>
      </trkpt>
      <trkpt lat="42.76237" lon="-2.44114">
        <ele>656.6</ele>
        <time>2021-07-24 13:06:15</time>
      </trkpt>
      <trkpt lat="42.76223" lon="-2.44135">
        <ele>656.6</ele>
        <time>2021-07-24 13:06:19</time>
      </trkpt>
      <trkpt lat="42.7621" lon="-2.44157">
        <ele>655.8</ele>
        <time>2021-07-24 13:06:23</time>
      </trkpt>
      <trkpt lat="42.76196" lon="-2.44181">
        <ele>655.2</ele>
        <time>2021-07-24 13:06:27</time>
      </trkpt>
      <trkpt lat="42.76183" lon="-2.44204">
        <ele>655.4</ele>
        <time>2021-07-24 13:06:31</time>
      </trkpt>
      <trkpt lat="42.76169" lon="-2.44226">
        <ele>655.4</ele>
        <time>2021-07-24 13:06:35</time>
      </trkpt>
      <trkpt lat="42.76158" lon="-2.44244">
        <ele>654.2</ele>
        <time>2021-07-24 13:06:39</time>
      </trkpt>
      <trkpt lat="42.76147" lon="-2.44261">
        <ele>654</ele>
        <time>2021-07-24 13:06:43</time>
      </trkpt>
      <trkpt lat="42.76136" lon="-2.44278">
        <ele>654</ele>
        <time>2021-07-24 13:06:47</time>
      </trkpt>
      <trkpt lat="42.76124" lon="-2.44292">
        <ele>654.4</ele>
        <time>2021-07-24 13:06:51</time>
      </trkpt>
      <trkpt lat="42.76114" lon="-2.44306">
        <ele>654.4</ele>
        <time>2021-07-24 13:06:55</time>
      </trkpt>
      <trkpt lat="42.76112" lon="-2.4432">
        <ele>654.2</ele>
        <time>2021-07-24 13:06:59</time>
      </trkpt>
      <trkpt lat="42.76113" lon="-2.44335">
        <ele>654.2</ele>
        <time>2021-07-24 13:07:03</time>
      </trkpt>
      <trkpt lat="42.76114" lon="-2.44353">
        <ele>654</ele>
        <time>2021-07-24 13:07:07</time>
      </trkpt>
      <trkpt lat="42.76114" lon="-2.4437">
        <ele>655.2</ele>
        <time>2021-07-24 13:07:11</time>
      </trkpt>
      <trkpt lat="42.76114" lon="-2.44386">
        <ele>655.8</ele>
        <time>2021-07-24 13:07:15</time>
      </trkpt>
      <trkpt lat="42.76115" lon="-2.44397">
        <ele>655.8</ele>
        <time>2021-07-24 13:07:19</time>
      </trkpt>
      <trkpt lat="42.76115" lon="-2.44405">
        <ele>655.6</ele>
        <time>2021-07-24 13:07:23</time>
      </trkpt>
      <trkpt lat="42.76118" lon="-2.44412">
        <ele>656.6</ele>
        <time>2021-07-24 13:07:27</time>
      </trkpt>
      <trkpt lat="42.76121" lon="-2.4442">
        <ele>657</ele>
        <time>2021-07-24 13:07:31</time>
      </trkpt>
      <trkpt lat="42.76124" lon="-2.44426">
        <ele>658.2</ele>
        <time>2021-07-24 13:07:35</time>
      </trkpt>
      <trkpt lat="42.76124" lon="-2.44431">
        <ele>658.6</ele>
        <time>2021-07-24 13:07:39</time>
      </trkpt>
      <trkpt lat="42.76118" lon="-2.44432">
        <ele>659.6</ele>
        <time>2021-07-24 13:07:43</time>
      </trkpt>
      <trkpt lat="42.76114" lon="-2.44432">
        <ele>660.8</ele>
        <time>2021-07-24 13:07:47</time>
      </trkpt>
      <trkpt lat="42.7611" lon="-2.4443">
        <ele>661.8</ele>
        <time>2021-07-24 13:07:51</time>
      </trkpt>
      <trkpt lat="42.76105" lon="-2.44428">
        <ele>662.6</ele>
        <time>2021-07-24 13:07:55</time>
      </trkpt>
      <trkpt lat="42.761" lon="-2.44428">
        <ele>663</ele>
        <time>2021-07-24 13:07:59</time>
      </trkpt>
      <trkpt lat="42.76096" lon="-2.44431">
        <ele>663.8</ele>
        <time>2021-07-24 13:08:03</time>
      </trkpt>
      <trkpt lat="42.76091" lon="-2.44434">
        <ele>664.8</ele>
        <time>2021-07-24 13:08:07</time>
      </trkpt>
      <trkpt lat="42.76086" lon="-2.44437">
        <ele>665</ele>
        <time>2021-07-24 13:08:11</time>
      </trkpt>
      <trkpt lat="42.76083" lon="-2.44441">
        <ele>665.8</ele>
        <time>2021-07-24 13:08:15</time>
      </trkpt>
      <trkpt lat="42.76079" lon="-2.44445">
        <ele>666.6</ele>
        <time>2021-07-24 13:08:19</time>
      </trkpt>
      <trkpt lat="42.76076" lon="-2.44451">
        <ele>666.8</ele>
        <time>2021-07-24 13:08:23</time>
      </trkpt>
      <trkpt lat="42.76071" lon="-2.44454">
        <ele>667.2</ele>
        <time>2021-07-24 13:08:27</time>
      </trkpt>
      <trkpt lat="42.76066" lon="-2.44456">
        <ele>667</ele>
        <time>2021-07-24 13:08:31</time>
      </trkpt>
      <trkpt lat="42.7606" lon="-2.44458">
        <ele>666.6</ele>
        <time>2021-07-24 13:08:35</time>
      </trkpt>
      <trkpt lat="42.76054" lon="-2.44461">
        <ele>665.8</ele>
        <time>2021-07-24 13:08:39</time>
      </trkpt>
      <trkpt lat="42.76054" lon="-2.44461">
        <ele>666</ele>
        <time>2021-07-24 13:08:43</time>
      </trkpt>
      <trkpt lat="42.76054" lon="-2.44461">
        <ele>666</ele>
        <time>2021-07-24 13:08:47</time>
      </trkpt>
      <trkpt lat="42.76054" lon="-2.44461">
        <ele>666</ele>
        <time>2021-07-24 13:08:51</time>
      </trkpt>
      <trkpt lat="42.76054" lon="-2.44461">
        <ele>665.8</ele>
        <time>2021-07-24 13:08:55</time>
      </trkpt>
      <trkpt lat="42.76054" lon="-2.44461">
        <ele>665.8</ele>
        <time>2021-07-24 13:08:59</time>
      </trkpt>
      <trkpt lat="42.76054" lon="-2.44461">
        <ele>665.8</ele>
        <time>2021-07-24 13:09:03</time>
      </trkpt>
      <trkpt lat="42.76054" lon="-2.44461">
        <ele>665.8</ele>
        <time>2021-07-24 13:09:07</time>
      </trkpt>
      <trkpt lat="42.76054" lon="-2.44461">
        <ele>665.8</ele>
        <time>2021-07-24 13:09:11</time>
      </trkpt>
      <trkpt lat="42.76054" lon="-2.44461">
        <ele>665.8</ele>
        <time>2021-07-24 13:09:15</time>
      </trkpt>
      <trkpt lat="42.76054" lon="-2.44461">
        <ele>665.8</ele>
        <time>2021-07-24 13:09:19</time>
      </trkpt>
      <trkpt lat="42.76054" lon="-2.44461">
        <ele>665.8</ele>
        <time>2021-07-24 13:09:23</time>
      </trkpt>
      <trkpt lat="42.76054" lon="-2.44461">
        <ele>665.6</ele>
        <time>2021-07-24 13:09:27</time>
      </trkpt>
      <trkpt lat="42.76054" lon="-2.44461">
        <ele>666</ele>
        <time>2021-07-24 13:09:31</time>
      </trkpt>
      <trkpt lat="42.76054" lon="-2.44461">
        <ele>665.4</ele>
        <time>2021-07-24 13:09:35</time>
      </trkpt>
      <trkpt lat="42.76054" lon="-2.44461">
        <ele>665.4</ele>
        <time>2021-07-24 13:09:39</time>
      </trkpt>
      <trkpt lat="42.76054" lon="-2.44461">
        <ele>665.6</ele>
        <time>2021-07-24 13:09:43</time>
      </trkpt>
      <trkpt lat="42.76054" lon="-2.44461">
        <ele>665.4</ele>
        <time>2021-07-24 13:09:47</time>
      </trkpt>
      <trkpt lat="42.76054" lon="-2.44461">
        <ele>665.2</ele>
        <time>2021-07-24 13:09:51</time>
      </trkpt>
      <trkpt lat="42.76052" lon="-2.4446">
        <ele>665.6</ele>
        <time>2021-07-24 13:09:55</time>
      </trkpt>
      <trkpt lat="42.76047" lon="-2.44463">
        <ele>664.8</ele>
        <time>2021-07-24 13:09:59</time>
      </trkpt>
      <trkpt lat="42.76041" lon="-2.44462">
        <ele>664.8</ele>
        <time>2021-07-24 13:10:03</time>
      </trkpt>
      <trkpt lat="42.76032" lon="-2.44463">
        <ele>664.6</ele>
        <time>2021-07-24 13:10:07</time>
      </trkpt>
      <trkpt lat="42.76023" lon="-2.44461">
        <ele>664.2</ele>
        <time>2021-07-24 13:10:11</time>
      </trkpt>
      <trkpt lat="42.76013" lon="-2.44459">
        <ele>663.6</ele>
        <time>2021-07-24 13:10:15</time>
      </trkpt>
      <trkpt lat="42.76" lon="-2.44456">
        <ele>663</ele>
        <time>2021-07-24 13:10:19</time>
      </trkpt>
      <trkpt lat="42.75987" lon="-2.44453">
        <ele>663.2</ele>
        <time>2021-07-24 13:10:23</time>
      </trkpt>
      <trkpt lat="42.75972" lon="-2.44448">
        <ele>663</ele>
        <time>2021-07-24 13:10:27</time>
      </trkpt>
      <trkpt lat="42.75956" lon="-2.44441">
        <ele>663</ele>
        <time>2021-07-24 13:10:31</time>
      </trkpt>
      <trkpt lat="42.7594" lon="-2.44433">
        <ele>662.6</ele>
        <time>2021-07-24 13:10:35</time>
      </trkpt>
      <trkpt lat="42.75924" lon="-2.44426">
        <ele>661.8</ele>
        <time>2021-07-24 13:10:39</time>
      </trkpt>
      <trkpt lat="42.75908" lon="-2.44419">
        <ele>661.8</ele>
        <time>2021-07-24 13:10:43</time>
      </trkpt>
      <trkpt lat="42.75891" lon="-2.44412">
        <ele>661</ele>
        <time>2021-07-24 13:10:47</time>
      </trkpt>
      <trkpt lat="42.75876" lon="-2.44404">
        <ele>661</ele>
        <time>2021-07-24 13:10:51</time>
      </trkpt>
      <trkpt lat="42.75859" lon="-2.44395">
        <ele>660.6</ele>
        <time>2021-07-24 13:10:55</time>
      </trkpt>
      <trkpt lat="42.75842" lon="-2.44387">
        <ele>659.8</ele>
        <time>2021-07-24 13:10:59</time>
      </trkpt>
      <trkpt lat="42.75823" lon="-2.44379">
        <ele>659.2</ele>
        <time>2021-07-24 13:11:03</time>
      </trkpt>
      <trkpt lat="42.75805" lon="-2.44372">
        <ele>658.8</ele>
        <time>2021-07-24 13:11:07</time>
      </trkpt>
      <trkpt lat="42.75786" lon="-2.44364">
        <ele>658.8</ele>
        <time>2021-07-24 13:11:11</time>
      </trkpt>
      <trkpt lat="42.75767" lon="-2.44355">
        <ele>658</ele>
        <time>2021-07-24 13:11:15</time>
      </trkpt>
      <trkpt lat="42.75748" lon="-2.44346">
        <ele>657.2</ele>
        <time>2021-07-24 13:11:19</time>
      </trkpt>
      <trkpt lat="42.75728" lon="-2.44338">
        <ele>657</ele>
        <time>2021-07-24 13:11:23</time>
      </trkpt>
      <trkpt lat="42.75708" lon="-2.44329">
        <ele>657</ele>
        <time>2021-07-24 13:11:27</time>
      </trkpt>
      <trkpt lat="42.75688" lon="-2.4432">
        <ele>656.2</ele>
        <time>2021-07-24 13:11:31</time>
      </trkpt>
      <trkpt lat="42.75669" lon="-2.44311">
        <ele>656.4</ele>
        <time>2021-07-24 13:11:35</time>
      </trkpt>
      <trkpt lat="42.75651" lon="-2.44303">
        <ele>655.4</ele>
        <time>2021-07-24 13:11:39</time>
      </trkpt>
      <trkpt lat="42.75633" lon="-2.44294">
        <ele>654.8</ele>
        <time>2021-07-24 13:11:43</time>
      </trkpt>
      <trkpt lat="42.75613" lon="-2.44285">
        <ele>655</ele>
        <time>2021-07-24 13:11:47</time>
      </trkpt>
      <trkpt lat="42.75594" lon="-2.44276">
        <ele>655</ele>
        <time>2021-07-24 13:11:51</time>
      </trkpt>
      <trkpt lat="42.75578" lon="-2.4427">
        <ele>657</ele>
        <time>2021-07-24 13:11:55</time>
      </trkpt>
      <trkpt lat="42.7557" lon="-2.44268">
        <ele>657</ele>
        <time>2021-07-24 13:11:59</time>
      </trkpt>
      <trkpt lat="42.75565" lon="-2.44264">
        <ele>655.8</ele>
        <time>2021-07-24 13:12:03</time>
      </trkpt>
      <trkpt lat="42.75553" lon="-2.44256">
        <ele>653.6</ele>
        <time>2021-07-24 13:12:07</time>
      </trkpt>
      <trkpt lat="42.75534" lon="-2.44246">
        <ele>653.2</ele>
        <time>2021-07-24 13:12:11</time>
      </trkpt>
      <trkpt lat="42.75515" lon="-2.44237">
        <ele>653.6</ele>
        <time>2021-07-24 13:12:15</time>
      </trkpt>
      <trkpt lat="42.75496" lon="-2.44228">
        <ele>653</ele>
        <time>2021-07-24 13:12:19</time>
      </trkpt>
      <trkpt lat="42.75476" lon="-2.4422">
        <ele>652.8</ele>
        <time>2021-07-24 13:12:23</time>
      </trkpt>
      <trkpt lat="42.75456" lon="-2.44213">
        <ele>651.8</ele>
        <time>2021-07-24 13:12:27</time>
      </trkpt>
      <trkpt lat="42.75436" lon="-2.44206">
        <ele>651.4</ele>
        <time>2021-07-24 13:12:31</time>
      </trkpt>
      <trkpt lat="42.75417" lon="-2.44201">
        <ele>651.6</ele>
        <time>2021-07-24 13:12:35</time>
      </trkpt>
      <trkpt lat="42.75397" lon="-2.44199">
        <ele>650.8</ele>
        <time>2021-07-24 13:12:39</time>
      </trkpt>
      <trkpt lat="42.75377" lon="-2.44197">
        <ele>650.6</ele>
        <time>2021-07-24 13:12:43</time>
      </trkpt>
      <trkpt lat="42.75357" lon="-2.44196">
        <ele>649.6</ele>
        <time>2021-07-24 13:12:47</time>
      </trkpt>
      <trkpt lat="42.75336" lon="-2.44196">
        <ele>649</ele>
        <time>2021-07-24 13:12:51</time>
      </trkpt>
      <trkpt lat="42.75317" lon="-2.44196">
        <ele>649</ele>
        <time>2021-07-24 13:12:55</time>
      </trkpt>
      <trkpt lat="42.75302" lon="-2.44199">
        <ele>649.4</ele>
        <time>2021-07-24 13:12:59</time>
      </trkpt>
      <trkpt lat="42.7529" lon="-2.44201">
        <ele>648.6</ele>
        <time>2021-07-24 13:13:03</time>
      </trkpt>
      <trkpt lat="42.75277" lon="-2.44203">
        <ele>648.4</ele>
        <time>2021-07-24 13:13:07</time>
      </trkpt>
      <trkpt lat="42.75264" lon="-2.44207">
        <ele>648.4</ele>
        <time>2021-07-24 13:13:11</time>
      </trkpt>
      <trkpt lat="42.75253" lon="-2.44212">
        <ele>648.6</ele>
        <time>2021-07-24 13:13:15</time>
      </trkpt>
      <trkpt lat="42.75242" lon="-2.44218">
        <ele>648.4</ele>
        <time>2021-07-24 13:13:19</time>
      </trkpt>
      <trkpt lat="42.75234" lon="-2.44223">
        <ele>648.2</ele>
        <time>2021-07-24 13:13:23</time>
      </trkpt>
      <trkpt lat="42.75226" lon="-2.44229">
        <ele>648</ele>
        <time>2021-07-24 13:13:27</time>
      </trkpt>
      <trkpt lat="42.75219" lon="-2.44234">
        <ele>648</ele>
        <time>2021-07-24 13:13:31</time>
      </trkpt>
      <trkpt lat="42.7521" lon="-2.4424">
        <ele>647</ele>
        <time>2021-07-24 13:13:35</time>
      </trkpt>
      <trkpt lat="42.7521" lon="-2.4424">
        <ele>643</ele>
        <time>2021-07-24 13:13:39</time>
      </trkpt>
      <trkpt lat="42.7521" lon="-2.4424">
        <ele>642.6</ele>
        <time>2021-07-24 13:13:43</time>
      </trkpt>
      <trkpt lat="42.75007" lon="-2.44544">
        <ele>642</ele>
        <time>2021-07-24 13:13:47</time>
      </trkpt>
      <trkpt lat="42.74996" lon="-2.44556">
        <ele>641</ele>
        <time>2021-07-24 13:13:51</time>
      </trkpt>
      <trkpt lat="42.74986" lon="-2.44571">
        <ele>641</ele>
        <time>2021-07-24 13:13:55</time>
      </trkpt>
      <trkpt lat="42.74976" lon="-2.44587">
        <ele>640.4</ele>
        <time>2021-07-24 13:13:59</time>
      </trkpt>
      <trkpt lat="42.74966" lon="-2.44604">
        <ele>639.6</ele>
        <time>2021-07-24 13:14:03</time>
      </trkpt>
      <trkpt lat="42.74955" lon="-2.4462">
        <ele>639.8</ele>
        <time>2021-07-24 13:14:07</time>
      </trkpt>
      <trkpt lat="42.74944" lon="-2.44635">
        <ele>638.8</ele>
        <time>2021-07-24 13:14:11</time>
      </trkpt>
      <trkpt lat="42.74932" lon="-2.4465">
        <ele>638.8</ele>
        <time>2021-07-24 13:14:15</time>
      </trkpt>
      <trkpt lat="42.74919" lon="-2.44663">
        <ele>638.8</ele>
        <time>2021-07-24 13:14:19</time>
      </trkpt>
      <trkpt lat="42.74905" lon="-2.44674">
        <ele>639</ele>
        <time>2021-07-24 13:14:23</time>
      </trkpt>
      <trkpt lat="42.7489" lon="-2.44685">
        <ele>638.8</ele>
        <time>2021-07-24 13:14:27</time>
      </trkpt>
      <trkpt lat="42.74875" lon="-2.44693">
        <ele>638</ele>
        <time>2021-07-24 13:14:31</time>
      </trkpt>
      <trkpt lat="42.7486" lon="-2.44699">
        <ele>637.2</ele>
        <time>2021-07-24 13:14:35</time>
      </trkpt>
      <trkpt lat="42.74843" lon="-2.44702">
        <ele>637.2</ele>
        <time>2021-07-24 13:14:39</time>
      </trkpt>
      <trkpt lat="42.74825" lon="-2.44705">
        <ele>637.2</ele>
        <time>2021-07-24 13:14:43</time>
      </trkpt>
      <trkpt lat="42.74807" lon="-2.44708">
        <ele>636.2</ele>
        <time>2021-07-24 13:14:47</time>
      </trkpt>
      <trkpt lat="42.74787" lon="-2.44711">
        <ele>636.2</ele>
        <time>2021-07-24 13:14:51</time>
      </trkpt>
      <trkpt lat="42.74767" lon="-2.44714">
        <ele>635.6</ele>
        <time>2021-07-24 13:14:55</time>
      </trkpt>
      <trkpt lat="42.74746" lon="-2.44717">
        <ele>635.6</ele>
        <time>2021-07-24 13:14:59</time>
      </trkpt>
      <trkpt lat="42.74725" lon="-2.44721">
        <ele>634.2</ele>
        <time>2021-07-24 13:15:03</time>
      </trkpt>
      <trkpt lat="42.74704" lon="-2.44723">
        <ele>633.8</ele>
        <time>2021-07-24 13:15:07</time>
      </trkpt>
      <trkpt lat="42.74683" lon="-2.44725">
        <ele>634</ele>
        <time>2021-07-24 13:15:11</time>
      </trkpt>
      <trkpt lat="42.74663" lon="-2.44728">
        <ele>633.4</ele>
        <time>2021-07-24 13:15:15</time>
      </trkpt>
      <trkpt lat="42.7464" lon="-2.44731">
        <ele>632.8</ele>
        <time>2021-07-24 13:15:19</time>
      </trkpt>
      <trkpt lat="42.74618" lon="-2.44735">
        <ele>632</ele>
        <time>2021-07-24 13:15:23</time>
      </trkpt>
      <trkpt lat="42.74596" lon="-2.44739">
        <ele>632</ele>
        <time>2021-07-24 13:15:27</time>
      </trkpt>
      <trkpt lat="42.74574" lon="-2.44742">
        <ele>631.8</ele>
        <time>2021-07-24 13:15:31</time>
      </trkpt>
      <trkpt lat="42.74554" lon="-2.44746">
        <ele>632</ele>
        <time>2021-07-24 13:15:35</time>
      </trkpt>
      <trkpt lat="42.74533" lon="-2.44748">
        <ele>630.6</ele>
        <time>2021-07-24 13:15:39</time>
      </trkpt>
      <trkpt lat="42.74511" lon="-2.44751">
        <ele>631</ele>
        <time>2021-07-24 13:15:43</time>
      </trkpt>
      <trkpt lat="42.74489" lon="-2.44754">
        <ele>630.4</ele>
        <time>2021-07-24 13:15:47</time>
      </trkpt>
      <trkpt lat="42.74467" lon="-2.44757">
        <ele>629.6</ele>
        <time>2021-07-24 13:15:51</time>
      </trkpt>
      <trkpt lat="42.74445" lon="-2.4476">
        <ele>629.2</ele>
        <time>2021-07-24 13:15:55</time>
      </trkpt>
      <trkpt lat="42.74423" lon="-2.44763">
        <ele>629.2</ele>
        <time>2021-07-24 13:15:59</time>
      </trkpt>
      <trkpt lat="42.74402" lon="-2.44767">
        <ele>627.8</ele>
        <time>2021-07-24 13:16:03</time>
      </trkpt>
      <trkpt lat="42.7438" lon="-2.4477">
        <ele>627.6</ele>
        <time>2021-07-24 13:16:07</time>
      </trkpt>
      <trkpt lat="42.74358" lon="-2.44773">
        <ele>627.6</ele>
        <time>2021-07-24 13:16:11</time>
      </trkpt>
      <trkpt lat="42.74336" lon="-2.44775">
        <ele>626.8</ele>
        <time>2021-07-24 13:16:15</time>
      </trkpt>
      <trkpt lat="42.74315" lon="-2.44778">
        <ele>626.8</ele>
        <time>2021-07-24 13:16:19</time>
      </trkpt>
      <trkpt lat="42.74293" lon="-2.4478">
        <ele>627</ele>
        <time>2021-07-24 13:16:23</time>
      </trkpt>
      <trkpt lat="42.74274" lon="-2.44781">
        <ele>626.2</ele>
        <time>2021-07-24 13:16:27</time>
      </trkpt>
      <trkpt lat="42.74254" lon="-2.44782">
        <ele>626.8</ele>
        <time>2021-07-24 13:16:31</time>
      </trkpt>
      <trkpt lat="42.74241" lon="-2.44779">
        <ele>627.6</ele>
        <time>2021-07-24 13:16:35</time>
      </trkpt>
      <trkpt lat="42.74235" lon="-2.44778">
        <ele>627.4</ele>
        <time>2021-07-24 13:16:39</time>
      </trkpt>
      <trkpt lat="42.74229" lon="-2.44776">
        <ele>627.6</ele>
        <time>2021-07-24 13:16:43</time>
      </trkpt>
      <trkpt lat="42.74229" lon="-2.44776">
        <ele>627.8</ele>
        <time>2021-07-24 13:16:47</time>
      </trkpt>
      <trkpt lat="42.74229" lon="-2.44776">
        <ele>628</ele>
        <time>2021-07-24 13:16:51</time>
      </trkpt>
      <trkpt lat="42.74229" lon="-2.44776">
        <ele>627.8</ele>
        <time>2021-07-24 13:16:55</time>
      </trkpt>
      <trkpt lat="42.74229" lon="-2.44776">
        <ele>627.8</ele>
        <time>2021-07-24 13:16:59</time>
      </trkpt>
      <trkpt lat="42.74229" lon="-2.44776">
        <ele>627.8</ele>
        <time>2021-07-24 13:17:03</time>
      </trkpt>
      <trkpt lat="42.74229" lon="-2.44776">
        <ele>627.4</ele>
        <time>2021-07-24 13:17:07</time>
      </trkpt>
      <trkpt lat="42.74229" lon="-2.44776">
        <ele>627.6</ele>
        <time>2021-07-24 13:17:11</time>
      </trkpt>
      <trkpt lat="42.74229" lon="-2.44776">
        <ele>627.8</ele>
        <time>2021-07-24 13:17:15</time>
      </trkpt>
      <trkpt lat="42.74225" lon="-2.44774">
        <ele>627.6</ele>
        <time>2021-07-24 13:17:19</time>
      </trkpt>
      <trkpt lat="42.74215" lon="-2.44771">
        <ele>625.8</ele>
        <time>2021-07-24 13:17:23</time>
      </trkpt>
      <trkpt lat="42.74199" lon="-2.44763">
        <ele>625.4</ele>
        <time>2021-07-24 13:17:27</time>
      </trkpt>
      <trkpt lat="42.74184" lon="-2.44754">
        <ele>625.4</ele>
        <time>2021-07-24 13:17:31</time>
      </trkpt>
      <trkpt lat="42.7417" lon="-2.44744">
        <ele>625.4</ele>
        <time>2021-07-24 13:17:35</time>
      </trkpt>
      <trkpt lat="42.74158" lon="-2.44733">
        <ele>625.2</ele>
        <time>2021-07-24 13:17:39</time>
      </trkpt>
      <trkpt lat="42.74147" lon="-2.44722">
        <ele>624.8</ele>
        <time>2021-07-24 13:17:43</time>
      </trkpt>
      <trkpt lat="42.74137" lon="-2.4471">
        <ele>624.8</ele>
        <time>2021-07-24 13:17:47</time>
      </trkpt>
      <trkpt lat="42.74128" lon="-2.44699">
        <ele>624.6</ele>
        <time>2021-07-24 13:17:51</time>
      </trkpt>
      <trkpt lat="42.74121" lon="-2.44691">
        <ele>624.8</ele>
        <time>2021-07-24 13:17:55</time>
      </trkpt>
      <trkpt lat="42.74116" lon="-2.44683">
        <ele>625.2</ele>
        <time>2021-07-24 13:17:59</time>
      </trkpt>
      <trkpt lat="42.7411" lon="-2.44675">
        <ele>624.4</ele>
        <time>2021-07-24 13:18:03</time>
      </trkpt>
      <trkpt lat="42.74104" lon="-2.44669">
        <ele>623.6</ele>
        <time>2021-07-24 13:18:07</time>
      </trkpt>
      <trkpt lat="42.74099" lon="-2.44661">
        <ele>623.8</ele>
        <time>2021-07-24 13:18:11</time>
      </trkpt>
      <trkpt lat="42.74098" lon="-2.44651">
        <ele>624</ele>
        <time>2021-07-24 13:18:15</time>
      </trkpt>
      <trkpt lat="42.74091" lon="-2.44642">
        <ele>623.8</ele>
        <time>2021-07-24 13:18:19</time>
      </trkpt>
      <trkpt lat="42.74085" lon="-2.44632">
        <ele>623.6</ele>
        <time>2021-07-24 13:18:23</time>
      </trkpt>
      <trkpt lat="42.74075" lon="-2.44621">
        <ele>623</ele>
        <time>2021-07-24 13:18:27</time>
      </trkpt>
      <trkpt lat="42.74064" lon="-2.44608">
        <ele>623</ele>
        <time>2021-07-24 13:18:31</time>
      </trkpt>
      <trkpt lat="42.74052" lon="-2.44592">
        <ele>622.2</ele>
        <time>2021-07-24 13:18:35</time>
      </trkpt>
      <trkpt lat="42.7404" lon="-2.44575">
        <ele>621.8</ele>
        <time>2021-07-24 13:18:39</time>
      </trkpt>
      <trkpt lat="42.74028" lon="-2.44559">
        <ele>622</ele>
        <time>2021-07-24 13:18:43</time>
      </trkpt>
      <trkpt lat="42.7402" lon="-2.44549">
        <ele>622</ele>
        <time>2021-07-24 13:18:47</time>
      </trkpt>
      <trkpt lat="42.74013" lon="-2.44541">
        <ele>623</ele>
        <time>2021-07-24 13:18:51</time>
      </trkpt>
      <trkpt lat="42.74007" lon="-2.44534">
        <ele>623.4</ele>
        <time>2021-07-24 13:18:55</time>
      </trkpt>
      <trkpt lat="42.73997" lon="-2.44526">
        <ele>623.4</ele>
        <time>2021-07-24 13:18:59</time>
      </trkpt>
      <trkpt lat="42.73987" lon="-2.44519">
        <ele>623.6</ele>
        <time>2021-07-24 13:19:03</time>
      </trkpt>
      <trkpt lat="42.73977" lon="-2.44512">
        <ele>623.6</ele>
        <time>2021-07-24 13:19:07</time>
      </trkpt>
      <trkpt lat="42.73968" lon="-2.44506">
        <ele>623.4</ele>
        <time>2021-07-24 13:19:11</time>
      </trkpt>
      <trkpt lat="42.73957" lon="-2.445">
        <ele>623.4</ele>
        <time>2021-07-24 13:19:15</time>
      </trkpt>
      <trkpt lat="42.73945" lon="-2.44494">
        <ele>623.4</ele>
        <time>2021-07-24 13:19:19</time>
      </trkpt>
      <trkpt lat="42.73933" lon="-2.44488">
        <ele>623</ele>
        <time>2021-07-24 13:19:23</time>
      </trkpt>
      <trkpt lat="42.7392" lon="-2.4448">
        <ele>623</ele>
        <time>2021-07-24 13:19:27</time>
      </trkpt>
      <trkpt lat="42.73909" lon="-2.44475">
        <ele>623.8</ele>
        <time>2021-07-24 13:19:31</time>
      </trkpt>
      <trkpt lat="42.73897" lon="-2.44469">
        <ele>622.8</ele>
        <time>2021-07-24 13:19:35</time>
      </trkpt>
      <trkpt lat="42.73886" lon="-2.44463">
        <ele>623.2</ele>
        <time>2021-07-24 13:19:39</time>
      </trkpt>
      <trkpt lat="42.73875" lon="-2.44455">
        <ele>623.4</ele>
        <time>2021-07-24 13:19:43</time>
      </trkpt>
      <trkpt lat="42.73864" lon="-2.44451">
        <ele>623.6</ele>
        <time>2021-07-24 13:19:47</time>
      </trkpt>
      <trkpt lat="42.73857" lon="-2.44446">
        <ele>623.4</ele>
        <time>2021-07-24 13:19:51</time>
      </trkpt>
      <trkpt lat="42.73848" lon="-2.44442">
        <ele>623</ele>
        <time>2021-07-24 13:19:55</time>
      </trkpt>
      <trkpt lat="42.73839" lon="-2.44439">
        <ele>624</ele>
        <time>2021-07-24 13:19:59</time>
      </trkpt>
      <trkpt lat="42.73834" lon="-2.44429">
        <ele>623.6</ele>
        <time>2021-07-24 13:20:03</time>
      </trkpt>
      <trkpt lat="42.73831" lon="-2.44418">
        <ele>623.4</ele>
        <time>2021-07-24 13:20:07</time>
      </trkpt>
      <trkpt lat="42.73822" lon="-2.44411">
        <ele>623.2</ele>
        <time>2021-07-24 13:20:11</time>
      </trkpt>
      <trkpt lat="42.73814" lon="-2.44402">
        <ele>623</ele>
        <time>2021-07-24 13:20:15</time>
      </trkpt>
      <trkpt lat="42.73804" lon="-2.44392">
        <ele>622.4</ele>
        <time>2021-07-24 13:20:19</time>
      </trkpt>
      <trkpt lat="42.73795" lon="-2.4438">
        <ele>622.4</ele>
        <time>2021-07-24 13:20:23</time>
      </trkpt>
      <trkpt lat="42.73787" lon="-2.4437">
        <ele>622.2</ele>
        <time>2021-07-24 13:20:27</time>
      </trkpt>
      <trkpt lat="42.73778" lon="-2.4436">
        <ele>621.6</ele>
        <time>2021-07-24 13:20:31</time>
      </trkpt>
      <trkpt lat="42.73769" lon="-2.44349">
        <ele>621.4</ele>
        <time>2021-07-24 13:20:35</time>
      </trkpt>
      <trkpt lat="42.7376" lon="-2.44336">
        <ele>621.4</ele>
        <time>2021-07-24 13:20:39</time>
      </trkpt>
      <trkpt lat="42.7375" lon="-2.44322">
        <ele>621.2</ele>
        <time>2021-07-24 13:20:43</time>
      </trkpt>
      <trkpt lat="42.73743" lon="-2.44306">
        <ele>620.8</ele>
        <time>2021-07-24 13:20:47</time>
      </trkpt>
      <trkpt lat="42.73735" lon="-2.44287">
        <ele>621</ele>
        <time>2021-07-24 13:20:51</time>
      </trkpt>
      <trkpt lat="42.73727" lon="-2.44267">
        <ele>620.8</ele>
        <time>2021-07-24 13:20:55</time>
      </trkpt>
      <trkpt lat="42.73722" lon="-2.44246">
        <ele>621</ele>
        <time>2021-07-24 13:20:59</time>
      </trkpt>
      <trkpt lat="42.73717" lon="-2.44226">
        <ele>621.2</ele>
        <time>2021-07-24 13:21:03</time>
      </trkpt>
      <trkpt lat="42.73714" lon="-2.44206">
        <ele>620.6</ele>
        <time>2021-07-24 13:21:07</time>
      </trkpt>
      <trkpt lat="42.73712" lon="-2.44184">
        <ele>620.6</ele>
        <time>2021-07-24 13:21:11</time>
      </trkpt>
      <trkpt lat="42.73712" lon="-2.44161">
        <ele>620.8</ele>
        <time>2021-07-24 13:21:15</time>
      </trkpt>
      <trkpt lat="42.73713" lon="-2.44137">
        <ele>620.2</ele>
        <time>2021-07-24 13:21:19</time>
      </trkpt>
      <trkpt lat="42.73717" lon="-2.44115">
        <ele>619.8</ele>
        <time>2021-07-24 13:21:23</time>
      </trkpt>
      <trkpt lat="42.7372" lon="-2.44092">
        <ele>619.6</ele>
        <time>2021-07-24 13:21:27</time>
      </trkpt>
      <trkpt lat="42.73724" lon="-2.44069">
        <ele>619.8</ele>
        <time>2021-07-24 13:21:31</time>
      </trkpt>
      <trkpt lat="42.73728" lon="-2.44045">
        <ele>619.2</ele>
        <time>2021-07-24 13:21:35</time>
      </trkpt>
      <trkpt lat="42.73732" lon="-2.44021">
        <ele>619.4</ele>
        <time>2021-07-24 13:21:39</time>
      </trkpt>
      <trkpt lat="42.73736" lon="-2.43996">
        <ele>619.2</ele>
        <time>2021-07-24 13:21:43</time>
      </trkpt>
      <trkpt lat="42.73741" lon="-2.43971">
        <ele>619.6</ele>
        <time>2021-07-24 13:21:47</time>
      </trkpt>
      <trkpt lat="42.73745" lon="-2.43946">
        <ele>618.8</ele>
        <time>2021-07-24 13:21:51</time>
      </trkpt>
      <trkpt lat="42.7375" lon="-2.43921">
        <ele>618.4</ele>
        <time>2021-07-24 13:21:55</time>
      </trkpt>
      <trkpt lat="42.73755" lon="-2.43895">
        <ele>618.6</ele>
        <time>2021-07-24 13:21:59</time>
      </trkpt>
      <trkpt lat="42.73759" lon="-2.4387">
        <ele>618.4</ele>
        <time>2021-07-24 13:22:03</time>
      </trkpt>
      <trkpt lat="42.73764" lon="-2.43844">
        <ele>618.4</ele>
        <time>2021-07-24 13:22:07</time>
      </trkpt>
      <trkpt lat="42.73768" lon="-2.43819">
        <ele>619</ele>
        <time>2021-07-24 13:22:11</time>
      </trkpt>
      <trkpt lat="42.73768" lon="-2.43819">
        <ele>619</ele>
        <time>2021-07-24 13:22:15</time>
      </trkpt>
      <trkpt lat="42.73768" lon="-2.43819">
        <ele>619.4</ele>
        <time>2021-07-24 13:22:19</time>
      </trkpt>
      <trkpt lat="42.73771" lon="-2.43806">
        <ele>619.4</ele>
        <time>2021-07-24 13:22:23</time>
      </trkpt>
      <trkpt lat="42.73774" lon="-2.43796">
        <ele>619.2</ele>
        <time>2021-07-24 13:22:27</time>
      </trkpt>
      <trkpt lat="42.73776" lon="-2.43781">
        <ele>619</ele>
        <time>2021-07-24 13:22:31</time>
      </trkpt>
      <trkpt lat="42.73779" lon="-2.43764">
        <ele>619</ele>
        <time>2021-07-24 13:22:35</time>
      </trkpt>
      <trkpt lat="42.73782" lon="-2.43745">
        <ele>619</ele>
        <time>2021-07-24 13:22:39</time>
      </trkpt>
      <trkpt lat="42.73786" lon="-2.43725">
        <ele>618.8</ele>
        <time>2021-07-24 13:22:43</time>
      </trkpt>
      <trkpt lat="42.73789" lon="-2.43704">
        <ele>619</ele>
        <time>2021-07-24 13:22:47</time>
      </trkpt>
      <trkpt lat="42.73793" lon="-2.43683">
        <ele>618.8</ele>
        <time>2021-07-24 13:22:51</time>
      </trkpt>
      <trkpt lat="42.73796" lon="-2.43663">
        <ele>618.8</ele>
        <time>2021-07-24 13:22:55</time>
      </trkpt>
      <trkpt lat="42.73796" lon="-2.43641">
        <ele>619</ele>
        <time>2021-07-24 13:22:59</time>
      </trkpt>
      <trkpt lat="42.73796" lon="-2.43618">
        <ele>618.6</ele>
        <time>2021-07-24 13:23:03</time>
      </trkpt>
      <trkpt lat="42.73794" lon="-2.43595">
        <ele>618.6</ele>
        <time>2021-07-24 13:23:07</time>
      </trkpt>
      <trkpt lat="42.73792" lon="-2.43572">
        <ele>618.6</ele>
        <time>2021-07-24 13:23:11</time>
      </trkpt>
      <trkpt lat="42.73787" lon="-2.43549">
        <ele>618.8</ele>
        <time>2021-07-24 13:23:15</time>
      </trkpt>
      <trkpt lat="42.73781" lon="-2.43528">
        <ele>618.6</ele>
        <time>2021-07-24 13:23:19</time>
      </trkpt>
      <trkpt lat="42.73772" lon="-2.43507">
        <ele>618.8</ele>
        <time>2021-07-24 13:23:23</time>
      </trkpt>
      <trkpt lat="42.73765" lon="-2.43488">
        <ele>619.2</ele>
        <time>2021-07-24 13:23:27</time>
      </trkpt>
      <trkpt lat="42.73755" lon="-2.4347">
        <ele>619</ele>
        <time>2021-07-24 13:23:31</time>
      </trkpt>
      <trkpt lat="42.73743" lon="-2.43453">
        <ele>619.2</ele>
        <time>2021-07-24 13:23:35</time>
      </trkpt>
      <trkpt lat="42.73731" lon="-2.43437">
        <ele>619</ele>
        <time>2021-07-24 13:23:39</time>
      </trkpt>
      <trkpt lat="42.73717" lon="-2.43424">
        <ele>619</ele>
        <time>2021-07-24 13:23:43</time>
      </trkpt>
      <trkpt lat="42.73702" lon="-2.4341">
        <ele>619</ele>
        <time>2021-07-24 13:23:47</time>
      </trkpt>
      <trkpt lat="42.73688" lon="-2.43397">
        <ele>618.6</ele>
        <time>2021-07-24 13:23:51</time>
      </trkpt>
      <trkpt lat="42.73672" lon="-2.43388">
        <ele>618.6</ele>
        <time>2021-07-24 13:23:55</time>
      </trkpt>
      <trkpt lat="42.73656" lon="-2.43378">
        <ele>618.4</ele>
        <time>2021-07-24 13:23:59</time>
      </trkpt>
      <trkpt lat="42.7364" lon="-2.43371">
        <ele>618.4</ele>
        <time>2021-07-24 13:24:03</time>
      </trkpt>
      <trkpt lat="42.73622" lon="-2.43367">
        <ele>618.2</ele>
        <time>2021-07-24 13:24:07</time>
      </trkpt>
      <trkpt lat="42.73606" lon="-2.43364">
        <ele>618.2</ele>
        <time>2021-07-24 13:24:11</time>
      </trkpt>
      <trkpt lat="42.73589" lon="-2.43363">
        <ele>618</ele>
        <time>2021-07-24 13:24:15</time>
      </trkpt>
      <trkpt lat="42.73573" lon="-2.43364">
        <ele>618.2</ele>
        <time>2021-07-24 13:24:19</time>
      </trkpt>
      <trkpt lat="42.73556" lon="-2.43369">
        <ele>618</ele>
        <time>2021-07-24 13:24:23</time>
      </trkpt>
      <trkpt lat="42.7354" lon="-2.43376">
        <ele>617.6</ele>
        <time>2021-07-24 13:24:27</time>
      </trkpt>
      <trkpt lat="42.73524" lon="-2.43383">
        <ele>618.2</ele>
        <time>2021-07-24 13:24:31</time>
      </trkpt>
      <trkpt lat="42.73509" lon="-2.43391">
        <ele>618.8</ele>
        <time>2021-07-24 13:24:35</time>
      </trkpt>
      <trkpt lat="42.73491" lon="-2.434">
        <ele>618.4</ele>
        <time>2021-07-24 13:24:39</time>
      </trkpt>
      <trkpt lat="42.73476" lon="-2.4341">
        <ele>618.6</ele>
        <time>2021-07-24 13:24:43</time>
      </trkpt>
      <trkpt lat="42.73459" lon="-2.43418">
        <ele>618.2</ele>
        <time>2021-07-24 13:24:47</time>
      </trkpt>
      <trkpt lat="42.73441" lon="-2.43425">
        <ele>618.2</ele>
        <time>2021-07-24 13:24:51</time>
      </trkpt>
      <trkpt lat="42.73426" lon="-2.43433">
        <ele>618.8</ele>
        <time>2021-07-24 13:24:55</time>
      </trkpt>
      <trkpt lat="42.73416" lon="-2.43441">
        <ele>619.8</ele>
        <time>2021-07-24 13:24:59</time>
      </trkpt>
      <trkpt lat="42.73405" lon="-2.43449">
        <ele>620.4</ele>
        <time>2021-07-24 13:25:03</time>
      </trkpt>
      <trkpt lat="42.73397" lon="-2.43457">
        <ele>621.2</ele>
        <time>2021-07-24 13:25:07</time>
      </trkpt>
      <trkpt lat="42.73391" lon="-2.43462">
        <ele>621.8</ele>
        <time>2021-07-24 13:25:11</time>
      </trkpt>
      <trkpt lat="42.73386" lon="-2.43467">
        <ele>623</ele>
        <time>2021-07-24 13:25:15</time>
      </trkpt>
      <trkpt lat="42.73383" lon="-2.43476">
        <ele>623.2</ele>
        <time>2021-07-24 13:25:19</time>
      </trkpt>
      <trkpt lat="42.73382" lon="-2.43487">
        <ele>623.2</ele>
        <time>2021-07-24 13:25:23</time>
      </trkpt>
      <trkpt lat="42.7338" lon="-2.43496">
        <ele>622.8</ele>
        <time>2021-07-24 13:25:27</time>
      </trkpt>
      <trkpt lat="42.73378" lon="-2.43508">
        <ele>623.4</ele>
        <time>2021-07-24 13:25:31</time>
      </trkpt>
      <trkpt lat="42.73377" lon="-2.43519">
        <ele>623.4</ele>
        <time>2021-07-24 13:25:35</time>
      </trkpt>
      <trkpt lat="42.7338" lon="-2.43529">
        <ele>623.4</ele>
        <time>2021-07-24 13:25:39</time>
      </trkpt>
      <trkpt lat="42.7339" lon="-2.43531">
        <ele>621.6</ele>
        <time>2021-07-24 13:25:43</time>
      </trkpt>
      <trkpt lat="42.73402" lon="-2.43531">
        <ele>619.8</ele>
        <time>2021-07-24 13:25:47</time>
      </trkpt>
      <trkpt lat="42.73414" lon="-2.43533">
        <ele>618.4</ele>
        <time>2021-07-24 13:25:51</time>
      </trkpt>
      <trkpt lat="42.73425" lon="-2.43533">
        <ele>617.4</ele>
        <time>2021-07-24 13:25:55</time>
      </trkpt>
      <trkpt lat="42.73431" lon="-2.43538">
        <ele>617</ele>
        <time>2021-07-24 13:25:59</time>
      </trkpt>
      <trkpt lat="42.73424" lon="-2.43542">
        <ele>617.2</ele>
        <time>2021-07-24 13:26:03</time>
      </trkpt>
      <trkpt lat="42.73414" lon="-2.43543">
        <ele>617</ele>
        <time>2021-07-24 13:26:07</time>
      </trkpt>
      <trkpt lat="42.73403" lon="-2.43544">
        <ele>617.6</ele>
        <time>2021-07-24 13:26:11</time>
      </trkpt>
      <trkpt lat="42.73391" lon="-2.43544">
        <ele>617.6</ele>
        <time>2021-07-24 13:26:15</time>
      </trkpt>
      <trkpt lat="42.73379" lon="-2.43546">
        <ele>617.8</ele>
        <time>2021-07-24 13:26:19</time>
      </trkpt>
      <trkpt lat="42.73368" lon="-2.43548">
        <ele>617.6</ele>
        <time>2021-07-24 13:26:23</time>
      </trkpt>
      <trkpt lat="42.73358" lon="-2.43551">
        <ele>617.6</ele>
        <time>2021-07-24 13:26:27</time>
      </trkpt>
      <trkpt lat="42.73346" lon="-2.43555">
        <ele>617</ele>
        <time>2021-07-24 13:26:31</time>
      </trkpt>
      <trkpt lat="42.73331" lon="-2.43558">
        <ele>616.8</ele>
        <time>2021-07-24 13:26:35</time>
      </trkpt>
      <trkpt lat="42.73316" lon="-2.43561">
        <ele>616.4</ele>
        <time>2021-07-24 13:26:39</time>
      </trkpt>
      <trkpt lat="42.733" lon="-2.43559">
        <ele>616</ele>
        <time>2021-07-24 13:26:43</time>
      </trkpt>
      <trkpt lat="42.73285" lon="-2.43556">
        <ele>615.6</ele>
        <time>2021-07-24 13:26:47</time>
      </trkpt>
      <trkpt lat="42.73269" lon="-2.43551">
        <ele>615.6</ele>
        <time>2021-07-24 13:26:51</time>
      </trkpt>
      <trkpt lat="42.73253" lon="-2.43549">
        <ele>615</ele>
        <time>2021-07-24 13:26:55</time>
      </trkpt>
      <trkpt lat="42.73236" lon="-2.43548">
        <ele>614.6</ele>
        <time>2021-07-24 13:26:59</time>
      </trkpt>
      <trkpt lat="42.73219" lon="-2.43546">
        <ele>614.8</ele>
        <time>2021-07-24 13:27:03</time>
      </trkpt>
      <trkpt lat="42.73202" lon="-2.43542">
        <ele>614.4</ele>
        <time>2021-07-24 13:27:07</time>
      </trkpt>
      <trkpt lat="42.73184" lon="-2.43535">
        <ele>614.2</ele>
        <time>2021-07-24 13:27:11</time>
      </trkpt>
      <trkpt lat="42.73166" lon="-2.4353">
        <ele>614.6</ele>
        <time>2021-07-24 13:27:15</time>
      </trkpt>
      <trkpt lat="42.73148" lon="-2.43525">
        <ele>614.6</ele>
        <time>2021-07-24 13:27:19</time>
      </trkpt>
      <trkpt lat="42.7313" lon="-2.4352">
        <ele>614</ele>
        <time>2021-07-24 13:27:23</time>
      </trkpt>
      <trkpt lat="42.73112" lon="-2.43514">
        <ele>614.8</ele>
        <time>2021-07-24 13:27:27</time>
      </trkpt>
      <trkpt lat="42.73096" lon="-2.43508">
        <ele>615.4</ele>
        <time>2021-07-24 13:27:31</time>
      </trkpt>
      <trkpt lat="42.73081" lon="-2.43502">
        <ele>616</ele>
        <time>2021-07-24 13:27:35</time>
      </trkpt>
      <trkpt lat="42.73066" lon="-2.43497">
        <ele>616.2</ele>
        <time>2021-07-24 13:27:39</time>
      </trkpt>
      <trkpt lat="42.73052" lon="-2.43491">
        <ele>616.6</ele>
        <time>2021-07-24 13:27:43</time>
      </trkpt>
      <trkpt lat="42.73039" lon="-2.43483">
        <ele>616.6</ele>
        <time>2021-07-24 13:27:47</time>
      </trkpt>
      <trkpt lat="42.73026" lon="-2.43474">
        <ele>616.8</ele>
        <time>2021-07-24 13:27:51</time>
      </trkpt>
      <trkpt lat="42.73013" lon="-2.43467">
        <ele>617</ele>
        <time>2021-07-24 13:27:55</time>
      </trkpt>
      <trkpt lat="42.73" lon="-2.43455">
        <ele>616.8</ele>
        <time>2021-07-24 13:27:59</time>
      </trkpt>
      <trkpt lat="42.72987" lon="-2.43443">
        <ele>616.8</ele>
        <time>2021-07-24 13:28:03</time>
      </trkpt>
      <trkpt lat="42.72972" lon="-2.43432">
        <ele>616.6</ele>
        <time>2021-07-24 13:28:07</time>
      </trkpt>
      <trkpt lat="42.72957" lon="-2.43422">
        <ele>616.6</ele>
        <time>2021-07-24 13:28:11</time>
      </trkpt>
      <trkpt lat="42.72943" lon="-2.43411">
        <ele>616</ele>
        <time>2021-07-24 13:28:15</time>
      </trkpt>
      <trkpt lat="42.7293" lon="-2.434">
        <ele>615.6</ele>
        <time>2021-07-24 13:28:19</time>
      </trkpt>
      <trkpt lat="42.72917" lon="-2.43386">
        <ele>615.6</ele>
        <time>2021-07-24 13:28:23</time>
      </trkpt>
      <trkpt lat="42.72903" lon="-2.43371">
        <ele>615.8</ele>
        <time>2021-07-24 13:28:27</time>
      </trkpt>
      <trkpt lat="42.72889" lon="-2.43355">
        <ele>615.4</ele>
        <time>2021-07-24 13:28:31</time>
      </trkpt>
      <trkpt lat="42.72875" lon="-2.43341">
        <ele>615.4</ele>
        <time>2021-07-24 13:28:35</time>
      </trkpt>
      <trkpt lat="42.72863" lon="-2.43327">
        <ele>615.4</ele>
        <time>2021-07-24 13:28:39</time>
      </trkpt>
      <trkpt lat="42.7285" lon="-2.43314">
        <ele>615</ele>
        <time>2021-07-24 13:28:43</time>
      </trkpt>
      <trkpt lat="42.72838" lon="-2.433">
        <ele>615.2</ele>
        <time>2021-07-24 13:28:47</time>
      </trkpt>
      <trkpt lat="42.72832" lon="-2.43286">
        <ele>614.8</ele>
        <time>2021-07-24 13:28:51</time>
      </trkpt>
      <trkpt lat="42.7283" lon="-2.43266">
        <ele>614.6</ele>
        <time>2021-07-24 13:28:55</time>
      </trkpt>
      <trkpt lat="42.72829" lon="-2.43246">
        <ele>614</ele>
        <time>2021-07-24 13:28:59</time>
      </trkpt>
      <trkpt lat="42.72831" lon="-2.43225">
        <ele>613.8</ele>
        <time>2021-07-24 13:29:03</time>
      </trkpt>
      <trkpt lat="42.72836" lon="-2.43202">
        <ele>614.2</ele>
        <time>2021-07-24 13:29:07</time>
      </trkpt>
      <trkpt lat="42.72842" lon="-2.4318">
        <ele>613.8</ele>
        <time>2021-07-24 13:29:11</time>
      </trkpt>
      <trkpt lat="42.7285" lon="-2.43162">
        <ele>613.4</ele>
        <time>2021-07-24 13:29:15</time>
      </trkpt>
      <trkpt lat="42.72855" lon="-2.43143">
        <ele>613.4</ele>
        <time>2021-07-24 13:29:19</time>
      </trkpt>
      <trkpt lat="42.72857" lon="-2.43124">
        <ele>614</ele>
        <time>2021-07-24 13:29:23</time>
      </trkpt>
      <trkpt lat="42.72859" lon="-2.43109">
        <ele>614.6</ele>
        <time>2021-07-24 13:29:27</time>
      </trkpt>
      <trkpt lat="42.7286" lon="-2.43097">
        <ele>615.2</ele>
        <time>2021-07-24 13:29:31</time>
      </trkpt>
      <trkpt lat="42.72862" lon="-2.43085">
        <ele>614.8</ele>
        <time>2021-07-24 13:29:35</time>
      </trkpt>
      <trkpt lat="42.72863" lon="-2.43066">
        <ele>614.6</ele>
        <time>2021-07-24 13:29:39</time>
      </trkpt>
      <trkpt lat="42.72866" lon="-2.43045">
        <ele>614.4</ele>
        <time>2021-07-24 13:29:43</time>
      </trkpt>
      <trkpt lat="42.72869" lon="-2.43024">
        <ele>614</ele>
        <time>2021-07-24 13:29:47</time>
      </trkpt>
      <trkpt lat="42.72873" lon="-2.43003">
        <ele>614</ele>
        <time>2021-07-24 13:29:51</time>
      </trkpt>
      <trkpt lat="42.72877" lon="-2.42989">
        <ele>614.4</ele>
        <time>2021-07-24 13:29:55</time>
      </trkpt>
      <trkpt lat="42.72877" lon="-2.42989">
        <ele>614.6</ele>
        <time>2021-07-24 13:29:59</time>
      </trkpt>
      <trkpt lat="42.72877" lon="-2.42989">
        <ele>614.4</ele>
        <time>2021-07-24 13:30:03</time>
      </trkpt>
      <trkpt lat="42.72877" lon="-2.42989">
        <ele>615</ele>
        <time>2021-07-24 13:30:07</time>
      </trkpt>
      <trkpt lat="42.72877" lon="-2.42989">
        <ele>614.6</ele>
        <time>2021-07-24 13:30:11</time>
      </trkpt>
      <trkpt lat="42.72877" lon="-2.42989">
        <ele>614.6</ele>
        <time>2021-07-24 13:30:15</time>
      </trkpt>
      <trkpt lat="42.7288" lon="-2.4298">
        <ele>614.2</ele>
        <time>2021-07-24 13:30:19</time>
      </trkpt>
      <trkpt lat="42.72882" lon="-2.42972">
        <ele>614.2</ele>
        <time>2021-07-24 13:30:23</time>
      </trkpt>
      <trkpt lat="42.72882" lon="-2.4296">
        <ele>614.2</ele>
        <time>2021-07-24 13:30:27</time>
      </trkpt>
      <trkpt lat="42.72887" lon="-2.42949">
        <ele>614.2</ele>
        <time>2021-07-24 13:30:31</time>
      </trkpt>
      <trkpt lat="42.72886" lon="-2.42937">
        <ele>614.2</ele>
        <time>2021-07-24 13:30:35</time>
      </trkpt>
      <trkpt lat="42.72888" lon="-2.42923">
        <ele>614.2</ele>
        <time>2021-07-24 13:30:39</time>
      </trkpt>
      <trkpt lat="42.72891" lon="-2.42911">
        <ele>614.6</ele>
        <time>2021-07-24 13:30:43</time>
      </trkpt>
      <trkpt lat="42.72891" lon="-2.42897">
        <ele>614.8</ele>
        <time>2021-07-24 13:30:47</time>
      </trkpt>
      <trkpt lat="42.72893" lon="-2.42885">
        <ele>615.8</ele>
        <time>2021-07-24 13:30:51</time>
      </trkpt>
      <trkpt lat="42.72893" lon="-2.42877">
        <ele>615.4</ele>
        <time>2021-07-24 13:30:55</time>
      </trkpt>
      <trkpt lat="42.72891" lon="-2.42867">
        <ele>615.8</ele>
        <time>2021-07-24 13:30:59</time>
      </trkpt>
      <trkpt lat="42.7289" lon="-2.42858">
        <ele>616</ele>
        <time>2021-07-24 13:31:03</time>
      </trkpt>
      <trkpt lat="42.72884" lon="-2.42848">
        <ele>616.6</ele>
        <time>2021-07-24 13:31:07</time>
      </trkpt>
      <trkpt lat="42.72878" lon="-2.42838">
        <ele>617</ele>
        <time>2021-07-24 13:31:11</time>
      </trkpt>
      <trkpt lat="42.72873" lon="-2.42831">
        <ele>617.6</ele>
        <time>2021-07-24 13:31:15</time>
      </trkpt>
      <trkpt lat="42.72866" lon="-2.42824">
        <ele>617.8</ele>
        <time>2021-07-24 13:31:19</time>
      </trkpt>
      <trkpt lat="42.72855" lon="-2.4282">
        <ele>618.2</ele>
        <time>2021-07-24 13:31:23</time>
      </trkpt>
      <trkpt lat="42.72844" lon="-2.42817">
        <ele>618.2</ele>
        <time>2021-07-24 13:31:27</time>
      </trkpt>
      <trkpt lat="42.72834" lon="-2.42815">
        <ele>618.2</ele>
        <time>2021-07-24 13:31:31</time>
      </trkpt>
      <trkpt lat="42.72822" lon="-2.42808">
        <ele>618.4</ele>
        <time>2021-07-24 13:31:35</time>
      </trkpt>
      <trkpt lat="42.72808" lon="-2.42802">
        <ele>618.4</ele>
        <time>2021-07-24 13:31:39</time>
      </trkpt>
      <trkpt lat="42.72794" lon="-2.42795">
        <ele>618.2</ele>
        <time>2021-07-24 13:31:43</time>
      </trkpt>
      <trkpt lat="42.7278" lon="-2.42788">
        <ele>618.4</ele>
        <time>2021-07-24 13:31:47</time>
      </trkpt>
      <trkpt lat="42.7278" lon="-2.42788">
        <ele>619.2</ele>
        <time>2021-07-24 13:31:51</time>
      </trkpt>
      <trkpt lat="42.7278" lon="-2.42788">
        <ele>619</ele>
        <time>2021-07-24 13:31:55</time>
      </trkpt>
      <trkpt lat="42.7278" lon="-2.42788">
        <ele>619</ele>
        <time>2021-07-24 13:31:59</time>
      </trkpt>
      <trkpt lat="42.7278" lon="-2.42788">
        <ele>619.4</ele>
        <time>2021-07-24 13:32:03</time>
      </trkpt>
      <trkpt lat="42.72776" lon="-2.42783">
        <ele>619</ele>
        <time>2021-07-24 13:32:07</time>
      </trkpt>
      <trkpt lat="42.72776" lon="-2.42783">
        <ele>619.2</ele>
        <time>2021-07-24 13:32:11</time>
      </trkpt>
      <trkpt lat="42.72776" lon="-2.42783">
        <ele>619.6</ele>
        <time>2021-07-24 13:32:15</time>
      </trkpt>
      <trkpt lat="42.72776" lon="-2.42783">
        <ele>619.6</ele>
        <time>2021-07-24 13:32:19</time>
      </trkpt>
      <trkpt lat="42.72776" lon="-2.42783">
        <ele>619.6</ele>
        <time>2021-07-24 13:32:23</time>
      </trkpt>
      <trkpt lat="42.72776" lon="-2.42783">
        <ele>619.4</ele>
        <time>2021-07-24 13:32:27</time>
      </trkpt>
      <trkpt lat="42.72772" lon="-2.4278">
        <ele>619.4</ele>
        <time>2021-07-24 13:32:31</time>
      </trkpt>
      <trkpt lat="42.72772" lon="-2.4278">
        <ele>619.4</ele>
        <time>2021-07-24 13:32:35</time>
      </trkpt>
      <trkpt lat="42.72772" lon="-2.4278">
        <ele>619</ele>
        <time>2021-07-24 13:32:39</time>
      </trkpt>
      <trkpt lat="42.72772" lon="-2.4278">
        <ele>619.4</ele>
        <time>2021-07-24 13:32:43</time>
      </trkpt>
      <trkpt lat="42.72772" lon="-2.4278">
        <ele>619.6</ele>
        <time>2021-07-24 13:32:47</time>
      </trkpt>
      <trkpt lat="42.72772" lon="-2.4278">
        <ele>619.2</ele>
        <time>2021-07-24 13:32:51</time>
      </trkpt>
      <trkpt lat="42.72769" lon="-2.42775">
        <ele>619.6</ele>
        <time>2021-07-24 13:32:55</time>
      </trkpt>
      <trkpt lat="42.7277" lon="-2.42777">
        <ele>619.4</ele>
        <time>2021-07-24 13:32:59</time>
      </trkpt>
      <trkpt lat="42.72772" lon="-2.4278">
        <ele>619.8</ele>
        <time>2021-07-24 13:33:03</time>
      </trkpt>
      <trkpt lat="42.7277" lon="-2.42781">
        <ele>620.6</ele>
        <time>2021-07-24 13:33:07</time>
      </trkpt>
      <trkpt lat="42.72767" lon="-2.42779">
        <ele>621.4</ele>
        <time>2021-07-24 13:33:11</time>
      </trkpt>
      <trkpt lat="42.72764" lon="-2.42777">
        <ele>622</ele>
        <time>2021-07-24 13:33:15</time>
      </trkpt>
      <trkpt lat="42.72761" lon="-2.42776">
        <ele>622</ele>
        <time>2021-07-24 13:33:19</time>
      </trkpt>
      <trkpt lat="42.72758" lon="-2.42777">
        <ele>622</ele>
        <time>2021-07-24 13:33:23</time>
      </trkpt>
      <trkpt lat="42.72755" lon="-2.42777">
        <ele>623</ele>
        <time>2021-07-24 13:33:27</time>
      </trkpt>
      <trkpt lat="42.72753" lon="-2.42777">
        <ele>623.6</ele>
        <time>2021-07-24 13:33:31</time>
      </trkpt>
      <trkpt lat="42.7275" lon="-2.42777">
        <ele>624.4</ele>
        <time>2021-07-24 13:33:35</time>
      </trkpt>
      <trkpt lat="42.72747" lon="-2.42777">
        <ele>625</ele>
        <time>2021-07-24 13:33:39</time>
      </trkpt>
      <trkpt lat="42.72743" lon="-2.42777">
        <ele>625.4</ele>
        <time>2021-07-24 13:33:43</time>
      </trkpt>
      <trkpt lat="42.7274" lon="-2.42776">
        <ele>626.4</ele>
        <time>2021-07-24 13:33:47</time>
      </trkpt>
      <trkpt lat="42.72736" lon="-2.42776">
        <ele>627.2</ele>
        <time>2021-07-24 13:33:51</time>
      </trkpt>
      <trkpt lat="42.72736" lon="-2.42776">
        <ele>626.6</ele>
        <time>2021-07-24 13:33:55</time>
      </trkpt>
      <trkpt lat="42.72736" lon="-2.42776">
        <ele>626.8</ele>
        <time>2021-07-24 13:33:59</time>
      </trkpt>
      <trkpt lat="42.72733" lon="-2.42775">
        <ele>626.8</ele>
        <time>2021-07-24 13:34:03</time>
      </trkpt>
      <trkpt lat="42.72728" lon="-2.42773">
        <ele>626.6</ele>
        <time>2021-07-24 13:34:07</time>
      </trkpt>
      <trkpt lat="42.72721" lon="-2.4277">
        <ele>626.8</ele>
        <time>2021-07-24 13:34:11</time>
      </trkpt>
      <trkpt lat="42.72716" lon="-2.42763">
        <ele>627.4</ele>
        <time>2021-07-24 13:34:15</time>
      </trkpt>
      <trkpt lat="42.7271" lon="-2.4276">
        <ele>628.4</ele>
        <time>2021-07-24 13:34:19</time>
      </trkpt>
      <trkpt lat="42.72704" lon="-2.42764">
        <ele>628.8</ele>
        <time>2021-07-24 13:34:23</time>
      </trkpt>
      <trkpt lat="42.72699" lon="-2.42764">
        <ele>628.8</ele>
        <time>2021-07-24 13:34:27</time>
      </trkpt>
      <trkpt lat="42.72693" lon="-2.42761">
        <ele>627.6</ele>
        <time>2021-07-24 13:34:31</time>
      </trkpt>
      <trkpt lat="42.72688" lon="-2.42756">
        <ele>627</ele>
        <time>2021-07-24 13:34:35</time>
      </trkpt>
      <trkpt lat="42.72682" lon="-2.42751">
        <ele>625.4</ele>
        <time>2021-07-24 13:34:39</time>
      </trkpt>
      <trkpt lat="42.72674" lon="-2.42746">
        <ele>624.4</ele>
        <time>2021-07-24 13:34:43</time>
      </trkpt>
      <trkpt lat="42.72664" lon="-2.42741">
        <ele>622.4</ele>
        <time>2021-07-24 13:34:47</time>
      </trkpt>
      <trkpt lat="42.72653" lon="-2.42735">
        <ele>621.2</ele>
        <time>2021-07-24 13:34:51</time>
      </trkpt>
      <trkpt lat="42.72646" lon="-2.4273">
        <ele>621</ele>
        <time>2021-07-24 13:34:55</time>
      </trkpt>
      <trkpt lat="42.72637" lon="-2.42727">
        <ele>619.4</ele>
        <time>2021-07-24 13:34:59</time>
      </trkpt>
      <trkpt lat="42.72628" lon="-2.42725">
        <ele>618</ele>
        <time>2021-07-24 13:35:03</time>
      </trkpt>
      <trkpt lat="42.7262" lon="-2.42722">
        <ele>616.4</ele>
        <time>2021-07-24 13:35:07</time>
      </trkpt>
      <trkpt lat="42.72605" lon="-2.42715">
        <ele>613.8</ele>
        <time>2021-07-24 13:35:11</time>
      </trkpt>
      <trkpt lat="42.72586" lon="-2.42712">
        <ele>614.2</ele>
        <time>2021-07-24 13:35:15</time>
      </trkpt>
      <trkpt lat="42.72575" lon="-2.42713">
        <ele>615.6</ele>
        <time>2021-07-24 13:35:19</time>
      </trkpt>
      <trkpt lat="42.72575" lon="-2.42713">
        <ele>616</ele>
        <time>2021-07-24 13:35:23</time>
      </trkpt>
      <trkpt lat="42.72575" lon="-2.42713">
        <ele>615.8</ele>
        <time>2021-07-24 13:35:27</time>
      </trkpt>
      <trkpt lat="42.72575" lon="-2.42713">
        <ele>615.8</ele>
        <time>2021-07-24 13:35:31</time>
      </trkpt>
      <trkpt lat="42.72572" lon="-2.42714">
        <ele>615.8</ele>
        <time>2021-07-24 13:35:35</time>
      </trkpt>
      <trkpt lat="42.72565" lon="-2.42714">
        <ele>615.8</ele>
        <time>2021-07-24 13:35:39</time>
      </trkpt>
      <trkpt lat="42.72557" lon="-2.42712">
        <ele>615.6</ele>
        <time>2021-07-24 13:35:43</time>
      </trkpt>
      <trkpt lat="42.72545" lon="-2.42711">
        <ele>615</ele>
        <time>2021-07-24 13:35:47</time>
      </trkpt>
      <trkpt lat="42.72532" lon="-2.4271">
        <ele>614.6</ele>
        <time>2021-07-24 13:35:51</time>
      </trkpt>
      <trkpt lat="42.72518" lon="-2.42711">
        <ele>614</ele>
        <time>2021-07-24 13:35:55</time>
      </trkpt>
      <trkpt lat="42.72503" lon="-2.42714">
        <ele>613.8</ele>
        <time>2021-07-24 13:35:59</time>
      </trkpt>
      <trkpt lat="42.72486" lon="-2.42716">
        <ele>613</ele>
        <time>2021-07-24 13:36:03</time>
      </trkpt>
      <trkpt lat="42.72469" lon="-2.4272">
        <ele>613.2</ele>
        <time>2021-07-24 13:36:07</time>
      </trkpt>
      <trkpt lat="42.72453" lon="-2.42725">
        <ele>613</ele>
        <time>2021-07-24 13:36:11</time>
      </trkpt>
      <trkpt lat="42.72436" lon="-2.4273">
        <ele>612.4</ele>
        <time>2021-07-24 13:36:15</time>
      </trkpt>
      <trkpt lat="42.72417" lon="-2.42734">
        <ele>612.8</ele>
        <time>2021-07-24 13:36:19</time>
      </trkpt>
      <trkpt lat="42.72401" lon="-2.4274">
        <ele>612.2</ele>
        <time>2021-07-24 13:36:23</time>
      </trkpt>
      <trkpt lat="42.72382" lon="-2.42745">
        <ele>612.2</ele>
        <time>2021-07-24 13:36:27</time>
      </trkpt>
      <trkpt lat="42.72364" lon="-2.42752">
        <ele>611.6</ele>
        <time>2021-07-24 13:36:31</time>
      </trkpt>
      <trkpt lat="42.72344" lon="-2.42758">
        <ele>611.4</ele>
        <time>2021-07-24 13:36:35</time>
      </trkpt>
      <trkpt lat="42.72324" lon="-2.42764">
        <ele>610.8</ele>
        <time>2021-07-24 13:36:39</time>
      </trkpt>
      <trkpt lat="42.72305" lon="-2.4277">
        <ele>610.8</ele>
        <time>2021-07-24 13:36:43</time>
      </trkpt>
      <trkpt lat="42.72286" lon="-2.42776">
        <ele>610.4</ele>
        <time>2021-07-24 13:36:47</time>
      </trkpt>
      <trkpt lat="42.72267" lon="-2.42782">
        <ele>610</ele>
        <time>2021-07-24 13:36:51</time>
      </trkpt>
      <trkpt lat="42.72248" lon="-2.42787">
        <ele>610.6</ele>
        <time>2021-07-24 13:36:55</time>
      </trkpt>
      <trkpt lat="42.7223" lon="-2.42794">
        <ele>610.2</ele>
        <time>2021-07-24 13:36:59</time>
      </trkpt>
      <trkpt lat="42.72213" lon="-2.42799">
        <ele>610.2</ele>
        <time>2021-07-24 13:37:03</time>
      </trkpt>
      <trkpt lat="42.72195" lon="-2.42803">
        <ele>610.6</ele>
        <time>2021-07-24 13:37:07</time>
      </trkpt>
      <trkpt lat="42.72178" lon="-2.42805">
        <ele>610.8</ele>
        <time>2021-07-24 13:37:11</time>
      </trkpt>
      <trkpt lat="42.7216" lon="-2.42805">
        <ele>610.8</ele>
        <time>2021-07-24 13:37:15</time>
      </trkpt>
      <trkpt lat="42.72143" lon="-2.42803">
        <ele>610.6</ele>
        <time>2021-07-24 13:37:19</time>
      </trkpt>
      <trkpt lat="42.72126" lon="-2.42797">
        <ele>610.6</ele>
        <time>2021-07-24 13:37:23</time>
      </trkpt>
      <trkpt lat="42.72109" lon="-2.42789">
        <ele>610</ele>
        <time>2021-07-24 13:37:27</time>
      </trkpt>
      <trkpt lat="42.72093" lon="-2.42779">
        <ele>610.6</ele>
        <time>2021-07-24 13:37:31</time>
      </trkpt>
      <trkpt lat="42.72077" lon="-2.42767">
        <ele>610.2</ele>
        <time>2021-07-24 13:37:35</time>
      </trkpt>
      <trkpt lat="42.72062" lon="-2.42755">
        <ele>610.2</ele>
        <time>2021-07-24 13:37:39</time>
      </trkpt>
      <trkpt lat="42.72048" lon="-2.42739">
        <ele>610</ele>
        <time>2021-07-24 13:37:43</time>
      </trkpt>
      <trkpt lat="42.72037" lon="-2.42725">
        <ele>610.2</ele>
        <time>2021-07-24 13:37:47</time>
      </trkpt>
      <trkpt lat="42.72026" lon="-2.4271">
        <ele>610.4</ele>
        <time>2021-07-24 13:37:51</time>
      </trkpt>
      <trkpt lat="42.72016" lon="-2.42695">
        <ele>610.6</ele>
        <time>2021-07-24 13:37:55</time>
      </trkpt>
      <trkpt lat="42.72007" lon="-2.42682">
        <ele>610.6</ele>
        <time>2021-07-24 13:37:59</time>
      </trkpt>
      <trkpt lat="42.72" lon="-2.42673">
        <ele>611.2</ele>
        <time>2021-07-24 13:38:03</time>
      </trkpt>
      <trkpt lat="42.71995" lon="-2.42668">
        <ele>611</ele>
        <time>2021-07-24 13:38:07</time>
      </trkpt>
      <trkpt lat="42.71995" lon="-2.42668">
        <ele>611.4</ele>
        <time>2021-07-24 13:38:11</time>
      </trkpt>
      <trkpt lat="42.71995" lon="-2.42666">
        <ele>611</ele>
        <time>2021-07-24 13:38:15</time>
      </trkpt>
      <trkpt lat="42.71997" lon="-2.4267">
        <ele>610.6</ele>
        <time>2021-07-24 13:38:19</time>
      </trkpt>
      <trkpt lat="42.72" lon="-2.42673">
        <ele>610.6</ele>
        <time>2021-07-24 13:38:23</time>
      </trkpt>
      <trkpt lat="42.72002" lon="-2.42675">
        <ele>610.8</ele>
        <time>2021-07-24 13:38:27</time>
      </trkpt>
      <trkpt lat="42.72002" lon="-2.42675">
        <ele>611.2</ele>
        <time>2021-07-24 13:38:31</time>
      </trkpt>
      <trkpt lat="42.72002" lon="-2.42675">
        <ele>611.2</ele>
        <time>2021-07-24 13:38:35</time>
      </trkpt>
      <trkpt lat="42.72002" lon="-2.42675">
        <ele>610.8</ele>
        <time>2021-07-24 13:38:39</time>
      </trkpt>
      <trkpt lat="42.72002" lon="-2.42675">
        <ele>610.8</ele>
        <time>2021-07-24 13:38:43</time>
      </trkpt>
      <trkpt lat="42.72002" lon="-2.42675">
        <ele>610.8</ele>
        <time>2021-07-24 13:38:47</time>
      </trkpt>
      <trkpt lat="42.72002" lon="-2.42675">
        <ele>610.6</ele>
        <time>2021-07-24 13:38:51</time>
      </trkpt>
      <trkpt lat="42.72005" lon="-2.42675">
        <ele>610.8</ele>
        <time>2021-07-24 13:38:55</time>
      </trkpt>
      <trkpt lat="42.72009" lon="-2.42673">
        <ele>610.2</ele>
        <time>2021-07-24 13:38:59</time>
      </trkpt>
      <trkpt lat="42.72012" lon="-2.42667">
        <ele>610.6</ele>
        <time>2021-07-24 13:39:03</time>
      </trkpt>
      <trkpt lat="42.72016" lon="-2.42662">
        <ele>610</ele>
        <time>2021-07-24 13:39:07</time>
      </trkpt>
      <trkpt lat="42.7202" lon="-2.42654">
        <ele>609.4</ele>
        <time>2021-07-24 13:39:11</time>
      </trkpt>
      <trkpt lat="42.72025" lon="-2.42646">
        <ele>608.6</ele>
        <time>2021-07-24 13:39:15</time>
      </trkpt>
      <trkpt lat="42.72032" lon="-2.42635">
        <ele>606.6</ele>
        <time>2021-07-24 13:39:19</time>
      </trkpt>
      <trkpt lat="42.7204" lon="-2.42625">
        <ele>606.6</ele>
        <time>2021-07-24 13:39:23</time>
      </trkpt>
      <trkpt lat="42.72045" lon="-2.42617">
        <ele>606.8</ele>
        <time>2021-07-24 13:39:27</time>
      </trkpt>
      <trkpt lat="42.7206" lon="-2.42607">
        <ele>607.8</ele>
        <time>2021-07-24 13:39:31</time>
      </trkpt>
      <trkpt lat="42.72069" lon="-2.42603">
        <ele>608.6</ele>
        <time>2021-07-24 13:39:35</time>
      </trkpt>
      <trkpt lat="42.72075" lon="-2.42602">
        <ele>609</ele>
        <time>2021-07-24 13:39:39</time>
      </trkpt>
      <trkpt lat="42.72084" lon="-2.426">
        <ele>608.6</ele>
        <time>2021-07-24 13:39:43</time>
      </trkpt>
      <trkpt lat="42.72096" lon="-2.42595">
        <ele>608.2</ele>
        <time>2021-07-24 13:39:47</time>
      </trkpt>
      <trkpt lat="42.72107" lon="-2.42588">
        <ele>608</ele>
        <time>2021-07-24 13:39:51</time>
      </trkpt>
      <trkpt lat="42.7212" lon="-2.42586">
        <ele>608.8</ele>
        <time>2021-07-24 13:39:55</time>
      </trkpt>
      <trkpt lat="42.72132" lon="-2.42586">
        <ele>608.6</ele>
        <time>2021-07-24 13:39:59</time>
      </trkpt>
      <trkpt lat="42.72144" lon="-2.42588">
        <ele>609</ele>
        <time>2021-07-24 13:40:03</time>
      </trkpt>
      <trkpt lat="42.72155" lon="-2.42592">
        <ele>609.2</ele>
        <time>2021-07-24 13:40:07</time>
      </trkpt>
      <trkpt lat="42.72165" lon="-2.42593">
        <ele>609.2</ele>
        <time>2021-07-24 13:40:11</time>
      </trkpt>
      <trkpt lat="42.7217" lon="-2.42594">
        <ele>610.6</ele>
        <time>2021-07-24 13:40:15</time>
      </trkpt>
      <trkpt lat="42.72171" lon="-2.42583">
        <ele>610.6</ele>
        <time>2021-07-24 13:40:19</time>
      </trkpt>
      <trkpt lat="42.72166" lon="-2.42571">
        <ele>610.8</ele>
        <time>2021-07-24 13:40:23</time>
      </trkpt>
      <trkpt lat="42.7216" lon="-2.42559">
        <ele>611</ele>
        <time>2021-07-24 13:40:27</time>
      </trkpt>
      <trkpt lat="42.72152" lon="-2.42549">
        <ele>611</ele>
        <time>2021-07-24 13:40:31</time>
      </trkpt>
      <trkpt lat="42.7214" lon="-2.42541">
        <ele>611</ele>
        <time>2021-07-24 13:40:35</time>
      </trkpt>
      <trkpt lat="42.72129" lon="-2.42533">
        <ele>610.6</ele>
        <time>2021-07-24 13:40:39</time>
      </trkpt>
      <trkpt lat="42.72117" lon="-2.42524">
        <ele>611</ele>
        <time>2021-07-24 13:40:43</time>
      </trkpt>
      <trkpt lat="42.72106" lon="-2.42513">
        <ele>611.4</ele>
        <time>2021-07-24 13:40:47</time>
      </trkpt>
      <trkpt lat="42.72095" lon="-2.425">
        <ele>610.8</ele>
        <time>2021-07-24 13:40:51</time>
      </trkpt>
      <trkpt lat="42.72083" lon="-2.42485">
        <ele>610</ele>
        <time>2021-07-24 13:40:55</time>
      </trkpt>
      <trkpt lat="42.72071" lon="-2.42467">
        <ele>609.2</ele>
        <time>2021-07-24 13:40:59</time>
      </trkpt>
      <trkpt lat="42.72059" lon="-2.42448">
        <ele>608.4</ele>
        <time>2021-07-24 13:41:03</time>
      </trkpt>
      <trkpt lat="42.72042" lon="-2.42433">
        <ele>608</ele>
        <time>2021-07-24 13:41:07</time>
      </trkpt>
      <trkpt lat="42.72023" lon="-2.4243">
        <ele>608</ele>
        <time>2021-07-24 13:41:11</time>
      </trkpt>
      <trkpt lat="42.72005" lon="-2.4243">
        <ele>609</ele>
        <time>2021-07-24 13:41:15</time>
      </trkpt>
      <trkpt lat="42.71989" lon="-2.42426">
        <ele>609.6</ele>
        <time>2021-07-24 13:41:19</time>
      </trkpt>
      <trkpt lat="42.71976" lon="-2.42416">
        <ele>609.6</ele>
        <time>2021-07-24 13:41:23</time>
      </trkpt>
      <trkpt lat="42.71964" lon="-2.42402">
        <ele>609</ele>
        <time>2021-07-24 13:41:27</time>
      </trkpt>
      <trkpt lat="42.71954" lon="-2.42384">
        <ele>608.6</ele>
        <time>2021-07-24 13:41:31</time>
      </trkpt>
      <trkpt lat="42.71945" lon="-2.42362">
        <ele>609.2</ele>
        <time>2021-07-24 13:41:35</time>
      </trkpt>
      <trkpt lat="42.71936" lon="-2.42339">
        <ele>608.6</ele>
        <time>2021-07-24 13:41:39</time>
      </trkpt>
      <trkpt lat="42.71926" lon="-2.42315">
        <ele>608.4</ele>
        <time>2021-07-24 13:41:43</time>
      </trkpt>
      <trkpt lat="42.71917" lon="-2.42292">
        <ele>607.8</ele>
        <time>2021-07-24 13:41:47</time>
      </trkpt>
      <trkpt lat="42.71907" lon="-2.42269">
        <ele>608</ele>
        <time>2021-07-24 13:41:51</time>
      </trkpt>
      <trkpt lat="42.71897" lon="-2.42246">
        <ele>607</ele>
        <time>2021-07-24 13:41:55</time>
      </trkpt>
      <trkpt lat="42.71889" lon="-2.42224">
        <ele>608</ele>
        <time>2021-07-24 13:41:59</time>
      </trkpt>
      <trkpt lat="42.7188" lon="-2.42201">
        <ele>608</ele>
        <time>2021-07-24 13:42:03</time>
      </trkpt>
      <trkpt lat="42.71869" lon="-2.42179">
        <ele>608.4</ele>
        <time>2021-07-24 13:42:07</time>
      </trkpt>
      <trkpt lat="42.71859" lon="-2.42162">
        <ele>609.8</ele>
        <time>2021-07-24 13:42:11</time>
      </trkpt>
      <trkpt lat="42.71849" lon="-2.42154">
        <ele>610</ele>
        <time>2021-07-24 13:42:15</time>
      </trkpt>
      <trkpt lat="42.71839" lon="-2.4215">
        <ele>610.8</ele>
        <time>2021-07-24 13:42:19</time>
      </trkpt>
      <trkpt lat="42.71827" lon="-2.42148">
        <ele>611</ele>
        <time>2021-07-24 13:42:23</time>
      </trkpt>
      <trkpt lat="42.71814" lon="-2.42143">
        <ele>611.6</ele>
        <time>2021-07-24 13:42:27</time>
      </trkpt>
      <trkpt lat="42.71801" lon="-2.42137">
        <ele>611.8</ele>
        <time>2021-07-24 13:42:31</time>
      </trkpt>
      <trkpt lat="42.71787" lon="-2.42129">
        <ele>612</ele>
        <time>2021-07-24 13:42:35</time>
      </trkpt>
      <trkpt lat="42.71772" lon="-2.42122">
        <ele>612.4</ele>
        <time>2021-07-24 13:42:39</time>
      </trkpt>
      <trkpt lat="42.71758" lon="-2.42118">
        <ele>612</ele>
        <time>2021-07-24 13:42:43</time>
      </trkpt>
      <trkpt lat="42.71741" lon="-2.42114">
        <ele>612.2</ele>
        <time>2021-07-24 13:42:47</time>
      </trkpt>
      <trkpt lat="42.71723" lon="-2.42107">
        <ele>611.8</ele>
        <time>2021-07-24 13:42:51</time>
      </trkpt>
      <trkpt lat="42.71706" lon="-2.42098">
        <ele>611</ele>
        <time>2021-07-24 13:42:55</time>
      </trkpt>
      <trkpt lat="42.71687" lon="-2.42086">
        <ele>611</ele>
        <time>2021-07-24 13:42:59</time>
      </trkpt>
      <trkpt lat="42.71667" lon="-2.42078">
        <ele>610.8</ele>
        <time>2021-07-24 13:43:03</time>
      </trkpt>
      <trkpt lat="42.71649" lon="-2.42072">
        <ele>610.4</ele>
        <time>2021-07-24 13:43:07</time>
      </trkpt>
      <trkpt lat="42.7163" lon="-2.42069">
        <ele>610</ele>
        <time>2021-07-24 13:43:11</time>
      </trkpt>
      <trkpt lat="42.71608" lon="-2.42067">
        <ele>609.4</ele>
        <time>2021-07-24 13:43:15</time>
      </trkpt>
      <trkpt lat="42.71585" lon="-2.42067">
        <ele>609.4</ele>
        <time>2021-07-24 13:43:19</time>
      </trkpt>
      <trkpt lat="42.71564" lon="-2.42066">
        <ele>609.6</ele>
        <time>2021-07-24 13:43:23</time>
      </trkpt>
      <trkpt lat="42.71546" lon="-2.42057">
        <ele>609.4</ele>
        <time>2021-07-24 13:43:27</time>
      </trkpt>
      <trkpt lat="42.71529" lon="-2.42043">
        <ele>608.8</ele>
        <time>2021-07-24 13:43:31</time>
      </trkpt>
      <trkpt lat="42.71515" lon="-2.42026">
        <ele>608.6</ele>
        <time>2021-07-24 13:43:35</time>
      </trkpt>
      <trkpt lat="42.71501" lon="-2.42007">
        <ele>608.4</ele>
        <time>2021-07-24 13:43:39</time>
      </trkpt>
      <trkpt lat="42.71486" lon="-2.41989">
        <ele>608.8</ele>
        <time>2021-07-24 13:43:43</time>
      </trkpt>
      <trkpt lat="42.71471" lon="-2.41971">
        <ele>608.4</ele>
        <time>2021-07-24 13:43:47</time>
      </trkpt>
      <trkpt lat="42.71457" lon="-2.41955">
        <ele>609</ele>
        <time>2021-07-24 13:43:51</time>
      </trkpt>
      <trkpt lat="42.71442" lon="-2.41941">
        <ele>608.6</ele>
        <time>2021-07-24 13:43:55</time>
      </trkpt>
      <trkpt lat="42.71426" lon="-2.41927">
        <ele>608.6</ele>
        <time>2021-07-24 13:43:59</time>
      </trkpt>
      <trkpt lat="42.71412" lon="-2.41913">
        <ele>609.2</ele>
        <time>2021-07-24 13:44:03</time>
      </trkpt>
      <trkpt lat="42.71397" lon="-2.41901">
        <ele>608.6</ele>
        <time>2021-07-24 13:44:07</time>
      </trkpt>
      <trkpt lat="42.71381" lon="-2.41891">
        <ele>607.8</ele>
        <time>2021-07-24 13:44:11</time>
      </trkpt>
      <trkpt lat="42.71366" lon="-2.41885">
        <ele>609.8</ele>
        <time>2021-07-24 13:44:15</time>
      </trkpt>
      <trkpt lat="42.71349" lon="-2.41883">
        <ele>608.2</ele>
        <time>2021-07-24 13:44:19</time>
      </trkpt>
      <trkpt lat="42.71332" lon="-2.41882">
        <ele>607.8</ele>
        <time>2021-07-24 13:44:23</time>
      </trkpt>
      <trkpt lat="42.71314" lon="-2.41884">
        <ele>607</ele>
        <time>2021-07-24 13:44:27</time>
      </trkpt>
      <trkpt lat="42.71297" lon="-2.41888">
        <ele>607</ele>
        <time>2021-07-24 13:44:31</time>
      </trkpt>
      <trkpt lat="42.71279" lon="-2.41894">
        <ele>607.8</ele>
        <time>2021-07-24 13:44:35</time>
      </trkpt>
      <trkpt lat="42.71263" lon="-2.41901">
        <ele>606.6</ele>
        <time>2021-07-24 13:44:39</time>
      </trkpt>
      <trkpt lat="42.71247" lon="-2.41906">
        <ele>606.2</ele>
        <time>2021-07-24 13:44:43</time>
      </trkpt>
      <trkpt lat="42.7123" lon="-2.41904">
        <ele>605.2</ele>
        <time>2021-07-24 13:44:47</time>
      </trkpt>
      <trkpt lat="42.71213" lon="-2.419">
        <ele>606.2</ele>
        <time>2021-07-24 13:44:51</time>
      </trkpt>
      <trkpt lat="42.71199" lon="-2.41897">
        <ele>605.6</ele>
        <time>2021-07-24 13:44:55</time>
      </trkpt>
      <trkpt lat="42.71185" lon="-2.41896">
        <ele>605.6</ele>
        <time>2021-07-24 13:44:59</time>
      </trkpt>
      <trkpt lat="42.71177" lon="-2.41904">
        <ele>605.8</ele>
        <time>2021-07-24 13:45:03</time>
      </trkpt>
      <trkpt lat="42.71174" lon="-2.41916">
        <ele>605</ele>
        <time>2021-07-24 13:45:07</time>
      </trkpt>
      <trkpt lat="42.71168" lon="-2.41928">
        <ele>605.2</ele>
        <time>2021-07-24 13:45:11</time>
      </trkpt>
      <trkpt lat="42.71164" lon="-2.41942">
        <ele>604</ele>
        <time>2021-07-24 13:45:15</time>
      </trkpt>
      <trkpt lat="42.71153" lon="-2.41954">
        <ele>604.6</ele>
        <time>2021-07-24 13:45:19</time>
      </trkpt>
      <trkpt lat="42.71142" lon="-2.41956">
        <ele>605</ele>
        <time>2021-07-24 13:45:23</time>
      </trkpt>
      <trkpt lat="42.71131" lon="-2.41954">
        <ele>605.4</ele>
        <time>2021-07-24 13:45:27</time>
      </trkpt>
      <trkpt lat="42.71117" lon="-2.41947">
        <ele>604.4</ele>
        <time>2021-07-24 13:45:31</time>
      </trkpt>
      <trkpt lat="42.71102" lon="-2.41939">
        <ele>604.2</ele>
        <time>2021-07-24 13:45:35</time>
      </trkpt>
      <trkpt lat="42.71086" lon="-2.41932">
        <ele>603.4</ele>
        <time>2021-07-24 13:45:39</time>
      </trkpt>
      <trkpt lat="42.7107" lon="-2.41924">
        <ele>603.8</ele>
        <time>2021-07-24 13:45:43</time>
      </trkpt>
      <trkpt lat="42.71051" lon="-2.41915">
        <ele>603.6</ele>
        <time>2021-07-24 13:45:47</time>
      </trkpt>
      <trkpt lat="42.71033" lon="-2.41905">
        <ele>602.6</ele>
        <time>2021-07-24 13:45:51</time>
      </trkpt>
      <trkpt lat="42.71014" lon="-2.41895">
        <ele>602.8</ele>
        <time>2021-07-24 13:45:55</time>
      </trkpt>
      <trkpt lat="42.70995" lon="-2.41885">
        <ele>602.2</ele>
        <time>2021-07-24 13:45:59</time>
      </trkpt>
      <trkpt lat="42.70977" lon="-2.41875">
        <ele>602.4</ele>
        <time>2021-07-24 13:46:03</time>
      </trkpt>
      <trkpt lat="42.70957" lon="-2.41865">
        <ele>602</ele>
        <time>2021-07-24 13:46:07</time>
      </trkpt>
      <trkpt lat="42.70937" lon="-2.41856">
        <ele>601</ele>
        <time>2021-07-24 13:46:11</time>
      </trkpt>
      <trkpt lat="42.70917" lon="-2.41845">
        <ele>600.6</ele>
        <time>2021-07-24 13:46:15</time>
      </trkpt>
      <trkpt lat="42.70897" lon="-2.41834">
        <ele>600.6</ele>
        <time>2021-07-24 13:46:19</time>
      </trkpt>
      <trkpt lat="42.70877" lon="-2.41824">
        <ele>600.4</ele>
        <time>2021-07-24 13:46:23</time>
      </trkpt>
      <trkpt lat="42.70859" lon="-2.41813">
        <ele>600.4</ele>
        <time>2021-07-24 13:46:27</time>
      </trkpt>
      <trkpt lat="42.70839" lon="-2.41803">
        <ele>600.4</ele>
        <time>2021-07-24 13:46:31</time>
      </trkpt>
      <trkpt lat="42.7082" lon="-2.41789">
        <ele>599</ele>
        <time>2021-07-24 13:46:35</time>
      </trkpt>
      <trkpt lat="42.70802" lon="-2.41774">
        <ele>598.6</ele>
        <time>2021-07-24 13:46:39</time>
      </trkpt>
      <trkpt lat="42.70785" lon="-2.41758">
        <ele>599</ele>
        <time>2021-07-24 13:46:43</time>
      </trkpt>
      <trkpt lat="42.7077" lon="-2.41741">
        <ele>599</ele>
        <time>2021-07-24 13:46:47</time>
      </trkpt>
      <trkpt lat="42.70754" lon="-2.41723">
        <ele>598.4</ele>
        <time>2021-07-24 13:46:51</time>
      </trkpt>
      <trkpt lat="42.7074" lon="-2.41702">
        <ele>597.6</ele>
        <time>2021-07-24 13:46:55</time>
      </trkpt>
      <trkpt lat="42.70727" lon="-2.41679">
        <ele>598</ele>
        <time>2021-07-24 13:46:59</time>
      </trkpt>
      <trkpt lat="42.70716" lon="-2.41655">
        <ele>597</ele>
        <time>2021-07-24 13:47:03</time>
      </trkpt>
      <trkpt lat="42.70705" lon="-2.41632">
        <ele>597</ele>
        <time>2021-07-24 13:47:07</time>
      </trkpt>
      <trkpt lat="42.70694" lon="-2.41609">
        <ele>596.6</ele>
        <time>2021-07-24 13:47:11</time>
      </trkpt>
      <trkpt lat="42.70682" lon="-2.41587">
        <ele>596.8</ele>
        <time>2021-07-24 13:47:15</time>
      </trkpt>
      <trkpt lat="42.70671" lon="-2.41566">
        <ele>596.6</ele>
        <time>2021-07-24 13:47:19</time>
      </trkpt>
      <trkpt lat="42.70661" lon="-2.41543">
        <ele>596</ele>
        <time>2021-07-24 13:47:23</time>
      </trkpt>
      <trkpt lat="42.70651" lon="-2.41525">
        <ele>595.6</ele>
        <time>2021-07-24 13:47:27</time>
      </trkpt>
      <trkpt lat="42.70642" lon="-2.41506">
        <ele>595.2</ele>
        <time>2021-07-24 13:47:31</time>
      </trkpt>
      <trkpt lat="42.70631" lon="-2.41485">
        <ele>594.4</ele>
        <time>2021-07-24 13:47:35</time>
      </trkpt>
      <trkpt lat="42.70618" lon="-2.41463">
        <ele>594.2</ele>
        <time>2021-07-24 13:47:39</time>
      </trkpt>
      <trkpt lat="42.70606" lon="-2.4144">
        <ele>593.8</ele>
        <time>2021-07-24 13:47:43</time>
      </trkpt>
      <trkpt lat="42.70593" lon="-2.41419">
        <ele>594</ele>
        <time>2021-07-24 13:47:47</time>
      </trkpt>
      <trkpt lat="42.70582" lon="-2.41396">
        <ele>593.8</ele>
        <time>2021-07-24 13:47:51</time>
      </trkpt>
      <trkpt lat="42.7057" lon="-2.41371">
        <ele>593.2</ele>
        <time>2021-07-24 13:47:55</time>
      </trkpt>
      <trkpt lat="42.70559" lon="-2.41345">
        <ele>593</ele>
        <time>2021-07-24 13:47:59</time>
      </trkpt>
      <trkpt lat="42.70548" lon="-2.41322">
        <ele>592.4</ele>
        <time>2021-07-24 13:48:03</time>
      </trkpt>
      <trkpt lat="42.70538" lon="-2.41301">
        <ele>592.6</ele>
        <time>2021-07-24 13:48:07</time>
      </trkpt>
      <trkpt lat="42.70529" lon="-2.41281">
        <ele>592.2</ele>
        <time>2021-07-24 13:48:11</time>
      </trkpt>
      <trkpt lat="42.7052" lon="-2.41261">
        <ele>591.8</ele>
        <time>2021-07-24 13:48:15</time>
      </trkpt>
      <trkpt lat="42.70513" lon="-2.4125">
        <ele>592.2</ele>
        <time>2021-07-24 13:48:19</time>
      </trkpt>
      <trkpt lat="42.70503" lon="-2.4125">
        <ele>590.6</ele>
        <time>2021-07-24 13:48:23</time>
      </trkpt>
      <trkpt lat="42.70455" lon="-2.4115">
        <ele>590.8</ele>
        <time>2021-07-24 13:48:27</time>
      </trkpt>
      <trkpt lat="42.70446" lon="-2.41136">
        <ele>590.6</ele>
        <time>2021-07-24 13:48:31</time>
      </trkpt>
      <trkpt lat="42.70446" lon="-2.41136">
        <ele>590.4</ele>
        <time>2021-07-24 13:48:35</time>
      </trkpt>
      <trkpt lat="42.70446" lon="-2.41136">
        <ele>590.8</ele>
        <time>2021-07-24 13:48:39</time>
      </trkpt>
      <trkpt lat="42.7044" lon="-2.41128">
        <ele>590</ele>
        <time>2021-07-24 13:48:43</time>
      </trkpt>
      <trkpt lat="42.70435" lon="-2.4112">
        <ele>589.6</ele>
        <time>2021-07-24 13:48:47</time>
      </trkpt>
      <trkpt lat="42.70426" lon="-2.41109">
        <ele>589.8</ele>
        <time>2021-07-24 13:48:51</time>
      </trkpt>
      <trkpt lat="42.70416" lon="-2.41096">
        <ele>589.4</ele>
        <time>2021-07-24 13:48:55</time>
      </trkpt>
      <trkpt lat="42.70405" lon="-2.4108">
        <ele>589.2</ele>
        <time>2021-07-24 13:48:59</time>
      </trkpt>
      <trkpt lat="42.70394" lon="-2.41067">
        <ele>588.6</ele>
        <time>2021-07-24 13:49:03</time>
      </trkpt>
      <trkpt lat="42.70382" lon="-2.41054">
        <ele>587.8</ele>
        <time>2021-07-24 13:49:07</time>
      </trkpt>
      <trkpt lat="42.7037" lon="-2.41038">
        <ele>587.8</ele>
        <time>2021-07-24 13:49:11</time>
      </trkpt>
      <trkpt lat="42.70357" lon="-2.4102">
        <ele>587.8</ele>
        <time>2021-07-24 13:49:15</time>
      </trkpt>
      <trkpt lat="42.70343" lon="-2.41003">
        <ele>587.8</ele>
        <time>2021-07-24 13:49:19</time>
      </trkpt>
      <trkpt lat="42.70328" lon="-2.40985">
        <ele>587.6</ele>
        <time>2021-07-24 13:49:23</time>
      </trkpt>
      <trkpt lat="42.70314" lon="-2.40966">
        <ele>586.6</ele>
        <time>2021-07-24 13:49:27</time>
      </trkpt>
      <trkpt lat="42.703" lon="-2.40948">
        <ele>587.2</ele>
        <time>2021-07-24 13:49:31</time>
      </trkpt>
      <trkpt lat="42.70286" lon="-2.40931">
        <ele>586.4</ele>
        <time>2021-07-24 13:49:35</time>
      </trkpt>
      <trkpt lat="42.70271" lon="-2.40912">
        <ele>586</ele>
        <time>2021-07-24 13:49:39</time>
      </trkpt>
      <trkpt lat="42.70255" lon="-2.40892">
        <ele>585.6</ele>
        <time>2021-07-24 13:49:43</time>
      </trkpt>
      <trkpt lat="42.70239" lon="-2.40872">
        <ele>585.2</ele>
        <time>2021-07-24 13:49:47</time>
      </trkpt>
      <trkpt lat="42.70223" lon="-2.40852">
        <ele>584.8</ele>
        <time>2021-07-24 13:49:51</time>
      </trkpt>
      <trkpt lat="42.70208" lon="-2.40833">
        <ele>585</ele>
        <time>2021-07-24 13:49:55</time>
      </trkpt>
      <trkpt lat="42.70193" lon="-2.40813">
        <ele>584.6</ele>
        <time>2021-07-24 13:49:59</time>
      </trkpt>
      <trkpt lat="42.70177" lon="-2.40793">
        <ele>584.4</ele>
        <time>2021-07-24 13:50:03</time>
      </trkpt>
      <trkpt lat="42.70162" lon="-2.40774">
        <ele>584.2</ele>
        <time>2021-07-24 13:50:07</time>
      </trkpt>
      <trkpt lat="42.70147" lon="-2.40753">
        <ele>582.8</ele>
        <time>2021-07-24 13:50:11</time>
      </trkpt>
      <trkpt lat="42.70131" lon="-2.40733">
        <ele>583.4</ele>
        <time>2021-07-24 13:50:15</time>
      </trkpt>
      <trkpt lat="42.70116" lon="-2.40714">
        <ele>582.8</ele>
        <time>2021-07-24 13:50:19</time>
      </trkpt>
      <trkpt lat="42.70101" lon="-2.40696">
        <ele>582.8</ele>
        <time>2021-07-24 13:50:23</time>
      </trkpt>
      <trkpt lat="42.70085" lon="-2.40677">
        <ele>581.6</ele>
        <time>2021-07-24 13:50:27</time>
      </trkpt>
      <trkpt lat="42.70069" lon="-2.40656">
        <ele>581.8</ele>
        <time>2021-07-24 13:50:31</time>
      </trkpt>
      <trkpt lat="42.70054" lon="-2.40636">
        <ele>580.8</ele>
        <time>2021-07-24 13:50:35</time>
      </trkpt>
      <trkpt lat="42.70038" lon="-2.40615">
        <ele>581.2</ele>
        <time>2021-07-24 13:50:39</time>
      </trkpt>
      <trkpt lat="42.70022" lon="-2.40595">
        <ele>580.8</ele>
        <time>2021-07-24 13:50:43</time>
      </trkpt>
      <trkpt lat="42.70007" lon="-2.40575">
        <ele>580.6</ele>
        <time>2021-07-24 13:50:47</time>
      </trkpt>
      <trkpt lat="42.69992" lon="-2.40557">
        <ele>580.8</ele>
        <time>2021-07-24 13:50:51</time>
      </trkpt>
      <trkpt lat="42.69977" lon="-2.40538">
        <ele>580.4</ele>
        <time>2021-07-24 13:50:55</time>
      </trkpt>
      <trkpt lat="42.69961" lon="-2.40518">
        <ele>579.8</ele>
        <time>2021-07-24 13:50:59</time>
      </trkpt>
      <trkpt lat="42.69946" lon="-2.40498">
        <ele>579.4</ele>
        <time>2021-07-24 13:51:03</time>
      </trkpt>
      <trkpt lat="42.69931" lon="-2.40478">
        <ele>579.6</ele>
        <time>2021-07-24 13:51:07</time>
      </trkpt>
      <trkpt lat="42.69916" lon="-2.40459">
        <ele>579.2</ele>
        <time>2021-07-24 13:51:11</time>
      </trkpt>
      <trkpt lat="42.69901" lon="-2.4044">
        <ele>578.6</ele>
        <time>2021-07-24 13:51:15</time>
      </trkpt>
      <trkpt lat="42.69886" lon="-2.4042">
        <ele>578.2</ele>
        <time>2021-07-24 13:51:19</time>
      </trkpt>
      <trkpt lat="42.6987" lon="-2.40401">
        <ele>577.6</ele>
        <time>2021-07-24 13:51:23</time>
      </trkpt>
      <trkpt lat="42.69854" lon="-2.40381">
        <ele>577.6</ele>
        <time>2021-07-24 13:51:27</time>
      </trkpt>
      <trkpt lat="42.69839" lon="-2.40362">
        <ele>577.6</ele>
        <time>2021-07-24 13:51:31</time>
      </trkpt>
      <trkpt lat="42.69823" lon="-2.40342">
        <ele>577</ele>
        <time>2021-07-24 13:51:35</time>
      </trkpt>
      <trkpt lat="42.69808" lon="-2.40322">
        <ele>577</ele>
        <time>2021-07-24 13:51:39</time>
      </trkpt>
      <trkpt lat="42.69793" lon="-2.40304">
        <ele>577.6</ele>
        <time>2021-07-24 13:51:43</time>
      </trkpt>
      <trkpt lat="42.69779" lon="-2.40286">
        <ele>577.4</ele>
        <time>2021-07-24 13:51:47</time>
      </trkpt>
      <trkpt lat="42.69764" lon="-2.40269">
        <ele>576</ele>
        <time>2021-07-24 13:51:51</time>
      </trkpt>
      <trkpt lat="42.69747" lon="-2.40249">
        <ele>576.2</ele>
        <time>2021-07-24 13:51:55</time>
      </trkpt>
      <trkpt lat="42.69732" lon="-2.40228">
        <ele>576.4</ele>
        <time>2021-07-24 13:51:59</time>
      </trkpt>
      <trkpt lat="42.69716" lon="-2.40208">
        <ele>576.2</ele>
        <time>2021-07-24 13:52:03</time>
      </trkpt>
      <trkpt lat="42.697" lon="-2.40187">
        <ele>575.6</ele>
        <time>2021-07-24 13:52:07</time>
      </trkpt>
      <trkpt lat="42.69684" lon="-2.40166">
        <ele>575.4</ele>
        <time>2021-07-24 13:52:11</time>
      </trkpt>
      <trkpt lat="42.6967" lon="-2.40145">
        <ele>575.4</ele>
        <time>2021-07-24 13:52:15</time>
      </trkpt>
      <trkpt lat="42.69655" lon="-2.40126">
        <ele>575.2</ele>
        <time>2021-07-24 13:52:19</time>
      </trkpt>
      <trkpt lat="42.6964" lon="-2.40108">
        <ele>574.8</ele>
        <time>2021-07-24 13:52:23</time>
      </trkpt>
      <trkpt lat="42.69625" lon="-2.40089">
        <ele>574.4</ele>
        <time>2021-07-24 13:52:27</time>
      </trkpt>
      <trkpt lat="42.69611" lon="-2.4007">
        <ele>574.2</ele>
        <time>2021-07-24 13:52:31</time>
      </trkpt>
      <trkpt lat="42.69597" lon="-2.40053">
        <ele>574</ele>
        <time>2021-07-24 13:52:35</time>
      </trkpt>
      <trkpt lat="42.69584" lon="-2.40035">
        <ele>574</ele>
        <time>2021-07-24 13:52:39</time>
      </trkpt>
      <trkpt lat="42.69569" lon="-2.40017">
        <ele>573.2</ele>
        <time>2021-07-24 13:52:43</time>
      </trkpt>
      <trkpt lat="42.69554" lon="-2.39998">
        <ele>573.2</ele>
        <time>2021-07-24 13:52:47</time>
      </trkpt>
      <trkpt lat="42.6954" lon="-2.39979">
        <ele>572.6</ele>
        <time>2021-07-24 13:52:51</time>
      </trkpt>
      <trkpt lat="42.69524" lon="-2.3996">
        <ele>572.2</ele>
        <time>2021-07-24 13:52:55</time>
      </trkpt>
      <trkpt lat="42.69509" lon="-2.39942">
        <ele>572.6</ele>
        <time>2021-07-24 13:52:59</time>
      </trkpt>
      <trkpt lat="42.69495" lon="-2.39927">
        <ele>572.6</ele>
        <time>2021-07-24 13:53:03</time>
      </trkpt>
      <trkpt lat="42.69482" lon="-2.39917">
        <ele>572.8</ele>
        <time>2021-07-24 13:53:07</time>
      </trkpt>
      <trkpt lat="42.6947" lon="-2.39913">
        <ele>573</ele>
        <time>2021-07-24 13:53:11</time>
      </trkpt>
      <trkpt lat="42.69461" lon="-2.39907">
        <ele>573.6</ele>
        <time>2021-07-24 13:53:15</time>
      </trkpt>
      <trkpt lat="42.69454" lon="-2.39903">
        <ele>574.8</ele>
        <time>2021-07-24 13:53:19</time>
      </trkpt>
      <trkpt lat="42.69447" lon="-2.399">
        <ele>575.6</ele>
        <time>2021-07-24 13:53:23</time>
      </trkpt>
      <trkpt lat="42.69439" lon="-2.39898">
        <ele>576.8</ele>
        <time>2021-07-24 13:53:27</time>
      </trkpt>
      <trkpt lat="42.69433" lon="-2.39896">
        <ele>577</ele>
        <time>2021-07-24 13:53:31</time>
      </trkpt>
      <trkpt lat="42.69426" lon="-2.39895">
        <ele>578.2</ele>
        <time>2021-07-24 13:53:35</time>
      </trkpt>
      <trkpt lat="42.6942" lon="-2.39896">
        <ele>578.4</ele>
        <time>2021-07-24 13:53:39</time>
      </trkpt>
      <trkpt lat="42.69415" lon="-2.39895">
        <ele>578.6</ele>
        <time>2021-07-24 13:53:43</time>
      </trkpt>
      <trkpt lat="42.6941" lon="-2.39896">
        <ele>578.6</ele>
        <time>2021-07-24 13:53:47</time>
      </trkpt>
      <trkpt lat="42.69403" lon="-2.39897">
        <ele>578.2</ele>
        <time>2021-07-24 13:53:51</time>
      </trkpt>
      <trkpt lat="42.69394" lon="-2.39898">
        <ele>578.8</ele>
        <time>2021-07-24 13:53:55</time>
      </trkpt>
      <trkpt lat="42.69385" lon="-2.39899">
        <ele>578.8</ele>
        <time>2021-07-24 13:53:59</time>
      </trkpt>
      <trkpt lat="42.69376" lon="-2.39899">
        <ele>578.8</ele>
        <time>2021-07-24 13:54:03</time>
      </trkpt>
      <trkpt lat="42.69368" lon="-2.39901">
        <ele>579</ele>
        <time>2021-07-24 13:54:07</time>
      </trkpt>
      <trkpt lat="42.69368" lon="-2.39901">
        <ele>579.2</ele>
        <time>2021-07-24 13:54:11</time>
      </trkpt>
      <trkpt lat="42.69368" lon="-2.39901">
        <ele>579.2</ele>
        <time>2021-07-24 13:54:15</time>
      </trkpt>
      <trkpt lat="42.69368" lon="-2.39901">
        <ele>579</ele>
        <time>2021-07-24 13:54:19</time>
      </trkpt>
      <trkpt lat="42.69368" lon="-2.39901">
        <ele>579.4</ele>
        <time>2021-07-24 13:54:23</time>
      </trkpt>
      <trkpt lat="42.69368" lon="-2.39901">
        <ele>579.4</ele>
        <time>2021-07-24 13:54:27</time>
      </trkpt>
      <trkpt lat="42.69368" lon="-2.39901">
        <ele>579</ele>
        <time>2021-07-24 13:54:31</time>
      </trkpt>
      <trkpt lat="42.69368" lon="-2.39901">
        <ele>579</ele>
        <time>2021-07-24 13:54:35</time>
      </trkpt>
      <trkpt lat="42.69368" lon="-2.39901">
        <ele>579.2</ele>
        <time>2021-07-24 13:54:39</time>
      </trkpt>
      <trkpt lat="42.69368" lon="-2.39901">
        <ele>579</ele>
        <time>2021-07-24 13:54:43</time>
      </trkpt>
      <trkpt lat="42.69368" lon="-2.39901">
        <ele>579.2</ele>
        <time>2021-07-24 13:54:47</time>
      </trkpt>
      <trkpt lat="42.69368" lon="-2.39901">
        <ele>579.2</ele>
        <time>2021-07-24 13:54:51</time>
      </trkpt>
      <trkpt lat="42.69362" lon="-2.39901">
        <ele>579</ele>
        <time>2021-07-24 13:54:55</time>
      </trkpt>
      <trkpt lat="42.69354" lon="-2.39902">
        <ele>579.2</ele>
        <time>2021-07-24 13:54:59</time>
      </trkpt>
      <trkpt lat="42.69347" lon="-2.39897">
        <ele>578.4</ele>
        <time>2021-07-24 13:55:03</time>
      </trkpt>
      <trkpt lat="42.69335" lon="-2.39886">
        <ele>576.8</ele>
        <time>2021-07-24 13:55:07</time>
      </trkpt>
      <trkpt lat="42.69323" lon="-2.39872">
        <ele>575</ele>
        <time>2021-07-24 13:55:11</time>
      </trkpt>
      <trkpt lat="42.69308" lon="-2.39857">
        <ele>573</ele>
        <time>2021-07-24 13:55:15</time>
      </trkpt>
      <trkpt lat="42.69294" lon="-2.39841">
        <ele>572</ele>
        <time>2021-07-24 13:55:19</time>
      </trkpt>
      <trkpt lat="42.69278" lon="-2.39824">
        <ele>571.8</ele>
        <time>2021-07-24 13:55:23</time>
      </trkpt>
      <trkpt lat="42.69267" lon="-2.39811">
        <ele>571.8</ele>
        <time>2021-07-24 13:55:27</time>
      </trkpt>
      <trkpt lat="42.69259" lon="-2.39802">
        <ele>572</ele>
        <time>2021-07-24 13:55:31</time>
      </trkpt>
      <trkpt lat="42.69259" lon="-2.39802">
        <ele>571.8</ele>
        <time>2021-07-24 13:55:35</time>
      </trkpt>
      <trkpt lat="42.69259" lon="-2.39802">
        <ele>572.2</ele>
        <time>2021-07-24 13:55:39</time>
      </trkpt>
      <trkpt lat="42.69259" lon="-2.39802">
        <ele>571.8</ele>
        <time>2021-07-24 13:55:43</time>
      </trkpt>
      <trkpt lat="42.69259" lon="-2.39802">
        <ele>571.8</ele>
        <time>2021-07-24 13:55:47</time>
      </trkpt>
      <trkpt lat="42.69259" lon="-2.39802">
        <ele>572</ele>
        <time>2021-07-24 13:55:51</time>
      </trkpt>
      <trkpt lat="42.69259" lon="-2.39802">
        <ele>571.8</ele>
        <time>2021-07-24 13:55:55</time>
      </trkpt>
      <trkpt lat="42.69259" lon="-2.39802">
        <ele>572</ele>
        <time>2021-07-24 13:55:59</time>
      </trkpt>
      <trkpt lat="42.69257" lon="-2.398">
        <ele>572.4</ele>
        <time>2021-07-24 13:56:03</time>
      </trkpt>
      <trkpt lat="42.69257" lon="-2.398">
        <ele>572.2</ele>
        <time>2021-07-24 13:56:07</time>
      </trkpt>
      <trkpt lat="42.69255" lon="-2.39797">
        <ele>572.4</ele>
        <time>2021-07-24 13:56:11</time>
      </trkpt>
      <trkpt lat="42.69253" lon="-2.39793">
        <ele>572.4</ele>
        <time>2021-07-24 13:56:15</time>
      </trkpt>
      <trkpt lat="42.6925" lon="-2.3979">
        <ele>571.6</ele>
        <time>2021-07-24 13:56:19</time>
      </trkpt>
      <trkpt lat="42.69248" lon="-2.39788">
        <ele>572.2</ele>
        <time>2021-07-24 13:56:23</time>
      </trkpt>
      <trkpt lat="42.69246" lon="-2.39785">
        <ele>572</ele>
        <time>2021-07-24 13:56:27</time>
      </trkpt>
      <trkpt lat="42.69246" lon="-2.39785">
        <ele>572.2</ele>
        <time>2021-07-24 13:56:31</time>
      </trkpt>
      <trkpt lat="42.69246" lon="-2.39785">
        <ele>572.2</ele>
        <time>2021-07-24 13:56:35</time>
      </trkpt>
      <trkpt lat="42.69246" lon="-2.39785">
        <ele>572.2</ele>
        <time>2021-07-24 13:56:39</time>
      </trkpt>
      <trkpt lat="42.69246" lon="-2.39785">
        <ele>572.4</ele>
        <time>2021-07-24 13:56:43</time>
      </trkpt>
      <trkpt lat="42.69245" lon="-2.39784">
        <ele>572.6</ele>
        <time>2021-07-24 13:56:47</time>
      </trkpt>
      <trkpt lat="42.69242" lon="-2.39787">
        <ele>573</ele>
        <time>2021-07-24 13:56:51</time>
      </trkpt>
      <trkpt lat="42.69239" lon="-2.39793">
        <ele>572.8</ele>
        <time>2021-07-24 13:56:55</time>
      </trkpt>
      <trkpt lat="42.69236" lon="-2.39797">
        <ele>572.4</ele>
        <time>2021-07-24 13:56:59</time>
      </trkpt>
      <trkpt lat="42.69233" lon="-2.39806">
        <ele>572.6</ele>
        <time>2021-07-24 13:57:03</time>
      </trkpt>
      <trkpt lat="42.6923" lon="-2.39816">
        <ele>572.2</ele>
        <time>2021-07-24 13:57:07</time>
      </trkpt>
      <trkpt lat="42.69225" lon="-2.39827">
        <ele>572.4</ele>
        <time>2021-07-24 13:57:11</time>
      </trkpt>
      <trkpt lat="42.69222" lon="-2.39837">
        <ele>573</ele>
        <time>2021-07-24 13:57:15</time>
      </trkpt>
      <trkpt lat="42.6922" lon="-2.39843">
        <ele>573.2</ele>
        <time>2021-07-24 13:57:19</time>
      </trkpt>
      <trkpt lat="42.69214" lon="-2.39844">
        <ele>573.6</ele>
        <time>2021-07-24 13:57:23</time>
      </trkpt>
      <trkpt lat="42.69205" lon="-2.3984">
        <ele>574</ele>
        <time>2021-07-24 13:57:27</time>
      </trkpt>
      <trkpt lat="42.69196" lon="-2.39837">
        <ele>573.8</ele>
        <time>2021-07-24 13:57:31</time>
      </trkpt>
      <trkpt lat="42.69186" lon="-2.39834">
        <ele>574.2</ele>
        <time>2021-07-24 13:57:35</time>
      </trkpt>
      <trkpt lat="42.69177" lon="-2.39828">
        <ele>574.6</ele>
        <time>2021-07-24 13:57:39</time>
      </trkpt>
      <trkpt lat="42.69167" lon="-2.39822">
        <ele>574.4</ele>
        <time>2021-07-24 13:57:43</time>
      </trkpt>
      <trkpt lat="42.69157" lon="-2.39815">
        <ele>574.8</ele>
        <time>2021-07-24 13:57:47</time>
      </trkpt>
      <trkpt lat="42.69146" lon="-2.39807">
        <ele>574.6</ele>
        <time>2021-07-24 13:57:51</time>
      </trkpt>
      <trkpt lat="42.69135" lon="-2.398">
        <ele>574.8</ele>
        <time>2021-07-24 13:57:55</time>
      </trkpt>
      <trkpt lat="42.69123" lon="-2.39792">
        <ele>574.6</ele>
        <time>2021-07-24 13:57:59</time>
      </trkpt>
      <trkpt lat="42.69111" lon="-2.39785">
        <ele>575.2</ele>
        <time>2021-07-24 13:58:03</time>
      </trkpt>
      <trkpt lat="42.69099" lon="-2.39779">
        <ele>575.4</ele>
        <time>2021-07-24 13:58:07</time>
      </trkpt>
      <trkpt lat="42.69086" lon="-2.39777">
        <ele>576</ele>
        <time>2021-07-24 13:58:11</time>
      </trkpt>
      <trkpt lat="42.69076" lon="-2.39773">
        <ele>575.8</ele>
        <time>2021-07-24 13:58:15</time>
      </trkpt>
      <trkpt lat="42.69065" lon="-2.3977">
        <ele>576.8</ele>
        <time>2021-07-24 13:58:19</time>
      </trkpt>
      <trkpt lat="42.69054" lon="-2.39769">
        <ele>577.6</ele>
        <time>2021-07-24 13:58:23</time>
      </trkpt>
      <trkpt lat="42.69046" lon="-2.39768">
        <ele>578.2</ele>
        <time>2021-07-24 13:58:27</time>
      </trkpt>
      <trkpt lat="42.69037" lon="-2.39763">
        <ele>579.2</ele>
        <time>2021-07-24 13:58:31</time>
      </trkpt>
      <trkpt lat="42.69028" lon="-2.39759">
        <ele>579.2</ele>
        <time>2021-07-24 13:58:35</time>
      </trkpt>
      <trkpt lat="42.69019" lon="-2.39756">
        <ele>579.6</ele>
        <time>2021-07-24 13:58:39</time>
      </trkpt>
      <trkpt lat="42.6901" lon="-2.39751">
        <ele>580.2</ele>
        <time>2021-07-24 13:58:43</time>
      </trkpt>
      <trkpt lat="42.69003" lon="-2.39746">
        <ele>580.6</ele>
        <time>2021-07-24 13:58:47</time>
      </trkpt>
      <trkpt lat="42.68994" lon="-2.39741">
        <ele>580.8</ele>
        <time>2021-07-24 13:58:51</time>
      </trkpt>
      <trkpt lat="42.68986" lon="-2.39735">
        <ele>581.4</ele>
        <time>2021-07-24 13:58:55</time>
      </trkpt>
      <trkpt lat="42.68978" lon="-2.3973">
        <ele>581.4</ele>
        <time>2021-07-24 13:58:59</time>
      </trkpt>
      <trkpt lat="42.68968" lon="-2.39722">
        <ele>580.8</ele>
        <time>2021-07-24 13:59:03</time>
      </trkpt>
      <trkpt lat="42.68957" lon="-2.39713">
        <ele>580.8</ele>
        <time>2021-07-24 13:59:07</time>
      </trkpt>
      <trkpt lat="42.68945" lon="-2.39702">
        <ele>580.8</ele>
        <time>2021-07-24 13:59:11</time>
      </trkpt>
      <trkpt lat="42.68933" lon="-2.39693">
        <ele>580.6</ele>
        <time>2021-07-24 13:59:15</time>
      </trkpt>
      <trkpt lat="42.68923" lon="-2.39686">
        <ele>581</ele>
        <time>2021-07-24 13:59:19</time>
      </trkpt>
      <trkpt lat="42.68914" lon="-2.3968">
        <ele>581.4</ele>
        <time>2021-07-24 13:59:23</time>
      </trkpt>
      <trkpt lat="42.68905" lon="-2.39676">
        <ele>582</ele>
        <time>2021-07-24 13:59:27</time>
      </trkpt>
      <trkpt lat="42.68896" lon="-2.39672">
        <ele>582</ele>
        <time>2021-07-24 13:59:31</time>
      </trkpt>
      <trkpt lat="42.68887" lon="-2.39668">
        <ele>581.8</ele>
        <time>2021-07-24 13:59:35</time>
      </trkpt>
      <trkpt lat="42.68876" lon="-2.39663">
        <ele>581.6</ele>
        <time>2021-07-24 13:59:39</time>
      </trkpt>
      <trkpt lat="42.68864" lon="-2.39658">
        <ele>581.6</ele>
        <time>2021-07-24 13:59:43</time>
      </trkpt>
      <trkpt lat="42.68851" lon="-2.39652">
        <ele>582</ele>
        <time>2021-07-24 13:59:47</time>
      </trkpt>
      <trkpt lat="42.68839" lon="-2.39647">
        <ele>582</ele>
        <time>2021-07-24 13:59:51</time>
      </trkpt>
      <trkpt lat="42.68826" lon="-2.39642">
        <ele>582</ele>
        <time>2021-07-24 13:59:55</time>
      </trkpt>
      <trkpt lat="42.68812" lon="-2.39634">
        <ele>581</ele>
        <time>2021-07-24 13:59:59</time>
      </trkpt>
      <trkpt lat="42.68796" lon="-2.39625">
        <ele>581.2</ele>
        <time>2021-07-24 14:00:03</time>
      </trkpt>
      <trkpt lat="42.68779" lon="-2.39615">
        <ele>580.8</ele>
        <time>2021-07-24 14:00:07</time>
      </trkpt>
      <trkpt lat="42.68761" lon="-2.39609">
        <ele>581.4</ele>
        <time>2021-07-24 14:00:11</time>
      </trkpt>
      <trkpt lat="42.68745" lon="-2.39607">
        <ele>580.6</ele>
        <time>2021-07-24 14:00:15</time>
      </trkpt>
      <trkpt lat="42.68729" lon="-2.39607">
        <ele>580.2</ele>
        <time>2021-07-24 14:00:19</time>
      </trkpt>
      <trkpt lat="42.68716" lon="-2.39604">
        <ele>579.4</ele>
        <time>2021-07-24 14:00:23</time>
      </trkpt>
      <trkpt lat="42.68714" lon="-2.39594">
        <ele>577.6</ele>
        <time>2021-07-24 14:00:27</time>
      </trkpt>
      <trkpt lat="42.68714" lon="-2.39576">
        <ele>577.8</ele>
        <time>2021-07-24 14:00:31</time>
      </trkpt>
      <trkpt lat="42.68718" lon="-2.39557">
        <ele>576.8</ele>
        <time>2021-07-24 14:00:35</time>
      </trkpt>
      <trkpt lat="42.68713" lon="-2.39542">
        <ele>576.6</ele>
        <time>2021-07-24 14:00:39</time>
      </trkpt>
      <trkpt lat="42.68697" lon="-2.39534">
        <ele>576.6</ele>
        <time>2021-07-24 14:00:43</time>
      </trkpt>
      <trkpt lat="42.68684" lon="-2.39525">
        <ele>574.8</ele>
        <time>2021-07-24 14:00:47</time>
      </trkpt>
      <trkpt lat="42.6867" lon="-2.39519">
        <ele>573.2</ele>
        <time>2021-07-24 14:00:51</time>
      </trkpt>
      <trkpt lat="42.68653" lon="-2.39512">
        <ele>572.6</ele>
        <time>2021-07-24 14:00:55</time>
      </trkpt>
      <trkpt lat="42.68635" lon="-2.39506">
        <ele>571.4</ele>
        <time>2021-07-24 14:00:59</time>
      </trkpt>
      <trkpt lat="42.68615" lon="-2.39497">
        <ele>569.8</ele>
        <time>2021-07-24 14:01:03</time>
      </trkpt>
      <trkpt lat="42.68593" lon="-2.39488">
        <ele>568.8</ele>
        <time>2021-07-24 14:01:07</time>
      </trkpt>
      <trkpt lat="42.68571" lon="-2.39478">
        <ele>569</ele>
        <time>2021-07-24 14:01:11</time>
      </trkpt>
      <trkpt lat="42.6855" lon="-2.39467">
        <ele>568</ele>
        <time>2021-07-24 14:01:15</time>
      </trkpt>
      <trkpt lat="42.6853" lon="-2.39455">
        <ele>568.2</ele>
        <time>2021-07-24 14:01:19</time>
      </trkpt>
      <trkpt lat="42.68511" lon="-2.39444">
        <ele>568.2</ele>
        <time>2021-07-24 14:01:23</time>
      </trkpt>
      <trkpt lat="42.68492" lon="-2.39435">
        <ele>568.2</ele>
        <time>2021-07-24 14:01:27</time>
      </trkpt>
      <trkpt lat="42.68473" lon="-2.39426">
        <ele>567.4</ele>
        <time>2021-07-24 14:01:31</time>
      </trkpt>
      <trkpt lat="42.68455" lon="-2.39415">
        <ele>567</ele>
        <time>2021-07-24 14:01:35</time>
      </trkpt>
      <trkpt lat="42.68437" lon="-2.39405">
        <ele>567</ele>
        <time>2021-07-24 14:01:39</time>
      </trkpt>
      <trkpt lat="42.68419" lon="-2.39394">
        <ele>566.8</ele>
        <time>2021-07-24 14:01:43</time>
      </trkpt>
      <trkpt lat="42.684" lon="-2.39383">
        <ele>566.6</ele>
        <time>2021-07-24 14:01:47</time>
      </trkpt>
      <trkpt lat="42.68382" lon="-2.39373">
        <ele>566.2</ele>
        <time>2021-07-24 14:01:51</time>
      </trkpt>
      <trkpt lat="42.68364" lon="-2.39363">
        <ele>566.4</ele>
        <time>2021-07-24 14:01:55</time>
      </trkpt>
      <trkpt lat="42.68346" lon="-2.39355">
        <ele>565.8</ele>
        <time>2021-07-24 14:01:59</time>
      </trkpt>
      <trkpt lat="42.68329" lon="-2.39346">
        <ele>566</ele>
        <time>2021-07-24 14:02:03</time>
      </trkpt>
      <trkpt lat="42.68311" lon="-2.39335">
        <ele>565.8</ele>
        <time>2021-07-24 14:02:07</time>
      </trkpt>
      <trkpt lat="42.68292" lon="-2.39324">
        <ele>565.6</ele>
        <time>2021-07-24 14:02:11</time>
      </trkpt>
      <trkpt lat="42.68274" lon="-2.39315">
        <ele>565.2</ele>
        <time>2021-07-24 14:02:15</time>
      </trkpt>
      <trkpt lat="42.68255" lon="-2.39304">
        <ele>564.8</ele>
        <time>2021-07-24 14:02:19</time>
      </trkpt>
      <trkpt lat="42.68235" lon="-2.39293">
        <ele>565.4</ele>
        <time>2021-07-24 14:02:23</time>
      </trkpt>
      <trkpt lat="42.68217" lon="-2.39283">
        <ele>565.4</ele>
        <time>2021-07-24 14:02:27</time>
      </trkpt>
      <trkpt lat="42.68203" lon="-2.39277">
        <ele>565.2</ele>
        <time>2021-07-24 14:02:31</time>
      </trkpt>
      <trkpt lat="42.68196" lon="-2.39273">
        <ele>564.6</ele>
        <time>2021-07-24 14:02:35</time>
      </trkpt>
      <trkpt lat="42.68186" lon="-2.39267">
        <ele>564.4</ele>
        <time>2021-07-24 14:02:39</time>
      </trkpt>
      <trkpt lat="42.68174" lon="-2.39259">
        <ele>564</ele>
        <time>2021-07-24 14:02:43</time>
      </trkpt>
      <trkpt lat="42.68161" lon="-2.39252">
        <ele>563.6</ele>
        <time>2021-07-24 14:02:47</time>
      </trkpt>
      <trkpt lat="42.68147" lon="-2.39244">
        <ele>563.2</ele>
        <time>2021-07-24 14:02:51</time>
      </trkpt>
      <trkpt lat="42.68131" lon="-2.39236">
        <ele>563.2</ele>
        <time>2021-07-24 14:02:55</time>
      </trkpt>
      <trkpt lat="42.68114" lon="-2.39228">
        <ele>563.2</ele>
        <time>2021-07-24 14:02:59</time>
      </trkpt>
      <trkpt lat="42.68097" lon="-2.39221">
        <ele>562.4</ele>
        <time>2021-07-24 14:03:03</time>
      </trkpt>
      <trkpt lat="42.68078" lon="-2.39213">
        <ele>562.2</ele>
        <time>2021-07-24 14:03:07</time>
      </trkpt>
      <trkpt lat="42.6806" lon="-2.39205">
        <ele>562.2</ele>
        <time>2021-07-24 14:03:11</time>
      </trkpt>
      <trkpt lat="42.68042" lon="-2.39197">
        <ele>562.6</ele>
        <time>2021-07-24 14:03:15</time>
      </trkpt>
      <trkpt lat="42.68024" lon="-2.3919">
        <ele>561.8</ele>
        <time>2021-07-24 14:03:19</time>
      </trkpt>
      <trkpt lat="42.68004" lon="-2.39184">
        <ele>561.8</ele>
        <time>2021-07-24 14:03:23</time>
      </trkpt>
      <trkpt lat="42.67985" lon="-2.39177">
        <ele>561.4</ele>
        <time>2021-07-24 14:03:27</time>
      </trkpt>
      <trkpt lat="42.67966" lon="-2.3917">
        <ele>560.8</ele>
        <time>2021-07-24 14:03:31</time>
      </trkpt>
      <trkpt lat="42.67948" lon="-2.39161">
        <ele>560.4</ele>
        <time>2021-07-24 14:03:35</time>
      </trkpt>
      <trkpt lat="42.67929" lon="-2.3915">
        <ele>560.8</ele>
        <time>2021-07-24 14:03:39</time>
      </trkpt>
      <trkpt lat="42.67911" lon="-2.39142">
        <ele>560.6</ele>
        <time>2021-07-24 14:03:43</time>
      </trkpt>
      <trkpt lat="42.67897" lon="-2.39137">
        <ele>560.6</ele>
        <time>2021-07-24 14:03:47</time>
      </trkpt>
      <trkpt lat="42.67885" lon="-2.39131">
        <ele>560.6</ele>
        <time>2021-07-24 14:03:51</time>
      </trkpt>
      <trkpt lat="42.67873" lon="-2.39125">
        <ele>560.8</ele>
        <time>2021-07-24 14:03:55</time>
      </trkpt>
      <trkpt lat="42.67859" lon="-2.39119">
        <ele>560.4</ele>
        <time>2021-07-24 14:03:59</time>
      </trkpt>
      <trkpt lat="42.67843" lon="-2.39112">
        <ele>560.4</ele>
        <time>2021-07-24 14:04:03</time>
      </trkpt>
      <trkpt lat="42.67827" lon="-2.39105">
        <ele>560.4</ele>
        <time>2021-07-24 14:04:07</time>
      </trkpt>
      <trkpt lat="42.67812" lon="-2.39099">
        <ele>560</ele>
        <time>2021-07-24 14:04:11</time>
      </trkpt>
      <trkpt lat="42.67795" lon="-2.39091">
        <ele>559.2</ele>
        <time>2021-07-24 14:04:15</time>
      </trkpt>
      <trkpt lat="42.67779" lon="-2.39084">
        <ele>558.8</ele>
        <time>2021-07-24 14:04:19</time>
      </trkpt>
      <trkpt lat="42.67763" lon="-2.39076">
        <ele>557.6</ele>
        <time>2021-07-24 14:04:23</time>
      </trkpt>
      <trkpt lat="42.67746" lon="-2.39066">
        <ele>557.6</ele>
        <time>2021-07-24 14:04:27</time>
      </trkpt>
      <trkpt lat="42.67729" lon="-2.39052">
        <ele>557.6</ele>
        <time>2021-07-24 14:04:31</time>
      </trkpt>
      <trkpt lat="42.67714" lon="-2.39038">
        <ele>557.6</ele>
        <time>2021-07-24 14:04:35</time>
      </trkpt>
      <trkpt lat="42.67701" lon="-2.39024">
        <ele>557.4</ele>
        <time>2021-07-24 14:04:39</time>
      </trkpt>
      <trkpt lat="42.67694" lon="-2.39014">
        <ele>557.4</ele>
        <time>2021-07-24 14:04:43</time>
      </trkpt>
      <trkpt lat="42.67689" lon="-2.39004">
        <ele>556.8</ele>
        <time>2021-07-24 14:04:47</time>
      </trkpt>
      <trkpt lat="42.67683" lon="-2.3899">
        <ele>556</ele>
        <time>2021-07-24 14:04:51</time>
      </trkpt>
      <trkpt lat="42.67675" lon="-2.38972">
        <ele>556</ele>
        <time>2021-07-24 14:04:55</time>
      </trkpt>
      <trkpt lat="42.6767" lon="-2.38961">
        <ele>555.8</ele>
        <time>2021-07-24 14:04:59</time>
      </trkpt>
      <trkpt lat="42.67664" lon="-2.38948">
        <ele>556</ele>
        <time>2021-07-24 14:05:03</time>
      </trkpt>
      <trkpt lat="42.67658" lon="-2.38935">
        <ele>555.4</ele>
        <time>2021-07-24 14:05:07</time>
      </trkpt>
      <trkpt lat="42.67651" lon="-2.3892">
        <ele>555.6</ele>
        <time>2021-07-24 14:05:11</time>
      </trkpt>
      <trkpt lat="42.67643" lon="-2.38904">
        <ele>554.8</ele>
        <time>2021-07-24 14:05:15</time>
      </trkpt>
      <trkpt lat="42.67636" lon="-2.38888">
        <ele>554.8</ele>
        <time>2021-07-24 14:05:19</time>
      </trkpt>
      <trkpt lat="42.67628" lon="-2.38871">
        <ele>554.2</ele>
        <time>2021-07-24 14:05:23</time>
      </trkpt>
      <trkpt lat="42.67621" lon="-2.38854">
        <ele>554.4</ele>
        <time>2021-07-24 14:05:27</time>
      </trkpt>
      <trkpt lat="42.67616" lon="-2.38837">
        <ele>554</ele>
        <time>2021-07-24 14:05:31</time>
      </trkpt>
      <trkpt lat="42.67613" lon="-2.3882">
        <ele>553</ele>
        <time>2021-07-24 14:05:35</time>
      </trkpt>
      <trkpt lat="42.67609" lon="-2.38801">
        <ele>553.2</ele>
        <time>2021-07-24 14:05:39</time>
      </trkpt>
      <trkpt lat="42.67607" lon="-2.38778">
        <ele>552.4</ele>
        <time>2021-07-24 14:05:43</time>
      </trkpt>
      <trkpt lat="42.67606" lon="-2.38752">
        <ele>552.2</ele>
        <time>2021-07-24 14:05:47</time>
      </trkpt>
      <trkpt lat="42.67608" lon="-2.38725">
        <ele>551.4</ele>
        <time>2021-07-24 14:05:51</time>
      </trkpt>
      <trkpt lat="42.6761" lon="-2.38699">
        <ele>550.6</ele>
        <time>2021-07-24 14:05:55</time>
      </trkpt>
      <trkpt lat="42.67614" lon="-2.38673">
        <ele>549.8</ele>
        <time>2021-07-24 14:05:59</time>
      </trkpt>
      <trkpt lat="42.67617" lon="-2.38648">
        <ele>550.2</ele>
        <time>2021-07-24 14:06:03</time>
      </trkpt>
      <trkpt lat="42.67618" lon="-2.38622">
        <ele>550.2</ele>
        <time>2021-07-24 14:06:07</time>
      </trkpt>
      <trkpt lat="42.67621" lon="-2.38595">
        <ele>549.6</ele>
        <time>2021-07-24 14:06:11</time>
      </trkpt>
      <trkpt lat="42.67624" lon="-2.38567">
        <ele>549.6</ele>
        <time>2021-07-24 14:06:15</time>
      </trkpt>
      <trkpt lat="42.67628" lon="-2.38538">
        <ele>548.6</ele>
        <time>2021-07-24 14:06:19</time>
      </trkpt>
      <trkpt lat="42.6763" lon="-2.3851">
        <ele>548.2</ele>
        <time>2021-07-24 14:06:23</time>
      </trkpt>
      <trkpt lat="42.67633" lon="-2.38482">
        <ele>547.4</ele>
        <time>2021-07-24 14:06:27</time>
      </trkpt>
      <trkpt lat="42.67635" lon="-2.38455">
        <ele>546.8</ele>
        <time>2021-07-24 14:06:31</time>
      </trkpt>
      <trkpt lat="42.67638" lon="-2.38429">
        <ele>545.8</ele>
        <time>2021-07-24 14:06:35</time>
      </trkpt>
      <trkpt lat="42.67641" lon="-2.38401">
        <ele>545.6</ele>
        <time>2021-07-24 14:06:39</time>
      </trkpt>
      <trkpt lat="42.67644" lon="-2.38373">
        <ele>545.2</ele>
        <time>2021-07-24 14:06:43</time>
      </trkpt>
      <trkpt lat="42.67647" lon="-2.38345">
        <ele>545</ele>
        <time>2021-07-24 14:06:47</time>
      </trkpt>
      <trkpt lat="42.6765" lon="-2.38317">
        <ele>544.6</ele>
        <time>2021-07-24 14:06:51</time>
      </trkpt>
      <trkpt lat="42.67653" lon="-2.38288">
        <ele>544</ele>
        <time>2021-07-24 14:06:55</time>
      </trkpt>
      <trkpt lat="42.67654" lon="-2.38261">
        <ele>544</ele>
        <time>2021-07-24 14:06:59</time>
      </trkpt>
      <trkpt lat="42.67653" lon="-2.38235">
        <ele>544</ele>
        <time>2021-07-24 14:07:03</time>
      </trkpt>
      <trkpt lat="42.6765" lon="-2.38214">
        <ele>544</ele>
        <time>2021-07-24 14:07:07</time>
      </trkpt>
      <trkpt lat="42.67646" lon="-2.38191">
        <ele>544</ele>
        <time>2021-07-24 14:07:11</time>
      </trkpt>
      <trkpt lat="42.67641" lon="-2.38166">
        <ele>543.8</ele>
        <time>2021-07-24 14:07:15</time>
      </trkpt>
      <trkpt lat="42.67637" lon="-2.38144">
        <ele>543.8</ele>
        <time>2021-07-24 14:07:19</time>
      </trkpt>
      <trkpt lat="42.67634" lon="-2.38127">
        <ele>544.2</ele>
        <time>2021-07-24 14:07:23</time>
      </trkpt>
      <trkpt lat="42.67632" lon="-2.38114">
        <ele>543.8</ele>
        <time>2021-07-24 14:07:27</time>
      </trkpt>
      <trkpt lat="42.67629" lon="-2.38099">
        <ele>544.4</ele>
        <time>2021-07-24 14:07:31</time>
      </trkpt>
      <trkpt lat="42.67625" lon="-2.38082">
        <ele>543.6</ele>
        <time>2021-07-24 14:07:35</time>
      </trkpt>
      <trkpt lat="42.67622" lon="-2.38064">
        <ele>544</ele>
        <time>2021-07-24 14:07:39</time>
      </trkpt>
      <trkpt lat="42.6762" lon="-2.38047">
        <ele>544.4</ele>
        <time>2021-07-24 14:07:43</time>
      </trkpt>
      <trkpt lat="42.67617" lon="-2.38035">
        <ele>544</ele>
        <time>2021-07-24 14:07:47</time>
      </trkpt>
      <trkpt lat="42.67613" lon="-2.38015">
        <ele>543.4</ele>
        <time>2021-07-24 14:07:51</time>
      </trkpt>
      <trkpt lat="42.67609" lon="-2.37994">
        <ele>543</ele>
        <time>2021-07-24 14:07:55</time>
      </trkpt>
      <trkpt lat="42.67604" lon="-2.37971">
        <ele>543.2</ele>
        <time>2021-07-24 14:07:59</time>
      </trkpt>
      <trkpt lat="42.676" lon="-2.37947">
        <ele>543.2</ele>
        <time>2021-07-24 14:08:03</time>
      </trkpt>
      <trkpt lat="42.67596" lon="-2.37924">
        <ele>542.6</ele>
        <time>2021-07-24 14:08:07</time>
      </trkpt>
      <trkpt lat="42.67591" lon="-2.37901">
        <ele>543.2</ele>
        <time>2021-07-24 14:08:11</time>
      </trkpt>
      <trkpt lat="42.67586" lon="-2.37878">
        <ele>542.8</ele>
        <time>2021-07-24 14:08:15</time>
      </trkpt>
      <trkpt lat="42.67581" lon="-2.37855">
        <ele>542.6</ele>
        <time>2021-07-24 14:08:19</time>
      </trkpt>
      <trkpt lat="42.67576" lon="-2.37832">
        <ele>542.6</ele>
        <time>2021-07-24 14:08:23</time>
      </trkpt>
      <trkpt lat="42.67572" lon="-2.3781">
        <ele>542.2</ele>
        <time>2021-07-24 14:08:27</time>
      </trkpt>
      <trkpt lat="42.67567" lon="-2.37788">
        <ele>542.2</ele>
        <time>2021-07-24 14:08:31</time>
      </trkpt>
      <trkpt lat="42.67563" lon="-2.37766">
        <ele>542.2</ele>
        <time>2021-07-24 14:08:35</time>
      </trkpt>
      <trkpt lat="42.6756" lon="-2.37744">
        <ele>542</ele>
        <time>2021-07-24 14:08:39</time>
      </trkpt>
      <trkpt lat="42.67553" lon="-2.3772">
        <ele>542</ele>
        <time>2021-07-24 14:08:43</time>
      </trkpt>
      <trkpt lat="42.67547" lon="-2.37697">
        <ele>542</ele>
        <time>2021-07-24 14:08:47</time>
      </trkpt>
      <trkpt lat="42.67543" lon="-2.37674">
        <ele>541.6</ele>
        <time>2021-07-24 14:08:51</time>
      </trkpt>
      <trkpt lat="42.67537" lon="-2.3765">
        <ele>542</ele>
        <time>2021-07-24 14:08:55</time>
      </trkpt>
      <trkpt lat="42.67532" lon="-2.37624">
        <ele>542.6</ele>
        <time>2021-07-24 14:08:59</time>
      </trkpt>
      <trkpt lat="42.67527" lon="-2.37599">
        <ele>542</ele>
        <time>2021-07-24 14:09:03</time>
      </trkpt>
      <trkpt lat="42.67522" lon="-2.37576">
        <ele>542.2</ele>
        <time>2021-07-24 14:09:07</time>
      </trkpt>
      <trkpt lat="42.67517" lon="-2.37556">
        <ele>541.8</ele>
        <time>2021-07-24 14:09:11</time>
      </trkpt>
      <trkpt lat="42.67514" lon="-2.37534">
        <ele>541.2</ele>
        <time>2021-07-24 14:09:15</time>
      </trkpt>
      <trkpt lat="42.6751" lon="-2.3751">
        <ele>541.6</ele>
        <time>2021-07-24 14:09:19</time>
      </trkpt>
      <trkpt lat="42.67505" lon="-2.37486">
        <ele>541.4</ele>
        <time>2021-07-24 14:09:23</time>
      </trkpt>
      <trkpt lat="42.67501" lon="-2.37463">
        <ele>541.6</ele>
        <time>2021-07-24 14:09:27</time>
      </trkpt>
      <trkpt lat="42.67497" lon="-2.3744">
        <ele>541.4</ele>
        <time>2021-07-24 14:09:31</time>
      </trkpt>
      <trkpt lat="42.67494" lon="-2.37418">
        <ele>541.2</ele>
        <time>2021-07-24 14:09:35</time>
      </trkpt>
      <trkpt lat="42.67492" lon="-2.37393">
        <ele>541.6</ele>
        <time>2021-07-24 14:09:39</time>
      </trkpt>
      <trkpt lat="42.6749" lon="-2.37369">
        <ele>540.8</ele>
        <time>2021-07-24 14:09:43</time>
      </trkpt>
      <trkpt lat="42.67491" lon="-2.37344">
        <ele>540.6</ele>
        <time>2021-07-24 14:09:47</time>
      </trkpt>
      <trkpt lat="42.67492" lon="-2.37319">
        <ele>541</ele>
        <time>2021-07-24 14:09:51</time>
      </trkpt>
      <trkpt lat="42.67494" lon="-2.37294">
        <ele>541</ele>
        <time>2021-07-24 14:09:55</time>
      </trkpt>
      <trkpt lat="42.67495" lon="-2.3727">
        <ele>541.2</ele>
        <time>2021-07-24 14:09:59</time>
      </trkpt>
      <trkpt lat="42.67495" lon="-2.37246">
        <ele>540.6</ele>
        <time>2021-07-24 14:10:03</time>
      </trkpt>
      <trkpt lat="42.67498" lon="-2.37221">
        <ele>540.4</ele>
        <time>2021-07-24 14:10:07</time>
      </trkpt>
      <trkpt lat="42.67499" lon="-2.37196">
        <ele>540.4</ele>
        <time>2021-07-24 14:10:11</time>
      </trkpt>
      <trkpt lat="42.67499" lon="-2.37172">
        <ele>540.2</ele>
        <time>2021-07-24 14:10:15</time>
      </trkpt>
      <trkpt lat="42.67499" lon="-2.37149">
        <ele>540.8</ele>
        <time>2021-07-24 14:10:19</time>
      </trkpt>
      <trkpt lat="42.675" lon="-2.37127">
        <ele>540.6</ele>
        <time>2021-07-24 14:10:23</time>
      </trkpt>
      <trkpt lat="42.675" lon="-2.37105">
        <ele>541.6</ele>
        <time>2021-07-24 14:10:27</time>
      </trkpt>
      <trkpt lat="42.67499" lon="-2.37088">
        <ele>542.4</ele>
        <time>2021-07-24 14:10:31</time>
      </trkpt>
      <trkpt lat="42.67497" lon="-2.37075">
        <ele>543.6</ele>
        <time>2021-07-24 14:10:35</time>
      </trkpt>
      <trkpt lat="42.67496" lon="-2.37062">
        <ele>545</ele>
        <time>2021-07-24 14:10:39</time>
      </trkpt>
      <trkpt lat="42.67497" lon="-2.37051">
        <ele>546</ele>
        <time>2021-07-24 14:10:43</time>
      </trkpt>
      <trkpt lat="42.675" lon="-2.37043">
        <ele>546.2</ele>
        <time>2021-07-24 14:10:47</time>
      </trkpt>
      <trkpt lat="42.67504" lon="-2.37035">
        <ele>547.4</ele>
        <time>2021-07-24 14:10:51</time>
      </trkpt>
      <trkpt lat="42.67509" lon="-2.37027">
        <ele>547</ele>
        <time>2021-07-24 14:10:55</time>
      </trkpt>
      <trkpt lat="42.67514" lon="-2.3702">
        <ele>547.4</ele>
        <time>2021-07-24 14:10:59</time>
      </trkpt>
      <trkpt lat="42.67519" lon="-2.37012">
        <ele>548.2</ele>
        <time>2021-07-24 14:11:03</time>
      </trkpt>
      <trkpt lat="42.67524" lon="-2.37005">
        <ele>547.4</ele>
        <time>2021-07-24 14:11:07</time>
      </trkpt>
      <trkpt lat="42.67529" lon="-2.36998">
        <ele>547</ele>
        <time>2021-07-24 14:11:11</time>
      </trkpt>
      <trkpt lat="42.67532" lon="-2.36989">
        <ele>546.4</ele>
        <time>2021-07-24 14:11:15</time>
      </trkpt>
      <trkpt lat="42.67533" lon="-2.36979">
        <ele>545.2</ele>
        <time>2021-07-24 14:11:19</time>
      </trkpt>
      <trkpt lat="42.67527" lon="-2.36966">
        <ele>543.8</ele>
        <time>2021-07-24 14:11:23</time>
      </trkpt>
      <trkpt lat="42.67519" lon="-2.36952">
        <ele>543</ele>
        <time>2021-07-24 14:11:27</time>
      </trkpt>
      <trkpt lat="42.6751" lon="-2.36936">
        <ele>541.4</ele>
        <time>2021-07-24 14:11:31</time>
      </trkpt>
      <trkpt lat="42.67501" lon="-2.36914">
        <ele>540.4</ele>
        <time>2021-07-24 14:11:35</time>
      </trkpt>
      <trkpt lat="42.67493" lon="-2.36887">
        <ele>540.4</ele>
        <time>2021-07-24 14:11:39</time>
      </trkpt>
      <trkpt lat="42.67487" lon="-2.36862">
        <ele>540.4</ele>
        <time>2021-07-24 14:11:43</time>
      </trkpt>
      <trkpt lat="42.67482" lon="-2.36838">
        <ele>540.2</ele>
        <time>2021-07-24 14:11:47</time>
      </trkpt>
      <trkpt lat="42.67478" lon="-2.36815">
        <ele>540.4</ele>
        <time>2021-07-24 14:11:51</time>
      </trkpt>
      <trkpt lat="42.67473" lon="-2.36794">
        <ele>540.2</ele>
        <time>2021-07-24 14:11:55</time>
      </trkpt>
      <trkpt lat="42.67471" lon="-2.36783">
        <ele>540.2</ele>
        <time>2021-07-24 14:11:59</time>
      </trkpt>
      <trkpt lat="42.6747" lon="-2.36773">
        <ele>540.4</ele>
        <time>2021-07-24 14:12:03</time>
      </trkpt>
      <trkpt lat="42.67467" lon="-2.36757">
        <ele>540</ele>
        <time>2021-07-24 14:12:07</time>
      </trkpt>
      <trkpt lat="42.67462" lon="-2.36738">
        <ele>539.6</ele>
        <time>2021-07-24 14:12:11</time>
      </trkpt>
      <trkpt lat="42.67459" lon="-2.36717">
        <ele>539.6</ele>
        <time>2021-07-24 14:12:15</time>
      </trkpt>
      <trkpt lat="42.67453" lon="-2.36695">
        <ele>539.2</ele>
        <time>2021-07-24 14:12:19</time>
      </trkpt>
      <trkpt lat="42.67449" lon="-2.36672">
        <ele>540.2</ele>
        <time>2021-07-24 14:12:23</time>
      </trkpt>
      <trkpt lat="42.67443" lon="-2.36649">
        <ele>540.2</ele>
        <time>2021-07-24 14:12:27</time>
      </trkpt>
      <trkpt lat="42.6744" lon="-2.36631">
        <ele>539.8</ele>
        <time>2021-07-24 14:12:31</time>
      </trkpt>
      <trkpt lat="42.6744" lon="-2.36631">
        <ele>539.8</ele>
        <time>2021-07-24 14:12:35</time>
      </trkpt>
      <trkpt lat="42.67439" lon="-2.36625">
        <ele>539.8</ele>
        <time>2021-07-24 14:12:39</time>
      </trkpt>
      <trkpt lat="42.67438" lon="-2.36618">
        <ele>539.4</ele>
        <time>2021-07-24 14:12:43</time>
      </trkpt>
      <trkpt lat="42.67436" lon="-2.36604">
        <ele>539.2</ele>
        <time>2021-07-24 14:12:47</time>
      </trkpt>
      <trkpt lat="42.67432" lon="-2.36586">
        <ele>539.6</ele>
        <time>2021-07-24 14:12:51</time>
      </trkpt>
      <trkpt lat="42.67427" lon="-2.36567">
        <ele>539.2</ele>
        <time>2021-07-24 14:12:55</time>
      </trkpt>
      <trkpt lat="42.67423" lon="-2.36546">
        <ele>539.2</ele>
        <time>2021-07-24 14:12:59</time>
      </trkpt>
      <trkpt lat="42.67419" lon="-2.36525">
        <ele>539</ele>
        <time>2021-07-24 14:13:03</time>
      </trkpt>
      <trkpt lat="42.67415" lon="-2.36505">
        <ele>539.2</ele>
        <time>2021-07-24 14:13:07</time>
      </trkpt>
      <trkpt lat="42.67411" lon="-2.36485">
        <ele>539.6</ele>
        <time>2021-07-24 14:13:11</time>
      </trkpt>
      <trkpt lat="42.67407" lon="-2.36463">
        <ele>539</ele>
        <time>2021-07-24 14:13:15</time>
      </trkpt>
      <trkpt lat="42.67402" lon="-2.36443">
        <ele>538.6</ele>
        <time>2021-07-24 14:13:19</time>
      </trkpt>
      <trkpt lat="42.67398" lon="-2.36423">
        <ele>539.2</ele>
        <time>2021-07-24 14:13:23</time>
      </trkpt>
      <trkpt lat="42.67394" lon="-2.36403">
        <ele>539.4</ele>
        <time>2021-07-24 14:13:27</time>
      </trkpt>
      <trkpt lat="42.67393" lon="-2.36383">
        <ele>539.6</ele>
        <time>2021-07-24 14:13:31</time>
      </trkpt>
      <trkpt lat="42.67392" lon="-2.36362">
        <ele>538.6</ele>
        <time>2021-07-24 14:13:35</time>
      </trkpt>
      <trkpt lat="42.67388" lon="-2.36345">
        <ele>539</ele>
        <time>2021-07-24 14:13:39</time>
      </trkpt>
      <trkpt lat="42.67385" lon="-2.36331">
        <ele>538.8</ele>
        <time>2021-07-24 14:13:43</time>
      </trkpt>
      <trkpt lat="42.67382" lon="-2.36316">
        <ele>538.2</ele>
        <time>2021-07-24 14:13:47</time>
      </trkpt>
      <trkpt lat="42.67379" lon="-2.36299">
        <ele>538.8</ele>
        <time>2021-07-24 14:13:51</time>
      </trkpt>
      <trkpt lat="42.67375" lon="-2.3628">
        <ele>537.6</ele>
        <time>2021-07-24 14:13:55</time>
      </trkpt>
      <trkpt lat="42.67371" lon="-2.3626">
        <ele>538.2</ele>
        <time>2021-07-24 14:13:59</time>
      </trkpt>
      <trkpt lat="42.67368" lon="-2.3624">
        <ele>538</ele>
        <time>2021-07-24 14:14:03</time>
      </trkpt>
      <trkpt lat="42.67364" lon="-2.36221">
        <ele>538.2</ele>
        <time>2021-07-24 14:14:07</time>
      </trkpt>
      <trkpt lat="42.67359" lon="-2.362">
        <ele>538.4</ele>
        <time>2021-07-24 14:14:11</time>
      </trkpt>
      <trkpt lat="42.67355" lon="-2.3618">
        <ele>538</ele>
        <time>2021-07-24 14:14:15</time>
      </trkpt>
      <trkpt lat="42.67351" lon="-2.36158">
        <ele>537.6</ele>
        <time>2021-07-24 14:14:19</time>
      </trkpt>
      <trkpt lat="42.67347" lon="-2.36137">
        <ele>538</ele>
        <time>2021-07-24 14:14:23</time>
      </trkpt>
      <trkpt lat="42.67342" lon="-2.36115">
        <ele>537.6</ele>
        <time>2021-07-24 14:14:27</time>
      </trkpt>
      <trkpt lat="42.67338" lon="-2.36093">
        <ele>537</ele>
        <time>2021-07-24 14:14:31</time>
      </trkpt>
      <trkpt lat="42.67334" lon="-2.36072">
        <ele>537.4</ele>
        <time>2021-07-24 14:14:35</time>
      </trkpt>
      <trkpt lat="42.67329" lon="-2.36049">
        <ele>537</ele>
        <time>2021-07-24 14:14:39</time>
      </trkpt>
      <trkpt lat="42.67324" lon="-2.36027">
        <ele>537</ele>
        <time>2021-07-24 14:14:43</time>
      </trkpt>
      <trkpt lat="42.6732" lon="-2.36003">
        <ele>536.2</ele>
        <time>2021-07-24 14:14:47</time>
      </trkpt>
      <trkpt lat="42.67315" lon="-2.35979">
        <ele>536.8</ele>
        <time>2021-07-24 14:14:51</time>
      </trkpt>
      <trkpt lat="42.6731" lon="-2.35956">
        <ele>537</ele>
        <time>2021-07-24 14:14:55</time>
      </trkpt>
      <trkpt lat="42.67306" lon="-2.35934">
        <ele>536.8</ele>
        <time>2021-07-24 14:14:59</time>
      </trkpt>
      <trkpt lat="42.67301" lon="-2.35911">
        <ele>537</ele>
        <time>2021-07-24 14:15:03</time>
      </trkpt>
      <trkpt lat="42.67298" lon="-2.3589">
        <ele>536.2</ele>
        <time>2021-07-24 14:15:07</time>
      </trkpt>
      <trkpt lat="42.67295" lon="-2.35869">
        <ele>536.8</ele>
        <time>2021-07-24 14:15:11</time>
      </trkpt>
      <trkpt lat="42.67294" lon="-2.35848">
        <ele>536</ele>
        <time>2021-07-24 14:15:15</time>
      </trkpt>
      <trkpt lat="42.67294" lon="-2.35827">
        <ele>536</ele>
        <time>2021-07-24 14:15:19</time>
      </trkpt>
      <trkpt lat="42.67294" lon="-2.35808">
        <ele>536.4</ele>
        <time>2021-07-24 14:15:23</time>
      </trkpt>
      <trkpt lat="42.67296" lon="-2.35788">
        <ele>536.4</ele>
        <time>2021-07-24 14:15:27</time>
      </trkpt>
      <trkpt lat="42.67299" lon="-2.35766">
        <ele>536.2</ele>
        <time>2021-07-24 14:15:31</time>
      </trkpt>
      <trkpt lat="42.67302" lon="-2.35746">
        <ele>535.4</ele>
        <time>2021-07-24 14:15:35</time>
      </trkpt>
      <trkpt lat="42.67305" lon="-2.35728">
        <ele>535.6</ele>
        <time>2021-07-24 14:15:39</time>
      </trkpt>
      <trkpt lat="42.67303" lon="-2.35711">
        <ele>535.4</ele>
        <time>2021-07-24 14:15:43</time>
      </trkpt>
      <trkpt lat="42.67304" lon="-2.35692">
        <ele>535.6</ele>
        <time>2021-07-24 14:15:47</time>
      </trkpt>
      <trkpt lat="42.67307" lon="-2.3567">
        <ele>535.4</ele>
        <time>2021-07-24 14:15:51</time>
      </trkpt>
      <trkpt lat="42.6731" lon="-2.35648">
        <ele>535</ele>
        <time>2021-07-24 14:15:55</time>
      </trkpt>
      <trkpt lat="42.67313" lon="-2.35625">
        <ele>534.8</ele>
        <time>2021-07-24 14:15:59</time>
      </trkpt>
      <trkpt lat="42.67317" lon="-2.35602">
        <ele>535.4</ele>
        <time>2021-07-24 14:16:03</time>
      </trkpt>
      <trkpt lat="42.6732" lon="-2.35577">
        <ele>535.4</ele>
        <time>2021-07-24 14:16:07</time>
      </trkpt>
      <trkpt lat="42.67324" lon="-2.35551">
        <ele>534.8</ele>
        <time>2021-07-24 14:16:11</time>
      </trkpt>
      <trkpt lat="42.67328" lon="-2.35525">
        <ele>534.6</ele>
        <time>2021-07-24 14:16:15</time>
      </trkpt>
      <trkpt lat="42.67332" lon="-2.35499">
        <ele>534.8</ele>
        <time>2021-07-24 14:16:19</time>
      </trkpt>
      <trkpt lat="42.67335" lon="-2.35473">
        <ele>534.2</ele>
        <time>2021-07-24 14:16:23</time>
      </trkpt>
      <trkpt lat="42.67338" lon="-2.35447">
        <ele>534.2</ele>
        <time>2021-07-24 14:16:27</time>
      </trkpt>
      <trkpt lat="42.67343" lon="-2.35421">
        <ele>532.6</ele>
        <time>2021-07-24 14:16:31</time>
      </trkpt>
      <trkpt lat="42.67346" lon="-2.35397">
        <ele>533.4</ele>
        <time>2021-07-24 14:16:35</time>
      </trkpt>
      <trkpt lat="42.6735" lon="-2.35372">
        <ele>534</ele>
        <time>2021-07-24 14:16:39</time>
      </trkpt>
      <trkpt lat="42.67353" lon="-2.35348">
        <ele>533.8</ele>
        <time>2021-07-24 14:16:43</time>
      </trkpt>
      <trkpt lat="42.67357" lon="-2.35323">
        <ele>533.2</ele>
        <time>2021-07-24 14:16:47</time>
      </trkpt>
      <trkpt lat="42.67361" lon="-2.35299">
        <ele>532.8</ele>
        <time>2021-07-24 14:16:51</time>
      </trkpt>
      <trkpt lat="42.67364" lon="-2.35275">
        <ele>533.2</ele>
        <time>2021-07-24 14:16:55</time>
      </trkpt>
      <trkpt lat="42.67367" lon="-2.35251">
        <ele>533.2</ele>
        <time>2021-07-24 14:16:59</time>
      </trkpt>
      <trkpt lat="42.67371" lon="-2.35227">
        <ele>533.2</ele>
        <time>2021-07-24 14:17:03</time>
      </trkpt>
      <trkpt lat="42.67374" lon="-2.35202">
        <ele>533</ele>
        <time>2021-07-24 14:17:07</time>
      </trkpt>
      <trkpt lat="42.67378" lon="-2.35176">
        <ele>532.6</ele>
        <time>2021-07-24 14:17:11</time>
      </trkpt>
      <trkpt lat="42.67382" lon="-2.35151">
        <ele>532.6</ele>
        <time>2021-07-24 14:17:15</time>
      </trkpt>
      <trkpt lat="42.67385" lon="-2.35126">
        <ele>532.8</ele>
        <time>2021-07-24 14:17:19</time>
      </trkpt>
      <trkpt lat="42.67389" lon="-2.35102">
        <ele>531.8</ele>
        <time>2021-07-24 14:17:23</time>
      </trkpt>
      <trkpt lat="42.67392" lon="-2.35077">
        <ele>532</ele>
        <time>2021-07-24 14:17:27</time>
      </trkpt>
      <trkpt lat="42.67396" lon="-2.35052">
        <ele>532</ele>
        <time>2021-07-24 14:17:31</time>
      </trkpt>
      <trkpt lat="42.67399" lon="-2.35027">
        <ele>532</ele>
        <time>2021-07-24 14:17:35</time>
      </trkpt>
      <trkpt lat="42.67403" lon="-2.35003">
        <ele>532</ele>
        <time>2021-07-24 14:17:39</time>
      </trkpt>
      <trkpt lat="42.67406" lon="-2.34978">
        <ele>532</ele>
        <time>2021-07-24 14:17:43</time>
      </trkpt>
      <trkpt lat="42.6741" lon="-2.34954">
        <ele>532.6</ele>
        <time>2021-07-24 14:17:47</time>
      </trkpt>
      <trkpt lat="42.67414" lon="-2.34929">
        <ele>532.2</ele>
        <time>2021-07-24 14:17:51</time>
      </trkpt>
      <trkpt lat="42.67417" lon="-2.34904">
        <ele>531.6</ele>
        <time>2021-07-24 14:17:55</time>
      </trkpt>
      <trkpt lat="42.67421" lon="-2.34879">
        <ele>532</ele>
        <time>2021-07-24 14:17:59</time>
      </trkpt>
      <trkpt lat="42.67425" lon="-2.34856">
        <ele>531.8</ele>
        <time>2021-07-24 14:18:03</time>
      </trkpt>
      <trkpt lat="42.67428" lon="-2.34834">
        <ele>531.8</ele>
        <time>2021-07-24 14:18:07</time>
      </trkpt>
      <trkpt lat="42.67431" lon="-2.34812">
        <ele>531.6</ele>
        <time>2021-07-24 14:18:11</time>
      </trkpt>
      <trkpt lat="42.67433" lon="-2.34789">
        <ele>532</ele>
        <time>2021-07-24 14:18:15</time>
      </trkpt>
      <trkpt lat="42.67436" lon="-2.34766">
        <ele>532.4</ele>
        <time>2021-07-24 14:18:19</time>
      </trkpt>
      <trkpt lat="42.6744" lon="-2.34744">
        <ele>532</ele>
        <time>2021-07-24 14:18:23</time>
      </trkpt>
      <trkpt lat="42.67442" lon="-2.34723">
        <ele>532.6</ele>
        <time>2021-07-24 14:18:27</time>
      </trkpt>
      <trkpt lat="42.67446" lon="-2.34703">
        <ele>532.4</ele>
        <time>2021-07-24 14:18:31</time>
      </trkpt>
      <trkpt lat="42.67449" lon="-2.34685">
        <ele>532.6</ele>
        <time>2021-07-24 14:18:35</time>
      </trkpt>
      <trkpt lat="42.67451" lon="-2.34667">
        <ele>532.4</ele>
        <time>2021-07-24 14:18:39</time>
      </trkpt>
      <trkpt lat="42.67453" lon="-2.34652">
        <ele>533.2</ele>
        <time>2021-07-24 14:18:43</time>
      </trkpt>
      <trkpt lat="42.67455" lon="-2.34637">
        <ele>533.2</ele>
        <time>2021-07-24 14:18:47</time>
      </trkpt>
      <trkpt lat="42.67455" lon="-2.34637">
        <ele>532.8</ele>
        <time>2021-07-24 14:18:51</time>
      </trkpt>
      <trkpt lat="42.67455" lon="-2.34637">
        <ele>533.2</ele>
        <time>2021-07-24 14:18:55</time>
      </trkpt>
      <trkpt lat="42.67455" lon="-2.34637">
        <ele>532.6</ele>
        <time>2021-07-24 14:18:59</time>
      </trkpt>
      <trkpt lat="42.67455" lon="-2.34637">
        <ele>533.4</ele>
        <time>2021-07-24 14:19:03</time>
      </trkpt>
      <trkpt lat="42.67455" lon="-2.34637">
        <ele>533.2</ele>
        <time>2021-07-24 14:19:07</time>
      </trkpt>
      <trkpt lat="42.67455" lon="-2.34637">
        <ele>533.2</ele>
        <time>2021-07-24 14:19:11</time>
      </trkpt>
      <trkpt lat="42.67455" lon="-2.34637">
        <ele>533.4</ele>
        <time>2021-07-24 14:19:15</time>
      </trkpt>
      <trkpt lat="42.67455" lon="-2.34637">
        <ele>533.4</ele>
        <time>2021-07-24 14:19:19</time>
      </trkpt>
      <trkpt lat="42.67455" lon="-2.34631">
        <ele>533.6</ele>
        <time>2021-07-24 14:19:23</time>
      </trkpt>
      <trkpt lat="42.67458" lon="-2.34622">
        <ele>533</ele>
        <time>2021-07-24 14:19:27</time>
      </trkpt>
      <trkpt lat="42.67462" lon="-2.34608">
        <ele>533.4</ele>
        <time>2021-07-24 14:19:31</time>
      </trkpt>
      <trkpt lat="42.67464" lon="-2.34591">
        <ele>533.6</ele>
        <time>2021-07-24 14:19:35</time>
      </trkpt>
      <trkpt lat="42.67468" lon="-2.34573">
        <ele>533.4</ele>
        <time>2021-07-24 14:19:39</time>
      </trkpt>
      <trkpt lat="42.67471" lon="-2.34555">
        <ele>533.6</ele>
        <time>2021-07-24 14:19:43</time>
      </trkpt>
      <trkpt lat="42.67474" lon="-2.34537">
        <ele>533.4</ele>
        <time>2021-07-24 14:19:47</time>
      </trkpt>
      <trkpt lat="42.67477" lon="-2.34516">
        <ele>533.8</ele>
        <time>2021-07-24 14:19:51</time>
      </trkpt>
      <trkpt lat="42.6748" lon="-2.34496">
        <ele>533.6</ele>
        <time>2021-07-24 14:19:55</time>
      </trkpt>
      <trkpt lat="42.67483" lon="-2.34475">
        <ele>533.6</ele>
        <time>2021-07-24 14:19:59</time>
      </trkpt>
      <trkpt lat="42.67487" lon="-2.34455">
        <ele>534</ele>
        <time>2021-07-24 14:20:03</time>
      </trkpt>
      <trkpt lat="42.67491" lon="-2.34434">
        <ele>533.6</ele>
        <time>2021-07-24 14:20:07</time>
      </trkpt>
      <trkpt lat="42.67494" lon="-2.34416">
        <ele>534</ele>
        <time>2021-07-24 14:20:11</time>
      </trkpt>
      <trkpt lat="42.67499" lon="-2.34396">
        <ele>534</ele>
        <time>2021-07-24 14:20:15</time>
      </trkpt>
      <trkpt lat="42.67507" lon="-2.3438">
        <ele>533</ele>
        <time>2021-07-24 14:20:19</time>
      </trkpt>
      <trkpt lat="42.67517" lon="-2.34366">
        <ele>534</ele>
        <time>2021-07-24 14:20:23</time>
      </trkpt>
      <trkpt lat="42.67525" lon="-2.34354">
        <ele>534.2</ele>
        <time>2021-07-24 14:20:27</time>
      </trkpt>
      <trkpt lat="42.67534" lon="-2.34338">
        <ele>534</ele>
        <time>2021-07-24 14:20:31</time>
      </trkpt>
      <trkpt lat="42.67539" lon="-2.34318">
        <ele>533.4</ele>
        <time>2021-07-24 14:20:35</time>
      </trkpt>
      <trkpt lat="42.67546" lon="-2.34296">
        <ele>533.2</ele>
        <time>2021-07-24 14:20:39</time>
      </trkpt>
      <trkpt lat="42.67552" lon="-2.34274">
        <ele>533.2</ele>
        <time>2021-07-24 14:20:43</time>
      </trkpt>
      <trkpt lat="42.67558" lon="-2.34252">
        <ele>533</ele>
        <time>2021-07-24 14:20:47</time>
      </trkpt>
      <trkpt lat="42.67565" lon="-2.34229">
        <ele>532.6</ele>
        <time>2021-07-24 14:20:51</time>
      </trkpt>
      <trkpt lat="42.67573" lon="-2.34206">
        <ele>532.6</ele>
        <time>2021-07-24 14:20:55</time>
      </trkpt>
      <trkpt lat="42.6758" lon="-2.34184">
        <ele>532.8</ele>
        <time>2021-07-24 14:20:59</time>
      </trkpt>
      <trkpt lat="42.67587" lon="-2.3416">
        <ele>533.6</ele>
        <time>2021-07-24 14:21:03</time>
      </trkpt>
      <trkpt lat="42.67595" lon="-2.34136">
        <ele>533.2</ele>
        <time>2021-07-24 14:21:07</time>
      </trkpt>
      <trkpt lat="42.67601" lon="-2.34112">
        <ele>533.8</ele>
        <time>2021-07-24 14:21:11</time>
      </trkpt>
      <trkpt lat="42.67608" lon="-2.34089">
        <ele>533.8</ele>
        <time>2021-07-24 14:21:15</time>
      </trkpt>
      <trkpt lat="42.67616" lon="-2.34066">
        <ele>532.8</ele>
        <time>2021-07-24 14:21:19</time>
      </trkpt>
      <trkpt lat="42.67623" lon="-2.34042">
        <ele>532</ele>
        <time>2021-07-24 14:21:23</time>
      </trkpt>
      <trkpt lat="42.67629" lon="-2.34019">
        <ele>532.6</ele>
        <time>2021-07-24 14:21:27</time>
      </trkpt>
      <trkpt lat="42.67635" lon="-2.33997">
        <ele>532.6</ele>
        <time>2021-07-24 14:21:31</time>
      </trkpt>
      <trkpt lat="42.67643" lon="-2.33975">
        <ele>533.2</ele>
        <time>2021-07-24 14:21:35</time>
      </trkpt>
      <trkpt lat="42.6765" lon="-2.33953">
        <ele>533.4</ele>
        <time>2021-07-24 14:21:39</time>
      </trkpt>
      <trkpt lat="42.67655" lon="-2.33938">
        <ele>533.6</ele>
        <time>2021-07-24 14:21:43</time>
      </trkpt>
      <trkpt lat="42.67649" lon="-2.33928">
        <ele>533.2</ele>
        <time>2021-07-24 14:21:47</time>
      </trkpt>
      <trkpt lat="42.6764" lon="-2.33922">
        <ele>533.2</ele>
        <time>2021-07-24 14:21:51</time>
      </trkpt>
      <trkpt lat="42.67635" lon="-2.33911">
        <ele>532.8</ele>
        <time>2021-07-24 14:21:55</time>
      </trkpt>
      <trkpt lat="42.67637" lon="-2.33901">
        <ele>533</ele>
        <time>2021-07-24 14:21:59</time>
      </trkpt>
      <trkpt lat="42.6764" lon="-2.33887">
        <ele>533.6</ele>
        <time>2021-07-24 14:22:03</time>
      </trkpt>
      <trkpt lat="42.67644" lon="-2.33872">
        <ele>533.4</ele>
        <time>2021-07-24 14:22:07</time>
      </trkpt>
      <trkpt lat="42.6765" lon="-2.33856">
        <ele>533.4</ele>
        <time>2021-07-24 14:22:11</time>
      </trkpt>
      <trkpt lat="42.67654" lon="-2.33838">
        <ele>533.4</ele>
        <time>2021-07-24 14:22:15</time>
      </trkpt>
      <trkpt lat="42.6766" lon="-2.33821">
        <ele>533.2</ele>
        <time>2021-07-24 14:22:19</time>
      </trkpt>
      <trkpt lat="42.67666" lon="-2.33803">
        <ele>533.2</ele>
        <time>2021-07-24 14:22:23</time>
      </trkpt>
      <trkpt lat="42.67671" lon="-2.33786">
        <ele>532.8</ele>
        <time>2021-07-24 14:22:27</time>
      </trkpt>
      <trkpt lat="42.67676" lon="-2.33768">
        <ele>533.2</ele>
        <time>2021-07-24 14:22:31</time>
      </trkpt>
      <trkpt lat="42.67682" lon="-2.33749">
        <ele>532.8</ele>
        <time>2021-07-24 14:22:35</time>
      </trkpt>
      <trkpt lat="42.67688" lon="-2.3373">
        <ele>533</ele>
        <time>2021-07-24 14:22:39</time>
      </trkpt>
      <trkpt lat="42.67694" lon="-2.33711">
        <ele>533.4</ele>
        <time>2021-07-24 14:22:43</time>
      </trkpt>
      <trkpt lat="42.67699" lon="-2.33692">
        <ele>532.6</ele>
        <time>2021-07-24 14:22:47</time>
      </trkpt>
      <trkpt lat="42.67705" lon="-2.33672">
        <ele>533</ele>
        <time>2021-07-24 14:22:51</time>
      </trkpt>
      <trkpt lat="42.6771" lon="-2.33653">
        <ele>533.4</ele>
        <time>2021-07-24 14:22:55</time>
      </trkpt>
      <trkpt lat="42.67716" lon="-2.33635">
        <ele>532.8</ele>
        <time>2021-07-24 14:22:59</time>
      </trkpt>
      <trkpt lat="42.67722" lon="-2.33615">
        <ele>532.8</ele>
        <time>2021-07-24 14:23:03</time>
      </trkpt>
      <trkpt lat="42.67727" lon="-2.33595">
        <ele>533.2</ele>
        <time>2021-07-24 14:23:07</time>
      </trkpt>
      <trkpt lat="42.67734" lon="-2.33577">
        <ele>532.6</ele>
        <time>2021-07-24 14:23:11</time>
      </trkpt>
      <trkpt lat="42.67739" lon="-2.33559">
        <ele>532.6</ele>
        <time>2021-07-24 14:23:15</time>
      </trkpt>
      <trkpt lat="42.67744" lon="-2.3354">
        <ele>532.8</ele>
        <time>2021-07-24 14:23:19</time>
      </trkpt>
      <trkpt lat="42.67749" lon="-2.33523">
        <ele>533.8</ele>
        <time>2021-07-24 14:23:23</time>
      </trkpt>
      <trkpt lat="42.67755" lon="-2.33505">
        <ele>533.4</ele>
        <time>2021-07-24 14:23:27</time>
      </trkpt>
      <trkpt lat="42.67761" lon="-2.33485">
        <ele>532.8</ele>
        <time>2021-07-24 14:23:31</time>
      </trkpt>
      <trkpt lat="42.67767" lon="-2.33467">
        <ele>534</ele>
        <time>2021-07-24 14:23:35</time>
      </trkpt>
      <trkpt lat="42.67773" lon="-2.33448">
        <ele>534</ele>
        <time>2021-07-24 14:23:39</time>
      </trkpt>
      <trkpt lat="42.67778" lon="-2.3343">
        <ele>533.6</ele>
        <time>2021-07-24 14:23:43</time>
      </trkpt>
      <trkpt lat="42.67784" lon="-2.33412">
        <ele>533.6</ele>
        <time>2021-07-24 14:23:47</time>
      </trkpt>
      <trkpt lat="42.67789" lon="-2.33393">
        <ele>533.6</ele>
        <time>2021-07-24 14:23:51</time>
      </trkpt>
      <trkpt lat="42.67794" lon="-2.33375">
        <ele>534.6</ele>
        <time>2021-07-24 14:23:55</time>
      </trkpt>
      <trkpt lat="42.678" lon="-2.33358">
        <ele>535</ele>
        <time>2021-07-24 14:23:59</time>
      </trkpt>
      <trkpt lat="42.67804" lon="-2.33342">
        <ele>534</ele>
        <time>2021-07-24 14:24:03</time>
      </trkpt>
      <trkpt lat="42.6781" lon="-2.33323">
        <ele>534</ele>
        <time>2021-07-24 14:24:07</time>
      </trkpt>
      <trkpt lat="42.67816" lon="-2.33303">
        <ele>535.6</ele>
        <time>2021-07-24 14:24:11</time>
      </trkpt>
      <trkpt lat="42.67821" lon="-2.33288">
        <ele>535.4</ele>
        <time>2021-07-24 14:24:15</time>
      </trkpt>
      <trkpt lat="42.67826" lon="-2.33273">
        <ele>535.2</ele>
        <time>2021-07-24 14:24:19</time>
      </trkpt>
      <trkpt lat="42.67832" lon="-2.33252">
        <ele>534.8</ele>
        <time>2021-07-24 14:24:23</time>
      </trkpt>
      <trkpt lat="42.67838" lon="-2.33231">
        <ele>535.4</ele>
        <time>2021-07-24 14:24:27</time>
      </trkpt>
      <trkpt lat="42.67844" lon="-2.3321">
        <ele>535.4</ele>
        <time>2021-07-24 14:24:31</time>
      </trkpt>
      <trkpt lat="42.67851" lon="-2.3319">
        <ele>535.4</ele>
        <time>2021-07-24 14:24:35</time>
      </trkpt>
      <trkpt lat="42.67856" lon="-2.33171">
        <ele>535.4</ele>
        <time>2021-07-24 14:24:39</time>
      </trkpt>
      <trkpt lat="42.67862" lon="-2.33151">
        <ele>535.2</ele>
        <time>2021-07-24 14:24:43</time>
      </trkpt>
      <trkpt lat="42.67868" lon="-2.33132">
        <ele>535.6</ele>
        <time>2021-07-24 14:24:47</time>
      </trkpt>
      <trkpt lat="42.67873" lon="-2.33114">
        <ele>537</ele>
        <time>2021-07-24 14:24:51</time>
      </trkpt>
      <trkpt lat="42.67877" lon="-2.33102">
        <ele>537.6</ele>
        <time>2021-07-24 14:24:55</time>
      </trkpt>
      <trkpt lat="42.67879" lon="-2.33093">
        <ele>536.2</ele>
        <time>2021-07-24 14:24:59</time>
      </trkpt>
      <trkpt lat="42.67883" lon="-2.33078">
        <ele>536.8</ele>
        <time>2021-07-24 14:25:03</time>
      </trkpt>
      <trkpt lat="42.67888" lon="-2.33061">
        <ele>536.8</ele>
        <time>2021-07-24 14:25:07</time>
      </trkpt>
      <trkpt lat="42.67892" lon="-2.33047">
        <ele>536.8</ele>
        <time>2021-07-24 14:25:11</time>
      </trkpt>
      <trkpt lat="42.67897" lon="-2.33031">
        <ele>536.8</ele>
        <time>2021-07-24 14:25:15</time>
      </trkpt>
      <trkpt lat="42.67902" lon="-2.33013">
        <ele>536.8</ele>
        <time>2021-07-24 14:25:19</time>
      </trkpt>
      <trkpt lat="42.67909" lon="-2.32995">
        <ele>537.2</ele>
        <time>2021-07-24 14:25:23</time>
      </trkpt>
      <trkpt lat="42.67913" lon="-2.32977">
        <ele>537</ele>
        <time>2021-07-24 14:25:27</time>
      </trkpt>
      <trkpt lat="42.67919" lon="-2.3296">
        <ele>536.8</ele>
        <time>2021-07-24 14:25:31</time>
      </trkpt>
      <trkpt lat="42.67925" lon="-2.32942">
        <ele>536.8</ele>
        <time>2021-07-24 14:25:35</time>
      </trkpt>
      <trkpt lat="42.67931" lon="-2.32924">
        <ele>536.2</ele>
        <time>2021-07-24 14:25:39</time>
      </trkpt>
      <trkpt lat="42.67936" lon="-2.32906">
        <ele>536.2</ele>
        <time>2021-07-24 14:25:43</time>
      </trkpt>
      <trkpt lat="42.67942" lon="-2.32889">
        <ele>536</ele>
        <time>2021-07-24 14:25:47</time>
      </trkpt>
      <trkpt lat="42.67946" lon="-2.32868">
        <ele>537.6</ele>
        <time>2021-07-24 14:25:51</time>
      </trkpt>
      <trkpt lat="42.67949" lon="-2.32855">
        <ele>537.4</ele>
        <time>2021-07-24 14:25:55</time>
      </trkpt>
      <trkpt lat="42.67955" lon="-2.32844">
        <ele>537.2</ele>
        <time>2021-07-24 14:25:59</time>
      </trkpt>
      <trkpt lat="42.6796" lon="-2.32829">
        <ele>537.2</ele>
        <time>2021-07-24 14:26:03</time>
      </trkpt>
      <trkpt lat="42.67964" lon="-2.32812">
        <ele>537</ele>
        <time>2021-07-24 14:26:07</time>
      </trkpt>
      <trkpt lat="42.67969" lon="-2.32794">
        <ele>537.2</ele>
        <time>2021-07-24 14:26:11</time>
      </trkpt>
      <trkpt lat="42.67975" lon="-2.32774">
        <ele>536.8</ele>
        <time>2021-07-24 14:26:15</time>
      </trkpt>
      <trkpt lat="42.67981" lon="-2.32755">
        <ele>536.8</ele>
        <time>2021-07-24 14:26:19</time>
      </trkpt>
      <trkpt lat="42.67987" lon="-2.32734">
        <ele>536.2</ele>
        <time>2021-07-24 14:26:23</time>
      </trkpt>
      <trkpt lat="42.67994" lon="-2.32712">
        <ele>537.2</ele>
        <time>2021-07-24 14:26:27</time>
      </trkpt>
      <trkpt lat="42.67998" lon="-2.32696">
        <ele>537</ele>
        <time>2021-07-24 14:26:31</time>
      </trkpt>
      <trkpt lat="42.68003" lon="-2.32679">
        <ele>537.6</ele>
        <time>2021-07-24 14:26:35</time>
      </trkpt>
      <trkpt lat="42.68009" lon="-2.3266">
        <ele>537.4</ele>
        <time>2021-07-24 14:26:39</time>
      </trkpt>
      <trkpt lat="42.68015" lon="-2.32641">
        <ele>537.6</ele>
        <time>2021-07-24 14:26:43</time>
      </trkpt>
      <trkpt lat="42.6802" lon="-2.3262">
        <ele>537.6</ele>
        <time>2021-07-24 14:26:47</time>
      </trkpt>
      <trkpt lat="42.68026" lon="-2.32599">
        <ele>537.6</ele>
        <time>2021-07-24 14:26:51</time>
      </trkpt>
      <trkpt lat="42.68032" lon="-2.32581">
        <ele>537</ele>
        <time>2021-07-24 14:26:55</time>
      </trkpt>
      <trkpt lat="42.68038" lon="-2.32559">
        <ele>537.2</ele>
        <time>2021-07-24 14:26:59</time>
      </trkpt>
      <trkpt lat="42.68046" lon="-2.32537">
        <ele>539</ele>
        <time>2021-07-24 14:27:03</time>
      </trkpt>
      <trkpt lat="42.68051" lon="-2.32521">
        <ele>538.8</ele>
        <time>2021-07-24 14:27:07</time>
      </trkpt>
      <trkpt lat="42.68055" lon="-2.32505">
        <ele>539</ele>
        <time>2021-07-24 14:27:11</time>
      </trkpt>
      <trkpt lat="42.68061" lon="-2.32487">
        <ele>538.8</ele>
        <time>2021-07-24 14:27:15</time>
      </trkpt>
      <trkpt lat="42.68066" lon="-2.32468">
        <ele>539</ele>
        <time>2021-07-24 14:27:19</time>
      </trkpt>
      <trkpt lat="42.68072" lon="-2.32449">
        <ele>539.2</ele>
        <time>2021-07-24 14:27:23</time>
      </trkpt>
      <trkpt lat="42.68078" lon="-2.32431">
        <ele>538.8</ele>
        <time>2021-07-24 14:27:27</time>
      </trkpt>
      <trkpt lat="42.68083" lon="-2.32412">
        <ele>540</ele>
        <time>2021-07-24 14:27:31</time>
      </trkpt>
      <trkpt lat="42.68089" lon="-2.32393">
        <ele>539.6</ele>
        <time>2021-07-24 14:27:35</time>
      </trkpt>
      <trkpt lat="42.68095" lon="-2.32376">
        <ele>539.4</ele>
        <time>2021-07-24 14:27:39</time>
      </trkpt>
      <trkpt lat="42.681" lon="-2.32358">
        <ele>539.6</ele>
        <time>2021-07-24 14:27:43</time>
      </trkpt>
      <trkpt lat="42.68105" lon="-2.3234">
        <ele>539.8</ele>
        <time>2021-07-24 14:27:47</time>
      </trkpt>
      <trkpt lat="42.68109" lon="-2.32324">
        <ele>540</ele>
        <time>2021-07-24 14:27:51</time>
      </trkpt>
      <trkpt lat="42.68114" lon="-2.3231">
        <ele>540.2</ele>
        <time>2021-07-24 14:27:55</time>
      </trkpt>
      <trkpt lat="42.68118" lon="-2.32294">
        <ele>540</ele>
        <time>2021-07-24 14:27:59</time>
      </trkpt>
      <trkpt lat="42.68123" lon="-2.32278">
        <ele>540</ele>
        <time>2021-07-24 14:28:03</time>
      </trkpt>
      <trkpt lat="42.68129" lon="-2.3226">
        <ele>539.8</ele>
        <time>2021-07-24 14:28:07</time>
      </trkpt>
      <trkpt lat="42.68134" lon="-2.32241">
        <ele>539.8</ele>
        <time>2021-07-24 14:28:11</time>
      </trkpt>
      <trkpt lat="42.68141" lon="-2.32222">
        <ele>540.6</ele>
        <time>2021-07-24 14:28:15</time>
      </trkpt>
      <trkpt lat="42.68147" lon="-2.32203">
        <ele>540.6</ele>
        <time>2021-07-24 14:28:19</time>
      </trkpt>
      <trkpt lat="42.68153" lon="-2.32183">
        <ele>540</ele>
        <time>2021-07-24 14:28:23</time>
      </trkpt>
      <trkpt lat="42.68159" lon="-2.32163">
        <ele>540.6</ele>
        <time>2021-07-24 14:28:27</time>
      </trkpt>
      <trkpt lat="42.68166" lon="-2.32143">
        <ele>540.8</ele>
        <time>2021-07-24 14:28:31</time>
      </trkpt>
      <trkpt lat="42.68172" lon="-2.32123">
        <ele>541.4</ele>
        <time>2021-07-24 14:28:35</time>
      </trkpt>
      <trkpt lat="42.68178" lon="-2.32104">
        <ele>541.4</ele>
        <time>2021-07-24 14:28:39</time>
      </trkpt>
      <trkpt lat="42.68184" lon="-2.32086">
        <ele>541</ele>
        <time>2021-07-24 14:28:43</time>
      </trkpt>
      <trkpt lat="42.68189" lon="-2.32067">
        <ele>540.8</ele>
        <time>2021-07-24 14:28:47</time>
      </trkpt>
      <trkpt lat="42.68194" lon="-2.32047">
        <ele>540.2</ele>
        <time>2021-07-24 14:28:51</time>
      </trkpt>
      <trkpt lat="42.682" lon="-2.32027">
        <ele>541</ele>
        <time>2021-07-24 14:28:55</time>
      </trkpt>
      <trkpt lat="42.68206" lon="-2.32009">
        <ele>541.2</ele>
        <time>2021-07-24 14:28:59</time>
      </trkpt>
      <trkpt lat="42.68212" lon="-2.3199">
        <ele>541</ele>
        <time>2021-07-24 14:29:03</time>
      </trkpt>
      <trkpt lat="42.68218" lon="-2.31971">
        <ele>541.2</ele>
        <time>2021-07-24 14:29:07</time>
      </trkpt>
      <trkpt lat="42.68223" lon="-2.31953">
        <ele>541.2</ele>
        <time>2021-07-24 14:29:11</time>
      </trkpt>
      <trkpt lat="42.68228" lon="-2.31934">
        <ele>541.2</ele>
        <time>2021-07-24 14:29:15</time>
      </trkpt>
      <trkpt lat="42.68234" lon="-2.31916">
        <ele>541.8</ele>
        <time>2021-07-24 14:29:19</time>
      </trkpt>
      <trkpt lat="42.6824" lon="-2.31897">
        <ele>541.8</ele>
        <time>2021-07-24 14:29:23</time>
      </trkpt>
      <trkpt lat="42.68246" lon="-2.31878">
        <ele>541.6</ele>
        <time>2021-07-24 14:29:27</time>
      </trkpt>
      <trkpt lat="42.68252" lon="-2.31859">
        <ele>542</ele>
        <time>2021-07-24 14:29:31</time>
      </trkpt>
      <trkpt lat="42.68257" lon="-2.3184">
        <ele>541.8</ele>
        <time>2021-07-24 14:29:35</time>
      </trkpt>
      <trkpt lat="42.68263" lon="-2.31823">
        <ele>542.8</ele>
        <time>2021-07-24 14:29:39</time>
      </trkpt>
      <trkpt lat="42.68268" lon="-2.31805">
        <ele>542.2</ele>
        <time>2021-07-24 14:29:43</time>
      </trkpt>
      <trkpt lat="42.68274" lon="-2.31785">
        <ele>542.6</ele>
        <time>2021-07-24 14:29:47</time>
      </trkpt>
      <trkpt lat="42.68279" lon="-2.31766">
        <ele>542.2</ele>
        <time>2021-07-24 14:29:51</time>
      </trkpt>
      <trkpt lat="42.68286" lon="-2.31746">
        <ele>543.2</ele>
        <time>2021-07-24 14:29:55</time>
      </trkpt>
      <trkpt lat="42.68291" lon="-2.31726">
        <ele>543</ele>
        <time>2021-07-24 14:29:59</time>
      </trkpt>
      <trkpt lat="42.68298" lon="-2.31705">
        <ele>543.2</ele>
        <time>2021-07-24 14:30:03</time>
      </trkpt>
      <trkpt lat="42.68303" lon="-2.31686">
        <ele>543.6</ele>
        <time>2021-07-24 14:30:07</time>
      </trkpt>
      <trkpt lat="42.68307" lon="-2.31671">
        <ele>543.8</ele>
        <time>2021-07-24 14:30:11</time>
      </trkpt>
      <trkpt lat="42.68307" lon="-2.31671">
        <ele>544</ele>
        <time>2021-07-24 14:30:15</time>
      </trkpt>
      <trkpt lat="42.68307" lon="-2.31671">
        <ele>543.6</ele>
        <time>2021-07-24 14:30:19</time>
      </trkpt>
      <trkpt lat="42.68307" lon="-2.31671">
        <ele>543.6</ele>
        <time>2021-07-24 14:30:23</time>
      </trkpt>
      <trkpt lat="42.68307" lon="-2.31671">
        <ele>543.6</ele>
        <time>2021-07-24 14:30:27</time>
      </trkpt>
      <trkpt lat="42.68307" lon="-2.31671">
        <ele>543.6</ele>
        <time>2021-07-24 14:30:31</time>
      </trkpt>
      <trkpt lat="42.68307" lon="-2.31671">
        <ele>543.4</ele>
        <time>2021-07-24 14:30:35</time>
      </trkpt>
      <trkpt lat="42.68307" lon="-2.31671">
        <ele>543.8</ele>
        <time>2021-07-24 14:30:39</time>
      </trkpt>
      <trkpt lat="42.68307" lon="-2.31671">
        <ele>543.8</ele>
        <time>2021-07-24 14:30:43</time>
      </trkpt>
      <trkpt lat="42.68307" lon="-2.31671">
        <ele>543.4</ele>
        <time>2021-07-24 14:30:47</time>
      </trkpt>
      <trkpt lat="42.68307" lon="-2.31671">
        <ele>543.2</ele>
        <time>2021-07-24 14:30:51</time>
      </trkpt>
      <trkpt lat="42.68307" lon="-2.31671">
        <ele>543.2</ele>
        <time>2021-07-24 14:30:55</time>
      </trkpt>
      <trkpt lat="42.68307" lon="-2.31671">
        <ele>542.8</ele>
        <time>2021-07-24 14:30:59</time>
      </trkpt>
      <trkpt lat="42.68307" lon="-2.31671">
        <ele>543.2</ele>
        <time>2021-07-24 14:31:03</time>
      </trkpt>
      <trkpt lat="42.68307" lon="-2.31671">
        <ele>543</ele>
        <time>2021-07-24 14:31:07</time>
      </trkpt>
      <trkpt lat="42.68307" lon="-2.31671">
        <ele>543.4</ele>
        <time>2021-07-24 14:31:11</time>
      </trkpt>
      <trkpt lat="42.68307" lon="-2.31671">
        <ele>543.2</ele>
        <time>2021-07-24 14:31:15</time>
      </trkpt>
      <trkpt lat="42.68307" lon="-2.31671">
        <ele>543.4</ele>
        <time>2021-07-24 14:31:19</time>
      </trkpt>
      <trkpt lat="42.68308" lon="-2.31668">
        <ele>543.2</ele>
        <time>2021-07-24 14:31:23</time>
      </trkpt>
      <trkpt lat="42.68308" lon="-2.31668">
        <ele>543.6</ele>
        <time>2021-07-24 14:31:27</time>
      </trkpt>
      <trkpt lat="42.68308" lon="-2.31668">
        <ele>543.4</ele>
        <time>2021-07-24 14:31:31</time>
      </trkpt>
      <trkpt lat="42.68308" lon="-2.31668">
        <ele>543.6</ele>
        <time>2021-07-24 14:31:35</time>
      </trkpt>
      <trkpt lat="42.68308" lon="-2.31668">
        <ele>543.4</ele>
        <time>2021-07-24 14:31:39</time>
      </trkpt>
      <trkpt lat="42.68308" lon="-2.31668">
        <ele>543.8</ele>
        <time>2021-07-24 14:31:43</time>
      </trkpt>
      <trkpt lat="42.68308" lon="-2.31668">
        <ele>543</ele>
        <time>2021-07-24 14:31:47</time>
      </trkpt>
      <trkpt lat="42.68308" lon="-2.31668">
        <ele>543.4</ele>
        <time>2021-07-24 14:31:51</time>
      </trkpt>
      <trkpt lat="42.68308" lon="-2.31668">
        <ele>543.2</ele>
        <time>2021-07-24 14:31:55</time>
      </trkpt>
      <trkpt lat="42.68308" lon="-2.31668">
        <ele>543.6</ele>
        <time>2021-07-24 14:31:59</time>
      </trkpt>
      <trkpt lat="42.68308" lon="-2.31668">
        <ele>543.2</ele>
        <time>2021-07-24 14:32:03</time>
      </trkpt>
      <trkpt lat="42.68308" lon="-2.31668">
        <ele>543.4</ele>
        <time>2021-07-24 14:32:07</time>
      </trkpt>
      <trkpt lat="42.68308" lon="-2.31668">
        <ele>545.4</ele>
        <time>2021-07-24 14:32:11</time>
      </trkpt>
      <trkpt lat="42.68308" lon="-2.31668">
        <ele>545.4</ele>
        <time>2021-07-24 14:32:15</time>
      </trkpt>
      <trkpt lat="42.68308" lon="-2.31668">
        <ele>543.4</ele>
        <time>2021-07-24 14:32:19</time>
      </trkpt>
      <trkpt lat="42.68308" lon="-2.31668">
        <ele>543.4</ele>
        <time>2021-07-24 14:32:23</time>
      </trkpt>
      <trkpt lat="42.6831" lon="-2.31663">
        <ele>543.2</ele>
        <time>2021-07-24 14:32:27</time>
      </trkpt>
      <trkpt lat="42.68311" lon="-2.31661">
        <ele>543.2</ele>
        <time>2021-07-24 14:32:31</time>
      </trkpt>
      <trkpt lat="42.68314" lon="-2.3165">
        <ele>543.4</ele>
        <time>2021-07-24 14:32:35</time>
      </trkpt>
      <trkpt lat="42.68318" lon="-2.31639">
        <ele>543.2</ele>
        <time>2021-07-24 14:32:39</time>
      </trkpt>
      <trkpt lat="42.68322" lon="-2.31624">
        <ele>542.8</ele>
        <time>2021-07-24 14:32:43</time>
      </trkpt>
      <trkpt lat="42.68327" lon="-2.31607">
        <ele>542.4</ele>
        <time>2021-07-24 14:32:47</time>
      </trkpt>
      <trkpt lat="42.68331" lon="-2.3159">
        <ele>542.4</ele>
        <time>2021-07-24 14:32:51</time>
      </trkpt>
      <trkpt lat="42.68336" lon="-2.31572">
        <ele>542.8</ele>
        <time>2021-07-24 14:32:55</time>
      </trkpt>
      <trkpt lat="42.68342" lon="-2.31553">
        <ele>542.8</ele>
        <time>2021-07-24 14:32:59</time>
      </trkpt>
      <trkpt lat="42.68348" lon="-2.31535">
        <ele>542.8</ele>
        <time>2021-07-24 14:33:03</time>
      </trkpt>
      <trkpt lat="42.68354" lon="-2.31516">
        <ele>542.8</ele>
        <time>2021-07-24 14:33:07</time>
      </trkpt>
      <trkpt lat="42.68361" lon="-2.31495">
        <ele>542.6</ele>
        <time>2021-07-24 14:33:11</time>
      </trkpt>
      <trkpt lat="42.68367" lon="-2.31476">
        <ele>542.2</ele>
        <time>2021-07-24 14:33:15</time>
      </trkpt>
      <trkpt lat="42.68374" lon="-2.31456">
        <ele>541.8</ele>
        <time>2021-07-24 14:33:19</time>
      </trkpt>
      <trkpt lat="42.6838" lon="-2.31435">
        <ele>542.8</ele>
        <time>2021-07-24 14:33:23</time>
      </trkpt>
      <trkpt lat="42.68385" lon="-2.31415">
        <ele>542.8</ele>
        <time>2021-07-24 14:33:27</time>
      </trkpt>
      <trkpt lat="42.68392" lon="-2.31394">
        <ele>542.6</ele>
        <time>2021-07-24 14:33:31</time>
      </trkpt>
      <trkpt lat="42.68398" lon="-2.31372">
        <ele>543</ele>
        <time>2021-07-24 14:33:35</time>
      </trkpt>
      <trkpt lat="42.68405" lon="-2.3135">
        <ele>542.6</ele>
        <time>2021-07-24 14:33:39</time>
      </trkpt>
      <trkpt lat="42.68411" lon="-2.31328">
        <ele>543</ele>
        <time>2021-07-24 14:33:43</time>
      </trkpt>
      <trkpt lat="42.68418" lon="-2.31306">
        <ele>543</ele>
        <time>2021-07-24 14:33:47</time>
      </trkpt>
      <trkpt lat="42.68425" lon="-2.31283">
        <ele>542.6</ele>
        <time>2021-07-24 14:33:51</time>
      </trkpt>
      <trkpt lat="42.68432" lon="-2.3126">
        <ele>542.8</ele>
        <time>2021-07-24 14:33:55</time>
      </trkpt>
      <trkpt lat="42.68438" lon="-2.31238">
        <ele>542.8</ele>
        <time>2021-07-24 14:33:59</time>
      </trkpt>
      <trkpt lat="42.68444" lon="-2.31216">
        <ele>542.4</ele>
        <time>2021-07-24 14:34:03</time>
      </trkpt>
      <trkpt lat="42.68451" lon="-2.31195">
        <ele>542.4</ele>
        <time>2021-07-24 14:34:07</time>
      </trkpt>
      <trkpt lat="42.68457" lon="-2.31174">
        <ele>542</ele>
        <time>2021-07-24 14:34:11</time>
      </trkpt>
      <trkpt lat="42.68463" lon="-2.31154">
        <ele>542</ele>
        <time>2021-07-24 14:34:15</time>
      </trkpt>
      <trkpt lat="42.68469" lon="-2.31134">
        <ele>542</ele>
        <time>2021-07-24 14:34:19</time>
      </trkpt>
      <trkpt lat="42.68475" lon="-2.31115">
        <ele>541.8</ele>
        <time>2021-07-24 14:34:23</time>
      </trkpt>
      <trkpt lat="42.68481" lon="-2.31095">
        <ele>541.8</ele>
        <time>2021-07-24 14:34:27</time>
      </trkpt>
      <trkpt lat="42.68487" lon="-2.31075">
        <ele>541.4</ele>
        <time>2021-07-24 14:34:31</time>
      </trkpt>
      <trkpt lat="42.68493" lon="-2.31054">
        <ele>542.4</ele>
        <time>2021-07-24 14:34:35</time>
      </trkpt>
      <trkpt lat="42.68499" lon="-2.31035">
        <ele>542.2</ele>
        <time>2021-07-24 14:34:39</time>
      </trkpt>
      <trkpt lat="42.68504" lon="-2.31015">
        <ele>541.6</ele>
        <time>2021-07-24 14:34:43</time>
      </trkpt>
      <trkpt lat="42.68508" lon="-2.30996">
        <ele>542.6</ele>
        <time>2021-07-24 14:34:47</time>
      </trkpt>
      <trkpt lat="42.68515" lon="-2.30976">
        <ele>542.8</ele>
        <time>2021-07-24 14:34:51</time>
      </trkpt>
      <trkpt lat="42.68521" lon="-2.30956">
        <ele>542</ele>
        <time>2021-07-24 14:34:55</time>
      </trkpt>
      <trkpt lat="42.68527" lon="-2.30936">
        <ele>542.4</ele>
        <time>2021-07-24 14:34:59</time>
      </trkpt>
      <trkpt lat="42.68533" lon="-2.30917">
        <ele>542</ele>
        <time>2021-07-24 14:35:03</time>
      </trkpt>
      <trkpt lat="42.68539" lon="-2.30897">
        <ele>542</ele>
        <time>2021-07-24 14:35:07</time>
      </trkpt>
      <trkpt lat="42.68545" lon="-2.30876">
        <ele>541.8</ele>
        <time>2021-07-24 14:35:11</time>
      </trkpt>
      <trkpt lat="42.68552" lon="-2.30856">
        <ele>542.4</ele>
        <time>2021-07-24 14:35:15</time>
      </trkpt>
      <trkpt lat="42.68558" lon="-2.30836">
        <ele>541.8</ele>
        <time>2021-07-24 14:35:19</time>
      </trkpt>
      <trkpt lat="42.68565" lon="-2.30816">
        <ele>541.8</ele>
        <time>2021-07-24 14:35:23</time>
      </trkpt>
      <trkpt lat="42.6857" lon="-2.30796">
        <ele>541.6</ele>
        <time>2021-07-24 14:35:27</time>
      </trkpt>
      <trkpt lat="42.68576" lon="-2.30778">
        <ele>541.4</ele>
        <time>2021-07-24 14:35:31</time>
      </trkpt>
      <trkpt lat="42.68581" lon="-2.30758">
        <ele>542.4</ele>
        <time>2021-07-24 14:35:35</time>
      </trkpt>
      <trkpt lat="42.68587" lon="-2.30739">
        <ele>542</ele>
        <time>2021-07-24 14:35:39</time>
      </trkpt>
      <trkpt lat="42.68594" lon="-2.30719">
        <ele>542.2</ele>
        <time>2021-07-24 14:35:43</time>
      </trkpt>
      <trkpt lat="42.686" lon="-2.30699">
        <ele>542.2</ele>
        <time>2021-07-24 14:35:47</time>
      </trkpt>
      <trkpt lat="42.68606" lon="-2.30679">
        <ele>542.4</ele>
        <time>2021-07-24 14:35:51</time>
      </trkpt>
      <trkpt lat="42.68612" lon="-2.3066">
        <ele>542.2</ele>
        <time>2021-07-24 14:35:55</time>
      </trkpt>
      <trkpt lat="42.68617" lon="-2.30641">
        <ele>542.6</ele>
        <time>2021-07-24 14:35:59</time>
      </trkpt>
      <trkpt lat="42.68624" lon="-2.3062">
        <ele>542.4</ele>
        <time>2021-07-24 14:36:03</time>
      </trkpt>
      <trkpt lat="42.6863" lon="-2.306">
        <ele>542</ele>
        <time>2021-07-24 14:36:07</time>
      </trkpt>
      <trkpt lat="42.68636" lon="-2.30579">
        <ele>542.2</ele>
        <time>2021-07-24 14:36:11</time>
      </trkpt>
      <trkpt lat="42.68641" lon="-2.30559">
        <ele>541.8</ele>
        <time>2021-07-24 14:36:15</time>
      </trkpt>
      <trkpt lat="42.68647" lon="-2.30537">
        <ele>541.8</ele>
        <time>2021-07-24 14:36:19</time>
      </trkpt>
      <trkpt lat="42.68654" lon="-2.30516">
        <ele>541.4</ele>
        <time>2021-07-24 14:36:23</time>
      </trkpt>
      <trkpt lat="42.6866" lon="-2.30495">
        <ele>541.6</ele>
        <time>2021-07-24 14:36:27</time>
      </trkpt>
      <trkpt lat="42.68666" lon="-2.30475">
        <ele>541.4</ele>
        <time>2021-07-24 14:36:31</time>
      </trkpt>
      <trkpt lat="42.68672" lon="-2.30452">
        <ele>541.2</ele>
        <time>2021-07-24 14:36:35</time>
      </trkpt>
      <trkpt lat="42.68679" lon="-2.3043">
        <ele>541.2</ele>
        <time>2021-07-24 14:36:39</time>
      </trkpt>
      <trkpt lat="42.68686" lon="-2.3041">
        <ele>541.2</ele>
        <time>2021-07-24 14:36:43</time>
      </trkpt>
      <trkpt lat="42.68692" lon="-2.30388">
        <ele>540.6</ele>
        <time>2021-07-24 14:36:47</time>
      </trkpt>
      <trkpt lat="42.68698" lon="-2.30366">
        <ele>540.6</ele>
        <time>2021-07-24 14:36:51</time>
      </trkpt>
      <trkpt lat="42.68704" lon="-2.30341">
        <ele>540.2</ele>
        <time>2021-07-24 14:36:55</time>
      </trkpt>
      <trkpt lat="42.68712" lon="-2.30316">
        <ele>540.4</ele>
        <time>2021-07-24 14:36:59</time>
      </trkpt>
      <trkpt lat="42.68721" lon="-2.30291">
        <ele>540.6</ele>
        <time>2021-07-24 14:37:03</time>
      </trkpt>
      <trkpt lat="42.68728" lon="-2.30267">
        <ele>540.4</ele>
        <time>2021-07-24 14:37:07</time>
      </trkpt>
      <trkpt lat="42.68736" lon="-2.30243">
        <ele>539.8</ele>
        <time>2021-07-24 14:37:11</time>
      </trkpt>
      <trkpt lat="42.68744" lon="-2.30217">
        <ele>539.6</ele>
        <time>2021-07-24 14:37:15</time>
      </trkpt>
      <trkpt lat="42.68752" lon="-2.30191">
        <ele>539.6</ele>
        <time>2021-07-24 14:37:19</time>
      </trkpt>
      <trkpt lat="42.68759" lon="-2.30166">
        <ele>539.2</ele>
        <time>2021-07-24 14:37:23</time>
      </trkpt>
      <trkpt lat="42.68768" lon="-2.30139">
        <ele>538.8</ele>
        <time>2021-07-24 14:37:27</time>
      </trkpt>
      <trkpt lat="42.68776" lon="-2.3011">
        <ele>538.4</ele>
        <time>2021-07-24 14:37:31</time>
      </trkpt>
      <trkpt lat="42.68785" lon="-2.30083">
        <ele>538.2</ele>
        <time>2021-07-24 14:37:35</time>
      </trkpt>
      <trkpt lat="42.68793" lon="-2.30057">
        <ele>538.2</ele>
        <time>2021-07-24 14:37:39</time>
      </trkpt>
      <trkpt lat="42.68799" lon="-2.30033">
        <ele>538.4</ele>
        <time>2021-07-24 14:37:43</time>
      </trkpt>
      <trkpt lat="42.68805" lon="-2.30012">
        <ele>538.6</ele>
        <time>2021-07-24 14:37:47</time>
      </trkpt>
      <trkpt lat="42.6881" lon="-2.29993">
        <ele>539</ele>
        <time>2021-07-24 14:37:51</time>
      </trkpt>
      <trkpt lat="42.68816" lon="-2.29974">
        <ele>538.2</ele>
        <time>2021-07-24 14:37:55</time>
      </trkpt>
      <trkpt lat="42.68821" lon="-2.29955">
        <ele>538.6</ele>
        <time>2021-07-24 14:37:59</time>
      </trkpt>
      <trkpt lat="42.68827" lon="-2.29936">
        <ele>538.6</ele>
        <time>2021-07-24 14:38:03</time>
      </trkpt>
      <trkpt lat="42.68831" lon="-2.29919">
        <ele>539.4</ele>
        <time>2021-07-24 14:38:07</time>
      </trkpt>
      <trkpt lat="42.68836" lon="-2.29903">
        <ele>539</ele>
        <time>2021-07-24 14:38:11</time>
      </trkpt>
      <trkpt lat="42.68841" lon="-2.29889">
        <ele>539.4</ele>
        <time>2021-07-24 14:38:15</time>
      </trkpt>
      <trkpt lat="42.68846" lon="-2.29877">
        <ele>539</ele>
        <time>2021-07-24 14:38:19</time>
      </trkpt>
      <trkpt lat="42.68846" lon="-2.29877">
        <ele>539.6</ele>
        <time>2021-07-24 14:38:23</time>
      </trkpt>
      <trkpt lat="42.68846" lon="-2.29877">
        <ele>539.6</ele>
        <time>2021-07-24 14:38:27</time>
      </trkpt>
      <trkpt lat="42.68846" lon="-2.29877">
        <ele>539.2</ele>
        <time>2021-07-24 14:38:31</time>
      </trkpt>
      <trkpt lat="42.68849" lon="-2.29869">
        <ele>539</ele>
        <time>2021-07-24 14:38:35</time>
      </trkpt>
      <trkpt lat="42.68848" lon="-2.29872">
        <ele>538.6</ele>
        <time>2021-07-24 14:38:39</time>
      </trkpt>
      <trkpt lat="42.68846" lon="-2.29877">
        <ele>539.4</ele>
        <time>2021-07-24 14:38:43</time>
      </trkpt>
      <trkpt lat="42.68844" lon="-2.29882">
        <ele>538.8</ele>
        <time>2021-07-24 14:38:47</time>
      </trkpt>
      <trkpt lat="42.68844" lon="-2.29887">
        <ele>538.8</ele>
        <time>2021-07-24 14:38:51</time>
      </trkpt>
      <trkpt lat="42.68844" lon="-2.29887">
        <ele>539</ele>
        <time>2021-07-24 14:38:55</time>
      </trkpt>
      <trkpt lat="42.68844" lon="-2.29887">
        <ele>538.8</ele>
        <time>2021-07-24 14:38:59</time>
      </trkpt>
      <trkpt lat="42.68844" lon="-2.29887">
        <ele>539.4</ele>
        <time>2021-07-24 14:39:03</time>
      </trkpt>
      <trkpt lat="42.68844" lon="-2.29887">
        <ele>539</ele>
        <time>2021-07-24 14:39:07</time>
      </trkpt>
      <trkpt lat="42.68844" lon="-2.29887">
        <ele>539</ele>
        <time>2021-07-24 14:39:11</time>
      </trkpt>
      <trkpt lat="42.68844" lon="-2.29887">
        <ele>539.2</ele>
        <time>2021-07-24 14:39:15</time>
      </trkpt>
      <trkpt lat="42.68844" lon="-2.29887">
        <ele>539.2</ele>
        <time>2021-07-24 14:39:19</time>
      </trkpt>
      <trkpt lat="42.68844" lon="-2.29887">
        <ele>539.6</ele>
        <time>2021-07-24 14:39:23</time>
      </trkpt>
      <trkpt lat="42.68844" lon="-2.29887">
        <ele>539</ele>
        <time>2021-07-24 14:39:27</time>
      </trkpt>
      <trkpt lat="42.68844" lon="-2.29887">
        <ele>538.8</ele>
        <time>2021-07-24 14:39:31</time>
      </trkpt>
      <trkpt lat="42.68844" lon="-2.29887">
        <ele>539.4</ele>
        <time>2021-07-24 14:39:35</time>
      </trkpt>
      <trkpt lat="42.68844" lon="-2.29887">
        <ele>539.4</ele>
        <time>2021-07-24 14:39:39</time>
      </trkpt>
      <trkpt lat="42.68844" lon="-2.29887">
        <ele>539</ele>
        <time>2021-07-24 14:39:43</time>
      </trkpt>
      <trkpt lat="42.68844" lon="-2.29887">
        <ele>539</ele>
        <time>2021-07-24 14:39:47</time>
      </trkpt>
      <trkpt lat="42.68844" lon="-2.29887">
        <ele>539.4</ele>
        <time>2021-07-24 14:39:51</time>
      </trkpt>
      <trkpt lat="42.68844" lon="-2.29887">
        <ele>539.2</ele>
        <time>2021-07-24 14:39:55</time>
      </trkpt>
      <trkpt lat="42.68844" lon="-2.29887">
        <ele>539.2</ele>
        <time>2021-07-24 14:39:59</time>
      </trkpt>
      <trkpt lat="42.68844" lon="-2.29887">
        <ele>539</ele>
        <time>2021-07-24 14:40:03</time>
      </trkpt>
      <trkpt lat="42.68844" lon="-2.29887">
        <ele>538.6</ele>
        <time>2021-07-24 14:40:07</time>
      </trkpt>
      <trkpt lat="42.68844" lon="-2.29887">
        <ele>538.6</ele>
        <time>2021-07-24 14:40:11</time>
      </trkpt>
      <trkpt lat="42.68844" lon="-2.29887">
        <ele>539</ele>
        <time>2021-07-24 14:40:15</time>
      </trkpt>
      <trkpt lat="42.68844" lon="-2.29887">
        <ele>539</ele>
        <time>2021-07-24 14:40:19</time>
      </trkpt>
      <trkpt lat="42.68844" lon="-2.29887">
        <ele>538.4</ele>
        <time>2021-07-24 14:40:23</time>
      </trkpt>
      <trkpt lat="42.68844" lon="-2.29887">
        <ele>539</ele>
        <time>2021-07-24 14:40:27</time>
      </trkpt>
      <trkpt lat="42.68844" lon="-2.29887">
        <ele>538.8</ele>
        <time>2021-07-24 14:40:31</time>
      </trkpt>
      <trkpt lat="42.68844" lon="-2.29887">
        <ele>539</ele>
        <time>2021-07-24 14:40:35</time>
      </trkpt>
      <trkpt lat="42.68844" lon="-2.29887">
        <ele>538.8</ele>
        <time>2021-07-24 14:40:39</time>
      </trkpt>
      <trkpt lat="42.68844" lon="-2.29887">
        <ele>539</ele>
        <time>2021-07-24 14:40:43</time>
      </trkpt>
      <trkpt lat="42.68844" lon="-2.29887">
        <ele>539</ele>
        <time>2021-07-24 14:40:47</time>
      </trkpt>
      <trkpt lat="42.68844" lon="-2.29887">
        <ele>538.8</ele>
        <time>2021-07-24 14:40:51</time>
      </trkpt>
      <trkpt lat="42.68844" lon="-2.29887">
        <ele>538.4</ele>
        <time>2021-07-24 14:40:55</time>
      </trkpt>
      <trkpt lat="42.68844" lon="-2.29887">
        <ele>538.4</ele>
        <time>2021-07-24 14:40:59</time>
      </trkpt>
      <trkpt lat="42.68844" lon="-2.29887">
        <ele>538.2</ele>
        <time>2021-07-24 14:41:03</time>
      </trkpt>
      <trkpt lat="42.68844" lon="-2.29887">
        <ele>538.8</ele>
        <time>2021-07-24 14:41:07</time>
      </trkpt>
      <trkpt lat="42.68844" lon="-2.29887">
        <ele>538.8</ele>
        <time>2021-07-24 14:41:11</time>
      </trkpt>
      <trkpt lat="42.68844" lon="-2.29887">
        <ele>538.8</ele>
        <time>2021-07-24 14:41:15</time>
      </trkpt>
      <trkpt lat="42.68844" lon="-2.29887">
        <ele>538.6</ele>
        <time>2021-07-24 14:41:19</time>
      </trkpt>
      <trkpt lat="42.68844" lon="-2.29887">
        <ele>538.8</ele>
        <time>2021-07-24 14:41:23</time>
      </trkpt>
      <trkpt lat="42.68844" lon="-2.29887">
        <ele>538.6</ele>
        <time>2021-07-24 14:41:27</time>
      </trkpt>
      <trkpt lat="42.68844" lon="-2.29887">
        <ele>538.4</ele>
        <time>2021-07-24 14:41:31</time>
      </trkpt>
      <trkpt lat="42.68844" lon="-2.29887">
        <ele>538.8</ele>
        <time>2021-07-24 14:41:35</time>
      </trkpt>
      <trkpt lat="42.68844" lon="-2.29887">
        <ele>538.4</ele>
        <time>2021-07-24 14:41:39</time>
      </trkpt>
      <trkpt lat="42.68844" lon="-2.29887">
        <ele>538.8</ele>
        <time>2021-07-24 14:41:43</time>
      </trkpt>
      <trkpt lat="42.68844" lon="-2.29887">
        <ele>538.4</ele>
        <time>2021-07-24 14:41:47</time>
      </trkpt>
      <trkpt lat="42.68844" lon="-2.29887">
        <ele>538.4</ele>
        <time>2021-07-24 14:41:51</time>
      </trkpt>
      <trkpt lat="42.68844" lon="-2.29887">
        <ele>539</ele>
        <time>2021-07-24 14:41:55</time>
      </trkpt>
      <trkpt lat="42.68844" lon="-2.29887">
        <ele>538.8</ele>
        <time>2021-07-24 14:41:59</time>
      </trkpt>
      <trkpt lat="42.68844" lon="-2.29887">
        <ele>538.6</ele>
        <time>2021-07-24 14:42:03</time>
      </trkpt>
      <trkpt lat="42.68844" lon="-2.29887">
        <ele>538.6</ele>
        <time>2021-07-24 14:42:07</time>
      </trkpt>
      <trkpt lat="42.68844" lon="-2.29887">
        <ele>538.4</ele>
        <time>2021-07-24 14:42:11</time>
      </trkpt>
      <trkpt lat="42.68844" lon="-2.29887">
        <ele>538.2</ele>
        <time>2021-07-24 14:42:15</time>
      </trkpt>
      <trkpt lat="42.68844" lon="-2.29887">
        <ele>538.2</ele>
        <time>2021-07-24 14:42:19</time>
      </trkpt>
      <trkpt lat="42.68844" lon="-2.29887">
        <ele>538.2</ele>
        <time>2021-07-24 14:42:23</time>
      </trkpt>
      <trkpt lat="42.68844" lon="-2.29887">
        <ele>538.6</ele>
        <time>2021-07-24 14:42:27</time>
      </trkpt>
      <trkpt lat="42.68844" lon="-2.29887">
        <ele>538.4</ele>
        <time>2021-07-24 14:42:31</time>
      </trkpt>
      <trkpt lat="42.68844" lon="-2.29887">
        <ele>538.4</ele>
        <time>2021-07-24 14:42:35</time>
      </trkpt>
      <trkpt lat="42.68844" lon="-2.29887">
        <ele>538.2</ele>
        <time>2021-07-24 14:42:39</time>
      </trkpt>
      <trkpt lat="42.68844" lon="-2.29887">
        <ele>538.6</ele>
        <time>2021-07-24 14:42:43</time>
      </trkpt>
      <trkpt lat="42.68844" lon="-2.29887">
        <ele>538.2</ele>
        <time>2021-07-24 14:42:47</time>
      </trkpt>
      <trkpt lat="42.68844" lon="-2.29887">
        <ele>538.6</ele>
        <time>2021-07-24 14:42:51</time>
      </trkpt>
      <trkpt lat="42.68844" lon="-2.29887">
        <ele>538.6</ele>
        <time>2021-07-24 14:42:55</time>
      </trkpt>
      <trkpt lat="42.68844" lon="-2.29887">
        <ele>538.4</ele>
        <time>2021-07-24 14:42:59</time>
      </trkpt>
      <trkpt lat="42.68844" lon="-2.29887">
        <ele>538.2</ele>
        <time>2021-07-24 14:43:03</time>
      </trkpt>
      <trkpt lat="42.68844" lon="-2.29887">
        <ele>538.6</ele>
        <time>2021-07-24 14:43:07</time>
      </trkpt>
      <trkpt lat="42.68844" lon="-2.29887">
        <ele>538.2</ele>
        <time>2021-07-24 14:43:11</time>
      </trkpt>
      <trkpt lat="42.68844" lon="-2.29887">
        <ele>538</ele>
        <time>2021-07-24 14:43:15</time>
      </trkpt>
      <trkpt lat="42.68844" lon="-2.29887">
        <ele>538</ele>
        <time>2021-07-24 14:43:19</time>
      </trkpt>
      <trkpt lat="42.68844" lon="-2.29887">
        <ele>538</ele>
        <time>2021-07-24 14:43:23</time>
      </trkpt>
      <trkpt lat="42.68844" lon="-2.29887">
        <ele>538.2</ele>
        <time>2021-07-24 14:43:27</time>
      </trkpt>
      <trkpt lat="42.68844" lon="-2.29887">
        <ele>538.4</ele>
        <time>2021-07-24 14:43:31</time>
      </trkpt>
      <trkpt lat="42.68844" lon="-2.29887">
        <ele>538.2</ele>
        <time>2021-07-24 14:43:35</time>
      </trkpt>
      <trkpt lat="42.68844" lon="-2.29887">
        <ele>538.4</ele>
        <time>2021-07-24 14:43:39</time>
      </trkpt>
      <trkpt lat="42.68844" lon="-2.29887">
        <ele>538.2</ele>
        <time>2021-07-24 14:43:43</time>
      </trkpt>
      <trkpt lat="42.68844" lon="-2.29887">
        <ele>538.2</ele>
        <time>2021-07-24 14:43:47</time>
      </trkpt>
      <trkpt lat="42.68844" lon="-2.29887">
        <ele>538.2</ele>
        <time>2021-07-24 14:43:51</time>
      </trkpt>
      <trkpt lat="42.68844" lon="-2.29887">
        <ele>538.2</ele>
        <time>2021-07-24 14:43:55</time>
      </trkpt>
      <trkpt lat="42.68844" lon="-2.29887">
        <ele>538.4</ele>
        <time>2021-07-24 14:43:59</time>
      </trkpt>
      <trkpt lat="42.68844" lon="-2.29887">
        <ele>538.2</ele>
        <time>2021-07-24 14:44:03</time>
      </trkpt>
      <trkpt lat="42.68844" lon="-2.29887">
        <ele>538.6</ele>
        <time>2021-07-24 14:44:07</time>
      </trkpt>
      <trkpt lat="42.68844" lon="-2.29887">
        <ele>538.4</ele>
        <time>2021-07-24 14:44:11</time>
      </trkpt>
      <trkpt lat="42.68844" lon="-2.29887">
        <ele>538.2</ele>
        <time>2021-07-24 14:44:15</time>
      </trkpt>
      <trkpt lat="42.68844" lon="-2.29887">
        <ele>538.4</ele>
        <time>2021-07-24 14:44:19</time>
      </trkpt>
      <trkpt lat="42.68844" lon="-2.29887">
        <ele>538.2</ele>
        <time>2021-07-24 14:44:23</time>
      </trkpt>
      <trkpt lat="42.68844" lon="-2.29887">
        <ele>538.2</ele>
        <time>2021-07-24 14:44:27</time>
      </trkpt>
      <trkpt lat="42.68844" lon="-2.29887">
        <ele>537.6</ele>
        <time>2021-07-24 14:44:31</time>
      </trkpt>
      <trkpt lat="42.68844" lon="-2.29887">
        <ele>537.6</ele>
        <time>2021-07-24 14:44:35</time>
      </trkpt>
      <trkpt lat="42.68844" lon="-2.29887">
        <ele>538</ele>
        <time>2021-07-24 14:44:39</time>
      </trkpt>
      <trkpt lat="42.68844" lon="-2.29887">
        <ele>537.6</ele>
        <time>2021-07-24 14:44:43</time>
      </trkpt>
      <trkpt lat="42.68844" lon="-2.29887">
        <ele>537.8</ele>
        <time>2021-07-24 14:44:47</time>
      </trkpt>
      <trkpt lat="42.68844" lon="-2.29887">
        <ele>537.6</ele>
        <time>2021-07-24 14:44:51</time>
      </trkpt>
      <trkpt lat="42.68844" lon="-2.29887">
        <ele>537.4</ele>
        <time>2021-07-24 14:44:55</time>
      </trkpt>
      <trkpt lat="42.68844" lon="-2.29887">
        <ele>537.4</ele>
        <time>2021-07-24 14:44:59</time>
      </trkpt>
      <trkpt lat="42.68844" lon="-2.29887">
        <ele>537.2</ele>
        <time>2021-07-24 14:45:03</time>
      </trkpt>
      <trkpt lat="42.68844" lon="-2.29887">
        <ele>537.4</ele>
        <time>2021-07-24 14:45:07</time>
      </trkpt>
      <trkpt lat="42.68844" lon="-2.29887">
        <ele>537.2</ele>
        <time>2021-07-24 14:45:11</time>
      </trkpt>
      <trkpt lat="42.68844" lon="-2.29887">
        <ele>537.6</ele>
        <time>2021-07-24 14:45:15</time>
      </trkpt>
      <trkpt lat="42.68844" lon="-2.29887">
        <ele>537.4</ele>
        <time>2021-07-24 14:45:19</time>
      </trkpt>
      <trkpt lat="42.68844" lon="-2.29887">
        <ele>537.4</ele>
        <time>2021-07-24 14:45:23</time>
      </trkpt>
      <trkpt lat="42.68844" lon="-2.29887">
        <ele>537.6</ele>
        <time>2021-07-24 14:45:27</time>
      </trkpt>
      <trkpt lat="42.68844" lon="-2.29887">
        <ele>537.6</ele>
        <time>2021-07-24 14:45:31</time>
      </trkpt>
      <trkpt lat="42.68844" lon="-2.29887">
        <ele>537.6</ele>
        <time>2021-07-24 14:45:35</time>
      </trkpt>
      <trkpt lat="42.68844" lon="-2.29887">
        <ele>537.2</ele>
        <time>2021-07-24 14:45:39</time>
      </trkpt>
      <trkpt lat="42.68844" lon="-2.29887">
        <ele>537.6</ele>
        <time>2021-07-24 14:45:43</time>
      </trkpt>
      <trkpt lat="42.68844" lon="-2.29887">
        <ele>537.4</ele>
        <time>2021-07-24 14:45:47</time>
      </trkpt>
      <trkpt lat="42.68844" lon="-2.29887">
        <ele>537.6</ele>
        <time>2021-07-24 14:45:51</time>
      </trkpt>
      <trkpt lat="42.68844" lon="-2.29887">
        <ele>537.4</ele>
        <time>2021-07-24 14:45:55</time>
      </trkpt>
      <trkpt lat="42.68844" lon="-2.29887">
        <ele>537.6</ele>
        <time>2021-07-24 14:45:59</time>
      </trkpt>
      <trkpt lat="42.68844" lon="-2.29887">
        <ele>537.6</ele>
        <time>2021-07-24 14:46:03</time>
      </trkpt>
      <trkpt lat="42.68844" lon="-2.29887">
        <ele>537.6</ele>
        <time>2021-07-24 14:46:07</time>
      </trkpt>
      <trkpt lat="42.68844" lon="-2.29887">
        <ele>537.6</ele>
        <time>2021-07-24 14:46:11</time>
      </trkpt>
      <trkpt lat="42.68844" lon="-2.29887">
        <ele>537.4</ele>
        <time>2021-07-24 14:46:15</time>
      </trkpt>
      <trkpt lat="42.68844" lon="-2.29887">
        <ele>537.2</ele>
        <time>2021-07-24 14:46:19</time>
      </trkpt>
      <trkpt lat="42.68844" lon="-2.29887">
        <ele>537.6</ele>
        <time>2021-07-24 14:46:23</time>
      </trkpt>
      <trkpt lat="42.68844" lon="-2.29887">
        <ele>537.2</ele>
        <time>2021-07-24 14:46:27</time>
      </trkpt>
      <trkpt lat="42.68844" lon="-2.29887">
        <ele>537.2</ele>
        <time>2021-07-24 14:46:31</time>
      </trkpt>
      <trkpt lat="42.68844" lon="-2.29887">
        <ele>537</ele>
        <time>2021-07-24 14:46:35</time>
      </trkpt>
      <trkpt lat="42.68844" lon="-2.29887">
        <ele>537.4</ele>
        <time>2021-07-24 14:46:39</time>
      </trkpt>
      <trkpt lat="42.68844" lon="-2.29887">
        <ele>537.2</ele>
        <time>2021-07-24 14:46:43</time>
      </trkpt>
      <trkpt lat="42.68844" lon="-2.29887">
        <ele>537.4</ele>
        <time>2021-07-24 14:46:47</time>
      </trkpt>
      <trkpt lat="42.68844" lon="-2.29887">
        <ele>537.2</ele>
        <time>2021-07-24 14:46:51</time>
      </trkpt>
      <trkpt lat="42.68844" lon="-2.29887">
        <ele>537.4</ele>
        <time>2021-07-24 14:46:55</time>
      </trkpt>
      <trkpt lat="42.68844" lon="-2.29887">
        <ele>537.2</ele>
        <time>2021-07-24 14:46:59</time>
      </trkpt>
      <trkpt lat="42.68844" lon="-2.29887">
        <ele>537.2</ele>
        <time>2021-07-24 14:47:03</time>
      </trkpt>
      <trkpt lat="42.68844" lon="-2.29887">
        <ele>537.2</ele>
        <time>2021-07-24 14:47:07</time>
      </trkpt>
      <trkpt lat="42.68844" lon="-2.29887">
        <ele>536.8</ele>
        <time>2021-07-24 14:47:11</time>
      </trkpt>
      <trkpt lat="42.68844" lon="-2.29887">
        <ele>537</ele>
        <time>2021-07-24 14:47:15</time>
      </trkpt>
      <trkpt lat="42.68844" lon="-2.29887">
        <ele>537.2</ele>
        <time>2021-07-24 14:47:19</time>
      </trkpt>
      <trkpt lat="42.68844" lon="-2.29887">
        <ele>537</ele>
        <time>2021-07-24 14:47:23</time>
      </trkpt>
      <trkpt lat="42.68844" lon="-2.29887">
        <ele>537.4</ele>
        <time>2021-07-24 14:47:27</time>
      </trkpt>
      <trkpt lat="42.68844" lon="-2.29887">
        <ele>537.4</ele>
        <time>2021-07-24 14:47:31</time>
      </trkpt>
      <trkpt lat="42.68844" lon="-2.29887">
        <ele>537.4</ele>
        <time>2021-07-24 14:47:35</time>
      </trkpt>
      <trkpt lat="42.68844" lon="-2.29887">
        <ele>537.2</ele>
        <time>2021-07-24 14:47:39</time>
      </trkpt>
      <trkpt lat="42.68844" lon="-2.29887">
        <ele>537</ele>
        <time>2021-07-24 14:47:43</time>
      </trkpt>
      <trkpt lat="42.68844" lon="-2.29887">
        <ele>537</ele>
        <time>2021-07-24 14:47:47</time>
      </trkpt>
      <trkpt lat="42.68844" lon="-2.29887">
        <ele>537.4</ele>
        <time>2021-07-24 14:47:51</time>
      </trkpt>
      <trkpt lat="42.68844" lon="-2.29887">
        <ele>537</ele>
        <time>2021-07-24 14:47:55</time>
      </trkpt>
      <trkpt lat="42.68844" lon="-2.29887">
        <ele>537</ele>
        <time>2021-07-24 14:47:59</time>
      </trkpt>
      <trkpt lat="42.68844" lon="-2.29887">
        <ele>537</ele>
        <time>2021-07-24 14:48:03</time>
      </trkpt>
      <trkpt lat="42.68844" lon="-2.29887">
        <ele>537</ele>
        <time>2021-07-24 14:48:07</time>
      </trkpt>
      <trkpt lat="42.68844" lon="-2.29887">
        <ele>537</ele>
        <time>2021-07-24 14:48:11</time>
      </trkpt>
      <trkpt lat="42.68844" lon="-2.29887">
        <ele>537.2</ele>
        <time>2021-07-24 14:48:15</time>
      </trkpt>
      <trkpt lat="42.68844" lon="-2.29887">
        <ele>537</ele>
        <time>2021-07-24 14:48:19</time>
      </trkpt>
      <trkpt lat="42.68844" lon="-2.29887">
        <ele>536.8</ele>
        <time>2021-07-24 14:48:23</time>
      </trkpt>
      <trkpt lat="42.68844" lon="-2.29887">
        <ele>537</ele>
        <time>2021-07-24 14:48:27</time>
      </trkpt>
      <trkpt lat="42.68844" lon="-2.29887">
        <ele>537</ele>
        <time>2021-07-24 14:48:31</time>
      </trkpt>
      <trkpt lat="42.68844" lon="-2.29887">
        <ele>536.8</ele>
        <time>2021-07-24 14:48:35</time>
      </trkpt>
      <trkpt lat="42.68844" lon="-2.29887">
        <ele>536.4</ele>
        <time>2021-07-24 14:48:39</time>
      </trkpt>
      <trkpt lat="42.68844" lon="-2.29887">
        <ele>536.8</ele>
        <time>2021-07-24 14:48:43</time>
      </trkpt>
      <trkpt lat="42.68844" lon="-2.29887">
        <ele>536.8</ele>
        <time>2021-07-24 14:48:47</time>
      </trkpt>
      <trkpt lat="42.68844" lon="-2.29887">
        <ele>536.8</ele>
        <time>2021-07-24 14:48:51</time>
      </trkpt>
      <trkpt lat="42.68844" lon="-2.29887">
        <ele>537.2</ele>
        <time>2021-07-24 14:48:55</time>
      </trkpt>
      <trkpt lat="42.68844" lon="-2.29887">
        <ele>537</ele>
        <time>2021-07-24 14:48:59</time>
      </trkpt>
      <trkpt lat="42.68844" lon="-2.29887">
        <ele>536.8</ele>
        <time>2021-07-24 14:49:03</time>
      </trkpt>
      <trkpt lat="42.68844" lon="-2.29887">
        <ele>537.2</ele>
        <time>2021-07-24 14:49:07</time>
      </trkpt>
      <trkpt lat="42.68844" lon="-2.29887">
        <ele>537.2</ele>
        <time>2021-07-24 14:49:11</time>
      </trkpt>
      <trkpt lat="42.68844" lon="-2.29887">
        <ele>537.2</ele>
        <time>2021-07-24 14:49:15</time>
      </trkpt>
      <trkpt lat="42.68844" lon="-2.29887">
        <ele>537.2</ele>
        <time>2021-07-24 14:49:19</time>
      </trkpt>
      <trkpt lat="42.68844" lon="-2.29887">
        <ele>537.2</ele>
        <time>2021-07-24 14:49:23</time>
      </trkpt>
      <trkpt lat="42.68844" lon="-2.29887">
        <ele>537.2</ele>
        <time>2021-07-24 14:49:27</time>
      </trkpt>
      <trkpt lat="42.68844" lon="-2.29887">
        <ele>537</ele>
        <time>2021-07-24 14:49:31</time>
      </trkpt>
      <trkpt lat="42.68844" lon="-2.29887">
        <ele>537.2</ele>
        <time>2021-07-24 14:49:35</time>
      </trkpt>
      <trkpt lat="42.68844" lon="-2.29887">
        <ele>537</ele>
        <time>2021-07-24 14:49:39</time>
      </trkpt>
      <trkpt lat="42.68844" lon="-2.29887">
        <ele>537.2</ele>
        <time>2021-07-24 14:49:43</time>
      </trkpt>
      <trkpt lat="42.68844" lon="-2.29887">
        <ele>537</ele>
        <time>2021-07-24 14:49:47</time>
      </trkpt>
      <trkpt lat="42.68844" lon="-2.29887">
        <ele>537</ele>
        <time>2021-07-24 14:49:51</time>
      </trkpt>
      <trkpt lat="42.68844" lon="-2.29887">
        <ele>536.6</ele>
        <time>2021-07-24 14:49:55</time>
      </trkpt>
      <trkpt lat="42.68844" lon="-2.29887">
        <ele>536.8</ele>
        <time>2021-07-24 14:49:59</time>
      </trkpt>
      <trkpt lat="42.68844" lon="-2.29887">
        <ele>537.2</ele>
        <time>2021-07-24 14:50:03</time>
      </trkpt>
      <trkpt lat="42.68844" lon="-2.29887">
        <ele>537</ele>
        <time>2021-07-24 14:50:07</time>
      </trkpt>
      <trkpt lat="42.68844" lon="-2.29887">
        <ele>537</ele>
        <time>2021-07-24 14:50:11</time>
      </trkpt>
      <trkpt lat="42.68844" lon="-2.29887">
        <ele>537.4</ele>
        <time>2021-07-24 14:50:15</time>
      </trkpt>
      <trkpt lat="42.68844" lon="-2.29887">
        <ele>537</ele>
        <time>2021-07-24 14:50:19</time>
      </trkpt>
      <trkpt lat="42.68844" lon="-2.29887">
        <ele>537</ele>
        <time>2021-07-24 14:50:23</time>
      </trkpt>
      <trkpt lat="42.68844" lon="-2.29887">
        <ele>536.8</ele>
        <time>2021-07-24 14:50:27</time>
      </trkpt>
      <trkpt lat="42.68844" lon="-2.29887">
        <ele>536.8</ele>
        <time>2021-07-24 14:50:31</time>
      </trkpt>
      <trkpt lat="42.68844" lon="-2.29887">
        <ele>537</ele>
        <time>2021-07-24 14:50:35</time>
      </trkpt>
      <trkpt lat="42.68844" lon="-2.29887">
        <ele>536.8</ele>
        <time>2021-07-24 14:50:39</time>
      </trkpt>
      <trkpt lat="42.68844" lon="-2.29887">
        <ele>536.8</ele>
        <time>2021-07-24 14:50:43</time>
      </trkpt>
      <trkpt lat="42.68844" lon="-2.29887">
        <ele>537.2</ele>
        <time>2021-07-24 14:50:47</time>
      </trkpt>
      <trkpt lat="42.68844" lon="-2.29887">
        <ele>537.2</ele>
        <time>2021-07-24 14:50:51</time>
      </trkpt>
      <trkpt lat="42.68844" lon="-2.29887">
        <ele>537</ele>
        <time>2021-07-24 14:50:55</time>
      </trkpt>
      <trkpt lat="42.68844" lon="-2.29887">
        <ele>537.4</ele>
        <time>2021-07-24 14:50:59</time>
      </trkpt>
      <trkpt lat="42.68844" lon="-2.29887">
        <ele>537</ele>
        <time>2021-07-24 14:51:03</time>
      </trkpt>
      <trkpt lat="42.68844" lon="-2.29887">
        <ele>536.8</ele>
        <time>2021-07-24 14:51:07</time>
      </trkpt>
      <trkpt lat="42.68844" lon="-2.29887">
        <ele>537</ele>
        <time>2021-07-24 14:51:11</time>
      </trkpt>
      <trkpt lat="42.68844" lon="-2.29887">
        <ele>537</ele>
        <time>2021-07-24 14:51:15</time>
      </trkpt>
      <trkpt lat="42.68844" lon="-2.29887">
        <ele>536.8</ele>
        <time>2021-07-24 14:51:19</time>
      </trkpt>
      <trkpt lat="42.68844" lon="-2.29887">
        <ele>536.8</ele>
        <time>2021-07-24 14:51:23</time>
      </trkpt>
      <trkpt lat="42.68844" lon="-2.29887">
        <ele>537.4</ele>
        <time>2021-07-24 14:51:27</time>
      </trkpt>
      <trkpt lat="42.68844" lon="-2.29887">
        <ele>536.8</ele>
        <time>2021-07-24 14:51:31</time>
      </trkpt>
      <trkpt lat="42.68844" lon="-2.29887">
        <ele>536.8</ele>
        <time>2021-07-24 14:51:35</time>
      </trkpt>
      <trkpt lat="42.68844" lon="-2.29887">
        <ele>537.2</ele>
        <time>2021-07-24 14:51:39</time>
      </trkpt>
      <trkpt lat="42.68844" lon="-2.29887">
        <ele>537.2</ele>
        <time>2021-07-24 14:51:43</time>
      </trkpt>
      <trkpt lat="42.68844" lon="-2.29887">
        <ele>537.2</ele>
        <time>2021-07-24 14:51:47</time>
      </trkpt>
      <trkpt lat="42.68844" lon="-2.29887">
        <ele>537.2</ele>
        <time>2021-07-24 14:51:51</time>
      </trkpt>
      <trkpt lat="42.68844" lon="-2.29887">
        <ele>536.8</ele>
        <time>2021-07-24 14:51:55</time>
      </trkpt>
      <trkpt lat="42.68844" lon="-2.29887">
        <ele>537.2</ele>
        <time>2021-07-24 14:51:59</time>
      </trkpt>
      <trkpt lat="42.68844" lon="-2.29887">
        <ele>537</ele>
        <time>2021-07-24 14:52:03</time>
      </trkpt>
      <trkpt lat="42.68844" lon="-2.29887">
        <ele>537.4</ele>
        <time>2021-07-24 14:52:07</time>
      </trkpt>
      <trkpt lat="42.68844" lon="-2.29887">
        <ele>537.6</ele>
        <time>2021-07-24 14:52:11</time>
      </trkpt>
      <trkpt lat="42.68844" lon="-2.29887">
        <ele>537.6</ele>
        <time>2021-07-24 14:52:15</time>
      </trkpt>
      <trkpt lat="42.68844" lon="-2.29887">
        <ele>537.2</ele>
        <time>2021-07-24 14:52:19</time>
      </trkpt>
      <trkpt lat="42.68844" lon="-2.29887">
        <ele>537.2</ele>
        <time>2021-07-24 14:52:23</time>
      </trkpt>
      <trkpt lat="42.68844" lon="-2.29887">
        <ele>536.8</ele>
        <time>2021-07-24 14:52:27</time>
      </trkpt>
      <trkpt lat="42.68844" lon="-2.29887">
        <ele>537.4</ele>
        <time>2021-07-24 14:52:31</time>
      </trkpt>
      <trkpt lat="42.68844" lon="-2.29887">
        <ele>537.4</ele>
        <time>2021-07-24 14:52:35</time>
      </trkpt>
      <trkpt lat="42.68844" lon="-2.29887">
        <ele>537.2</ele>
        <time>2021-07-24 14:52:39</time>
      </trkpt>
      <trkpt lat="42.68844" lon="-2.29887">
        <ele>537</ele>
        <time>2021-07-24 14:52:43</time>
      </trkpt>
      <trkpt lat="42.68844" lon="-2.29887">
        <ele>537.4</ele>
        <time>2021-07-24 14:52:47</time>
      </trkpt>
      <trkpt lat="42.68844" lon="-2.29887">
        <ele>537.2</ele>
        <time>2021-07-24 14:52:51</time>
      </trkpt>
      <trkpt lat="42.68844" lon="-2.29887">
        <ele>537.2</ele>
        <time>2021-07-24 14:52:55</time>
      </trkpt>
      <trkpt lat="42.68844" lon="-2.29887">
        <ele>537.4</ele>
        <time>2021-07-24 14:52:59</time>
      </trkpt>
      <trkpt lat="42.68844" lon="-2.29887">
        <ele>537.4</ele>
        <time>2021-07-24 14:53:03</time>
      </trkpt>
      <trkpt lat="42.68844" lon="-2.29887">
        <ele>537.4</ele>
        <time>2021-07-24 14:53:07</time>
      </trkpt>
      <trkpt lat="42.68844" lon="-2.29887">
        <ele>537.4</ele>
        <time>2021-07-24 14:53:11</time>
      </trkpt>
      <trkpt lat="42.68844" lon="-2.29887">
        <ele>537.2</ele>
        <time>2021-07-24 14:53:15</time>
      </trkpt>
      <trkpt lat="42.68844" lon="-2.29887">
        <ele>537.2</ele>
        <time>2021-07-24 14:53:19</time>
      </trkpt>
      <trkpt lat="42.68844" lon="-2.29887">
        <ele>537.2</ele>
        <time>2021-07-24 14:53:23</time>
      </trkpt>
      <trkpt lat="42.68844" lon="-2.29887">
        <ele>537.4</ele>
        <time>2021-07-24 14:53:27</time>
      </trkpt>
      <trkpt lat="42.68844" lon="-2.29887">
        <ele>537.2</ele>
        <time>2021-07-24 14:53:31</time>
      </trkpt>
      <trkpt lat="42.68844" lon="-2.29887">
        <ele>537.2</ele>
        <time>2021-07-24 14:53:35</time>
      </trkpt>
      <trkpt lat="42.68844" lon="-2.29887">
        <ele>537.4</ele>
        <time>2021-07-24 14:53:39</time>
      </trkpt>
      <trkpt lat="42.68844" lon="-2.29887">
        <ele>537</ele>
        <time>2021-07-24 14:53:43</time>
      </trkpt>
      <trkpt lat="42.68844" lon="-2.29887">
        <ele>537.4</ele>
        <time>2021-07-24 14:53:47</time>
      </trkpt>
      <trkpt lat="42.68844" lon="-2.29887">
        <ele>537</ele>
        <time>2021-07-24 14:53:51</time>
      </trkpt>
      <trkpt lat="42.68844" lon="-2.29887">
        <ele>537</ele>
        <time>2021-07-24 14:53:55</time>
      </trkpt>
      <trkpt lat="42.68844" lon="-2.29887">
        <ele>537</ele>
        <time>2021-07-24 14:53:59</time>
      </trkpt>
      <trkpt lat="42.68844" lon="-2.29887">
        <ele>537.2</ele>
        <time>2021-07-24 14:54:03</time>
      </trkpt>
      <trkpt lat="42.68844" lon="-2.29887">
        <ele>536.8</ele>
        <time>2021-07-24 14:54:07</time>
      </trkpt>
      <trkpt lat="42.68844" lon="-2.29887">
        <ele>536.6</ele>
        <time>2021-07-24 14:54:11</time>
      </trkpt>
      <trkpt lat="42.68844" lon="-2.29887">
        <ele>536.8</ele>
        <time>2021-07-24 14:54:15</time>
      </trkpt>
      <trkpt lat="42.68844" lon="-2.29887">
        <ele>536.8</ele>
        <time>2021-07-24 14:54:19</time>
      </trkpt>
      <trkpt lat="42.68844" lon="-2.29887">
        <ele>536.8</ele>
        <time>2021-07-24 14:54:23</time>
      </trkpt>
      <trkpt lat="42.68844" lon="-2.29887">
        <ele>537</ele>
        <time>2021-07-24 14:54:27</time>
      </trkpt>
      <trkpt lat="42.68844" lon="-2.29887">
        <ele>536.6</ele>
        <time>2021-07-24 14:54:31</time>
      </trkpt>
      <trkpt lat="42.68844" lon="-2.29887">
        <ele>536.6</ele>
        <time>2021-07-24 14:54:35</time>
      </trkpt>
      <trkpt lat="42.68844" lon="-2.29887">
        <ele>536.8</ele>
        <time>2021-07-24 14:54:39</time>
      </trkpt>
      <trkpt lat="42.68844" lon="-2.29887">
        <ele>537</ele>
        <time>2021-07-24 14:54:43</time>
      </trkpt>
      <trkpt lat="42.68844" lon="-2.29887">
        <ele>536.8</ele>
        <time>2021-07-24 14:54:47</time>
      </trkpt>
      <trkpt lat="42.68844" lon="-2.29887">
        <ele>536.6</ele>
        <time>2021-07-24 14:54:51</time>
      </trkpt>
      <trkpt lat="42.68844" lon="-2.29887">
        <ele>536.8</ele>
        <time>2021-07-24 14:54:55</time>
      </trkpt>
      <trkpt lat="42.68844" lon="-2.29887">
        <ele>537.2</ele>
        <time>2021-07-24 14:54:59</time>
      </trkpt>
      <trkpt lat="42.68844" lon="-2.29887">
        <ele>536.8</ele>
        <time>2021-07-24 14:55:03</time>
      </trkpt>
      <trkpt lat="42.68844" lon="-2.29887">
        <ele>537</ele>
        <time>2021-07-24 14:55:07</time>
      </trkpt>
      <trkpt lat="42.68844" lon="-2.29887">
        <ele>537</ele>
        <time>2021-07-24 14:55:11</time>
      </trkpt>
      <trkpt lat="42.68844" lon="-2.29887">
        <ele>537</ele>
        <time>2021-07-24 14:55:15</time>
      </trkpt>
      <trkpt lat="42.68844" lon="-2.29887">
        <ele>537</ele>
        <time>2021-07-24 14:55:19</time>
      </trkpt>
      <trkpt lat="42.68844" lon="-2.29887">
        <ele>537.2</ele>
        <time>2021-07-24 14:55:23</time>
      </trkpt>
      <trkpt lat="42.68844" lon="-2.29887">
        <ele>537</ele>
        <time>2021-07-24 14:55:27</time>
      </trkpt>
      <trkpt lat="42.68844" lon="-2.29887">
        <ele>537</ele>
        <time>2021-07-24 14:55:31</time>
      </trkpt>
      <trkpt lat="42.68844" lon="-2.29887">
        <ele>537</ele>
        <time>2021-07-24 14:55:35</time>
      </trkpt>
      <trkpt lat="42.68844" lon="-2.29887">
        <ele>537.2</ele>
        <time>2021-07-24 14:55:39</time>
      </trkpt>
      <trkpt lat="42.68844" lon="-2.29887">
        <ele>536.8</ele>
        <time>2021-07-24 14:55:43</time>
      </trkpt>
      <trkpt lat="42.68844" lon="-2.29887">
        <ele>537.2</ele>
        <time>2021-07-24 14:55:47</time>
      </trkpt>
      <trkpt lat="42.68844" lon="-2.29887">
        <ele>536.8</ele>
        <time>2021-07-24 14:55:51</time>
      </trkpt>
      <trkpt lat="42.68844" lon="-2.29887">
        <ele>537.2</ele>
        <time>2021-07-24 14:55:55</time>
      </trkpt>
      <trkpt lat="42.68844" lon="-2.29887">
        <ele>537.2</ele>
        <time>2021-07-24 14:55:59</time>
      </trkpt>
      <trkpt lat="42.68844" lon="-2.29887">
        <ele>537.4</ele>
        <time>2021-07-24 14:56:03</time>
      </trkpt>
      <trkpt lat="42.68844" lon="-2.29887">
        <ele>537.4</ele>
        <time>2021-07-24 14:56:07</time>
      </trkpt>
      <trkpt lat="42.68844" lon="-2.29887">
        <ele>537.4</ele>
        <time>2021-07-24 14:56:11</time>
      </trkpt>
      <trkpt lat="42.68844" lon="-2.29887">
        <ele>537.4</ele>
        <time>2021-07-24 14:56:15</time>
      </trkpt>
      <trkpt lat="42.68844" lon="-2.29887">
        <ele>537.2</ele>
        <time>2021-07-24 14:56:19</time>
      </trkpt>
      <trkpt lat="42.68844" lon="-2.29887">
        <ele>537</ele>
        <time>2021-07-24 14:56:23</time>
      </trkpt>
      <trkpt lat="42.68844" lon="-2.29887">
        <ele>537.6</ele>
        <time>2021-07-24 14:56:27</time>
      </trkpt>
      <trkpt lat="42.68844" lon="-2.29887">
        <ele>537.4</ele>
        <time>2021-07-24 14:56:31</time>
      </trkpt>
      <trkpt lat="42.68844" lon="-2.29887">
        <ele>537.4</ele>
        <time>2021-07-24 14:56:35</time>
      </trkpt>
      <trkpt lat="42.68844" lon="-2.29887">
        <ele>537.2</ele>
        <time>2021-07-24 14:56:39</time>
      </trkpt>
      <trkpt lat="42.68844" lon="-2.29887">
        <ele>537</ele>
        <time>2021-07-24 14:56:43</time>
      </trkpt>
      <trkpt lat="42.68844" lon="-2.29887">
        <ele>537.2</ele>
        <time>2021-07-24 14:56:47</time>
      </trkpt>
      <trkpt lat="42.68844" lon="-2.29887">
        <ele>537.6</ele>
        <time>2021-07-24 14:56:51</time>
      </trkpt>
      <trkpt lat="42.68844" lon="-2.29887">
        <ele>537.6</ele>
        <time>2021-07-24 14:56:55</time>
      </trkpt>
      <trkpt lat="42.68844" lon="-2.29887">
        <ele>537.4</ele>
        <time>2021-07-24 14:56:59</time>
      </trkpt>
      <trkpt lat="42.68844" lon="-2.29887">
        <ele>537.6</ele>
        <time>2021-07-24 14:57:03</time>
      </trkpt>
      <trkpt lat="42.68844" lon="-2.29887">
        <ele>537.6</ele>
        <time>2021-07-24 14:57:07</time>
      </trkpt>
      <trkpt lat="42.68844" lon="-2.29887">
        <ele>537.6</ele>
        <time>2021-07-24 14:57:11</time>
      </trkpt>
      <trkpt lat="42.68844" lon="-2.29887">
        <ele>537.6</ele>
        <time>2021-07-24 14:57:15</time>
      </trkpt>
      <trkpt lat="42.68844" lon="-2.29887">
        <ele>537.8</ele>
        <time>2021-07-24 14:57:19</time>
      </trkpt>
      <trkpt lat="42.68844" lon="-2.29887">
        <ele>537.6</ele>
        <time>2021-07-24 14:57:23</time>
      </trkpt>
      <trkpt lat="42.68844" lon="-2.29887">
        <ele>537.6</ele>
        <time>2021-07-24 14:57:27</time>
      </trkpt>
      <trkpt lat="42.68844" lon="-2.29887">
        <ele>537.8</ele>
        <time>2021-07-24 14:57:31</time>
      </trkpt>
      <trkpt lat="42.68844" lon="-2.29887">
        <ele>537.6</ele>
        <time>2021-07-24 14:57:35</time>
      </trkpt>
      <trkpt lat="42.68844" lon="-2.29887">
        <ele>537.6</ele>
        <time>2021-07-24 14:57:39</time>
      </trkpt>
      <trkpt lat="42.68844" lon="-2.29887">
        <ele>537.6</ele>
        <time>2021-07-24 14:57:43</time>
      </trkpt>
      <trkpt lat="42.68844" lon="-2.29887">
        <ele>538.2</ele>
        <time>2021-07-24 14:57:47</time>
      </trkpt>
      <trkpt lat="42.68844" lon="-2.29887">
        <ele>538</ele>
        <time>2021-07-24 14:57:51</time>
      </trkpt>
      <trkpt lat="42.68844" lon="-2.29887">
        <ele>537.6</ele>
        <time>2021-07-24 14:57:55</time>
      </trkpt>
      <trkpt lat="42.68844" lon="-2.29887">
        <ele>538</ele>
        <time>2021-07-24 14:57:59</time>
      </trkpt>
      <trkpt lat="42.68844" lon="-2.29887">
        <ele>538.2</ele>
        <time>2021-07-24 14:58:03</time>
      </trkpt>
      <trkpt lat="42.68844" lon="-2.29887">
        <ele>538</ele>
        <time>2021-07-24 14:58:07</time>
      </trkpt>
      <trkpt lat="42.68844" lon="-2.29887">
        <ele>537.6</ele>
        <time>2021-07-24 14:58:11</time>
      </trkpt>
      <trkpt lat="42.68844" lon="-2.29887">
        <ele>538</ele>
        <time>2021-07-24 14:58:15</time>
      </trkpt>
      <trkpt lat="42.68844" lon="-2.29887">
        <ele>537.8</ele>
        <time>2021-07-24 14:58:19</time>
      </trkpt>
      <trkpt lat="42.68844" lon="-2.29887">
        <ele>537.8</ele>
        <time>2021-07-24 14:58:23</time>
      </trkpt>
      <trkpt lat="42.68844" lon="-2.29887">
        <ele>537.6</ele>
        <time>2021-07-24 14:58:27</time>
      </trkpt>
      <trkpt lat="42.68844" lon="-2.29887">
        <ele>538</ele>
        <time>2021-07-24 14:58:31</time>
      </trkpt>
      <trkpt lat="42.68844" lon="-2.29887">
        <ele>537.8</ele>
        <time>2021-07-24 14:58:35</time>
      </trkpt>
      <trkpt lat="42.68844" lon="-2.29887">
        <ele>538</ele>
        <time>2021-07-24 14:58:39</time>
      </trkpt>
      <trkpt lat="42.68844" lon="-2.29887">
        <ele>537.8</ele>
        <time>2021-07-24 14:58:43</time>
      </trkpt>
      <trkpt lat="42.68844" lon="-2.29887">
        <ele>538</ele>
        <time>2021-07-24 14:58:47</time>
      </trkpt>
      <trkpt lat="42.68844" lon="-2.29887">
        <ele>537.8</ele>
        <time>2021-07-24 14:58:51</time>
      </trkpt>
      <trkpt lat="42.68844" lon="-2.29887">
        <ele>538</ele>
        <time>2021-07-24 14:58:55</time>
      </trkpt>
      <trkpt lat="42.68844" lon="-2.29887">
        <ele>538</ele>
        <time>2021-07-24 14:58:59</time>
      </trkpt>
      <trkpt lat="42.68844" lon="-2.29887">
        <ele>538</ele>
        <time>2021-07-24 14:59:03</time>
      </trkpt>
      <trkpt lat="42.68844" lon="-2.29887">
        <ele>537.8</ele>
        <time>2021-07-24 14:59:07</time>
      </trkpt>
      <trkpt lat="42.68844" lon="-2.29887">
        <ele>538</ele>
        <time>2021-07-24 14:59:11</time>
      </trkpt>
      <trkpt lat="42.68844" lon="-2.29887">
        <ele>538</ele>
        <time>2021-07-24 14:59:15</time>
      </trkpt>
      <trkpt lat="42.68844" lon="-2.29887">
        <ele>538</ele>
        <time>2021-07-24 14:59:19</time>
      </trkpt>
      <trkpt lat="42.68844" lon="-2.29887">
        <ele>538</ele>
        <time>2021-07-24 14:59:23</time>
      </trkpt>
      <trkpt lat="42.68844" lon="-2.29887">
        <ele>538</ele>
        <time>2021-07-24 14:59:27</time>
      </trkpt>
      <trkpt lat="42.68844" lon="-2.29887">
        <ele>537.6</ele>
        <time>2021-07-24 14:59:31</time>
      </trkpt>
      <trkpt lat="42.68844" lon="-2.29887">
        <ele>537.6</ele>
        <time>2021-07-24 14:59:35</time>
      </trkpt>
      <trkpt lat="42.68844" lon="-2.29887">
        <ele>538</ele>
        <time>2021-07-24 14:59:39</time>
      </trkpt>
      <trkpt lat="42.68844" lon="-2.29887">
        <ele>538</ele>
        <time>2021-07-24 14:59:43</time>
      </trkpt>
      <trkpt lat="42.68844" lon="-2.29887">
        <ele>538</ele>
        <time>2021-07-24 14:59:47</time>
      </trkpt>
      <trkpt lat="42.68844" lon="-2.29887">
        <ele>537.8</ele>
        <time>2021-07-24 14:59:51</time>
      </trkpt>
      <trkpt lat="42.68844" lon="-2.29887">
        <ele>538</ele>
        <time>2021-07-24 14:59:55</time>
      </trkpt>
      <trkpt lat="42.68844" lon="-2.29887">
        <ele>537.8</ele>
        <time>2021-07-24 14:59:59</time>
      </trkpt>
      <trkpt lat="42.68844" lon="-2.29887">
        <ele>537.8</ele>
        <time>2021-07-24 15:00:03</time>
      </trkpt>
      <trkpt lat="42.68844" lon="-2.29887">
        <ele>537.6</ele>
        <time>2021-07-24 15:00:07</time>
      </trkpt>
      <trkpt lat="42.68844" lon="-2.29887">
        <ele>537.6</ele>
        <time>2021-07-24 15:00:11</time>
      </trkpt>
      <trkpt lat="42.68844" lon="-2.29887">
        <ele>537.6</ele>
        <time>2021-07-24 15:00:15</time>
      </trkpt>
      <trkpt lat="42.68844" lon="-2.29887">
        <ele>537.6</ele>
        <time>2021-07-24 15:00:19</time>
      </trkpt>
      <trkpt lat="42.68844" lon="-2.29887">
        <ele>537.6</ele>
        <time>2021-07-24 15:00:23</time>
      </trkpt>
      <trkpt lat="42.68844" lon="-2.29887">
        <ele>537.6</ele>
        <time>2021-07-24 15:00:27</time>
      </trkpt>
      <trkpt lat="42.68844" lon="-2.29887">
        <ele>537.8</ele>
        <time>2021-07-24 15:00:31</time>
      </trkpt>
      <trkpt lat="42.68844" lon="-2.29887">
        <ele>538</ele>
        <time>2021-07-24 15:00:35</time>
      </trkpt>
      <trkpt lat="42.68844" lon="-2.29887">
        <ele>537.8</ele>
        <time>2021-07-24 15:00:39</time>
      </trkpt>
      <trkpt lat="42.68844" lon="-2.29887">
        <ele>537.6</ele>
        <time>2021-07-24 15:00:43</time>
      </trkpt>
      <trkpt lat="42.68844" lon="-2.29887">
        <ele>537.8</ele>
        <time>2021-07-24 15:00:47</time>
      </trkpt>
      <trkpt lat="42.68844" lon="-2.29887">
        <ele>538</ele>
        <time>2021-07-24 15:00:51</time>
      </trkpt>
      <trkpt lat="42.68844" lon="-2.29887">
        <ele>538</ele>
        <time>2021-07-24 15:00:55</time>
      </trkpt>
      <trkpt lat="42.68844" lon="-2.29887">
        <ele>538</ele>
        <time>2021-07-24 15:00:59</time>
      </trkpt>
      <trkpt lat="42.68844" lon="-2.29887">
        <ele>538.2</ele>
        <time>2021-07-24 15:01:03</time>
      </trkpt>
      <trkpt lat="42.68844" lon="-2.29887">
        <ele>538</ele>
        <time>2021-07-24 15:01:07</time>
      </trkpt>
      <trkpt lat="42.68844" lon="-2.29887">
        <ele>538</ele>
        <time>2021-07-24 15:01:11</time>
      </trkpt>
      <trkpt lat="42.68844" lon="-2.29887">
        <ele>538.4</ele>
        <time>2021-07-24 15:01:15</time>
      </trkpt>
      <trkpt lat="42.68844" lon="-2.29887">
        <ele>537.8</ele>
        <time>2021-07-24 15:01:19</time>
      </trkpt>
      <trkpt lat="42.68844" lon="-2.29887">
        <ele>537.6</ele>
        <time>2021-07-24 15:01:23</time>
      </trkpt>
      <trkpt lat="42.68844" lon="-2.29887">
        <ele>537.8</ele>
        <time>2021-07-24 15:01:27</time>
      </trkpt>
      <trkpt lat="42.68844" lon="-2.29887">
        <ele>537.8</ele>
        <time>2021-07-24 15:01:31</time>
      </trkpt>
      <trkpt lat="42.68844" lon="-2.29887">
        <ele>537.8</ele>
        <time>2021-07-24 15:01:35</time>
      </trkpt>
      <trkpt lat="42.68844" lon="-2.29887">
        <ele>537.2</ele>
        <time>2021-07-24 15:01:39</time>
      </trkpt>
      <trkpt lat="42.68844" lon="-2.29887">
        <ele>537.8</ele>
        <time>2021-07-24 15:01:43</time>
      </trkpt>
      <trkpt lat="42.68844" lon="-2.29887">
        <ele>537.8</ele>
        <time>2021-07-24 15:01:47</time>
      </trkpt>
      <trkpt lat="42.68844" lon="-2.29887">
        <ele>537.2</ele>
        <time>2021-07-24 15:01:51</time>
      </trkpt>
      <trkpt lat="42.68844" lon="-2.29887">
        <ele>537.2</ele>
        <time>2021-07-24 15:01:55</time>
      </trkpt>
      <trkpt lat="42.68844" lon="-2.29887">
        <ele>537.6</ele>
        <time>2021-07-24 15:01:59</time>
      </trkpt>
      <trkpt lat="42.68844" lon="-2.29887">
        <ele>536.8</ele>
        <time>2021-07-24 15:02:03</time>
      </trkpt>
      <trkpt lat="42.68844" lon="-2.29887">
        <ele>537</ele>
        <time>2021-07-24 15:02:07</time>
      </trkpt>
      <trkpt lat="42.68844" lon="-2.29887">
        <ele>537.6</ele>
        <time>2021-07-24 15:02:11</time>
      </trkpt>
      <trkpt lat="42.68844" lon="-2.29887">
        <ele>537.2</ele>
        <time>2021-07-24 15:02:15</time>
      </trkpt>
      <trkpt lat="42.68844" lon="-2.29887">
        <ele>537.2</ele>
        <time>2021-07-24 15:02:19</time>
      </trkpt>
      <trkpt lat="42.68844" lon="-2.29887">
        <ele>537</ele>
        <time>2021-07-24 15:02:23</time>
      </trkpt>
      <trkpt lat="42.68844" lon="-2.29887">
        <ele>537.2</ele>
        <time>2021-07-24 15:02:27</time>
      </trkpt>
      <trkpt lat="42.68844" lon="-2.29887">
        <ele>537.4</ele>
        <time>2021-07-24 15:02:31</time>
      </trkpt>
      <trkpt lat="42.68844" lon="-2.29887">
        <ele>536.8</ele>
        <time>2021-07-24 15:02:35</time>
      </trkpt>
      <trkpt lat="42.68844" lon="-2.29887">
        <ele>537.4</ele>
        <time>2021-07-24 15:02:39</time>
      </trkpt>
      <trkpt lat="42.68844" lon="-2.29887">
        <ele>537.2</ele>
        <time>2021-07-24 15:02:43</time>
      </trkpt>
      <trkpt lat="42.68844" lon="-2.29887">
        <ele>537.2</ele>
        <time>2021-07-24 15:02:47</time>
      </trkpt>
      <trkpt lat="42.68844" lon="-2.29887">
        <ele>536.8</ele>
        <time>2021-07-24 15:02:51</time>
      </trkpt>
      <trkpt lat="42.68844" lon="-2.29887">
        <ele>537</ele>
        <time>2021-07-24 15:02:55</time>
      </trkpt>
      <trkpt lat="42.68844" lon="-2.29887">
        <ele>537</ele>
        <time>2021-07-24 15:02:59</time>
      </trkpt>
      <trkpt lat="42.68844" lon="-2.29887">
        <ele>537.4</ele>
        <time>2021-07-24 15:03:03</time>
      </trkpt>
      <trkpt lat="42.68844" lon="-2.29887">
        <ele>537.4</ele>
        <time>2021-07-24 15:03:07</time>
      </trkpt>
      <trkpt lat="42.68844" lon="-2.29887">
        <ele>537.2</ele>
        <time>2021-07-24 15:03:11</time>
      </trkpt>
      <trkpt lat="42.68844" lon="-2.29887">
        <ele>537.4</ele>
        <time>2021-07-24 15:03:15</time>
      </trkpt>
      <trkpt lat="42.68844" lon="-2.29887">
        <ele>537.6</ele>
        <time>2021-07-24 15:03:19</time>
      </trkpt>
      <trkpt lat="42.68844" lon="-2.29887">
        <ele>536.8</ele>
        <time>2021-07-24 15:03:23</time>
      </trkpt>
      <trkpt lat="42.68844" lon="-2.29887">
        <ele>537.2</ele>
        <time>2021-07-24 15:03:27</time>
      </trkpt>
      <trkpt lat="42.68844" lon="-2.29887">
        <ele>537.2</ele>
        <time>2021-07-24 15:03:31</time>
      </trkpt>
      <trkpt lat="42.68844" lon="-2.29887">
        <ele>537</ele>
        <time>2021-07-24 15:03:35</time>
      </trkpt>
      <trkpt lat="42.68844" lon="-2.29887">
        <ele>537</ele>
        <time>2021-07-24 15:03:39</time>
      </trkpt>
      <trkpt lat="42.68844" lon="-2.29887">
        <ele>537</ele>
        <time>2021-07-24 15:03:43</time>
      </trkpt>
      <trkpt lat="42.68844" lon="-2.29887">
        <ele>537.4</ele>
        <time>2021-07-24 15:03:47</time>
      </trkpt>
      <trkpt lat="42.68844" lon="-2.29887">
        <ele>537.2</ele>
        <time>2021-07-24 15:03:51</time>
      </trkpt>
      <trkpt lat="42.68844" lon="-2.29887">
        <ele>537.2</ele>
        <time>2021-07-24 15:03:55</time>
      </trkpt>
      <trkpt lat="42.68844" lon="-2.29887">
        <ele>537.4</ele>
        <time>2021-07-24 15:03:59</time>
      </trkpt>
      <trkpt lat="42.68844" lon="-2.29887">
        <ele>537.6</ele>
        <time>2021-07-24 15:04:03</time>
      </trkpt>
      <trkpt lat="42.68844" lon="-2.29887">
        <ele>537.4</ele>
        <time>2021-07-24 15:04:07</time>
      </trkpt>
      <trkpt lat="42.68844" lon="-2.29887">
        <ele>537.2</ele>
        <time>2021-07-24 15:04:11</time>
      </trkpt>
      <trkpt lat="42.68844" lon="-2.29887">
        <ele>537.4</ele>
        <time>2021-07-24 15:04:15</time>
      </trkpt>
      <trkpt lat="42.68844" lon="-2.29887">
        <ele>537.2</ele>
        <time>2021-07-24 15:04:19</time>
      </trkpt>
      <trkpt lat="42.68844" lon="-2.29887">
        <ele>536.8</ele>
        <time>2021-07-24 15:04:23</time>
      </trkpt>
      <trkpt lat="42.68844" lon="-2.29887">
        <ele>537.4</ele>
        <time>2021-07-24 15:04:27</time>
      </trkpt>
      <trkpt lat="42.68844" lon="-2.29887">
        <ele>536.8</ele>
        <time>2021-07-24 15:04:31</time>
      </trkpt>
      <trkpt lat="42.68844" lon="-2.29887">
        <ele>536.8</ele>
        <time>2021-07-24 15:04:35</time>
      </trkpt>
      <trkpt lat="42.68844" lon="-2.29887">
        <ele>536.8</ele>
        <time>2021-07-24 15:04:39</time>
      </trkpt>
      <trkpt lat="42.68844" lon="-2.29887">
        <ele>537</ele>
        <time>2021-07-24 15:04:43</time>
      </trkpt>
      <trkpt lat="42.68844" lon="-2.29887">
        <ele>537.4</ele>
        <time>2021-07-24 15:04:47</time>
      </trkpt>
      <trkpt lat="42.68844" lon="-2.29887">
        <ele>537</ele>
        <time>2021-07-24 15:04:51</time>
      </trkpt>
      <trkpt lat="42.68844" lon="-2.29887">
        <ele>536.8</ele>
        <time>2021-07-24 15:04:55</time>
      </trkpt>
      <trkpt lat="42.68844" lon="-2.29887">
        <ele>536.8</ele>
        <time>2021-07-24 15:04:59</time>
      </trkpt>
      <trkpt lat="42.68844" lon="-2.29887">
        <ele>537.2</ele>
        <time>2021-07-24 15:05:03</time>
      </trkpt>
      <trkpt lat="42.68844" lon="-2.29887">
        <ele>537</ele>
        <time>2021-07-24 15:05:07</time>
      </trkpt>
      <trkpt lat="42.68844" lon="-2.29887">
        <ele>536.8</ele>
        <time>2021-07-24 15:05:11</time>
      </trkpt>
      <trkpt lat="42.68844" lon="-2.29887">
        <ele>536.6</ele>
        <time>2021-07-24 15:05:15</time>
      </trkpt>
      <trkpt lat="42.68844" lon="-2.29887">
        <ele>536.8</ele>
        <time>2021-07-24 15:05:19</time>
      </trkpt>
      <trkpt lat="42.68844" lon="-2.29887">
        <ele>537</ele>
        <time>2021-07-24 15:05:23</time>
      </trkpt>
      <trkpt lat="42.68844" lon="-2.29887">
        <ele>537</ele>
        <time>2021-07-24 15:05:27</time>
      </trkpt>
      <trkpt lat="42.68844" lon="-2.29887">
        <ele>536.8</ele>
        <time>2021-07-24 15:05:31</time>
      </trkpt>
      <trkpt lat="42.68844" lon="-2.29887">
        <ele>536.8</ele>
        <time>2021-07-24 15:05:35</time>
      </trkpt>
      <trkpt lat="42.68844" lon="-2.29887">
        <ele>537.6</ele>
        <time>2021-07-24 15:05:39</time>
      </trkpt>
      <trkpt lat="42.68844" lon="-2.29887">
        <ele>537</ele>
        <time>2021-07-24 15:05:43</time>
      </trkpt>
      <trkpt lat="42.68844" lon="-2.29887">
        <ele>537.2</ele>
        <time>2021-07-24 15:05:47</time>
      </trkpt>
      <trkpt lat="42.68844" lon="-2.29887">
        <ele>537.6</ele>
        <time>2021-07-24 15:05:51</time>
      </trkpt>
      <trkpt lat="42.68844" lon="-2.29887">
        <ele>537.6</ele>
        <time>2021-07-24 15:05:55</time>
      </trkpt>
      <trkpt lat="42.68844" lon="-2.29887">
        <ele>537.2</ele>
        <time>2021-07-24 15:05:59</time>
      </trkpt>
      <trkpt lat="42.68844" lon="-2.29887">
        <ele>537.4</ele>
        <time>2021-07-24 15:06:03</time>
      </trkpt>
      <trkpt lat="42.68844" lon="-2.29887">
        <ele>537.4</ele>
        <time>2021-07-24 15:06:07</time>
      </trkpt>
      <trkpt lat="42.68844" lon="-2.29887">
        <ele>537</ele>
        <time>2021-07-24 15:06:11</time>
      </trkpt>
      <trkpt lat="42.68844" lon="-2.29887">
        <ele>537</ele>
        <time>2021-07-24 15:06:15</time>
      </trkpt>
      <trkpt lat="42.68844" lon="-2.29887">
        <ele>537.2</ele>
        <time>2021-07-24 15:06:19</time>
      </trkpt>
      <trkpt lat="42.68844" lon="-2.29887">
        <ele>537.4</ele>
        <time>2021-07-24 15:06:23</time>
      </trkpt>
      <trkpt lat="42.68844" lon="-2.29887">
        <ele>537.4</ele>
        <time>2021-07-24 15:06:27</time>
      </trkpt>
      <trkpt lat="42.68844" lon="-2.29887">
        <ele>537.4</ele>
        <time>2021-07-24 15:06:31</time>
      </trkpt>
      <trkpt lat="42.68844" lon="-2.29887">
        <ele>537.4</ele>
        <time>2021-07-24 15:06:35</time>
      </trkpt>
      <trkpt lat="42.68844" lon="-2.29887">
        <ele>537.2</ele>
        <time>2021-07-24 15:06:39</time>
      </trkpt>
      <trkpt lat="42.68844" lon="-2.29887">
        <ele>537</ele>
        <time>2021-07-24 15:06:43</time>
      </trkpt>
      <trkpt lat="42.68844" lon="-2.29887">
        <ele>537.6</ele>
        <time>2021-07-24 15:06:47</time>
      </trkpt>
      <trkpt lat="42.68844" lon="-2.29887">
        <ele>537.4</ele>
        <time>2021-07-24 15:06:51</time>
      </trkpt>
      <trkpt lat="42.68844" lon="-2.29887">
        <ele>537.4</ele>
        <time>2021-07-24 15:06:55</time>
      </trkpt>
      <trkpt lat="42.68844" lon="-2.29887">
        <ele>537.4</ele>
        <time>2021-07-24 15:06:59</time>
      </trkpt>
      <trkpt lat="42.68844" lon="-2.29887">
        <ele>537.4</ele>
        <time>2021-07-24 15:07:03</time>
      </trkpt>
      <trkpt lat="42.68844" lon="-2.29887">
        <ele>537.2</ele>
        <time>2021-07-24 15:07:07</time>
      </trkpt>
      <trkpt lat="42.68844" lon="-2.29887">
        <ele>537.2</ele>
        <time>2021-07-24 15:07:11</time>
      </trkpt>
      <trkpt lat="42.68844" lon="-2.29887">
        <ele>537.6</ele>
        <time>2021-07-24 15:07:15</time>
      </trkpt>
      <trkpt lat="42.68844" lon="-2.29887">
        <ele>537.4</ele>
        <time>2021-07-24 15:07:19</time>
      </trkpt>
      <trkpt lat="42.68844" lon="-2.29887">
        <ele>537</ele>
        <time>2021-07-24 15:07:23</time>
      </trkpt>
      <trkpt lat="42.68844" lon="-2.29887">
        <ele>537.6</ele>
        <time>2021-07-24 15:07:27</time>
      </trkpt>
      <trkpt lat="42.68844" lon="-2.29887">
        <ele>537.4</ele>
        <time>2021-07-24 15:07:31</time>
      </trkpt>
      <trkpt lat="42.68844" lon="-2.29887">
        <ele>537.6</ele>
        <time>2021-07-24 15:07:35</time>
      </trkpt>
      <trkpt lat="42.68844" lon="-2.29887">
        <ele>537.2</ele>
        <time>2021-07-24 15:07:39</time>
      </trkpt>
      <trkpt lat="42.68844" lon="-2.29887">
        <ele>537.4</ele>
        <time>2021-07-24 15:07:43</time>
      </trkpt>
      <trkpt lat="42.68844" lon="-2.29887">
        <ele>537.6</ele>
        <time>2021-07-24 15:07:47</time>
      </trkpt>
      <trkpt lat="42.68844" lon="-2.29887">
        <ele>537.6</ele>
        <time>2021-07-24 15:07:51</time>
      </trkpt>
      <trkpt lat="42.68844" lon="-2.29887">
        <ele>537.2</ele>
        <time>2021-07-24 15:07:55</time>
      </trkpt>
      <trkpt lat="42.68844" lon="-2.29887">
        <ele>537.2</ele>
        <time>2021-07-24 15:07:59</time>
      </trkpt>
      <trkpt lat="42.68844" lon="-2.29887">
        <ele>537.6</ele>
        <time>2021-07-24 15:08:03</time>
      </trkpt>
      <trkpt lat="42.68844" lon="-2.29887">
        <ele>537.6</ele>
        <time>2021-07-24 15:08:07</time>
      </trkpt>
      <trkpt lat="42.68844" lon="-2.29887">
        <ele>537.6</ele>
        <time>2021-07-24 15:08:11</time>
      </trkpt>
      <trkpt lat="42.68844" lon="-2.29887">
        <ele>537.8</ele>
        <time>2021-07-24 15:08:15</time>
      </trkpt>
      <trkpt lat="42.68844" lon="-2.29887">
        <ele>537.4</ele>
        <time>2021-07-24 15:08:19</time>
      </trkpt>
      <trkpt lat="42.68844" lon="-2.29887">
        <ele>537.4</ele>
        <time>2021-07-24 15:08:23</time>
      </trkpt>
      <trkpt lat="42.68844" lon="-2.29887">
        <ele>537.6</ele>
        <time>2021-07-24 15:08:27</time>
      </trkpt>
      <trkpt lat="42.68844" lon="-2.29887">
        <ele>537.6</ele>
        <time>2021-07-24 15:08:31</time>
      </trkpt>
      <trkpt lat="42.68844" lon="-2.29887">
        <ele>537.4</ele>
        <time>2021-07-24 15:08:35</time>
      </trkpt>
      <trkpt lat="42.68844" lon="-2.29887">
        <ele>537.4</ele>
        <time>2021-07-24 15:08:39</time>
      </trkpt>
      <trkpt lat="42.68844" lon="-2.29887">
        <ele>537.4</ele>
        <time>2021-07-24 15:08:43</time>
      </trkpt>
      <trkpt lat="42.68844" lon="-2.29887">
        <ele>537.4</ele>
        <time>2021-07-24 15:08:47</time>
      </trkpt>
      <trkpt lat="42.68844" lon="-2.29887">
        <ele>537.6</ele>
        <time>2021-07-24 15:08:51</time>
      </trkpt>
      <trkpt lat="42.68844" lon="-2.29887">
        <ele>537.2</ele>
        <time>2021-07-24 15:08:55</time>
      </trkpt>
      <trkpt lat="42.68844" lon="-2.29887">
        <ele>537.2</ele>
        <time>2021-07-24 15:08:59</time>
      </trkpt>
      <trkpt lat="42.68844" lon="-2.29887">
        <ele>537.2</ele>
        <time>2021-07-24 15:09:03</time>
      </trkpt>
      <trkpt lat="42.68844" lon="-2.29887">
        <ele>537</ele>
        <time>2021-07-24 15:09:07</time>
      </trkpt>
      <trkpt lat="42.68844" lon="-2.29887">
        <ele>537</ele>
        <time>2021-07-24 15:09:11</time>
      </trkpt>
      <trkpt lat="42.68844" lon="-2.29887">
        <ele>537</ele>
        <time>2021-07-24 15:09:15</time>
      </trkpt>
      <trkpt lat="42.68844" lon="-2.29887">
        <ele>537.4</ele>
        <time>2021-07-24 15:09:19</time>
      </trkpt>
      <trkpt lat="42.68844" lon="-2.29887">
        <ele>537</ele>
        <time>2021-07-24 15:09:23</time>
      </trkpt>
      <trkpt lat="42.68844" lon="-2.29887">
        <ele>537.4</ele>
        <time>2021-07-24 15:09:27</time>
      </trkpt>
      <trkpt lat="42.68844" lon="-2.29887">
        <ele>537.2</ele>
        <time>2021-07-24 15:09:31</time>
      </trkpt>
      <trkpt lat="42.68844" lon="-2.29887">
        <ele>537.6</ele>
        <time>2021-07-24 15:09:35</time>
      </trkpt>
      <trkpt lat="42.68844" lon="-2.29887">
        <ele>537.2</ele>
        <time>2021-07-24 15:09:39</time>
      </trkpt>
      <trkpt lat="42.68844" lon="-2.29887">
        <ele>537.2</ele>
        <time>2021-07-24 15:09:43</time>
      </trkpt>
      <trkpt lat="42.68844" lon="-2.29887">
        <ele>536.8</ele>
        <time>2021-07-24 15:09:47</time>
      </trkpt>
      <trkpt lat="42.68844" lon="-2.29887">
        <ele>537.4</ele>
        <time>2021-07-24 15:09:51</time>
      </trkpt>
      <trkpt lat="42.68844" lon="-2.29887">
        <ele>537.6</ele>
        <time>2021-07-24 15:09:55</time>
      </trkpt>
      <trkpt lat="42.68844" lon="-2.29887">
        <ele>537.2</ele>
        <time>2021-07-24 15:09:59</time>
      </trkpt>
      <trkpt lat="42.68844" lon="-2.29887">
        <ele>537.2</ele>
        <time>2021-07-24 15:10:03</time>
      </trkpt>
      <trkpt lat="42.68844" lon="-2.29887">
        <ele>537.4</ele>
        <time>2021-07-24 15:10:07</time>
      </trkpt>
      <trkpt lat="42.68844" lon="-2.29887">
        <ele>537.4</ele>
        <time>2021-07-24 15:10:11</time>
      </trkpt>
      <trkpt lat="42.68844" lon="-2.29887">
        <ele>537</ele>
        <time>2021-07-24 15:10:15</time>
      </trkpt>
      <trkpt lat="42.68844" lon="-2.29887">
        <ele>537.2</ele>
        <time>2021-07-24 15:10:19</time>
      </trkpt>
      <trkpt lat="42.68844" lon="-2.29887">
        <ele>537</ele>
        <time>2021-07-24 15:10:23</time>
      </trkpt>
      <trkpt lat="42.68844" lon="-2.29887">
        <ele>537.2</ele>
        <time>2021-07-24 15:10:27</time>
      </trkpt>
      <trkpt lat="42.68844" lon="-2.29887">
        <ele>537.4</ele>
        <time>2021-07-24 15:10:31</time>
      </trkpt>
      <trkpt lat="42.68844" lon="-2.29887">
        <ele>537</ele>
        <time>2021-07-24 15:10:35</time>
      </trkpt>
      <trkpt lat="42.68844" lon="-2.29887">
        <ele>537.4</ele>
        <time>2021-07-24 15:10:39</time>
      </trkpt>
      <trkpt lat="42.68844" lon="-2.29887">
        <ele>537.2</ele>
        <time>2021-07-24 15:10:43</time>
      </trkpt>
      <trkpt lat="42.68844" lon="-2.29887">
        <ele>537.2</ele>
        <time>2021-07-24 15:10:47</time>
      </trkpt>
      <trkpt lat="42.68844" lon="-2.29887">
        <ele>537.2</ele>
        <time>2021-07-24 15:10:51</time>
      </trkpt>
      <trkpt lat="42.68844" lon="-2.29887">
        <ele>537.2</ele>
        <time>2021-07-24 15:10:55</time>
      </trkpt>
      <trkpt lat="42.68844" lon="-2.29887">
        <ele>537.2</ele>
        <time>2021-07-24 15:10:59</time>
      </trkpt>
      <trkpt lat="42.68844" lon="-2.29887">
        <ele>537</ele>
        <time>2021-07-24 15:11:03</time>
      </trkpt>
      <trkpt lat="42.68844" lon="-2.29887">
        <ele>537.2</ele>
        <time>2021-07-24 15:11:07</time>
      </trkpt>
      <trkpt lat="42.68844" lon="-2.29887">
        <ele>537</ele>
        <time>2021-07-24 15:11:11</time>
      </trkpt>
      <trkpt lat="42.68844" lon="-2.29887">
        <ele>537.2</ele>
        <time>2021-07-24 15:11:15</time>
      </trkpt>
      <trkpt lat="42.68844" lon="-2.29887">
        <ele>537.4</ele>
        <time>2021-07-24 15:11:19</time>
      </trkpt>
      <trkpt lat="42.68844" lon="-2.29887">
        <ele>537.8</ele>
        <time>2021-07-24 15:11:23</time>
      </trkpt>
      <trkpt lat="42.68844" lon="-2.29887">
        <ele>537.4</ele>
        <time>2021-07-24 15:11:27</time>
      </trkpt>
      <trkpt lat="42.68844" lon="-2.29887">
        <ele>537</ele>
        <time>2021-07-24 15:11:31</time>
      </trkpt>
      <trkpt lat="42.68844" lon="-2.29887">
        <ele>537</ele>
        <time>2021-07-24 15:11:35</time>
      </trkpt>
      <trkpt lat="42.68844" lon="-2.29887">
        <ele>537</ele>
        <time>2021-07-24 15:11:39</time>
      </trkpt>
      <trkpt lat="42.68844" lon="-2.29887">
        <ele>537.2</ele>
        <time>2021-07-24 15:11:43</time>
      </trkpt>
      <trkpt lat="42.68844" lon="-2.29887">
        <ele>536.8</ele>
        <time>2021-07-24 15:11:47</time>
      </trkpt>
      <trkpt lat="42.68844" lon="-2.29887">
        <ele>536.8</ele>
        <time>2021-07-24 15:11:51</time>
      </trkpt>
      <trkpt lat="42.68844" lon="-2.29887">
        <ele>536.8</ele>
        <time>2021-07-24 15:11:55</time>
      </trkpt>
      <trkpt lat="42.68844" lon="-2.29887">
        <ele>537.2</ele>
        <time>2021-07-24 15:11:59</time>
      </trkpt>
      <trkpt lat="42.68844" lon="-2.29887">
        <ele>537.2</ele>
        <time>2021-07-24 15:12:03</time>
      </trkpt>
      <trkpt lat="42.68844" lon="-2.29887">
        <ele>537</ele>
        <time>2021-07-24 15:12:07</time>
      </trkpt>
      <trkpt lat="42.68844" lon="-2.29887">
        <ele>536.8</ele>
        <time>2021-07-24 15:12:11</time>
      </trkpt>
      <trkpt lat="42.68844" lon="-2.29887">
        <ele>537</ele>
        <time>2021-07-24 15:12:15</time>
      </trkpt>
      <trkpt lat="42.68844" lon="-2.29887">
        <ele>537</ele>
        <time>2021-07-24 15:12:19</time>
      </trkpt>
      <trkpt lat="42.68844" lon="-2.29887">
        <ele>537</ele>
        <time>2021-07-24 15:12:23</time>
      </trkpt>
      <trkpt lat="42.68844" lon="-2.29887">
        <ele>536.8</ele>
        <time>2021-07-24 15:12:27</time>
      </trkpt>
      <trkpt lat="42.68844" lon="-2.29887">
        <ele>537</ele>
        <time>2021-07-24 15:12:31</time>
      </trkpt>
      <trkpt lat="42.68844" lon="-2.29887">
        <ele>536.8</ele>
        <time>2021-07-24 15:12:35</time>
      </trkpt>
      <trkpt lat="42.68844" lon="-2.29887">
        <ele>537.4</ele>
        <time>2021-07-24 15:12:39</time>
      </trkpt>
      <trkpt lat="42.68844" lon="-2.29887">
        <ele>537.2</ele>
        <time>2021-07-24 15:12:43</time>
      </trkpt>
      <trkpt lat="42.68844" lon="-2.29887">
        <ele>537.4</ele>
        <time>2021-07-24 15:12:47</time>
      </trkpt>
      <trkpt lat="42.68844" lon="-2.29887">
        <ele>537.4</ele>
        <time>2021-07-24 15:12:51</time>
      </trkpt>
      <trkpt lat="42.68844" lon="-2.29887">
        <ele>537.2</ele>
        <time>2021-07-24 15:12:55</time>
      </trkpt>
      <trkpt lat="42.68844" lon="-2.29887">
        <ele>537.4</ele>
        <time>2021-07-24 15:12:59</time>
      </trkpt>
      <trkpt lat="42.68844" lon="-2.29887">
        <ele>537.4</ele>
        <time>2021-07-24 15:13:03</time>
      </trkpt>
      <trkpt lat="42.68844" lon="-2.29887">
        <ele>537.4</ele>
        <time>2021-07-24 15:13:07</time>
      </trkpt>
      <trkpt lat="42.68844" lon="-2.29887">
        <ele>537</ele>
        <time>2021-07-24 15:13:11</time>
      </trkpt>
      <trkpt lat="42.68844" lon="-2.29887">
        <ele>537</ele>
        <time>2021-07-24 15:13:15</time>
      </trkpt>
      <trkpt lat="42.68844" lon="-2.29887">
        <ele>537</ele>
        <time>2021-07-24 15:13:19</time>
      </trkpt>
      <trkpt lat="42.68844" lon="-2.29887">
        <ele>537.2</ele>
        <time>2021-07-24 15:13:23</time>
      </trkpt>
      <trkpt lat="42.68844" lon="-2.29887">
        <ele>537</ele>
        <time>2021-07-24 15:13:27</time>
      </trkpt>
      <trkpt lat="42.68844" lon="-2.29887">
        <ele>537.2</ele>
        <time>2021-07-24 15:13:31</time>
      </trkpt>
      <trkpt lat="42.68844" lon="-2.29887">
        <ele>537.2</ele>
        <time>2021-07-24 15:13:35</time>
      </trkpt>
      <trkpt lat="42.68844" lon="-2.29887">
        <ele>536.8</ele>
        <time>2021-07-24 15:13:39</time>
      </trkpt>
      <trkpt lat="42.68844" lon="-2.29887">
        <ele>537</ele>
        <time>2021-07-24 15:13:43</time>
      </trkpt>
      <trkpt lat="42.68844" lon="-2.29887">
        <ele>536.8</ele>
        <time>2021-07-24 15:13:47</time>
      </trkpt>
      <trkpt lat="42.68844" lon="-2.29887">
        <ele>536.8</ele>
        <time>2021-07-24 15:13:51</time>
      </trkpt>
      <trkpt lat="42.68844" lon="-2.29887">
        <ele>537</ele>
        <time>2021-07-24 15:13:55</time>
      </trkpt>
      <trkpt lat="42.68844" lon="-2.29887">
        <ele>536.8</ele>
        <time>2021-07-24 15:13:59</time>
      </trkpt>
      <trkpt lat="42.68844" lon="-2.29887">
        <ele>536.8</ele>
        <time>2021-07-24 15:14:03</time>
      </trkpt>
      <trkpt lat="42.68844" lon="-2.29887">
        <ele>536.8</ele>
        <time>2021-07-24 15:14:07</time>
      </trkpt>
      <trkpt lat="42.68844" lon="-2.29887">
        <ele>537</ele>
        <time>2021-07-24 15:14:11</time>
      </trkpt>
      <trkpt lat="42.68844" lon="-2.29887">
        <ele>537.4</ele>
        <time>2021-07-24 15:14:15</time>
      </trkpt>
      <trkpt lat="42.68844" lon="-2.29887">
        <ele>537</ele>
        <time>2021-07-24 15:14:19</time>
      </trkpt>
      <trkpt lat="42.68844" lon="-2.29887">
        <ele>537.2</ele>
        <time>2021-07-24 15:14:23</time>
      </trkpt>
      <trkpt lat="42.68844" lon="-2.29887">
        <ele>537.2</ele>
        <time>2021-07-24 15:14:27</time>
      </trkpt>
      <trkpt lat="42.68844" lon="-2.29887">
        <ele>537.4</ele>
        <time>2021-07-24 15:14:31</time>
      </trkpt>
      <trkpt lat="42.68844" lon="-2.29887">
        <ele>537.2</ele>
        <time>2021-07-24 15:14:35</time>
      </trkpt>
      <trkpt lat="42.68844" lon="-2.29887">
        <ele>537.2</ele>
        <time>2021-07-24 15:14:39</time>
      </trkpt>
      <trkpt lat="42.68844" lon="-2.29887">
        <ele>537</ele>
        <time>2021-07-24 15:14:43</time>
      </trkpt>
      <trkpt lat="42.68844" lon="-2.29887">
        <ele>537</ele>
        <time>2021-07-24 15:14:47</time>
      </trkpt>
      <trkpt lat="42.68844" lon="-2.29887">
        <ele>537.2</ele>
        <time>2021-07-24 15:14:51</time>
      </trkpt>
      <trkpt lat="42.68844" lon="-2.29887">
        <ele>536.8</ele>
        <time>2021-07-24 15:14:55</time>
      </trkpt>
      <trkpt lat="42.68844" lon="-2.29887">
        <ele>537.4</ele>
        <time>2021-07-24 15:14:59</time>
      </trkpt>
      <trkpt lat="42.68844" lon="-2.29887">
        <ele>537.2</ele>
        <time>2021-07-24 15:15:03</time>
      </trkpt>
      <trkpt lat="42.68844" lon="-2.29887">
        <ele>537</ele>
        <time>2021-07-24 15:15:07</time>
      </trkpt>
      <trkpt lat="42.68844" lon="-2.29887">
        <ele>537</ele>
        <time>2021-07-24 15:15:11</time>
      </trkpt>
      <trkpt lat="42.68844" lon="-2.29887">
        <ele>537.2</ele>
        <time>2021-07-24 15:15:15</time>
      </trkpt>
      <trkpt lat="42.68844" lon="-2.29887">
        <ele>537.2</ele>
        <time>2021-07-24 15:15:19</time>
      </trkpt>
      <trkpt lat="42.68844" lon="-2.29887">
        <ele>537</ele>
        <time>2021-07-24 15:15:23</time>
      </trkpt>
      <trkpt lat="42.68844" lon="-2.29887">
        <ele>537</ele>
        <time>2021-07-24 15:15:27</time>
      </trkpt>
      <trkpt lat="42.68844" lon="-2.29887">
        <ele>537</ele>
        <time>2021-07-24 15:15:31</time>
      </trkpt>
      <trkpt lat="42.68844" lon="-2.29887">
        <ele>537.4</ele>
        <time>2021-07-24 15:15:35</time>
      </trkpt>
      <trkpt lat="42.68844" lon="-2.29887">
        <ele>537.2</ele>
        <time>2021-07-24 15:15:39</time>
      </trkpt>
      <trkpt lat="42.68844" lon="-2.29887">
        <ele>537.2</ele>
        <time>2021-07-24 15:15:43</time>
      </trkpt>
      <trkpt lat="42.68844" lon="-2.29887">
        <ele>537.2</ele>
        <time>2021-07-24 15:15:47</time>
      </trkpt>
      <trkpt lat="42.68844" lon="-2.29887">
        <ele>537</ele>
        <time>2021-07-24 15:15:51</time>
      </trkpt>
      <trkpt lat="42.68844" lon="-2.29887">
        <ele>537.2</ele>
        <time>2021-07-24 15:15:55</time>
      </trkpt>
      <trkpt lat="42.68844" lon="-2.29887">
        <ele>537.4</ele>
        <time>2021-07-24 15:15:59</time>
      </trkpt>
      <trkpt lat="42.68844" lon="-2.29887">
        <ele>537.2</ele>
        <time>2021-07-24 15:16:03</time>
      </trkpt>
      <trkpt lat="42.68844" lon="-2.29887">
        <ele>537.4</ele>
        <time>2021-07-24 15:16:07</time>
      </trkpt>
      <trkpt lat="42.68844" lon="-2.29887">
        <ele>537.2</ele>
        <time>2021-07-24 15:16:11</time>
      </trkpt>
      <trkpt lat="42.68844" lon="-2.29887">
        <ele>537.2</ele>
        <time>2021-07-24 15:16:15</time>
      </trkpt>
      <trkpt lat="42.68844" lon="-2.29887">
        <ele>537.2</ele>
        <time>2021-07-24 15:16:19</time>
      </trkpt>
      <trkpt lat="42.68844" lon="-2.29887">
        <ele>537.2</ele>
        <time>2021-07-24 15:16:23</time>
      </trkpt>
      <trkpt lat="42.68844" lon="-2.29887">
        <ele>537.4</ele>
        <time>2021-07-24 15:16:27</time>
      </trkpt>
      <trkpt lat="42.68844" lon="-2.29887">
        <ele>537.6</ele>
        <time>2021-07-24 15:16:31</time>
      </trkpt>
      <trkpt lat="42.68844" lon="-2.29887">
        <ele>537.6</ele>
        <time>2021-07-24 15:16:35</time>
      </trkpt>
      <trkpt lat="42.68844" lon="-2.29887">
        <ele>537.4</ele>
        <time>2021-07-24 15:16:39</time>
      </trkpt>
      <trkpt lat="42.68844" lon="-2.29887">
        <ele>537.2</ele>
        <time>2021-07-24 15:16:43</time>
      </trkpt>
      <trkpt lat="42.68844" lon="-2.29887">
        <ele>537.2</ele>
        <time>2021-07-24 15:16:47</time>
      </trkpt>
      <trkpt lat="42.68844" lon="-2.29887">
        <ele>537.6</ele>
        <time>2021-07-24 15:16:51</time>
      </trkpt>
      <trkpt lat="42.68844" lon="-2.29887">
        <ele>537.2</ele>
        <time>2021-07-24 15:16:55</time>
      </trkpt>
      <trkpt lat="42.68844" lon="-2.29887">
        <ele>537.2</ele>
        <time>2021-07-24 15:16:59</time>
      </trkpt>
      <trkpt lat="42.68844" lon="-2.29887">
        <ele>537.6</ele>
        <time>2021-07-24 15:17:03</time>
      </trkpt>
      <trkpt lat="42.68844" lon="-2.29887">
        <ele>537.6</ele>
        <time>2021-07-24 15:17:07</time>
      </trkpt>
      <trkpt lat="42.68844" lon="-2.29887">
        <ele>537.6</ele>
        <time>2021-07-24 15:17:11</time>
      </trkpt>
      <trkpt lat="42.68844" lon="-2.29887">
        <ele>537.2</ele>
        <time>2021-07-24 15:17:15</time>
      </trkpt>
      <trkpt lat="42.68844" lon="-2.29887">
        <ele>537.2</ele>
        <time>2021-07-24 15:17:19</time>
      </trkpt>
      <trkpt lat="42.68844" lon="-2.29887">
        <ele>537.6</ele>
        <time>2021-07-24 15:17:23</time>
      </trkpt>
      <trkpt lat="42.68844" lon="-2.29887">
        <ele>537.2</ele>
        <time>2021-07-24 15:17:27</time>
      </trkpt>
      <trkpt lat="42.68844" lon="-2.29887">
        <ele>537.2</ele>
        <time>2021-07-24 15:17:31</time>
      </trkpt>
      <trkpt lat="42.68844" lon="-2.29887">
        <ele>537.6</ele>
        <time>2021-07-24 15:17:35</time>
      </trkpt>
      <trkpt lat="42.68844" lon="-2.29887">
        <ele>537.4</ele>
        <time>2021-07-24 15:17:39</time>
      </trkpt>
      <trkpt lat="42.68844" lon="-2.29887">
        <ele>537.2</ele>
        <time>2021-07-24 15:17:43</time>
      </trkpt>
      <trkpt lat="42.68844" lon="-2.29887">
        <ele>537.2</ele>
        <time>2021-07-24 15:17:47</time>
      </trkpt>
      <trkpt lat="42.68844" lon="-2.29887">
        <ele>537.6</ele>
        <time>2021-07-24 15:17:51</time>
      </trkpt>
      <trkpt lat="42.68844" lon="-2.29887">
        <ele>537.4</ele>
        <time>2021-07-24 15:17:55</time>
      </trkpt>
      <trkpt lat="42.68844" lon="-2.29887">
        <ele>537.6</ele>
        <time>2021-07-24 15:17:59</time>
      </trkpt>
      <trkpt lat="42.68844" lon="-2.29887">
        <ele>537.6</ele>
        <time>2021-07-24 15:18:03</time>
      </trkpt>
      <trkpt lat="42.68844" lon="-2.29887">
        <ele>537.2</ele>
        <time>2021-07-24 15:18:07</time>
      </trkpt>
      <trkpt lat="42.68844" lon="-2.29887">
        <ele>537.4</ele>
        <time>2021-07-24 15:18:11</time>
      </trkpt>
      <trkpt lat="42.68844" lon="-2.29887">
        <ele>537.6</ele>
        <time>2021-07-24 15:18:15</time>
      </trkpt>
      <trkpt lat="42.68844" lon="-2.29887">
        <ele>537.2</ele>
        <time>2021-07-24 15:18:19</time>
      </trkpt>
      <trkpt lat="42.68844" lon="-2.29887">
        <ele>537.6</ele>
        <time>2021-07-24 15:18:23</time>
      </trkpt>
      <trkpt lat="42.68844" lon="-2.29887">
        <ele>537.6</ele>
        <time>2021-07-24 15:18:27</time>
      </trkpt>
      <trkpt lat="42.68844" lon="-2.29887">
        <ele>537.6</ele>
        <time>2021-07-24 15:18:31</time>
      </trkpt>
      <trkpt lat="42.68844" lon="-2.29887">
        <ele>537.6</ele>
        <time>2021-07-24 15:18:35</time>
      </trkpt>
      <trkpt lat="42.68844" lon="-2.29887">
        <ele>537.6</ele>
        <time>2021-07-24 15:18:39</time>
      </trkpt>
      <trkpt lat="42.68844" lon="-2.29887">
        <ele>537.6</ele>
        <time>2021-07-24 15:18:43</time>
      </trkpt>
      <trkpt lat="42.68844" lon="-2.29887">
        <ele>537.6</ele>
        <time>2021-07-24 15:18:47</time>
      </trkpt>
      <trkpt lat="42.68844" lon="-2.29887">
        <ele>537.6</ele>
        <time>2021-07-24 15:18:51</time>
      </trkpt>
      <trkpt lat="42.68844" lon="-2.29887">
        <ele>537.8</ele>
        <time>2021-07-24 15:18:55</time>
      </trkpt>
      <trkpt lat="42.68844" lon="-2.29887">
        <ele>537.8</ele>
        <time>2021-07-24 15:18:59</time>
      </trkpt>
      <trkpt lat="42.68844" lon="-2.29887">
        <ele>537.6</ele>
        <time>2021-07-24 15:19:03</time>
      </trkpt>
      <trkpt lat="42.68844" lon="-2.29887">
        <ele>537.6</ele>
        <time>2021-07-24 15:19:07</time>
      </trkpt>
      <trkpt lat="42.68844" lon="-2.29887">
        <ele>537.6</ele>
        <time>2021-07-24 15:19:11</time>
      </trkpt>
      <trkpt lat="42.68844" lon="-2.29887">
        <ele>537.6</ele>
        <time>2021-07-24 15:19:15</time>
      </trkpt>
      <trkpt lat="42.68844" lon="-2.29887">
        <ele>537.6</ele>
        <time>2021-07-24 15:19:19</time>
      </trkpt>
      <trkpt lat="42.68844" lon="-2.29887">
        <ele>537.6</ele>
        <time>2021-07-24 15:19:23</time>
      </trkpt>
      <trkpt lat="42.68844" lon="-2.29887">
        <ele>537.6</ele>
        <time>2021-07-24 15:19:27</time>
      </trkpt>
      <trkpt lat="42.68844" lon="-2.29887">
        <ele>538</ele>
        <time>2021-07-24 15:19:31</time>
      </trkpt>
      <trkpt lat="42.68844" lon="-2.29887">
        <ele>537.6</ele>
        <time>2021-07-24 15:19:35</time>
      </trkpt>
      <trkpt lat="42.68844" lon="-2.29887">
        <ele>537.4</ele>
        <time>2021-07-24 15:19:39</time>
      </trkpt>
      <trkpt lat="42.68844" lon="-2.29887">
        <ele>537.6</ele>
        <time>2021-07-24 15:19:43</time>
      </trkpt>
      <trkpt lat="42.68844" lon="-2.29887">
        <ele>537.6</ele>
        <time>2021-07-24 15:19:47</time>
      </trkpt>
      <trkpt lat="42.68844" lon="-2.29887">
        <ele>537.6</ele>
        <time>2021-07-24 15:19:51</time>
      </trkpt>
      <trkpt lat="42.68844" lon="-2.29887">
        <ele>537.6</ele>
        <time>2021-07-24 15:19:55</time>
      </trkpt>
      <trkpt lat="42.68844" lon="-2.29887">
        <ele>537.8</ele>
        <time>2021-07-24 15:19:59</time>
      </trkpt>
      <trkpt lat="42.68844" lon="-2.29887">
        <ele>537.8</ele>
        <time>2021-07-24 15:20:03</time>
      </trkpt>
      <trkpt lat="42.68844" lon="-2.29887">
        <ele>537.8</ele>
        <time>2021-07-24 15:20:07</time>
      </trkpt>
      <trkpt lat="42.68844" lon="-2.29887">
        <ele>537.6</ele>
        <time>2021-07-24 15:20:11</time>
      </trkpt>
      <trkpt lat="42.68844" lon="-2.29887">
        <ele>537.8</ele>
        <time>2021-07-24 15:20:15</time>
      </trkpt>
      <trkpt lat="42.68844" lon="-2.29887">
        <ele>537.6</ele>
        <time>2021-07-24 15:20:19</time>
      </trkpt>
      <trkpt lat="42.68844" lon="-2.29887">
        <ele>537.6</ele>
        <time>2021-07-24 15:20:23</time>
      </trkpt>
      <trkpt lat="42.68844" lon="-2.29887">
        <ele>537.4</ele>
        <time>2021-07-24 15:20:27</time>
      </trkpt>
      <trkpt lat="42.68844" lon="-2.29887">
        <ele>537.6</ele>
        <time>2021-07-24 15:20:31</time>
      </trkpt>
      <trkpt lat="42.68844" lon="-2.29887">
        <ele>537.4</ele>
        <time>2021-07-24 15:20:35</time>
      </trkpt>
      <trkpt lat="42.68844" lon="-2.29887">
        <ele>537.6</ele>
        <time>2021-07-24 15:20:39</time>
      </trkpt>
      <trkpt lat="42.68844" lon="-2.29887">
        <ele>538</ele>
        <time>2021-07-24 15:20:43</time>
      </trkpt>
      <trkpt lat="42.68844" lon="-2.29887">
        <ele>537.6</ele>
        <time>2021-07-24 15:20:47</time>
      </trkpt>
      <trkpt lat="42.68844" lon="-2.29887">
        <ele>537.6</ele>
        <time>2021-07-24 15:20:51</time>
      </trkpt>
      <trkpt lat="42.68844" lon="-2.29887">
        <ele>537.4</ele>
        <time>2021-07-24 15:20:55</time>
      </trkpt>
      <trkpt lat="42.68844" lon="-2.29887">
        <ele>537.8</ele>
        <time>2021-07-24 15:20:59</time>
      </trkpt>
      <trkpt lat="42.68844" lon="-2.29887">
        <ele>537.8</ele>
        <time>2021-07-24 15:21:03</time>
      </trkpt>
      <trkpt lat="42.68844" lon="-2.29887">
        <ele>537.6</ele>
        <time>2021-07-24 15:21:07</time>
      </trkpt>
      <trkpt lat="42.68844" lon="-2.29887">
        <ele>537.8</ele>
        <time>2021-07-24 15:21:11</time>
      </trkpt>
      <trkpt lat="42.68844" lon="-2.29887">
        <ele>538</ele>
        <time>2021-07-24 15:21:15</time>
      </trkpt>
      <trkpt lat="42.68844" lon="-2.29887">
        <ele>537.6</ele>
        <time>2021-07-24 15:21:19</time>
      </trkpt>
      <trkpt lat="42.68844" lon="-2.29887">
        <ele>537.8</ele>
        <time>2021-07-24 15:21:23</time>
      </trkpt>
      <trkpt lat="42.68844" lon="-2.29887">
        <ele>537.8</ele>
        <time>2021-07-24 15:21:27</time>
      </trkpt>
      <trkpt lat="42.68844" lon="-2.29887">
        <ele>538</ele>
        <time>2021-07-24 15:21:31</time>
      </trkpt>
      <trkpt lat="42.68844" lon="-2.29887">
        <ele>538</ele>
        <time>2021-07-24 15:21:35</time>
      </trkpt>
      <trkpt lat="42.68844" lon="-2.29887">
        <ele>537.8</ele>
        <time>2021-07-24 15:21:39</time>
      </trkpt>
      <trkpt lat="42.68844" lon="-2.29887">
        <ele>537.8</ele>
        <time>2021-07-24 15:21:43</time>
      </trkpt>
      <trkpt lat="42.68844" lon="-2.29887">
        <ele>537.6</ele>
        <time>2021-07-24 15:21:47</time>
      </trkpt>
      <trkpt lat="42.68844" lon="-2.29887">
        <ele>537.8</ele>
        <time>2021-07-24 15:21:51</time>
      </trkpt>
      <trkpt lat="42.68844" lon="-2.29887">
        <ele>538</ele>
        <time>2021-07-24 15:21:55</time>
      </trkpt>
      <trkpt lat="42.68844" lon="-2.29887">
        <ele>538</ele>
        <time>2021-07-24 15:21:59</time>
      </trkpt>
      <trkpt lat="42.68844" lon="-2.29887">
        <ele>538</ele>
        <time>2021-07-24 15:22:03</time>
      </trkpt>
      <trkpt lat="42.68844" lon="-2.29887">
        <ele>538.4</ele>
        <time>2021-07-24 15:22:07</time>
      </trkpt>
      <trkpt lat="42.68844" lon="-2.29887">
        <ele>538.2</ele>
        <time>2021-07-24 15:22:11</time>
      </trkpt>
      <trkpt lat="42.68844" lon="-2.29887">
        <ele>537.6</ele>
        <time>2021-07-24 15:22:15</time>
      </trkpt>
      <trkpt lat="42.68844" lon="-2.29887">
        <ele>537.6</ele>
        <time>2021-07-24 15:22:19</time>
      </trkpt>
      <trkpt lat="42.68844" lon="-2.29887">
        <ele>538</ele>
        <time>2021-07-24 15:22:23</time>
      </trkpt>
      <trkpt lat="42.68844" lon="-2.29887">
        <ele>537.6</ele>
        <time>2021-07-24 15:22:27</time>
      </trkpt>
      <trkpt lat="42.68844" lon="-2.29887">
        <ele>537.8</ele>
        <time>2021-07-24 15:22:31</time>
      </trkpt>
      <trkpt lat="42.68844" lon="-2.29887">
        <ele>537.8</ele>
        <time>2021-07-24 15:22:35</time>
      </trkpt>
      <trkpt lat="42.68844" lon="-2.29887">
        <ele>537.8</ele>
        <time>2021-07-24 15:22:39</time>
      </trkpt>
      <trkpt lat="42.68844" lon="-2.29887">
        <ele>537.8</ele>
        <time>2021-07-24 15:22:43</time>
      </trkpt>
      <trkpt lat="42.68844" lon="-2.29887">
        <ele>538</ele>
        <time>2021-07-24 15:22:47</time>
      </trkpt>
      <trkpt lat="42.68844" lon="-2.29887">
        <ele>538.2</ele>
        <time>2021-07-24 15:22:51</time>
      </trkpt>
      <trkpt lat="42.68844" lon="-2.29887">
        <ele>537.8</ele>
        <time>2021-07-24 15:22:55</time>
      </trkpt>
      <trkpt lat="42.68844" lon="-2.29887">
        <ele>537.8</ele>
        <time>2021-07-24 15:22:59</time>
      </trkpt>
      <trkpt lat="42.68844" lon="-2.29887">
        <ele>538</ele>
        <time>2021-07-24 15:23:03</time>
      </trkpt>
      <trkpt lat="42.68844" lon="-2.29887">
        <ele>538</ele>
        <time>2021-07-24 15:23:07</time>
      </trkpt>
      <trkpt lat="42.68844" lon="-2.29887">
        <ele>537.8</ele>
        <time>2021-07-24 15:23:11</time>
      </trkpt>
      <trkpt lat="42.68844" lon="-2.29887">
        <ele>538.2</ele>
        <time>2021-07-24 15:23:15</time>
      </trkpt>
      <trkpt lat="42.68844" lon="-2.29887">
        <ele>538</ele>
        <time>2021-07-24 15:23:19</time>
      </trkpt>
      <trkpt lat="42.68844" lon="-2.29887">
        <ele>537.6</ele>
        <time>2021-07-24 15:23:23</time>
      </trkpt>
      <trkpt lat="42.68844" lon="-2.29887">
        <ele>538</ele>
        <time>2021-07-24 15:23:27</time>
      </trkpt>
      <trkpt lat="42.68844" lon="-2.29887">
        <ele>538</ele>
        <time>2021-07-24 15:23:31</time>
      </trkpt>
      <trkpt lat="42.68844" lon="-2.29887">
        <ele>537.6</ele>
        <time>2021-07-24 15:23:35</time>
      </trkpt>
      <trkpt lat="42.68844" lon="-2.29887">
        <ele>538</ele>
        <time>2021-07-24 15:23:39</time>
      </trkpt>
      <trkpt lat="42.68844" lon="-2.29887">
        <ele>537.8</ele>
        <time>2021-07-24 15:23:43</time>
      </trkpt>
      <trkpt lat="42.68844" lon="-2.29887">
        <ele>537.6</ele>
        <time>2021-07-24 15:23:47</time>
      </trkpt>
      <trkpt lat="42.68844" lon="-2.29887">
        <ele>537.8</ele>
        <time>2021-07-24 15:23:51</time>
      </trkpt>
      <trkpt lat="42.68844" lon="-2.29887">
        <ele>537.8</ele>
        <time>2021-07-24 15:23:55</time>
      </trkpt>
      <trkpt lat="42.68844" lon="-2.29887">
        <ele>538.2</ele>
        <time>2021-07-24 15:23:59</time>
      </trkpt>
      <trkpt lat="42.68844" lon="-2.29887">
        <ele>538</ele>
        <time>2021-07-24 15:24:03</time>
      </trkpt>
      <trkpt lat="42.68844" lon="-2.29887">
        <ele>538</ele>
        <time>2021-07-24 15:24:07</time>
      </trkpt>
      <trkpt lat="42.68844" lon="-2.29887">
        <ele>537.8</ele>
        <time>2021-07-24 15:24:11</time>
      </trkpt>
      <trkpt lat="42.68844" lon="-2.29887">
        <ele>537.6</ele>
        <time>2021-07-24 15:24:15</time>
      </trkpt>
      <trkpt lat="42.68844" lon="-2.29887">
        <ele>538.2</ele>
        <time>2021-07-24 15:24:19</time>
      </trkpt>
      <trkpt lat="42.68844" lon="-2.29887">
        <ele>537.8</ele>
        <time>2021-07-24 15:24:23</time>
      </trkpt>
      <trkpt lat="42.68844" lon="-2.29887">
        <ele>538.2</ele>
        <time>2021-07-24 15:24:27</time>
      </trkpt>
      <trkpt lat="42.68844" lon="-2.29887">
        <ele>538</ele>
        <time>2021-07-24 15:24:31</time>
      </trkpt>
      <trkpt lat="42.68844" lon="-2.29887">
        <ele>538</ele>
        <time>2021-07-24 15:24:35</time>
      </trkpt>
      <trkpt lat="42.68844" lon="-2.29887">
        <ele>537.6</ele>
        <time>2021-07-24 15:24:39</time>
      </trkpt>
      <trkpt lat="42.68844" lon="-2.29887">
        <ele>537.8</ele>
        <time>2021-07-24 15:24:43</time>
      </trkpt>
      <trkpt lat="42.68844" lon="-2.29887">
        <ele>538</ele>
        <time>2021-07-24 15:24:47</time>
      </trkpt>
      <trkpt lat="42.68844" lon="-2.29887">
        <ele>537.8</ele>
        <time>2021-07-24 15:24:51</time>
      </trkpt>
      <trkpt lat="42.68844" lon="-2.29887">
        <ele>537.6</ele>
        <time>2021-07-24 15:24:55</time>
      </trkpt>
      <trkpt lat="42.68844" lon="-2.29887">
        <ele>537.6</ele>
        <time>2021-07-24 15:24:59</time>
      </trkpt>
      <trkpt lat="42.68844" lon="-2.29887">
        <ele>537.8</ele>
        <time>2021-07-24 15:25:03</time>
      </trkpt>
      <trkpt lat="42.68844" lon="-2.29887">
        <ele>538</ele>
        <time>2021-07-24 15:25:07</time>
      </trkpt>
      <trkpt lat="42.68844" lon="-2.29887">
        <ele>537.8</ele>
        <time>2021-07-24 15:25:11</time>
      </trkpt>
      <trkpt lat="42.68844" lon="-2.29887">
        <ele>537.6</ele>
        <time>2021-07-24 15:25:15</time>
      </trkpt>
      <trkpt lat="42.68844" lon="-2.29887">
        <ele>537.8</ele>
        <time>2021-07-24 15:25:19</time>
      </trkpt>
      <trkpt lat="42.68844" lon="-2.29887">
        <ele>538</ele>
        <time>2021-07-24 15:25:23</time>
      </trkpt>
      <trkpt lat="42.68844" lon="-2.29887">
        <ele>538</ele>
        <time>2021-07-24 15:25:27</time>
      </trkpt>
      <trkpt lat="42.68844" lon="-2.29887">
        <ele>538</ele>
        <time>2021-07-24 15:25:31</time>
      </trkpt>
      <trkpt lat="42.68844" lon="-2.29887">
        <ele>537.8</ele>
        <time>2021-07-24 15:25:35</time>
      </trkpt>
      <trkpt lat="42.68844" lon="-2.29887">
        <ele>537.8</ele>
        <time>2021-07-24 15:25:39</time>
      </trkpt>
      <trkpt lat="42.68844" lon="-2.29887">
        <ele>538</ele>
        <time>2021-07-24 15:25:43</time>
      </trkpt>
      <trkpt lat="42.68844" lon="-2.29887">
        <ele>537.8</ele>
        <time>2021-07-24 15:25:47</time>
      </trkpt>
      <trkpt lat="42.68844" lon="-2.29887">
        <ele>538</ele>
        <time>2021-07-24 15:25:51</time>
      </trkpt>
      <trkpt lat="42.68844" lon="-2.29887">
        <ele>537.6</ele>
        <time>2021-07-24 15:25:55</time>
      </trkpt>
      <trkpt lat="42.68844" lon="-2.29887">
        <ele>537.8</ele>
        <time>2021-07-24 15:25:59</time>
      </trkpt>
      <trkpt lat="42.68844" lon="-2.29887">
        <ele>537.8</ele>
        <time>2021-07-24 15:26:03</time>
      </trkpt>
      <trkpt lat="42.68844" lon="-2.29887">
        <ele>537.8</ele>
        <time>2021-07-24 15:26:07</time>
      </trkpt>
      <trkpt lat="42.68844" lon="-2.29887">
        <ele>537.8</ele>
        <time>2021-07-24 15:26:11</time>
      </trkpt>
      <trkpt lat="42.68844" lon="-2.29887">
        <ele>537.8</ele>
        <time>2021-07-24 15:26:15</time>
      </trkpt>
      <trkpt lat="42.68844" lon="-2.29887">
        <ele>537.8</ele>
        <time>2021-07-24 15:26:19</time>
      </trkpt>
      <trkpt lat="42.68844" lon="-2.29887">
        <ele>537.8</ele>
        <time>2021-07-24 15:26:23</time>
      </trkpt>
      <trkpt lat="42.68844" lon="-2.29887">
        <ele>537.8</ele>
        <time>2021-07-24 15:26:27</time>
      </trkpt>
      <trkpt lat="42.68844" lon="-2.29887">
        <ele>537.6</ele>
        <time>2021-07-24 15:26:31</time>
      </trkpt>
      <trkpt lat="42.68844" lon="-2.29887">
        <ele>538</ele>
        <time>2021-07-24 15:26:35</time>
      </trkpt>
      <trkpt lat="42.68844" lon="-2.29887">
        <ele>538</ele>
        <time>2021-07-24 15:26:39</time>
      </trkpt>
      <trkpt lat="42.68844" lon="-2.29887">
        <ele>537.8</ele>
        <time>2021-07-24 15:26:43</time>
      </trkpt>
      <trkpt lat="42.68844" lon="-2.29887">
        <ele>538.6</ele>
        <time>2021-07-24 15:26:47</time>
      </trkpt>
      <trkpt lat="42.68844" lon="-2.29887">
        <ele>537.8</ele>
        <time>2021-07-24 15:26:51</time>
      </trkpt>
      <trkpt lat="42.68844" lon="-2.29887">
        <ele>538</ele>
        <time>2021-07-24 15:26:55</time>
      </trkpt>
      <trkpt lat="42.68844" lon="-2.29887">
        <ele>538.2</ele>
        <time>2021-07-24 15:26:59</time>
      </trkpt>
      <trkpt lat="42.68844" lon="-2.29887">
        <ele>538.2</ele>
        <time>2021-07-24 15:27:03</time>
      </trkpt>
      <trkpt lat="42.68844" lon="-2.29887">
        <ele>538.2</ele>
        <time>2021-07-24 15:27:07</time>
      </trkpt>
      <trkpt lat="42.68844" lon="-2.29887">
        <ele>538.2</ele>
        <time>2021-07-24 15:27:11</time>
      </trkpt>
      <trkpt lat="42.68844" lon="-2.29887">
        <ele>538.2</ele>
        <time>2021-07-24 15:27:15</time>
      </trkpt>
      <trkpt lat="42.68844" lon="-2.29887">
        <ele>538.4</ele>
        <time>2021-07-24 15:27:19</time>
      </trkpt>
      <trkpt lat="42.68844" lon="-2.29887">
        <ele>538.2</ele>
        <time>2021-07-24 15:27:23</time>
      </trkpt>
      <trkpt lat="42.68844" lon="-2.29887">
        <ele>538</ele>
        <time>2021-07-24 15:27:27</time>
      </trkpt>
      <trkpt lat="42.68844" lon="-2.29887">
        <ele>538.2</ele>
        <time>2021-07-24 15:27:31</time>
      </trkpt>
      <trkpt lat="42.68844" lon="-2.29887">
        <ele>538.2</ele>
        <time>2021-07-24 15:27:35</time>
      </trkpt>
      <trkpt lat="42.68844" lon="-2.29887">
        <ele>538.2</ele>
        <time>2021-07-24 15:27:39</time>
      </trkpt>
      <trkpt lat="42.68844" lon="-2.29887">
        <ele>538.2</ele>
        <time>2021-07-24 15:27:43</time>
      </trkpt>
      <trkpt lat="42.68844" lon="-2.29887">
        <ele>538.2</ele>
        <time>2021-07-24 15:27:47</time>
      </trkpt>
      <trkpt lat="42.68844" lon="-2.29887">
        <ele>537.8</ele>
        <time>2021-07-24 15:27:51</time>
      </trkpt>
      <trkpt lat="42.68844" lon="-2.29887">
        <ele>538</ele>
        <time>2021-07-24 15:27:55</time>
      </trkpt>
      <trkpt lat="42.68844" lon="-2.29887">
        <ele>538</ele>
        <time>2021-07-24 15:27:59</time>
      </trkpt>
      <trkpt lat="42.68844" lon="-2.29887">
        <ele>538</ele>
        <time>2021-07-24 15:28:03</time>
      </trkpt>
      <trkpt lat="42.68844" lon="-2.29887">
        <ele>538</ele>
        <time>2021-07-24 15:28:07</time>
      </trkpt>
      <trkpt lat="42.68844" lon="-2.29887">
        <ele>538</ele>
        <time>2021-07-24 15:28:11</time>
      </trkpt>
      <trkpt lat="42.68844" lon="-2.29887">
        <ele>538.2</ele>
        <time>2021-07-24 15:28:15</time>
      </trkpt>
      <trkpt lat="42.68844" lon="-2.29887">
        <ele>538</ele>
        <time>2021-07-24 15:28:19</time>
      </trkpt>
      <trkpt lat="42.68844" lon="-2.29887">
        <ele>538</ele>
        <time>2021-07-24 15:28:23</time>
      </trkpt>
      <trkpt lat="42.68844" lon="-2.29887">
        <ele>537.8</ele>
        <time>2021-07-24 15:28:27</time>
      </trkpt>
      <trkpt lat="42.68844" lon="-2.29887">
        <ele>538.2</ele>
        <time>2021-07-24 15:28:31</time>
      </trkpt>
      <trkpt lat="42.68844" lon="-2.29887">
        <ele>538.2</ele>
        <time>2021-07-24 15:28:35</time>
      </trkpt>
      <trkpt lat="42.68844" lon="-2.29887">
        <ele>538.2</ele>
        <time>2021-07-24 15:28:39</time>
      </trkpt>
      <trkpt lat="42.68844" lon="-2.29887">
        <ele>538.2</ele>
        <time>2021-07-24 15:28:43</time>
      </trkpt>
      <trkpt lat="42.68844" lon="-2.29887">
        <ele>538.2</ele>
        <time>2021-07-24 15:28:47</time>
      </trkpt>
      <trkpt lat="42.68844" lon="-2.29887">
        <ele>538.4</ele>
        <time>2021-07-24 15:28:51</time>
      </trkpt>
      <trkpt lat="42.68844" lon="-2.29887">
        <ele>538</ele>
        <time>2021-07-24 15:28:55</time>
      </trkpt>
      <trkpt lat="42.68844" lon="-2.29887">
        <ele>538.4</ele>
        <time>2021-07-24 15:28:59</time>
      </trkpt>
      <trkpt lat="42.68844" lon="-2.29887">
        <ele>538.6</ele>
        <time>2021-07-24 15:29:03</time>
      </trkpt>
      <trkpt lat="42.68844" lon="-2.29887">
        <ele>538.4</ele>
        <time>2021-07-24 15:29:07</time>
      </trkpt>
      <trkpt lat="42.68844" lon="-2.29887">
        <ele>538.6</ele>
        <time>2021-07-24 15:29:11</time>
      </trkpt>
      <trkpt lat="42.68844" lon="-2.29887">
        <ele>538.6</ele>
        <time>2021-07-24 15:29:15</time>
      </trkpt>
      <trkpt lat="42.68844" lon="-2.29887">
        <ele>539.2</ele>
        <time>2021-07-24 15:29:19</time>
      </trkpt>
      <trkpt lat="42.68844" lon="-2.29887">
        <ele>538.4</ele>
        <time>2021-07-24 15:29:23</time>
      </trkpt>
      <trkpt lat="42.68844" lon="-2.29887">
        <ele>538.4</ele>
        <time>2021-07-24 15:29:27</time>
      </trkpt>
      <trkpt lat="42.68844" lon="-2.29887">
        <ele>538.2</ele>
        <time>2021-07-24 15:29:31</time>
      </trkpt>
      <trkpt lat="42.68844" lon="-2.29887">
        <ele>538.2</ele>
        <time>2021-07-24 15:29:35</time>
      </trkpt>
      <trkpt lat="42.68844" lon="-2.29887">
        <ele>538.2</ele>
        <time>2021-07-24 15:29:39</time>
      </trkpt>
      <trkpt lat="42.68844" lon="-2.29887">
        <ele>538</ele>
        <time>2021-07-24 15:29:43</time>
      </trkpt>
      <trkpt lat="42.68844" lon="-2.29887">
        <ele>538</ele>
        <time>2021-07-24 15:29:47</time>
      </trkpt>
      <trkpt lat="42.68844" lon="-2.29887">
        <ele>538.2</ele>
        <time>2021-07-24 15:29:51</time>
      </trkpt>
      <trkpt lat="42.68844" lon="-2.29893">
        <ele>538</ele>
        <time>2021-07-24 15:29:55</time>
      </trkpt>
      <trkpt lat="42.68844" lon="-2.29893">
        <ele>538.2</ele>
        <time>2021-07-24 15:29:59</time>
      </trkpt>
      <trkpt lat="42.68842" lon="-2.29891">
        <ele>537.8</ele>
        <time>2021-07-24 15:30:03</time>
      </trkpt>
      <trkpt lat="42.68843" lon="-2.29885">
        <ele>537.8</ele>
        <time>2021-07-24 15:30:07</time>
      </trkpt>
      <trkpt lat="42.68847" lon="-2.29877">
        <ele>537.8</ele>
        <time>2021-07-24 15:30:11</time>
      </trkpt>
      <trkpt lat="42.6885" lon="-2.29865">
        <ele>537.8</ele>
        <time>2021-07-24 15:30:15</time>
      </trkpt>
      <trkpt lat="42.68854" lon="-2.29855">
        <ele>538.2</ele>
        <time>2021-07-24 15:30:19</time>
      </trkpt>
      <trkpt lat="42.68858" lon="-2.29843">
        <ele>538</ele>
        <time>2021-07-24 15:30:23</time>
      </trkpt>
      <trkpt lat="42.68861" lon="-2.29832">
        <ele>538</ele>
        <time>2021-07-24 15:30:27</time>
      </trkpt>
      <trkpt lat="42.68864" lon="-2.29823">
        <ele>537.8</ele>
        <time>2021-07-24 15:30:31</time>
      </trkpt>
      <trkpt lat="42.68867" lon="-2.29814">
        <ele>537.8</ele>
        <time>2021-07-24 15:30:35</time>
      </trkpt>
      <trkpt lat="42.68869" lon="-2.29804">
        <ele>537.8</ele>
        <time>2021-07-24 15:30:39</time>
      </trkpt>
      <trkpt lat="42.68871" lon="-2.29791">
        <ele>537.6</ele>
        <time>2021-07-24 15:30:43</time>
      </trkpt>
      <trkpt lat="42.68873" lon="-2.29775">
        <ele>537.2</ele>
        <time>2021-07-24 15:30:47</time>
      </trkpt>
      <trkpt lat="42.68874" lon="-2.29759">
        <ele>537</ele>
        <time>2021-07-24 15:30:51</time>
      </trkpt>
      <trkpt lat="42.68873" lon="-2.29743">
        <ele>537</ele>
        <time>2021-07-24 15:30:55</time>
      </trkpt>
      <trkpt lat="42.68871" lon="-2.29726">
        <ele>537.2</ele>
        <time>2021-07-24 15:30:59</time>
      </trkpt>
      <trkpt lat="42.68869" lon="-2.29709">
        <ele>536.4</ele>
        <time>2021-07-24 15:31:03</time>
      </trkpt>
      <trkpt lat="42.68867" lon="-2.29694">
        <ele>536.8</ele>
        <time>2021-07-24 15:31:07</time>
      </trkpt>
      <trkpt lat="42.68866" lon="-2.2968">
        <ele>536.8</ele>
        <time>2021-07-24 15:31:11</time>
      </trkpt>
      <trkpt lat="42.68866" lon="-2.29667">
        <ele>536.8</ele>
        <time>2021-07-24 15:31:15</time>
      </trkpt>
      <trkpt lat="42.6887" lon="-2.29655">
        <ele>536.2</ele>
        <time>2021-07-24 15:31:19</time>
      </trkpt>
      <trkpt lat="42.68874" lon="-2.29642">
        <ele>536.6</ele>
        <time>2021-07-24 15:31:23</time>
      </trkpt>
      <trkpt lat="42.68882" lon="-2.29639">
        <ele>536.2</ele>
        <time>2021-07-24 15:31:27</time>
      </trkpt>
      <trkpt lat="42.68884" lon="-2.29628">
        <ele>536.8</ele>
        <time>2021-07-24 15:31:31</time>
      </trkpt>
      <trkpt lat="42.68881" lon="-2.29622">
        <ele>536.8</ele>
        <time>2021-07-24 15:31:35</time>
      </trkpt>
      <trkpt lat="42.68879" lon="-2.29617">
        <ele>536.6</ele>
        <time>2021-07-24 15:31:39</time>
      </trkpt>
      <trkpt lat="42.68876" lon="-2.29611">
        <ele>536.4</ele>
        <time>2021-07-24 15:31:43</time>
      </trkpt>
      <trkpt lat="42.68872" lon="-2.29602">
        <ele>536.4</ele>
        <time>2021-07-24 15:31:47</time>
      </trkpt>
      <trkpt lat="42.68865" lon="-2.29591">
        <ele>536.6</ele>
        <time>2021-07-24 15:31:51</time>
      </trkpt>
      <trkpt lat="42.68859" lon="-2.29578">
        <ele>536</ele>
        <time>2021-07-24 15:31:55</time>
      </trkpt>
      <trkpt lat="42.68852" lon="-2.29563">
        <ele>535.4</ele>
        <time>2021-07-24 15:31:59</time>
      </trkpt>
      <trkpt lat="42.68844" lon="-2.29548">
        <ele>535.4</ele>
        <time>2021-07-24 15:32:03</time>
      </trkpt>
      <trkpt lat="42.68837" lon="-2.29535">
        <ele>535.6</ele>
        <time>2021-07-24 15:32:07</time>
      </trkpt>
      <trkpt lat="42.68829" lon="-2.29523">
        <ele>535</ele>
        <time>2021-07-24 15:32:11</time>
      </trkpt>
      <trkpt lat="42.6882" lon="-2.2951">
        <ele>535</ele>
        <time>2021-07-24 15:32:15</time>
      </trkpt>
      <trkpt lat="42.68809" lon="-2.29498">
        <ele>534.2</ele>
        <time>2021-07-24 15:32:19</time>
      </trkpt>
      <trkpt lat="42.68797" lon="-2.29488">
        <ele>533.4</ele>
        <time>2021-07-24 15:32:23</time>
      </trkpt>
      <trkpt lat="42.68785" lon="-2.29479">
        <ele>533</ele>
        <time>2021-07-24 15:32:27</time>
      </trkpt>
      <trkpt lat="42.68774" lon="-2.29474">
        <ele>532.6</ele>
        <time>2021-07-24 15:32:31</time>
      </trkpt>
      <trkpt lat="42.68764" lon="-2.29469">
        <ele>532</ele>
        <time>2021-07-24 15:32:35</time>
      </trkpt>
      <trkpt lat="42.68754" lon="-2.29465">
        <ele>532.2</ele>
        <time>2021-07-24 15:32:39</time>
      </trkpt>
      <trkpt lat="42.68744" lon="-2.2946">
        <ele>531.8</ele>
        <time>2021-07-24 15:32:43</time>
      </trkpt>
      <trkpt lat="42.68732" lon="-2.29455">
        <ele>531.6</ele>
        <time>2021-07-24 15:32:47</time>
      </trkpt>
      <trkpt lat="42.6872" lon="-2.29449">
        <ele>531.2</ele>
        <time>2021-07-24 15:32:51</time>
      </trkpt>
      <trkpt lat="42.68707" lon="-2.29443">
        <ele>531.2</ele>
        <time>2021-07-24 15:32:55</time>
      </trkpt>
      <trkpt lat="42.68694" lon="-2.29435">
        <ele>530.8</ele>
        <time>2021-07-24 15:32:59</time>
      </trkpt>
      <trkpt lat="42.68679" lon="-2.29425">
        <ele>531</ele>
        <time>2021-07-24 15:33:03</time>
      </trkpt>
      <trkpt lat="42.68665" lon="-2.29415">
        <ele>531</ele>
        <time>2021-07-24 15:33:07</time>
      </trkpt>
      <trkpt lat="42.68652" lon="-2.29401">
        <ele>530.6</ele>
        <time>2021-07-24 15:33:11</time>
      </trkpt>
      <trkpt lat="42.68639" lon="-2.29387">
        <ele>530.4</ele>
        <time>2021-07-24 15:33:15</time>
      </trkpt>
      <trkpt lat="42.68627" lon="-2.29372">
        <ele>530.4</ele>
        <time>2021-07-24 15:33:19</time>
      </trkpt>
      <trkpt lat="42.68616" lon="-2.29356">
        <ele>530.2</ele>
        <time>2021-07-24 15:33:23</time>
      </trkpt>
      <trkpt lat="42.68605" lon="-2.29337">
        <ele>529.6</ele>
        <time>2021-07-24 15:33:27</time>
      </trkpt>
      <trkpt lat="42.68595" lon="-2.29316">
        <ele>529.4</ele>
        <time>2021-07-24 15:33:31</time>
      </trkpt>
      <trkpt lat="42.68586" lon="-2.29294">
        <ele>529.2</ele>
        <time>2021-07-24 15:33:35</time>
      </trkpt>
      <trkpt lat="42.68578" lon="-2.29271">
        <ele>529.6</ele>
        <time>2021-07-24 15:33:39</time>
      </trkpt>
      <trkpt lat="42.68572" lon="-2.29248">
        <ele>529.6</ele>
        <time>2021-07-24 15:33:43</time>
      </trkpt>
      <trkpt lat="42.68568" lon="-2.29227">
        <ele>529.8</ele>
        <time>2021-07-24 15:33:47</time>
      </trkpt>
      <trkpt lat="42.68565" lon="-2.29212">
        <ele>531</ele>
        <time>2021-07-24 15:33:51</time>
      </trkpt>
      <trkpt lat="42.68565" lon="-2.29199">
        <ele>531.8</ele>
        <time>2021-07-24 15:33:55</time>
      </trkpt>
      <trkpt lat="42.68564" lon="-2.29188">
        <ele>531.8</ele>
        <time>2021-07-24 15:33:59</time>
      </trkpt>
      <trkpt lat="42.68563" lon="-2.29175">
        <ele>532</ele>
        <time>2021-07-24 15:34:03</time>
      </trkpt>
      <trkpt lat="42.68563" lon="-2.29159">
        <ele>532</ele>
        <time>2021-07-24 15:34:07</time>
      </trkpt>
      <trkpt lat="42.68562" lon="-2.29141">
        <ele>531.4</ele>
        <time>2021-07-24 15:34:11</time>
      </trkpt>
      <trkpt lat="42.68561" lon="-2.29124">
        <ele>532</ele>
        <time>2021-07-24 15:34:15</time>
      </trkpt>
      <trkpt lat="42.68561" lon="-2.29106">
        <ele>531.6</ele>
        <time>2021-07-24 15:34:19</time>
      </trkpt>
      <trkpt lat="42.6856" lon="-2.29086">
        <ele>531.2</ele>
        <time>2021-07-24 15:34:23</time>
      </trkpt>
      <trkpt lat="42.6856" lon="-2.29065">
        <ele>531.2</ele>
        <time>2021-07-24 15:34:27</time>
      </trkpt>
      <trkpt lat="42.68559" lon="-2.29045">
        <ele>531</ele>
        <time>2021-07-24 15:34:31</time>
      </trkpt>
      <trkpt lat="42.68558" lon="-2.29025">
        <ele>531.4</ele>
        <time>2021-07-24 15:34:35</time>
      </trkpt>
      <trkpt lat="42.68557" lon="-2.29005">
        <ele>531</ele>
        <time>2021-07-24 15:34:39</time>
      </trkpt>
      <trkpt lat="42.68556" lon="-2.28984">
        <ele>531.4</ele>
        <time>2021-07-24 15:34:43</time>
      </trkpt>
      <trkpt lat="42.68555" lon="-2.28962">
        <ele>531</ele>
        <time>2021-07-24 15:34:47</time>
      </trkpt>
      <trkpt lat="42.68555" lon="-2.28941">
        <ele>531.2</ele>
        <time>2021-07-24 15:34:51</time>
      </trkpt>
      <trkpt lat="42.68554" lon="-2.2892">
        <ele>531.2</ele>
        <time>2021-07-24 15:34:55</time>
      </trkpt>
      <trkpt lat="42.68553" lon="-2.28898">
        <ele>530.6</ele>
        <time>2021-07-24 15:34:59</time>
      </trkpt>
      <trkpt lat="42.68551" lon="-2.28878">
        <ele>530.8</ele>
        <time>2021-07-24 15:35:03</time>
      </trkpt>
      <trkpt lat="42.68549" lon="-2.28859">
        <ele>530.6</ele>
        <time>2021-07-24 15:35:07</time>
      </trkpt>
      <trkpt lat="42.68545" lon="-2.28837">
        <ele>530.4</ele>
        <time>2021-07-24 15:35:11</time>
      </trkpt>
      <trkpt lat="42.68539" lon="-2.28816">
        <ele>530.4</ele>
        <time>2021-07-24 15:35:15</time>
      </trkpt>
      <trkpt lat="42.68531" lon="-2.28796">
        <ele>530.8</ele>
        <time>2021-07-24 15:35:19</time>
      </trkpt>
      <trkpt lat="42.68522" lon="-2.28778">
        <ele>530.6</ele>
        <time>2021-07-24 15:35:23</time>
      </trkpt>
      <trkpt lat="42.68513" lon="-2.2876">
        <ele>530.4</ele>
        <time>2021-07-24 15:35:27</time>
      </trkpt>
      <trkpt lat="42.68501" lon="-2.28743">
        <ele>530</ele>
        <time>2021-07-24 15:35:31</time>
      </trkpt>
      <trkpt lat="42.6849" lon="-2.28727">
        <ele>530.6</ele>
        <time>2021-07-24 15:35:35</time>
      </trkpt>
      <trkpt lat="42.68477" lon="-2.28713">
        <ele>530.6</ele>
        <time>2021-07-24 15:35:39</time>
      </trkpt>
      <trkpt lat="42.68465" lon="-2.28699">
        <ele>530.4</ele>
        <time>2021-07-24 15:35:43</time>
      </trkpt>
      <trkpt lat="42.68452" lon="-2.28686">
        <ele>530.8</ele>
        <time>2021-07-24 15:35:47</time>
      </trkpt>
      <trkpt lat="42.68441" lon="-2.28673">
        <ele>530.6</ele>
        <time>2021-07-24 15:35:51</time>
      </trkpt>
      <trkpt lat="42.6843" lon="-2.2866">
        <ele>531</ele>
        <time>2021-07-24 15:35:55</time>
      </trkpt>
      <trkpt lat="42.68418" lon="-2.28648">
        <ele>531</ele>
        <time>2021-07-24 15:35:59</time>
      </trkpt>
      <trkpt lat="42.68406" lon="-2.28638">
        <ele>530.6</ele>
        <time>2021-07-24 15:36:03</time>
      </trkpt>
      <trkpt lat="42.68397" lon="-2.28628">
        <ele>530.4</ele>
        <time>2021-07-24 15:36:07</time>
      </trkpt>
      <trkpt lat="42.68386" lon="-2.28614">
        <ele>530.6</ele>
        <time>2021-07-24 15:36:11</time>
      </trkpt>
      <trkpt lat="42.68374" lon="-2.28597">
        <ele>530.6</ele>
        <time>2021-07-24 15:36:15</time>
      </trkpt>
      <trkpt lat="42.68368" lon="-2.28586">
        <ele>531</ele>
        <time>2021-07-24 15:36:19</time>
      </trkpt>
      <trkpt lat="42.68363" lon="-2.28584">
        <ele>531.2</ele>
        <time>2021-07-24 15:36:23</time>
      </trkpt>
      <trkpt lat="42.68359" lon="-2.28585">
        <ele>531.2</ele>
        <time>2021-07-24 15:36:27</time>
      </trkpt>
      <trkpt lat="42.68353" lon="-2.28587">
        <ele>530.6</ele>
        <time>2021-07-24 15:36:31</time>
      </trkpt>
      <trkpt lat="42.68353" lon="-2.28587">
        <ele>529.8</ele>
        <time>2021-07-24 15:36:35</time>
      </trkpt>
      <trkpt lat="42.68353" lon="-2.28587">
        <ele>530.4</ele>
        <time>2021-07-24 15:36:39</time>
      </trkpt>
      <trkpt lat="42.68353" lon="-2.28587">
        <ele>530.4</ele>
        <time>2021-07-24 15:36:43</time>
      </trkpt>
      <trkpt lat="42.68353" lon="-2.28587">
        <ele>530.2</ele>
        <time>2021-07-24 15:36:47</time>
      </trkpt>
      <trkpt lat="42.68353" lon="-2.28587">
        <ele>530.4</ele>
        <time>2021-07-24 15:36:51</time>
      </trkpt>
      <trkpt lat="42.68353" lon="-2.28587">
        <ele>530.4</ele>
        <time>2021-07-24 15:36:55</time>
      </trkpt>
      <trkpt lat="42.68353" lon="-2.28587">
        <ele>530.2</ele>
        <time>2021-07-24 15:36:59</time>
      </trkpt>
      <trkpt lat="42.68353" lon="-2.28587">
        <ele>530.2</ele>
        <time>2021-07-24 15:37:03</time>
      </trkpt>
      <trkpt lat="42.68353" lon="-2.28587">
        <ele>530.2</ele>
        <time>2021-07-24 15:37:07</time>
      </trkpt>
      <trkpt lat="42.68353" lon="-2.28587">
        <ele>530.4</ele>
        <time>2021-07-24 15:37:11</time>
      </trkpt>
      <trkpt lat="42.68353" lon="-2.28587">
        <ele>530.4</ele>
        <time>2021-07-24 15:37:15</time>
      </trkpt>
      <trkpt lat="42.68353" lon="-2.28587">
        <ele>530.6</ele>
        <time>2021-07-24 15:37:19</time>
      </trkpt>
      <trkpt lat="42.68353" lon="-2.28587">
        <ele>530.2</ele>
        <time>2021-07-24 15:37:23</time>
      </trkpt>
      <trkpt lat="42.68353" lon="-2.28587">
        <ele>530.6</ele>
        <time>2021-07-24 15:37:27</time>
      </trkpt>
      <trkpt lat="42.68353" lon="-2.28587">
        <ele>530.6</ele>
        <time>2021-07-24 15:37:31</time>
      </trkpt>
      <trkpt lat="42.68353" lon="-2.28587">
        <ele>530.6</ele>
        <time>2021-07-24 15:37:35</time>
      </trkpt>
      <trkpt lat="42.68353" lon="-2.28587">
        <ele>530.2</ele>
        <time>2021-07-24 15:37:39</time>
      </trkpt>
      <trkpt lat="42.68353" lon="-2.28587">
        <ele>530.2</ele>
        <time>2021-07-24 15:37:43</time>
      </trkpt>
      <trkpt lat="42.68353" lon="-2.28587">
        <ele>530.2</ele>
        <time>2021-07-24 15:37:47</time>
      </trkpt>
      <trkpt lat="42.68353" lon="-2.28587">
        <ele>530.2</ele>
        <time>2021-07-24 15:37:51</time>
      </trkpt>
      <trkpt lat="42.68353" lon="-2.28587">
        <ele>530.6</ele>
        <time>2021-07-24 15:37:55</time>
      </trkpt>
      <trkpt lat="42.68353" lon="-2.28587">
        <ele>530.6</ele>
        <time>2021-07-24 15:37:59</time>
      </trkpt>
      <trkpt lat="42.68353" lon="-2.28587">
        <ele>530.6</ele>
        <time>2021-07-24 15:38:03</time>
      </trkpt>
      <trkpt lat="42.68353" lon="-2.28587">
        <ele>530.4</ele>
        <time>2021-07-24 15:38:07</time>
      </trkpt>
      <trkpt lat="42.68353" lon="-2.28587">
        <ele>530.6</ele>
        <time>2021-07-24 15:38:11</time>
      </trkpt>
      <trkpt lat="42.68353" lon="-2.28587">
        <ele>530.4</ele>
        <time>2021-07-24 15:38:15</time>
      </trkpt>
      <trkpt lat="42.68353" lon="-2.28587">
        <ele>530.6</ele>
        <time>2021-07-24 15:38:19</time>
      </trkpt>
      <trkpt lat="42.68353" lon="-2.28587">
        <ele>531</ele>
        <time>2021-07-24 15:38:23</time>
      </trkpt>
      <trkpt lat="42.68353" lon="-2.28587">
        <ele>530.6</ele>
        <time>2021-07-24 15:38:27</time>
      </trkpt>
      <trkpt lat="42.68353" lon="-2.28587">
        <ele>530.8</ele>
        <time>2021-07-24 15:38:31</time>
      </trkpt>
      <trkpt lat="42.68353" lon="-2.28587">
        <ele>530.6</ele>
        <time>2021-07-24 15:38:35</time>
      </trkpt>
      <trkpt lat="42.68353" lon="-2.28587">
        <ele>530.8</ele>
        <time>2021-07-24 15:38:39</time>
      </trkpt>
      <trkpt lat="42.68353" lon="-2.28587">
        <ele>531.2</ele>
        <time>2021-07-24 15:38:43</time>
      </trkpt>
      <trkpt lat="42.68353" lon="-2.28587">
        <ele>531.2</ele>
        <time>2021-07-24 15:38:47</time>
      </trkpt>
      <trkpt lat="42.68353" lon="-2.28587">
        <ele>530.8</ele>
        <time>2021-07-24 15:38:51</time>
      </trkpt>
      <trkpt lat="42.68353" lon="-2.28587">
        <ele>530.6</ele>
        <time>2021-07-24 15:38:55</time>
      </trkpt>
      <trkpt lat="42.68353" lon="-2.28587">
        <ele>530.6</ele>
        <time>2021-07-24 15:38:59</time>
      </trkpt>
      <trkpt lat="42.68353" lon="-2.28587">
        <ele>531.2</ele>
        <time>2021-07-24 15:39:03</time>
      </trkpt>
      <trkpt lat="42.68353" lon="-2.28587">
        <ele>531.2</ele>
        <time>2021-07-24 15:39:07</time>
      </trkpt>
      <trkpt lat="42.68353" lon="-2.28587">
        <ele>531.2</ele>
        <time>2021-07-24 15:39:11</time>
      </trkpt>
      <trkpt lat="42.68353" lon="-2.28587">
        <ele>531</ele>
        <time>2021-07-24 15:39:15</time>
      </trkpt>
      <trkpt lat="42.68353" lon="-2.28587">
        <ele>531.2</ele>
        <time>2021-07-24 15:39:19</time>
      </trkpt>
      <trkpt lat="42.68353" lon="-2.28587">
        <ele>531.2</ele>
        <time>2021-07-24 15:39:23</time>
      </trkpt>
      <trkpt lat="42.68353" lon="-2.28587">
        <ele>531.2</ele>
        <time>2021-07-24 15:39:27</time>
      </trkpt>
      <trkpt lat="42.68353" lon="-2.28587">
        <ele>531</ele>
        <time>2021-07-24 15:39:31</time>
      </trkpt>
      <trkpt lat="42.68353" lon="-2.28587">
        <ele>531.2</ele>
        <time>2021-07-24 15:39:35</time>
      </trkpt>
      <trkpt lat="42.68353" lon="-2.28587">
        <ele>531.2</ele>
        <time>2021-07-24 15:39:39</time>
      </trkpt>
      <trkpt lat="42.68353" lon="-2.28587">
        <ele>531.6</ele>
        <time>2021-07-24 15:39:43</time>
      </trkpt>
      <trkpt lat="42.68353" lon="-2.28587">
        <ele>530.8</ele>
        <time>2021-07-24 15:39:47</time>
      </trkpt>
      <trkpt lat="42.68353" lon="-2.28587">
        <ele>530.6</ele>
        <time>2021-07-24 15:39:51</time>
      </trkpt>
      <trkpt lat="42.68353" lon="-2.28587">
        <ele>531.4</ele>
        <time>2021-07-24 15:39:55</time>
      </trkpt>
      <trkpt lat="42.68353" lon="-2.28587">
        <ele>531.4</ele>
        <time>2021-07-24 15:39:59</time>
      </trkpt>
      <trkpt lat="42.68353" lon="-2.28587">
        <ele>531.4</ele>
        <time>2021-07-24 15:40:03</time>
      </trkpt>
      <trkpt lat="42.68353" lon="-2.28587">
        <ele>531.4</ele>
        <time>2021-07-24 15:40:07</time>
      </trkpt>
      <trkpt lat="42.68353" lon="-2.28587">
        <ele>531.8</ele>
        <time>2021-07-24 15:40:11</time>
      </trkpt>
      <trkpt lat="42.68348" lon="-2.28587">
        <ele>532</ele>
        <time>2021-07-24 15:40:15</time>
      </trkpt>
      <trkpt lat="42.6835" lon="-2.28585">
        <ele>531.8</ele>
        <time>2021-07-24 15:40:19</time>
      </trkpt>
      <trkpt lat="42.68354" lon="-2.28583">
        <ele>532</ele>
        <time>2021-07-24 15:40:23</time>
      </trkpt>
      <trkpt lat="42.68357" lon="-2.28582">
        <ele>532.6</ele>
        <time>2021-07-24 15:40:27</time>
      </trkpt>
      <trkpt lat="42.6836" lon="-2.2858">
        <ele>532</ele>
        <time>2021-07-24 15:40:31</time>
      </trkpt>
      <trkpt lat="42.6836" lon="-2.28579">
        <ele>531.6</ele>
        <time>2021-07-24 15:40:35</time>
      </trkpt>
      <trkpt lat="42.68358" lon="-2.28572">
        <ele>532</ele>
        <time>2021-07-24 15:40:39</time>
      </trkpt>
      <trkpt lat="42.68354" lon="-2.28564">
        <ele>531.6</ele>
        <time>2021-07-24 15:40:43</time>
      </trkpt>
      <trkpt lat="42.68349" lon="-2.28553">
        <ele>531.8</ele>
        <time>2021-07-24 15:40:47</time>
      </trkpt>
      <trkpt lat="42.68344" lon="-2.2854">
        <ele>531.8</ele>
        <time>2021-07-24 15:40:51</time>
      </trkpt>
      <trkpt lat="42.68339" lon="-2.28524">
        <ele>532</ele>
        <time>2021-07-24 15:40:55</time>
      </trkpt>
      <trkpt lat="42.68336" lon="-2.28508">
        <ele>531.6</ele>
        <time>2021-07-24 15:40:59</time>
      </trkpt>
      <trkpt lat="42.68332" lon="-2.28491">
        <ele>531.4</ele>
        <time>2021-07-24 15:41:03</time>
      </trkpt>
      <trkpt lat="42.6833" lon="-2.28473">
        <ele>532</ele>
        <time>2021-07-24 15:41:07</time>
      </trkpt>
      <trkpt lat="42.68329" lon="-2.28455">
        <ele>531.4</ele>
        <time>2021-07-24 15:41:11</time>
      </trkpt>
      <trkpt lat="42.68327" lon="-2.28438">
        <ele>531.4</ele>
        <time>2021-07-24 15:41:15</time>
      </trkpt>
      <trkpt lat="42.68326" lon="-2.28418">
        <ele>531.4</ele>
        <time>2021-07-24 15:41:19</time>
      </trkpt>
      <trkpt lat="42.68324" lon="-2.28399">
        <ele>531</ele>
        <time>2021-07-24 15:41:23</time>
      </trkpt>
      <trkpt lat="42.68323" lon="-2.28379">
        <ele>530.8</ele>
        <time>2021-07-24 15:41:27</time>
      </trkpt>
      <trkpt lat="42.68322" lon="-2.28358">
        <ele>531</ele>
        <time>2021-07-24 15:41:31</time>
      </trkpt>
      <trkpt lat="42.68321" lon="-2.28338">
        <ele>531</ele>
        <time>2021-07-24 15:41:35</time>
      </trkpt>
      <trkpt lat="42.68321" lon="-2.28319">
        <ele>531</ele>
        <time>2021-07-24 15:41:39</time>
      </trkpt>
      <trkpt lat="42.6832" lon="-2.283">
        <ele>531</ele>
        <time>2021-07-24 15:41:43</time>
      </trkpt>
      <trkpt lat="42.68318" lon="-2.28281">
        <ele>531</ele>
        <time>2021-07-24 15:41:47</time>
      </trkpt>
      <trkpt lat="42.68317" lon="-2.2826">
        <ele>530.8</ele>
        <time>2021-07-24 15:41:51</time>
      </trkpt>
      <trkpt lat="42.68318" lon="-2.2824">
        <ele>531</ele>
        <time>2021-07-24 15:41:55</time>
      </trkpt>
      <trkpt lat="42.68316" lon="-2.2822">
        <ele>530.6</ele>
        <time>2021-07-24 15:41:59</time>
      </trkpt>
      <trkpt lat="42.68315" lon="-2.28198">
        <ele>530.2</ele>
        <time>2021-07-24 15:42:03</time>
      </trkpt>
      <trkpt lat="42.68314" lon="-2.28175">
        <ele>530.4</ele>
        <time>2021-07-24 15:42:07</time>
      </trkpt>
      <trkpt lat="42.68312" lon="-2.28154">
        <ele>531</ele>
        <time>2021-07-24 15:42:11</time>
      </trkpt>
      <trkpt lat="42.6831" lon="-2.28132">
        <ele>530.8</ele>
        <time>2021-07-24 15:42:15</time>
      </trkpt>
      <trkpt lat="42.68309" lon="-2.28111">
        <ele>530.4</ele>
        <time>2021-07-24 15:42:19</time>
      </trkpt>
      <trkpt lat="42.68308" lon="-2.28089">
        <ele>530.2</ele>
        <time>2021-07-24 15:42:23</time>
      </trkpt>
      <trkpt lat="42.68305" lon="-2.28069">
        <ele>530.2</ele>
        <time>2021-07-24 15:42:27</time>
      </trkpt>
      <trkpt lat="42.68304" lon="-2.28048">
        <ele>530.6</ele>
        <time>2021-07-24 15:42:31</time>
      </trkpt>
      <trkpt lat="42.68302" lon="-2.28027">
        <ele>530</ele>
        <time>2021-07-24 15:42:35</time>
      </trkpt>
      <trkpt lat="42.68301" lon="-2.28006">
        <ele>530.2</ele>
        <time>2021-07-24 15:42:39</time>
      </trkpt>
      <trkpt lat="42.683" lon="-2.27983">
        <ele>529.6</ele>
        <time>2021-07-24 15:42:43</time>
      </trkpt>
      <trkpt lat="42.68298" lon="-2.27961">
        <ele>530</ele>
        <time>2021-07-24 15:42:47</time>
      </trkpt>
      <trkpt lat="42.68296" lon="-2.2794">
        <ele>530.4</ele>
        <time>2021-07-24 15:42:51</time>
      </trkpt>
      <trkpt lat="42.68294" lon="-2.2792">
        <ele>530.6</ele>
        <time>2021-07-24 15:42:55</time>
      </trkpt>
      <trkpt lat="42.6829" lon="-2.27901">
        <ele>530</ele>
        <time>2021-07-24 15:42:59</time>
      </trkpt>
      <trkpt lat="42.68284" lon="-2.27881">
        <ele>530.6</ele>
        <time>2021-07-24 15:43:03</time>
      </trkpt>
      <trkpt lat="42.68278" lon="-2.27863">
        <ele>530.6</ele>
        <time>2021-07-24 15:43:07</time>
      </trkpt>
      <trkpt lat="42.6827" lon="-2.27846">
        <ele>530.6</ele>
        <time>2021-07-24 15:43:11</time>
      </trkpt>
      <trkpt lat="42.68262" lon="-2.27829">
        <ele>529.8</ele>
        <time>2021-07-24 15:43:15</time>
      </trkpt>
      <trkpt lat="42.68251" lon="-2.27814">
        <ele>530</ele>
        <time>2021-07-24 15:43:19</time>
      </trkpt>
      <trkpt lat="42.68241" lon="-2.27801">
        <ele>530.6</ele>
        <time>2021-07-24 15:43:23</time>
      </trkpt>
      <trkpt lat="42.6823" lon="-2.27789">
        <ele>529.8</ele>
        <time>2021-07-24 15:43:27</time>
      </trkpt>
      <trkpt lat="42.68218" lon="-2.27778">
        <ele>530</ele>
        <time>2021-07-24 15:43:31</time>
      </trkpt>
      <trkpt lat="42.68208" lon="-2.27766">
        <ele>531.2</ele>
        <time>2021-07-24 15:43:35</time>
      </trkpt>
      <trkpt lat="42.68196" lon="-2.27755">
        <ele>529.6</ele>
        <time>2021-07-24 15:43:39</time>
      </trkpt>
      <trkpt lat="42.68184" lon="-2.27742">
        <ele>530.4</ele>
        <time>2021-07-24 15:43:43</time>
      </trkpt>
      <trkpt lat="42.68173" lon="-2.27728">
        <ele>531.2</ele>
        <time>2021-07-24 15:43:47</time>
      </trkpt>
      <trkpt lat="42.68162" lon="-2.27716">
        <ele>530.6</ele>
        <time>2021-07-24 15:43:51</time>
      </trkpt>
      <trkpt lat="42.68151" lon="-2.27704">
        <ele>530.8</ele>
        <time>2021-07-24 15:43:55</time>
      </trkpt>
      <trkpt lat="42.68138" lon="-2.27691">
        <ele>530.8</ele>
        <time>2021-07-24 15:43:59</time>
      </trkpt>
      <trkpt lat="42.68127" lon="-2.27679">
        <ele>530.6</ele>
        <time>2021-07-24 15:44:03</time>
      </trkpt>
      <trkpt lat="42.68115" lon="-2.27666">
        <ele>530.6</ele>
        <time>2021-07-24 15:44:07</time>
      </trkpt>
      <trkpt lat="42.68103" lon="-2.27655">
        <ele>530.8</ele>
        <time>2021-07-24 15:44:11</time>
      </trkpt>
      <trkpt lat="42.68092" lon="-2.27646">
        <ele>530.6</ele>
        <time>2021-07-24 15:44:15</time>
      </trkpt>
      <trkpt lat="42.68081" lon="-2.27639">
        <ele>530.4</ele>
        <time>2021-07-24 15:44:19</time>
      </trkpt>
      <trkpt lat="42.68071" lon="-2.27634">
        <ele>530.2</ele>
        <time>2021-07-24 15:44:23</time>
      </trkpt>
      <trkpt lat="42.68062" lon="-2.2763">
        <ele>530.6</ele>
        <time>2021-07-24 15:44:27</time>
      </trkpt>
      <trkpt lat="42.68051" lon="-2.27625">
        <ele>530.6</ele>
        <time>2021-07-24 15:44:31</time>
      </trkpt>
      <trkpt lat="42.68042" lon="-2.27621">
        <ele>530.6</ele>
        <time>2021-07-24 15:44:35</time>
      </trkpt>
      <trkpt lat="42.68033" lon="-2.27617">
        <ele>531</ele>
        <time>2021-07-24 15:44:39</time>
      </trkpt>
      <trkpt lat="42.68023" lon="-2.27613">
        <ele>530.6</ele>
        <time>2021-07-24 15:44:43</time>
      </trkpt>
      <trkpt lat="42.68011" lon="-2.27607">
        <ele>530.6</ele>
        <time>2021-07-24 15:44:47</time>
      </trkpt>
      <trkpt lat="42.67999" lon="-2.27602">
        <ele>530.8</ele>
        <time>2021-07-24 15:44:51</time>
      </trkpt>
      <trkpt lat="42.67989" lon="-2.27597">
        <ele>530.8</ele>
        <time>2021-07-24 15:44:55</time>
      </trkpt>
      <trkpt lat="42.67978" lon="-2.27593">
        <ele>530.2</ele>
        <time>2021-07-24 15:44:59</time>
      </trkpt>
      <trkpt lat="42.67966" lon="-2.27588">
        <ele>530.4</ele>
        <time>2021-07-24 15:45:03</time>
      </trkpt>
      <trkpt lat="42.67953" lon="-2.27582">
        <ele>530.8</ele>
        <time>2021-07-24 15:45:07</time>
      </trkpt>
      <trkpt lat="42.6794" lon="-2.27578">
        <ele>531.4</ele>
        <time>2021-07-24 15:45:11</time>
      </trkpt>
      <trkpt lat="42.67927" lon="-2.2757">
        <ele>531.2</ele>
        <time>2021-07-24 15:45:15</time>
      </trkpt>
      <trkpt lat="42.67914" lon="-2.2756">
        <ele>530</ele>
        <time>2021-07-24 15:45:19</time>
      </trkpt>
      <trkpt lat="42.67901" lon="-2.2755">
        <ele>532</ele>
        <time>2021-07-24 15:45:23</time>
      </trkpt>
      <trkpt lat="42.6789" lon="-2.27538">
        <ele>531.8</ele>
        <time>2021-07-24 15:45:27</time>
      </trkpt>
      <trkpt lat="42.67879" lon="-2.27527">
        <ele>532</ele>
        <time>2021-07-24 15:45:31</time>
      </trkpt>
      <trkpt lat="42.67869" lon="-2.27512">
        <ele>532</ele>
        <time>2021-07-24 15:45:35</time>
      </trkpt>
      <trkpt lat="42.6786" lon="-2.27497">
        <ele>531.2</ele>
        <time>2021-07-24 15:45:39</time>
      </trkpt>
      <trkpt lat="42.67852" lon="-2.27482">
        <ele>531.2</ele>
        <time>2021-07-24 15:45:43</time>
      </trkpt>
      <trkpt lat="42.67844" lon="-2.27469">
        <ele>532</ele>
        <time>2021-07-24 15:45:47</time>
      </trkpt>
      <trkpt lat="42.67838" lon="-2.27456">
        <ele>532.6</ele>
        <time>2021-07-24 15:45:51</time>
      </trkpt>
      <trkpt lat="42.6783" lon="-2.27451">
        <ele>532.2</ele>
        <time>2021-07-24 15:45:55</time>
      </trkpt>
      <trkpt lat="42.6782" lon="-2.27445">
        <ele>532</ele>
        <time>2021-07-24 15:45:59</time>
      </trkpt>
      <trkpt lat="42.6782" lon="-2.27445">
        <ele>530.2</ele>
        <time>2021-07-24 15:46:03</time>
      </trkpt>
      <trkpt lat="42.6782" lon="-2.27445">
        <ele>529.8</ele>
        <time>2021-07-24 15:46:07</time>
      </trkpt>
      <trkpt lat="42.6782" lon="-2.27445">
        <ele>530</ele>
        <time>2021-07-24 15:46:11</time>
      </trkpt>
      <trkpt lat="42.6782" lon="-2.27445">
        <ele>529.8</ele>
        <time>2021-07-24 15:46:15</time>
      </trkpt>
      <trkpt lat="42.6782" lon="-2.27445">
        <ele>529.8</ele>
        <time>2021-07-24 15:46:19</time>
      </trkpt>
      <trkpt lat="42.6782" lon="-2.27445">
        <ele>529.8</ele>
        <time>2021-07-24 15:46:23</time>
      </trkpt>
      <trkpt lat="42.6782" lon="-2.27445">
        <ele>529.8</ele>
        <time>2021-07-24 15:46:27</time>
      </trkpt>
      <trkpt lat="42.6782" lon="-2.27445">
        <ele>529.8</ele>
        <time>2021-07-24 15:46:31</time>
      </trkpt>
      <trkpt lat="42.67048" lon="-2.26093">
        <ele>529.6</ele>
        <time>2021-07-24 15:46:35</time>
      </trkpt>
      <trkpt lat="42.67042" lon="-2.26084">
        <ele>529.6</ele>
        <time>2021-07-24 15:46:39</time>
      </trkpt>
      <trkpt lat="42.67035" lon="-2.26073">
        <ele>529.6</ele>
        <time>2021-07-24 15:46:43</time>
      </trkpt>
      <trkpt lat="42.67027" lon="-2.26058">
        <ele>529.8</ele>
        <time>2021-07-24 15:46:47</time>
      </trkpt>
      <trkpt lat="42.67019" lon="-2.26045">
        <ele>530</ele>
        <time>2021-07-24 15:46:51</time>
      </trkpt>
      <trkpt lat="42.67011" lon="-2.26032">
        <ele>529.8</ele>
        <time>2021-07-24 15:46:55</time>
      </trkpt>
      <trkpt lat="42.67002" lon="-2.26016">
        <ele>529</ele>
        <time>2021-07-24 15:46:59</time>
      </trkpt>
      <trkpt lat="42.66994" lon="-2.25999">
        <ele>528.2</ele>
        <time>2021-07-24 15:47:03</time>
      </trkpt>
      <trkpt lat="42.66986" lon="-2.2598">
        <ele>528.4</ele>
        <time>2021-07-24 15:47:07</time>
      </trkpt>
      <trkpt lat="42.66979" lon="-2.2596">
        <ele>528.2</ele>
        <time>2021-07-24 15:47:11</time>
      </trkpt>
      <trkpt lat="42.66972" lon="-2.25939">
        <ele>528.2</ele>
        <time>2021-07-24 15:47:15</time>
      </trkpt>
      <trkpt lat="42.66967" lon="-2.25915">
        <ele>527.8</ele>
        <time>2021-07-24 15:47:19</time>
      </trkpt>
      <trkpt lat="42.66964" lon="-2.2589">
        <ele>527.4</ele>
        <time>2021-07-24 15:47:23</time>
      </trkpt>
      <trkpt lat="42.66961" lon="-2.25866">
        <ele>527.4</ele>
        <time>2021-07-24 15:47:27</time>
      </trkpt>
      <trkpt lat="42.66959" lon="-2.25843">
        <ele>527.2</ele>
        <time>2021-07-24 15:47:31</time>
      </trkpt>
      <trkpt lat="42.66957" lon="-2.25818">
        <ele>526.6</ele>
        <time>2021-07-24 15:47:35</time>
      </trkpt>
      <trkpt lat="42.66955" lon="-2.25793">
        <ele>525.8</ele>
        <time>2021-07-24 15:47:39</time>
      </trkpt>
      <trkpt lat="42.66953" lon="-2.25767">
        <ele>525.6</ele>
        <time>2021-07-24 15:47:43</time>
      </trkpt>
      <trkpt lat="42.6695" lon="-2.25741">
        <ele>525</ele>
        <time>2021-07-24 15:47:47</time>
      </trkpt>
      <trkpt lat="42.66948" lon="-2.25714">
        <ele>524.2</ele>
        <time>2021-07-24 15:47:51</time>
      </trkpt>
      <trkpt lat="42.66945" lon="-2.25687">
        <ele>524.6</ele>
        <time>2021-07-24 15:47:55</time>
      </trkpt>
      <trkpt lat="42.66942" lon="-2.2566">
        <ele>524.4</ele>
        <time>2021-07-24 15:47:59</time>
      </trkpt>
      <trkpt lat="42.66939" lon="-2.25633">
        <ele>524.2</ele>
        <time>2021-07-24 15:48:03</time>
      </trkpt>
      <trkpt lat="42.66937" lon="-2.25605">
        <ele>523.8</ele>
        <time>2021-07-24 15:48:07</time>
      </trkpt>
      <trkpt lat="42.66934" lon="-2.25578">
        <ele>524</ele>
        <time>2021-07-24 15:48:11</time>
      </trkpt>
      <trkpt lat="42.66932" lon="-2.2555">
        <ele>524.8</ele>
        <time>2021-07-24 15:48:15</time>
      </trkpt>
      <trkpt lat="42.6693" lon="-2.25522">
        <ele>523.4</ele>
        <time>2021-07-24 15:48:19</time>
      </trkpt>
      <trkpt lat="42.66927" lon="-2.25494">
        <ele>523</ele>
        <time>2021-07-24 15:48:23</time>
      </trkpt>
      <trkpt lat="42.66925" lon="-2.25467">
        <ele>522.8</ele>
        <time>2021-07-24 15:48:27</time>
      </trkpt>
      <trkpt lat="42.66923" lon="-2.25439">
        <ele>522.2</ele>
        <time>2021-07-24 15:48:31</time>
      </trkpt>
      <trkpt lat="42.66921" lon="-2.25413">
        <ele>522.6</ele>
        <time>2021-07-24 15:48:35</time>
      </trkpt>
      <trkpt lat="42.66919" lon="-2.25392">
        <ele>522.2</ele>
        <time>2021-07-24 15:48:39</time>
      </trkpt>
      <trkpt lat="42.66917" lon="-2.25369">
        <ele>521.6</ele>
        <time>2021-07-24 15:48:43</time>
      </trkpt>
      <trkpt lat="42.66914" lon="-2.25344">
        <ele>521.2</ele>
        <time>2021-07-24 15:48:47</time>
      </trkpt>
      <trkpt lat="42.66912" lon="-2.25318">
        <ele>521.2</ele>
        <time>2021-07-24 15:48:51</time>
      </trkpt>
      <trkpt lat="42.66909" lon="-2.25293">
        <ele>521.2</ele>
        <time>2021-07-24 15:48:55</time>
      </trkpt>
      <trkpt lat="42.66908" lon="-2.25268">
        <ele>520.8</ele>
        <time>2021-07-24 15:48:59</time>
      </trkpt>
      <trkpt lat="42.66905" lon="-2.25242">
        <ele>520.6</ele>
        <time>2021-07-24 15:49:03</time>
      </trkpt>
      <trkpt lat="42.66903" lon="-2.25218">
        <ele>520.2</ele>
        <time>2021-07-24 15:49:07</time>
      </trkpt>
      <trkpt lat="42.669" lon="-2.2519">
        <ele>519.4</ele>
        <time>2021-07-24 15:49:11</time>
      </trkpt>
      <trkpt lat="42.66896" lon="-2.25162">
        <ele>519.8</ele>
        <time>2021-07-24 15:49:15</time>
      </trkpt>
      <trkpt lat="42.66891" lon="-2.25135">
        <ele>518.8</ele>
        <time>2021-07-24 15:49:19</time>
      </trkpt>
      <trkpt lat="42.66884" lon="-2.25109">
        <ele>518.2</ele>
        <time>2021-07-24 15:49:23</time>
      </trkpt>
      <trkpt lat="42.66877" lon="-2.25085">
        <ele>518.4</ele>
        <time>2021-07-24 15:49:27</time>
      </trkpt>
      <trkpt lat="42.6687" lon="-2.25062">
        <ele>517.4</ele>
        <time>2021-07-24 15:49:31</time>
      </trkpt>
      <trkpt lat="42.6686" lon="-2.25042">
        <ele>517.4</ele>
        <time>2021-07-24 15:49:35</time>
      </trkpt>
      <trkpt lat="42.66851" lon="-2.25023">
        <ele>516.6</ele>
        <time>2021-07-24 15:49:39</time>
      </trkpt>
      <trkpt lat="42.66841" lon="-2.25004">
        <ele>517.4</ele>
        <time>2021-07-24 15:49:43</time>
      </trkpt>
      <trkpt lat="42.66832" lon="-2.24987">
        <ele>516.6</ele>
        <time>2021-07-24 15:49:47</time>
      </trkpt>
      <trkpt lat="42.66828" lon="-2.24976">
        <ele>516.6</ele>
        <time>2021-07-24 15:49:51</time>
      </trkpt>
      <trkpt lat="42.66828" lon="-2.24976">
        <ele>516.6</ele>
        <time>2021-07-24 15:49:55</time>
      </trkpt>
      <trkpt lat="42.66824" lon="-2.24976">
        <ele>515.8</ele>
        <time>2021-07-24 15:49:59</time>
      </trkpt>
      <trkpt lat="42.66825" lon="-2.24982">
        <ele>513.8</ele>
        <time>2021-07-24 15:50:03</time>
      </trkpt>
      <trkpt lat="42.66826" lon="-2.24992">
        <ele>513.4</ele>
        <time>2021-07-24 15:50:07</time>
      </trkpt>
      <trkpt lat="42.6682" lon="-2.25003">
        <ele>513.8</ele>
        <time>2021-07-24 15:50:11</time>
      </trkpt>
      <trkpt lat="42.6681" lon="-2.25001">
        <ele>514.6</ele>
        <time>2021-07-24 15:50:15</time>
      </trkpt>
      <trkpt lat="42.66803" lon="-2.24993">
        <ele>515.2</ele>
        <time>2021-07-24 15:50:19</time>
      </trkpt>
      <trkpt lat="42.66796" lon="-2.24984">
        <ele>516.2</ele>
        <time>2021-07-24 15:50:23</time>
      </trkpt>
      <trkpt lat="42.6679" lon="-2.24978">
        <ele>517.8</ele>
        <time>2021-07-24 15:50:27</time>
      </trkpt>
      <trkpt lat="42.66785" lon="-2.24972">
        <ele>517.8</ele>
        <time>2021-07-24 15:50:31</time>
      </trkpt>
      <trkpt lat="42.6678" lon="-2.24966">
        <ele>518.8</ele>
        <time>2021-07-24 15:50:35</time>
      </trkpt>
      <trkpt lat="42.66774" lon="-2.24959">
        <ele>518.8</ele>
        <time>2021-07-24 15:50:39</time>
      </trkpt>
      <trkpt lat="42.66768" lon="-2.24952">
        <ele>519.4</ele>
        <time>2021-07-24 15:50:43</time>
      </trkpt>
      <trkpt lat="42.6676" lon="-2.24949">
        <ele>519.4</ele>
        <time>2021-07-24 15:50:47</time>
      </trkpt>
      <trkpt lat="42.66752" lon="-2.24947">
        <ele>519.6</ele>
        <time>2021-07-24 15:50:51</time>
      </trkpt>
      <trkpt lat="42.66744" lon="-2.24943">
        <ele>519.8</ele>
        <time>2021-07-24 15:50:55</time>
      </trkpt>
      <trkpt lat="42.66737" lon="-2.24938">
        <ele>519.4</ele>
        <time>2021-07-24 15:50:59</time>
      </trkpt>
      <trkpt lat="42.66731" lon="-2.24933">
        <ele>519.6</ele>
        <time>2021-07-24 15:51:03</time>
      </trkpt>
      <trkpt lat="42.66727" lon="-2.24925">
        <ele>518.6</ele>
        <time>2021-07-24 15:51:07</time>
      </trkpt>
      <trkpt lat="42.66729" lon="-2.24929">
        <ele>519.8</ele>
        <time>2021-07-24 15:51:11</time>
      </trkpt>
      <trkpt lat="42.66724" lon="-2.24937">
        <ele>520.2</ele>
        <time>2021-07-24 15:51:15</time>
      </trkpt>
      <trkpt lat="42.66721" lon="-2.24948">
        <ele>520</ele>
        <time>2021-07-24 15:51:19</time>
      </trkpt>
      <trkpt lat="42.66718" lon="-2.24956">
        <ele>520.4</ele>
        <time>2021-07-24 15:51:23</time>
      </trkpt>
      <trkpt lat="42.66715" lon="-2.24965">
        <ele>520.8</ele>
        <time>2021-07-24 15:51:27</time>
      </trkpt>
      <trkpt lat="42.66711" lon="-2.24971">
        <ele>520.6</ele>
        <time>2021-07-24 15:51:31</time>
      </trkpt>
      <trkpt lat="42.66705" lon="-2.24973">
        <ele>520.6</ele>
        <time>2021-07-24 15:51:35</time>
      </trkpt>
      <trkpt lat="42.66696" lon="-2.24971">
        <ele>521</ele>
        <time>2021-07-24 15:51:39</time>
      </trkpt>
      <trkpt lat="42.66687" lon="-2.24969">
        <ele>520.8</ele>
        <time>2021-07-24 15:51:43</time>
      </trkpt>
      <trkpt lat="42.66687" lon="-2.24969">
        <ele>521</ele>
        <time>2021-07-24 15:51:47</time>
      </trkpt>
      <trkpt lat="42.66687" lon="-2.24969">
        <ele>520.8</ele>
        <time>2021-07-24 15:51:51</time>
      </trkpt>
      <trkpt lat="42.66687" lon="-2.24969">
        <ele>520.8</ele>
        <time>2021-07-24 15:51:55</time>
      </trkpt>
      <trkpt lat="42.66687" lon="-2.24969">
        <ele>520.8</ele>
        <time>2021-07-24 15:51:59</time>
      </trkpt>
      <trkpt lat="42.66687" lon="-2.24969">
        <ele>521</ele>
        <time>2021-07-24 15:52:03</time>
      </trkpt>
      <trkpt lat="42.66687" lon="-2.24969">
        <ele>521.2</ele>
        <time>2021-07-24 15:52:07</time>
      </trkpt>
      <trkpt lat="42.66687" lon="-2.24969">
        <ele>521.2</ele>
        <time>2021-07-24 15:52:11</time>
      </trkpt>
      <trkpt lat="42.66687" lon="-2.24969">
        <ele>521.2</ele>
        <time>2021-07-24 15:52:15</time>
      </trkpt>
      <trkpt lat="42.66687" lon="-2.24969">
        <ele>521.4</ele>
        <time>2021-07-24 15:52:19</time>
      </trkpt>
      <trkpt lat="42.66687" lon="-2.24969">
        <ele>521.2</ele>
        <time>2021-07-24 15:52:23</time>
      </trkpt>
      <trkpt lat="42.66687" lon="-2.24969">
        <ele>521</ele>
        <time>2021-07-24 15:52:27</time>
      </trkpt>
      <trkpt lat="42.66687" lon="-2.24969">
        <ele>520.8</ele>
        <time>2021-07-24 15:52:31</time>
      </trkpt>
      <trkpt lat="42.66687" lon="-2.24969">
        <ele>521</ele>
        <time>2021-07-24 15:52:35</time>
      </trkpt>
      <trkpt lat="42.66687" lon="-2.24969">
        <ele>521</ele>
        <time>2021-07-24 15:52:39</time>
      </trkpt>
      <trkpt lat="42.66687" lon="-2.24969">
        <ele>521</ele>
        <time>2021-07-24 15:52:43</time>
      </trkpt>
      <trkpt lat="42.66687" lon="-2.24969">
        <ele>521</ele>
        <time>2021-07-24 15:52:47</time>
      </trkpt>
      <trkpt lat="42.66687" lon="-2.24969">
        <ele>521</ele>
        <time>2021-07-24 15:52:51</time>
      </trkpt>
      <trkpt lat="42.66687" lon="-2.24969">
        <ele>520.8</ele>
        <time>2021-07-24 15:52:55</time>
      </trkpt>
      <trkpt lat="42.66687" lon="-2.24969">
        <ele>521</ele>
        <time>2021-07-24 15:52:59</time>
      </trkpt>
      <trkpt lat="42.66687" lon="-2.24969">
        <ele>521.2</ele>
        <time>2021-07-24 15:53:03</time>
      </trkpt>
      <trkpt lat="42.66687" lon="-2.24969">
        <ele>521</ele>
        <time>2021-07-24 15:53:07</time>
      </trkpt>
      <trkpt lat="42.66687" lon="-2.24969">
        <ele>521.4</ele>
        <time>2021-07-24 15:53:11</time>
      </trkpt>
      <trkpt lat="42.66687" lon="-2.24969">
        <ele>521.2</ele>
        <time>2021-07-24 15:53:15</time>
      </trkpt>
      <trkpt lat="42.66687" lon="-2.24969">
        <ele>521</ele>
        <time>2021-07-24 15:53:19</time>
      </trkpt>
      <trkpt lat="42.66687" lon="-2.24969">
        <ele>521</ele>
        <time>2021-07-24 15:53:23</time>
      </trkpt>
      <trkpt lat="42.66687" lon="-2.24969">
        <ele>521</ele>
        <time>2021-07-24 15:53:27</time>
      </trkpt>
      <trkpt lat="42.66687" lon="-2.24969">
        <ele>520.6</ele>
        <time>2021-07-24 15:53:31</time>
      </trkpt>
      <trkpt lat="42.66687" lon="-2.24969">
        <ele>520.6</ele>
        <time>2021-07-24 15:53:35</time>
      </trkpt>
      <trkpt lat="42.66687" lon="-2.24969">
        <ele>520.4</ele>
        <time>2021-07-24 15:53:39</time>
      </trkpt>
      <trkpt lat="42.66687" lon="-2.24969">
        <ele>520.8</ele>
        <time>2021-07-24 15:53:43</time>
      </trkpt>
      <trkpt lat="42.66687" lon="-2.24969">
        <ele>520.8</ele>
        <time>2021-07-24 15:53:47</time>
      </trkpt>
      <trkpt lat="42.66687" lon="-2.24969">
        <ele>520.6</ele>
        <time>2021-07-24 15:53:51</time>
      </trkpt>
      <trkpt lat="42.66687" lon="-2.24969">
        <ele>520.8</ele>
        <time>2021-07-24 15:53:55</time>
      </trkpt>
      <trkpt lat="42.66687" lon="-2.24969">
        <ele>520.8</ele>
        <time>2021-07-24 15:53:59</time>
      </trkpt>
      <trkpt lat="42.66687" lon="-2.24969">
        <ele>520.8</ele>
        <time>2021-07-24 15:54:03</time>
      </trkpt>
      <trkpt lat="42.66687" lon="-2.24969">
        <ele>520.8</ele>
        <time>2021-07-24 15:54:07</time>
      </trkpt>
      <trkpt lat="42.66687" lon="-2.24969">
        <ele>520.8</ele>
        <time>2021-07-24 15:54:11</time>
      </trkpt>
      <trkpt lat="42.66687" lon="-2.24969">
        <ele>520.8</ele>
        <time>2021-07-24 15:54:15</time>
      </trkpt>
      <trkpt lat="42.66687" lon="-2.24969">
        <ele>520.6</ele>
        <time>2021-07-24 15:54:19</time>
      </trkpt>
      <trkpt lat="42.66687" lon="-2.24969">
        <ele>521</ele>
        <time>2021-07-24 15:54:23</time>
      </trkpt>
      <trkpt lat="42.66687" lon="-2.24969">
        <ele>520.8</ele>
        <time>2021-07-24 15:54:27</time>
      </trkpt>
      <trkpt lat="42.66687" lon="-2.24969">
        <ele>520.8</ele>
        <time>2021-07-24 15:54:31</time>
      </trkpt>
      <trkpt lat="42.66687" lon="-2.24969">
        <ele>521</ele>
        <time>2021-07-24 15:54:35</time>
      </trkpt>
      <trkpt lat="42.66687" lon="-2.24969">
        <ele>520.8</ele>
        <time>2021-07-24 15:54:39</time>
      </trkpt>
      <trkpt lat="42.66687" lon="-2.24969">
        <ele>520.6</ele>
        <time>2021-07-24 15:54:43</time>
      </trkpt>
      <trkpt lat="42.66687" lon="-2.24969">
        <ele>520.6</ele>
        <time>2021-07-24 15:54:47</time>
      </trkpt>
      <trkpt lat="42.66687" lon="-2.24969">
        <ele>520.8</ele>
        <time>2021-07-24 15:54:51</time>
      </trkpt>
      <trkpt lat="42.66687" lon="-2.24969">
        <ele>520.8</ele>
        <time>2021-07-24 15:54:55</time>
      </trkpt>
      <trkpt lat="42.66687" lon="-2.24969">
        <ele>520.8</ele>
        <time>2021-07-24 15:54:59</time>
      </trkpt>
      <trkpt lat="42.66687" lon="-2.24969">
        <ele>520.6</ele>
        <time>2021-07-24 15:55:03</time>
      </trkpt>
      <trkpt lat="42.66687" lon="-2.24969">
        <ele>520.4</ele>
        <time>2021-07-24 15:55:07</time>
      </trkpt>
      <trkpt lat="42.66687" lon="-2.24969">
        <ele>520.6</ele>
        <time>2021-07-24 15:55:11</time>
      </trkpt>
      <trkpt lat="42.66687" lon="-2.24969">
        <ele>520.6</ele>
        <time>2021-07-24 15:55:15</time>
      </trkpt>
      <trkpt lat="42.66687" lon="-2.24969">
        <ele>520.2</ele>
        <time>2021-07-24 15:55:19</time>
      </trkpt>
      <trkpt lat="42.66687" lon="-2.24969">
        <ele>520.4</ele>
        <time>2021-07-24 15:55:23</time>
      </trkpt>
      <trkpt lat="42.66687" lon="-2.24969">
        <ele>520</ele>
        <time>2021-07-24 15:55:27</time>
      </trkpt>
      <trkpt lat="42.66687" lon="-2.24969">
        <ele>520.2</ele>
        <time>2021-07-24 15:55:31</time>
      </trkpt>
      <trkpt lat="42.66687" lon="-2.24969">
        <ele>520</ele>
        <time>2021-07-24 15:55:35</time>
      </trkpt>
      <trkpt lat="42.66687" lon="-2.24969">
        <ele>520.6</ele>
        <time>2021-07-24 15:55:39</time>
      </trkpt>
      <trkpt lat="42.66687" lon="-2.24969">
        <ele>520.6</ele>
        <time>2021-07-24 15:55:43</time>
      </trkpt>
      <trkpt lat="42.66687" lon="-2.24969">
        <ele>520</ele>
        <time>2021-07-24 15:55:47</time>
      </trkpt>
      <trkpt lat="42.66687" lon="-2.24969">
        <ele>520.2</ele>
        <time>2021-07-24 15:55:51</time>
      </trkpt>
      <trkpt lat="42.66687" lon="-2.24969">
        <ele>520.2</ele>
        <time>2021-07-24 15:55:55</time>
      </trkpt>
      <trkpt lat="42.66687" lon="-2.24969">
        <ele>520.2</ele>
        <time>2021-07-24 15:55:59</time>
      </trkpt>
      <trkpt lat="42.66687" lon="-2.24969">
        <ele>520.4</ele>
        <time>2021-07-24 15:56:03</time>
      </trkpt>
      <trkpt lat="42.66687" lon="-2.24969">
        <ele>520.8</ele>
        <time>2021-07-24 15:56:07</time>
      </trkpt>
      <trkpt lat="42.66687" lon="-2.24969">
        <ele>520.8</ele>
        <time>2021-07-24 15:56:11</time>
      </trkpt>
      <trkpt lat="42.66687" lon="-2.24969">
        <ele>520.8</ele>
        <time>2021-07-24 15:56:15</time>
      </trkpt>
      <trkpt lat="42.66687" lon="-2.24969">
        <ele>520.6</ele>
        <time>2021-07-24 15:56:19</time>
      </trkpt>
      <trkpt lat="42.66687" lon="-2.24969">
        <ele>520.8</ele>
        <time>2021-07-24 15:56:23</time>
      </trkpt>
      <trkpt lat="42.66687" lon="-2.24969">
        <ele>520.6</ele>
        <time>2021-07-24 15:56:27</time>
      </trkpt>
      <trkpt lat="42.66687" lon="-2.24969">
        <ele>520.6</ele>
        <time>2021-07-24 15:56:31</time>
      </trkpt>
      <trkpt lat="42.66687" lon="-2.24969">
        <ele>520.8</ele>
        <time>2021-07-24 15:56:35</time>
      </trkpt>
      <trkpt lat="42.66687" lon="-2.24969">
        <ele>520.8</ele>
        <time>2021-07-24 15:56:39</time>
      </trkpt>
      <trkpt lat="42.66687" lon="-2.24969">
        <ele>520.6</ele>
        <time>2021-07-24 15:56:43</time>
      </trkpt>
      <trkpt lat="42.66687" lon="-2.24969">
        <ele>520.8</ele>
        <time>2021-07-24 15:56:47</time>
      </trkpt>
      <trkpt lat="42.66687" lon="-2.24969">
        <ele>521</ele>
        <time>2021-07-24 15:56:51</time>
      </trkpt>
      <trkpt lat="42.66687" lon="-2.24969">
        <ele>521.4</ele>
        <time>2021-07-24 15:56:55</time>
      </trkpt>
      <trkpt lat="42.66687" lon="-2.24969">
        <ele>521.2</ele>
        <time>2021-07-24 15:56:59</time>
      </trkpt>
      <trkpt lat="42.66687" lon="-2.24969">
        <ele>521.4</ele>
        <time>2021-07-24 15:57:03</time>
      </trkpt>
      <trkpt lat="42.66687" lon="-2.24969">
        <ele>520.8</ele>
        <time>2021-07-24 15:57:07</time>
      </trkpt>
      <trkpt lat="42.66687" lon="-2.24969">
        <ele>520.8</ele>
        <time>2021-07-24 15:57:11</time>
      </trkpt>
      <trkpt lat="42.66687" lon="-2.24969">
        <ele>521</ele>
        <time>2021-07-24 15:57:15</time>
      </trkpt>
      <trkpt lat="42.66687" lon="-2.24969">
        <ele>521</ele>
        <time>2021-07-24 15:57:19</time>
      </trkpt>
      <trkpt lat="42.66687" lon="-2.24969">
        <ele>521</ele>
        <time>2021-07-24 15:57:23</time>
      </trkpt>
      <trkpt lat="42.66687" lon="-2.24969">
        <ele>520.8</ele>
        <time>2021-07-24 15:57:27</time>
      </trkpt>
      <trkpt lat="42.66687" lon="-2.24969">
        <ele>521</ele>
        <time>2021-07-24 15:57:31</time>
      </trkpt>
      <trkpt lat="42.66687" lon="-2.24969">
        <ele>521</ele>
        <time>2021-07-24 15:57:35</time>
      </trkpt>
      <trkpt lat="42.66687" lon="-2.24969">
        <ele>521</ele>
        <time>2021-07-24 15:57:39</time>
      </trkpt>
      <trkpt lat="42.66687" lon="-2.24969">
        <ele>520.8</ele>
        <time>2021-07-24 15:57:43</time>
      </trkpt>
      <trkpt lat="42.66687" lon="-2.24969">
        <ele>521.2</ele>
        <time>2021-07-24 15:57:47</time>
      </trkpt>
      <trkpt lat="42.66687" lon="-2.24969">
        <ele>521.4</ele>
        <time>2021-07-24 15:57:51</time>
      </trkpt>
      <trkpt lat="42.66687" lon="-2.24969">
        <ele>521</ele>
        <time>2021-07-24 15:57:55</time>
      </trkpt>
      <trkpt lat="42.66687" lon="-2.24969">
        <ele>521</ele>
        <time>2021-07-24 15:57:59</time>
      </trkpt>
      <trkpt lat="42.66687" lon="-2.24969">
        <ele>521</ele>
        <time>2021-07-24 15:58:03</time>
      </trkpt>
      <trkpt lat="42.66687" lon="-2.24969">
        <ele>521</ele>
        <time>2021-07-24 15:58:07</time>
      </trkpt>
      <trkpt lat="42.66687" lon="-2.24969">
        <ele>521</ele>
        <time>2021-07-24 15:58:11</time>
      </trkpt>
      <trkpt lat="42.66687" lon="-2.24969">
        <ele>521.2</ele>
        <time>2021-07-24 15:58:15</time>
      </trkpt>
      <trkpt lat="42.66687" lon="-2.24969">
        <ele>521.2</ele>
        <time>2021-07-24 15:58:19</time>
      </trkpt>
      <trkpt lat="42.66687" lon="-2.24969">
        <ele>521.2</ele>
        <time>2021-07-24 15:58:23</time>
      </trkpt>
      <trkpt lat="42.66687" lon="-2.24969">
        <ele>520.8</ele>
        <time>2021-07-24 15:58:27</time>
      </trkpt>
      <trkpt lat="42.66687" lon="-2.24969">
        <ele>521</ele>
        <time>2021-07-24 15:58:31</time>
      </trkpt>
      <trkpt lat="42.66687" lon="-2.24969">
        <ele>520.8</ele>
        <time>2021-07-24 15:58:35</time>
      </trkpt>
      <trkpt lat="42.66687" lon="-2.24969">
        <ele>520.6</ele>
        <time>2021-07-24 15:58:39</time>
      </trkpt>
      <trkpt lat="42.66687" lon="-2.24969">
        <ele>520.4</ele>
        <time>2021-07-24 15:58:43</time>
      </trkpt>
      <trkpt lat="42.66687" lon="-2.24969">
        <ele>520.6</ele>
        <time>2021-07-24 15:58:47</time>
      </trkpt>
      <trkpt lat="42.66687" lon="-2.24969">
        <ele>520.6</ele>
        <time>2021-07-24 15:58:51</time>
      </trkpt>
      <trkpt lat="42.66687" lon="-2.24969">
        <ele>520.6</ele>
        <time>2021-07-24 15:58:55</time>
      </trkpt>
      <trkpt lat="42.66687" lon="-2.24969">
        <ele>520.4</ele>
        <time>2021-07-24 15:58:59</time>
      </trkpt>
      <trkpt lat="42.66687" lon="-2.24969">
        <ele>520.2</ele>
        <time>2021-07-24 15:59:03</time>
      </trkpt>
      <trkpt lat="42.66687" lon="-2.24969">
        <ele>520.4</ele>
        <time>2021-07-24 15:59:07</time>
      </trkpt>
      <trkpt lat="42.66687" lon="-2.24969">
        <ele>520.6</ele>
        <time>2021-07-24 15:59:11</time>
      </trkpt>
      <trkpt lat="42.66687" lon="-2.24969">
        <ele>520.4</ele>
        <time>2021-07-24 15:59:15</time>
      </trkpt>
      <trkpt lat="42.66687" lon="-2.24969">
        <ele>520.8</ele>
        <time>2021-07-24 15:59:19</time>
      </trkpt>
      <trkpt lat="42.66687" lon="-2.24969">
        <ele>520.6</ele>
        <time>2021-07-24 15:59:23</time>
      </trkpt>
      <trkpt lat="42.66687" lon="-2.24969">
        <ele>520.8</ele>
        <time>2021-07-24 15:59:27</time>
      </trkpt>
      <trkpt lat="42.66687" lon="-2.24969">
        <ele>521.2</ele>
        <time>2021-07-24 15:59:31</time>
      </trkpt>
      <trkpt lat="42.66687" lon="-2.24969">
        <ele>521.2</ele>
        <time>2021-07-24 15:59:35</time>
      </trkpt>
      <trkpt lat="42.66687" lon="-2.24969">
        <ele>521.2</ele>
        <time>2021-07-24 15:59:39</time>
      </trkpt>
      <trkpt lat="42.66687" lon="-2.24969">
        <ele>521</ele>
        <time>2021-07-24 15:59:43</time>
      </trkpt>
      <trkpt lat="42.66687" lon="-2.24969">
        <ele>521.2</ele>
        <time>2021-07-24 15:59:47</time>
      </trkpt>
      <trkpt lat="42.66687" lon="-2.24969">
        <ele>521.2</ele>
        <time>2021-07-24 15:59:51</time>
      </trkpt>
      <trkpt lat="42.66687" lon="-2.24969">
        <ele>521</ele>
        <time>2021-07-24 15:59:55</time>
      </trkpt>
      <trkpt lat="42.66687" lon="-2.24969">
        <ele>521.2</ele>
        <time>2021-07-24 15:59:59</time>
      </trkpt>
      <trkpt lat="42.66687" lon="-2.24969">
        <ele>520.8</ele>
        <time>2021-07-24 16:00:03</time>
      </trkpt>
      <trkpt lat="42.66687" lon="-2.24969">
        <ele>520.6</ele>
        <time>2021-07-24 16:00:07</time>
      </trkpt>
      <trkpt lat="42.66687" lon="-2.24969">
        <ele>520.4</ele>
        <time>2021-07-24 16:00:11</time>
      </trkpt>
      <trkpt lat="42.66687" lon="-2.24969">
        <ele>520.6</ele>
        <time>2021-07-24 16:00:15</time>
      </trkpt>
      <trkpt lat="42.66687" lon="-2.24969">
        <ele>520.6</ele>
        <time>2021-07-24 16:00:19</time>
      </trkpt>
      <trkpt lat="42.66687" lon="-2.24969">
        <ele>520.6</ele>
        <time>2021-07-24 16:00:23</time>
      </trkpt>
      <trkpt lat="42.66687" lon="-2.24969">
        <ele>520.4</ele>
        <time>2021-07-24 16:00:27</time>
      </trkpt>
      <trkpt lat="42.66687" lon="-2.24969">
        <ele>520.4</ele>
        <time>2021-07-24 16:00:31</time>
      </trkpt>
      <trkpt lat="42.66687" lon="-2.24969">
        <ele>520.6</ele>
        <time>2021-07-24 16:00:35</time>
      </trkpt>
      <trkpt lat="42.66687" lon="-2.24969">
        <ele>520.8</ele>
        <time>2021-07-24 16:00:39</time>
      </trkpt>
      <trkpt lat="42.66687" lon="-2.24969">
        <ele>520.8</ele>
        <time>2021-07-24 16:00:43</time>
      </trkpt>
      <trkpt lat="42.66687" lon="-2.24969">
        <ele>520.6</ele>
        <time>2021-07-24 16:00:47</time>
      </trkpt>
      <trkpt lat="42.66687" lon="-2.24969">
        <ele>520.6</ele>
        <time>2021-07-24 16:00:51</time>
      </trkpt>
      <trkpt lat="42.66687" lon="-2.24969">
        <ele>520.8</ele>
        <time>2021-07-24 16:00:55</time>
      </trkpt>
      <trkpt lat="42.66687" lon="-2.24969">
        <ele>520.8</ele>
        <time>2021-07-24 16:00:59</time>
      </trkpt>
      <trkpt lat="42.66687" lon="-2.24969">
        <ele>521</ele>
        <time>2021-07-24 16:01:03</time>
      </trkpt>
      <trkpt lat="42.66687" lon="-2.24969">
        <ele>520.8</ele>
        <time>2021-07-24 16:01:07</time>
      </trkpt>
      <trkpt lat="42.66687" lon="-2.24969">
        <ele>520.8</ele>
        <time>2021-07-24 16:01:11</time>
      </trkpt>
      <trkpt lat="42.66687" lon="-2.24969">
        <ele>520.6</ele>
        <time>2021-07-24 16:01:15</time>
      </trkpt>
      <trkpt lat="42.66687" lon="-2.24969">
        <ele>520.6</ele>
        <time>2021-07-24 16:01:19</time>
      </trkpt>
      <trkpt lat="42.66687" lon="-2.24969">
        <ele>520.6</ele>
        <time>2021-07-24 16:01:23</time>
      </trkpt>
      <trkpt lat="42.66687" lon="-2.24969">
        <ele>520.4</ele>
        <time>2021-07-24 16:01:27</time>
      </trkpt>
      <trkpt lat="42.66687" lon="-2.24969">
        <ele>520.6</ele>
        <time>2021-07-24 16:01:31</time>
      </trkpt>
      <trkpt lat="42.66687" lon="-2.24969">
        <ele>520.4</ele>
        <time>2021-07-24 16:01:35</time>
      </trkpt>
      <trkpt lat="42.66687" lon="-2.24969">
        <ele>520.6</ele>
        <time>2021-07-24 16:01:39</time>
      </trkpt>
      <trkpt lat="42.66687" lon="-2.24969">
        <ele>520.8</ele>
        <time>2021-07-24 16:01:43</time>
      </trkpt>
      <trkpt lat="42.66687" lon="-2.24969">
        <ele>520.8</ele>
        <time>2021-07-24 16:01:47</time>
      </trkpt>
      <trkpt lat="42.66687" lon="-2.24969">
        <ele>520.4</ele>
        <time>2021-07-24 16:01:51</time>
      </trkpt>
      <trkpt lat="42.66687" lon="-2.24969">
        <ele>520.4</ele>
        <time>2021-07-24 16:01:55</time>
      </trkpt>
      <trkpt lat="42.66687" lon="-2.24969">
        <ele>521</ele>
        <time>2021-07-24 16:01:59</time>
      </trkpt>
      <trkpt lat="42.66687" lon="-2.24969">
        <ele>520.6</ele>
        <time>2021-07-24 16:02:03</time>
      </trkpt>
      <trkpt lat="42.66687" lon="-2.24969">
        <ele>521</ele>
        <time>2021-07-24 16:02:07</time>
      </trkpt>
      <trkpt lat="42.66687" lon="-2.24969">
        <ele>521.2</ele>
        <time>2021-07-24 16:02:11</time>
      </trkpt>
      <trkpt lat="42.66687" lon="-2.24969">
        <ele>520.8</ele>
        <time>2021-07-24 16:02:15</time>
      </trkpt>
      <trkpt lat="42.66687" lon="-2.24969">
        <ele>520.2</ele>
        <time>2021-07-24 16:02:19</time>
      </trkpt>
      <trkpt lat="42.66687" lon="-2.24969">
        <ele>521.4</ele>
        <time>2021-07-24 16:02:23</time>
      </trkpt>
      <trkpt lat="42.66687" lon="-2.24969">
        <ele>521.2</ele>
        <time>2021-07-24 16:02:27</time>
      </trkpt>
      <trkpt lat="42.66687" lon="-2.24969">
        <ele>521.4</ele>
        <time>2021-07-24 16:02:31</time>
      </trkpt>
      <trkpt lat="42.66687" lon="-2.24969">
        <ele>521.4</ele>
        <time>2021-07-24 16:02:35</time>
      </trkpt>
      <trkpt lat="42.66687" lon="-2.24969">
        <ele>521.4</ele>
        <time>2021-07-24 16:02:39</time>
      </trkpt>
      <trkpt lat="42.66687" lon="-2.24969">
        <ele>521.2</ele>
        <time>2021-07-24 16:02:43</time>
      </trkpt>
      <trkpt lat="42.66687" lon="-2.24969">
        <ele>520.8</ele>
        <time>2021-07-24 16:02:47</time>
      </trkpt>
      <trkpt lat="42.66687" lon="-2.24969">
        <ele>520.6</ele>
        <time>2021-07-24 16:02:51</time>
      </trkpt>
      <trkpt lat="42.66687" lon="-2.24969">
        <ele>520.6</ele>
        <time>2021-07-24 16:02:55</time>
      </trkpt>
      <trkpt lat="42.66687" lon="-2.24969">
        <ele>520.6</ele>
        <time>2021-07-24 16:02:59</time>
      </trkpt>
      <trkpt lat="42.66687" lon="-2.24969">
        <ele>521.2</ele>
        <time>2021-07-24 16:03:03</time>
      </trkpt>
      <trkpt lat="42.66687" lon="-2.24969">
        <ele>520.8</ele>
        <time>2021-07-24 16:03:07</time>
      </trkpt>
      <trkpt lat="42.66687" lon="-2.24969">
        <ele>521.2</ele>
        <time>2021-07-24 16:03:11</time>
      </trkpt>
      <trkpt lat="42.66687" lon="-2.24969">
        <ele>521</ele>
        <time>2021-07-24 16:03:15</time>
      </trkpt>
      <trkpt lat="42.66687" lon="-2.24969">
        <ele>520.8</ele>
        <time>2021-07-24 16:03:19</time>
      </trkpt>
      <trkpt lat="42.66687" lon="-2.24969">
        <ele>521</ele>
        <time>2021-07-24 16:03:23</time>
      </trkpt>
      <trkpt lat="42.66687" lon="-2.24969">
        <ele>520.8</ele>
        <time>2021-07-24 16:03:27</time>
      </trkpt>
      <trkpt lat="42.66687" lon="-2.24969">
        <ele>520.8</ele>
        <time>2021-07-24 16:03:31</time>
      </trkpt>
      <trkpt lat="42.66687" lon="-2.24969">
        <ele>521</ele>
        <time>2021-07-24 16:03:35</time>
      </trkpt>
      <trkpt lat="42.66687" lon="-2.24969">
        <ele>520.8</ele>
        <time>2021-07-24 16:03:39</time>
      </trkpt>
      <trkpt lat="42.66687" lon="-2.24969">
        <ele>520.4</ele>
        <time>2021-07-24 16:03:43</time>
      </trkpt>
      <trkpt lat="42.66687" lon="-2.24969">
        <ele>520.8</ele>
        <time>2021-07-24 16:03:47</time>
      </trkpt>
      <trkpt lat="42.66687" lon="-2.24969">
        <ele>521.4</ele>
        <time>2021-07-24 16:03:51</time>
      </trkpt>
      <trkpt lat="42.66687" lon="-2.24969">
        <ele>520.8</ele>
        <time>2021-07-24 16:03:55</time>
      </trkpt>
      <trkpt lat="42.66687" lon="-2.24969">
        <ele>520.8</ele>
        <time>2021-07-24 16:03:59</time>
      </trkpt>
      <trkpt lat="42.66687" lon="-2.24969">
        <ele>521</ele>
        <time>2021-07-24 16:04:03</time>
      </trkpt>
      <trkpt lat="42.66687" lon="-2.24969">
        <ele>520.8</ele>
        <time>2021-07-24 16:04:07</time>
      </trkpt>
      <trkpt lat="42.66687" lon="-2.24969">
        <ele>520.8</ele>
        <time>2021-07-24 16:04:11</time>
      </trkpt>
      <trkpt lat="42.66687" lon="-2.24969">
        <ele>520.6</ele>
        <time>2021-07-24 16:04:15</time>
      </trkpt>
      <trkpt lat="42.66687" lon="-2.24969">
        <ele>520.8</ele>
        <time>2021-07-24 16:04:19</time>
      </trkpt>
      <trkpt lat="42.66687" lon="-2.24969">
        <ele>520.6</ele>
        <time>2021-07-24 16:04:23</time>
      </trkpt>
      <trkpt lat="42.66687" lon="-2.24969">
        <ele>520</ele>
        <time>2021-07-24 16:04:27</time>
      </trkpt>
      <trkpt lat="42.66687" lon="-2.24969">
        <ele>520.2</ele>
        <time>2021-07-24 16:04:31</time>
      </trkpt>
      <trkpt lat="42.66687" lon="-2.24969">
        <ele>520.6</ele>
        <time>2021-07-24 16:04:35</time>
      </trkpt>
      <trkpt lat="42.66687" lon="-2.24969">
        <ele>520.8</ele>
        <time>2021-07-24 16:04:39</time>
      </trkpt>
      <trkpt lat="42.66687" lon="-2.24969">
        <ele>520</ele>
        <time>2021-07-24 16:04:43</time>
      </trkpt>
      <trkpt lat="42.66687" lon="-2.24969">
        <ele>520.8</ele>
        <time>2021-07-24 16:04:47</time>
      </trkpt>
      <trkpt lat="42.66687" lon="-2.24969">
        <ele>520.4</ele>
        <time>2021-07-24 16:04:51</time>
      </trkpt>
      <trkpt lat="42.66687" lon="-2.24969">
        <ele>520.8</ele>
        <time>2021-07-24 16:04:55</time>
      </trkpt>
      <trkpt lat="42.66687" lon="-2.24969">
        <ele>520.4</ele>
        <time>2021-07-24 16:04:59</time>
      </trkpt>
      <trkpt lat="42.66687" lon="-2.24969">
        <ele>520.4</ele>
        <time>2021-07-24 16:05:03</time>
      </trkpt>
      <trkpt lat="42.66687" lon="-2.24969">
        <ele>520.6</ele>
        <time>2021-07-24 16:05:07</time>
      </trkpt>
      <trkpt lat="42.66687" lon="-2.24969">
        <ele>520.2</ele>
        <time>2021-07-24 16:05:11</time>
      </trkpt>
      <trkpt lat="42.66687" lon="-2.24969">
        <ele>520.8</ele>
        <time>2021-07-24 16:05:15</time>
      </trkpt>
      <trkpt lat="42.66687" lon="-2.24969">
        <ele>520.2</ele>
        <time>2021-07-24 16:05:19</time>
      </trkpt>
      <trkpt lat="42.66687" lon="-2.24969">
        <ele>520.4</ele>
        <time>2021-07-24 16:05:23</time>
      </trkpt>
      <trkpt lat="42.66687" lon="-2.24969">
        <ele>520</ele>
        <time>2021-07-24 16:05:27</time>
      </trkpt>
      <trkpt lat="42.66687" lon="-2.24969">
        <ele>520.2</ele>
        <time>2021-07-24 16:05:31</time>
      </trkpt>
      <trkpt lat="42.66687" lon="-2.24969">
        <ele>520.4</ele>
        <time>2021-07-24 16:05:35</time>
      </trkpt>
      <trkpt lat="42.66687" lon="-2.24969">
        <ele>520.4</ele>
        <time>2021-07-24 16:05:39</time>
      </trkpt>
      <trkpt lat="42.66687" lon="-2.24969">
        <ele>520.4</ele>
        <time>2021-07-24 16:05:43</time>
      </trkpt>
      <trkpt lat="42.66687" lon="-2.24969">
        <ele>520.4</ele>
        <time>2021-07-24 16:05:47</time>
      </trkpt>
      <trkpt lat="42.66687" lon="-2.24969">
        <ele>520.2</ele>
        <time>2021-07-24 16:05:51</time>
      </trkpt>
      <trkpt lat="42.66687" lon="-2.24969">
        <ele>520</ele>
        <time>2021-07-24 16:05:55</time>
      </trkpt>
      <trkpt lat="42.66687" lon="-2.24969">
        <ele>520</ele>
        <time>2021-07-24 16:05:59</time>
      </trkpt>
      <trkpt lat="42.66687" lon="-2.24969">
        <ele>520.4</ele>
        <time>2021-07-24 16:06:03</time>
      </trkpt>
      <trkpt lat="42.66687" lon="-2.24969">
        <ele>520.4</ele>
        <time>2021-07-24 16:06:07</time>
      </trkpt>
      <trkpt lat="42.66687" lon="-2.24969">
        <ele>520.2</ele>
        <time>2021-07-24 16:06:11</time>
      </trkpt>
      <trkpt lat="42.66687" lon="-2.24969">
        <ele>520.4</ele>
        <time>2021-07-24 16:06:15</time>
      </trkpt>
      <trkpt lat="42.66687" lon="-2.24969">
        <ele>520.4</ele>
        <time>2021-07-24 16:06:19</time>
      </trkpt>
      <trkpt lat="42.66687" lon="-2.24969">
        <ele>520.6</ele>
        <time>2021-07-24 16:06:23</time>
      </trkpt>
      <trkpt lat="42.66687" lon="-2.24969">
        <ele>520.6</ele>
        <time>2021-07-24 16:06:27</time>
      </trkpt>
      <trkpt lat="42.66687" lon="-2.24969">
        <ele>520.6</ele>
        <time>2021-07-24 16:06:31</time>
      </trkpt>
      <trkpt lat="42.66687" lon="-2.24969">
        <ele>520.8</ele>
        <time>2021-07-24 16:06:35</time>
      </trkpt>
      <trkpt lat="42.66687" lon="-2.24969">
        <ele>520.4</ele>
        <time>2021-07-24 16:06:39</time>
      </trkpt>
      <trkpt lat="42.66687" lon="-2.24969">
        <ele>520.2</ele>
        <time>2021-07-24 16:06:43</time>
      </trkpt>
      <trkpt lat="42.66687" lon="-2.24969">
        <ele>520.6</ele>
        <time>2021-07-24 16:06:47</time>
      </trkpt>
      <trkpt lat="42.66687" lon="-2.24969">
        <ele>520.2</ele>
        <time>2021-07-24 16:06:51</time>
      </trkpt>
      <trkpt lat="42.66687" lon="-2.24969">
        <ele>520.6</ele>
        <time>2021-07-24 16:06:55</time>
      </trkpt>
      <trkpt lat="42.66687" lon="-2.24969">
        <ele>520.6</ele>
        <time>2021-07-24 16:06:59</time>
      </trkpt>
      <trkpt lat="42.66687" lon="-2.24969">
        <ele>520.4</ele>
        <time>2021-07-24 16:07:03</time>
      </trkpt>
      <trkpt lat="42.66687" lon="-2.24969">
        <ele>520</ele>
        <time>2021-07-24 16:07:07</time>
      </trkpt>
      <trkpt lat="42.66687" lon="-2.24969">
        <ele>520.2</ele>
        <time>2021-07-24 16:07:11</time>
      </trkpt>
      <trkpt lat="42.66687" lon="-2.24969">
        <ele>519.6</ele>
        <time>2021-07-24 16:07:15</time>
      </trkpt>
      <trkpt lat="42.66687" lon="-2.24969">
        <ele>519.6</ele>
        <time>2021-07-24 16:07:19</time>
      </trkpt>
      <trkpt lat="42.66687" lon="-2.24969">
        <ele>520.4</ele>
        <time>2021-07-24 16:07:23</time>
      </trkpt>
      <trkpt lat="42.66687" lon="-2.24969">
        <ele>520.8</ele>
        <time>2021-07-24 16:07:27</time>
      </trkpt>
      <trkpt lat="42.66687" lon="-2.24969">
        <ele>520.8</ele>
        <time>2021-07-24 16:07:31</time>
      </trkpt>
      <trkpt lat="42.66687" lon="-2.24969">
        <ele>520.4</ele>
        <time>2021-07-24 16:07:35</time>
      </trkpt>
      <trkpt lat="42.66687" lon="-2.24969">
        <ele>520</ele>
        <time>2021-07-24 16:07:39</time>
      </trkpt>
      <trkpt lat="42.66687" lon="-2.24969">
        <ele>519.8</ele>
        <time>2021-07-24 16:07:43</time>
      </trkpt>
      <trkpt lat="42.66687" lon="-2.24969">
        <ele>520.6</ele>
        <time>2021-07-24 16:07:47</time>
      </trkpt>
      <trkpt lat="42.66687" lon="-2.24969">
        <ele>520.4</ele>
        <time>2021-07-24 16:07:51</time>
      </trkpt>
      <trkpt lat="42.66687" lon="-2.24969">
        <ele>520.4</ele>
        <time>2021-07-24 16:07:55</time>
      </trkpt>
      <trkpt lat="42.66687" lon="-2.24969">
        <ele>520.8</ele>
        <time>2021-07-24 16:07:59</time>
      </trkpt>
      <trkpt lat="42.66687" lon="-2.24969">
        <ele>520.4</ele>
        <time>2021-07-24 16:08:03</time>
      </trkpt>
      <trkpt lat="42.66687" lon="-2.24969">
        <ele>520.6</ele>
        <time>2021-07-24 16:08:07</time>
      </trkpt>
      <trkpt lat="42.66687" lon="-2.24969">
        <ele>520.6</ele>
        <time>2021-07-24 16:08:11</time>
      </trkpt>
      <trkpt lat="42.66687" lon="-2.24969">
        <ele>520.8</ele>
        <time>2021-07-24 16:08:15</time>
      </trkpt>
      <trkpt lat="42.66687" lon="-2.24969">
        <ele>520.8</ele>
        <time>2021-07-24 16:08:19</time>
      </trkpt>
      <trkpt lat="42.66687" lon="-2.24969">
        <ele>520.8</ele>
        <time>2021-07-24 16:08:23</time>
      </trkpt>
      <trkpt lat="42.66687" lon="-2.24969">
        <ele>520.8</ele>
        <time>2021-07-24 16:08:27</time>
      </trkpt>
      <trkpt lat="42.66687" lon="-2.24969">
        <ele>520.8</ele>
        <time>2021-07-24 16:08:31</time>
      </trkpt>
      <trkpt lat="42.66687" lon="-2.24969">
        <ele>520.8</ele>
        <time>2021-07-24 16:08:35</time>
      </trkpt>
      <trkpt lat="42.66687" lon="-2.24969">
        <ele>520.8</ele>
        <time>2021-07-24 16:08:39</time>
      </trkpt>
      <trkpt lat="42.66687" lon="-2.24969">
        <ele>520.8</ele>
        <time>2021-07-24 16:08:43</time>
      </trkpt>
      <trkpt lat="42.66687" lon="-2.24969">
        <ele>520.6</ele>
        <time>2021-07-24 16:08:47</time>
      </trkpt>
      <trkpt lat="42.66687" lon="-2.24969">
        <ele>520.8</ele>
        <time>2021-07-24 16:08:51</time>
      </trkpt>
      <trkpt lat="42.66687" lon="-2.24969">
        <ele>520.6</ele>
        <time>2021-07-24 16:08:55</time>
      </trkpt>
      <trkpt lat="42.66687" lon="-2.24969">
        <ele>520.4</ele>
        <time>2021-07-24 16:08:59</time>
      </trkpt>
      <trkpt lat="42.66687" lon="-2.24969">
        <ele>520.6</ele>
        <time>2021-07-24 16:09:03</time>
      </trkpt>
      <trkpt lat="42.66687" lon="-2.24969">
        <ele>520.8</ele>
        <time>2021-07-24 16:09:07</time>
      </trkpt>
      <trkpt lat="42.66687" lon="-2.24969">
        <ele>520.8</ele>
        <time>2021-07-24 16:09:11</time>
      </trkpt>
      <trkpt lat="42.66687" lon="-2.24969">
        <ele>521.2</ele>
        <time>2021-07-24 16:09:15</time>
      </trkpt>
      <trkpt lat="42.66687" lon="-2.24969">
        <ele>521.2</ele>
        <time>2021-07-24 16:09:19</time>
      </trkpt>
      <trkpt lat="42.66687" lon="-2.24969">
        <ele>521</ele>
        <time>2021-07-24 16:09:23</time>
      </trkpt>
      <trkpt lat="42.66687" lon="-2.24969">
        <ele>521</ele>
        <time>2021-07-24 16:09:27</time>
      </trkpt>
      <trkpt lat="42.66687" lon="-2.24969">
        <ele>521.2</ele>
        <time>2021-07-24 16:09:31</time>
      </trkpt>
      <trkpt lat="42.66687" lon="-2.24969">
        <ele>521</ele>
        <time>2021-07-24 16:09:35</time>
      </trkpt>
      <trkpt lat="42.66687" lon="-2.24969">
        <ele>521.2</ele>
        <time>2021-07-24 16:09:39</time>
      </trkpt>
      <trkpt lat="42.66687" lon="-2.24969">
        <ele>521.2</ele>
        <time>2021-07-24 16:09:43</time>
      </trkpt>
      <trkpt lat="42.66687" lon="-2.24969">
        <ele>521.2</ele>
        <time>2021-07-24 16:09:47</time>
      </trkpt>
      <trkpt lat="42.66687" lon="-2.24969">
        <ele>521</ele>
        <time>2021-07-24 16:09:51</time>
      </trkpt>
      <trkpt lat="42.66687" lon="-2.24969">
        <ele>521.4</ele>
        <time>2021-07-24 16:09:55</time>
      </trkpt>
      <trkpt lat="42.66687" lon="-2.24969">
        <ele>521.4</ele>
        <time>2021-07-24 16:09:59</time>
      </trkpt>
      <trkpt lat="42.66687" lon="-2.24969">
        <ele>521.4</ele>
        <time>2021-07-24 16:10:03</time>
      </trkpt>
      <trkpt lat="42.66687" lon="-2.24969">
        <ele>521.4</ele>
        <time>2021-07-24 16:10:07</time>
      </trkpt>
      <trkpt lat="42.66687" lon="-2.24969">
        <ele>521.6</ele>
        <time>2021-07-24 16:10:11</time>
      </trkpt>
      <trkpt lat="42.66687" lon="-2.24969">
        <ele>521.4</ele>
        <time>2021-07-24 16:10:15</time>
      </trkpt>
      <trkpt lat="42.66687" lon="-2.24969">
        <ele>521.2</ele>
        <time>2021-07-24 16:10:19</time>
      </trkpt>
      <trkpt lat="42.66687" lon="-2.24969">
        <ele>521.4</ele>
        <time>2021-07-24 16:10:23</time>
      </trkpt>
      <trkpt lat="42.66687" lon="-2.24969">
        <ele>521.4</ele>
        <time>2021-07-24 16:10:27</time>
      </trkpt>
      <trkpt lat="42.66687" lon="-2.24969">
        <ele>521.4</ele>
        <time>2021-07-24 16:10:31</time>
      </trkpt>
      <trkpt lat="42.66687" lon="-2.24969">
        <ele>521</ele>
        <time>2021-07-24 16:10:35</time>
      </trkpt>
      <trkpt lat="42.66687" lon="-2.24969">
        <ele>520.8</ele>
        <time>2021-07-24 16:10:39</time>
      </trkpt>
      <trkpt lat="42.66687" lon="-2.24969">
        <ele>521.2</ele>
        <time>2021-07-24 16:10:43</time>
      </trkpt>
      <trkpt lat="42.66687" lon="-2.24969">
        <ele>521.6</ele>
        <time>2021-07-24 16:10:47</time>
      </trkpt>
      <trkpt lat="42.66687" lon="-2.24969">
        <ele>521.6</ele>
        <time>2021-07-24 16:10:51</time>
      </trkpt>
      <trkpt lat="42.66687" lon="-2.24969">
        <ele>521.6</ele>
        <time>2021-07-24 16:10:55</time>
      </trkpt>
      <trkpt lat="42.66687" lon="-2.24969">
        <ele>521.6</ele>
        <time>2021-07-24 16:10:59</time>
      </trkpt>
      <trkpt lat="42.66687" lon="-2.24969">
        <ele>521.6</ele>
        <time>2021-07-24 16:11:03</time>
      </trkpt>
      <trkpt lat="42.66687" lon="-2.24969">
        <ele>521.8</ele>
        <time>2021-07-24 16:11:07</time>
      </trkpt>
      <trkpt lat="42.66687" lon="-2.24969">
        <ele>521.6</ele>
        <time>2021-07-24 16:11:11</time>
      </trkpt>
      <trkpt lat="42.66687" lon="-2.24969">
        <ele>521.4</ele>
        <time>2021-07-24 16:11:15</time>
      </trkpt>
      <trkpt lat="42.66687" lon="-2.24969">
        <ele>521.4</ele>
        <time>2021-07-24 16:11:19</time>
      </trkpt>
      <trkpt lat="42.66687" lon="-2.24969">
        <ele>521.2</ele>
        <time>2021-07-24 16:11:23</time>
      </trkpt>
      <trkpt lat="42.66687" lon="-2.24969">
        <ele>521.2</ele>
        <time>2021-07-24 16:11:27</time>
      </trkpt>
      <trkpt lat="42.66687" lon="-2.24969">
        <ele>521.4</ele>
        <time>2021-07-24 16:11:31</time>
      </trkpt>
      <trkpt lat="42.66687" lon="-2.24969">
        <ele>521.2</ele>
        <time>2021-07-24 16:11:35</time>
      </trkpt>
      <trkpt lat="42.66687" lon="-2.24969">
        <ele>521.4</ele>
        <time>2021-07-24 16:11:39</time>
      </trkpt>
      <trkpt lat="42.66687" lon="-2.24969">
        <ele>521.6</ele>
        <time>2021-07-24 16:11:43</time>
      </trkpt>
      <trkpt lat="42.66687" lon="-2.24969">
        <ele>521.4</ele>
        <time>2021-07-24 16:11:47</time>
      </trkpt>
      <trkpt lat="42.66687" lon="-2.24969">
        <ele>521.8</ele>
        <time>2021-07-24 16:11:51</time>
      </trkpt>
      <trkpt lat="42.66687" lon="-2.24969">
        <ele>521.4</ele>
        <time>2021-07-24 16:11:55</time>
      </trkpt>
      <trkpt lat="42.66687" lon="-2.24969">
        <ele>521.4</ele>
        <time>2021-07-24 16:11:59</time>
      </trkpt>
      <trkpt lat="42.66687" lon="-2.24969">
        <ele>521.8</ele>
        <time>2021-07-24 16:12:03</time>
      </trkpt>
      <trkpt lat="42.66687" lon="-2.24969">
        <ele>521.6</ele>
        <time>2021-07-24 16:12:07</time>
      </trkpt>
      <trkpt lat="42.66687" lon="-2.24969">
        <ele>521.6</ele>
        <time>2021-07-24 16:12:11</time>
      </trkpt>
      <trkpt lat="42.66687" lon="-2.24969">
        <ele>521.2</ele>
        <time>2021-07-24 16:12:15</time>
      </trkpt>
      <trkpt lat="42.66687" lon="-2.24969">
        <ele>521</ele>
        <time>2021-07-24 16:12:19</time>
      </trkpt>
      <trkpt lat="42.66687" lon="-2.24969">
        <ele>521.2</ele>
        <time>2021-07-24 16:12:23</time>
      </trkpt>
      <trkpt lat="42.66687" lon="-2.24969">
        <ele>521.2</ele>
        <time>2021-07-24 16:12:27</time>
      </trkpt>
      <trkpt lat="42.66687" lon="-2.24969">
        <ele>521.2</ele>
        <time>2021-07-24 16:12:31</time>
      </trkpt>
      <trkpt lat="42.66687" lon="-2.24969">
        <ele>521</ele>
        <time>2021-07-24 16:12:35</time>
      </trkpt>
      <trkpt lat="42.66687" lon="-2.24969">
        <ele>521.2</ele>
        <time>2021-07-24 16:12:39</time>
      </trkpt>
      <trkpt lat="42.66687" lon="-2.24969">
        <ele>521</ele>
        <time>2021-07-24 16:12:43</time>
      </trkpt>
      <trkpt lat="42.66687" lon="-2.24969">
        <ele>521</ele>
        <time>2021-07-24 16:12:47</time>
      </trkpt>
      <trkpt lat="42.66687" lon="-2.24969">
        <ele>521</ele>
        <time>2021-07-24 16:12:51</time>
      </trkpt>
      <trkpt lat="42.66687" lon="-2.24969">
        <ele>521</ele>
        <time>2021-07-24 16:12:55</time>
      </trkpt>
      <trkpt lat="42.66687" lon="-2.24969">
        <ele>520.6</ele>
        <time>2021-07-24 16:12:59</time>
      </trkpt>
      <trkpt lat="42.66687" lon="-2.24969">
        <ele>521.2</ele>
        <time>2021-07-24 16:13:03</time>
      </trkpt>
      <trkpt lat="42.66687" lon="-2.24969">
        <ele>521</ele>
        <time>2021-07-24 16:13:07</time>
      </trkpt>
      <trkpt lat="42.66687" lon="-2.24969">
        <ele>520.8</ele>
        <time>2021-07-24 16:13:11</time>
      </trkpt>
      <trkpt lat="42.66687" lon="-2.24969">
        <ele>520.8</ele>
        <time>2021-07-24 16:13:15</time>
      </trkpt>
      <trkpt lat="42.66687" lon="-2.24969">
        <ele>520.8</ele>
        <time>2021-07-24 16:13:19</time>
      </trkpt>
      <trkpt lat="42.66687" lon="-2.24969">
        <ele>520.8</ele>
        <time>2021-07-24 16:13:23</time>
      </trkpt>
      <trkpt lat="42.66687" lon="-2.24969">
        <ele>520.8</ele>
        <time>2021-07-24 16:13:27</time>
      </trkpt>
      <trkpt lat="42.66687" lon="-2.24969">
        <ele>520.8</ele>
        <time>2021-07-24 16:13:31</time>
      </trkpt>
      <trkpt lat="42.66687" lon="-2.24969">
        <ele>521</ele>
        <time>2021-07-24 16:13:35</time>
      </trkpt>
      <trkpt lat="42.66687" lon="-2.24969">
        <ele>521</ele>
        <time>2021-07-24 16:13:39</time>
      </trkpt>
      <trkpt lat="42.66687" lon="-2.24969">
        <ele>521.2</ele>
        <time>2021-07-24 16:13:43</time>
      </trkpt>
      <trkpt lat="42.66687" lon="-2.24969">
        <ele>521</ele>
        <time>2021-07-24 16:13:47</time>
      </trkpt>
      <trkpt lat="42.66687" lon="-2.24969">
        <ele>520.8</ele>
        <time>2021-07-24 16:13:51</time>
      </trkpt>
      <trkpt lat="42.66687" lon="-2.24969">
        <ele>520.8</ele>
        <time>2021-07-24 16:13:55</time>
      </trkpt>
      <trkpt lat="42.66687" lon="-2.24969">
        <ele>520.8</ele>
        <time>2021-07-24 16:13:59</time>
      </trkpt>
      <trkpt lat="42.66687" lon="-2.24969">
        <ele>520.8</ele>
        <time>2021-07-24 16:14:03</time>
      </trkpt>
      <trkpt lat="42.66687" lon="-2.24969">
        <ele>520.8</ele>
        <time>2021-07-24 16:14:07</time>
      </trkpt>
      <trkpt lat="42.66687" lon="-2.24969">
        <ele>521</ele>
        <time>2021-07-24 16:14:11</time>
      </trkpt>
      <trkpt lat="42.66687" lon="-2.24969">
        <ele>521.2</ele>
        <time>2021-07-24 16:14:15</time>
      </trkpt>
      <trkpt lat="42.66687" lon="-2.24969">
        <ele>521.2</ele>
        <time>2021-07-24 16:14:19</time>
      </trkpt>
      <trkpt lat="42.66687" lon="-2.24969">
        <ele>521</ele>
        <time>2021-07-24 16:14:23</time>
      </trkpt>
      <trkpt lat="42.66687" lon="-2.24969">
        <ele>521</ele>
        <time>2021-07-24 16:14:27</time>
      </trkpt>
      <trkpt lat="42.66687" lon="-2.24969">
        <ele>521.2</ele>
        <time>2021-07-24 16:14:31</time>
      </trkpt>
      <trkpt lat="42.66687" lon="-2.24969">
        <ele>521.4</ele>
        <time>2021-07-24 16:14:35</time>
      </trkpt>
      <trkpt lat="42.66687" lon="-2.24969">
        <ele>521.2</ele>
        <time>2021-07-24 16:14:39</time>
      </trkpt>
      <trkpt lat="42.66687" lon="-2.24969">
        <ele>521.2</ele>
        <time>2021-07-24 16:14:43</time>
      </trkpt>
      <trkpt lat="42.66687" lon="-2.24969">
        <ele>521</ele>
        <time>2021-07-24 16:14:47</time>
      </trkpt>
      <trkpt lat="42.66687" lon="-2.24969">
        <ele>521</ele>
        <time>2021-07-24 16:14:51</time>
      </trkpt>
      <trkpt lat="42.66687" lon="-2.24969">
        <ele>521</ele>
        <time>2021-07-24 16:14:55</time>
      </trkpt>
      <trkpt lat="42.66687" lon="-2.24969">
        <ele>520.8</ele>
        <time>2021-07-24 16:14:59</time>
      </trkpt>
      <trkpt lat="42.66687" lon="-2.24969">
        <ele>521</ele>
        <time>2021-07-24 16:15:03</time>
      </trkpt>
      <trkpt lat="42.66687" lon="-2.24969">
        <ele>521.2</ele>
        <time>2021-07-24 16:15:07</time>
      </trkpt>
      <trkpt lat="42.66687" lon="-2.24969">
        <ele>521.4</ele>
        <time>2021-07-24 16:15:11</time>
      </trkpt>
      <trkpt lat="42.66687" lon="-2.24969">
        <ele>521.2</ele>
        <time>2021-07-24 16:15:15</time>
      </trkpt>
      <trkpt lat="42.66687" lon="-2.24969">
        <ele>521.4</ele>
        <time>2021-07-24 16:15:19</time>
      </trkpt>
      <trkpt lat="42.66687" lon="-2.24969">
        <ele>521.2</ele>
        <time>2021-07-24 16:15:23</time>
      </trkpt>
      <trkpt lat="42.66687" lon="-2.24969">
        <ele>521.4</ele>
        <time>2021-07-24 16:15:27</time>
      </trkpt>
      <trkpt lat="42.66687" lon="-2.24969">
        <ele>521.6</ele>
        <time>2021-07-24 16:15:31</time>
      </trkpt>
      <trkpt lat="42.66687" lon="-2.24969">
        <ele>521.6</ele>
        <time>2021-07-24 16:15:35</time>
      </trkpt>
      <trkpt lat="42.66687" lon="-2.24969">
        <ele>521.8</ele>
        <time>2021-07-24 16:15:39</time>
      </trkpt>
      <trkpt lat="42.66687" lon="-2.24969">
        <ele>521.4</ele>
        <time>2021-07-24 16:15:43</time>
      </trkpt>
      <trkpt lat="42.66687" lon="-2.24969">
        <ele>521.6</ele>
        <time>2021-07-24 16:15:47</time>
      </trkpt>
      <trkpt lat="42.66687" lon="-2.24969">
        <ele>521.6</ele>
        <time>2021-07-24 16:15:51</time>
      </trkpt>
      <trkpt lat="42.66687" lon="-2.24969">
        <ele>521.6</ele>
        <time>2021-07-24 16:15:55</time>
      </trkpt>
      <trkpt lat="42.66687" lon="-2.24969">
        <ele>521.4</ele>
        <time>2021-07-24 16:15:59</time>
      </trkpt>
      <trkpt lat="42.66687" lon="-2.24969">
        <ele>521.4</ele>
        <time>2021-07-24 16:16:03</time>
      </trkpt>
      <trkpt lat="42.66687" lon="-2.24969">
        <ele>521.4</ele>
        <time>2021-07-24 16:16:07</time>
      </trkpt>
      <trkpt lat="42.66687" lon="-2.24969">
        <ele>521.4</ele>
        <time>2021-07-24 16:16:11</time>
      </trkpt>
      <trkpt lat="42.66687" lon="-2.24969">
        <ele>521.2</ele>
        <time>2021-07-24 16:16:15</time>
      </trkpt>
      <trkpt lat="42.66687" lon="-2.24969">
        <ele>521.2</ele>
        <time>2021-07-24 16:16:19</time>
      </trkpt>
      <trkpt lat="42.66687" lon="-2.24969">
        <ele>521.4</ele>
        <time>2021-07-24 16:16:23</time>
      </trkpt>
      <trkpt lat="42.66687" lon="-2.24969">
        <ele>521.8</ele>
        <time>2021-07-24 16:16:27</time>
      </trkpt>
      <trkpt lat="42.66687" lon="-2.24969">
        <ele>521.6</ele>
        <time>2021-07-24 16:16:31</time>
      </trkpt>
      <trkpt lat="42.66687" lon="-2.24969">
        <ele>521.6</ele>
        <time>2021-07-24 16:16:35</time>
      </trkpt>
      <trkpt lat="42.66687" lon="-2.24969">
        <ele>521.8</ele>
        <time>2021-07-24 16:16:39</time>
      </trkpt>
      <trkpt lat="42.66687" lon="-2.24969">
        <ele>521.4</ele>
        <time>2021-07-24 16:16:43</time>
      </trkpt>
      <trkpt lat="42.66687" lon="-2.24969">
        <ele>521.4</ele>
        <time>2021-07-24 16:16:47</time>
      </trkpt>
      <trkpt lat="42.66687" lon="-2.24969">
        <ele>521.2</ele>
        <time>2021-07-24 16:16:51</time>
      </trkpt>
      <trkpt lat="42.66687" lon="-2.24969">
        <ele>520.8</ele>
        <time>2021-07-24 16:16:55</time>
      </trkpt>
      <trkpt lat="42.66687" lon="-2.24969">
        <ele>521.2</ele>
        <time>2021-07-24 16:16:59</time>
      </trkpt>
      <trkpt lat="42.66687" lon="-2.24969">
        <ele>520.8</ele>
        <time>2021-07-24 16:17:03</time>
      </trkpt>
      <trkpt lat="42.66687" lon="-2.24969">
        <ele>520.8</ele>
        <time>2021-07-24 16:17:07</time>
      </trkpt>
      <trkpt lat="42.66687" lon="-2.24969">
        <ele>520.8</ele>
        <time>2021-07-24 16:17:11</time>
      </trkpt>
      <trkpt lat="42.66687" lon="-2.24969">
        <ele>521</ele>
        <time>2021-07-24 16:17:15</time>
      </trkpt>
      <trkpt lat="42.66687" lon="-2.24969">
        <ele>521.2</ele>
        <time>2021-07-24 16:17:19</time>
      </trkpt>
      <trkpt lat="42.66687" lon="-2.24969">
        <ele>521.2</ele>
        <time>2021-07-24 16:17:23</time>
      </trkpt>
      <trkpt lat="42.66687" lon="-2.24969">
        <ele>521</ele>
        <time>2021-07-24 16:17:27</time>
      </trkpt>
      <trkpt lat="42.66687" lon="-2.24969">
        <ele>520.8</ele>
        <time>2021-07-24 16:17:31</time>
      </trkpt>
      <trkpt lat="42.66687" lon="-2.24969">
        <ele>521</ele>
        <time>2021-07-24 16:17:35</time>
      </trkpt>
      <trkpt lat="42.66687" lon="-2.24969">
        <ele>521</ele>
        <time>2021-07-24 16:17:39</time>
      </trkpt>
      <trkpt lat="42.66685" lon="-2.24965">
        <ele>520.8</ele>
        <time>2021-07-24 16:17:43</time>
      </trkpt>
      <trkpt lat="42.66681" lon="-2.24963">
        <ele>520.6</ele>
        <time>2021-07-24 16:17:47</time>
      </trkpt>
      <trkpt lat="42.66675" lon="-2.24961">
        <ele>520.4</ele>
        <time>2021-07-24 16:17:51</time>
      </trkpt>
      <trkpt lat="42.66667" lon="-2.2496">
        <ele>520</ele>
        <time>2021-07-24 16:17:55</time>
      </trkpt>
      <trkpt lat="42.66659" lon="-2.24961">
        <ele>520.6</ele>
        <time>2021-07-24 16:17:59</time>
      </trkpt>
      <trkpt lat="42.66652" lon="-2.24961">
        <ele>520.6</ele>
        <time>2021-07-24 16:18:03</time>
      </trkpt>
      <trkpt lat="42.66645" lon="-2.24958">
        <ele>520.6</ele>
        <time>2021-07-24 16:18:07</time>
      </trkpt>
      <trkpt lat="42.66638" lon="-2.24956">
        <ele>520.4</ele>
        <time>2021-07-24 16:18:11</time>
      </trkpt>
      <trkpt lat="42.66635" lon="-2.24947">
        <ele>520</ele>
        <time>2021-07-24 16:18:15</time>
      </trkpt>
      <trkpt lat="42.66633" lon="-2.24935">
        <ele>520</ele>
        <time>2021-07-24 16:18:19</time>
      </trkpt>
      <trkpt lat="42.6663" lon="-2.24924">
        <ele>519.2</ele>
        <time>2021-07-24 16:18:23</time>
      </trkpt>
      <trkpt lat="42.66627" lon="-2.2491">
        <ele>519</ele>
        <time>2021-07-24 16:18:27</time>
      </trkpt>
      <trkpt lat="42.66624" lon="-2.24895">
        <ele>519</ele>
        <time>2021-07-24 16:18:31</time>
      </trkpt>
      <trkpt lat="42.6662" lon="-2.24881">
        <ele>518.6</ele>
        <time>2021-07-24 16:18:35</time>
      </trkpt>
      <trkpt lat="42.66617" lon="-2.24867">
        <ele>518.2</ele>
        <time>2021-07-24 16:18:39</time>
      </trkpt>
      <trkpt lat="42.66614" lon="-2.24855">
        <ele>518</ele>
        <time>2021-07-24 16:18:43</time>
      </trkpt>
      <trkpt lat="42.6661" lon="-2.24846">
        <ele>517.6</ele>
        <time>2021-07-24 16:18:47</time>
      </trkpt>
      <trkpt lat="42.66608" lon="-2.24836">
        <ele>517.4</ele>
        <time>2021-07-24 16:18:51</time>
      </trkpt>
      <trkpt lat="42.66605" lon="-2.24824">
        <ele>517.2</ele>
        <time>2021-07-24 16:18:55</time>
      </trkpt>
      <trkpt lat="42.66601" lon="-2.24815">
        <ele>517.2</ele>
        <time>2021-07-24 16:18:59</time>
      </trkpt>
      <trkpt lat="42.66594" lon="-2.24806">
        <ele>516.6</ele>
        <time>2021-07-24 16:19:03</time>
      </trkpt>
      <trkpt lat="42.66589" lon="-2.24791">
        <ele>516.6</ele>
        <time>2021-07-24 16:19:07</time>
      </trkpt>
      <trkpt lat="42.66585" lon="-2.24774">
        <ele>516.4</ele>
        <time>2021-07-24 16:19:11</time>
      </trkpt>
      <trkpt lat="42.66583" lon="-2.24761">
        <ele>516.6</ele>
        <time>2021-07-24 16:19:15</time>
      </trkpt>
      <trkpt lat="42.66589" lon="-2.24751">
        <ele>516</ele>
        <time>2021-07-24 16:19:19</time>
      </trkpt>
      <trkpt lat="42.666" lon="-2.24745">
        <ele>515.8</ele>
        <time>2021-07-24 16:19:23</time>
      </trkpt>
      <trkpt lat="42.66611" lon="-2.24741">
        <ele>516.2</ele>
        <time>2021-07-24 16:19:27</time>
      </trkpt>
      <trkpt lat="42.66622" lon="-2.24737">
        <ele>515.8</ele>
        <time>2021-07-24 16:19:31</time>
      </trkpt>
      <trkpt lat="42.66634" lon="-2.24736">
        <ele>515.8</ele>
        <time>2021-07-24 16:19:35</time>
      </trkpt>
      <trkpt lat="42.66647" lon="-2.24736">
        <ele>515</ele>
        <time>2021-07-24 16:19:39</time>
      </trkpt>
      <trkpt lat="42.66662" lon="-2.24733">
        <ele>515</ele>
        <time>2021-07-24 16:19:43</time>
      </trkpt>
      <trkpt lat="42.66676" lon="-2.24722">
        <ele>513.8</ele>
        <time>2021-07-24 16:19:47</time>
      </trkpt>
      <trkpt lat="42.66687" lon="-2.24711">
        <ele>514.6</ele>
        <time>2021-07-24 16:19:51</time>
      </trkpt>
      <trkpt lat="42.66699" lon="-2.24702">
        <ele>514.6</ele>
        <time>2021-07-24 16:19:55</time>
      </trkpt>
      <trkpt lat="42.66705" lon="-2.24696">
        <ele>515.2</ele>
        <time>2021-07-24 16:19:59</time>
      </trkpt>
      <trkpt lat="42.66705" lon="-2.24695">
        <ele>515.2</ele>
        <time>2021-07-24 16:20:03</time>
      </trkpt>
      <trkpt lat="42.66699" lon="-2.24689">
        <ele>515.2</ele>
        <time>2021-07-24 16:20:07</time>
      </trkpt>
      <trkpt lat="42.66693" lon="-2.24679">
        <ele>515.6</ele>
        <time>2021-07-24 16:20:11</time>
      </trkpt>
      <trkpt lat="42.66685" lon="-2.24666">
        <ele>515.2</ele>
        <time>2021-07-24 16:20:15</time>
      </trkpt>
      <trkpt lat="42.66677" lon="-2.24651">
        <ele>515.4</ele>
        <time>2021-07-24 16:20:19</time>
      </trkpt>
      <trkpt lat="42.66668" lon="-2.24636">
        <ele>515.4</ele>
        <time>2021-07-24 16:20:23</time>
      </trkpt>
      <trkpt lat="42.66659" lon="-2.2462">
        <ele>515.4</ele>
        <time>2021-07-24 16:20:27</time>
      </trkpt>
      <trkpt lat="42.6665" lon="-2.24604">
        <ele>515.8</ele>
        <time>2021-07-24 16:20:31</time>
      </trkpt>
      <trkpt lat="42.6664" lon="-2.24588">
        <ele>514.8</ele>
        <time>2021-07-24 16:20:35</time>
      </trkpt>
      <trkpt lat="42.66632" lon="-2.24572">
        <ele>514.8</ele>
        <time>2021-07-24 16:20:39</time>
      </trkpt>
      <trkpt lat="42.66624" lon="-2.24557">
        <ele>515.2</ele>
        <time>2021-07-24 16:20:43</time>
      </trkpt>
      <trkpt lat="42.66618" lon="-2.24539">
        <ele>515</ele>
        <time>2021-07-24 16:20:47</time>
      </trkpt>
      <trkpt lat="42.66624" lon="-2.24519">
        <ele>514.2</ele>
        <time>2021-07-24 16:20:51</time>
      </trkpt>
      <trkpt lat="42.66636" lon="-2.245">
        <ele>513</ele>
        <time>2021-07-24 16:20:55</time>
      </trkpt>
      <trkpt lat="42.66649" lon="-2.24482">
        <ele>512.6</ele>
        <time>2021-07-24 16:20:59</time>
      </trkpt>
      <trkpt lat="42.66661" lon="-2.24466">
        <ele>512.6</ele>
        <time>2021-07-24 16:21:03</time>
      </trkpt>
      <trkpt lat="42.66673" lon="-2.24451">
        <ele>511.8</ele>
        <time>2021-07-24 16:21:07</time>
      </trkpt>
      <trkpt lat="42.66684" lon="-2.24435">
        <ele>508.8</ele>
        <time>2021-07-24 16:21:11</time>
      </trkpt>
      <trkpt lat="42.66695" lon="-2.2442">
        <ele>508.8</ele>
        <time>2021-07-24 16:21:15</time>
      </trkpt>
      <trkpt lat="42.66703" lon="-2.24405">
        <ele>510.8</ele>
        <time>2021-07-24 16:21:19</time>
      </trkpt>
      <trkpt lat="42.66705" lon="-2.24387">
        <ele>511.6</ele>
        <time>2021-07-24 16:21:23</time>
      </trkpt>
      <trkpt lat="42.66701" lon="-2.2437">
        <ele>511.6</ele>
        <time>2021-07-24 16:21:27</time>
      </trkpt>
      <trkpt lat="42.66696" lon="-2.2435">
        <ele>511</ele>
        <time>2021-07-24 16:21:31</time>
      </trkpt>
      <trkpt lat="42.66692" lon="-2.24326">
        <ele>510</ele>
        <time>2021-07-24 16:21:35</time>
      </trkpt>
      <trkpt lat="42.66686" lon="-2.24302">
        <ele>509.2</ele>
        <time>2021-07-24 16:21:39</time>
      </trkpt>
      <trkpt lat="42.66681" lon="-2.24277">
        <ele>509</ele>
        <time>2021-07-24 16:21:43</time>
      </trkpt>
      <trkpt lat="42.66675" lon="-2.24252">
        <ele>508.4</ele>
        <time>2021-07-24 16:21:47</time>
      </trkpt>
      <trkpt lat="42.66669" lon="-2.24227">
        <ele>508</ele>
        <time>2021-07-24 16:21:51</time>
      </trkpt>
      <trkpt lat="42.66663" lon="-2.24203">
        <ele>508.6</ele>
        <time>2021-07-24 16:21:55</time>
      </trkpt>
      <trkpt lat="42.66658" lon="-2.2418">
        <ele>508.4</ele>
        <time>2021-07-24 16:21:59</time>
      </trkpt>
      <trkpt lat="42.66652" lon="-2.24157">
        <ele>507</ele>
        <time>2021-07-24 16:22:03</time>
      </trkpt>
      <trkpt lat="42.66648" lon="-2.24135">
        <ele>506.8</ele>
        <time>2021-07-24 16:22:07</time>
      </trkpt>
      <trkpt lat="42.66643" lon="-2.24115">
        <ele>507</ele>
        <time>2021-07-24 16:22:11</time>
      </trkpt>
      <trkpt lat="42.66639" lon="-2.24095">
        <ele>506.6</ele>
        <time>2021-07-24 16:22:15</time>
      </trkpt>
      <trkpt lat="42.66634" lon="-2.24074">
        <ele>505.6</ele>
        <time>2021-07-24 16:22:19</time>
      </trkpt>
      <trkpt lat="42.66629" lon="-2.24053">
        <ele>506</ele>
        <time>2021-07-24 16:22:23</time>
      </trkpt>
      <trkpt lat="42.66624" lon="-2.24031">
        <ele>505.6</ele>
        <time>2021-07-24 16:22:27</time>
      </trkpt>
      <trkpt lat="42.66619" lon="-2.24008">
        <ele>505</ele>
        <time>2021-07-24 16:22:31</time>
      </trkpt>
      <trkpt lat="42.66614" lon="-2.23984">
        <ele>505</ele>
        <time>2021-07-24 16:22:35</time>
      </trkpt>
      <trkpt lat="42.66608" lon="-2.23959">
        <ele>504.2</ele>
        <time>2021-07-24 16:22:39</time>
      </trkpt>
      <trkpt lat="42.66602" lon="-2.23932">
        <ele>504.2</ele>
        <time>2021-07-24 16:22:43</time>
      </trkpt>
      <trkpt lat="42.66595" lon="-2.23905">
        <ele>503.2</ele>
        <time>2021-07-24 16:22:47</time>
      </trkpt>
      <trkpt lat="42.66589" lon="-2.23877">
        <ele>502.8</ele>
        <time>2021-07-24 16:22:51</time>
      </trkpt>
      <trkpt lat="42.66582" lon="-2.23848">
        <ele>501.2</ele>
        <time>2021-07-24 16:22:55</time>
      </trkpt>
      <trkpt lat="42.66576" lon="-2.23821">
        <ele>501.6</ele>
        <time>2021-07-24 16:22:59</time>
      </trkpt>
      <trkpt lat="42.66571" lon="-2.238">
        <ele>502.8</ele>
        <time>2021-07-24 16:23:03</time>
      </trkpt>
      <trkpt lat="42.66567" lon="-2.23783">
        <ele>504.2</ele>
        <time>2021-07-24 16:23:07</time>
      </trkpt>
      <trkpt lat="42.66562" lon="-2.2377">
        <ele>504.4</ele>
        <time>2021-07-24 16:23:11</time>
      </trkpt>
      <trkpt lat="42.66557" lon="-2.23759">
        <ele>504.8</ele>
        <time>2021-07-24 16:23:15</time>
      </trkpt>
      <trkpt lat="42.66558" lon="-2.23747">
        <ele>503.6</ele>
        <time>2021-07-24 16:23:19</time>
      </trkpt>
      <trkpt lat="42.66565" lon="-2.2374">
        <ele>503.4</ele>
        <time>2021-07-24 16:23:23</time>
      </trkpt>
      <trkpt lat="42.66565" lon="-2.2374">
        <ele>504.6</ele>
        <time>2021-07-24 16:23:27</time>
      </trkpt>
      <trkpt lat="42.66565" lon="-2.2374">
        <ele>504</ele>
        <time>2021-07-24 16:23:31</time>
      </trkpt>
      <trkpt lat="42.66565" lon="-2.2374">
        <ele>504.2</ele>
        <time>2021-07-24 16:23:35</time>
      </trkpt>
      <trkpt lat="42.66565" lon="-2.2374">
        <ele>504</ele>
        <time>2021-07-24 16:23:39</time>
      </trkpt>
      <trkpt lat="42.66565" lon="-2.2374">
        <ele>504.2</ele>
        <time>2021-07-24 16:23:43</time>
      </trkpt>
      <trkpt lat="42.66565" lon="-2.2374">
        <ele>504.4</ele>
        <time>2021-07-24 16:23:47</time>
      </trkpt>
      <trkpt lat="42.66565" lon="-2.2374">
        <ele>504.2</ele>
        <time>2021-07-24 16:23:51</time>
      </trkpt>
      <trkpt lat="42.66565" lon="-2.2374">
        <ele>504.2</ele>
        <time>2021-07-24 16:23:55</time>
      </trkpt>
      <trkpt lat="42.66565" lon="-2.2374">
        <ele>504.4</ele>
        <time>2021-07-24 16:23:59</time>
      </trkpt>
      <trkpt lat="42.66565" lon="-2.2374">
        <ele>504.8</ele>
        <time>2021-07-24 16:24:03</time>
      </trkpt>
      <trkpt lat="42.66565" lon="-2.2374">
        <ele>504.2</ele>
        <time>2021-07-24 16:24:07</time>
      </trkpt>
      <trkpt lat="42.66565" lon="-2.2374">
        <ele>504.4</ele>
        <time>2021-07-24 16:24:11</time>
      </trkpt>
      <trkpt lat="42.66565" lon="-2.2374">
        <ele>504.4</ele>
        <time>2021-07-24 16:24:15</time>
      </trkpt>
      <trkpt lat="42.66565" lon="-2.2374">
        <ele>504.4</ele>
        <time>2021-07-24 16:24:19</time>
      </trkpt>
      <trkpt lat="42.66565" lon="-2.2374">
        <ele>504.6</ele>
        <time>2021-07-24 16:24:23</time>
      </trkpt>
      <trkpt lat="42.66565" lon="-2.2374">
        <ele>504.2</ele>
        <time>2021-07-24 16:24:27</time>
      </trkpt>
      <trkpt lat="42.66565" lon="-2.2374">
        <ele>504.4</ele>
        <time>2021-07-24 16:24:31</time>
      </trkpt>
      <trkpt lat="42.66565" lon="-2.2374">
        <ele>504.2</ele>
        <time>2021-07-24 16:24:35</time>
      </trkpt>
      <trkpt lat="42.66565" lon="-2.2374">
        <ele>504.2</ele>
        <time>2021-07-24 16:24:39</time>
      </trkpt>
      <trkpt lat="42.66565" lon="-2.2374">
        <ele>504</ele>
        <time>2021-07-24 16:24:43</time>
      </trkpt>
      <trkpt lat="42.66565" lon="-2.2374">
        <ele>504.6</ele>
        <time>2021-07-24 16:24:47</time>
      </trkpt>
      <trkpt lat="42.66565" lon="-2.2374">
        <ele>504.6</ele>
        <time>2021-07-24 16:24:51</time>
      </trkpt>
      <trkpt lat="42.66565" lon="-2.2374">
        <ele>505.2</ele>
        <time>2021-07-24 16:24:55</time>
      </trkpt>
      <trkpt lat="42.66567" lon="-2.23742">
        <ele>504.6</ele>
        <time>2021-07-24 16:24:59</time>
      </trkpt>
      <trkpt lat="42.66562" lon="-2.23746">
        <ele>504.6</ele>
        <time>2021-07-24 16:25:03</time>
      </trkpt>
      <trkpt lat="42.66555" lon="-2.23751">
        <ele>504.8</ele>
        <time>2021-07-24 16:25:07</time>
      </trkpt>
      <trkpt lat="42.66549" lon="-2.23753">
        <ele>505</ele>
        <time>2021-07-24 16:25:11</time>
      </trkpt>
      <trkpt lat="42.66542" lon="-2.23745">
        <ele>505</ele>
        <time>2021-07-24 16:25:15</time>
      </trkpt>
      <trkpt lat="42.66534" lon="-2.23736">
        <ele>505</ele>
        <time>2021-07-24 16:25:19</time>
      </trkpt>
      <trkpt lat="42.66524" lon="-2.23726">
        <ele>504.8</ele>
        <time>2021-07-24 16:25:23</time>
      </trkpt>
      <trkpt lat="42.66516" lon="-2.23717">
        <ele>504.8</ele>
        <time>2021-07-24 16:25:27</time>
      </trkpt>
      <trkpt lat="42.66507" lon="-2.23707">
        <ele>505</ele>
        <time>2021-07-24 16:25:31</time>
      </trkpt>
      <trkpt lat="42.66499" lon="-2.23696">
        <ele>505</ele>
        <time>2021-07-24 16:25:35</time>
      </trkpt>
      <trkpt lat="42.6649" lon="-2.23686">
        <ele>505.6</ele>
        <time>2021-07-24 16:25:39</time>
      </trkpt>
      <trkpt lat="42.66481" lon="-2.23676">
        <ele>505.2</ele>
        <time>2021-07-24 16:25:43</time>
      </trkpt>
      <trkpt lat="42.66474" lon="-2.23667">
        <ele>505.2</ele>
        <time>2021-07-24 16:25:47</time>
      </trkpt>
      <trkpt lat="42.66466" lon="-2.23661">
        <ele>505.6</ele>
        <time>2021-07-24 16:25:51</time>
      </trkpt>
      <trkpt lat="42.66459" lon="-2.23654">
        <ele>505.6</ele>
        <time>2021-07-24 16:25:55</time>
      </trkpt>
      <trkpt lat="42.66459" lon="-2.23654">
        <ele>505.6</ele>
        <time>2021-07-24 16:25:59</time>
      </trkpt>
      <trkpt lat="42.66457" lon="-2.23653">
        <ele>505.6</ele>
        <time>2021-07-24 16:26:03</time>
      </trkpt>
      <trkpt lat="42.66457" lon="-2.23653">
        <ele>505.4</ele>
        <time>2021-07-24 16:26:07</time>
      </trkpt>
      <trkpt lat="42.66457" lon="-2.23653">
        <ele>505.8</ele>
        <time>2021-07-24 16:26:11</time>
      </trkpt>
      <trkpt lat="42.66457" lon="-2.23653">
        <ele>505.8</ele>
        <time>2021-07-24 16:26:15</time>
      </trkpt>
      <trkpt lat="42.66457" lon="-2.23653">
        <ele>506.2</ele>
        <time>2021-07-24 16:26:19</time>
      </trkpt>
      <trkpt lat="42.66457" lon="-2.23653">
        <ele>505.8</ele>
        <time>2021-07-24 16:26:23</time>
      </trkpt>
      <trkpt lat="42.66457" lon="-2.23653">
        <ele>505.6</ele>
        <time>2021-07-24 16:26:27</time>
      </trkpt>
      <trkpt lat="42.66457" lon="-2.23653">
        <ele>506.2</ele>
        <time>2021-07-24 16:26:31</time>
      </trkpt>
      <trkpt lat="42.66457" lon="-2.23653">
        <ele>505.6</ele>
        <time>2021-07-24 16:26:35</time>
      </trkpt>
      <trkpt lat="42.66457" lon="-2.23653">
        <ele>505.6</ele>
        <time>2021-07-24 16:26:39</time>
      </trkpt>
      <trkpt lat="42.66457" lon="-2.23653">
        <ele>505.6</ele>
        <time>2021-07-24 16:26:43</time>
      </trkpt>
      <trkpt lat="42.66457" lon="-2.23653">
        <ele>505.4</ele>
        <time>2021-07-24 16:26:47</time>
      </trkpt>
      <trkpt lat="42.66457" lon="-2.23653">
        <ele>505.4</ele>
        <time>2021-07-24 16:26:51</time>
      </trkpt>
      <trkpt lat="42.66457" lon="-2.23653">
        <ele>505.4</ele>
        <time>2021-07-24 16:26:55</time>
      </trkpt>
      <trkpt lat="42.66457" lon="-2.23653">
        <ele>505.2</ele>
        <time>2021-07-24 16:26:59</time>
      </trkpt>
      <trkpt lat="42.66457" lon="-2.23653">
        <ele>505.4</ele>
        <time>2021-07-24 16:27:03</time>
      </trkpt>
      <trkpt lat="42.66457" lon="-2.23653">
        <ele>505.2</ele>
        <time>2021-07-24 16:27:07</time>
      </trkpt>
      <trkpt lat="42.66457" lon="-2.23653">
        <ele>504.8</ele>
        <time>2021-07-24 16:27:11</time>
      </trkpt>
      <trkpt lat="42.66457" lon="-2.23653">
        <ele>505</ele>
        <time>2021-07-24 16:27:15</time>
      </trkpt>
      <trkpt lat="42.66457" lon="-2.23653">
        <ele>504.8</ele>
        <time>2021-07-24 16:27:19</time>
      </trkpt>
      <trkpt lat="42.66457" lon="-2.23653">
        <ele>504.8</ele>
        <time>2021-07-24 16:27:23</time>
      </trkpt>
      <trkpt lat="42.66457" lon="-2.23653">
        <ele>505</ele>
        <time>2021-07-24 16:27:27</time>
      </trkpt>
      <trkpt lat="42.66457" lon="-2.23653">
        <ele>505</ele>
        <time>2021-07-24 16:27:31</time>
      </trkpt>
      <trkpt lat="42.66457" lon="-2.23653">
        <ele>505.2</ele>
        <time>2021-07-24 16:27:35</time>
      </trkpt>
      <trkpt lat="42.66457" lon="-2.23653">
        <ele>504.8</ele>
        <time>2021-07-24 16:27:39</time>
      </trkpt>
      <trkpt lat="42.66457" lon="-2.23653">
        <ele>504.8</ele>
        <time>2021-07-24 16:27:43</time>
      </trkpt>
      <trkpt lat="42.66457" lon="-2.23653">
        <ele>504.8</ele>
        <time>2021-07-24 16:27:47</time>
      </trkpt>
      <trkpt lat="42.66457" lon="-2.23653">
        <ele>504.8</ele>
        <time>2021-07-24 16:27:51</time>
      </trkpt>
      <trkpt lat="42.66457" lon="-2.23653">
        <ele>504.8</ele>
        <time>2021-07-24 16:27:55</time>
      </trkpt>
      <trkpt lat="42.66457" lon="-2.23653">
        <ele>505</ele>
        <time>2021-07-24 16:27:59</time>
      </trkpt>
      <trkpt lat="42.66457" lon="-2.23653">
        <ele>505.4</ele>
        <time>2021-07-24 16:28:03</time>
      </trkpt>
      <trkpt lat="42.66457" lon="-2.23653">
        <ele>505.6</ele>
        <time>2021-07-24 16:28:07</time>
      </trkpt>
      <trkpt lat="42.66457" lon="-2.23653">
        <ele>505.2</ele>
        <time>2021-07-24 16:28:11</time>
      </trkpt>
      <trkpt lat="42.66456" lon="-2.23652">
        <ele>505.2</ele>
        <time>2021-07-24 16:28:15</time>
      </trkpt>
      <trkpt lat="42.66455" lon="-2.2365">
        <ele>504.2</ele>
        <time>2021-07-24 16:28:19</time>
      </trkpt>
      <trkpt lat="42.66451" lon="-2.23643">
        <ele>504.8</ele>
        <time>2021-07-24 16:28:23</time>
      </trkpt>
      <trkpt lat="42.66447" lon="-2.23631">
        <ele>504.2</ele>
        <time>2021-07-24 16:28:27</time>
      </trkpt>
      <trkpt lat="42.66447" lon="-2.23615">
        <ele>503.6</ele>
        <time>2021-07-24 16:28:31</time>
      </trkpt>
      <trkpt lat="42.66446" lon="-2.23597">
        <ele>503.6</ele>
        <time>2021-07-24 16:28:35</time>
      </trkpt>
      <trkpt lat="42.66446" lon="-2.23578">
        <ele>502.6</ele>
        <time>2021-07-24 16:28:39</time>
      </trkpt>
      <trkpt lat="42.66446" lon="-2.23558">
        <ele>502.4</ele>
        <time>2021-07-24 16:28:43</time>
      </trkpt>
      <trkpt lat="42.66447" lon="-2.23537">
        <ele>502.6</ele>
        <time>2021-07-24 16:28:47</time>
      </trkpt>
      <trkpt lat="42.66449" lon="-2.23516">
        <ele>502.4</ele>
        <time>2021-07-24 16:28:51</time>
      </trkpt>
      <trkpt lat="42.66452" lon="-2.23495">
        <ele>502.8</ele>
        <time>2021-07-24 16:28:55</time>
      </trkpt>
      <trkpt lat="42.66456" lon="-2.23475">
        <ele>502.2</ele>
        <time>2021-07-24 16:28:59</time>
      </trkpt>
      <trkpt lat="42.66463" lon="-2.23452">
        <ele>501.2</ele>
        <time>2021-07-24 16:29:03</time>
      </trkpt>
      <trkpt lat="42.66472" lon="-2.2343">
        <ele>501.6</ele>
        <time>2021-07-24 16:29:07</time>
      </trkpt>
      <trkpt lat="42.66483" lon="-2.23409">
        <ele>500.2</ele>
        <time>2021-07-24 16:29:11</time>
      </trkpt>
      <trkpt lat="42.66495" lon="-2.23389">
        <ele>500.4</ele>
        <time>2021-07-24 16:29:15</time>
      </trkpt>
      <trkpt lat="42.66508" lon="-2.23371">
        <ele>500.2</ele>
        <time>2021-07-24 16:29:19</time>
      </trkpt>
      <trkpt lat="42.66523" lon="-2.23355">
        <ele>499.6</ele>
        <time>2021-07-24 16:29:23</time>
      </trkpt>
      <trkpt lat="42.66536" lon="-2.23342">
        <ele>500.4</ele>
        <time>2021-07-24 16:29:27</time>
      </trkpt>
      <trkpt lat="42.6655" lon="-2.2333">
        <ele>499.6</ele>
        <time>2021-07-24 16:29:31</time>
      </trkpt>
      <trkpt lat="42.66566" lon="-2.23319">
        <ele>498.8</ele>
        <time>2021-07-24 16:29:35</time>
      </trkpt>
      <trkpt lat="42.66584" lon="-2.23311">
        <ele>497.4</ele>
        <time>2021-07-24 16:29:39</time>
      </trkpt>
      <trkpt lat="42.66603" lon="-2.23303">
        <ele>496.4</ele>
        <time>2021-07-24 16:29:43</time>
      </trkpt>
      <trkpt lat="42.66622" lon="-2.23296">
        <ele>496.4</ele>
        <time>2021-07-24 16:29:47</time>
      </trkpt>
      <trkpt lat="42.66641" lon="-2.23288">
        <ele>496.4</ele>
        <time>2021-07-24 16:29:51</time>
      </trkpt>
      <trkpt lat="42.66661" lon="-2.2328">
        <ele>496.6</ele>
        <time>2021-07-24 16:29:55</time>
      </trkpt>
      <trkpt lat="42.66682" lon="-2.23271">
        <ele>496</ele>
        <time>2021-07-24 16:29:59</time>
      </trkpt>
      <trkpt lat="42.66702" lon="-2.23263">
        <ele>496</ele>
        <time>2021-07-24 16:30:03</time>
      </trkpt>
      <trkpt lat="42.66723" lon="-2.23254">
        <ele>495.4</ele>
        <time>2021-07-24 16:30:07</time>
      </trkpt>
      <trkpt lat="42.66743" lon="-2.23245">
        <ele>495</ele>
        <time>2021-07-24 16:30:11</time>
      </trkpt>
      <trkpt lat="42.66764" lon="-2.23237">
        <ele>495.4</ele>
        <time>2021-07-24 16:30:15</time>
      </trkpt>
      <trkpt lat="42.66785" lon="-2.23228">
        <ele>495</ele>
        <time>2021-07-24 16:30:19</time>
      </trkpt>
      <trkpt lat="42.66806" lon="-2.2322">
        <ele>495</ele>
        <time>2021-07-24 16:30:23</time>
      </trkpt>
      <trkpt lat="42.66825" lon="-2.23212">
        <ele>494</ele>
        <time>2021-07-24 16:30:27</time>
      </trkpt>
      <trkpt lat="42.66844" lon="-2.23204">
        <ele>494.4</ele>
        <time>2021-07-24 16:30:31</time>
      </trkpt>
      <trkpt lat="42.66863" lon="-2.23195">
        <ele>493.2</ele>
        <time>2021-07-24 16:30:35</time>
      </trkpt>
      <trkpt lat="42.66881" lon="-2.23183">
        <ele>492.6</ele>
        <time>2021-07-24 16:30:39</time>
      </trkpt>
      <trkpt lat="42.66898" lon="-2.23169">
        <ele>492.6</ele>
        <time>2021-07-24 16:30:43</time>
      </trkpt>
      <trkpt lat="42.66914" lon="-2.23151">
        <ele>492.2</ele>
        <time>2021-07-24 16:30:47</time>
      </trkpt>
      <trkpt lat="42.66931" lon="-2.23131">
        <ele>491.2</ele>
        <time>2021-07-24 16:30:51</time>
      </trkpt>
      <trkpt lat="42.66946" lon="-2.2311">
        <ele>491</ele>
        <time>2021-07-24 16:30:55</time>
      </trkpt>
      <trkpt lat="42.66958" lon="-2.2309">
        <ele>491.4</ele>
        <time>2021-07-24 16:30:59</time>
      </trkpt>
      <trkpt lat="42.66969" lon="-2.23068">
        <ele>489.8</ele>
        <time>2021-07-24 16:31:03</time>
      </trkpt>
      <trkpt lat="42.66978" lon="-2.23045">
        <ele>490.4</ele>
        <time>2021-07-24 16:31:07</time>
      </trkpt>
      <trkpt lat="42.66985" lon="-2.23021">
        <ele>489.8</ele>
        <time>2021-07-24 16:31:11</time>
      </trkpt>
      <trkpt lat="42.6699" lon="-2.22996">
        <ele>489.8</ele>
        <time>2021-07-24 16:31:15</time>
      </trkpt>
      <trkpt lat="42.66995" lon="-2.2297">
        <ele>489.8</ele>
        <time>2021-07-24 16:31:19</time>
      </trkpt>
      <trkpt lat="42.66998" lon="-2.22943">
        <ele>488.6</ele>
        <time>2021-07-24 16:31:23</time>
      </trkpt>
      <trkpt lat="42.66999" lon="-2.22918">
        <ele>488</ele>
        <time>2021-07-24 16:31:27</time>
      </trkpt>
      <trkpt lat="42.66999" lon="-2.22893">
        <ele>489.2</ele>
        <time>2021-07-24 16:31:31</time>
      </trkpt>
      <trkpt lat="42.67" lon="-2.22869">
        <ele>488.8</ele>
        <time>2021-07-24 16:31:35</time>
      </trkpt>
      <trkpt lat="42.67001" lon="-2.22842">
        <ele>488.2</ele>
        <time>2021-07-24 16:31:39</time>
      </trkpt>
      <trkpt lat="42.67001" lon="-2.22813">
        <ele>487.4</ele>
        <time>2021-07-24 16:31:43</time>
      </trkpt>
      <trkpt lat="42.67001" lon="-2.22784">
        <ele>487.2</ele>
        <time>2021-07-24 16:31:47</time>
      </trkpt>
      <trkpt lat="42.67002" lon="-2.22756">
        <ele>487</ele>
        <time>2021-07-24 16:31:51</time>
      </trkpt>
      <trkpt lat="42.67001" lon="-2.22727">
        <ele>487.2</ele>
        <time>2021-07-24 16:31:55</time>
      </trkpt>
      <trkpt lat="42.67002" lon="-2.22698">
        <ele>486.6</ele>
        <time>2021-07-24 16:31:59</time>
      </trkpt>
      <trkpt lat="42.67002" lon="-2.2267">
        <ele>485.2</ele>
        <time>2021-07-24 16:32:03</time>
      </trkpt>
      <trkpt lat="42.67003" lon="-2.2264">
        <ele>484.8</ele>
        <time>2021-07-24 16:32:07</time>
      </trkpt>
      <trkpt lat="42.67003" lon="-2.22611">
        <ele>484.8</ele>
        <time>2021-07-24 16:32:11</time>
      </trkpt>
      <trkpt lat="42.67003" lon="-2.22581">
        <ele>485.2</ele>
        <time>2021-07-24 16:32:15</time>
      </trkpt>
      <trkpt lat="42.67003" lon="-2.22552">
        <ele>484.6</ele>
        <time>2021-07-24 16:32:19</time>
      </trkpt>
      <trkpt lat="42.67004" lon="-2.22523">
        <ele>484.2</ele>
        <time>2021-07-24 16:32:23</time>
      </trkpt>
      <trkpt lat="42.67004" lon="-2.22496">
        <ele>485</ele>
        <time>2021-07-24 16:32:27</time>
      </trkpt>
      <trkpt lat="42.67005" lon="-2.22467">
        <ele>483.2</ele>
        <time>2021-07-24 16:32:31</time>
      </trkpt>
      <trkpt lat="42.67005" lon="-2.22439">
        <ele>483.4</ele>
        <time>2021-07-24 16:32:35</time>
      </trkpt>
      <trkpt lat="42.67005" lon="-2.22411">
        <ele>482.4</ele>
        <time>2021-07-24 16:32:39</time>
      </trkpt>
      <trkpt lat="42.67006" lon="-2.22381">
        <ele>482.4</ele>
        <time>2021-07-24 16:32:43</time>
      </trkpt>
      <trkpt lat="42.67006" lon="-2.22352">
        <ele>483</ele>
        <time>2021-07-24 16:32:47</time>
      </trkpt>
      <trkpt lat="42.67005" lon="-2.22324">
        <ele>482</ele>
        <time>2021-07-24 16:32:51</time>
      </trkpt>
      <trkpt lat="42.67005" lon="-2.22297">
        <ele>482</ele>
        <time>2021-07-24 16:32:55</time>
      </trkpt>
      <trkpt lat="42.67005" lon="-2.2227">
        <ele>481.2</ele>
        <time>2021-07-24 16:32:59</time>
      </trkpt>
      <trkpt lat="42.67005" lon="-2.22243">
        <ele>480.8</ele>
        <time>2021-07-24 16:33:03</time>
      </trkpt>
      <trkpt lat="42.67006" lon="-2.22217">
        <ele>481</ele>
        <time>2021-07-24 16:33:07</time>
      </trkpt>
      <trkpt lat="42.67007" lon="-2.22188">
        <ele>481</ele>
        <time>2021-07-24 16:33:11</time>
      </trkpt>
      <trkpt lat="42.67004" lon="-2.22175">
        <ele>481</ele>
        <time>2021-07-24 16:33:15</time>
      </trkpt>
      <trkpt lat="42.67002" lon="-2.22174">
        <ele>481</ele>
        <time>2021-07-24 16:33:19</time>
      </trkpt>
      <trkpt lat="42.67002" lon="-2.22174">
        <ele>480.2</ele>
        <time>2021-07-24 16:33:23</time>
      </trkpt>
      <trkpt lat="42.67011" lon="-2.22099">
        <ele>479.6</ele>
        <time>2021-07-24 16:33:27</time>
      </trkpt>
      <trkpt lat="42.67005" lon="-2.22073">
        <ele>479.6</ele>
        <time>2021-07-24 16:33:31</time>
      </trkpt>
      <trkpt lat="42.67001" lon="-2.2205">
        <ele>480.2</ele>
        <time>2021-07-24 16:33:35</time>
      </trkpt>
      <trkpt lat="42.66995" lon="-2.2203">
        <ele>478.8</ele>
        <time>2021-07-24 16:33:39</time>
      </trkpt>
      <trkpt lat="42.66986" lon="-2.22008">
        <ele>478.2</ele>
        <time>2021-07-24 16:33:43</time>
      </trkpt>
      <trkpt lat="42.66975" lon="-2.21986">
        <ele>478.2</ele>
        <time>2021-07-24 16:33:47</time>
      </trkpt>
      <trkpt lat="42.66963" lon="-2.21965">
        <ele>478.4</ele>
        <time>2021-07-24 16:33:51</time>
      </trkpt>
      <trkpt lat="42.66949" lon="-2.21946">
        <ele>477.8</ele>
        <time>2021-07-24 16:33:55</time>
      </trkpt>
      <trkpt lat="42.66934" lon="-2.21928">
        <ele>477.6</ele>
        <time>2021-07-24 16:33:59</time>
      </trkpt>
      <trkpt lat="42.66919" lon="-2.2191">
        <ele>478.2</ele>
        <time>2021-07-24 16:34:03</time>
      </trkpt>
      <trkpt lat="42.66903" lon="-2.21892">
        <ele>477.8</ele>
        <time>2021-07-24 16:34:07</time>
      </trkpt>
      <trkpt lat="42.66888" lon="-2.21875">
        <ele>477.6</ele>
        <time>2021-07-24 16:34:11</time>
      </trkpt>
      <trkpt lat="42.66873" lon="-2.21856">
        <ele>477.4</ele>
        <time>2021-07-24 16:34:15</time>
      </trkpt>
      <trkpt lat="42.66857" lon="-2.21837">
        <ele>477</ele>
        <time>2021-07-24 16:34:19</time>
      </trkpt>
      <trkpt lat="42.66842" lon="-2.2182">
        <ele>477.4</ele>
        <time>2021-07-24 16:34:23</time>
      </trkpt>
      <trkpt lat="42.66827" lon="-2.21801">
        <ele>477.6</ele>
        <time>2021-07-24 16:34:27</time>
      </trkpt>
      <trkpt lat="42.66812" lon="-2.21783">
        <ele>477.8</ele>
        <time>2021-07-24 16:34:31</time>
      </trkpt>
      <trkpt lat="42.66797" lon="-2.21765">
        <ele>476.8</ele>
        <time>2021-07-24 16:34:35</time>
      </trkpt>
      <trkpt lat="42.66782" lon="-2.21747">
        <ele>477</ele>
        <time>2021-07-24 16:34:39</time>
      </trkpt>
      <trkpt lat="42.66767" lon="-2.21729">
        <ele>476.8</ele>
        <time>2021-07-24 16:34:43</time>
      </trkpt>
      <trkpt lat="42.66754" lon="-2.21714">
        <ele>477.6</ele>
        <time>2021-07-24 16:34:47</time>
      </trkpt>
      <trkpt lat="42.66742" lon="-2.217">
        <ele>477.8</ele>
        <time>2021-07-24 16:34:51</time>
      </trkpt>
      <trkpt lat="42.6673" lon="-2.21685">
        <ele>477.6</ele>
        <time>2021-07-24 16:34:55</time>
      </trkpt>
      <trkpt lat="42.66717" lon="-2.2167">
        <ele>477.8</ele>
        <time>2021-07-24 16:34:59</time>
      </trkpt>
      <trkpt lat="42.66704" lon="-2.21655">
        <ele>477.6</ele>
        <time>2021-07-24 16:35:03</time>
      </trkpt>
      <trkpt lat="42.66691" lon="-2.21641">
        <ele>477.6</ele>
        <time>2021-07-24 16:35:07</time>
      </trkpt>
      <trkpt lat="42.66679" lon="-2.21626">
        <ele>478</ele>
        <time>2021-07-24 16:35:11</time>
      </trkpt>
      <trkpt lat="42.66667" lon="-2.21611">
        <ele>478</ele>
        <time>2021-07-24 16:35:15</time>
      </trkpt>
      <trkpt lat="42.66654" lon="-2.21595">
        <ele>477.8</ele>
        <time>2021-07-24 16:35:19</time>
      </trkpt>
      <trkpt lat="42.66643" lon="-2.21577">
        <ele>477.8</ele>
        <time>2021-07-24 16:35:23</time>
      </trkpt>
      <trkpt lat="42.66631" lon="-2.21557">
        <ele>478</ele>
        <time>2021-07-24 16:35:27</time>
      </trkpt>
      <trkpt lat="42.6662" lon="-2.21538">
        <ele>477.8</ele>
        <time>2021-07-24 16:35:31</time>
      </trkpt>
      <trkpt lat="42.66608" lon="-2.21517">
        <ele>477.6</ele>
        <time>2021-07-24 16:35:35</time>
      </trkpt>
      <trkpt lat="42.66596" lon="-2.21497">
        <ele>477.4</ele>
        <time>2021-07-24 16:35:39</time>
      </trkpt>
      <trkpt lat="42.66586" lon="-2.21478">
        <ele>477.4</ele>
        <time>2021-07-24 16:35:43</time>
      </trkpt>
      <trkpt lat="42.66575" lon="-2.21458">
        <ele>477.6</ele>
        <time>2021-07-24 16:35:47</time>
      </trkpt>
      <trkpt lat="42.66564" lon="-2.21439">
        <ele>477.8</ele>
        <time>2021-07-24 16:35:51</time>
      </trkpt>
      <trkpt lat="42.66552" lon="-2.21422">
        <ele>477.4</ele>
        <time>2021-07-24 16:35:55</time>
      </trkpt>
      <trkpt lat="42.66541" lon="-2.21404">
        <ele>477.6</ele>
        <time>2021-07-24 16:35:59</time>
      </trkpt>
      <trkpt lat="42.66531" lon="-2.21384">
        <ele>477</ele>
        <time>2021-07-24 16:36:03</time>
      </trkpt>
      <trkpt lat="42.66521" lon="-2.21365">
        <ele>477.4</ele>
        <time>2021-07-24 16:36:07</time>
      </trkpt>
      <trkpt lat="42.6651" lon="-2.21348">
        <ele>477.4</ele>
        <time>2021-07-24 16:36:11</time>
      </trkpt>
      <trkpt lat="42.665" lon="-2.2133">
        <ele>477.2</ele>
        <time>2021-07-24 16:36:15</time>
      </trkpt>
      <trkpt lat="42.66489" lon="-2.21311">
        <ele>477.6</ele>
        <time>2021-07-24 16:36:19</time>
      </trkpt>
      <trkpt lat="42.66479" lon="-2.21292">
        <ele>478</ele>
        <time>2021-07-24 16:36:23</time>
      </trkpt>
      <trkpt lat="42.66468" lon="-2.21274">
        <ele>477.8</ele>
        <time>2021-07-24 16:36:27</time>
      </trkpt>
      <trkpt lat="42.66457" lon="-2.21256">
        <ele>478.4</ele>
        <time>2021-07-24 16:36:31</time>
      </trkpt>
      <trkpt lat="42.66447" lon="-2.21238">
        <ele>478</ele>
        <time>2021-07-24 16:36:35</time>
      </trkpt>
      <trkpt lat="42.66438" lon="-2.21221">
        <ele>478</ele>
        <time>2021-07-24 16:36:39</time>
      </trkpt>
      <trkpt lat="42.66428" lon="-2.21202">
        <ele>478.2</ele>
        <time>2021-07-24 16:36:43</time>
      </trkpt>
      <trkpt lat="42.66419" lon="-2.21184">
        <ele>478.2</ele>
        <time>2021-07-24 16:36:47</time>
      </trkpt>
      <trkpt lat="42.66411" lon="-2.21165">
        <ele>478.4</ele>
        <time>2021-07-24 16:36:51</time>
      </trkpt>
      <trkpt lat="42.66404" lon="-2.21143">
        <ele>478.4</ele>
        <time>2021-07-24 16:36:55</time>
      </trkpt>
      <trkpt lat="42.66399" lon="-2.2112">
        <ele>478.2</ele>
        <time>2021-07-24 16:36:59</time>
      </trkpt>
      <trkpt lat="42.66395" lon="-2.21096">
        <ele>477.6</ele>
        <time>2021-07-24 16:37:03</time>
      </trkpt>
      <trkpt lat="42.66392" lon="-2.21073">
        <ele>477.6</ele>
        <time>2021-07-24 16:37:07</time>
      </trkpt>
      <trkpt lat="42.66389" lon="-2.2105">
        <ele>477.6</ele>
        <time>2021-07-24 16:37:11</time>
      </trkpt>
      <trkpt lat="42.66385" lon="-2.21026">
        <ele>477.6</ele>
        <time>2021-07-24 16:37:15</time>
      </trkpt>
      <trkpt lat="42.66382" lon="-2.21">
        <ele>477.6</ele>
        <time>2021-07-24 16:37:19</time>
      </trkpt>
      <trkpt lat="42.66379" lon="-2.20978">
        <ele>477.6</ele>
        <time>2021-07-24 16:37:23</time>
      </trkpt>
      <trkpt lat="42.66374" lon="-2.20955">
        <ele>477.4</ele>
        <time>2021-07-24 16:37:27</time>
      </trkpt>
      <trkpt lat="42.66369" lon="-2.20933">
        <ele>477.4</ele>
        <time>2021-07-24 16:37:31</time>
      </trkpt>
      <trkpt lat="42.66363" lon="-2.20912">
        <ele>477.4</ele>
        <time>2021-07-24 16:37:35</time>
      </trkpt>
      <trkpt lat="42.66357" lon="-2.20894">
        <ele>478</ele>
        <time>2021-07-24 16:37:39</time>
      </trkpt>
      <trkpt lat="42.66352" lon="-2.20878">
        <ele>477.6</ele>
        <time>2021-07-24 16:37:43</time>
      </trkpt>
      <trkpt lat="42.66343" lon="-2.20861">
        <ele>477.2</ele>
        <time>2021-07-24 16:37:47</time>
      </trkpt>
      <trkpt lat="42.66336" lon="-2.20843">
        <ele>477.8</ele>
        <time>2021-07-24 16:37:51</time>
      </trkpt>
      <trkpt lat="42.66328" lon="-2.20824">
        <ele>478</ele>
        <time>2021-07-24 16:37:55</time>
      </trkpt>
      <trkpt lat="42.66319" lon="-2.20803">
        <ele>478</ele>
        <time>2021-07-24 16:37:59</time>
      </trkpt>
      <trkpt lat="42.6631" lon="-2.20782">
        <ele>478.4</ele>
        <time>2021-07-24 16:38:03</time>
      </trkpt>
      <trkpt lat="42.66301" lon="-2.20761">
        <ele>478.6</ele>
        <time>2021-07-24 16:38:07</time>
      </trkpt>
      <trkpt lat="42.66292" lon="-2.20739">
        <ele>478.4</ele>
        <time>2021-07-24 16:38:11</time>
      </trkpt>
      <trkpt lat="42.66284" lon="-2.20718">
        <ele>478.2</ele>
        <time>2021-07-24 16:38:15</time>
      </trkpt>
      <trkpt lat="42.66276" lon="-2.20697">
        <ele>477.8</ele>
        <time>2021-07-24 16:38:19</time>
      </trkpt>
      <trkpt lat="42.66267" lon="-2.20675">
        <ele>477.8</ele>
        <time>2021-07-24 16:38:23</time>
      </trkpt>
      <trkpt lat="42.66258" lon="-2.20654">
        <ele>478</ele>
        <time>2021-07-24 16:38:27</time>
      </trkpt>
      <trkpt lat="42.66249" lon="-2.20632">
        <ele>477.8</ele>
        <time>2021-07-24 16:38:31</time>
      </trkpt>
      <trkpt lat="42.66241" lon="-2.2061">
        <ele>478.6</ele>
        <time>2021-07-24 16:38:35</time>
      </trkpt>
      <trkpt lat="42.66235" lon="-2.20587">
        <ele>478.4</ele>
        <time>2021-07-24 16:38:39</time>
      </trkpt>
      <trkpt lat="42.66231" lon="-2.20563">
        <ele>478.4</ele>
        <time>2021-07-24 16:38:43</time>
      </trkpt>
      <trkpt lat="42.66228" lon="-2.2054">
        <ele>479</ele>
        <time>2021-07-24 16:38:47</time>
      </trkpt>
      <trkpt lat="42.66229" lon="-2.20514">
        <ele>477.8</ele>
        <time>2021-07-24 16:38:51</time>
      </trkpt>
      <trkpt lat="42.6623" lon="-2.20489">
        <ele>478.8</ele>
        <time>2021-07-24 16:38:55</time>
      </trkpt>
      <trkpt lat="42.66234" lon="-2.20465">
        <ele>478.8</ele>
        <time>2021-07-24 16:38:59</time>
      </trkpt>
      <trkpt lat="42.6624" lon="-2.20442">
        <ele>478.4</ele>
        <time>2021-07-24 16:39:03</time>
      </trkpt>
      <trkpt lat="42.66246" lon="-2.2042">
        <ele>478.4</ele>
        <time>2021-07-24 16:39:07</time>
      </trkpt>
      <trkpt lat="42.66254" lon="-2.20399">
        <ele>479.2</ele>
        <time>2021-07-24 16:39:11</time>
      </trkpt>
      <trkpt lat="42.66263" lon="-2.2038">
        <ele>479.2</ele>
        <time>2021-07-24 16:39:15</time>
      </trkpt>
      <trkpt lat="42.66274" lon="-2.20361">
        <ele>478.6</ele>
        <time>2021-07-24 16:39:19</time>
      </trkpt>
      <trkpt lat="42.66284" lon="-2.20341">
        <ele>478.2</ele>
        <time>2021-07-24 16:39:23</time>
      </trkpt>
      <trkpt lat="42.66294" lon="-2.20321">
        <ele>477.2</ele>
        <time>2021-07-24 16:39:27</time>
      </trkpt>
      <trkpt lat="42.66305" lon="-2.20301">
        <ele>478</ele>
        <time>2021-07-24 16:39:31</time>
      </trkpt>
      <trkpt lat="42.66315" lon="-2.20281">
        <ele>477.6</ele>
        <time>2021-07-24 16:39:35</time>
      </trkpt>
      <trkpt lat="42.66326" lon="-2.20261">
        <ele>478.2</ele>
        <time>2021-07-24 16:39:39</time>
      </trkpt>
      <trkpt lat="42.66335" lon="-2.20242">
        <ele>478.2</ele>
        <time>2021-07-24 16:39:43</time>
      </trkpt>
      <trkpt lat="42.66344" lon="-2.20222">
        <ele>478</ele>
        <time>2021-07-24 16:39:47</time>
      </trkpt>
      <trkpt lat="42.66352" lon="-2.20203">
        <ele>478.6</ele>
        <time>2021-07-24 16:39:51</time>
      </trkpt>
      <trkpt lat="42.66359" lon="-2.20182">
        <ele>478.4</ele>
        <time>2021-07-24 16:39:55</time>
      </trkpt>
      <trkpt lat="42.66364" lon="-2.20159">
        <ele>478.4</ele>
        <time>2021-07-24 16:39:59</time>
      </trkpt>
      <trkpt lat="42.66369" lon="-2.20136">
        <ele>478</ele>
        <time>2021-07-24 16:40:03</time>
      </trkpt>
      <trkpt lat="42.6637" lon="-2.20112">
        <ele>478.2</ele>
        <time>2021-07-24 16:40:07</time>
      </trkpt>
      <trkpt lat="42.66371" lon="-2.20089">
        <ele>478</ele>
        <time>2021-07-24 16:40:11</time>
      </trkpt>
      <trkpt lat="42.66371" lon="-2.20066">
        <ele>479</ele>
        <time>2021-07-24 16:40:15</time>
      </trkpt>
      <trkpt lat="42.66369" lon="-2.20043">
        <ele>478.8</ele>
        <time>2021-07-24 16:40:19</time>
      </trkpt>
      <trkpt lat="42.66367" lon="-2.20021">
        <ele>478.2</ele>
        <time>2021-07-24 16:40:23</time>
      </trkpt>
      <trkpt lat="42.66363" lon="-2.19999">
        <ele>478.4</ele>
        <time>2021-07-24 16:40:27</time>
      </trkpt>
      <trkpt lat="42.66361" lon="-2.19975">
        <ele>478.4</ele>
        <time>2021-07-24 16:40:31</time>
      </trkpt>
      <trkpt lat="42.66359" lon="-2.19951">
        <ele>479</ele>
        <time>2021-07-24 16:40:35</time>
      </trkpt>
      <trkpt lat="42.66355" lon="-2.19927">
        <ele>478.2</ele>
        <time>2021-07-24 16:40:39</time>
      </trkpt>
      <trkpt lat="42.66353" lon="-2.19904">
        <ele>478.6</ele>
        <time>2021-07-24 16:40:43</time>
      </trkpt>
      <trkpt lat="42.6635" lon="-2.1988">
        <ele>478.2</ele>
        <time>2021-07-24 16:40:47</time>
      </trkpt>
      <trkpt lat="42.66348" lon="-2.19858">
        <ele>478.6</ele>
        <time>2021-07-24 16:40:51</time>
      </trkpt>
      <trkpt lat="42.66345" lon="-2.19836">
        <ele>478.6</ele>
        <time>2021-07-24 16:40:55</time>
      </trkpt>
      <trkpt lat="42.66343" lon="-2.19812">
        <ele>478.8</ele>
        <time>2021-07-24 16:40:59</time>
      </trkpt>
      <trkpt lat="42.66341" lon="-2.19789">
        <ele>478.4</ele>
        <time>2021-07-24 16:41:03</time>
      </trkpt>
      <trkpt lat="42.66338" lon="-2.19765">
        <ele>478.4</ele>
        <time>2021-07-24 16:41:07</time>
      </trkpt>
      <trkpt lat="42.66335" lon="-2.19741">
        <ele>477.6</ele>
        <time>2021-07-24 16:41:11</time>
      </trkpt>
      <trkpt lat="42.66333" lon="-2.19719">
        <ele>478.2</ele>
        <time>2021-07-24 16:41:15</time>
      </trkpt>
      <trkpt lat="42.6633" lon="-2.19695">
        <ele>478.2</ele>
        <time>2021-07-24 16:41:19</time>
      </trkpt>
      <trkpt lat="42.66328" lon="-2.19672">
        <ele>478.6</ele>
        <time>2021-07-24 16:41:23</time>
      </trkpt>
      <trkpt lat="42.66325" lon="-2.19649">
        <ele>478.4</ele>
        <time>2021-07-24 16:41:27</time>
      </trkpt>
      <trkpt lat="42.66323" lon="-2.19627">
        <ele>478.2</ele>
        <time>2021-07-24 16:41:31</time>
      </trkpt>
      <trkpt lat="42.66319" lon="-2.19606">
        <ele>478.4</ele>
        <time>2021-07-24 16:41:35</time>
      </trkpt>
      <trkpt lat="42.66317" lon="-2.19583">
        <ele>478</ele>
        <time>2021-07-24 16:41:39</time>
      </trkpt>
      <trkpt lat="42.66315" lon="-2.19562">
        <ele>478.4</ele>
        <time>2021-07-24 16:41:43</time>
      </trkpt>
      <trkpt lat="42.66312" lon="-2.1954">
        <ele>478.8</ele>
        <time>2021-07-24 16:41:47</time>
      </trkpt>
      <trkpt lat="42.6631" lon="-2.19517">
        <ele>478.8</ele>
        <time>2021-07-24 16:41:51</time>
      </trkpt>
      <trkpt lat="42.66306" lon="-2.19493">
        <ele>478.6</ele>
        <time>2021-07-24 16:41:55</time>
      </trkpt>
      <trkpt lat="42.66303" lon="-2.19466">
        <ele>478.8</ele>
        <time>2021-07-24 16:41:59</time>
      </trkpt>
      <trkpt lat="42.663" lon="-2.19443">
        <ele>478.8</ele>
        <time>2021-07-24 16:42:03</time>
      </trkpt>
      <trkpt lat="42.66298" lon="-2.19419">
        <ele>477.8</ele>
        <time>2021-07-24 16:42:07</time>
      </trkpt>
      <trkpt lat="42.66295" lon="-2.19396">
        <ele>478.6</ele>
        <time>2021-07-24 16:42:11</time>
      </trkpt>
      <trkpt lat="42.66292" lon="-2.19371">
        <ele>478.4</ele>
        <time>2021-07-24 16:42:15</time>
      </trkpt>
      <trkpt lat="42.66289" lon="-2.19349">
        <ele>479</ele>
        <time>2021-07-24 16:42:19</time>
      </trkpt>
      <trkpt lat="42.66285" lon="-2.19328">
        <ele>479.4</ele>
        <time>2021-07-24 16:42:23</time>
      </trkpt>
      <trkpt lat="42.6628" lon="-2.19305">
        <ele>479.4</ele>
        <time>2021-07-24 16:42:27</time>
      </trkpt>
      <trkpt lat="42.66275" lon="-2.19283">
        <ele>480</ele>
        <time>2021-07-24 16:42:31</time>
      </trkpt>
      <trkpt lat="42.6627" lon="-2.19261">
        <ele>479</ele>
        <time>2021-07-24 16:42:35</time>
      </trkpt>
      <trkpt lat="42.66265" lon="-2.19238">
        <ele>479.2</ele>
        <time>2021-07-24 16:42:39</time>
      </trkpt>
      <trkpt lat="42.66262" lon="-2.19218">
        <ele>479.8</ele>
        <time>2021-07-24 16:42:43</time>
      </trkpt>
      <trkpt lat="42.66258" lon="-2.19202">
        <ele>479.6</ele>
        <time>2021-07-24 16:42:47</time>
      </trkpt>
      <trkpt lat="42.66251" lon="-2.19186">
        <ele>479.6</ele>
        <time>2021-07-24 16:42:51</time>
      </trkpt>
      <trkpt lat="42.66241" lon="-2.19169">
        <ele>479.8</ele>
        <time>2021-07-24 16:42:55</time>
      </trkpt>
      <trkpt lat="42.66232" lon="-2.19152">
        <ele>479.8</ele>
        <time>2021-07-24 16:42:59</time>
      </trkpt>
      <trkpt lat="42.66224" lon="-2.19136">
        <ele>480</ele>
        <time>2021-07-24 16:43:03</time>
      </trkpt>
      <trkpt lat="42.66217" lon="-2.19119">
        <ele>480.4</ele>
        <time>2021-07-24 16:43:07</time>
      </trkpt>
      <trkpt lat="42.66209" lon="-2.19105">
        <ele>480.2</ele>
        <time>2021-07-24 16:43:11</time>
      </trkpt>
      <trkpt lat="42.66199" lon="-2.19091">
        <ele>480.2</ele>
        <time>2021-07-24 16:43:15</time>
      </trkpt>
      <trkpt lat="42.6619" lon="-2.19071">
        <ele>480.4</ele>
        <time>2021-07-24 16:43:19</time>
      </trkpt>
      <trkpt lat="42.6618" lon="-2.19054">
        <ele>480.4</ele>
        <time>2021-07-24 16:43:23</time>
      </trkpt>
      <trkpt lat="42.6617" lon="-2.19037">
        <ele>480.4</ele>
        <time>2021-07-24 16:43:27</time>
      </trkpt>
      <trkpt lat="42.66162" lon="-2.19021">
        <ele>480.6</ele>
        <time>2021-07-24 16:43:31</time>
      </trkpt>
      <trkpt lat="42.66155" lon="-2.19008">
        <ele>480.6</ele>
        <time>2021-07-24 16:43:35</time>
      </trkpt>
      <trkpt lat="42.66149" lon="-2.18997">
        <ele>480.8</ele>
        <time>2021-07-24 16:43:39</time>
      </trkpt>
      <trkpt lat="42.66139" lon="-2.1899">
        <ele>479.8</ele>
        <time>2021-07-24 16:43:43</time>
      </trkpt>
      <trkpt lat="42.66127" lon="-2.18988">
        <ele>479.8</ele>
        <time>2021-07-24 16:43:47</time>
      </trkpt>
      <trkpt lat="42.66117" lon="-2.18984">
        <ele>480.2</ele>
        <time>2021-07-24 16:43:51</time>
      </trkpt>
      <trkpt lat="42.66109" lon="-2.18983">
        <ele>480.2</ele>
        <time>2021-07-24 16:43:55</time>
      </trkpt>
      <trkpt lat="42.661" lon="-2.18985">
        <ele>480.4</ele>
        <time>2021-07-24 16:43:59</time>
      </trkpt>
      <trkpt lat="42.66094" lon="-2.18978">
        <ele>480.4</ele>
        <time>2021-07-24 16:44:03</time>
      </trkpt>
      <trkpt lat="42.66089" lon="-2.18966">
        <ele>480.4</ele>
        <time>2021-07-24 16:44:07</time>
      </trkpt>
      <trkpt lat="42.6608" lon="-2.18951">
        <ele>480.6</ele>
        <time>2021-07-24 16:44:11</time>
      </trkpt>
      <trkpt lat="42.66071" lon="-2.18936">
        <ele>480.4</ele>
        <time>2021-07-24 16:44:15</time>
      </trkpt>
      <trkpt lat="42.66063" lon="-2.18919">
        <ele>480.4</ele>
        <time>2021-07-24 16:44:19</time>
      </trkpt>
      <trkpt lat="42.66054" lon="-2.18903">
        <ele>480.4</ele>
        <time>2021-07-24 16:44:23</time>
      </trkpt>
      <trkpt lat="42.66045" lon="-2.18886">
        <ele>480.4</ele>
        <time>2021-07-24 16:44:27</time>
      </trkpt>
      <trkpt lat="42.66036" lon="-2.18871">
        <ele>481</ele>
        <time>2021-07-24 16:44:31</time>
      </trkpt>
      <trkpt lat="42.6603" lon="-2.1886">
        <ele>481</ele>
        <time>2021-07-24 16:44:35</time>
      </trkpt>
      <trkpt lat="42.66026" lon="-2.18853">
        <ele>481.8</ele>
        <time>2021-07-24 16:44:39</time>
      </trkpt>
      <trkpt lat="42.6603" lon="-2.18844">
        <ele>481</ele>
        <time>2021-07-24 16:44:43</time>
      </trkpt>
      <trkpt lat="42.66034" lon="-2.18834">
        <ele>481.4</ele>
        <time>2021-07-24 16:44:47</time>
      </trkpt>
      <trkpt lat="42.6603" lon="-2.18822">
        <ele>481</ele>
        <time>2021-07-24 16:44:51</time>
      </trkpt>
      <trkpt lat="42.66024" lon="-2.18806">
        <ele>480.4</ele>
        <time>2021-07-24 16:44:55</time>
      </trkpt>
      <trkpt lat="42.66016" lon="-2.18787">
        <ele>480.4</ele>
        <time>2021-07-24 16:44:59</time>
      </trkpt>
      <trkpt lat="42.66011" lon="-2.18766">
        <ele>480.4</ele>
        <time>2021-07-24 16:45:03</time>
      </trkpt>
      <trkpt lat="42.66007" lon="-2.18742">
        <ele>479.8</ele>
        <time>2021-07-24 16:45:07</time>
      </trkpt>
      <trkpt lat="42.66004" lon="-2.18718">
        <ele>480</ele>
        <time>2021-07-24 16:45:11</time>
      </trkpt>
      <trkpt lat="42.66003" lon="-2.18694">
        <ele>479.6</ele>
        <time>2021-07-24 16:45:15</time>
      </trkpt>
      <trkpt lat="42.66001" lon="-2.18672">
        <ele>480.6</ele>
        <time>2021-07-24 16:45:19</time>
      </trkpt>
      <trkpt lat="42.66001" lon="-2.18653">
        <ele>480.8</ele>
        <time>2021-07-24 16:45:23</time>
      </trkpt>
      <trkpt lat="42.66004" lon="-2.18635">
        <ele>480.8</ele>
        <time>2021-07-24 16:45:27</time>
      </trkpt>
      <trkpt lat="42.66007" lon="-2.18618">
        <ele>481.4</ele>
        <time>2021-07-24 16:45:31</time>
      </trkpt>
      <trkpt lat="42.66007" lon="-2.18603">
        <ele>480.6</ele>
        <time>2021-07-24 16:45:35</time>
      </trkpt>
      <trkpt lat="42.6601" lon="-2.18585">
        <ele>480.2</ele>
        <time>2021-07-24 16:45:39</time>
      </trkpt>
      <trkpt lat="42.66013" lon="-2.18563">
        <ele>480</ele>
        <time>2021-07-24 16:45:43</time>
      </trkpt>
      <trkpt lat="42.66015" lon="-2.18537">
        <ele>479.8</ele>
        <time>2021-07-24 16:45:47</time>
      </trkpt>
      <trkpt lat="42.66018" lon="-2.18512">
        <ele>479.6</ele>
        <time>2021-07-24 16:45:51</time>
      </trkpt>
      <trkpt lat="42.66022" lon="-2.18487">
        <ele>478.8</ele>
        <time>2021-07-24 16:45:55</time>
      </trkpt>
      <trkpt lat="42.66024" lon="-2.18462">
        <ele>479.2</ele>
        <time>2021-07-24 16:45:59</time>
      </trkpt>
      <trkpt lat="42.66027" lon="-2.18438">
        <ele>480</ele>
        <time>2021-07-24 16:46:03</time>
      </trkpt>
      <trkpt lat="42.66028" lon="-2.18417">
        <ele>479</ele>
        <time>2021-07-24 16:46:07</time>
      </trkpt>
      <trkpt lat="42.6603" lon="-2.18394">
        <ele>479.6</ele>
        <time>2021-07-24 16:46:11</time>
      </trkpt>
      <trkpt lat="42.66034" lon="-2.18372">
        <ele>479</ele>
        <time>2021-07-24 16:46:15</time>
      </trkpt>
      <trkpt lat="42.66037" lon="-2.1835">
        <ele>479.8</ele>
        <time>2021-07-24 16:46:19</time>
      </trkpt>
      <trkpt lat="42.66039" lon="-2.18327">
        <ele>479.6</ele>
        <time>2021-07-24 16:46:23</time>
      </trkpt>
      <trkpt lat="42.66041" lon="-2.18306">
        <ele>479</ele>
        <time>2021-07-24 16:46:27</time>
      </trkpt>
      <trkpt lat="42.66043" lon="-2.18284">
        <ele>478.6</ele>
        <time>2021-07-24 16:46:31</time>
      </trkpt>
      <trkpt lat="42.66046" lon="-2.18261">
        <ele>479.6</ele>
        <time>2021-07-24 16:46:35</time>
      </trkpt>
      <trkpt lat="42.66048" lon="-2.1824">
        <ele>479.8</ele>
        <time>2021-07-24 16:46:39</time>
      </trkpt>
      <trkpt lat="42.6605" lon="-2.18218">
        <ele>480.4</ele>
        <time>2021-07-24 16:46:43</time>
      </trkpt>
      <trkpt lat="42.66052" lon="-2.18196">
        <ele>479.8</ele>
        <time>2021-07-24 16:46:47</time>
      </trkpt>
      <trkpt lat="42.66053" lon="-2.18174">
        <ele>478.8</ele>
        <time>2021-07-24 16:46:51</time>
      </trkpt>
      <trkpt lat="42.66055" lon="-2.18152">
        <ele>479.8</ele>
        <time>2021-07-24 16:46:55</time>
      </trkpt>
      <trkpt lat="42.66058" lon="-2.1813">
        <ele>479.6</ele>
        <time>2021-07-24 16:46:59</time>
      </trkpt>
      <trkpt lat="42.6606" lon="-2.18108">
        <ele>480</ele>
        <time>2021-07-24 16:47:03</time>
      </trkpt>
      <trkpt lat="42.66061" lon="-2.18087">
        <ele>480.2</ele>
        <time>2021-07-24 16:47:07</time>
      </trkpt>
      <trkpt lat="42.66063" lon="-2.18068">
        <ele>479.2</ele>
        <time>2021-07-24 16:47:11</time>
      </trkpt>
      <trkpt lat="42.66066" lon="-2.18048">
        <ele>479.6</ele>
        <time>2021-07-24 16:47:15</time>
      </trkpt>
      <trkpt lat="42.66068" lon="-2.18025">
        <ele>479</ele>
        <time>2021-07-24 16:47:19</time>
      </trkpt>
      <trkpt lat="42.66071" lon="-2.18002">
        <ele>478.8</ele>
        <time>2021-07-24 16:47:23</time>
      </trkpt>
      <trkpt lat="42.66073" lon="-2.1798">
        <ele>478.8</ele>
        <time>2021-07-24 16:47:27</time>
      </trkpt>
      <trkpt lat="42.66076" lon="-2.17957">
        <ele>477.6</ele>
        <time>2021-07-24 16:47:31</time>
      </trkpt>
      <trkpt lat="42.66078" lon="-2.17936">
        <ele>478.2</ele>
        <time>2021-07-24 16:47:35</time>
      </trkpt>
      <trkpt lat="42.6608" lon="-2.17915">
        <ele>478.2</ele>
        <time>2021-07-24 16:47:39</time>
      </trkpt>
      <trkpt lat="42.66082" lon="-2.17894">
        <ele>478.4</ele>
        <time>2021-07-24 16:47:43</time>
      </trkpt>
      <trkpt lat="42.66085" lon="-2.17871">
        <ele>478.4</ele>
        <time>2021-07-24 16:47:47</time>
      </trkpt>
      <trkpt lat="42.66087" lon="-2.17848">
        <ele>478.4</ele>
        <time>2021-07-24 16:47:51</time>
      </trkpt>
      <trkpt lat="42.66089" lon="-2.17825">
        <ele>478.4</ele>
        <time>2021-07-24 16:47:55</time>
      </trkpt>
      <trkpt lat="42.66092" lon="-2.17803">
        <ele>479</ele>
        <time>2021-07-24 16:47:59</time>
      </trkpt>
      <trkpt lat="42.66094" lon="-2.1778">
        <ele>477.6</ele>
        <time>2021-07-24 16:48:03</time>
      </trkpt>
      <trkpt lat="42.66096" lon="-2.17758">
        <ele>479</ele>
        <time>2021-07-24 16:48:07</time>
      </trkpt>
      <trkpt lat="42.66099" lon="-2.17736">
        <ele>478.2</ele>
        <time>2021-07-24 16:48:11</time>
      </trkpt>
      <trkpt lat="42.66101" lon="-2.17715">
        <ele>479</ele>
        <time>2021-07-24 16:48:15</time>
      </trkpt>
      <trkpt lat="42.66103" lon="-2.17693">
        <ele>479</ele>
        <time>2021-07-24 16:48:19</time>
      </trkpt>
      <trkpt lat="42.66105" lon="-2.17671">
        <ele>479</ele>
        <time>2021-07-24 16:48:23</time>
      </trkpt>
      <trkpt lat="42.66107" lon="-2.17649">
        <ele>479</ele>
        <time>2021-07-24 16:48:27</time>
      </trkpt>
      <trkpt lat="42.6611" lon="-2.17626">
        <ele>478.6</ele>
        <time>2021-07-24 16:48:31</time>
      </trkpt>
      <trkpt lat="42.66112" lon="-2.17603">
        <ele>479</ele>
        <time>2021-07-24 16:48:35</time>
      </trkpt>
      <trkpt lat="42.66113" lon="-2.1758">
        <ele>479</ele>
        <time>2021-07-24 16:48:39</time>
      </trkpt>
      <trkpt lat="42.66113" lon="-2.17556">
        <ele>478.4</ele>
        <time>2021-07-24 16:48:43</time>
      </trkpt>
      <trkpt lat="42.66112" lon="-2.17532">
        <ele>478.8</ele>
        <time>2021-07-24 16:48:47</time>
      </trkpt>
      <trkpt lat="42.6611" lon="-2.17509">
        <ele>478.2</ele>
        <time>2021-07-24 16:48:51</time>
      </trkpt>
      <trkpt lat="42.66107" lon="-2.17487">
        <ele>478.4</ele>
        <time>2021-07-24 16:48:55</time>
      </trkpt>
      <trkpt lat="42.66102" lon="-2.17467">
        <ele>478.4</ele>
        <time>2021-07-24 16:48:59</time>
      </trkpt>
      <trkpt lat="42.66098" lon="-2.17445">
        <ele>477.6</ele>
        <time>2021-07-24 16:49:03</time>
      </trkpt>
      <trkpt lat="42.66093" lon="-2.17425">
        <ele>478.4</ele>
        <time>2021-07-24 16:49:07</time>
      </trkpt>
      <trkpt lat="42.66089" lon="-2.17402">
        <ele>478.6</ele>
        <time>2021-07-24 16:49:11</time>
      </trkpt>
      <trkpt lat="42.66085" lon="-2.17377">
        <ele>478.4</ele>
        <time>2021-07-24 16:49:15</time>
      </trkpt>
      <trkpt lat="42.66081" lon="-2.17351">
        <ele>478</ele>
        <time>2021-07-24 16:49:19</time>
      </trkpt>
      <trkpt lat="42.66077" lon="-2.17325">
        <ele>477.4</ele>
        <time>2021-07-24 16:49:23</time>
      </trkpt>
      <trkpt lat="42.66074" lon="-2.173">
        <ele>477.6</ele>
        <time>2021-07-24 16:49:27</time>
      </trkpt>
      <trkpt lat="42.6607" lon="-2.17276">
        <ele>476.8</ele>
        <time>2021-07-24 16:49:31</time>
      </trkpt>
      <trkpt lat="42.66067" lon="-2.17253">
        <ele>477.8</ele>
        <time>2021-07-24 16:49:35</time>
      </trkpt>
      <trkpt lat="42.66063" lon="-2.1723">
        <ele>478.2</ele>
        <time>2021-07-24 16:49:39</time>
      </trkpt>
      <trkpt lat="42.66059" lon="-2.17206">
        <ele>478</ele>
        <time>2021-07-24 16:49:43</time>
      </trkpt>
      <trkpt lat="42.66055" lon="-2.17183">
        <ele>478.4</ele>
        <time>2021-07-24 16:49:47</time>
      </trkpt>
      <trkpt lat="42.66052" lon="-2.17159">
        <ele>477.8</ele>
        <time>2021-07-24 16:49:51</time>
      </trkpt>
      <trkpt lat="42.66048" lon="-2.17137">
        <ele>478.4</ele>
        <time>2021-07-24 16:49:55</time>
      </trkpt>
      <trkpt lat="42.66044" lon="-2.17114">
        <ele>477.8</ele>
        <time>2021-07-24 16:49:59</time>
      </trkpt>
      <trkpt lat="42.6604" lon="-2.1709">
        <ele>477</ele>
        <time>2021-07-24 16:50:03</time>
      </trkpt>
      <trkpt lat="42.66035" lon="-2.17066">
        <ele>476.4</ele>
        <time>2021-07-24 16:50:07</time>
      </trkpt>
      <trkpt lat="42.66031" lon="-2.17041">
        <ele>477.4</ele>
        <time>2021-07-24 16:50:11</time>
      </trkpt>
      <trkpt lat="42.66028" lon="-2.17018">
        <ele>477</ele>
        <time>2021-07-24 16:50:15</time>
      </trkpt>
      <trkpt lat="42.66023" lon="-2.16994">
        <ele>476.6</ele>
        <time>2021-07-24 16:50:19</time>
      </trkpt>
      <trkpt lat="42.66019" lon="-2.1697">
        <ele>476.4</ele>
        <time>2021-07-24 16:50:23</time>
      </trkpt>
      <trkpt lat="42.66015" lon="-2.16946">
        <ele>476.4</ele>
        <time>2021-07-24 16:50:27</time>
      </trkpt>
      <trkpt lat="42.66011" lon="-2.16922">
        <ele>477.2</ele>
        <time>2021-07-24 16:50:31</time>
      </trkpt>
      <trkpt lat="42.66008" lon="-2.16898">
        <ele>476.8</ele>
        <time>2021-07-24 16:50:35</time>
      </trkpt>
      <trkpt lat="42.66004" lon="-2.16872">
        <ele>477.6</ele>
        <time>2021-07-24 16:50:39</time>
      </trkpt>
      <trkpt lat="42.65999" lon="-2.16846">
        <ele>477</ele>
        <time>2021-07-24 16:50:43</time>
      </trkpt>
      <trkpt lat="42.65994" lon="-2.16819">
        <ele>476.8</ele>
        <time>2021-07-24 16:50:47</time>
      </trkpt>
      <trkpt lat="42.65991" lon="-2.16792">
        <ele>476.6</ele>
        <time>2021-07-24 16:50:51</time>
      </trkpt>
      <trkpt lat="42.65986" lon="-2.16765">
        <ele>477</ele>
        <time>2021-07-24 16:50:55</time>
      </trkpt>
      <trkpt lat="42.65982" lon="-2.16739">
        <ele>476.6</ele>
        <time>2021-07-24 16:50:59</time>
      </trkpt>
      <trkpt lat="42.65977" lon="-2.16714">
        <ele>476.6</ele>
        <time>2021-07-24 16:51:03</time>
      </trkpt>
      <trkpt lat="42.65973" lon="-2.16689">
        <ele>476.6</ele>
        <time>2021-07-24 16:51:07</time>
      </trkpt>
      <trkpt lat="42.65969" lon="-2.16665">
        <ele>476.8</ele>
        <time>2021-07-24 16:51:11</time>
      </trkpt>
      <trkpt lat="42.65965" lon="-2.16641">
        <ele>476.8</ele>
        <time>2021-07-24 16:51:15</time>
      </trkpt>
      <trkpt lat="42.65961" lon="-2.16617">
        <ele>476.2</ele>
        <time>2021-07-24 16:51:19</time>
      </trkpt>
      <trkpt lat="42.65956" lon="-2.16596">
        <ele>476.8</ele>
        <time>2021-07-24 16:51:23</time>
      </trkpt>
      <trkpt lat="42.65949" lon="-2.16578">
        <ele>477</ele>
        <time>2021-07-24 16:51:27</time>
      </trkpt>
      <trkpt lat="42.65942" lon="-2.16559">
        <ele>476.6</ele>
        <time>2021-07-24 16:51:31</time>
      </trkpt>
      <trkpt lat="42.65936" lon="-2.16541">
        <ele>476.6</ele>
        <time>2021-07-24 16:51:35</time>
      </trkpt>
      <trkpt lat="42.65927" lon="-2.16522">
        <ele>476.6</ele>
        <time>2021-07-24 16:51:39</time>
      </trkpt>
      <trkpt lat="42.65918" lon="-2.16504">
        <ele>476.4</ele>
        <time>2021-07-24 16:51:43</time>
      </trkpt>
      <trkpt lat="42.65908" lon="-2.16484">
        <ele>476.4</ele>
        <time>2021-07-24 16:51:47</time>
      </trkpt>
      <trkpt lat="42.659" lon="-2.16463">
        <ele>476.6</ele>
        <time>2021-07-24 16:51:51</time>
      </trkpt>
      <trkpt lat="42.65891" lon="-2.16442">
        <ele>476.8</ele>
        <time>2021-07-24 16:51:55</time>
      </trkpt>
      <trkpt lat="42.65883" lon="-2.16421">
        <ele>476.4</ele>
        <time>2021-07-24 16:51:59</time>
      </trkpt>
      <trkpt lat="42.65876" lon="-2.164">
        <ele>476.6</ele>
        <time>2021-07-24 16:52:03</time>
      </trkpt>
      <trkpt lat="42.65869" lon="-2.16379">
        <ele>476.6</ele>
        <time>2021-07-24 16:52:07</time>
      </trkpt>
      <trkpt lat="42.65864" lon="-2.16357">
        <ele>476.4</ele>
        <time>2021-07-24 16:52:11</time>
      </trkpt>
      <trkpt lat="42.65861" lon="-2.16336">
        <ele>476.4</ele>
        <time>2021-07-24 16:52:15</time>
      </trkpt>
      <trkpt lat="42.65858" lon="-2.16314">
        <ele>475.8</ele>
        <time>2021-07-24 16:52:19</time>
      </trkpt>
      <trkpt lat="42.65857" lon="-2.16291">
        <ele>476</ele>
        <time>2021-07-24 16:52:23</time>
      </trkpt>
      <trkpt lat="42.65855" lon="-2.16268">
        <ele>475.4</ele>
        <time>2021-07-24 16:52:27</time>
      </trkpt>
      <trkpt lat="42.65855" lon="-2.16245">
        <ele>476.4</ele>
        <time>2021-07-24 16:52:31</time>
      </trkpt>
      <trkpt lat="42.65855" lon="-2.16223">
        <ele>476</ele>
        <time>2021-07-24 16:52:35</time>
      </trkpt>
      <trkpt lat="42.65855" lon="-2.16199">
        <ele>476</ele>
        <time>2021-07-24 16:52:39</time>
      </trkpt>
      <trkpt lat="42.65854" lon="-2.16176">
        <ele>476.6</ele>
        <time>2021-07-24 16:52:43</time>
      </trkpt>
      <trkpt lat="42.65855" lon="-2.16153">
        <ele>476.6</ele>
        <time>2021-07-24 16:52:47</time>
      </trkpt>
      <trkpt lat="42.65854" lon="-2.16132">
        <ele>476.2</ele>
        <time>2021-07-24 16:52:51</time>
      </trkpt>
      <trkpt lat="42.65854" lon="-2.1611">
        <ele>476.6</ele>
        <time>2021-07-24 16:52:55</time>
      </trkpt>
      <trkpt lat="42.65854" lon="-2.16088">
        <ele>476</ele>
        <time>2021-07-24 16:52:59</time>
      </trkpt>
      <trkpt lat="42.65853" lon="-2.16064">
        <ele>476</ele>
        <time>2021-07-24 16:53:03</time>
      </trkpt>
      <trkpt lat="42.65853" lon="-2.16041">
        <ele>476.2</ele>
        <time>2021-07-24 16:53:07</time>
      </trkpt>
      <trkpt lat="42.65853" lon="-2.16019">
        <ele>476</ele>
        <time>2021-07-24 16:53:11</time>
      </trkpt>
      <trkpt lat="42.65852" lon="-2.15998">
        <ele>476.6</ele>
        <time>2021-07-24 16:53:15</time>
      </trkpt>
      <trkpt lat="42.65852" lon="-2.1598">
        <ele>475.2</ele>
        <time>2021-07-24 16:53:19</time>
      </trkpt>
      <trkpt lat="42.65857" lon="-2.15966">
        <ele>475.6</ele>
        <time>2021-07-24 16:53:23</time>
      </trkpt>
      <trkpt lat="42.65862" lon="-2.15952">
        <ele>476</ele>
        <time>2021-07-24 16:53:27</time>
      </trkpt>
      <trkpt lat="42.65863" lon="-2.15935">
        <ele>476</ele>
        <time>2021-07-24 16:53:31</time>
      </trkpt>
      <trkpt lat="42.65865" lon="-2.15917">
        <ele>475.2</ele>
        <time>2021-07-24 16:53:35</time>
      </trkpt>
      <trkpt lat="42.65866" lon="-2.15898">
        <ele>475.2</ele>
        <time>2021-07-24 16:53:39</time>
      </trkpt>
      <trkpt lat="42.65868" lon="-2.1588">
        <ele>475.8</ele>
        <time>2021-07-24 16:53:43</time>
      </trkpt>
      <trkpt lat="42.6587" lon="-2.15861">
        <ele>477</ele>
        <time>2021-07-24 16:53:47</time>
      </trkpt>
      <trkpt lat="42.65871" lon="-2.15842">
        <ele>478</ele>
        <time>2021-07-24 16:53:51</time>
      </trkpt>
      <trkpt lat="42.65872" lon="-2.15825">
        <ele>477.6</ele>
        <time>2021-07-24 16:53:55</time>
      </trkpt>
      <trkpt lat="42.65868" lon="-2.15815">
        <ele>477.8</ele>
        <time>2021-07-24 16:53:59</time>
      </trkpt>
      <trkpt lat="42.6586" lon="-2.15806">
        <ele>476</ele>
        <time>2021-07-24 16:54:03</time>
      </trkpt>
      <trkpt lat="42.65859" lon="-2.15788">
        <ele>476.2</ele>
        <time>2021-07-24 16:54:07</time>
      </trkpt>
      <trkpt lat="42.65858" lon="-2.15768">
        <ele>476.8</ele>
        <time>2021-07-24 16:54:11</time>
      </trkpt>
      <trkpt lat="42.65856" lon="-2.15749">
        <ele>475.8</ele>
        <time>2021-07-24 16:54:15</time>
      </trkpt>
      <trkpt lat="42.65854" lon="-2.15728">
        <ele>475.8</ele>
        <time>2021-07-24 16:54:19</time>
      </trkpt>
      <trkpt lat="42.65853" lon="-2.15709">
        <ele>475</ele>
        <time>2021-07-24 16:54:23</time>
      </trkpt>
      <trkpt lat="42.65852" lon="-2.1569">
        <ele>475.4</ele>
        <time>2021-07-24 16:54:27</time>
      </trkpt>
      <trkpt lat="42.6585" lon="-2.15668">
        <ele>475.4</ele>
        <time>2021-07-24 16:54:31</time>
      </trkpt>
      <trkpt lat="42.65849" lon="-2.15644">
        <ele>475.6</ele>
        <time>2021-07-24 16:54:35</time>
      </trkpt>
      <trkpt lat="42.65848" lon="-2.15617">
        <ele>475.8</ele>
        <time>2021-07-24 16:54:39</time>
      </trkpt>
      <trkpt lat="42.65848" lon="-2.15589">
        <ele>474.8</ele>
        <time>2021-07-24 16:54:43</time>
      </trkpt>
      <trkpt lat="42.65847" lon="-2.1556">
        <ele>474.6</ele>
        <time>2021-07-24 16:54:47</time>
      </trkpt>
      <trkpt lat="42.65847" lon="-2.15529">
        <ele>473</ele>
        <time>2021-07-24 16:54:51</time>
      </trkpt>
      <trkpt lat="42.65846" lon="-2.15498">
        <ele>472.2</ele>
        <time>2021-07-24 16:54:55</time>
      </trkpt>
      <trkpt lat="42.65846" lon="-2.15467">
        <ele>472.8</ele>
        <time>2021-07-24 16:54:59</time>
      </trkpt>
      <trkpt lat="42.65846" lon="-2.15436">
        <ele>472.2</ele>
        <time>2021-07-24 16:55:03</time>
      </trkpt>
      <trkpt lat="42.65846" lon="-2.15405">
        <ele>471.8</ele>
        <time>2021-07-24 16:55:07</time>
      </trkpt>
      <trkpt lat="42.65845" lon="-2.15373">
        <ele>471.6</ele>
        <time>2021-07-24 16:55:11</time>
      </trkpt>
      <trkpt lat="42.65844" lon="-2.15343">
        <ele>471.6</ele>
        <time>2021-07-24 16:55:15</time>
      </trkpt>
      <trkpt lat="42.65844" lon="-2.15314">
        <ele>472</ele>
        <time>2021-07-24 16:55:19</time>
      </trkpt>
      <trkpt lat="42.65845" lon="-2.15288">
        <ele>470.4</ele>
        <time>2021-07-24 16:55:23</time>
      </trkpt>
      <trkpt lat="42.65844" lon="-2.15263">
        <ele>469.6</ele>
        <time>2021-07-24 16:55:27</time>
      </trkpt>
      <trkpt lat="42.65843" lon="-2.15237">
        <ele>468.8</ele>
        <time>2021-07-24 16:55:31</time>
      </trkpt>
      <trkpt lat="42.65843" lon="-2.15213">
        <ele>468.6</ele>
        <time>2021-07-24 16:55:35</time>
      </trkpt>
      <trkpt lat="42.65843" lon="-2.15188">
        <ele>469</ele>
        <time>2021-07-24 16:55:39</time>
      </trkpt>
      <trkpt lat="42.65842" lon="-2.15162">
        <ele>467.4</ele>
        <time>2021-07-24 16:55:43</time>
      </trkpt>
      <trkpt lat="42.65842" lon="-2.15137">
        <ele>467.6</ele>
        <time>2021-07-24 16:55:47</time>
      </trkpt>
      <trkpt lat="42.65841" lon="-2.15111">
        <ele>467.4</ele>
        <time>2021-07-24 16:55:51</time>
      </trkpt>
      <trkpt lat="42.65841" lon="-2.15085">
        <ele>467.4</ele>
        <time>2021-07-24 16:55:55</time>
      </trkpt>
      <trkpt lat="42.65841" lon="-2.15058">
        <ele>467.4</ele>
        <time>2021-07-24 16:55:59</time>
      </trkpt>
      <trkpt lat="42.65841" lon="-2.15031">
        <ele>467.4</ele>
        <time>2021-07-24 16:56:03</time>
      </trkpt>
      <trkpt lat="42.6584" lon="-2.15003">
        <ele>468</ele>
        <time>2021-07-24 16:56:07</time>
      </trkpt>
      <trkpt lat="42.6584" lon="-2.14974">
        <ele>466.6</ele>
        <time>2021-07-24 16:56:11</time>
      </trkpt>
      <trkpt lat="42.6584" lon="-2.14944">
        <ele>465</ele>
        <time>2021-07-24 16:56:15</time>
      </trkpt>
      <trkpt lat="42.6584" lon="-2.14916">
        <ele>466.2</ele>
        <time>2021-07-24 16:56:19</time>
      </trkpt>
      <trkpt lat="42.6584" lon="-2.14891">
        <ele>467</ele>
        <time>2021-07-24 16:56:23</time>
      </trkpt>
      <trkpt lat="42.6584" lon="-2.14866">
        <ele>467</ele>
        <time>2021-07-24 16:56:27</time>
      </trkpt>
      <trkpt lat="42.6584" lon="-2.14841">
        <ele>467</ele>
        <time>2021-07-24 16:56:31</time>
      </trkpt>
      <trkpt lat="42.65839" lon="-2.14817">
        <ele>466.2</ele>
        <time>2021-07-24 16:56:35</time>
      </trkpt>
      <trkpt lat="42.65839" lon="-2.14793">
        <ele>465.6</ele>
        <time>2021-07-24 16:56:39</time>
      </trkpt>
      <trkpt lat="42.65838" lon="-2.14771">
        <ele>465.8</ele>
        <time>2021-07-24 16:56:43</time>
      </trkpt>
      <trkpt lat="42.65838" lon="-2.14752">
        <ele>466.2</ele>
        <time>2021-07-24 16:56:47</time>
      </trkpt>
      <trkpt lat="42.65838" lon="-2.14732">
        <ele>466.2</ele>
        <time>2021-07-24 16:56:51</time>
      </trkpt>
      <trkpt lat="42.65838" lon="-2.14714">
        <ele>466.4</ele>
        <time>2021-07-24 16:56:55</time>
      </trkpt>
      <trkpt lat="42.65838" lon="-2.14696">
        <ele>464.2</ele>
        <time>2021-07-24 16:56:59</time>
      </trkpt>
      <trkpt lat="42.65837" lon="-2.14679">
        <ele>465</ele>
        <time>2021-07-24 16:57:03</time>
      </trkpt>
      <trkpt lat="42.65837" lon="-2.14658">
        <ele>466.2</ele>
        <time>2021-07-24 16:57:07</time>
      </trkpt>
      <trkpt lat="42.65836" lon="-2.14637">
        <ele>466.6</ele>
        <time>2021-07-24 16:57:11</time>
      </trkpt>
      <trkpt lat="42.65837" lon="-2.14612">
        <ele>465.2</ele>
        <time>2021-07-24 16:57:15</time>
      </trkpt>
      <trkpt lat="42.65836" lon="-2.14587">
        <ele>466.4</ele>
        <time>2021-07-24 16:57:19</time>
      </trkpt>
      <trkpt lat="42.65836" lon="-2.14562">
        <ele>466.2</ele>
        <time>2021-07-24 16:57:23</time>
      </trkpt>
      <trkpt lat="42.65835" lon="-2.14536">
        <ele>464.6</ele>
        <time>2021-07-24 16:57:27</time>
      </trkpt>
      <trkpt lat="42.65835" lon="-2.14512">
        <ele>465.6</ele>
        <time>2021-07-24 16:57:31</time>
      </trkpt>
      <trkpt lat="42.65835" lon="-2.14487">
        <ele>465</ele>
        <time>2021-07-24 16:57:35</time>
      </trkpt>
      <trkpt lat="42.65835" lon="-2.14464">
        <ele>465</ele>
        <time>2021-07-24 16:57:39</time>
      </trkpt>
      <trkpt lat="42.65835" lon="-2.1444">
        <ele>463.8</ele>
        <time>2021-07-24 16:57:43</time>
      </trkpt>
      <trkpt lat="42.65835" lon="-2.14417">
        <ele>464.4</ele>
        <time>2021-07-24 16:57:47</time>
      </trkpt>
      <trkpt lat="42.65835" lon="-2.14398">
        <ele>465.2</ele>
        <time>2021-07-24 16:57:51</time>
      </trkpt>
      <trkpt lat="42.65835" lon="-2.14382">
        <ele>465.2</ele>
        <time>2021-07-24 16:57:55</time>
      </trkpt>
      <trkpt lat="42.65834" lon="-2.14368">
        <ele>465.2</ele>
        <time>2021-07-24 16:57:59</time>
      </trkpt>
      <trkpt lat="42.65834" lon="-2.14355">
        <ele>465.2</ele>
        <time>2021-07-24 16:58:03</time>
      </trkpt>
      <trkpt lat="42.65833" lon="-2.14338">
        <ele>464</ele>
        <time>2021-07-24 16:58:07</time>
      </trkpt>
      <trkpt lat="42.65832" lon="-2.14316">
        <ele>464</ele>
        <time>2021-07-24 16:58:11</time>
      </trkpt>
      <trkpt lat="42.65832" lon="-2.14293">
        <ele>464</ele>
        <time>2021-07-24 16:58:15</time>
      </trkpt>
      <trkpt lat="42.65832" lon="-2.14271">
        <ele>463.2</ele>
        <time>2021-07-24 16:58:19</time>
      </trkpt>
      <trkpt lat="42.65832" lon="-2.1425">
        <ele>463</ele>
        <time>2021-07-24 16:58:23</time>
      </trkpt>
      <trkpt lat="42.65832" lon="-2.14227">
        <ele>463</ele>
        <time>2021-07-24 16:58:27</time>
      </trkpt>
      <trkpt lat="42.65832" lon="-2.14202">
        <ele>462</ele>
        <time>2021-07-24 16:58:31</time>
      </trkpt>
      <trkpt lat="42.65831" lon="-2.14176">
        <ele>462.2</ele>
        <time>2021-07-24 16:58:35</time>
      </trkpt>
      <trkpt lat="42.6583" lon="-2.14151">
        <ele>461.6</ele>
        <time>2021-07-24 16:58:39</time>
      </trkpt>
      <trkpt lat="42.6583" lon="-2.14126">
        <ele>460.4</ele>
        <time>2021-07-24 16:58:43</time>
      </trkpt>
      <trkpt lat="42.6583" lon="-2.14101">
        <ele>460.2</ele>
        <time>2021-07-24 16:58:47</time>
      </trkpt>
      <trkpt lat="42.65829" lon="-2.14077">
        <ele>461.6</ele>
        <time>2021-07-24 16:58:51</time>
      </trkpt>
      <trkpt lat="42.65828" lon="-2.14056">
        <ele>460.4</ele>
        <time>2021-07-24 16:58:55</time>
      </trkpt>
      <trkpt lat="42.65829" lon="-2.14032">
        <ele>459.6</ele>
        <time>2021-07-24 16:58:59</time>
      </trkpt>
      <trkpt lat="42.65829" lon="-2.14006">
        <ele>459</ele>
        <time>2021-07-24 16:59:03</time>
      </trkpt>
      <trkpt lat="42.65829" lon="-2.13976">
        <ele>459</ele>
        <time>2021-07-24 16:59:07</time>
      </trkpt>
      <trkpt lat="42.65828" lon="-2.13946">
        <ele>458.4</ele>
        <time>2021-07-24 16:59:11</time>
      </trkpt>
      <trkpt lat="42.65826" lon="-2.13917">
        <ele>459.4</ele>
        <time>2021-07-24 16:59:15</time>
      </trkpt>
      <trkpt lat="42.65821" lon="-2.13889">
        <ele>458.2</ele>
        <time>2021-07-24 16:59:19</time>
      </trkpt>
      <trkpt lat="42.65814" lon="-2.1386">
        <ele>458.2</ele>
        <time>2021-07-24 16:59:23</time>
      </trkpt>
      <trkpt lat="42.65805" lon="-2.13833">
        <ele>457</ele>
        <time>2021-07-24 16:59:27</time>
      </trkpt>
      <trkpt lat="42.65795" lon="-2.13805">
        <ele>455.8</ele>
        <time>2021-07-24 16:59:31</time>
      </trkpt>
      <trkpt lat="42.65784" lon="-2.13775">
        <ele>455.6</ele>
        <time>2021-07-24 16:59:35</time>
      </trkpt>
      <trkpt lat="42.65773" lon="-2.13746">
        <ele>455</ele>
        <time>2021-07-24 16:59:39</time>
      </trkpt>
      <trkpt lat="42.65762" lon="-2.13717">
        <ele>456</ele>
        <time>2021-07-24 16:59:43</time>
      </trkpt>
      <trkpt lat="42.65751" lon="-2.13687">
        <ele>455</ele>
        <time>2021-07-24 16:59:47</time>
      </trkpt>
      <trkpt lat="42.6574" lon="-2.13656">
        <ele>454.2</ele>
        <time>2021-07-24 16:59:51</time>
      </trkpt>
      <trkpt lat="42.65729" lon="-2.13627">
        <ele>454.8</ele>
        <time>2021-07-24 16:59:55</time>
      </trkpt>
      <trkpt lat="42.65719" lon="-2.13598">
        <ele>454.2</ele>
        <time>2021-07-24 16:59:59</time>
      </trkpt>
      <trkpt lat="42.65708" lon="-2.1357">
        <ele>454.6</ele>
        <time>2021-07-24 17:00:03</time>
      </trkpt>
      <trkpt lat="42.65698" lon="-2.13542">
        <ele>454.8</ele>
        <time>2021-07-24 17:00:07</time>
      </trkpt>
      <trkpt lat="42.65688" lon="-2.13513">
        <ele>454</ele>
        <time>2021-07-24 17:00:11</time>
      </trkpt>
      <trkpt lat="42.65682" lon="-2.13482">
        <ele>453.4</ele>
        <time>2021-07-24 17:00:15</time>
      </trkpt>
      <trkpt lat="42.65678" lon="-2.1345">
        <ele>453.4</ele>
        <time>2021-07-24 17:00:19</time>
      </trkpt>
      <trkpt lat="42.65676" lon="-2.13421">
        <ele>453.6</ele>
        <time>2021-07-24 17:00:23</time>
      </trkpt>
      <trkpt lat="42.65676" lon="-2.1339">
        <ele>453</ele>
        <time>2021-07-24 17:00:27</time>
      </trkpt>
      <trkpt lat="42.65676" lon="-2.13359">
        <ele>453</ele>
        <time>2021-07-24 17:00:31</time>
      </trkpt>
      <trkpt lat="42.65675" lon="-2.13329">
        <ele>452.8</ele>
        <time>2021-07-24 17:00:35</time>
      </trkpt>
      <trkpt lat="42.65674" lon="-2.13298">
        <ele>452.4</ele>
        <time>2021-07-24 17:00:39</time>
      </trkpt>
      <trkpt lat="42.65674" lon="-2.13267">
        <ele>451.6</ele>
        <time>2021-07-24 17:00:43</time>
      </trkpt>
      <trkpt lat="42.65673" lon="-2.13237">
        <ele>452.2</ele>
        <time>2021-07-24 17:00:47</time>
      </trkpt>
      <trkpt lat="42.65672" lon="-2.13207">
        <ele>452.2</ele>
        <time>2021-07-24 17:00:51</time>
      </trkpt>
      <trkpt lat="42.65672" lon="-2.13177">
        <ele>451.6</ele>
        <time>2021-07-24 17:00:55</time>
      </trkpt>
      <trkpt lat="42.6567" lon="-2.13147">
        <ele>450.4</ele>
        <time>2021-07-24 17:00:59</time>
      </trkpt>
      <trkpt lat="42.65669" lon="-2.13117">
        <ele>450.8</ele>
        <time>2021-07-24 17:01:03</time>
      </trkpt>
      <trkpt lat="42.65669" lon="-2.13087">
        <ele>450.6</ele>
        <time>2021-07-24 17:01:07</time>
      </trkpt>
      <trkpt lat="42.65667" lon="-2.13058">
        <ele>451.2</ele>
        <time>2021-07-24 17:01:11</time>
      </trkpt>
      <trkpt lat="42.65666" lon="-2.13028">
        <ele>450.6</ele>
        <time>2021-07-24 17:01:15</time>
      </trkpt>
      <trkpt lat="42.65666" lon="-2.12999">
        <ele>450.4</ele>
        <time>2021-07-24 17:01:19</time>
      </trkpt>
      <trkpt lat="42.65666" lon="-2.12971">
        <ele>450.4</ele>
        <time>2021-07-24 17:01:23</time>
      </trkpt>
      <trkpt lat="42.65666" lon="-2.12942">
        <ele>450.2</ele>
        <time>2021-07-24 17:01:27</time>
      </trkpt>
      <trkpt lat="42.65666" lon="-2.12914">
        <ele>449.8</ele>
        <time>2021-07-24 17:01:31</time>
      </trkpt>
      <trkpt lat="42.65663" lon="-2.12888">
        <ele>450.8</ele>
        <time>2021-07-24 17:01:35</time>
      </trkpt>
      <trkpt lat="42.65662" lon="-2.12862">
        <ele>450.8</ele>
        <time>2021-07-24 17:01:39</time>
      </trkpt>
      <trkpt lat="42.65662" lon="-2.1284">
        <ele>454.2</ele>
        <time>2021-07-24 17:01:43</time>
      </trkpt>
      <trkpt lat="42.65662" lon="-2.12824">
        <ele>455.4</ele>
        <time>2021-07-24 17:01:47</time>
      </trkpt>
      <trkpt lat="42.65663" lon="-2.12813">
        <ele>456.2</ele>
        <time>2021-07-24 17:01:51</time>
      </trkpt>
      <trkpt lat="42.65663" lon="-2.12804">
        <ele>456.6</ele>
        <time>2021-07-24 17:01:55</time>
      </trkpt>
      <trkpt lat="42.65662" lon="-2.12792">
        <ele>457</ele>
        <time>2021-07-24 17:01:59</time>
      </trkpt>
      <trkpt lat="42.65665" lon="-2.12779">
        <ele>457.8</ele>
        <time>2021-07-24 17:02:03</time>
      </trkpt>
      <trkpt lat="42.65668" lon="-2.12771">
        <ele>458.4</ele>
        <time>2021-07-24 17:02:07</time>
      </trkpt>
      <trkpt lat="42.6567" lon="-2.12765">
        <ele>457</ele>
        <time>2021-07-24 17:02:11</time>
      </trkpt>
      <trkpt lat="42.65672" lon="-2.12753">
        <ele>455.8</ele>
        <time>2021-07-24 17:02:15</time>
      </trkpt>
      <trkpt lat="42.6568" lon="-2.12736">
        <ele>454.4</ele>
        <time>2021-07-24 17:02:19</time>
      </trkpt>
      <trkpt lat="42.65695" lon="-2.12719">
        <ele>451.6</ele>
        <time>2021-07-24 17:02:23</time>
      </trkpt>
      <trkpt lat="42.65711" lon="-2.12697">
        <ele>450.8</ele>
        <time>2021-07-24 17:02:27</time>
      </trkpt>
      <trkpt lat="42.65727" lon="-2.12676">
        <ele>450.2</ele>
        <time>2021-07-24 17:02:31</time>
      </trkpt>
      <trkpt lat="42.65742" lon="-2.12657">
        <ele>451</ele>
        <time>2021-07-24 17:02:35</time>
      </trkpt>
      <trkpt lat="42.65756" lon="-2.12641">
        <ele>451.4</ele>
        <time>2021-07-24 17:02:39</time>
      </trkpt>
      <trkpt lat="42.65768" lon="-2.12624">
        <ele>450.8</ele>
        <time>2021-07-24 17:02:43</time>
      </trkpt>
      <trkpt lat="42.65777" lon="-2.12604">
        <ele>450.2</ele>
        <time>2021-07-24 17:02:47</time>
      </trkpt>
      <trkpt lat="42.65786" lon="-2.12587">
        <ele>450.2</ele>
        <time>2021-07-24 17:02:51</time>
      </trkpt>
      <trkpt lat="42.65796" lon="-2.12566">
        <ele>450.4</ele>
        <time>2021-07-24 17:02:55</time>
      </trkpt>
      <trkpt lat="42.65805" lon="-2.12546">
        <ele>450.2</ele>
        <time>2021-07-24 17:02:59</time>
      </trkpt>
      <trkpt lat="42.65814" lon="-2.12525">
        <ele>450.4</ele>
        <time>2021-07-24 17:03:03</time>
      </trkpt>
      <trkpt lat="42.65823" lon="-2.12506">
        <ele>451</ele>
        <time>2021-07-24 17:03:07</time>
      </trkpt>
      <trkpt lat="42.65834" lon="-2.1249">
        <ele>451.4</ele>
        <time>2021-07-24 17:03:11</time>
      </trkpt>
      <trkpt lat="42.65845" lon="-2.12476">
        <ele>452</ele>
        <time>2021-07-24 17:03:15</time>
      </trkpt>
      <trkpt lat="42.65855" lon="-2.12459">
        <ele>452.4</ele>
        <time>2021-07-24 17:03:19</time>
      </trkpt>
      <trkpt lat="42.65863" lon="-2.12444">
        <ele>452.6</ele>
        <time>2021-07-24 17:03:23</time>
      </trkpt>
      <trkpt lat="42.65871" lon="-2.12429">
        <ele>453.2</ele>
        <time>2021-07-24 17:03:27</time>
      </trkpt>
      <trkpt lat="42.65878" lon="-2.12413">
        <ele>453</ele>
        <time>2021-07-24 17:03:31</time>
      </trkpt>
      <trkpt lat="42.65886" lon="-2.12396">
        <ele>452.4</ele>
        <time>2021-07-24 17:03:35</time>
      </trkpt>
      <trkpt lat="42.65891" lon="-2.12375">
        <ele>452.6</ele>
        <time>2021-07-24 17:03:39</time>
      </trkpt>
      <trkpt lat="42.65897" lon="-2.12353">
        <ele>452.4</ele>
        <time>2021-07-24 17:03:43</time>
      </trkpt>
      <trkpt lat="42.659" lon="-2.12329">
        <ele>451.2</ele>
        <time>2021-07-24 17:03:47</time>
      </trkpt>
      <trkpt lat="42.65906" lon="-2.12305">
        <ele>451.6</ele>
        <time>2021-07-24 17:03:51</time>
      </trkpt>
      <trkpt lat="42.65913" lon="-2.12282">
        <ele>452</ele>
        <time>2021-07-24 17:03:55</time>
      </trkpt>
      <trkpt lat="42.65918" lon="-2.12255">
        <ele>450.8</ele>
        <time>2021-07-24 17:03:59</time>
      </trkpt>
      <trkpt lat="42.65918" lon="-2.12223">
        <ele>450.2</ele>
        <time>2021-07-24 17:04:03</time>
      </trkpt>
      <trkpt lat="42.65918" lon="-2.12192">
        <ele>449</ele>
        <time>2021-07-24 17:04:07</time>
      </trkpt>
      <trkpt lat="42.65921" lon="-2.12163">
        <ele>450.4</ele>
        <time>2021-07-24 17:04:11</time>
      </trkpt>
      <trkpt lat="42.65922" lon="-2.12136">
        <ele>450</ele>
        <time>2021-07-24 17:04:15</time>
      </trkpt>
      <trkpt lat="42.65922" lon="-2.12108">
        <ele>450</ele>
        <time>2021-07-24 17:04:19</time>
      </trkpt>
      <trkpt lat="42.65922" lon="-2.1208">
        <ele>450</ele>
        <time>2021-07-24 17:04:23</time>
      </trkpt>
      <trkpt lat="42.65922" lon="-2.12052">
        <ele>449.2</ele>
        <time>2021-07-24 17:04:27</time>
      </trkpt>
      <trkpt lat="42.6592" lon="-2.12025">
        <ele>449</ele>
        <time>2021-07-24 17:04:31</time>
      </trkpt>
      <trkpt lat="42.6592" lon="-2.11998">
        <ele>448.6</ele>
        <time>2021-07-24 17:04:35</time>
      </trkpt>
      <trkpt lat="42.65923" lon="-2.11971">
        <ele>448.8</ele>
        <time>2021-07-24 17:04:39</time>
      </trkpt>
      <trkpt lat="42.65927" lon="-2.11944">
        <ele>448.6</ele>
        <time>2021-07-24 17:04:43</time>
      </trkpt>
      <trkpt lat="42.65931" lon="-2.11919">
        <ele>449.4</ele>
        <time>2021-07-24 17:04:47</time>
      </trkpt>
      <trkpt lat="42.65936" lon="-2.11895">
        <ele>449.4</ele>
        <time>2021-07-24 17:04:51</time>
      </trkpt>
      <trkpt lat="42.65944" lon="-2.11873">
        <ele>449.8</ele>
        <time>2021-07-24 17:04:55</time>
      </trkpt>
      <trkpt lat="42.65951" lon="-2.11852">
        <ele>450</ele>
        <time>2021-07-24 17:04:59</time>
      </trkpt>
      <trkpt lat="42.65958" lon="-2.1183">
        <ele>448.4</ele>
        <time>2021-07-24 17:05:03</time>
      </trkpt>
      <trkpt lat="42.65966" lon="-2.11806">
        <ele>449</ele>
        <time>2021-07-24 17:05:07</time>
      </trkpt>
      <trkpt lat="42.65975" lon="-2.11785">
        <ele>449</ele>
        <time>2021-07-24 17:05:11</time>
      </trkpt>
      <trkpt lat="42.65984" lon="-2.11764">
        <ele>448.8</ele>
        <time>2021-07-24 17:05:15</time>
      </trkpt>
      <trkpt lat="42.65994" lon="-2.11745">
        <ele>448.8</ele>
        <time>2021-07-24 17:05:19</time>
      </trkpt>
      <trkpt lat="42.66003" lon="-2.11726">
        <ele>447.4</ele>
        <time>2021-07-24 17:05:23</time>
      </trkpt>
      <trkpt lat="42.66011" lon="-2.1171">
        <ele>447.8</ele>
        <time>2021-07-24 17:05:27</time>
      </trkpt>
      <trkpt lat="42.66021" lon="-2.11694">
        <ele>447.6</ele>
        <time>2021-07-24 17:05:31</time>
      </trkpt>
      <trkpt lat="42.66032" lon="-2.11686">
        <ele>448.2</ele>
        <time>2021-07-24 17:05:35</time>
      </trkpt>
      <trkpt lat="42.66044" lon="-2.11684">
        <ele>448.2</ele>
        <time>2021-07-24 17:05:39</time>
      </trkpt>
      <trkpt lat="42.66057" lon="-2.11683">
        <ele>448.4</ele>
        <time>2021-07-24 17:05:43</time>
      </trkpt>
      <trkpt lat="42.66064" lon="-2.11669">
        <ele>449.6</ele>
        <time>2021-07-24 17:05:47</time>
      </trkpt>
      <trkpt lat="42.66063" lon="-2.11652">
        <ele>448.4</ele>
        <time>2021-07-24 17:05:51</time>
      </trkpt>
      <trkpt lat="42.66065" lon="-2.11634">
        <ele>449.4</ele>
        <time>2021-07-24 17:05:55</time>
      </trkpt>
      <trkpt lat="42.66073" lon="-2.11625">
        <ele>450.4</ele>
        <time>2021-07-24 17:05:59</time>
      </trkpt>
      <trkpt lat="42.66078" lon="-2.11616">
        <ele>451.2</ele>
        <time>2021-07-24 17:06:03</time>
      </trkpt>
      <trkpt lat="42.66079" lon="-2.11608">
        <ele>451.4</ele>
        <time>2021-07-24 17:06:07</time>
      </trkpt>
      <trkpt lat="42.66078" lon="-2.11597">
        <ele>452.6</ele>
        <time>2021-07-24 17:06:11</time>
      </trkpt>
      <trkpt lat="42.66076" lon="-2.11589">
        <ele>453.8</ele>
        <time>2021-07-24 17:06:15</time>
      </trkpt>
      <trkpt lat="42.66073" lon="-2.11581">
        <ele>455</ele>
        <time>2021-07-24 17:06:19</time>
      </trkpt>
      <trkpt lat="42.6607" lon="-2.11574">
        <ele>455.4</ele>
        <time>2021-07-24 17:06:23</time>
      </trkpt>
      <trkpt lat="42.66067" lon="-2.11565">
        <ele>456</ele>
        <time>2021-07-24 17:06:27</time>
      </trkpt>
      <trkpt lat="42.66067" lon="-2.11555">
        <ele>455.8</ele>
        <time>2021-07-24 17:06:31</time>
      </trkpt>
      <trkpt lat="42.66067" lon="-2.11544">
        <ele>457.4</ele>
        <time>2021-07-24 17:06:35</time>
      </trkpt>
      <trkpt lat="42.66069" lon="-2.11536">
        <ele>456.8</ele>
        <time>2021-07-24 17:06:39</time>
      </trkpt>
      <trkpt lat="42.66074" lon="-2.11528">
        <ele>457.6</ele>
        <time>2021-07-24 17:06:43</time>
      </trkpt>
      <trkpt lat="42.6608" lon="-2.11525">
        <ele>458</ele>
        <time>2021-07-24 17:06:47</time>
      </trkpt>
      <trkpt lat="42.66088" lon="-2.11525">
        <ele>457.8</ele>
        <time>2021-07-24 17:06:51</time>
      </trkpt>
      <trkpt lat="42.66095" lon="-2.11528">
        <ele>458.8</ele>
        <time>2021-07-24 17:06:55</time>
      </trkpt>
      <trkpt lat="42.66101" lon="-2.11532">
        <ele>458.4</ele>
        <time>2021-07-24 17:06:59</time>
      </trkpt>
      <trkpt lat="42.66108" lon="-2.11537">
        <ele>458.8</ele>
        <time>2021-07-24 17:07:03</time>
      </trkpt>
      <trkpt lat="42.66115" lon="-2.1154">
        <ele>460</ele>
        <time>2021-07-24 17:07:07</time>
      </trkpt>
      <trkpt lat="42.66122" lon="-2.1154">
        <ele>460.8</ele>
        <time>2021-07-24 17:07:11</time>
      </trkpt>
      <trkpt lat="42.66129" lon="-2.11538">
        <ele>461.6</ele>
        <time>2021-07-24 17:07:15</time>
      </trkpt>
      <trkpt lat="42.66137" lon="-2.11536">
        <ele>462.6</ele>
        <time>2021-07-24 17:07:19</time>
      </trkpt>
      <trkpt lat="42.66144" lon="-2.11535">
        <ele>463.6</ele>
        <time>2021-07-24 17:07:23</time>
      </trkpt>
      <trkpt lat="42.66152" lon="-2.11534">
        <ele>464.2</ele>
        <time>2021-07-24 17:07:27</time>
      </trkpt>
      <trkpt lat="42.66159" lon="-2.11533">
        <ele>464.4</ele>
        <time>2021-07-24 17:07:31</time>
      </trkpt>
      <trkpt lat="42.66165" lon="-2.11532">
        <ele>465.4</ele>
        <time>2021-07-24 17:07:35</time>
      </trkpt>
      <trkpt lat="42.66172" lon="-2.11531">
        <ele>465.2</ele>
        <time>2021-07-24 17:07:39</time>
      </trkpt>
      <trkpt lat="42.6618" lon="-2.1153">
        <ele>465.6</ele>
        <time>2021-07-24 17:07:43</time>
      </trkpt>
      <trkpt lat="42.66188" lon="-2.11528">
        <ele>466.2</ele>
        <time>2021-07-24 17:07:47</time>
      </trkpt>
      <trkpt lat="42.66195" lon="-2.11524">
        <ele>467.4</ele>
        <time>2021-07-24 17:07:51</time>
      </trkpt>
      <trkpt lat="42.66202" lon="-2.11523">
        <ele>468</ele>
        <time>2021-07-24 17:07:55</time>
      </trkpt>
      <trkpt lat="42.66209" lon="-2.1152">
        <ele>469</ele>
        <time>2021-07-24 17:07:59</time>
      </trkpt>
      <trkpt lat="42.66216" lon="-2.11518">
        <ele>469</ele>
        <time>2021-07-24 17:08:03</time>
      </trkpt>
      <trkpt lat="42.66224" lon="-2.11516">
        <ele>469.6</ele>
        <time>2021-07-24 17:08:07</time>
      </trkpt>
      <trkpt lat="42.66233" lon="-2.11517">
        <ele>470.2</ele>
        <time>2021-07-24 17:08:11</time>
      </trkpt>
      <trkpt lat="42.66242" lon="-2.11519">
        <ele>470.2</ele>
        <time>2021-07-24 17:08:15</time>
      </trkpt>
      <trkpt lat="42.6625" lon="-2.11519">
        <ele>472.2</ele>
        <time>2021-07-24 17:08:19</time>
      </trkpt>
      <trkpt lat="42.66258" lon="-2.11517">
        <ele>472</ele>
        <time>2021-07-24 17:08:23</time>
      </trkpt>
      <trkpt lat="42.66264" lon="-2.11512">
        <ele>472.8</ele>
        <time>2021-07-24 17:08:27</time>
      </trkpt>
      <trkpt lat="42.66268" lon="-2.11505">
        <ele>473.4</ele>
        <time>2021-07-24 17:08:31</time>
      </trkpt>
      <trkpt lat="42.66273" lon="-2.11498">
        <ele>474.2</ele>
        <time>2021-07-24 17:08:35</time>
      </trkpt>
      <trkpt lat="42.66278" lon="-2.1149">
        <ele>474.4</ele>
        <time>2021-07-24 17:08:39</time>
      </trkpt>
      <trkpt lat="42.66282" lon="-2.11481">
        <ele>475.6</ele>
        <time>2021-07-24 17:08:43</time>
      </trkpt>
      <trkpt lat="42.66285" lon="-2.11473">
        <ele>476.2</ele>
        <time>2021-07-24 17:08:47</time>
      </trkpt>
      <trkpt lat="42.66289" lon="-2.11465">
        <ele>476.2</ele>
        <time>2021-07-24 17:08:51</time>
      </trkpt>
      <trkpt lat="42.66294" lon="-2.11456">
        <ele>476.8</ele>
        <time>2021-07-24 17:08:55</time>
      </trkpt>
      <trkpt lat="42.66298" lon="-2.11448">
        <ele>476.8</ele>
        <time>2021-07-24 17:08:59</time>
      </trkpt>
      <trkpt lat="42.66304" lon="-2.11441">
        <ele>477.6</ele>
        <time>2021-07-24 17:09:03</time>
      </trkpt>
      <trkpt lat="42.66309" lon="-2.11435">
        <ele>477.6</ele>
        <time>2021-07-24 17:09:07</time>
      </trkpt>
      <trkpt lat="42.66316" lon="-2.11429">
        <ele>478.4</ele>
        <time>2021-07-24 17:09:11</time>
      </trkpt>
      <trkpt lat="42.66322" lon="-2.11424">
        <ele>478.2</ele>
        <time>2021-07-24 17:09:15</time>
      </trkpt>
      <trkpt lat="42.6633" lon="-2.1142">
        <ele>478.4</ele>
        <time>2021-07-24 17:09:19</time>
      </trkpt>
      <trkpt lat="42.66337" lon="-2.11416">
        <ele>479.4</ele>
        <time>2021-07-24 17:09:23</time>
      </trkpt>
      <trkpt lat="42.66343" lon="-2.11411">
        <ele>480.2</ele>
        <time>2021-07-24 17:09:27</time>
      </trkpt>
      <trkpt lat="42.66349" lon="-2.11404">
        <ele>480.4</ele>
        <time>2021-07-24 17:09:31</time>
      </trkpt>
      <trkpt lat="42.66353" lon="-2.11395">
        <ele>481.4</ele>
        <time>2021-07-24 17:09:35</time>
      </trkpt>
      <trkpt lat="42.66357" lon="-2.11385">
        <ele>481</ele>
        <time>2021-07-24 17:09:39</time>
      </trkpt>
      <trkpt lat="42.66361" lon="-2.11375">
        <ele>481.2</ele>
        <time>2021-07-24 17:09:43</time>
      </trkpt>
      <trkpt lat="42.66365" lon="-2.11366">
        <ele>480.2</ele>
        <time>2021-07-24 17:09:47</time>
      </trkpt>
      <trkpt lat="42.6637" lon="-2.11357">
        <ele>481</ele>
        <time>2021-07-24 17:09:51</time>
      </trkpt>
      <trkpt lat="42.66376" lon="-2.1135">
        <ele>482</ele>
        <time>2021-07-24 17:09:55</time>
      </trkpt>
      <trkpt lat="42.66379" lon="-2.11341">
        <ele>482.2</ele>
        <time>2021-07-24 17:09:59</time>
      </trkpt>
      <trkpt lat="42.66381" lon="-2.11332">
        <ele>483</ele>
        <time>2021-07-24 17:10:03</time>
      </trkpt>
      <trkpt lat="42.66379" lon="-2.11321">
        <ele>483.2</ele>
        <time>2021-07-24 17:10:07</time>
      </trkpt>
      <trkpt lat="42.66376" lon="-2.11312">
        <ele>483.6</ele>
        <time>2021-07-24 17:10:11</time>
      </trkpt>
      <trkpt lat="42.66371" lon="-2.11304">
        <ele>484</ele>
        <time>2021-07-24 17:10:15</time>
      </trkpt>
      <trkpt lat="42.66365" lon="-2.11296">
        <ele>483.6</ele>
        <time>2021-07-24 17:10:19</time>
      </trkpt>
      <trkpt lat="42.66359" lon="-2.11287">
        <ele>483.6</ele>
        <time>2021-07-24 17:10:23</time>
      </trkpt>
      <trkpt lat="42.66353" lon="-2.11276">
        <ele>482.8</ele>
        <time>2021-07-24 17:10:27</time>
      </trkpt>
      <trkpt lat="42.66345" lon="-2.11262">
        <ele>483</ele>
        <time>2021-07-24 17:10:31</time>
      </trkpt>
      <trkpt lat="42.66336" lon="-2.11246">
        <ele>482.4</ele>
        <time>2021-07-24 17:10:35</time>
      </trkpt>
      <trkpt lat="42.66326" lon="-2.11228">
        <ele>483</ele>
        <time>2021-07-24 17:10:39</time>
      </trkpt>
      <trkpt lat="42.66315" lon="-2.11212">
        <ele>483</ele>
        <time>2021-07-24 17:10:43</time>
      </trkpt>
      <trkpt lat="42.66307" lon="-2.11195">
        <ele>482.4</ele>
        <time>2021-07-24 17:10:47</time>
      </trkpt>
      <trkpt lat="42.66298" lon="-2.11177">
        <ele>482.4</ele>
        <time>2021-07-24 17:10:51</time>
      </trkpt>
      <trkpt lat="42.66289" lon="-2.11162">
        <ele>482.4</ele>
        <time>2021-07-24 17:10:55</time>
      </trkpt>
      <trkpt lat="42.66281" lon="-2.11147">
        <ele>482.2</ele>
        <time>2021-07-24 17:10:59</time>
      </trkpt>
      <trkpt lat="42.66275" lon="-2.11133">
        <ele>481.8</ele>
        <time>2021-07-24 17:11:03</time>
      </trkpt>
      <trkpt lat="42.66269" lon="-2.11115">
        <ele>481</ele>
        <time>2021-07-24 17:11:07</time>
      </trkpt>
      <trkpt lat="42.66263" lon="-2.11095">
        <ele>479.8</ele>
        <time>2021-07-24 17:11:11</time>
      </trkpt>
      <trkpt lat="42.66254" lon="-2.11073">
        <ele>480</ele>
        <time>2021-07-24 17:11:15</time>
      </trkpt>
      <trkpt lat="42.66243" lon="-2.11051">
        <ele>480</ele>
        <time>2021-07-24 17:11:19</time>
      </trkpt>
      <trkpt lat="42.66233" lon="-2.11027">
        <ele>477.8</ele>
        <time>2021-07-24 17:11:23</time>
      </trkpt>
      <trkpt lat="42.66228" lon="-2.11002">
        <ele>477.8</ele>
        <time>2021-07-24 17:11:27</time>
      </trkpt>
      <trkpt lat="42.66228" lon="-2.10976">
        <ele>477</ele>
        <time>2021-07-24 17:11:31</time>
      </trkpt>
      <trkpt lat="42.66235" lon="-2.10948">
        <ele>473.6</ele>
        <time>2021-07-24 17:11:35</time>
      </trkpt>
      <trkpt lat="42.66246" lon="-2.10921">
        <ele>473.2</ele>
        <time>2021-07-24 17:11:39</time>
      </trkpt>
      <trkpt lat="42.66253" lon="-2.1089">
        <ele>469</ele>
        <time>2021-07-24 17:11:43</time>
      </trkpt>
      <trkpt lat="42.66264" lon="-2.10854">
        <ele>470</ele>
        <time>2021-07-24 17:11:47</time>
      </trkpt>
      <trkpt lat="42.66277" lon="-2.10824">
        <ele>472.4</ele>
        <time>2021-07-24 17:11:51</time>
      </trkpt>
      <trkpt lat="42.6629" lon="-2.10806">
        <ele>474.2</ele>
        <time>2021-07-24 17:11:55</time>
      </trkpt>
      <trkpt lat="42.66297" lon="-2.10798">
        <ele>474.4</ele>
        <time>2021-07-24 17:11:59</time>
      </trkpt>
      <trkpt lat="42.66301" lon="-2.10794">
        <ele>475</ele>
        <time>2021-07-24 17:12:03</time>
      </trkpt>
      <trkpt lat="42.66305" lon="-2.10787">
        <ele>475</ele>
        <time>2021-07-24 17:12:07</time>
      </trkpt>
      <trkpt lat="42.66309" lon="-2.10776">
        <ele>474</ele>
        <time>2021-07-24 17:12:11</time>
      </trkpt>
      <trkpt lat="42.66315" lon="-2.10759">
        <ele>473.4</ele>
        <time>2021-07-24 17:12:15</time>
      </trkpt>
      <trkpt lat="42.66322" lon="-2.10742">
        <ele>472.2</ele>
        <time>2021-07-24 17:12:19</time>
      </trkpt>
      <trkpt lat="42.66327" lon="-2.10728">
        <ele>471</ele>
        <time>2021-07-24 17:12:23</time>
      </trkpt>
      <trkpt lat="42.66334" lon="-2.10719">
        <ele>472.2</ele>
        <time>2021-07-24 17:12:27</time>
      </trkpt>
      <trkpt lat="42.66334" lon="-2.10719">
        <ele>472.6</ele>
        <time>2021-07-24 17:12:31</time>
      </trkpt>
      <trkpt lat="42.66334" lon="-2.10719">
        <ele>472.6</ele>
        <time>2021-07-24 17:12:35</time>
      </trkpt>
      <trkpt lat="42.66336" lon="-2.10715">
        <ele>472.2</ele>
        <time>2021-07-24 17:12:39</time>
      </trkpt>
      <trkpt lat="42.66343" lon="-2.10708">
        <ele>473</ele>
        <time>2021-07-24 17:12:43</time>
      </trkpt>
      <trkpt lat="42.66348" lon="-2.10698">
        <ele>473.2</ele>
        <time>2021-07-24 17:12:47</time>
      </trkpt>
      <trkpt lat="42.66353" lon="-2.10689">
        <ele>473.4</ele>
        <time>2021-07-24 17:12:51</time>
      </trkpt>
      <trkpt lat="42.66353" lon="-2.10689">
        <ele>473.6</ele>
        <time>2021-07-24 17:12:55</time>
      </trkpt>
      <trkpt lat="42.66353" lon="-2.10689">
        <ele>473.8</ele>
        <time>2021-07-24 17:12:59</time>
      </trkpt>
      <trkpt lat="42.66353" lon="-2.10689">
        <ele>473.6</ele>
        <time>2021-07-24 17:13:03</time>
      </trkpt>
      <trkpt lat="42.66353" lon="-2.10689">
        <ele>473.4</ele>
        <time>2021-07-24 17:13:07</time>
      </trkpt>
      <trkpt lat="42.66353" lon="-2.10689">
        <ele>473.6</ele>
        <time>2021-07-24 17:13:11</time>
      </trkpt>
      <trkpt lat="42.66353" lon="-2.10689">
        <ele>473.8</ele>
        <time>2021-07-24 17:13:15</time>
      </trkpt>
      <trkpt lat="42.66353" lon="-2.10689">
        <ele>473.6</ele>
        <time>2021-07-24 17:13:19</time>
      </trkpt>
      <trkpt lat="42.66353" lon="-2.10689">
        <ele>473.6</ele>
        <time>2021-07-24 17:13:23</time>
      </trkpt>
      <trkpt lat="42.66353" lon="-2.10689">
        <ele>473.4</ele>
        <time>2021-07-24 17:13:27</time>
      </trkpt>
      <trkpt lat="42.66353" lon="-2.10689">
        <ele>473.6</ele>
        <time>2021-07-24 17:13:31</time>
      </trkpt>
      <trkpt lat="42.66353" lon="-2.10689">
        <ele>473.2</ele>
        <time>2021-07-24 17:13:35</time>
      </trkpt>
      <trkpt lat="42.66353" lon="-2.10689">
        <ele>473.4</ele>
        <time>2021-07-24 17:13:39</time>
      </trkpt>
      <trkpt lat="42.66353" lon="-2.10689">
        <ele>473.2</ele>
        <time>2021-07-24 17:13:43</time>
      </trkpt>
      <trkpt lat="42.66353" lon="-2.10689">
        <ele>473.6</ele>
        <time>2021-07-24 17:13:47</time>
      </trkpt>
      <trkpt lat="42.66353" lon="-2.10689">
        <ele>473.6</ele>
        <time>2021-07-24 17:13:51</time>
      </trkpt>
      <trkpt lat="42.66353" lon="-2.10689">
        <ele>473.4</ele>
        <time>2021-07-24 17:13:55</time>
      </trkpt>
      <trkpt lat="42.66353" lon="-2.10689">
        <ele>473.6</ele>
        <time>2021-07-24 17:13:59</time>
      </trkpt>
      <trkpt lat="42.66353" lon="-2.10689">
        <ele>472.8</ele>
        <time>2021-07-24 17:14:03</time>
      </trkpt>
      <trkpt lat="42.66353" lon="-2.10689">
        <ele>474.4</ele>
        <time>2021-07-24 17:14:07</time>
      </trkpt>
      <trkpt lat="42.66354" lon="-2.10685">
        <ele>473</ele>
        <time>2021-07-24 17:14:11</time>
      </trkpt>
      <trkpt lat="42.66354" lon="-2.10685">
        <ele>473.6</ele>
        <time>2021-07-24 17:14:15</time>
      </trkpt>
      <trkpt lat="42.66356" lon="-2.10683">
        <ele>473</ele>
        <time>2021-07-24 17:14:19</time>
      </trkpt>
      <trkpt lat="42.6636" lon="-2.10679">
        <ele>472.8</ele>
        <time>2021-07-24 17:14:23</time>
      </trkpt>
      <trkpt lat="42.66362" lon="-2.10673">
        <ele>473.6</ele>
        <time>2021-07-24 17:14:27</time>
      </trkpt>
      <trkpt lat="42.66366" lon="-2.10668">
        <ele>474.4</ele>
        <time>2021-07-24 17:14:31</time>
      </trkpt>
      <trkpt lat="42.66371" lon="-2.10663">
        <ele>475.2</ele>
        <time>2021-07-24 17:14:35</time>
      </trkpt>
      <trkpt lat="42.66376" lon="-2.10656">
        <ele>475.6</ele>
        <time>2021-07-24 17:14:39</time>
      </trkpt>
      <trkpt lat="42.66381" lon="-2.1065">
        <ele>476.2</ele>
        <time>2021-07-24 17:14:43</time>
      </trkpt>
      <trkpt lat="42.66387" lon="-2.10645">
        <ele>476.6</ele>
        <time>2021-07-24 17:14:47</time>
      </trkpt>
      <trkpt lat="42.66391" lon="-2.1064">
        <ele>476.2</ele>
        <time>2021-07-24 17:14:51</time>
      </trkpt>
      <trkpt lat="42.66396" lon="-2.10634">
        <ele>477</ele>
        <time>2021-07-24 17:14:55</time>
      </trkpt>
      <trkpt lat="42.66401" lon="-2.10628">
        <ele>479</ele>
        <time>2021-07-24 17:14:59</time>
      </trkpt>
      <trkpt lat="42.66405" lon="-2.1062">
        <ele>480.4</ele>
        <time>2021-07-24 17:15:03</time>
      </trkpt>
      <trkpt lat="42.66407" lon="-2.10612">
        <ele>481.4</ele>
        <time>2021-07-24 17:15:07</time>
      </trkpt>
      <trkpt lat="42.66406" lon="-2.10603">
        <ele>482</ele>
        <time>2021-07-24 17:15:11</time>
      </trkpt>
      <trkpt lat="42.66404" lon="-2.10595">
        <ele>483</ele>
        <time>2021-07-24 17:15:15</time>
      </trkpt>
      <trkpt lat="42.66402" lon="-2.10589">
        <ele>483</ele>
        <time>2021-07-24 17:15:19</time>
      </trkpt>
      <trkpt lat="42.66399" lon="-2.10581">
        <ele>483.4</ele>
        <time>2021-07-24 17:15:23</time>
      </trkpt>
      <trkpt lat="42.66396" lon="-2.10573">
        <ele>483.6</ele>
        <time>2021-07-24 17:15:27</time>
      </trkpt>
      <trkpt lat="42.66393" lon="-2.10564">
        <ele>483.6</ele>
        <time>2021-07-24 17:15:31</time>
      </trkpt>
      <trkpt lat="42.66394" lon="-2.10552">
        <ele>483.6</ele>
        <time>2021-07-24 17:15:35</time>
      </trkpt>
      <trkpt lat="42.66398" lon="-2.10542">
        <ele>484.2</ele>
        <time>2021-07-24 17:15:39</time>
      </trkpt>
      <trkpt lat="42.66402" lon="-2.10534">
        <ele>484.8</ele>
        <time>2021-07-24 17:15:43</time>
      </trkpt>
      <trkpt lat="42.66405" lon="-2.10525">
        <ele>485.8</ele>
        <time>2021-07-24 17:15:47</time>
      </trkpt>
      <trkpt lat="42.6641" lon="-2.10518">
        <ele>486.2</ele>
        <time>2021-07-24 17:15:51</time>
      </trkpt>
      <trkpt lat="42.66415" lon="-2.1051">
        <ele>486.4</ele>
        <time>2021-07-24 17:15:55</time>
      </trkpt>
      <trkpt lat="42.66419" lon="-2.10503">
        <ele>487.6</ele>
        <time>2021-07-24 17:15:59</time>
      </trkpt>
      <trkpt lat="42.66424" lon="-2.10495">
        <ele>488</ele>
        <time>2021-07-24 17:16:03</time>
      </trkpt>
      <trkpt lat="42.66428" lon="-2.10487">
        <ele>488</ele>
        <time>2021-07-24 17:16:07</time>
      </trkpt>
      <trkpt lat="42.66432" lon="-2.1048">
        <ele>489.4</ele>
        <time>2021-07-24 17:16:11</time>
      </trkpt>
      <trkpt lat="42.66435" lon="-2.10473">
        <ele>489.4</ele>
        <time>2021-07-24 17:16:15</time>
      </trkpt>
      <trkpt lat="42.66439" lon="-2.10466">
        <ele>489.8</ele>
        <time>2021-07-24 17:16:19</time>
      </trkpt>
      <trkpt lat="42.66443" lon="-2.1046">
        <ele>491</ele>
        <time>2021-07-24 17:16:23</time>
      </trkpt>
      <trkpt lat="42.66447" lon="-2.10452">
        <ele>490.8</ele>
        <time>2021-07-24 17:16:27</time>
      </trkpt>
      <trkpt lat="42.66451" lon="-2.10445">
        <ele>491.4</ele>
        <time>2021-07-24 17:16:31</time>
      </trkpt>
      <trkpt lat="42.66454" lon="-2.10435">
        <ele>491.8</ele>
        <time>2021-07-24 17:16:35</time>
      </trkpt>
      <trkpt lat="42.66456" lon="-2.10426">
        <ele>493.2</ele>
        <time>2021-07-24 17:16:39</time>
      </trkpt>
      <trkpt lat="42.66459" lon="-2.10415">
        <ele>494</ele>
        <time>2021-07-24 17:16:43</time>
      </trkpt>
      <trkpt lat="42.66461" lon="-2.10406">
        <ele>495.2</ele>
        <time>2021-07-24 17:16:47</time>
      </trkpt>
      <trkpt lat="42.66462" lon="-2.10396">
        <ele>496.2</ele>
        <time>2021-07-24 17:16:51</time>
      </trkpt>
      <trkpt lat="42.66464" lon="-2.10388">
        <ele>496.6</ele>
        <time>2021-07-24 17:16:55</time>
      </trkpt>
      <trkpt lat="42.66465" lon="-2.10381">
        <ele>497.8</ele>
        <time>2021-07-24 17:16:59</time>
      </trkpt>
      <trkpt lat="42.66467" lon="-2.10372">
        <ele>498.4</ele>
        <time>2021-07-24 17:17:03</time>
      </trkpt>
      <trkpt lat="42.66469" lon="-2.10364">
        <ele>498.8</ele>
        <time>2021-07-24 17:17:07</time>
      </trkpt>
      <trkpt lat="42.66469" lon="-2.10355">
        <ele>499.2</ele>
        <time>2021-07-24 17:17:11</time>
      </trkpt>
      <trkpt lat="42.66468" lon="-2.10347">
        <ele>500</ele>
        <time>2021-07-24 17:17:15</time>
      </trkpt>
      <trkpt lat="42.66468" lon="-2.10338">
        <ele>500.8</ele>
        <time>2021-07-24 17:17:19</time>
      </trkpt>
      <trkpt lat="42.66467" lon="-2.10329">
        <ele>501.4</ele>
        <time>2021-07-24 17:17:23</time>
      </trkpt>
      <trkpt lat="42.66468" lon="-2.1032">
        <ele>501.4</ele>
        <time>2021-07-24 17:17:27</time>
      </trkpt>
      <trkpt lat="42.6647" lon="-2.10312">
        <ele>501.8</ele>
        <time>2021-07-24 17:17:31</time>
      </trkpt>
      <trkpt lat="42.66473" lon="-2.10304">
        <ele>502.8</ele>
        <time>2021-07-24 17:17:35</time>
      </trkpt>
      <trkpt lat="42.66476" lon="-2.10296">
        <ele>502.8</ele>
        <time>2021-07-24 17:17:39</time>
      </trkpt>
      <trkpt lat="42.66479" lon="-2.10288">
        <ele>502.8</ele>
        <time>2021-07-24 17:17:43</time>
      </trkpt>
      <trkpt lat="42.66481" lon="-2.10281">
        <ele>503.8</ele>
        <time>2021-07-24 17:17:47</time>
      </trkpt>
      <trkpt lat="42.66483" lon="-2.10272">
        <ele>504.8</ele>
        <time>2021-07-24 17:17:51</time>
      </trkpt>
      <trkpt lat="42.66487" lon="-2.10265">
        <ele>505.8</ele>
        <time>2021-07-24 17:17:55</time>
      </trkpt>
      <trkpt lat="42.66494" lon="-2.10261">
        <ele>505.6</ele>
        <time>2021-07-24 17:17:59</time>
      </trkpt>
      <trkpt lat="42.665" lon="-2.10255">
        <ele>505</ele>
        <time>2021-07-24 17:18:03</time>
      </trkpt>
      <trkpt lat="42.66507" lon="-2.10247">
        <ele>505.6</ele>
        <time>2021-07-24 17:18:07</time>
      </trkpt>
      <trkpt lat="42.66512" lon="-2.10237">
        <ele>505.6</ele>
        <time>2021-07-24 17:18:11</time>
      </trkpt>
      <trkpt lat="42.66517" lon="-2.10226">
        <ele>504.8</ele>
        <time>2021-07-24 17:18:15</time>
      </trkpt>
      <trkpt lat="42.66525" lon="-2.10216">
        <ele>504.6</ele>
        <time>2021-07-24 17:18:19</time>
      </trkpt>
      <trkpt lat="42.66534" lon="-2.10206">
        <ele>505.6</ele>
        <time>2021-07-24 17:18:23</time>
      </trkpt>
      <trkpt lat="42.66541" lon="-2.10199">
        <ele>505.6</ele>
        <time>2021-07-24 17:18:27</time>
      </trkpt>
      <trkpt lat="42.6655" lon="-2.10195">
        <ele>505.8</ele>
        <time>2021-07-24 17:18:31</time>
      </trkpt>
      <trkpt lat="42.66557" lon="-2.10195">
        <ele>505.2</ele>
        <time>2021-07-24 17:18:35</time>
      </trkpt>
      <trkpt lat="42.66565" lon="-2.10201">
        <ele>506.4</ele>
        <time>2021-07-24 17:18:39</time>
      </trkpt>
      <trkpt lat="42.66575" lon="-2.10208">
        <ele>506</ele>
        <time>2021-07-24 17:18:43</time>
      </trkpt>
      <trkpt lat="42.66587" lon="-2.10214">
        <ele>503.4</ele>
        <time>2021-07-24 17:18:47</time>
      </trkpt>
      <trkpt lat="42.66601" lon="-2.1022">
        <ele>503</ele>
        <time>2021-07-24 17:18:51</time>
      </trkpt>
      <trkpt lat="42.66612" lon="-2.10227">
        <ele>502.2</ele>
        <time>2021-07-24 17:18:55</time>
      </trkpt>
      <trkpt lat="42.66619" lon="-2.10238">
        <ele>501.6</ele>
        <time>2021-07-24 17:18:59</time>
      </trkpt>
      <trkpt lat="42.66629" lon="-2.10246">
        <ele>499</ele>
        <time>2021-07-24 17:19:03</time>
      </trkpt>
      <trkpt lat="42.66641" lon="-2.10246">
        <ele>498.8</ele>
        <time>2021-07-24 17:19:07</time>
      </trkpt>
      <trkpt lat="42.66653" lon="-2.10254">
        <ele>497.8</ele>
        <time>2021-07-24 17:19:11</time>
      </trkpt>
      <trkpt lat="42.66668" lon="-2.10262">
        <ele>498.4</ele>
        <time>2021-07-24 17:19:15</time>
      </trkpt>
      <trkpt lat="42.66682" lon="-2.10271">
        <ele>497.4</ele>
        <time>2021-07-24 17:19:19</time>
      </trkpt>
      <trkpt lat="42.66695" lon="-2.10256">
        <ele>497</ele>
        <time>2021-07-24 17:19:23</time>
      </trkpt>
      <trkpt lat="42.66703" lon="-2.10238">
        <ele>496.2</ele>
        <time>2021-07-24 17:19:27</time>
      </trkpt>
      <trkpt lat="42.66703" lon="-2.1022">
        <ele>497</ele>
        <time>2021-07-24 17:19:31</time>
      </trkpt>
      <trkpt lat="42.66701" lon="-2.10204">
        <ele>496.8</ele>
        <time>2021-07-24 17:19:35</time>
      </trkpt>
      <trkpt lat="42.66704" lon="-2.1019">
        <ele>496</ele>
        <time>2021-07-24 17:19:39</time>
      </trkpt>
      <trkpt lat="42.66704" lon="-2.1019">
        <ele>497</ele>
        <time>2021-07-24 17:19:43</time>
      </trkpt>
      <trkpt lat="42.66704" lon="-2.1019">
        <ele>496</ele>
        <time>2021-07-24 17:19:47</time>
      </trkpt>
      <trkpt lat="42.66704" lon="-2.1019">
        <ele>497</ele>
        <time>2021-07-24 17:19:51</time>
      </trkpt>
      <trkpt lat="42.66704" lon="-2.1019">
        <ele>496.6</ele>
        <time>2021-07-24 17:19:55</time>
      </trkpt>
      <trkpt lat="42.66704" lon="-2.1019">
        <ele>496.6</ele>
        <time>2021-07-24 17:19:59</time>
      </trkpt>
      <trkpt lat="42.66704" lon="-2.1019">
        <ele>495.6</ele>
        <time>2021-07-24 17:20:03</time>
      </trkpt>
      <trkpt lat="42.66704" lon="-2.1019">
        <ele>495.8</ele>
        <time>2021-07-24 17:20:07</time>
      </trkpt>
      <trkpt lat="42.66704" lon="-2.1019">
        <ele>496.6</ele>
        <time>2021-07-24 17:20:11</time>
      </trkpt>
      <trkpt lat="42.66704" lon="-2.1019">
        <ele>496.4</ele>
        <time>2021-07-24 17:20:15</time>
      </trkpt>
      <trkpt lat="42.66704" lon="-2.1019">
        <ele>496.8</ele>
        <time>2021-07-24 17:20:19</time>
      </trkpt>
      <trkpt lat="42.66704" lon="-2.1019">
        <ele>496.6</ele>
        <time>2021-07-24 17:20:23</time>
      </trkpt>
      <trkpt lat="42.66704" lon="-2.1019">
        <ele>495.4</ele>
        <time>2021-07-24 17:20:27</time>
      </trkpt>
      <trkpt lat="42.66704" lon="-2.1019">
        <ele>496</ele>
        <time>2021-07-24 17:20:31</time>
      </trkpt>
      <trkpt lat="42.66704" lon="-2.1019">
        <ele>496.2</ele>
        <time>2021-07-24 17:20:35</time>
      </trkpt>
      <trkpt lat="42.66704" lon="-2.1019">
        <ele>496</ele>
        <time>2021-07-24 17:20:39</time>
      </trkpt>
      <trkpt lat="42.66704" lon="-2.1019">
        <ele>496</ele>
        <time>2021-07-24 17:20:43</time>
      </trkpt>
      <trkpt lat="42.66706" lon="-2.10186">
        <ele>497.2</ele>
        <time>2021-07-24 17:20:47</time>
      </trkpt>
      <trkpt lat="42.66708" lon="-2.10179">
        <ele>496.8</ele>
        <time>2021-07-24 17:20:51</time>
      </trkpt>
      <trkpt lat="42.66713" lon="-2.10171">
        <ele>497.4</ele>
        <time>2021-07-24 17:20:55</time>
      </trkpt>
      <trkpt lat="42.66718" lon="-2.1017">
        <ele>497.2</ele>
        <time>2021-07-24 17:20:59</time>
      </trkpt>
      <trkpt lat="42.66718" lon="-2.1017">
        <ele>497.4</ele>
        <time>2021-07-24 17:21:03</time>
      </trkpt>
      <trkpt lat="42.66718" lon="-2.1017">
        <ele>497.6</ele>
        <time>2021-07-24 17:21:07</time>
      </trkpt>
      <trkpt lat="42.66718" lon="-2.1017">
        <ele>496.8</ele>
        <time>2021-07-24 17:21:11</time>
      </trkpt>
      <trkpt lat="42.66718" lon="-2.1017">
        <ele>497.2</ele>
        <time>2021-07-24 17:21:15</time>
      </trkpt>
      <trkpt lat="42.66718" lon="-2.1017">
        <ele>497.2</ele>
        <time>2021-07-24 17:21:19</time>
      </trkpt>
      <trkpt lat="42.66718" lon="-2.1017">
        <ele>497.4</ele>
        <time>2021-07-24 17:21:23</time>
      </trkpt>
      <trkpt lat="42.66718" lon="-2.1017">
        <ele>497.4</ele>
        <time>2021-07-24 17:21:27</time>
      </trkpt>
      <trkpt lat="42.66718" lon="-2.1017">
        <ele>497</ele>
        <time>2021-07-24 17:21:31</time>
      </trkpt>
      <trkpt lat="42.66718" lon="-2.1017">
        <ele>496.8</ele>
        <time>2021-07-24 17:21:35</time>
      </trkpt>
      <trkpt lat="42.66718" lon="-2.1017">
        <ele>497.2</ele>
        <time>2021-07-24 17:21:39</time>
      </trkpt>
      <trkpt lat="42.66718" lon="-2.1017">
        <ele>497.4</ele>
        <time>2021-07-24 17:21:43</time>
      </trkpt>
      <trkpt lat="42.66718" lon="-2.1017">
        <ele>496.6</ele>
        <time>2021-07-24 17:21:47</time>
      </trkpt>
      <trkpt lat="42.66718" lon="-2.1017">
        <ele>497</ele>
        <time>2021-07-24 17:21:51</time>
      </trkpt>
      <trkpt lat="42.66718" lon="-2.1017">
        <ele>497.4</ele>
        <time>2021-07-24 17:21:55</time>
      </trkpt>
      <trkpt lat="42.66718" lon="-2.1017">
        <ele>497</ele>
        <time>2021-07-24 17:21:59</time>
      </trkpt>
      <trkpt lat="42.66718" lon="-2.1017">
        <ele>496.8</ele>
        <time>2021-07-24 17:22:03</time>
      </trkpt>
      <trkpt lat="42.66718" lon="-2.1017">
        <ele>498</ele>
        <time>2021-07-24 17:22:07</time>
      </trkpt>
      <trkpt lat="42.66718" lon="-2.1017">
        <ele>498.4</ele>
        <time>2021-07-24 17:22:11</time>
      </trkpt>
      <trkpt lat="42.66718" lon="-2.1017">
        <ele>498</ele>
        <time>2021-07-24 17:22:15</time>
      </trkpt>
      <trkpt lat="42.66719" lon="-2.10167">
        <ele>497.2</ele>
        <time>2021-07-24 17:22:19</time>
      </trkpt>
      <trkpt lat="42.66721" lon="-2.10159">
        <ele>496.6</ele>
        <time>2021-07-24 17:22:23</time>
      </trkpt>
      <trkpt lat="42.66725" lon="-2.10151">
        <ele>495.4</ele>
        <time>2021-07-24 17:22:27</time>
      </trkpt>
      <trkpt lat="42.66729" lon="-2.10135">
        <ele>493.4</ele>
        <time>2021-07-24 17:22:31</time>
      </trkpt>
      <trkpt lat="42.66729" lon="-2.10106">
        <ele>490.4</ele>
        <time>2021-07-24 17:22:35</time>
      </trkpt>
      <trkpt lat="42.66727" lon="-2.10074">
        <ele>490.2</ele>
        <time>2021-07-24 17:22:39</time>
      </trkpt>
      <trkpt lat="42.66732" lon="-2.10044">
        <ele>489.2</ele>
        <time>2021-07-24 17:22:43</time>
      </trkpt>
      <trkpt lat="42.66737" lon="-2.10014">
        <ele>488.2</ele>
        <time>2021-07-24 17:22:47</time>
      </trkpt>
      <trkpt lat="42.66735" lon="-2.09981">
        <ele>487.6</ele>
        <time>2021-07-24 17:22:51</time>
      </trkpt>
      <trkpt lat="42.66736" lon="-2.09949">
        <ele>486.6</ele>
        <time>2021-07-24 17:22:55</time>
      </trkpt>
      <trkpt lat="42.66744" lon="-2.09922">
        <ele>486.6</ele>
        <time>2021-07-24 17:22:59</time>
      </trkpt>
      <trkpt lat="42.6675" lon="-2.09896">
        <ele>486</ele>
        <time>2021-07-24 17:23:03</time>
      </trkpt>
      <trkpt lat="42.66754" lon="-2.09867">
        <ele>485.8</ele>
        <time>2021-07-24 17:23:07</time>
      </trkpt>
      <trkpt lat="42.66757" lon="-2.09839">
        <ele>484.2</ele>
        <time>2021-07-24 17:23:11</time>
      </trkpt>
      <trkpt lat="42.66763" lon="-2.09811">
        <ele>484</ele>
        <time>2021-07-24 17:23:15</time>
      </trkpt>
      <trkpt lat="42.66768" lon="-2.09791">
        <ele>484.2</ele>
        <time>2021-07-24 17:23:19</time>
      </trkpt>
      <trkpt lat="42.6677" lon="-2.09767">
        <ele>482.8</ele>
        <time>2021-07-24 17:23:23</time>
      </trkpt>
      <trkpt lat="42.66775" lon="-2.09739">
        <ele>480</ele>
        <time>2021-07-24 17:23:27</time>
      </trkpt>
      <trkpt lat="42.66786" lon="-2.09709">
        <ele>478</ele>
        <time>2021-07-24 17:23:31</time>
      </trkpt>
      <trkpt lat="42.66802" lon="-2.09685">
        <ele>477.4</ele>
        <time>2021-07-24 17:23:35</time>
      </trkpt>
      <trkpt lat="42.66817" lon="-2.09669">
        <ele>477</ele>
        <time>2021-07-24 17:23:39</time>
      </trkpt>
      <trkpt lat="42.66831" lon="-2.09647">
        <ele>474</ele>
        <time>2021-07-24 17:23:43</time>
      </trkpt>
      <trkpt lat="42.66843" lon="-2.09617">
        <ele>474.8</ele>
        <time>2021-07-24 17:23:47</time>
      </trkpt>
      <trkpt lat="42.66859" lon="-2.09592">
        <ele>474.6</ele>
        <time>2021-07-24 17:23:51</time>
      </trkpt>
      <trkpt lat="42.66875" lon="-2.09573">
        <ele>476</ele>
        <time>2021-07-24 17:23:55</time>
      </trkpt>
      <trkpt lat="42.66888" lon="-2.09555">
        <ele>476.6</ele>
        <time>2021-07-24 17:23:59</time>
      </trkpt>
      <trkpt lat="42.669" lon="-2.09533">
        <ele>473.8</ele>
        <time>2021-07-24 17:24:03</time>
      </trkpt>
      <trkpt lat="42.66909" lon="-2.09506">
        <ele>472</ele>
        <time>2021-07-24 17:24:07</time>
      </trkpt>
      <trkpt lat="42.66916" lon="-2.09479">
        <ele>469.2</ele>
        <time>2021-07-24 17:24:11</time>
      </trkpt>
      <trkpt lat="42.66921" lon="-2.09448">
        <ele>466.6</ele>
        <time>2021-07-24 17:24:15</time>
      </trkpt>
      <trkpt lat="42.66924" lon="-2.09415">
        <ele>467</ele>
        <time>2021-07-24 17:24:19</time>
      </trkpt>
      <trkpt lat="42.66924" lon="-2.09389">
        <ele>465</ele>
        <time>2021-07-24 17:24:23</time>
      </trkpt>
      <trkpt lat="42.66917" lon="-2.09359">
        <ele>462.8</ele>
        <time>2021-07-24 17:24:27</time>
      </trkpt>
      <trkpt lat="42.66907" lon="-2.09326">
        <ele>462.8</ele>
        <time>2021-07-24 17:24:31</time>
      </trkpt>
      <trkpt lat="42.66906" lon="-2.09293">
        <ele>462.6</ele>
        <time>2021-07-24 17:24:35</time>
      </trkpt>
      <trkpt lat="42.66909" lon="-2.09268">
        <ele>464.2</ele>
        <time>2021-07-24 17:24:39</time>
      </trkpt>
      <trkpt lat="42.66911" lon="-2.0925">
        <ele>465.8</ele>
        <time>2021-07-24 17:24:43</time>
      </trkpt>
      <trkpt lat="42.66912" lon="-2.09239">
        <ele>466.6</ele>
        <time>2021-07-24 17:24:47</time>
      </trkpt>
      <trkpt lat="42.66913" lon="-2.09227">
        <ele>467.6</ele>
        <time>2021-07-24 17:24:51</time>
      </trkpt>
      <trkpt lat="42.66914" lon="-2.09215">
        <ele>468</ele>
        <time>2021-07-24 17:24:55</time>
      </trkpt>
      <trkpt lat="42.66915" lon="-2.09201">
        <ele>467.6</ele>
        <time>2021-07-24 17:24:59</time>
      </trkpt>
      <trkpt lat="42.66915" lon="-2.09184">
        <ele>467.4</ele>
        <time>2021-07-24 17:25:03</time>
      </trkpt>
      <trkpt lat="42.66913" lon="-2.09165">
        <ele>467.6</ele>
        <time>2021-07-24 17:25:07</time>
      </trkpt>
      <trkpt lat="42.66912" lon="-2.09147">
        <ele>469</ele>
        <time>2021-07-24 17:25:11</time>
      </trkpt>
      <trkpt lat="42.66915" lon="-2.09133">
        <ele>470</ele>
        <time>2021-07-24 17:25:15</time>
      </trkpt>
      <trkpt lat="42.66916" lon="-2.09121">
        <ele>470</ele>
        <time>2021-07-24 17:25:19</time>
      </trkpt>
      <trkpt lat="42.66914" lon="-2.09109">
        <ele>471.2</ele>
        <time>2021-07-24 17:25:23</time>
      </trkpt>
      <trkpt lat="42.66915" lon="-2.09099">
        <ele>472.2</ele>
        <time>2021-07-24 17:25:27</time>
      </trkpt>
      <trkpt lat="42.66915" lon="-2.09099">
        <ele>472</ele>
        <time>2021-07-24 17:25:31</time>
      </trkpt>
      <trkpt lat="42.66915" lon="-2.09099">
        <ele>472</ele>
        <time>2021-07-24 17:25:35</time>
      </trkpt>
      <trkpt lat="42.66915" lon="-2.09099">
        <ele>472</ele>
        <time>2021-07-24 17:25:39</time>
      </trkpt>
      <trkpt lat="42.66915" lon="-2.09099">
        <ele>472.2</ele>
        <time>2021-07-24 17:25:43</time>
      </trkpt>
      <trkpt lat="42.66915" lon="-2.09099">
        <ele>472.2</ele>
        <time>2021-07-24 17:25:47</time>
      </trkpt>
      <trkpt lat="42.66915" lon="-2.09099">
        <ele>471.4</ele>
        <time>2021-07-24 17:25:51</time>
      </trkpt>
      <trkpt lat="42.66915" lon="-2.09099">
        <ele>472.8</ele>
        <time>2021-07-24 17:25:55</time>
      </trkpt>
      <trkpt lat="42.66914" lon="-2.09092">
        <ele>472.6</ele>
        <time>2021-07-24 17:25:59</time>
      </trkpt>
      <trkpt lat="42.66911" lon="-2.09088">
        <ele>472.6</ele>
        <time>2021-07-24 17:26:03</time>
      </trkpt>
      <trkpt lat="42.6691" lon="-2.09079">
        <ele>473</ele>
        <time>2021-07-24 17:26:07</time>
      </trkpt>
      <trkpt lat="42.66907" lon="-2.09062">
        <ele>473</ele>
        <time>2021-07-24 17:26:11</time>
      </trkpt>
      <trkpt lat="42.66903" lon="-2.09049">
        <ele>472.6</ele>
        <time>2021-07-24 17:26:15</time>
      </trkpt>
      <trkpt lat="42.66898" lon="-2.09033">
        <ele>472.4</ele>
        <time>2021-07-24 17:26:19</time>
      </trkpt>
      <trkpt lat="42.66893" lon="-2.09016">
        <ele>472.2</ele>
        <time>2021-07-24 17:26:23</time>
      </trkpt>
      <trkpt lat="42.66888" lon="-2.08996">
        <ele>471</ele>
        <time>2021-07-24 17:26:27</time>
      </trkpt>
      <trkpt lat="42.66887" lon="-2.08975">
        <ele>471.6</ele>
        <time>2021-07-24 17:26:31</time>
      </trkpt>
      <trkpt lat="42.66888" lon="-2.08955">
        <ele>472.4</ele>
        <time>2021-07-24 17:26:35</time>
      </trkpt>
      <trkpt lat="42.6689" lon="-2.08935">
        <ele>472.2</ele>
        <time>2021-07-24 17:26:39</time>
      </trkpt>
      <trkpt lat="42.66891" lon="-2.08916">
        <ele>474.2</ele>
        <time>2021-07-24 17:26:43</time>
      </trkpt>
      <trkpt lat="42.66893" lon="-2.08897">
        <ele>473.4</ele>
        <time>2021-07-24 17:26:47</time>
      </trkpt>
      <trkpt lat="42.66895" lon="-2.08878">
        <ele>473.4</ele>
        <time>2021-07-24 17:26:51</time>
      </trkpt>
      <trkpt lat="42.66896" lon="-2.0886">
        <ele>473.6</ele>
        <time>2021-07-24 17:26:55</time>
      </trkpt>
      <trkpt lat="42.66897" lon="-2.08841">
        <ele>473.8</ele>
        <time>2021-07-24 17:26:59</time>
      </trkpt>
      <trkpt lat="42.66899" lon="-2.08821">
        <ele>473</ele>
        <time>2021-07-24 17:27:03</time>
      </trkpt>
      <trkpt lat="42.669" lon="-2.08801">
        <ele>473</ele>
        <time>2021-07-24 17:27:07</time>
      </trkpt>
      <trkpt lat="42.66901" lon="-2.08779">
        <ele>472.2</ele>
        <time>2021-07-24 17:27:11</time>
      </trkpt>
      <trkpt lat="42.66903" lon="-2.08756">
        <ele>471.8</ele>
        <time>2021-07-24 17:27:15</time>
      </trkpt>
      <trkpt lat="42.66907" lon="-2.08733">
        <ele>472.4</ele>
        <time>2021-07-24 17:27:19</time>
      </trkpt>
      <trkpt lat="42.66917" lon="-2.08715">
        <ele>472</ele>
        <time>2021-07-24 17:27:23</time>
      </trkpt>
      <trkpt lat="42.66933" lon="-2.08703">
        <ele>470</ele>
        <time>2021-07-24 17:27:27</time>
      </trkpt>
      <trkpt lat="42.66949" lon="-2.08689">
        <ele>468.2</ele>
        <time>2021-07-24 17:27:31</time>
      </trkpt>
      <trkpt lat="42.66965" lon="-2.0867">
        <ele>467.2</ele>
        <time>2021-07-24 17:27:35</time>
      </trkpt>
      <trkpt lat="42.66981" lon="-2.08648">
        <ele>466.8</ele>
        <time>2021-07-24 17:27:39</time>
      </trkpt>
      <trkpt lat="42.6699" lon="-2.08618">
        <ele>466.8</ele>
        <time>2021-07-24 17:27:43</time>
      </trkpt>
      <trkpt lat="42.66996" lon="-2.08586">
        <ele>467.2</ele>
        <time>2021-07-24 17:27:47</time>
      </trkpt>
      <trkpt lat="42.67006" lon="-2.08558">
        <ele>466.4</ele>
        <time>2021-07-24 17:27:51</time>
      </trkpt>
      <trkpt lat="42.67014" lon="-2.08532">
        <ele>466.2</ele>
        <time>2021-07-24 17:27:55</time>
      </trkpt>
      <trkpt lat="42.67021" lon="-2.08504">
        <ele>464.8</ele>
        <time>2021-07-24 17:27:59</time>
      </trkpt>
      <trkpt lat="42.67027" lon="-2.08476">
        <ele>464.6</ele>
        <time>2021-07-24 17:28:03</time>
      </trkpt>
      <trkpt lat="42.67036" lon="-2.08455">
        <ele>466.8</ele>
        <time>2021-07-24 17:28:07</time>
      </trkpt>
      <trkpt lat="42.67045" lon="-2.0845">
        <ele>465.2</ele>
        <time>2021-07-24 17:28:11</time>
      </trkpt>
      <trkpt lat="42.67057" lon="-2.08448">
        <ele>463.4</ele>
        <time>2021-07-24 17:28:15</time>
      </trkpt>
      <trkpt lat="42.67076" lon="-2.08442">
        <ele>462</ele>
        <time>2021-07-24 17:28:19</time>
      </trkpt>
      <trkpt lat="42.67094" lon="-2.08423">
        <ele>462</ele>
        <time>2021-07-24 17:28:23</time>
      </trkpt>
      <trkpt lat="42.67107" lon="-2.08399">
        <ele>459</ele>
        <time>2021-07-24 17:28:27</time>
      </trkpt>
      <trkpt lat="42.67115" lon="-2.08374">
        <ele>457.4</ele>
        <time>2021-07-24 17:28:31</time>
      </trkpt>
      <trkpt lat="42.67122" lon="-2.08348">
        <ele>456.6</ele>
        <time>2021-07-24 17:28:35</time>
      </trkpt>
      <trkpt lat="42.67133" lon="-2.08319">
        <ele>454.6</ele>
        <time>2021-07-24 17:28:39</time>
      </trkpt>
      <trkpt lat="42.67144" lon="-2.08289">
        <ele>452.6</ele>
        <time>2021-07-24 17:28:43</time>
      </trkpt>
      <trkpt lat="42.67151" lon="-2.08256">
        <ele>450.4</ele>
        <time>2021-07-24 17:28:47</time>
      </trkpt>
      <trkpt lat="42.67162" lon="-2.08222">
        <ele>450.8</ele>
        <time>2021-07-24 17:28:51</time>
      </trkpt>
      <trkpt lat="42.67178" lon="-2.08196">
        <ele>451.4</ele>
        <time>2021-07-24 17:28:55</time>
      </trkpt>
      <trkpt lat="42.6719" lon="-2.08177">
        <ele>451.6</ele>
        <time>2021-07-24 17:28:59</time>
      </trkpt>
      <trkpt lat="42.672" lon="-2.08155">
        <ele>451</ele>
        <time>2021-07-24 17:29:03</time>
      </trkpt>
      <trkpt lat="42.67207" lon="-2.08131">
        <ele>450</ele>
        <time>2021-07-24 17:29:07</time>
      </trkpt>
      <trkpt lat="42.67214" lon="-2.08108">
        <ele>448.4</ele>
        <time>2021-07-24 17:29:11</time>
      </trkpt>
      <trkpt lat="42.67221" lon="-2.08087">
        <ele>446.8</ele>
        <time>2021-07-24 17:29:15</time>
      </trkpt>
      <trkpt lat="42.6723" lon="-2.08068">
        <ele>445.8</ele>
        <time>2021-07-24 17:29:19</time>
      </trkpt>
      <trkpt lat="42.67243" lon="-2.08049">
        <ele>443.8</ele>
        <time>2021-07-24 17:29:23</time>
      </trkpt>
      <trkpt lat="42.67258" lon="-2.0803">
        <ele>440.8</ele>
        <time>2021-07-24 17:29:27</time>
      </trkpt>
      <trkpt lat="42.67273" lon="-2.08011">
        <ele>438.8</ele>
        <time>2021-07-24 17:29:31</time>
      </trkpt>
      <trkpt lat="42.67286" lon="-2.07994">
        <ele>433.4</ele>
        <time>2021-07-24 17:29:35</time>
      </trkpt>
      <trkpt lat="42.67307" lon="-2.07971">
        <ele>431.8</ele>
        <time>2021-07-24 17:29:39</time>
      </trkpt>
      <trkpt lat="42.67326" lon="-2.07946">
        <ele>431.8</ele>
        <time>2021-07-24 17:29:43</time>
      </trkpt>
      <trkpt lat="42.67341" lon="-2.07915">
        <ele>431.4</ele>
        <time>2021-07-24 17:29:47</time>
      </trkpt>
      <trkpt lat="42.67355" lon="-2.07888">
        <ele>430.4</ele>
        <time>2021-07-24 17:29:51</time>
      </trkpt>
      <trkpt lat="42.67368" lon="-2.07862">
        <ele>431.4</ele>
        <time>2021-07-24 17:29:55</time>
      </trkpt>
      <trkpt lat="42.67379" lon="-2.0784">
        <ele>432</ele>
        <time>2021-07-24 17:29:59</time>
      </trkpt>
      <trkpt lat="42.67392" lon="-2.07816">
        <ele>431.4</ele>
        <time>2021-07-24 17:30:03</time>
      </trkpt>
      <trkpt lat="42.67402" lon="-2.0779">
        <ele>431.8</ele>
        <time>2021-07-24 17:30:07</time>
      </trkpt>
      <trkpt lat="42.67411" lon="-2.07762">
        <ele>431.4</ele>
        <time>2021-07-24 17:30:11</time>
      </trkpt>
      <trkpt lat="42.67423" lon="-2.07738">
        <ele>430.8</ele>
        <time>2021-07-24 17:30:15</time>
      </trkpt>
      <trkpt lat="42.67436" lon="-2.07717">
        <ele>431.4</ele>
        <time>2021-07-24 17:30:19</time>
      </trkpt>
      <trkpt lat="42.67445" lon="-2.07694">
        <ele>431.4</ele>
        <time>2021-07-24 17:30:23</time>
      </trkpt>
      <trkpt lat="42.67452" lon="-2.07672">
        <ele>430.8</ele>
        <time>2021-07-24 17:30:27</time>
      </trkpt>
      <trkpt lat="42.67459" lon="-2.07648">
        <ele>432</ele>
        <time>2021-07-24 17:30:31</time>
      </trkpt>
      <trkpt lat="42.67469" lon="-2.07626">
        <ele>430</ele>
        <time>2021-07-24 17:30:35</time>
      </trkpt>
      <trkpt lat="42.67481" lon="-2.0761">
        <ele>430.6</ele>
        <time>2021-07-24 17:30:39</time>
      </trkpt>
      <trkpt lat="42.67494" lon="-2.07594">
        <ele>430.8</ele>
        <time>2021-07-24 17:30:43</time>
      </trkpt>
      <trkpt lat="42.67507" lon="-2.07579">
        <ele>430.6</ele>
        <time>2021-07-24 17:30:47</time>
      </trkpt>
      <trkpt lat="42.6752" lon="-2.07562">
        <ele>431.4</ele>
        <time>2021-07-24 17:30:51</time>
      </trkpt>
      <trkpt lat="42.67531" lon="-2.07546">
        <ele>431.8</ele>
        <time>2021-07-24 17:30:55</time>
      </trkpt>
      <trkpt lat="42.67542" lon="-2.07529">
        <ele>431.8</ele>
        <time>2021-07-24 17:30:59</time>
      </trkpt>
      <trkpt lat="42.67552" lon="-2.07513">
        <ele>432</ele>
        <time>2021-07-24 17:31:03</time>
      </trkpt>
      <trkpt lat="42.67562" lon="-2.075">
        <ele>432.2</ele>
        <time>2021-07-24 17:31:07</time>
      </trkpt>
      <trkpt lat="42.6757" lon="-2.07485">
        <ele>432.2</ele>
        <time>2021-07-24 17:31:11</time>
      </trkpt>
      <trkpt lat="42.67577" lon="-2.07466">
        <ele>432.2</ele>
        <time>2021-07-24 17:31:15</time>
      </trkpt>
      <trkpt lat="42.67584" lon="-2.07446">
        <ele>430.8</ele>
        <time>2021-07-24 17:31:19</time>
      </trkpt>
      <trkpt lat="42.67592" lon="-2.07426">
        <ele>430.8</ele>
        <time>2021-07-24 17:31:23</time>
      </trkpt>
      <trkpt lat="42.67599" lon="-2.07405">
        <ele>431.6</ele>
        <time>2021-07-24 17:31:27</time>
      </trkpt>
      <trkpt lat="42.67608" lon="-2.07384">
        <ele>432.4</ele>
        <time>2021-07-24 17:31:31</time>
      </trkpt>
      <trkpt lat="42.67618" lon="-2.07364">
        <ele>432.2</ele>
        <time>2021-07-24 17:31:35</time>
      </trkpt>
      <trkpt lat="42.67629" lon="-2.07345">
        <ele>432</ele>
        <time>2021-07-24 17:31:39</time>
      </trkpt>
      <trkpt lat="42.67639" lon="-2.07327">
        <ele>433.2</ele>
        <time>2021-07-24 17:31:43</time>
      </trkpt>
      <trkpt lat="42.67649" lon="-2.0731">
        <ele>433.6</ele>
        <time>2021-07-24 17:31:47</time>
      </trkpt>
      <trkpt lat="42.67658" lon="-2.07294">
        <ele>433.8</ele>
        <time>2021-07-24 17:31:51</time>
      </trkpt>
      <trkpt lat="42.67667" lon="-2.0728">
        <ele>434.2</ele>
        <time>2021-07-24 17:31:55</time>
      </trkpt>
      <trkpt lat="42.67674" lon="-2.07267">
        <ele>433</ele>
        <time>2021-07-24 17:31:59</time>
      </trkpt>
      <trkpt lat="42.6768" lon="-2.07252">
        <ele>432</ele>
        <time>2021-07-24 17:32:03</time>
      </trkpt>
      <trkpt lat="42.67689" lon="-2.07234">
        <ele>432.4</ele>
        <time>2021-07-24 17:32:07</time>
      </trkpt>
      <trkpt lat="42.67698" lon="-2.07213">
        <ele>433</ele>
        <time>2021-07-24 17:32:11</time>
      </trkpt>
      <trkpt lat="42.67707" lon="-2.07191">
        <ele>432</ele>
        <time>2021-07-24 17:32:15</time>
      </trkpt>
      <trkpt lat="42.67716" lon="-2.07169">
        <ele>432</ele>
        <time>2021-07-24 17:32:19</time>
      </trkpt>
      <trkpt lat="42.67724" lon="-2.07149">
        <ele>432.4</ele>
        <time>2021-07-24 17:32:23</time>
      </trkpt>
      <trkpt lat="42.67733" lon="-2.07129">
        <ele>433.2</ele>
        <time>2021-07-24 17:32:27</time>
      </trkpt>
      <trkpt lat="42.67741" lon="-2.07109">
        <ele>433.2</ele>
        <time>2021-07-24 17:32:31</time>
      </trkpt>
      <trkpt lat="42.67749" lon="-2.07089">
        <ele>432.8</ele>
        <time>2021-07-24 17:32:35</time>
      </trkpt>
      <trkpt lat="42.67757" lon="-2.0707">
        <ele>433.8</ele>
        <time>2021-07-24 17:32:39</time>
      </trkpt>
      <trkpt lat="42.67764" lon="-2.07052">
        <ele>433.4</ele>
        <time>2021-07-24 17:32:43</time>
      </trkpt>
      <trkpt lat="42.6777" lon="-2.07033">
        <ele>432.8</ele>
        <time>2021-07-24 17:32:47</time>
      </trkpt>
      <trkpt lat="42.67775" lon="-2.07014">
        <ele>433.6</ele>
        <time>2021-07-24 17:32:51</time>
      </trkpt>
      <trkpt lat="42.6778" lon="-2.06994">
        <ele>434.2</ele>
        <time>2021-07-24 17:32:55</time>
      </trkpt>
      <trkpt lat="42.67785" lon="-2.06975">
        <ele>434.8</ele>
        <time>2021-07-24 17:32:59</time>
      </trkpt>
      <trkpt lat="42.67787" lon="-2.06956">
        <ele>434.6</ele>
        <time>2021-07-24 17:33:03</time>
      </trkpt>
      <trkpt lat="42.67786" lon="-2.06936">
        <ele>434.6</ele>
        <time>2021-07-24 17:33:07</time>
      </trkpt>
      <trkpt lat="42.67786" lon="-2.06916">
        <ele>435</ele>
        <time>2021-07-24 17:33:11</time>
      </trkpt>
      <trkpt lat="42.67785" lon="-2.06898">
        <ele>434.8</ele>
        <time>2021-07-24 17:33:15</time>
      </trkpt>
      <trkpt lat="42.67787" lon="-2.06879">
        <ele>434.8</ele>
        <time>2021-07-24 17:33:19</time>
      </trkpt>
      <trkpt lat="42.67791" lon="-2.06862">
        <ele>435.4</ele>
        <time>2021-07-24 17:33:23</time>
      </trkpt>
      <trkpt lat="42.67796" lon="-2.06846">
        <ele>435.4</ele>
        <time>2021-07-24 17:33:27</time>
      </trkpt>
      <trkpt lat="42.678" lon="-2.06832">
        <ele>436.6</ele>
        <time>2021-07-24 17:33:31</time>
      </trkpt>
      <trkpt lat="42.67802" lon="-2.06817">
        <ele>437</ele>
        <time>2021-07-24 17:33:35</time>
      </trkpt>
      <trkpt lat="42.67802" lon="-2.06804">
        <ele>436</ele>
        <time>2021-07-24 17:33:39</time>
      </trkpt>
      <trkpt lat="42.678" lon="-2.06789">
        <ele>436</ele>
        <time>2021-07-24 17:33:43</time>
      </trkpt>
      <trkpt lat="42.67802" lon="-2.06771">
        <ele>435.8</ele>
        <time>2021-07-24 17:33:47</time>
      </trkpt>
      <trkpt lat="42.67807" lon="-2.06752">
        <ele>435.8</ele>
        <time>2021-07-24 17:33:51</time>
      </trkpt>
      <trkpt lat="42.6781" lon="-2.06731">
        <ele>436</ele>
        <time>2021-07-24 17:33:55</time>
      </trkpt>
      <trkpt lat="42.6781" lon="-2.0671">
        <ele>436.2</ele>
        <time>2021-07-24 17:33:59</time>
      </trkpt>
      <trkpt lat="42.67807" lon="-2.06689">
        <ele>436.4</ele>
        <time>2021-07-24 17:34:03</time>
      </trkpt>
      <trkpt lat="42.67803" lon="-2.06669">
        <ele>436.4</ele>
        <time>2021-07-24 17:34:07</time>
      </trkpt>
      <trkpt lat="42.67802" lon="-2.06649">
        <ele>435.2</ele>
        <time>2021-07-24 17:34:11</time>
      </trkpt>
      <trkpt lat="42.67804" lon="-2.06627">
        <ele>435.4</ele>
        <time>2021-07-24 17:34:15</time>
      </trkpt>
      <trkpt lat="42.67808" lon="-2.06606">
        <ele>436</ele>
        <time>2021-07-24 17:34:19</time>
      </trkpt>
      <trkpt lat="42.67809" lon="-2.06597">
        <ele>435</ele>
        <time>2021-07-24 17:34:23</time>
      </trkpt>
      <trkpt lat="42.6781" lon="-2.06584">
        <ele>435</ele>
        <time>2021-07-24 17:34:27</time>
      </trkpt>
      <trkpt lat="42.67815" lon="-2.0656">
        <ele>433.4</ele>
        <time>2021-07-24 17:34:31</time>
      </trkpt>
      <trkpt lat="42.6782" lon="-2.06533">
        <ele>431.2</ele>
        <time>2021-07-24 17:34:35</time>
      </trkpt>
      <trkpt lat="42.67826" lon="-2.06505">
        <ele>430</ele>
        <time>2021-07-24 17:34:39</time>
      </trkpt>
      <trkpt lat="42.67833" lon="-2.06478">
        <ele>431.4</ele>
        <time>2021-07-24 17:34:43</time>
      </trkpt>
      <trkpt lat="42.67838" lon="-2.06461">
        <ele>431.4</ele>
        <time>2021-07-24 17:34:47</time>
      </trkpt>
      <trkpt lat="42.67843" lon="-2.06452">
        <ele>432.4</ele>
        <time>2021-07-24 17:34:51</time>
      </trkpt>
      <trkpt lat="42.67843" lon="-2.06452">
        <ele>432.2</ele>
        <time>2021-07-24 17:34:55</time>
      </trkpt>
      <trkpt lat="42.67843" lon="-2.06452">
        <ele>432</ele>
        <time>2021-07-24 17:34:59</time>
      </trkpt>
      <trkpt lat="42.67843" lon="-2.06452">
        <ele>432</ele>
        <time>2021-07-24 17:35:03</time>
      </trkpt>
      <trkpt lat="42.67844" lon="-2.06449">
        <ele>431.4</ele>
        <time>2021-07-24 17:35:07</time>
      </trkpt>
      <trkpt lat="42.67841" lon="-2.0645">
        <ele>430.8</ele>
        <time>2021-07-24 17:35:11</time>
      </trkpt>
      <trkpt lat="42.67837" lon="-2.0646">
        <ele>430.8</ele>
        <time>2021-07-24 17:35:15</time>
      </trkpt>
      <trkpt lat="42.67831" lon="-2.06472">
        <ele>430.4</ele>
        <time>2021-07-24 17:35:19</time>
      </trkpt>
      <trkpt lat="42.67821" lon="-2.06471">
        <ele>430.4</ele>
        <time>2021-07-24 17:35:23</time>
      </trkpt>
      <trkpt lat="42.67812" lon="-2.06466">
        <ele>430.2</ele>
        <time>2021-07-24 17:35:27</time>
      </trkpt>
      <trkpt lat="42.67804" lon="-2.06461">
        <ele>430.2</ele>
        <time>2021-07-24 17:35:31</time>
      </trkpt>
      <trkpt lat="42.67801" lon="-2.06452">
        <ele>430.6</ele>
        <time>2021-07-24 17:35:35</time>
      </trkpt>
      <trkpt lat="42.67803" lon="-2.06442">
        <ele>430.6</ele>
        <time>2021-07-24 17:35:39</time>
      </trkpt>
      <trkpt lat="42.67809" lon="-2.06429">
        <ele>429.6</ele>
        <time>2021-07-24 17:35:43</time>
      </trkpt>
      <trkpt lat="42.6781" lon="-2.0641">
        <ele>428</ele>
        <time>2021-07-24 17:35:47</time>
      </trkpt>
      <trkpt lat="42.67802" lon="-2.06388">
        <ele>428</ele>
        <time>2021-07-24 17:35:51</time>
      </trkpt>
      <trkpt lat="42.67792" lon="-2.06365">
        <ele>428.4</ele>
        <time>2021-07-24 17:35:55</time>
      </trkpt>
      <trkpt lat="42.67795" lon="-2.06356">
        <ele>428.4</ele>
        <time>2021-07-24 17:35:59</time>
      </trkpt>
      <trkpt lat="42.67802" lon="-2.06345">
        <ele>428.4</ele>
        <time>2021-07-24 17:36:03</time>
      </trkpt>
      <trkpt lat="42.67809" lon="-2.06335">
        <ele>429.4</ele>
        <time>2021-07-24 17:36:07</time>
      </trkpt>
      <trkpt lat="42.6781" lon="-2.06325">
        <ele>428.4</ele>
        <time>2021-07-24 17:36:11</time>
      </trkpt>
      <trkpt lat="42.67819" lon="-2.06315">
        <ele>428.2</ele>
        <time>2021-07-24 17:36:15</time>
      </trkpt>
      <trkpt lat="42.67833" lon="-2.06318">
        <ele>428.8</ele>
        <time>2021-07-24 17:36:19</time>
      </trkpt>
      <trkpt lat="42.67847" lon="-2.06319">
        <ele>430.2</ele>
        <time>2021-07-24 17:36:23</time>
      </trkpt>
      <trkpt lat="42.67855" lon="-2.06312">
        <ele>430</ele>
        <time>2021-07-24 17:36:27</time>
      </trkpt>
      <trkpt lat="42.67861" lon="-2.06299">
        <ele>430.2</ele>
        <time>2021-07-24 17:36:31</time>
      </trkpt>
      <trkpt lat="42.67868" lon="-2.06281">
        <ele>430</ele>
        <time>2021-07-24 17:36:35</time>
      </trkpt>
      <trkpt lat="42.67875" lon="-2.06263">
        <ele>430.4</ele>
        <time>2021-07-24 17:36:39</time>
      </trkpt>
      <trkpt lat="42.67883" lon="-2.06243">
        <ele>430.2</ele>
        <time>2021-07-24 17:36:43</time>
      </trkpt>
      <trkpt lat="42.6789" lon="-2.06225">
        <ele>429.8</ele>
        <time>2021-07-24 17:36:47</time>
      </trkpt>
      <trkpt lat="42.67898" lon="-2.06205">
        <ele>429.8</ele>
        <time>2021-07-24 17:36:51</time>
      </trkpt>
      <trkpt lat="42.67905" lon="-2.06185">
        <ele>430.2</ele>
        <time>2021-07-24 17:36:55</time>
      </trkpt>
      <trkpt lat="42.67912" lon="-2.06165">
        <ele>429.4</ele>
        <time>2021-07-24 17:36:59</time>
      </trkpt>
      <trkpt lat="42.6792" lon="-2.06146">
        <ele>429.6</ele>
        <time>2021-07-24 17:37:03</time>
      </trkpt>
      <trkpt lat="42.67927" lon="-2.06126">
        <ele>429.6</ele>
        <time>2021-07-24 17:37:07</time>
      </trkpt>
      <trkpt lat="42.67936" lon="-2.06105">
        <ele>430</ele>
        <time>2021-07-24 17:37:11</time>
      </trkpt>
      <trkpt lat="42.67946" lon="-2.06085">
        <ele>428.6</ele>
        <time>2021-07-24 17:37:15</time>
      </trkpt>
      <trkpt lat="42.67955" lon="-2.06066">
        <ele>429.4</ele>
        <time>2021-07-24 17:37:19</time>
      </trkpt>
      <trkpt lat="42.67964" lon="-2.0605">
        <ele>430.4</ele>
        <time>2021-07-24 17:37:23</time>
      </trkpt>
      <trkpt lat="42.67972" lon="-2.06037">
        <ele>431</ele>
        <time>2021-07-24 17:37:27</time>
      </trkpt>
      <trkpt lat="42.67981" lon="-2.06022">
        <ele>429.6</ele>
        <time>2021-07-24 17:37:31</time>
      </trkpt>
      <trkpt lat="42.67991" lon="-2.06007">
        <ele>430</ele>
        <time>2021-07-24 17:37:35</time>
      </trkpt>
      <trkpt lat="42.68" lon="-2.05992">
        <ele>431.4</ele>
        <time>2021-07-24 17:37:39</time>
      </trkpt>
      <trkpt lat="42.68011" lon="-2.05977">
        <ele>431.8</ele>
        <time>2021-07-24 17:37:43</time>
      </trkpt>
      <trkpt lat="42.68021" lon="-2.05963">
        <ele>432.2</ele>
        <time>2021-07-24 17:37:47</time>
      </trkpt>
      <trkpt lat="42.68032" lon="-2.05949">
        <ele>431.2</ele>
        <time>2021-07-24 17:37:51</time>
      </trkpt>
      <trkpt lat="42.68044" lon="-2.05934">
        <ele>430</ele>
        <time>2021-07-24 17:37:55</time>
      </trkpt>
      <trkpt lat="42.68056" lon="-2.05919">
        <ele>430.8</ele>
        <time>2021-07-24 17:37:59</time>
      </trkpt>
      <trkpt lat="42.68068" lon="-2.05905">
        <ele>430</ele>
        <time>2021-07-24 17:38:03</time>
      </trkpt>
      <trkpt lat="42.68077" lon="-2.05893">
        <ele>429.4</ele>
        <time>2021-07-24 17:38:07</time>
      </trkpt>
      <trkpt lat="42.68083" lon="-2.05883">
        <ele>428.8</ele>
        <time>2021-07-24 17:38:11</time>
      </trkpt>
      <trkpt lat="42.68085" lon="-2.05874">
        <ele>428.4</ele>
        <time>2021-07-24 17:38:15</time>
      </trkpt>
      <trkpt lat="42.68085" lon="-2.05874">
        <ele>428.8</ele>
        <time>2021-07-24 17:38:19</time>
      </trkpt>
      <trkpt lat="42.68166" lon="-2.05704">
        <ele>427.8</ele>
        <time>2021-07-24 17:38:23</time>
      </trkpt>
      <trkpt lat="42.68168" lon="-2.05684">
        <ele>428.6</ele>
        <time>2021-07-24 17:38:27</time>
      </trkpt>
      <trkpt lat="42.6817" lon="-2.05664">
        <ele>429</ele>
        <time>2021-07-24 17:38:31</time>
      </trkpt>
      <trkpt lat="42.68171" lon="-2.05645">
        <ele>429.2</ele>
        <time>2021-07-24 17:38:35</time>
      </trkpt>
      <trkpt lat="42.68173" lon="-2.05627">
        <ele>429.4</ele>
        <time>2021-07-24 17:38:39</time>
      </trkpt>
      <trkpt lat="42.68173" lon="-2.05607">
        <ele>429.4</ele>
        <time>2021-07-24 17:38:43</time>
      </trkpt>
      <trkpt lat="42.68172" lon="-2.05585">
        <ele>429.4</ele>
        <time>2021-07-24 17:38:47</time>
      </trkpt>
      <trkpt lat="42.68174" lon="-2.05564">
        <ele>430</ele>
        <time>2021-07-24 17:38:51</time>
      </trkpt>
      <trkpt lat="42.68176" lon="-2.05545">
        <ele>430</ele>
        <time>2021-07-24 17:38:55</time>
      </trkpt>
      <trkpt lat="42.68177" lon="-2.05522">
        <ele>429.6</ele>
        <time>2021-07-24 17:38:59</time>
      </trkpt>
      <trkpt lat="42.68177" lon="-2.05497">
        <ele>430</ele>
        <time>2021-07-24 17:39:03</time>
      </trkpt>
      <trkpt lat="42.68179" lon="-2.05471">
        <ele>429</ele>
        <time>2021-07-24 17:39:07</time>
      </trkpt>
      <trkpt lat="42.6818" lon="-2.05446">
        <ele>430.4</ele>
        <time>2021-07-24 17:39:11</time>
      </trkpt>
      <trkpt lat="42.68181" lon="-2.05421">
        <ele>430.6</ele>
        <time>2021-07-24 17:39:15</time>
      </trkpt>
      <trkpt lat="42.68183" lon="-2.05396">
        <ele>430</ele>
        <time>2021-07-24 17:39:19</time>
      </trkpt>
      <trkpt lat="42.68183" lon="-2.05373">
        <ele>430.8</ele>
        <time>2021-07-24 17:39:23</time>
      </trkpt>
      <trkpt lat="42.68184" lon="-2.05352">
        <ele>429.6</ele>
        <time>2021-07-24 17:39:27</time>
      </trkpt>
      <trkpt lat="42.68186" lon="-2.0533">
        <ele>429.6</ele>
        <time>2021-07-24 17:39:31</time>
      </trkpt>
      <trkpt lat="42.68187" lon="-2.05307">
        <ele>430</ele>
        <time>2021-07-24 17:39:35</time>
      </trkpt>
      <trkpt lat="42.68188" lon="-2.05282">
        <ele>429.4</ele>
        <time>2021-07-24 17:39:39</time>
      </trkpt>
      <trkpt lat="42.68189" lon="-2.05257">
        <ele>429.2</ele>
        <time>2021-07-24 17:39:43</time>
      </trkpt>
      <trkpt lat="42.6819" lon="-2.05233">
        <ele>429.6</ele>
        <time>2021-07-24 17:39:47</time>
      </trkpt>
      <trkpt lat="42.6819" lon="-2.05211">
        <ele>430</ele>
        <time>2021-07-24 17:39:51</time>
      </trkpt>
      <trkpt lat="42.68192" lon="-2.05189">
        <ele>430.2</ele>
        <time>2021-07-24 17:39:55</time>
      </trkpt>
      <trkpt lat="42.68193" lon="-2.05168">
        <ele>429.6</ele>
        <time>2021-07-24 17:39:59</time>
      </trkpt>
      <trkpt lat="42.68192" lon="-2.05144">
        <ele>428.6</ele>
        <time>2021-07-24 17:40:03</time>
      </trkpt>
      <trkpt lat="42.68194" lon="-2.05121">
        <ele>429</ele>
        <time>2021-07-24 17:40:07</time>
      </trkpt>
      <trkpt lat="42.68193" lon="-2.05096">
        <ele>429.4</ele>
        <time>2021-07-24 17:40:11</time>
      </trkpt>
      <trkpt lat="42.68189" lon="-2.05073">
        <ele>429.4</ele>
        <time>2021-07-24 17:40:15</time>
      </trkpt>
      <trkpt lat="42.68185" lon="-2.05051">
        <ele>429.6</ele>
        <time>2021-07-24 17:40:19</time>
      </trkpt>
      <trkpt lat="42.6818" lon="-2.05033">
        <ele>429.8</ele>
        <time>2021-07-24 17:40:23</time>
      </trkpt>
      <trkpt lat="42.68176" lon="-2.05021">
        <ele>429.8</ele>
        <time>2021-07-24 17:40:27</time>
      </trkpt>
      <trkpt lat="42.68172" lon="-2.05012">
        <ele>430</ele>
        <time>2021-07-24 17:40:31</time>
      </trkpt>
      <trkpt lat="42.68166" lon="-2.05002">
        <ele>429.4</ele>
        <time>2021-07-24 17:40:35</time>
      </trkpt>
      <trkpt lat="42.6816" lon="-2.04989">
        <ele>430</ele>
        <time>2021-07-24 17:40:39</time>
      </trkpt>
      <trkpt lat="42.68154" lon="-2.04974">
        <ele>429.8</ele>
        <time>2021-07-24 17:40:43</time>
      </trkpt>
      <trkpt lat="42.68144" lon="-2.0496">
        <ele>430</ele>
        <time>2021-07-24 17:40:47</time>
      </trkpt>
      <trkpt lat="42.68135" lon="-2.04946">
        <ele>429.4</ele>
        <time>2021-07-24 17:40:51</time>
      </trkpt>
      <trkpt lat="42.68123" lon="-2.04934">
        <ele>429.4</ele>
        <time>2021-07-24 17:40:55</time>
      </trkpt>
      <trkpt lat="42.68111" lon="-2.04919">
        <ele>429.6</ele>
        <time>2021-07-24 17:40:59</time>
      </trkpt>
      <trkpt lat="42.68098" lon="-2.04905">
        <ele>429.4</ele>
        <time>2021-07-24 17:41:03</time>
      </trkpt>
      <trkpt lat="42.68084" lon="-2.0489">
        <ele>428.8</ele>
        <time>2021-07-24 17:41:07</time>
      </trkpt>
      <trkpt lat="42.68071" lon="-2.04876">
        <ele>428.6</ele>
        <time>2021-07-24 17:41:11</time>
      </trkpt>
      <trkpt lat="42.68059" lon="-2.04862">
        <ele>428.2</ele>
        <time>2021-07-24 17:41:15</time>
      </trkpt>
      <trkpt lat="42.68048" lon="-2.0485">
        <ele>428.2</ele>
        <time>2021-07-24 17:41:19</time>
      </trkpt>
      <trkpt lat="42.68036" lon="-2.04836">
        <ele>427.6</ele>
        <time>2021-07-24 17:41:23</time>
      </trkpt>
      <trkpt lat="42.68024" lon="-2.04821">
        <ele>428</ele>
        <time>2021-07-24 17:41:27</time>
      </trkpt>
      <trkpt lat="42.68013" lon="-2.04805">
        <ele>428.2</ele>
        <time>2021-07-24 17:41:31</time>
      </trkpt>
      <trkpt lat="42.68003" lon="-2.04789">
        <ele>427.8</ele>
        <time>2021-07-24 17:41:35</time>
      </trkpt>
      <trkpt lat="42.67994" lon="-2.04772">
        <ele>427.6</ele>
        <time>2021-07-24 17:41:39</time>
      </trkpt>
      <trkpt lat="42.67988" lon="-2.04753">
        <ele>427</ele>
        <time>2021-07-24 17:41:43</time>
      </trkpt>
      <trkpt lat="42.67979" lon="-2.04732">
        <ele>427</ele>
        <time>2021-07-24 17:41:47</time>
      </trkpt>
      <trkpt lat="42.67974" lon="-2.04708">
        <ele>426.6</ele>
        <time>2021-07-24 17:41:51</time>
      </trkpt>
      <trkpt lat="42.67969" lon="-2.04683">
        <ele>426.6</ele>
        <time>2021-07-24 17:41:55</time>
      </trkpt>
      <trkpt lat="42.67968" lon="-2.04657">
        <ele>426.4</ele>
        <time>2021-07-24 17:41:59</time>
      </trkpt>
      <trkpt lat="42.67967" lon="-2.04632">
        <ele>425.6</ele>
        <time>2021-07-24 17:42:03</time>
      </trkpt>
      <trkpt lat="42.67967" lon="-2.04607">
        <ele>425.8</ele>
        <time>2021-07-24 17:42:07</time>
      </trkpt>
      <trkpt lat="42.67969" lon="-2.04582">
        <ele>425.6</ele>
        <time>2021-07-24 17:42:11</time>
      </trkpt>
      <trkpt lat="42.67968" lon="-2.04558">
        <ele>425.8</ele>
        <time>2021-07-24 17:42:15</time>
      </trkpt>
      <trkpt lat="42.67969" lon="-2.04535">
        <ele>425.4</ele>
        <time>2021-07-24 17:42:19</time>
      </trkpt>
      <trkpt lat="42.67968" lon="-2.04512">
        <ele>425.8</ele>
        <time>2021-07-24 17:42:23</time>
      </trkpt>
      <trkpt lat="42.67965" lon="-2.04489">
        <ele>425.2</ele>
        <time>2021-07-24 17:42:27</time>
      </trkpt>
      <trkpt lat="42.6796" lon="-2.04466">
        <ele>425.4</ele>
        <time>2021-07-24 17:42:31</time>
      </trkpt>
      <trkpt lat="42.67954" lon="-2.04447">
        <ele>424.8</ele>
        <time>2021-07-24 17:42:35</time>
      </trkpt>
      <trkpt lat="42.67947" lon="-2.04425">
        <ele>424.2</ele>
        <time>2021-07-24 17:42:39</time>
      </trkpt>
      <trkpt lat="42.67938" lon="-2.04404">
        <ele>424.8</ele>
        <time>2021-07-24 17:42:43</time>
      </trkpt>
      <trkpt lat="42.6793" lon="-2.04384">
        <ele>424.8</ele>
        <time>2021-07-24 17:42:47</time>
      </trkpt>
      <trkpt lat="42.67924" lon="-2.04373">
        <ele>424.8</ele>
        <time>2021-07-24 17:42:51</time>
      </trkpt>
      <trkpt lat="42.67919" lon="-2.04363">
        <ele>424.4</ele>
        <time>2021-07-24 17:42:55</time>
      </trkpt>
      <trkpt lat="42.67913" lon="-2.04347">
        <ele>424.2</ele>
        <time>2021-07-24 17:42:59</time>
      </trkpt>
      <trkpt lat="42.67904" lon="-2.04333">
        <ele>423.8</ele>
        <time>2021-07-24 17:43:03</time>
      </trkpt>
      <trkpt lat="42.67895" lon="-2.04314">
        <ele>423.4</ele>
        <time>2021-07-24 17:43:07</time>
      </trkpt>
      <trkpt lat="42.67886" lon="-2.04296">
        <ele>423</ele>
        <time>2021-07-24 17:43:11</time>
      </trkpt>
      <trkpt lat="42.67876" lon="-2.04276">
        <ele>422.8</ele>
        <time>2021-07-24 17:43:15</time>
      </trkpt>
      <trkpt lat="42.67865" lon="-2.04254">
        <ele>422.8</ele>
        <time>2021-07-24 17:43:19</time>
      </trkpt>
      <trkpt lat="42.67853" lon="-2.04232">
        <ele>422.8</ele>
        <time>2021-07-24 17:43:23</time>
      </trkpt>
      <trkpt lat="42.67842" lon="-2.04211">
        <ele>422.6</ele>
        <time>2021-07-24 17:43:27</time>
      </trkpt>
      <trkpt lat="42.67831" lon="-2.04191">
        <ele>422.6</ele>
        <time>2021-07-24 17:43:31</time>
      </trkpt>
      <trkpt lat="42.67821" lon="-2.0417">
        <ele>422.2</ele>
        <time>2021-07-24 17:43:35</time>
      </trkpt>
      <trkpt lat="42.6781" lon="-2.04151">
        <ele>422.4</ele>
        <time>2021-07-24 17:43:39</time>
      </trkpt>
      <trkpt lat="42.678" lon="-2.04131">
        <ele>422.6</ele>
        <time>2021-07-24 17:43:43</time>
      </trkpt>
      <trkpt lat="42.6779" lon="-2.04112">
        <ele>422.4</ele>
        <time>2021-07-24 17:43:47</time>
      </trkpt>
      <trkpt lat="42.6778" lon="-2.04091">
        <ele>422.2</ele>
        <time>2021-07-24 17:43:51</time>
      </trkpt>
      <trkpt lat="42.67769" lon="-2.04071">
        <ele>421.4</ele>
        <time>2021-07-24 17:43:55</time>
      </trkpt>
      <trkpt lat="42.67758" lon="-2.0405">
        <ele>421.8</ele>
        <time>2021-07-24 17:43:59</time>
      </trkpt>
      <trkpt lat="42.67747" lon="-2.04029">
        <ele>421.4</ele>
        <time>2021-07-24 17:44:03</time>
      </trkpt>
      <trkpt lat="42.67736" lon="-2.04008">
        <ele>421.4</ele>
        <time>2021-07-24 17:44:07</time>
      </trkpt>
      <trkpt lat="42.67726" lon="-2.03988">
        <ele>421.2</ele>
        <time>2021-07-24 17:44:11</time>
      </trkpt>
      <trkpt lat="42.67717" lon="-2.03969">
        <ele>421.2</ele>
        <time>2021-07-24 17:44:15</time>
      </trkpt>
      <trkpt lat="42.67707" lon="-2.03951">
        <ele>421.2</ele>
        <time>2021-07-24 17:44:19</time>
      </trkpt>
      <trkpt lat="42.67698" lon="-2.03932">
        <ele>420.4</ele>
        <time>2021-07-24 17:44:23</time>
      </trkpt>
      <trkpt lat="42.67689" lon="-2.03915">
        <ele>421</ele>
        <time>2021-07-24 17:44:27</time>
      </trkpt>
      <trkpt lat="42.67681" lon="-2.03899">
        <ele>420.6</ele>
        <time>2021-07-24 17:44:31</time>
      </trkpt>
      <trkpt lat="42.67673" lon="-2.03883">
        <ele>421</ele>
        <time>2021-07-24 17:44:35</time>
      </trkpt>
      <trkpt lat="42.67664" lon="-2.03868">
        <ele>421.2</ele>
        <time>2021-07-24 17:44:39</time>
      </trkpt>
      <trkpt lat="42.67654" lon="-2.03851">
        <ele>421</ele>
        <time>2021-07-24 17:44:43</time>
      </trkpt>
      <trkpt lat="42.67641" lon="-2.03832">
        <ele>420.6</ele>
        <time>2021-07-24 17:44:47</time>
      </trkpt>
      <trkpt lat="42.67627" lon="-2.03815">
        <ele>420.8</ele>
        <time>2021-07-24 17:44:51</time>
      </trkpt>
      <trkpt lat="42.67614" lon="-2.038">
        <ele>420.8</ele>
        <time>2021-07-24 17:44:55</time>
      </trkpt>
      <trkpt lat="42.67599" lon="-2.03785">
        <ele>420.8</ele>
        <time>2021-07-24 17:44:59</time>
      </trkpt>
      <trkpt lat="42.67583" lon="-2.03772">
        <ele>421.2</ele>
        <time>2021-07-24 17:45:03</time>
      </trkpt>
      <trkpt lat="42.67567" lon="-2.03761">
        <ele>420.6</ele>
        <time>2021-07-24 17:45:07</time>
      </trkpt>
      <trkpt lat="42.67549" lon="-2.0375">
        <ele>420.6</ele>
        <time>2021-07-24 17:45:11</time>
      </trkpt>
      <trkpt lat="42.67533" lon="-2.03742">
        <ele>420.8</ele>
        <time>2021-07-24 17:45:15</time>
      </trkpt>
      <trkpt lat="42.67517" lon="-2.03736">
        <ele>421</ele>
        <time>2021-07-24 17:45:19</time>
      </trkpt>
      <trkpt lat="42.67503" lon="-2.03731">
        <ele>421</ele>
        <time>2021-07-24 17:45:23</time>
      </trkpt>
      <trkpt lat="42.67489" lon="-2.03727">
        <ele>421</ele>
        <time>2021-07-24 17:45:27</time>
      </trkpt>
      <trkpt lat="42.67473" lon="-2.03725">
        <ele>421</ele>
        <time>2021-07-24 17:45:31</time>
      </trkpt>
      <trkpt lat="42.67458" lon="-2.03723">
        <ele>421.4</ele>
        <time>2021-07-24 17:45:35</time>
      </trkpt>
      <trkpt lat="42.67442" lon="-2.03723">
        <ele>421.6</ele>
        <time>2021-07-24 17:45:39</time>
      </trkpt>
      <trkpt lat="42.67429" lon="-2.03723">
        <ele>421.2</ele>
        <time>2021-07-24 17:45:43</time>
      </trkpt>
      <trkpt lat="42.67415" lon="-2.03724">
        <ele>421.4</ele>
        <time>2021-07-24 17:45:47</time>
      </trkpt>
      <trkpt lat="42.67402" lon="-2.03726">
        <ele>421</ele>
        <time>2021-07-24 17:45:51</time>
      </trkpt>
      <trkpt lat="42.67388" lon="-2.03727">
        <ele>421.6</ele>
        <time>2021-07-24 17:45:55</time>
      </trkpt>
      <trkpt lat="42.67376" lon="-2.03729">
        <ele>421.8</ele>
        <time>2021-07-24 17:45:59</time>
      </trkpt>
      <trkpt lat="42.67365" lon="-2.03731">
        <ele>422.8</ele>
        <time>2021-07-24 17:46:03</time>
      </trkpt>
      <trkpt lat="42.67356" lon="-2.03733">
        <ele>422.8</ele>
        <time>2021-07-24 17:46:07</time>
      </trkpt>
      <trkpt lat="42.6735" lon="-2.03736">
        <ele>423</ele>
        <time>2021-07-24 17:46:11</time>
      </trkpt>
      <trkpt lat="42.67342" lon="-2.03736">
        <ele>421.8</ele>
        <time>2021-07-24 17:46:15</time>
      </trkpt>
      <trkpt lat="42.67331" lon="-2.03738">
        <ele>422.4</ele>
        <time>2021-07-24 17:46:19</time>
      </trkpt>
      <trkpt lat="42.67319" lon="-2.03737">
        <ele>422</ele>
        <time>2021-07-24 17:46:23</time>
      </trkpt>
      <trkpt lat="42.67306" lon="-2.03737">
        <ele>421.6</ele>
        <time>2021-07-24 17:46:27</time>
      </trkpt>
      <trkpt lat="42.67291" lon="-2.03734">
        <ele>421.2</ele>
        <time>2021-07-24 17:46:31</time>
      </trkpt>
      <trkpt lat="42.67275" lon="-2.03735">
        <ele>421.2</ele>
        <time>2021-07-24 17:46:35</time>
      </trkpt>
      <trkpt lat="42.67258" lon="-2.0373">
        <ele>420.6</ele>
        <time>2021-07-24 17:46:39</time>
      </trkpt>
      <trkpt lat="42.67241" lon="-2.03723">
        <ele>420.6</ele>
        <time>2021-07-24 17:46:43</time>
      </trkpt>
      <trkpt lat="42.67225" lon="-2.03715">
        <ele>419.2</ele>
        <time>2021-07-24 17:46:47</time>
      </trkpt>
      <trkpt lat="42.6721" lon="-2.03705">
        <ele>419.8</ele>
        <time>2021-07-24 17:46:51</time>
      </trkpt>
      <trkpt lat="42.67197" lon="-2.03693">
        <ele>419.2</ele>
        <time>2021-07-24 17:46:55</time>
      </trkpt>
      <trkpt lat="42.67183" lon="-2.03682">
        <ele>419.4</ele>
        <time>2021-07-24 17:46:59</time>
      </trkpt>
      <trkpt lat="42.67173" lon="-2.0367">
        <ele>419.6</ele>
        <time>2021-07-24 17:47:03</time>
      </trkpt>
      <trkpt lat="42.67167" lon="-2.03663">
        <ele>419.8</ele>
        <time>2021-07-24 17:47:07</time>
      </trkpt>
      <trkpt lat="42.67159" lon="-2.03656">
        <ele>419.8</ele>
        <time>2021-07-24 17:47:11</time>
      </trkpt>
      <trkpt lat="42.67149" lon="-2.0365">
        <ele>419.6</ele>
        <time>2021-07-24 17:47:15</time>
      </trkpt>
      <trkpt lat="42.67145" lon="-2.03634">
        <ele>418.6</ele>
        <time>2021-07-24 17:47:19</time>
      </trkpt>
      <trkpt lat="42.6714" lon="-2.03613">
        <ele>418.4</ele>
        <time>2021-07-24 17:47:23</time>
      </trkpt>
      <trkpt lat="42.67135" lon="-2.03593">
        <ele>418.4</ele>
        <time>2021-07-24 17:47:27</time>
      </trkpt>
      <trkpt lat="42.67129" lon="-2.0358">
        <ele>418.6</ele>
        <time>2021-07-24 17:47:31</time>
      </trkpt>
      <trkpt lat="42.67129" lon="-2.0358">
        <ele>418.4</ele>
        <time>2021-07-24 17:47:35</time>
      </trkpt>
      <trkpt lat="42.67125" lon="-2.03576">
        <ele>418.8</ele>
        <time>2021-07-24 17:47:39</time>
      </trkpt>
      <trkpt lat="42.67119" lon="-2.03571">
        <ele>419</ele>
        <time>2021-07-24 17:47:43</time>
      </trkpt>
      <trkpt lat="42.67114" lon="-2.03564">
        <ele>419.2</ele>
        <time>2021-07-24 17:47:47</time>
      </trkpt>
      <trkpt lat="42.67114" lon="-2.03564">
        <ele>419</ele>
        <time>2021-07-24 17:47:51</time>
      </trkpt>
      <trkpt lat="42.67114" lon="-2.03564">
        <ele>419</ele>
        <time>2021-07-24 17:47:55</time>
      </trkpt>
      <trkpt lat="42.67114" lon="-2.03564">
        <ele>419.4</ele>
        <time>2021-07-24 17:47:59</time>
      </trkpt>
      <trkpt lat="42.67114" lon="-2.03564">
        <ele>419.4</ele>
        <time>2021-07-24 17:48:03</time>
      </trkpt>
      <trkpt lat="42.67114" lon="-2.03564">
        <ele>419.6</ele>
        <time>2021-07-24 17:48:07</time>
      </trkpt>
      <trkpt lat="42.67114" lon="-2.03564">
        <ele>419</ele>
        <time>2021-07-24 17:48:11</time>
      </trkpt>
      <trkpt lat="42.67114" lon="-2.03564">
        <ele>419.2</ele>
        <time>2021-07-24 17:48:15</time>
      </trkpt>
      <trkpt lat="42.67114" lon="-2.03564">
        <ele>419.2</ele>
        <time>2021-07-24 17:48:19</time>
      </trkpt>
      <trkpt lat="42.67114" lon="-2.03564">
        <ele>419.2</ele>
        <time>2021-07-24 17:48:23</time>
      </trkpt>
      <trkpt lat="42.67114" lon="-2.03564">
        <ele>419</ele>
        <time>2021-07-24 17:48:27</time>
      </trkpt>
      <trkpt lat="42.67114" lon="-2.03564">
        <ele>419.4</ele>
        <time>2021-07-24 17:48:31</time>
      </trkpt>
      <trkpt lat="42.67114" lon="-2.03564">
        <ele>419.4</ele>
        <time>2021-07-24 17:48:35</time>
      </trkpt>
      <trkpt lat="42.67114" lon="-2.03564">
        <ele>419</ele>
        <time>2021-07-24 17:48:39</time>
      </trkpt>
      <trkpt lat="42.67114" lon="-2.03564">
        <ele>419.4</ele>
        <time>2021-07-24 17:48:43</time>
      </trkpt>
      <trkpt lat="42.67111" lon="-2.0355">
        <ele>419.4</ele>
        <time>2021-07-24 17:48:47</time>
      </trkpt>
      <trkpt lat="42.67108" lon="-2.03552">
        <ele>419.2</ele>
        <time>2021-07-24 17:48:51</time>
      </trkpt>
      <trkpt lat="42.67108" lon="-2.03552">
        <ele>419</ele>
        <time>2021-07-24 17:48:55</time>
      </trkpt>
      <trkpt lat="42.67108" lon="-2.03552">
        <ele>419</ele>
        <time>2021-07-24 17:48:59</time>
      </trkpt>
      <trkpt lat="42.67108" lon="-2.03552">
        <ele>418.8</ele>
        <time>2021-07-24 17:49:03</time>
      </trkpt>
      <trkpt lat="42.67108" lon="-2.03552">
        <ele>419</ele>
        <time>2021-07-24 17:49:07</time>
      </trkpt>
      <trkpt lat="42.67108" lon="-2.03552">
        <ele>418.6</ele>
        <time>2021-07-24 17:49:11</time>
      </trkpt>
      <trkpt lat="42.67108" lon="-2.03552">
        <ele>419.2</ele>
        <time>2021-07-24 17:49:15</time>
      </trkpt>
      <trkpt lat="42.67108" lon="-2.03552">
        <ele>418.8</ele>
        <time>2021-07-24 17:49:19</time>
      </trkpt>
      <trkpt lat="42.67108" lon="-2.03552">
        <ele>418.8</ele>
        <time>2021-07-24 17:49:23</time>
      </trkpt>
      <trkpt lat="42.67108" lon="-2.03552">
        <ele>419</ele>
        <time>2021-07-24 17:49:27</time>
      </trkpt>
      <trkpt lat="42.67108" lon="-2.03552">
        <ele>419</ele>
        <time>2021-07-24 17:49:31</time>
      </trkpt>
      <trkpt lat="42.67108" lon="-2.03552">
        <ele>419.4</ele>
        <time>2021-07-24 17:49:35</time>
      </trkpt>
      <trkpt lat="42.67108" lon="-2.03552">
        <ele>419</ele>
        <time>2021-07-24 17:49:39</time>
      </trkpt>
      <trkpt lat="42.67108" lon="-2.03552">
        <ele>419</ele>
        <time>2021-07-24 17:49:43</time>
      </trkpt>
      <trkpt lat="42.67108" lon="-2.03552">
        <ele>419.2</ele>
        <time>2021-07-24 17:49:47</time>
      </trkpt>
      <trkpt lat="42.67108" lon="-2.03552">
        <ele>419</ele>
        <time>2021-07-24 17:49:51</time>
      </trkpt>
      <trkpt lat="42.67108" lon="-2.03552">
        <ele>419</ele>
        <time>2021-07-24 17:49:55</time>
      </trkpt>
      <trkpt lat="42.67108" lon="-2.03552">
        <ele>418.8</ele>
        <time>2021-07-24 17:49:59</time>
      </trkpt>
      <trkpt lat="42.67108" lon="-2.03552">
        <ele>419</ele>
        <time>2021-07-24 17:50:03</time>
      </trkpt>
      <trkpt lat="42.67108" lon="-2.03552">
        <ele>419</ele>
        <time>2021-07-24 17:50:07</time>
      </trkpt>
      <trkpt lat="42.67108" lon="-2.03552">
        <ele>419</ele>
        <time>2021-07-24 17:50:11</time>
      </trkpt>
      <trkpt lat="42.67108" lon="-2.03552">
        <ele>419.2</ele>
        <time>2021-07-24 17:50:15</time>
      </trkpt>
      <trkpt lat="42.67108" lon="-2.03552">
        <ele>419</ele>
        <time>2021-07-24 17:50:19</time>
      </trkpt>
      <trkpt lat="42.67108" lon="-2.03552">
        <ele>419.2</ele>
        <time>2021-07-24 17:50:23</time>
      </trkpt>
      <trkpt lat="42.67108" lon="-2.03552">
        <ele>419</ele>
        <time>2021-07-24 17:50:27</time>
      </trkpt>
      <trkpt lat="42.67108" lon="-2.03552">
        <ele>419</ele>
        <time>2021-07-24 17:50:31</time>
      </trkpt>
      <trkpt lat="42.67108" lon="-2.03552">
        <ele>419.2</ele>
        <time>2021-07-24 17:50:35</time>
      </trkpt>
      <trkpt lat="42.67108" lon="-2.03552">
        <ele>419.2</ele>
        <time>2021-07-24 17:50:39</time>
      </trkpt>
      <trkpt lat="42.67108" lon="-2.03552">
        <ele>419</ele>
        <time>2021-07-24 17:50:43</time>
      </trkpt>
      <trkpt lat="42.67108" lon="-2.03552">
        <ele>418.8</ele>
        <time>2021-07-24 17:50:47</time>
      </trkpt>
      <trkpt lat="42.67108" lon="-2.03552">
        <ele>419</ele>
        <time>2021-07-24 17:50:51</time>
      </trkpt>
      <trkpt lat="42.67108" lon="-2.03552">
        <ele>418.6</ele>
        <time>2021-07-24 17:50:55</time>
      </trkpt>
      <trkpt lat="42.67108" lon="-2.03552">
        <ele>419</ele>
        <time>2021-07-24 17:50:59</time>
      </trkpt>
      <trkpt lat="42.67108" lon="-2.03552">
        <ele>419.2</ele>
        <time>2021-07-24 17:51:03</time>
      </trkpt>
      <trkpt lat="42.67108" lon="-2.03552">
        <ele>419</ele>
        <time>2021-07-24 17:51:07</time>
      </trkpt>
      <trkpt lat="42.67108" lon="-2.03552">
        <ele>418.8</ele>
        <time>2021-07-24 17:51:11</time>
      </trkpt>
      <trkpt lat="42.67108" lon="-2.03552">
        <ele>418.6</ele>
        <time>2021-07-24 17:51:15</time>
      </trkpt>
      <trkpt lat="42.67108" lon="-2.03552">
        <ele>419</ele>
        <time>2021-07-24 17:51:19</time>
      </trkpt>
      <trkpt lat="42.67108" lon="-2.03552">
        <ele>419.2</ele>
        <time>2021-07-24 17:51:23</time>
      </trkpt>
      <trkpt lat="42.67108" lon="-2.03552">
        <ele>419.4</ele>
        <time>2021-07-24 17:51:27</time>
      </trkpt>
      <trkpt lat="42.67108" lon="-2.03552">
        <ele>419.2</ele>
        <time>2021-07-24 17:51:31</time>
      </trkpt>
      <trkpt lat="42.67108" lon="-2.03552">
        <ele>419.2</ele>
        <time>2021-07-24 17:51:35</time>
      </trkpt>
      <trkpt lat="42.67108" lon="-2.03552">
        <ele>418.8</ele>
        <time>2021-07-24 17:51:39</time>
      </trkpt>
      <trkpt lat="42.67108" lon="-2.03552">
        <ele>418.8</ele>
        <time>2021-07-24 17:51:43</time>
      </trkpt>
      <trkpt lat="42.67108" lon="-2.03552">
        <ele>418.8</ele>
        <time>2021-07-24 17:51:47</time>
      </trkpt>
      <trkpt lat="42.67108" lon="-2.03552">
        <ele>419</ele>
        <time>2021-07-24 17:51:51</time>
      </trkpt>
      <trkpt lat="42.67108" lon="-2.03552">
        <ele>419</ele>
        <time>2021-07-24 17:51:55</time>
      </trkpt>
      <trkpt lat="42.67108" lon="-2.03552">
        <ele>419</ele>
        <time>2021-07-24 17:51:59</time>
      </trkpt>
      <trkpt lat="42.67108" lon="-2.03552">
        <ele>419</ele>
        <time>2021-07-24 17:52:03</time>
      </trkpt>
      <trkpt lat="42.67108" lon="-2.03552">
        <ele>419.2</ele>
        <time>2021-07-24 17:52:07</time>
      </trkpt>
      <trkpt lat="42.67108" lon="-2.03552">
        <ele>419.2</ele>
        <time>2021-07-24 17:52:11</time>
      </trkpt>
      <trkpt lat="42.67108" lon="-2.03552">
        <ele>419</ele>
        <time>2021-07-24 17:52:15</time>
      </trkpt>
      <trkpt lat="42.67108" lon="-2.03552">
        <ele>419</ele>
        <time>2021-07-24 17:52:19</time>
      </trkpt>
      <trkpt lat="42.67108" lon="-2.03552">
        <ele>419</ele>
        <time>2021-07-24 17:52:23</time>
      </trkpt>
      <trkpt lat="42.67108" lon="-2.03552">
        <ele>418.8</ele>
        <time>2021-07-24 17:52:27</time>
      </trkpt>
      <trkpt lat="42.67108" lon="-2.03552">
        <ele>419</ele>
        <time>2021-07-24 17:52:31</time>
      </trkpt>
      <trkpt lat="42.67108" lon="-2.03552">
        <ele>419</ele>
        <time>2021-07-24 17:52:35</time>
      </trkpt>
      <trkpt lat="42.67108" lon="-2.03552">
        <ele>419</ele>
        <time>2021-07-24 17:52:39</time>
      </trkpt>
      <trkpt lat="42.67108" lon="-2.03552">
        <ele>419</ele>
        <time>2021-07-24 17:52:43</time>
      </trkpt>
      <trkpt lat="42.67108" lon="-2.03552">
        <ele>419</ele>
        <time>2021-07-24 17:52:47</time>
      </trkpt>
      <trkpt lat="42.67108" lon="-2.03552">
        <ele>419</ele>
        <time>2021-07-24 17:52:51</time>
      </trkpt>
      <trkpt lat="42.67108" lon="-2.03552">
        <ele>419</ele>
        <time>2021-07-24 17:52:55</time>
      </trkpt>
      <trkpt lat="42.67108" lon="-2.03552">
        <ele>419.2</ele>
        <time>2021-07-24 17:52:59</time>
      </trkpt>
      <trkpt lat="42.67108" lon="-2.03552">
        <ele>419</ele>
        <time>2021-07-24 17:53:03</time>
      </trkpt>
      <trkpt lat="42.67108" lon="-2.03552">
        <ele>419</ele>
        <time>2021-07-24 17:53:07</time>
      </trkpt>
      <trkpt lat="42.67108" lon="-2.03552">
        <ele>419</ele>
        <time>2021-07-24 17:53:11</time>
      </trkpt>
      <trkpt lat="42.67108" lon="-2.03552">
        <ele>419</ele>
        <time>2021-07-24 17:53:15</time>
      </trkpt>
      <trkpt lat="42.67108" lon="-2.03552">
        <ele>419</ele>
        <time>2021-07-24 17:53:19</time>
      </trkpt>
      <trkpt lat="42.67107" lon="-2.0355">
        <ele>418.6</ele>
        <time>2021-07-24 17:53:23</time>
      </trkpt>
      <trkpt lat="42.67109" lon="-2.03545">
        <ele>418.4</ele>
        <time>2021-07-24 17:53:27</time>
      </trkpt>
      <trkpt lat="42.6711" lon="-2.03534">
        <ele>418.6</ele>
        <time>2021-07-24 17:53:31</time>
      </trkpt>
      <trkpt lat="42.67104" lon="-2.03521">
        <ele>418.2</ele>
        <time>2021-07-24 17:53:35</time>
      </trkpt>
      <trkpt lat="42.67097" lon="-2.03505">
        <ele>417.8</ele>
        <time>2021-07-24 17:53:39</time>
      </trkpt>
      <trkpt lat="42.67088" lon="-2.0349">
        <ele>417.6</ele>
        <time>2021-07-24 17:53:43</time>
      </trkpt>
      <trkpt lat="42.6708" lon="-2.03474">
        <ele>417.2</ele>
        <time>2021-07-24 17:53:47</time>
      </trkpt>
      <trkpt lat="42.67072" lon="-2.03457">
        <ele>416.8</ele>
        <time>2021-07-24 17:53:51</time>
      </trkpt>
      <trkpt lat="42.67062" lon="-2.03445">
        <ele>417.8</ele>
        <time>2021-07-24 17:53:55</time>
      </trkpt>
      <trkpt lat="42.67054" lon="-2.0343">
        <ele>417</ele>
        <time>2021-07-24 17:53:59</time>
      </trkpt>
      <trkpt lat="42.67045" lon="-2.03412">
        <ele>417</ele>
        <time>2021-07-24 17:54:03</time>
      </trkpt>
      <trkpt lat="42.67036" lon="-2.03393">
        <ele>416.8</ele>
        <time>2021-07-24 17:54:07</time>
      </trkpt>
      <trkpt lat="42.67025" lon="-2.03377">
        <ele>416.6</ele>
        <time>2021-07-24 17:54:11</time>
      </trkpt>
      <trkpt lat="42.67012" lon="-2.03368">
        <ele>417</ele>
        <time>2021-07-24 17:54:15</time>
      </trkpt>
      <trkpt lat="42.67" lon="-2.03356">
        <ele>416.6</ele>
        <time>2021-07-24 17:54:19</time>
      </trkpt>
      <trkpt lat="42.66991" lon="-2.0334">
        <ele>417</ele>
        <time>2021-07-24 17:54:23</time>
      </trkpt>
      <trkpt lat="42.66986" lon="-2.03323">
        <ele>417.4</ele>
        <time>2021-07-24 17:54:27</time>
      </trkpt>
      <trkpt lat="42.66986" lon="-2.03305">
        <ele>417</ele>
        <time>2021-07-24 17:54:31</time>
      </trkpt>
      <trkpt lat="42.66991" lon="-2.03287">
        <ele>416.6</ele>
        <time>2021-07-24 17:54:35</time>
      </trkpt>
      <trkpt lat="42.67" lon="-2.0327">
        <ele>417</ele>
        <time>2021-07-24 17:54:39</time>
      </trkpt>
      <trkpt lat="42.66998" lon="-2.0325">
        <ele>415.8</ele>
        <time>2021-07-24 17:54:43</time>
      </trkpt>
      <trkpt lat="42.66987" lon="-2.03228">
        <ele>415.6</ele>
        <time>2021-07-24 17:54:47</time>
      </trkpt>
      <trkpt lat="42.66976" lon="-2.03205">
        <ele>415.2</ele>
        <time>2021-07-24 17:54:51</time>
      </trkpt>
      <trkpt lat="42.66965" lon="-2.03182">
        <ele>415</ele>
        <time>2021-07-24 17:54:55</time>
      </trkpt>
      <trkpt lat="42.66955" lon="-2.0316">
        <ele>415</ele>
        <time>2021-07-24 17:54:59</time>
      </trkpt>
      <trkpt lat="42.66946" lon="-2.03138">
        <ele>414.8</ele>
        <time>2021-07-24 17:55:03</time>
      </trkpt>
      <trkpt lat="42.66936" lon="-2.03116">
        <ele>414.6</ele>
        <time>2021-07-24 17:55:07</time>
      </trkpt>
      <trkpt lat="42.66926" lon="-2.03097">
        <ele>415</ele>
        <time>2021-07-24 17:55:11</time>
      </trkpt>
      <trkpt lat="42.66916" lon="-2.03079">
        <ele>415.2</ele>
        <time>2021-07-24 17:55:15</time>
      </trkpt>
      <trkpt lat="42.66901" lon="-2.03075">
        <ele>414.6</ele>
        <time>2021-07-24 17:55:19</time>
      </trkpt>
      <trkpt lat="42.66886" lon="-2.03076">
        <ele>415.2</ele>
        <time>2021-07-24 17:55:23</time>
      </trkpt>
      <trkpt lat="42.66873" lon="-2.03084">
        <ele>415.8</ele>
        <time>2021-07-24 17:55:27</time>
      </trkpt>
      <trkpt lat="42.66861" lon="-2.03094">
        <ele>415.4</ele>
        <time>2021-07-24 17:55:31</time>
      </trkpt>
      <trkpt lat="42.6685" lon="-2.03106">
        <ele>415.6</ele>
        <time>2021-07-24 17:55:35</time>
      </trkpt>
      <trkpt lat="42.66839" lon="-2.03117">
        <ele>416</ele>
        <time>2021-07-24 17:55:39</time>
      </trkpt>
      <trkpt lat="42.66827" lon="-2.03127">
        <ele>416.6</ele>
        <time>2021-07-24 17:55:43</time>
      </trkpt>
      <trkpt lat="42.66814" lon="-2.03134">
        <ele>416.6</ele>
        <time>2021-07-24 17:55:47</time>
      </trkpt>
      <trkpt lat="42.668" lon="-2.03141">
        <ele>416.4</ele>
        <time>2021-07-24 17:55:51</time>
      </trkpt>
      <trkpt lat="42.66785" lon="-2.03149">
        <ele>416.4</ele>
        <time>2021-07-24 17:55:55</time>
      </trkpt>
      <trkpt lat="42.66771" lon="-2.03157">
        <ele>416.6</ele>
        <time>2021-07-24 17:55:59</time>
      </trkpt>
      <trkpt lat="42.66758" lon="-2.03164">
        <ele>417</ele>
        <time>2021-07-24 17:56:03</time>
      </trkpt>
      <trkpt lat="42.66745" lon="-2.0317">
        <ele>417.2</ele>
        <time>2021-07-24 17:56:07</time>
      </trkpt>
      <trkpt lat="42.66733" lon="-2.03177">
        <ele>417.6</ele>
        <time>2021-07-24 17:56:11</time>
      </trkpt>
      <trkpt lat="42.66722" lon="-2.03182">
        <ele>418.4</ele>
        <time>2021-07-24 17:56:15</time>
      </trkpt>
      <trkpt lat="42.66711" lon="-2.03188">
        <ele>419.4</ele>
        <time>2021-07-24 17:56:19</time>
      </trkpt>
      <trkpt lat="42.667" lon="-2.03195">
        <ele>419.8</ele>
        <time>2021-07-24 17:56:23</time>
      </trkpt>
      <trkpt lat="42.66691" lon="-2.032">
        <ele>420.8</ele>
        <time>2021-07-24 17:56:27</time>
      </trkpt>
      <trkpt lat="42.66682" lon="-2.03205">
        <ele>421.4</ele>
        <time>2021-07-24 17:56:31</time>
      </trkpt>
      <trkpt lat="42.66674" lon="-2.03211">
        <ele>422.6</ele>
        <time>2021-07-24 17:56:35</time>
      </trkpt>
      <trkpt lat="42.66665" lon="-2.03215">
        <ele>422.6</ele>
        <time>2021-07-24 17:56:39</time>
      </trkpt>
      <trkpt lat="42.66657" lon="-2.03214">
        <ele>423</ele>
        <time>2021-07-24 17:56:43</time>
      </trkpt>
      <trkpt lat="42.66648" lon="-2.03213">
        <ele>423.6</ele>
        <time>2021-07-24 17:56:47</time>
      </trkpt>
      <trkpt lat="42.66638" lon="-2.03209">
        <ele>423.6</ele>
        <time>2021-07-24 17:56:51</time>
      </trkpt>
      <trkpt lat="42.66627" lon="-2.03205">
        <ele>423.4</ele>
        <time>2021-07-24 17:56:55</time>
      </trkpt>
      <trkpt lat="42.66615" lon="-2.03203">
        <ele>423.8</ele>
        <time>2021-07-24 17:56:59</time>
      </trkpt>
      <trkpt lat="42.66603" lon="-2.03203">
        <ele>424.2</ele>
        <time>2021-07-24 17:57:03</time>
      </trkpt>
      <trkpt lat="42.66592" lon="-2.03203">
        <ele>424.8</ele>
        <time>2021-07-24 17:57:07</time>
      </trkpt>
      <trkpt lat="42.66581" lon="-2.03203">
        <ele>424.8</ele>
        <time>2021-07-24 17:57:11</time>
      </trkpt>
      <trkpt lat="42.66571" lon="-2.03203">
        <ele>425.4</ele>
        <time>2021-07-24 17:57:15</time>
      </trkpt>
      <trkpt lat="42.6656" lon="-2.03204">
        <ele>426.6</ele>
        <time>2021-07-24 17:57:19</time>
      </trkpt>
      <trkpt lat="42.66549" lon="-2.03204">
        <ele>426.6</ele>
        <time>2021-07-24 17:57:23</time>
      </trkpt>
      <trkpt lat="42.66537" lon="-2.03205">
        <ele>426.6</ele>
        <time>2021-07-24 17:57:27</time>
      </trkpt>
      <trkpt lat="42.66526" lon="-2.03207">
        <ele>427.2</ele>
        <time>2021-07-24 17:57:31</time>
      </trkpt>
      <trkpt lat="42.66515" lon="-2.0321">
        <ele>427.8</ele>
        <time>2021-07-24 17:57:35</time>
      </trkpt>
      <trkpt lat="42.66504" lon="-2.03213">
        <ele>428.6</ele>
        <time>2021-07-24 17:57:39</time>
      </trkpt>
      <trkpt lat="42.66493" lon="-2.03217">
        <ele>429.2</ele>
        <time>2021-07-24 17:57:43</time>
      </trkpt>
      <trkpt lat="42.66482" lon="-2.03222">
        <ele>430</ele>
        <time>2021-07-24 17:57:47</time>
      </trkpt>
      <trkpt lat="42.66471" lon="-2.03226">
        <ele>430.4</ele>
        <time>2021-07-24 17:57:51</time>
      </trkpt>
      <trkpt lat="42.66459" lon="-2.03231">
        <ele>430.8</ele>
        <time>2021-07-24 17:57:55</time>
      </trkpt>
      <trkpt lat="42.66447" lon="-2.03236">
        <ele>431.4</ele>
        <time>2021-07-24 17:57:59</time>
      </trkpt>
      <trkpt lat="42.66434" lon="-2.03243">
        <ele>431.8</ele>
        <time>2021-07-24 17:58:03</time>
      </trkpt>
      <trkpt lat="42.66425" lon="-2.03254">
        <ele>432</ele>
        <time>2021-07-24 17:58:07</time>
      </trkpt>
      <trkpt lat="42.66418" lon="-2.0327">
        <ele>432</ele>
        <time>2021-07-24 17:58:11</time>
      </trkpt>
      <trkpt lat="42.66409" lon="-2.03287">
        <ele>432.2</ele>
        <time>2021-07-24 17:58:15</time>
      </trkpt>
      <trkpt lat="42.66395" lon="-2.03291">
        <ele>432.6</ele>
        <time>2021-07-24 17:58:19</time>
      </trkpt>
      <trkpt lat="42.66382" lon="-2.0328">
        <ele>433.2</ele>
        <time>2021-07-24 17:58:23</time>
      </trkpt>
      <trkpt lat="42.66378" lon="-2.03262">
        <ele>432.8</ele>
        <time>2021-07-24 17:58:27</time>
      </trkpt>
      <trkpt lat="42.6638" lon="-2.03242">
        <ele>433</ele>
        <time>2021-07-24 17:58:31</time>
      </trkpt>
      <trkpt lat="42.66372" lon="-2.03222">
        <ele>433.8</ele>
        <time>2021-07-24 17:58:35</time>
      </trkpt>
      <trkpt lat="42.66359" lon="-2.03212">
        <ele>433.8</ele>
        <time>2021-07-24 17:58:39</time>
      </trkpt>
      <trkpt lat="42.66348" lon="-2.03208">
        <ele>433.8</ele>
        <time>2021-07-24 17:58:43</time>
      </trkpt>
      <trkpt lat="42.66339" lon="-2.03206">
        <ele>435</ele>
        <time>2021-07-24 17:58:47</time>
      </trkpt>
      <trkpt lat="42.66332" lon="-2.03203">
        <ele>435.2</ele>
        <time>2021-07-24 17:58:51</time>
      </trkpt>
      <trkpt lat="42.6633" lon="-2.03207">
        <ele>435.6</ele>
        <time>2021-07-24 17:58:55</time>
      </trkpt>
      <trkpt lat="42.66327" lon="-2.03214">
        <ele>435.4</ele>
        <time>2021-07-24 17:58:59</time>
      </trkpt>
      <trkpt lat="42.66325" lon="-2.0322">
        <ele>436</ele>
        <time>2021-07-24 17:59:03</time>
      </trkpt>
      <trkpt lat="42.66325" lon="-2.0322">
        <ele>436</ele>
        <time>2021-07-24 17:59:07</time>
      </trkpt>
      <trkpt lat="42.66325" lon="-2.0322">
        <ele>436.2</ele>
        <time>2021-07-24 17:59:11</time>
      </trkpt>
      <trkpt lat="42.66325" lon="-2.0322">
        <ele>436</ele>
        <time>2021-07-24 17:59:15</time>
      </trkpt>
      <trkpt lat="42.66992" lon="-2.03275">
        <ele>398.2</ele>
        <time>2021-07-25 10:03:10</time>
      </trkpt>
      <trkpt lat="42.66987" lon="-2.03287">
        <ele>398</ele>
        <time>2021-07-25 10:03:14</time>
      </trkpt>
      <trkpt lat="42.66992" lon="-2.03301">
        <ele>398.2</ele>
        <time>2021-07-25 10:03:18</time>
      </trkpt>
      <trkpt lat="42.66997" lon="-2.03312">
        <ele>398.2</ele>
        <time>2021-07-25 10:03:22</time>
      </trkpt>
      <trkpt lat="42.67004" lon="-2.03325">
        <ele>398.4</ele>
        <time>2021-07-25 10:03:26</time>
      </trkpt>
      <trkpt lat="42.67012" lon="-2.03339">
        <ele>398.6</ele>
        <time>2021-07-25 10:03:30</time>
      </trkpt>
      <trkpt lat="42.67019" lon="-2.03354">
        <ele>398.6</ele>
        <time>2021-07-25 10:03:34</time>
      </trkpt>
      <trkpt lat="42.67026" lon="-2.03367">
        <ele>397.6</ele>
        <time>2021-07-25 10:03:38</time>
      </trkpt>
      <trkpt lat="42.67036" lon="-2.0338">
        <ele>398</ele>
        <time>2021-07-25 10:03:42</time>
      </trkpt>
      <trkpt lat="42.67044" lon="-2.03396">
        <ele>398.4</ele>
        <time>2021-07-25 10:03:46</time>
      </trkpt>
      <trkpt lat="42.67053" lon="-2.03414">
        <ele>398</ele>
        <time>2021-07-25 10:03:50</time>
      </trkpt>
      <trkpt lat="42.67064" lon="-2.03425">
        <ele>398.8</ele>
        <time>2021-07-25 10:03:54</time>
      </trkpt>
      <trkpt lat="42.67069" lon="-2.03442">
        <ele>399</ele>
        <time>2021-07-25 10:03:58</time>
      </trkpt>
      <trkpt lat="42.67075" lon="-2.03462">
        <ele>399.4</ele>
        <time>2021-07-25 10:04:02</time>
      </trkpt>
      <trkpt lat="42.67084" lon="-2.0348">
        <ele>398.8</ele>
        <time>2021-07-25 10:04:06</time>
      </trkpt>
      <trkpt lat="42.67093" lon="-2.03498">
        <ele>399.4</ele>
        <time>2021-07-25 10:04:10</time>
      </trkpt>
      <trkpt lat="42.67101" lon="-2.03515">
        <ele>399</ele>
        <time>2021-07-25 10:04:14</time>
      </trkpt>
      <trkpt lat="42.67109" lon="-2.03532">
        <ele>399.4</ele>
        <time>2021-07-25 10:04:18</time>
      </trkpt>
      <trkpt lat="42.67118" lon="-2.03548">
        <ele>399.4</ele>
        <time>2021-07-25 10:04:22</time>
      </trkpt>
      <trkpt lat="42.67128" lon="-2.03565">
        <ele>399</ele>
        <time>2021-07-25 10:04:26</time>
      </trkpt>
      <trkpt lat="42.67134" lon="-2.03588">
        <ele>399.2</ele>
        <time>2021-07-25 10:04:30</time>
      </trkpt>
      <trkpt lat="42.6714" lon="-2.03609">
        <ele>400.4</ele>
        <time>2021-07-25 10:04:34</time>
      </trkpt>
      <trkpt lat="42.67146" lon="-2.03626">
        <ele>399.6</ele>
        <time>2021-07-25 10:04:38</time>
      </trkpt>
      <trkpt lat="42.67157" lon="-2.03639">
        <ele>400.6</ele>
        <time>2021-07-25 10:04:42</time>
      </trkpt>
      <trkpt lat="42.67164" lon="-2.03652">
        <ele>400.2</ele>
        <time>2021-07-25 10:04:46</time>
      </trkpt>
      <trkpt lat="42.67173" lon="-2.03664">
        <ele>400.4</ele>
        <time>2021-07-25 10:04:50</time>
      </trkpt>
      <trkpt lat="42.67184" lon="-2.03677">
        <ele>400.8</ele>
        <time>2021-07-25 10:04:54</time>
      </trkpt>
      <trkpt lat="42.67195" lon="-2.03689">
        <ele>401.2</ele>
        <time>2021-07-25 10:04:58</time>
      </trkpt>
      <trkpt lat="42.67206" lon="-2.037">
        <ele>400.2</ele>
        <time>2021-07-25 10:05:02</time>
      </trkpt>
      <trkpt lat="42.67219" lon="-2.0371">
        <ele>400.2</ele>
        <time>2021-07-25 10:05:06</time>
      </trkpt>
      <trkpt lat="42.67232" lon="-2.03717">
        <ele>400.4</ele>
        <time>2021-07-25 10:05:10</time>
      </trkpt>
      <trkpt lat="42.67245" lon="-2.03723">
        <ele>400.6</ele>
        <time>2021-07-25 10:05:14</time>
      </trkpt>
      <trkpt lat="42.67259" lon="-2.03728">
        <ele>400.8</ele>
        <time>2021-07-25 10:05:18</time>
      </trkpt>
      <trkpt lat="42.67272" lon="-2.03731">
        <ele>401.6</ele>
        <time>2021-07-25 10:05:22</time>
      </trkpt>
      <trkpt lat="42.67286" lon="-2.03731">
        <ele>401.2</ele>
        <time>2021-07-25 10:05:26</time>
      </trkpt>
      <trkpt lat="42.67299" lon="-2.03731">
        <ele>402.4</ele>
        <time>2021-07-25 10:05:30</time>
      </trkpt>
      <trkpt lat="42.67313" lon="-2.03727">
        <ele>401.8</ele>
        <time>2021-07-25 10:05:34</time>
      </trkpt>
      <trkpt lat="42.67325" lon="-2.03719">
        <ele>402.2</ele>
        <time>2021-07-25 10:05:38</time>
      </trkpt>
      <trkpt lat="42.67339" lon="-2.03716">
        <ele>403</ele>
        <time>2021-07-25 10:05:42</time>
      </trkpt>
      <trkpt lat="42.67348" lon="-2.03728">
        <ele>403.6</ele>
        <time>2021-07-25 10:05:46</time>
      </trkpt>
      <trkpt lat="42.67351" lon="-2.0374">
        <ele>403.6</ele>
        <time>2021-07-25 10:05:50</time>
      </trkpt>
      <trkpt lat="42.67354" lon="-2.03751">
        <ele>405</ele>
        <time>2021-07-25 10:05:54</time>
      </trkpt>
      <trkpt lat="42.67358" lon="-2.03763">
        <ele>405.6</ele>
        <time>2021-07-25 10:05:58</time>
      </trkpt>
      <trkpt lat="42.67361" lon="-2.03774">
        <ele>406</ele>
        <time>2021-07-25 10:06:02</time>
      </trkpt>
      <trkpt lat="42.67363" lon="-2.03782">
        <ele>406.2</ele>
        <time>2021-07-25 10:06:06</time>
      </trkpt>
      <trkpt lat="42.67366" lon="-2.03792">
        <ele>408</ele>
        <time>2021-07-25 10:06:10</time>
      </trkpt>
      <trkpt lat="42.67369" lon="-2.03801">
        <ele>409</ele>
        <time>2021-07-25 10:06:14</time>
      </trkpt>
      <trkpt lat="42.67373" lon="-2.03809">
        <ele>409.6</ele>
        <time>2021-07-25 10:06:18</time>
      </trkpt>
      <trkpt lat="42.67377" lon="-2.03817">
        <ele>410.4</ele>
        <time>2021-07-25 10:06:22</time>
      </trkpt>
      <trkpt lat="42.67381" lon="-2.03824">
        <ele>411.6</ele>
        <time>2021-07-25 10:06:26</time>
      </trkpt>
      <trkpt lat="42.67386" lon="-2.03831">
        <ele>413</ele>
        <time>2021-07-25 10:06:30</time>
      </trkpt>
      <trkpt lat="42.6739" lon="-2.03839">
        <ele>414</ele>
        <time>2021-07-25 10:06:34</time>
      </trkpt>
      <trkpt lat="42.67393" lon="-2.03847">
        <ele>414</ele>
        <time>2021-07-25 10:06:38</time>
      </trkpt>
      <trkpt lat="42.67397" lon="-2.03855">
        <ele>416.2</ele>
        <time>2021-07-25 10:06:42</time>
      </trkpt>
      <trkpt lat="42.67398" lon="-2.03863">
        <ele>416.2</ele>
        <time>2021-07-25 10:06:46</time>
      </trkpt>
      <trkpt lat="42.67401" lon="-2.0387">
        <ele>416.2</ele>
        <time>2021-07-25 10:06:50</time>
      </trkpt>
      <trkpt lat="42.67404" lon="-2.03877">
        <ele>416.6</ele>
        <time>2021-07-25 10:06:54</time>
      </trkpt>
      <trkpt lat="42.67407" lon="-2.03885">
        <ele>416.6</ele>
        <time>2021-07-25 10:06:58</time>
      </trkpt>
      <trkpt lat="42.6741" lon="-2.03892">
        <ele>416.8</ele>
        <time>2021-07-25 10:07:02</time>
      </trkpt>
      <trkpt lat="42.67412" lon="-2.03897">
        <ele>417.6</ele>
        <time>2021-07-25 10:07:06</time>
      </trkpt>
      <trkpt lat="42.67412" lon="-2.03897">
        <ele>417</ele>
        <time>2021-07-25 10:07:10</time>
      </trkpt>
      <trkpt lat="42.67412" lon="-2.03897">
        <ele>416.8</ele>
        <time>2021-07-25 10:07:14</time>
      </trkpt>
      <trkpt lat="42.67412" lon="-2.03897">
        <ele>417.4</ele>
        <time>2021-07-25 10:07:18</time>
      </trkpt>
      <trkpt lat="42.67412" lon="-2.03897">
        <ele>417.4</ele>
        <time>2021-07-25 10:07:22</time>
      </trkpt>
      <trkpt lat="42.67413" lon="-2.03899">
        <ele>417.6</ele>
        <time>2021-07-25 10:07:26</time>
      </trkpt>
      <trkpt lat="42.67409" lon="-2.03908">
        <ele>417.2</ele>
        <time>2021-07-25 10:07:30</time>
      </trkpt>
      <trkpt lat="42.67406" lon="-2.03918">
        <ele>417.4</ele>
        <time>2021-07-25 10:07:34</time>
      </trkpt>
      <trkpt lat="42.67405" lon="-2.03925">
        <ele>418.4</ele>
        <time>2021-07-25 10:07:38</time>
      </trkpt>
      <trkpt lat="42.67404" lon="-2.03932">
        <ele>418.4</ele>
        <time>2021-07-25 10:07:42</time>
      </trkpt>
      <trkpt lat="42.67403" lon="-2.03942">
        <ele>419</ele>
        <time>2021-07-25 10:07:46</time>
      </trkpt>
      <trkpt lat="42.67403" lon="-2.03952">
        <ele>419</ele>
        <time>2021-07-25 10:07:50</time>
      </trkpt>
      <trkpt lat="42.67406" lon="-2.03962">
        <ele>419.2</ele>
        <time>2021-07-25 10:07:54</time>
      </trkpt>
      <trkpt lat="42.6741" lon="-2.03969">
        <ele>419.2</ele>
        <time>2021-07-25 10:07:58</time>
      </trkpt>
      <trkpt lat="42.67415" lon="-2.03971">
        <ele>419.4</ele>
        <time>2021-07-25 10:08:02</time>
      </trkpt>
      <trkpt lat="42.67421" lon="-2.03976">
        <ele>420.2</ele>
        <time>2021-07-25 10:08:06</time>
      </trkpt>
      <trkpt lat="42.67427" lon="-2.03982">
        <ele>420.2</ele>
        <time>2021-07-25 10:08:10</time>
      </trkpt>
      <trkpt lat="42.67433" lon="-2.03991">
        <ele>421.2</ele>
        <time>2021-07-25 10:08:14</time>
      </trkpt>
      <trkpt lat="42.67439" lon="-2.03998">
        <ele>422.6</ele>
        <time>2021-07-25 10:08:18</time>
      </trkpt>
      <trkpt lat="42.67444" lon="-2.04006">
        <ele>422.6</ele>
        <time>2021-07-25 10:08:22</time>
      </trkpt>
      <trkpt lat="42.67451" lon="-2.04011">
        <ele>424.2</ele>
        <time>2021-07-25 10:08:26</time>
      </trkpt>
      <trkpt lat="42.67459" lon="-2.04009">
        <ele>424.2</ele>
        <time>2021-07-25 10:08:30</time>
      </trkpt>
      <trkpt lat="42.67467" lon="-2.04005">
        <ele>424.2</ele>
        <time>2021-07-25 10:08:34</time>
      </trkpt>
      <trkpt lat="42.67476" lon="-2.04006">
        <ele>423.8</ele>
        <time>2021-07-25 10:08:38</time>
      </trkpt>
      <trkpt lat="42.67482" lon="-2.04014">
        <ele>423.4</ele>
        <time>2021-07-25 10:08:42</time>
      </trkpt>
      <trkpt lat="42.67487" lon="-2.0402">
        <ele>424.8</ele>
        <time>2021-07-25 10:08:46</time>
      </trkpt>
      <trkpt lat="42.67492" lon="-2.04027">
        <ele>425.4</ele>
        <time>2021-07-25 10:08:50</time>
      </trkpt>
      <trkpt lat="42.67487" lon="-2.04032">
        <ele>425.2</ele>
        <time>2021-07-25 10:08:54</time>
      </trkpt>
      <trkpt lat="42.67483" lon="-2.0402">
        <ele>424.8</ele>
        <time>2021-07-25 10:08:58</time>
      </trkpt>
      <trkpt lat="42.67474" lon="-2.0401">
        <ele>425.6</ele>
        <time>2021-07-25 10:09:02</time>
      </trkpt>
      <trkpt lat="42.67463" lon="-2.04012">
        <ele>425</ele>
        <time>2021-07-25 10:09:06</time>
      </trkpt>
      <trkpt lat="42.67451" lon="-2.04016">
        <ele>424.6</ele>
        <time>2021-07-25 10:09:10</time>
      </trkpt>
      <trkpt lat="42.67436" lon="-2.04002">
        <ele>421.6</ele>
        <time>2021-07-25 10:09:14</time>
      </trkpt>
      <trkpt lat="42.6742" lon="-2.03981">
        <ele>419.8</ele>
        <time>2021-07-25 10:09:18</time>
      </trkpt>
      <trkpt lat="42.67406" lon="-2.03963">
        <ele>418.4</ele>
        <time>2021-07-25 10:09:22</time>
      </trkpt>
      <trkpt lat="42.67401" lon="-2.03939">
        <ele>417.4</ele>
        <time>2021-07-25 10:09:26</time>
      </trkpt>
      <trkpt lat="42.67403" lon="-2.03916">
        <ele>417.8</ele>
        <time>2021-07-25 10:09:30</time>
      </trkpt>
      <trkpt lat="42.67403" lon="-2.03916">
        <ele>417.8</ele>
        <time>2021-07-25 10:09:34</time>
      </trkpt>
      <trkpt lat="42.67405" lon="-2.03906">
        <ele>416.8</ele>
        <time>2021-07-25 10:09:38</time>
      </trkpt>
      <trkpt lat="42.67407" lon="-2.03895">
        <ele>416.4</ele>
        <time>2021-07-25 10:09:42</time>
      </trkpt>
      <trkpt lat="42.674" lon="-2.0388">
        <ele>415.8</ele>
        <time>2021-07-25 10:09:46</time>
      </trkpt>
      <trkpt lat="42.67391" lon="-2.03862">
        <ele>413.6</ele>
        <time>2021-07-25 10:09:50</time>
      </trkpt>
      <trkpt lat="42.67385" lon="-2.03847">
        <ele>413</ele>
        <time>2021-07-25 10:09:54</time>
      </trkpt>
      <trkpt lat="42.67377" lon="-2.03831">
        <ele>411.2</ele>
        <time>2021-07-25 10:09:58</time>
      </trkpt>
      <trkpt lat="42.67368" lon="-2.0381">
        <ele>408.6</ele>
        <time>2021-07-25 10:10:02</time>
      </trkpt>
      <trkpt lat="42.6736" lon="-2.03788">
        <ele>405.8</ele>
        <time>2021-07-25 10:10:06</time>
      </trkpt>
      <trkpt lat="42.67353" lon="-2.03766">
        <ele>404.8</ele>
        <time>2021-07-25 10:10:10</time>
      </trkpt>
      <trkpt lat="42.67348" lon="-2.0375">
        <ele>404</ele>
        <time>2021-07-25 10:10:14</time>
      </trkpt>
      <trkpt lat="42.67353" lon="-2.03739">
        <ele>404.6</ele>
        <time>2021-07-25 10:10:18</time>
      </trkpt>
      <trkpt lat="42.67353" lon="-2.03739">
        <ele>404.2</ele>
        <time>2021-07-25 10:10:22</time>
      </trkpt>
      <trkpt lat="42.67357" lon="-2.03736">
        <ele>403.8</ele>
        <time>2021-07-25 10:10:26</time>
      </trkpt>
      <trkpt lat="42.6737" lon="-2.03733">
        <ele>402.8</ele>
        <time>2021-07-25 10:10:30</time>
      </trkpt>
      <trkpt lat="42.67385" lon="-2.0373">
        <ele>402.4</ele>
        <time>2021-07-25 10:10:34</time>
      </trkpt>
      <trkpt lat="42.67401" lon="-2.03728">
        <ele>401.2</ele>
        <time>2021-07-25 10:10:38</time>
      </trkpt>
      <trkpt lat="42.67416" lon="-2.03727">
        <ele>402.8</ele>
        <time>2021-07-25 10:10:42</time>
      </trkpt>
      <trkpt lat="42.6743" lon="-2.03727">
        <ele>402.8</ele>
        <time>2021-07-25 10:10:46</time>
      </trkpt>
      <trkpt lat="42.67443" lon="-2.03726">
        <ele>403.4</ele>
        <time>2021-07-25 10:10:50</time>
      </trkpt>
      <trkpt lat="42.67459" lon="-2.03726">
        <ele>402.4</ele>
        <time>2021-07-25 10:10:54</time>
      </trkpt>
      <trkpt lat="42.67476" lon="-2.03727">
        <ele>401.2</ele>
        <time>2021-07-25 10:10:58</time>
      </trkpt>
      <trkpt lat="42.67492" lon="-2.03732">
        <ele>401.4</ele>
        <time>2021-07-25 10:11:02</time>
      </trkpt>
      <trkpt lat="42.67508" lon="-2.03737">
        <ele>401.4</ele>
        <time>2021-07-25 10:11:06</time>
      </trkpt>
      <trkpt lat="42.67523" lon="-2.03742">
        <ele>401.2</ele>
        <time>2021-07-25 10:11:10</time>
      </trkpt>
      <trkpt lat="42.67538" lon="-2.03749">
        <ele>401.2</ele>
        <time>2021-07-25 10:11:14</time>
      </trkpt>
      <trkpt lat="42.67552" lon="-2.03755">
        <ele>402.2</ele>
        <time>2021-07-25 10:11:18</time>
      </trkpt>
      <trkpt lat="42.67567" lon="-2.03764">
        <ele>401.4</ele>
        <time>2021-07-25 10:11:22</time>
      </trkpt>
      <trkpt lat="42.67581" lon="-2.03774">
        <ele>402</ele>
        <time>2021-07-25 10:11:26</time>
      </trkpt>
      <trkpt lat="42.67594" lon="-2.03785">
        <ele>402.4</ele>
        <time>2021-07-25 10:11:30</time>
      </trkpt>
      <trkpt lat="42.67607" lon="-2.03798">
        <ele>402.2</ele>
        <time>2021-07-25 10:11:34</time>
      </trkpt>
      <trkpt lat="42.6762" lon="-2.03811">
        <ele>403</ele>
        <time>2021-07-25 10:11:38</time>
      </trkpt>
      <trkpt lat="42.67632" lon="-2.03825">
        <ele>403.6</ele>
        <time>2021-07-25 10:11:42</time>
      </trkpt>
      <trkpt lat="42.67643" lon="-2.03841">
        <ele>404.2</ele>
        <time>2021-07-25 10:11:46</time>
      </trkpt>
      <trkpt lat="42.67653" lon="-2.03856">
        <ele>403</ele>
        <time>2021-07-25 10:11:50</time>
      </trkpt>
      <trkpt lat="42.67662" lon="-2.03871">
        <ele>403.2</ele>
        <time>2021-07-25 10:11:54</time>
      </trkpt>
      <trkpt lat="42.67671" lon="-2.03888">
        <ele>404</ele>
        <time>2021-07-25 10:11:58</time>
      </trkpt>
      <trkpt lat="42.6768" lon="-2.03906">
        <ele>404</ele>
        <time>2021-07-25 10:12:02</time>
      </trkpt>
      <trkpt lat="42.67689" lon="-2.03923">
        <ele>403.4</ele>
        <time>2021-07-25 10:12:06</time>
      </trkpt>
      <trkpt lat="42.67698" lon="-2.0394">
        <ele>403</ele>
        <time>2021-07-25 10:12:10</time>
      </trkpt>
      <trkpt lat="42.67707" lon="-2.03956">
        <ele>403.4</ele>
        <time>2021-07-25 10:12:14</time>
      </trkpt>
      <trkpt lat="42.67715" lon="-2.03971">
        <ele>403.8</ele>
        <time>2021-07-25 10:12:18</time>
      </trkpt>
      <trkpt lat="42.67723" lon="-2.03987">
        <ele>403</ele>
        <time>2021-07-25 10:12:22</time>
      </trkpt>
      <trkpt lat="42.67731" lon="-2.04003">
        <ele>403.2</ele>
        <time>2021-07-25 10:12:26</time>
      </trkpt>
      <trkpt lat="42.6774" lon="-2.04018">
        <ele>403</ele>
        <time>2021-07-25 10:12:30</time>
      </trkpt>
      <trkpt lat="42.67748" lon="-2.04034">
        <ele>402.4</ele>
        <time>2021-07-25 10:12:34</time>
      </trkpt>
      <trkpt lat="42.67756" lon="-2.04051">
        <ele>404.2</ele>
        <time>2021-07-25 10:12:38</time>
      </trkpt>
      <trkpt lat="42.67764" lon="-2.04067">
        <ele>402</ele>
        <time>2021-07-25 10:12:42</time>
      </trkpt>
      <trkpt lat="42.67773" lon="-2.04082">
        <ele>402.8</ele>
        <time>2021-07-25 10:12:46</time>
      </trkpt>
      <trkpt lat="42.6778" lon="-2.04098">
        <ele>403.8</ele>
        <time>2021-07-25 10:12:50</time>
      </trkpt>
      <trkpt lat="42.67788" lon="-2.04112">
        <ele>403.8</ele>
        <time>2021-07-25 10:12:54</time>
      </trkpt>
      <trkpt lat="42.67796" lon="-2.04128">
        <ele>405</ele>
        <time>2021-07-25 10:12:58</time>
      </trkpt>
      <trkpt lat="42.67805" lon="-2.04144">
        <ele>403.6</ele>
        <time>2021-07-25 10:13:02</time>
      </trkpt>
      <trkpt lat="42.67813" lon="-2.04161">
        <ele>404.2</ele>
        <time>2021-07-25 10:13:06</time>
      </trkpt>
      <trkpt lat="42.67822" lon="-2.04179">
        <ele>404.8</ele>
        <time>2021-07-25 10:13:10</time>
      </trkpt>
      <trkpt lat="42.6783" lon="-2.04197">
        <ele>405</ele>
        <time>2021-07-25 10:13:14</time>
      </trkpt>
      <trkpt lat="42.67839" lon="-2.04214">
        <ele>405</ele>
        <time>2021-07-25 10:13:18</time>
      </trkpt>
      <trkpt lat="42.67847" lon="-2.04231">
        <ele>405</ele>
        <time>2021-07-25 10:13:22</time>
      </trkpt>
      <trkpt lat="42.67856" lon="-2.04248">
        <ele>405.6</ele>
        <time>2021-07-25 10:13:26</time>
      </trkpt>
      <trkpt lat="42.67864" lon="-2.04265">
        <ele>405.6</ele>
        <time>2021-07-25 10:13:30</time>
      </trkpt>
      <trkpt lat="42.67872" lon="-2.04281">
        <ele>405.6</ele>
        <time>2021-07-25 10:13:34</time>
      </trkpt>
      <trkpt lat="42.67881" lon="-2.04297">
        <ele>406.4</ele>
        <time>2021-07-25 10:13:38</time>
      </trkpt>
      <trkpt lat="42.6789" lon="-2.04313">
        <ele>406.2</ele>
        <time>2021-07-25 10:13:42</time>
      </trkpt>
      <trkpt lat="42.67899" lon="-2.04328">
        <ele>406.2</ele>
        <time>2021-07-25 10:13:46</time>
      </trkpt>
      <trkpt lat="42.67906" lon="-2.04342">
        <ele>406.2</ele>
        <time>2021-07-25 10:13:50</time>
      </trkpt>
      <trkpt lat="42.67916" lon="-2.04358">
        <ele>407.4</ele>
        <time>2021-07-25 10:13:54</time>
      </trkpt>
      <trkpt lat="42.67923" lon="-2.04373">
        <ele>407.8</ele>
        <time>2021-07-25 10:13:58</time>
      </trkpt>
      <trkpt lat="42.67931" lon="-2.04391">
        <ele>407</ele>
        <time>2021-07-25 10:14:02</time>
      </trkpt>
      <trkpt lat="42.67939" lon="-2.0441">
        <ele>408.2</ele>
        <time>2021-07-25 10:14:06</time>
      </trkpt>
      <trkpt lat="42.67946" lon="-2.04428">
        <ele>407</ele>
        <time>2021-07-25 10:14:10</time>
      </trkpt>
      <trkpt lat="42.67953" lon="-2.04445">
        <ele>407.6</ele>
        <time>2021-07-25 10:14:14</time>
      </trkpt>
      <trkpt lat="42.67958" lon="-2.04464">
        <ele>407.4</ele>
        <time>2021-07-25 10:14:18</time>
      </trkpt>
      <trkpt lat="42.67961" lon="-2.04484">
        <ele>406.6</ele>
        <time>2021-07-25 10:14:22</time>
      </trkpt>
      <trkpt lat="42.67963" lon="-2.04503">
        <ele>406.2</ele>
        <time>2021-07-25 10:14:26</time>
      </trkpt>
      <trkpt lat="42.67963" lon="-2.04523">
        <ele>406.4</ele>
        <time>2021-07-25 10:14:30</time>
      </trkpt>
      <trkpt lat="42.67964" lon="-2.04544">
        <ele>407.8</ele>
        <time>2021-07-25 10:14:34</time>
      </trkpt>
      <trkpt lat="42.67965" lon="-2.04566">
        <ele>406.4</ele>
        <time>2021-07-25 10:14:38</time>
      </trkpt>
      <trkpt lat="42.67965" lon="-2.04586">
        <ele>408.8</ele>
        <time>2021-07-25 10:14:42</time>
      </trkpt>
      <trkpt lat="42.67965" lon="-2.04609">
        <ele>410</ele>
        <time>2021-07-25 10:14:46</time>
      </trkpt>
      <trkpt lat="42.67965" lon="-2.04631">
        <ele>408.8</ele>
        <time>2021-07-25 10:14:50</time>
      </trkpt>
      <trkpt lat="42.67965" lon="-2.04651">
        <ele>409</ele>
        <time>2021-07-25 10:14:54</time>
      </trkpt>
      <trkpt lat="42.67967" lon="-2.04671">
        <ele>408.6</ele>
        <time>2021-07-25 10:14:58</time>
      </trkpt>
      <trkpt lat="42.67969" lon="-2.04692">
        <ele>409</ele>
        <time>2021-07-25 10:15:02</time>
      </trkpt>
      <trkpt lat="42.67972" lon="-2.04712">
        <ele>409</ele>
        <time>2021-07-25 10:15:06</time>
      </trkpt>
      <trkpt lat="42.67977" lon="-2.04732">
        <ele>409.4</ele>
        <time>2021-07-25 10:15:10</time>
      </trkpt>
      <trkpt lat="42.67983" lon="-2.0475">
        <ele>409.6</ele>
        <time>2021-07-25 10:15:14</time>
      </trkpt>
      <trkpt lat="42.6799" lon="-2.04768">
        <ele>409.8</ele>
        <time>2021-07-25 10:15:18</time>
      </trkpt>
      <trkpt lat="42.67997" lon="-2.04785">
        <ele>409.4</ele>
        <time>2021-07-25 10:15:22</time>
      </trkpt>
      <trkpt lat="42.68007" lon="-2.04802">
        <ele>409.6</ele>
        <time>2021-07-25 10:15:26</time>
      </trkpt>
      <trkpt lat="42.68017" lon="-2.04817">
        <ele>410.2</ele>
        <time>2021-07-25 10:15:30</time>
      </trkpt>
      <trkpt lat="42.68028" lon="-2.0483">
        <ele>410.4</ele>
        <time>2021-07-25 10:15:34</time>
      </trkpt>
      <trkpt lat="42.6804" lon="-2.04844">
        <ele>410.8</ele>
        <time>2021-07-25 10:15:38</time>
      </trkpt>
      <trkpt lat="42.68051" lon="-2.04857">
        <ele>411</ele>
        <time>2021-07-25 10:15:42</time>
      </trkpt>
      <trkpt lat="42.68063" lon="-2.0487">
        <ele>410.4</ele>
        <time>2021-07-25 10:15:46</time>
      </trkpt>
      <trkpt lat="42.68075" lon="-2.04883">
        <ele>410.4</ele>
        <time>2021-07-25 10:15:50</time>
      </trkpt>
      <trkpt lat="42.68086" lon="-2.04895">
        <ele>409.4</ele>
        <time>2021-07-25 10:15:54</time>
      </trkpt>
      <trkpt lat="42.68097" lon="-2.04907">
        <ele>411.6</ele>
        <time>2021-07-25 10:15:58</time>
      </trkpt>
      <trkpt lat="42.68109" lon="-2.04918">
        <ele>412.6</ele>
        <time>2021-07-25 10:16:02</time>
      </trkpt>
      <trkpt lat="42.6812" lon="-2.04932">
        <ele>412.6</ele>
        <time>2021-07-25 10:16:06</time>
      </trkpt>
      <trkpt lat="42.68131" lon="-2.04945">
        <ele>411.4</ele>
        <time>2021-07-25 10:16:10</time>
      </trkpt>
      <trkpt lat="42.68141" lon="-2.04959">
        <ele>411.8</ele>
        <time>2021-07-25 10:16:14</time>
      </trkpt>
      <trkpt lat="42.68151" lon="-2.04974">
        <ele>411.2</ele>
        <time>2021-07-25 10:16:18</time>
      </trkpt>
      <trkpt lat="42.6816" lon="-2.04991">
        <ele>411</ele>
        <time>2021-07-25 10:16:22</time>
      </trkpt>
      <trkpt lat="42.68169" lon="-2.05008">
        <ele>410.6</ele>
        <time>2021-07-25 10:16:26</time>
      </trkpt>
      <trkpt lat="42.68175" lon="-2.05028">
        <ele>411.4</ele>
        <time>2021-07-25 10:16:30</time>
      </trkpt>
      <trkpt lat="42.6818" lon="-2.05049">
        <ele>411.4</ele>
        <time>2021-07-25 10:16:34</time>
      </trkpt>
      <trkpt lat="42.68185" lon="-2.0507">
        <ele>411.4</ele>
        <time>2021-07-25 10:16:38</time>
      </trkpt>
      <trkpt lat="42.68188" lon="-2.05092">
        <ele>411.2</ele>
        <time>2021-07-25 10:16:42</time>
      </trkpt>
      <trkpt lat="42.68189" lon="-2.05117">
        <ele>412.2</ele>
        <time>2021-07-25 10:16:46</time>
      </trkpt>
      <trkpt lat="42.68191" lon="-2.05143">
        <ele>412</ele>
        <time>2021-07-25 10:16:50</time>
      </trkpt>
      <trkpt lat="42.6819" lon="-2.05169">
        <ele>412.6</ele>
        <time>2021-07-25 10:16:54</time>
      </trkpt>
      <trkpt lat="42.68189" lon="-2.05194">
        <ele>411.8</ele>
        <time>2021-07-25 10:16:58</time>
      </trkpt>
      <trkpt lat="42.68188" lon="-2.0522">
        <ele>412.6</ele>
        <time>2021-07-25 10:17:02</time>
      </trkpt>
      <trkpt lat="42.68187" lon="-2.05248">
        <ele>412.2</ele>
        <time>2021-07-25 10:17:06</time>
      </trkpt>
      <trkpt lat="42.68185" lon="-2.05276">
        <ele>411.6</ele>
        <time>2021-07-25 10:17:10</time>
      </trkpt>
      <trkpt lat="42.68184" lon="-2.05303">
        <ele>412</ele>
        <time>2021-07-25 10:17:14</time>
      </trkpt>
      <trkpt lat="42.68182" lon="-2.0533">
        <ele>411.6</ele>
        <time>2021-07-25 10:17:18</time>
      </trkpt>
      <trkpt lat="42.68181" lon="-2.05356">
        <ele>411.4</ele>
        <time>2021-07-25 10:17:22</time>
      </trkpt>
      <trkpt lat="42.68181" lon="-2.05381">
        <ele>411.6</ele>
        <time>2021-07-25 10:17:26</time>
      </trkpt>
      <trkpt lat="42.6818" lon="-2.05405">
        <ele>411.6</ele>
        <time>2021-07-25 10:17:30</time>
      </trkpt>
      <trkpt lat="42.68178" lon="-2.0543">
        <ele>411.6</ele>
        <time>2021-07-25 10:17:34</time>
      </trkpt>
      <trkpt lat="42.68177" lon="-2.05457">
        <ele>411.6</ele>
        <time>2021-07-25 10:17:38</time>
      </trkpt>
      <trkpt lat="42.68176" lon="-2.05486">
        <ele>412.4</ele>
        <time>2021-07-25 10:17:42</time>
      </trkpt>
      <trkpt lat="42.68175" lon="-2.05515">
        <ele>412.4</ele>
        <time>2021-07-25 10:17:46</time>
      </trkpt>
      <trkpt lat="42.68175" lon="-2.05543">
        <ele>411.6</ele>
        <time>2021-07-25 10:17:50</time>
      </trkpt>
      <trkpt lat="42.68174" lon="-2.05569">
        <ele>411.2</ele>
        <time>2021-07-25 10:17:54</time>
      </trkpt>
      <trkpt lat="42.68172" lon="-2.05594">
        <ele>411.4</ele>
        <time>2021-07-25 10:17:58</time>
      </trkpt>
      <trkpt lat="42.68171" lon="-2.05621">
        <ele>410.8</ele>
        <time>2021-07-25 10:18:02</time>
      </trkpt>
      <trkpt lat="42.68169" lon="-2.05647">
        <ele>410.8</ele>
        <time>2021-07-25 10:18:06</time>
      </trkpt>
      <trkpt lat="42.68168" lon="-2.05671">
        <ele>412.8</ele>
        <time>2021-07-25 10:18:10</time>
      </trkpt>
      <trkpt lat="42.68165" lon="-2.05697">
        <ele>413.2</ele>
        <time>2021-07-25 10:18:14</time>
      </trkpt>
      <trkpt lat="42.6816" lon="-2.0572">
        <ele>413.4</ele>
        <time>2021-07-25 10:18:18</time>
      </trkpt>
      <trkpt lat="42.68159" lon="-2.05723">
        <ele>413.8</ele>
        <time>2021-07-25 10:18:22</time>
      </trkpt>
      <trkpt lat="42.68159" lon="-2.05723">
        <ele>414.2</ele>
        <time>2021-07-25 10:18:26</time>
      </trkpt>
      <trkpt lat="42.68074" lon="-2.059">
        <ele>414.4</ele>
        <time>2021-07-25 10:18:30</time>
      </trkpt>
      <trkpt lat="42.68055" lon="-2.05912">
        <ele>413</ele>
        <time>2021-07-25 10:18:34</time>
      </trkpt>
      <trkpt lat="42.6804" lon="-2.0593">
        <ele>412.6</ele>
        <time>2021-07-25 10:18:38</time>
      </trkpt>
      <trkpt lat="42.68028" lon="-2.05949">
        <ele>412.6</ele>
        <time>2021-07-25 10:18:42</time>
      </trkpt>
      <trkpt lat="42.68017" lon="-2.05964">
        <ele>414.4</ele>
        <time>2021-07-25 10:18:46</time>
      </trkpt>
      <trkpt lat="42.68005" lon="-2.05981">
        <ele>414</ele>
        <time>2021-07-25 10:18:50</time>
      </trkpt>
      <trkpt lat="42.67994" lon="-2.06001">
        <ele>413.4</ele>
        <time>2021-07-25 10:18:54</time>
      </trkpt>
      <trkpt lat="42.67981" lon="-2.06018">
        <ele>413.4</ele>
        <time>2021-07-25 10:18:58</time>
      </trkpt>
      <trkpt lat="42.67969" lon="-2.06038">
        <ele>413.8</ele>
        <time>2021-07-25 10:19:02</time>
      </trkpt>
      <trkpt lat="42.67956" lon="-2.0606">
        <ele>412.6</ele>
        <time>2021-07-25 10:19:06</time>
      </trkpt>
      <trkpt lat="42.67944" lon="-2.06084">
        <ele>411.4</ele>
        <time>2021-07-25 10:19:10</time>
      </trkpt>
      <trkpt lat="42.67933" lon="-2.06108">
        <ele>412.6</ele>
        <time>2021-07-25 10:19:14</time>
      </trkpt>
      <trkpt lat="42.67921" lon="-2.06133">
        <ele>412.4</ele>
        <time>2021-07-25 10:19:18</time>
      </trkpt>
      <trkpt lat="42.67912" lon="-2.06157">
        <ele>411.8</ele>
        <time>2021-07-25 10:19:22</time>
      </trkpt>
      <trkpt lat="42.67904" lon="-2.06182">
        <ele>411.2</ele>
        <time>2021-07-25 10:19:26</time>
      </trkpt>
      <trkpt lat="42.67895" lon="-2.06206">
        <ele>411.2</ele>
        <time>2021-07-25 10:19:30</time>
      </trkpt>
      <trkpt lat="42.67886" lon="-2.06231">
        <ele>411.6</ele>
        <time>2021-07-25 10:19:34</time>
      </trkpt>
      <trkpt lat="42.67877" lon="-2.06256">
        <ele>411.4</ele>
        <time>2021-07-25 10:19:38</time>
      </trkpt>
      <trkpt lat="42.67868" lon="-2.06279">
        <ele>411.8</ele>
        <time>2021-07-25 10:19:42</time>
      </trkpt>
      <trkpt lat="42.67859" lon="-2.06301">
        <ele>411.8</ele>
        <time>2021-07-25 10:19:46</time>
      </trkpt>
      <trkpt lat="42.67847" lon="-2.06319">
        <ele>412.2</ele>
        <time>2021-07-25 10:19:50</time>
      </trkpt>
      <trkpt lat="42.67824" lon="-2.06317">
        <ele>409.4</ele>
        <time>2021-07-25 10:19:54</time>
      </trkpt>
      <trkpt lat="42.6781" lon="-2.06322">
        <ele>411.6</ele>
        <time>2021-07-25 10:19:58</time>
      </trkpt>
      <trkpt lat="42.67808" lon="-2.06334">
        <ele>412</ele>
        <time>2021-07-25 10:20:02</time>
      </trkpt>
      <trkpt lat="42.67799" lon="-2.06348">
        <ele>410.8</ele>
        <time>2021-07-25 10:20:06</time>
      </trkpt>
      <trkpt lat="42.67793" lon="-2.06367">
        <ele>410.8</ele>
        <time>2021-07-25 10:20:10</time>
      </trkpt>
      <trkpt lat="42.67801" lon="-2.06386">
        <ele>410.8</ele>
        <time>2021-07-25 10:20:14</time>
      </trkpt>
      <trkpt lat="42.67808" lon="-2.06403">
        <ele>412.2</ele>
        <time>2021-07-25 10:20:18</time>
      </trkpt>
      <trkpt lat="42.6781" lon="-2.06421">
        <ele>412.2</ele>
        <time>2021-07-25 10:20:22</time>
      </trkpt>
      <trkpt lat="42.67805" lon="-2.06437">
        <ele>412.6</ele>
        <time>2021-07-25 10:20:26</time>
      </trkpt>
      <trkpt lat="42.67802" lon="-2.06453">
        <ele>412.8</ele>
        <time>2021-07-25 10:20:30</time>
      </trkpt>
      <trkpt lat="42.67809" lon="-2.06468">
        <ele>411.8</ele>
        <time>2021-07-25 10:20:34</time>
      </trkpt>
      <trkpt lat="42.67822" lon="-2.06473">
        <ele>413</ele>
        <time>2021-07-25 10:20:38</time>
      </trkpt>
      <trkpt lat="42.67828" lon="-2.06488">
        <ele>414.4</ele>
        <time>2021-07-25 10:20:42</time>
      </trkpt>
      <trkpt lat="42.67825" lon="-2.06505">
        <ele>415</ele>
        <time>2021-07-25 10:20:46</time>
      </trkpt>
      <trkpt lat="42.67822" lon="-2.0652">
        <ele>416</ele>
        <time>2021-07-25 10:20:50</time>
      </trkpt>
      <trkpt lat="42.67819" lon="-2.06536">
        <ele>416.2</ele>
        <time>2021-07-25 10:20:54</time>
      </trkpt>
      <trkpt lat="42.67817" lon="-2.06552">
        <ele>416.4</ele>
        <time>2021-07-25 10:20:58</time>
      </trkpt>
      <trkpt lat="42.67815" lon="-2.06568">
        <ele>416.4</ele>
        <time>2021-07-25 10:21:02</time>
      </trkpt>
      <trkpt lat="42.67811" lon="-2.06582">
        <ele>418.6</ele>
        <time>2021-07-25 10:21:06</time>
      </trkpt>
      <trkpt lat="42.67808" lon="-2.06595">
        <ele>419.6</ele>
        <time>2021-07-25 10:21:10</time>
      </trkpt>
      <trkpt lat="42.67805" lon="-2.06605">
        <ele>419.8</ele>
        <time>2021-07-25 10:21:14</time>
      </trkpt>
      <trkpt lat="42.67803" lon="-2.06617">
        <ele>419.2</ele>
        <time>2021-07-25 10:21:18</time>
      </trkpt>
      <trkpt lat="42.67799" lon="-2.06631">
        <ele>419.2</ele>
        <time>2021-07-25 10:21:22</time>
      </trkpt>
      <trkpt lat="42.678" lon="-2.06647">
        <ele>419.2</ele>
        <time>2021-07-25 10:21:26</time>
      </trkpt>
      <trkpt lat="42.67808" lon="-2.0667">
        <ele>418.2</ele>
        <time>2021-07-25 10:21:30</time>
      </trkpt>
      <trkpt lat="42.67811" lon="-2.06694">
        <ele>419.6</ele>
        <time>2021-07-25 10:21:34</time>
      </trkpt>
      <trkpt lat="42.67814" lon="-2.06716">
        <ele>419.6</ele>
        <time>2021-07-25 10:21:38</time>
      </trkpt>
      <trkpt lat="42.67815" lon="-2.06739">
        <ele>420.2</ele>
        <time>2021-07-25 10:21:42</time>
      </trkpt>
      <trkpt lat="42.6781" lon="-2.0676">
        <ele>419.6</ele>
        <time>2021-07-25 10:21:46</time>
      </trkpt>
      <trkpt lat="42.67804" lon="-2.06783">
        <ele>419.8</ele>
        <time>2021-07-25 10:21:50</time>
      </trkpt>
      <trkpt lat="42.67802" lon="-2.06807">
        <ele>419.4</ele>
        <time>2021-07-25 10:21:54</time>
      </trkpt>
      <trkpt lat="42.67799" lon="-2.06831">
        <ele>418.6</ele>
        <time>2021-07-25 10:21:58</time>
      </trkpt>
      <trkpt lat="42.67792" lon="-2.06855">
        <ele>418.4</ele>
        <time>2021-07-25 10:22:02</time>
      </trkpt>
      <trkpt lat="42.67785" lon="-2.0688">
        <ele>418.8</ele>
        <time>2021-07-25 10:22:06</time>
      </trkpt>
      <trkpt lat="42.67784" lon="-2.06906">
        <ele>418</ele>
        <time>2021-07-25 10:22:10</time>
      </trkpt>
      <trkpt lat="42.67785" lon="-2.06932">
        <ele>417</ele>
        <time>2021-07-25 10:22:14</time>
      </trkpt>
      <trkpt lat="42.67785" lon="-2.06957">
        <ele>417</ele>
        <time>2021-07-25 10:22:18</time>
      </trkpt>
      <trkpt lat="42.67782" lon="-2.06983">
        <ele>417.4</ele>
        <time>2021-07-25 10:22:22</time>
      </trkpt>
      <trkpt lat="42.67775" lon="-2.0701">
        <ele>417.4</ele>
        <time>2021-07-25 10:22:26</time>
      </trkpt>
      <trkpt lat="42.67767" lon="-2.07038">
        <ele>417</ele>
        <time>2021-07-25 10:22:30</time>
      </trkpt>
      <trkpt lat="42.67757" lon="-2.07066">
        <ele>417</ele>
        <time>2021-07-25 10:22:34</time>
      </trkpt>
      <trkpt lat="42.67746" lon="-2.07094">
        <ele>416.6</ele>
        <time>2021-07-25 10:22:38</time>
      </trkpt>
      <trkpt lat="42.67734" lon="-2.07123">
        <ele>417</ele>
        <time>2021-07-25 10:22:42</time>
      </trkpt>
      <trkpt lat="42.67722" lon="-2.07152">
        <ele>416.6</ele>
        <time>2021-07-25 10:22:46</time>
      </trkpt>
      <trkpt lat="42.6771" lon="-2.07181">
        <ele>417</ele>
        <time>2021-07-25 10:22:50</time>
      </trkpt>
      <trkpt lat="42.67698" lon="-2.07208">
        <ele>417.4</ele>
        <time>2021-07-25 10:22:54</time>
      </trkpt>
      <trkpt lat="42.67687" lon="-2.07234">
        <ele>417.8</ele>
        <time>2021-07-25 10:22:58</time>
      </trkpt>
      <trkpt lat="42.6768" lon="-2.07251">
        <ele>418.4</ele>
        <time>2021-07-25 10:23:02</time>
      </trkpt>
      <trkpt lat="42.67674" lon="-2.07265">
        <ele>419.2</ele>
        <time>2021-07-25 10:23:06</time>
      </trkpt>
      <trkpt lat="42.67665" lon="-2.07281">
        <ele>418.6</ele>
        <time>2021-07-25 10:23:10</time>
      </trkpt>
      <trkpt lat="42.67653" lon="-2.07301">
        <ele>417.6</ele>
        <time>2021-07-25 10:23:14</time>
      </trkpt>
      <trkpt lat="42.67639" lon="-2.07325">
        <ele>417.6</ele>
        <time>2021-07-25 10:23:18</time>
      </trkpt>
      <trkpt lat="42.67625" lon="-2.0735">
        <ele>416.8</ele>
        <time>2021-07-25 10:23:22</time>
      </trkpt>
      <trkpt lat="42.67611" lon="-2.07374">
        <ele>417.4</ele>
        <time>2021-07-25 10:23:26</time>
      </trkpt>
      <trkpt lat="42.676" lon="-2.07398">
        <ele>417.2</ele>
        <time>2021-07-25 10:23:30</time>
      </trkpt>
      <trkpt lat="42.67591" lon="-2.07421">
        <ele>417.6</ele>
        <time>2021-07-25 10:23:34</time>
      </trkpt>
      <trkpt lat="42.67582" lon="-2.07446">
        <ele>418.2</ele>
        <time>2021-07-25 10:23:38</time>
      </trkpt>
      <trkpt lat="42.67573" lon="-2.07471">
        <ele>417.6</ele>
        <time>2021-07-25 10:23:42</time>
      </trkpt>
      <trkpt lat="42.67566" lon="-2.07492">
        <ele>418.2</ele>
        <time>2021-07-25 10:23:46</time>
      </trkpt>
      <trkpt lat="42.67555" lon="-2.07506">
        <ele>418</ele>
        <time>2021-07-25 10:23:50</time>
      </trkpt>
      <trkpt lat="42.67543" lon="-2.07523">
        <ele>418.6</ele>
        <time>2021-07-25 10:23:54</time>
      </trkpt>
      <trkpt lat="42.6753" lon="-2.07544">
        <ele>417.4</ele>
        <time>2021-07-25 10:23:58</time>
      </trkpt>
      <trkpt lat="42.67516" lon="-2.07566">
        <ele>417.8</ele>
        <time>2021-07-25 10:24:02</time>
      </trkpt>
      <trkpt lat="42.675" lon="-2.07587">
        <ele>418.6</ele>
        <time>2021-07-25 10:24:06</time>
      </trkpt>
      <trkpt lat="42.67482" lon="-2.07606">
        <ele>418.4</ele>
        <time>2021-07-25 10:24:10</time>
      </trkpt>
      <trkpt lat="42.67466" lon="-2.07628">
        <ele>417.4</ele>
        <time>2021-07-25 10:24:14</time>
      </trkpt>
      <trkpt lat="42.67455" lon="-2.07654">
        <ele>415.6</ele>
        <time>2021-07-25 10:24:18</time>
      </trkpt>
      <trkpt lat="42.67448" lon="-2.07679">
        <ele>415.8</ele>
        <time>2021-07-25 10:24:22</time>
      </trkpt>
      <trkpt lat="42.67441" lon="-2.07704">
        <ele>415.4</ele>
        <time>2021-07-25 10:24:26</time>
      </trkpt>
      <trkpt lat="42.6743" lon="-2.07725">
        <ele>416.6</ele>
        <time>2021-07-25 10:24:30</time>
      </trkpt>
      <trkpt lat="42.67418" lon="-2.07745">
        <ele>416.6</ele>
        <time>2021-07-25 10:24:34</time>
      </trkpt>
      <trkpt lat="42.67408" lon="-2.07767">
        <ele>416.2</ele>
        <time>2021-07-25 10:24:38</time>
      </trkpt>
      <trkpt lat="42.67401" lon="-2.0779">
        <ele>416.8</ele>
        <time>2021-07-25 10:24:42</time>
      </trkpt>
      <trkpt lat="42.67393" lon="-2.07811">
        <ele>416.6</ele>
        <time>2021-07-25 10:24:46</time>
      </trkpt>
      <trkpt lat="42.67384" lon="-2.07831">
        <ele>416.8</ele>
        <time>2021-07-25 10:24:50</time>
      </trkpt>
      <trkpt lat="42.67374" lon="-2.07849">
        <ele>417</ele>
        <time>2021-07-25 10:24:54</time>
      </trkpt>
      <trkpt lat="42.67365" lon="-2.07867">
        <ele>417.2</ele>
        <time>2021-07-25 10:24:58</time>
      </trkpt>
      <trkpt lat="42.67356" lon="-2.07885">
        <ele>416.8</ele>
        <time>2021-07-25 10:25:02</time>
      </trkpt>
      <trkpt lat="42.67348" lon="-2.07901">
        <ele>418</ele>
        <time>2021-07-25 10:25:06</time>
      </trkpt>
      <trkpt lat="42.67339" lon="-2.07918">
        <ele>417.6</ele>
        <time>2021-07-25 10:25:10</time>
      </trkpt>
      <trkpt lat="42.67332" lon="-2.07934">
        <ele>417.8</ele>
        <time>2021-07-25 10:25:14</time>
      </trkpt>
      <trkpt lat="42.67325" lon="-2.07948">
        <ele>419</ele>
        <time>2021-07-25 10:25:18</time>
      </trkpt>
      <trkpt lat="42.67317" lon="-2.07959">
        <ele>419.4</ele>
        <time>2021-07-25 10:25:22</time>
      </trkpt>
      <trkpt lat="42.67308" lon="-2.0797">
        <ele>421.2</ele>
        <time>2021-07-25 10:25:26</time>
      </trkpt>
      <trkpt lat="42.673" lon="-2.07979">
        <ele>421.6</ele>
        <time>2021-07-25 10:25:30</time>
      </trkpt>
      <trkpt lat="42.67292" lon="-2.07988">
        <ele>422.4</ele>
        <time>2021-07-25 10:25:34</time>
      </trkpt>
      <trkpt lat="42.67286" lon="-2.07995">
        <ele>422.4</ele>
        <time>2021-07-25 10:25:38</time>
      </trkpt>
      <trkpt lat="42.6728" lon="-2.08001">
        <ele>424.2</ele>
        <time>2021-07-25 10:25:42</time>
      </trkpt>
      <trkpt lat="42.67275" lon="-2.08007">
        <ele>425.6</ele>
        <time>2021-07-25 10:25:46</time>
      </trkpt>
      <trkpt lat="42.67271" lon="-2.08015">
        <ele>425.4</ele>
        <time>2021-07-25 10:25:50</time>
      </trkpt>
      <trkpt lat="42.67266" lon="-2.08021">
        <ele>426.4</ele>
        <time>2021-07-25 10:25:54</time>
      </trkpt>
      <trkpt lat="42.67261" lon="-2.08027">
        <ele>427.4</ele>
        <time>2021-07-25 10:25:58</time>
      </trkpt>
      <trkpt lat="42.67255" lon="-2.08032">
        <ele>428.4</ele>
        <time>2021-07-25 10:26:02</time>
      </trkpt>
      <trkpt lat="42.6725" lon="-2.08039">
        <ele>428.8</ele>
        <time>2021-07-25 10:26:06</time>
      </trkpt>
      <trkpt lat="42.67246" lon="-2.08044">
        <ele>430</ele>
        <time>2021-07-25 10:26:10</time>
      </trkpt>
      <trkpt lat="42.67241" lon="-2.0805">
        <ele>430.8</ele>
        <time>2021-07-25 10:26:14</time>
      </trkpt>
      <trkpt lat="42.67237" lon="-2.08056">
        <ele>431.6</ele>
        <time>2021-07-25 10:26:18</time>
      </trkpt>
      <trkpt lat="42.67233" lon="-2.08061">
        <ele>432</ele>
        <time>2021-07-25 10:26:22</time>
      </trkpt>
      <trkpt lat="42.67228" lon="-2.08068">
        <ele>432</ele>
        <time>2021-07-25 10:26:26</time>
      </trkpt>
      <trkpt lat="42.67225" lon="-2.08075">
        <ele>433</ele>
        <time>2021-07-25 10:26:30</time>
      </trkpt>
      <trkpt lat="42.67221" lon="-2.08083">
        <ele>433.8</ele>
        <time>2021-07-25 10:26:34</time>
      </trkpt>
      <trkpt lat="42.67218" lon="-2.0809">
        <ele>434.6</ele>
        <time>2021-07-25 10:26:38</time>
      </trkpt>
      <trkpt lat="42.67216" lon="-2.08098">
        <ele>435.2</ele>
        <time>2021-07-25 10:26:42</time>
      </trkpt>
      <trkpt lat="42.67213" lon="-2.08106">
        <ele>435.6</ele>
        <time>2021-07-25 10:26:46</time>
      </trkpt>
      <trkpt lat="42.6721" lon="-2.08114">
        <ele>436</ele>
        <time>2021-07-25 10:26:50</time>
      </trkpt>
      <trkpt lat="42.67208" lon="-2.08123">
        <ele>436.2</ele>
        <time>2021-07-25 10:26:54</time>
      </trkpt>
      <trkpt lat="42.67205" lon="-2.08133">
        <ele>436.8</ele>
        <time>2021-07-25 10:26:58</time>
      </trkpt>
      <trkpt lat="42.67203" lon="-2.08141">
        <ele>437.4</ele>
        <time>2021-07-25 10:27:02</time>
      </trkpt>
      <trkpt lat="42.672" lon="-2.08151">
        <ele>437.6</ele>
        <time>2021-07-25 10:27:06</time>
      </trkpt>
      <trkpt lat="42.67197" lon="-2.0816">
        <ele>437.6</ele>
        <time>2021-07-25 10:27:10</time>
      </trkpt>
      <trkpt lat="42.67193" lon="-2.08169">
        <ele>438.6</ele>
        <time>2021-07-25 10:27:14</time>
      </trkpt>
      <trkpt lat="42.67189" lon="-2.08178">
        <ele>438.8</ele>
        <time>2021-07-25 10:27:18</time>
      </trkpt>
      <trkpt lat="42.67184" lon="-2.08187">
        <ele>438.2</ele>
        <time>2021-07-25 10:27:22</time>
      </trkpt>
      <trkpt lat="42.67177" lon="-2.08198">
        <ele>438.8</ele>
        <time>2021-07-25 10:27:26</time>
      </trkpt>
      <trkpt lat="42.67168" lon="-2.08213">
        <ele>438.4</ele>
        <time>2021-07-25 10:27:30</time>
      </trkpt>
      <trkpt lat="42.67158" lon="-2.0823">
        <ele>438.8</ele>
        <time>2021-07-25 10:27:34</time>
      </trkpt>
      <trkpt lat="42.67152" lon="-2.08248">
        <ele>439</ele>
        <time>2021-07-25 10:27:38</time>
      </trkpt>
      <trkpt lat="42.67149" lon="-2.08263">
        <ele>440.2</ele>
        <time>2021-07-25 10:27:42</time>
      </trkpt>
      <trkpt lat="42.67147" lon="-2.08276">
        <ele>441.2</ele>
        <time>2021-07-25 10:27:46</time>
      </trkpt>
      <trkpt lat="42.67144" lon="-2.08287">
        <ele>441.2</ele>
        <time>2021-07-25 10:27:50</time>
      </trkpt>
      <trkpt lat="42.6714" lon="-2.08297">
        <ele>442.2</ele>
        <time>2021-07-25 10:27:54</time>
      </trkpt>
      <trkpt lat="42.67136" lon="-2.08307">
        <ele>442.2</ele>
        <time>2021-07-25 10:27:58</time>
      </trkpt>
      <trkpt lat="42.67132" lon="-2.08319">
        <ele>443.2</ele>
        <time>2021-07-25 10:28:02</time>
      </trkpt>
      <trkpt lat="42.67127" lon="-2.0833">
        <ele>443.8</ele>
        <time>2021-07-25 10:28:06</time>
      </trkpt>
      <trkpt lat="42.67123" lon="-2.08342">
        <ele>443.2</ele>
        <time>2021-07-25 10:28:10</time>
      </trkpt>
      <trkpt lat="42.67119" lon="-2.08353">
        <ele>444.2</ele>
        <time>2021-07-25 10:28:14</time>
      </trkpt>
      <trkpt lat="42.67116" lon="-2.08363">
        <ele>445.2</ele>
        <time>2021-07-25 10:28:18</time>
      </trkpt>
      <trkpt lat="42.67114" lon="-2.08373">
        <ele>446</ele>
        <time>2021-07-25 10:28:22</time>
      </trkpt>
      <trkpt lat="42.67114" lon="-2.08383">
        <ele>446.8</ele>
        <time>2021-07-25 10:28:26</time>
      </trkpt>
      <trkpt lat="42.67111" lon="-2.08392">
        <ele>447</ele>
        <time>2021-07-25 10:28:30</time>
      </trkpt>
      <trkpt lat="42.67106" lon="-2.084">
        <ele>448.2</ele>
        <time>2021-07-25 10:28:34</time>
      </trkpt>
      <trkpt lat="42.67101" lon="-2.08408">
        <ele>448.4</ele>
        <time>2021-07-25 10:28:38</time>
      </trkpt>
      <trkpt lat="42.67097" lon="-2.08416">
        <ele>449</ele>
        <time>2021-07-25 10:28:42</time>
      </trkpt>
      <trkpt lat="42.67093" lon="-2.08425">
        <ele>449</ele>
        <time>2021-07-25 10:28:46</time>
      </trkpt>
      <trkpt lat="42.67087" lon="-2.08433">
        <ele>449.6</ele>
        <time>2021-07-25 10:28:50</time>
      </trkpt>
      <trkpt lat="42.67081" lon="-2.08439">
        <ele>450.4</ele>
        <time>2021-07-25 10:28:54</time>
      </trkpt>
      <trkpt lat="42.67073" lon="-2.08443">
        <ele>450.4</ele>
        <time>2021-07-25 10:28:58</time>
      </trkpt>
      <trkpt lat="42.67066" lon="-2.08446">
        <ele>451</ele>
        <time>2021-07-25 10:29:02</time>
      </trkpt>
      <trkpt lat="42.67059" lon="-2.08447">
        <ele>451.8</ele>
        <time>2021-07-25 10:29:06</time>
      </trkpt>
      <trkpt lat="42.67052" lon="-2.08449">
        <ele>452.4</ele>
        <time>2021-07-25 10:29:10</time>
      </trkpt>
      <trkpt lat="42.67045" lon="-2.0845">
        <ele>453.2</ele>
        <time>2021-07-25 10:29:14</time>
      </trkpt>
      <trkpt lat="42.67039" lon="-2.08452">
        <ele>453.8</ele>
        <time>2021-07-25 10:29:18</time>
      </trkpt>
      <trkpt lat="42.67031" lon="-2.08462">
        <ele>451.6</ele>
        <time>2021-07-25 10:29:22</time>
      </trkpt>
      <trkpt lat="42.67024" lon="-2.08479">
        <ele>452</ele>
        <time>2021-07-25 10:29:26</time>
      </trkpt>
      <trkpt lat="42.67021" lon="-2.08496">
        <ele>452.2</ele>
        <time>2021-07-25 10:29:30</time>
      </trkpt>
      <trkpt lat="42.67017" lon="-2.08512">
        <ele>453.2</ele>
        <time>2021-07-25 10:29:34</time>
      </trkpt>
      <trkpt lat="42.67013" lon="-2.08528">
        <ele>453</ele>
        <time>2021-07-25 10:29:38</time>
      </trkpt>
      <trkpt lat="42.67009" lon="-2.08543">
        <ele>453.4</ele>
        <time>2021-07-25 10:29:42</time>
      </trkpt>
      <trkpt lat="42.67003" lon="-2.08558">
        <ele>453.4</ele>
        <time>2021-07-25 10:29:46</time>
      </trkpt>
      <trkpt lat="42.66997" lon="-2.08574">
        <ele>454.2</ele>
        <time>2021-07-25 10:29:50</time>
      </trkpt>
      <trkpt lat="42.66993" lon="-2.08591">
        <ele>454.2</ele>
        <time>2021-07-25 10:29:54</time>
      </trkpt>
      <trkpt lat="42.66989" lon="-2.08607">
        <ele>454</ele>
        <time>2021-07-25 10:29:58</time>
      </trkpt>
      <trkpt lat="42.66986" lon="-2.08623">
        <ele>454.6</ele>
        <time>2021-07-25 10:30:02</time>
      </trkpt>
      <trkpt lat="42.66982" lon="-2.08638">
        <ele>455.2</ele>
        <time>2021-07-25 10:30:06</time>
      </trkpt>
      <trkpt lat="42.66976" lon="-2.08652">
        <ele>455.8</ele>
        <time>2021-07-25 10:30:10</time>
      </trkpt>
      <trkpt lat="42.66969" lon="-2.08662">
        <ele>456.4</ele>
        <time>2021-07-25 10:30:14</time>
      </trkpt>
      <trkpt lat="42.66962" lon="-2.08671">
        <ele>457</ele>
        <time>2021-07-25 10:30:18</time>
      </trkpt>
      <trkpt lat="42.66955" lon="-2.08679">
        <ele>457</ele>
        <time>2021-07-25 10:30:22</time>
      </trkpt>
      <trkpt lat="42.66948" lon="-2.08686">
        <ele>457.8</ele>
        <time>2021-07-25 10:30:26</time>
      </trkpt>
      <trkpt lat="42.66941" lon="-2.08693">
        <ele>458.2</ele>
        <time>2021-07-25 10:30:30</time>
      </trkpt>
      <trkpt lat="42.66934" lon="-2.087">
        <ele>459</ele>
        <time>2021-07-25 10:30:34</time>
      </trkpt>
      <trkpt lat="42.66926" lon="-2.08706">
        <ele>459.4</ele>
        <time>2021-07-25 10:30:38</time>
      </trkpt>
      <trkpt lat="42.66917" lon="-2.08712">
        <ele>459.2</ele>
        <time>2021-07-25 10:30:42</time>
      </trkpt>
      <trkpt lat="42.66909" lon="-2.08722">
        <ele>459.6</ele>
        <time>2021-07-25 10:30:46</time>
      </trkpt>
      <trkpt lat="42.66904" lon="-2.08736">
        <ele>459</ele>
        <time>2021-07-25 10:30:50</time>
      </trkpt>
      <trkpt lat="42.66901" lon="-2.08753">
        <ele>459.6</ele>
        <time>2021-07-25 10:30:54</time>
      </trkpt>
      <trkpt lat="42.66899" lon="-2.08771">
        <ele>459.6</ele>
        <time>2021-07-25 10:30:58</time>
      </trkpt>
      <trkpt lat="42.66898" lon="-2.08788">
        <ele>459.6</ele>
        <time>2021-07-25 10:31:02</time>
      </trkpt>
      <trkpt lat="42.66897" lon="-2.08807">
        <ele>459.6</ele>
        <time>2021-07-25 10:31:06</time>
      </trkpt>
      <trkpt lat="42.66895" lon="-2.08827">
        <ele>459.6</ele>
        <time>2021-07-25 10:31:10</time>
      </trkpt>
      <trkpt lat="42.66894" lon="-2.08847">
        <ele>459.6</ele>
        <time>2021-07-25 10:31:14</time>
      </trkpt>
      <trkpt lat="42.66892" lon="-2.08868">
        <ele>459.8</ele>
        <time>2021-07-25 10:31:18</time>
      </trkpt>
      <trkpt lat="42.6689" lon="-2.0889">
        <ele>459.6</ele>
        <time>2021-07-25 10:31:22</time>
      </trkpt>
      <trkpt lat="42.66888" lon="-2.08913">
        <ele>458.6</ele>
        <time>2021-07-25 10:31:26</time>
      </trkpt>
      <trkpt lat="42.66886" lon="-2.08937">
        <ele>458.4</ele>
        <time>2021-07-25 10:31:30</time>
      </trkpt>
      <trkpt lat="42.66885" lon="-2.08961">
        <ele>457.8</ele>
        <time>2021-07-25 10:31:34</time>
      </trkpt>
      <trkpt lat="42.66884" lon="-2.08985">
        <ele>458</ele>
        <time>2021-07-25 10:31:38</time>
      </trkpt>
      <trkpt lat="42.66888" lon="-2.09007">
        <ele>458.4</ele>
        <time>2021-07-25 10:31:42</time>
      </trkpt>
      <trkpt lat="42.66893" lon="-2.09026">
        <ele>459</ele>
        <time>2021-07-25 10:31:46</time>
      </trkpt>
      <trkpt lat="42.66898" lon="-2.09042">
        <ele>459.4</ele>
        <time>2021-07-25 10:31:50</time>
      </trkpt>
      <trkpt lat="42.66903" lon="-2.09059">
        <ele>459.8</ele>
        <time>2021-07-25 10:31:54</time>
      </trkpt>
      <trkpt lat="42.66907" lon="-2.09077">
        <ele>458.8</ele>
        <time>2021-07-25 10:31:58</time>
      </trkpt>
      <trkpt lat="42.66911" lon="-2.09098">
        <ele>458.6</ele>
        <time>2021-07-25 10:32:02</time>
      </trkpt>
      <trkpt lat="42.66914" lon="-2.09122">
        <ele>457.2</ele>
        <time>2021-07-25 10:32:06</time>
      </trkpt>
      <trkpt lat="42.66911" lon="-2.09153">
        <ele>454.4</ele>
        <time>2021-07-25 10:32:10</time>
      </trkpt>
      <trkpt lat="42.66913" lon="-2.09186">
        <ele>454.8</ele>
        <time>2021-07-25 10:32:14</time>
      </trkpt>
      <trkpt lat="42.66913" lon="-2.09216">
        <ele>454</ele>
        <time>2021-07-25 10:32:18</time>
      </trkpt>
      <trkpt lat="42.66911" lon="-2.09243">
        <ele>453.6</ele>
        <time>2021-07-25 10:32:22</time>
      </trkpt>
      <trkpt lat="42.66908" lon="-2.09267">
        <ele>450.8</ele>
        <time>2021-07-25 10:32:26</time>
      </trkpt>
      <trkpt lat="42.66906" lon="-2.09298">
        <ele>449</ele>
        <time>2021-07-25 10:32:30</time>
      </trkpt>
      <trkpt lat="42.66908" lon="-2.09327">
        <ele>450</ele>
        <time>2021-07-25 10:32:34</time>
      </trkpt>
      <trkpt lat="42.66915" lon="-2.0935">
        <ele>451.4</ele>
        <time>2021-07-25 10:32:38</time>
      </trkpt>
      <trkpt lat="42.66921" lon="-2.09369">
        <ele>453.4</ele>
        <time>2021-07-25 10:32:42</time>
      </trkpt>
      <trkpt lat="42.66923" lon="-2.09383">
        <ele>454</ele>
        <time>2021-07-25 10:32:46</time>
      </trkpt>
      <trkpt lat="42.66925" lon="-2.09395">
        <ele>454.8</ele>
        <time>2021-07-25 10:32:50</time>
      </trkpt>
      <trkpt lat="42.66924" lon="-2.09407">
        <ele>455.2</ele>
        <time>2021-07-25 10:32:54</time>
      </trkpt>
      <trkpt lat="42.66924" lon="-2.09419">
        <ele>455.8</ele>
        <time>2021-07-25 10:32:58</time>
      </trkpt>
      <trkpt lat="42.66923" lon="-2.09432">
        <ele>456.6</ele>
        <time>2021-07-25 10:33:02</time>
      </trkpt>
      <trkpt lat="42.66921" lon="-2.09443">
        <ele>456.8</ele>
        <time>2021-07-25 10:33:06</time>
      </trkpt>
      <trkpt lat="42.66919" lon="-2.09455">
        <ele>457.4</ele>
        <time>2021-07-25 10:33:10</time>
      </trkpt>
      <trkpt lat="42.66917" lon="-2.09467">
        <ele>457.8</ele>
        <time>2021-07-25 10:33:14</time>
      </trkpt>
      <trkpt lat="42.66915" lon="-2.09478">
        <ele>458.4</ele>
        <time>2021-07-25 10:33:18</time>
      </trkpt>
      <trkpt lat="42.66914" lon="-2.09489">
        <ele>459.2</ele>
        <time>2021-07-25 10:33:22</time>
      </trkpt>
      <trkpt lat="42.66911" lon="-2.09499">
        <ele>459.6</ele>
        <time>2021-07-25 10:33:26</time>
      </trkpt>
      <trkpt lat="42.66908" lon="-2.09509">
        <ele>460.6</ele>
        <time>2021-07-25 10:33:30</time>
      </trkpt>
      <trkpt lat="42.66905" lon="-2.09518">
        <ele>460.8</ele>
        <time>2021-07-25 10:33:34</time>
      </trkpt>
      <trkpt lat="42.66901" lon="-2.09528">
        <ele>461.4</ele>
        <time>2021-07-25 10:33:38</time>
      </trkpt>
      <trkpt lat="42.66897" lon="-2.09537">
        <ele>462.2</ele>
        <time>2021-07-25 10:33:42</time>
      </trkpt>
      <trkpt lat="42.66892" lon="-2.09546">
        <ele>462.4</ele>
        <time>2021-07-25 10:33:46</time>
      </trkpt>
      <trkpt lat="42.66887" lon="-2.09555">
        <ele>463</ele>
        <time>2021-07-25 10:33:50</time>
      </trkpt>
      <trkpt lat="42.66882" lon="-2.09564">
        <ele>463.6</ele>
        <time>2021-07-25 10:33:54</time>
      </trkpt>
      <trkpt lat="42.66875" lon="-2.09573">
        <ele>463.4</ele>
        <time>2021-07-25 10:33:58</time>
      </trkpt>
      <trkpt lat="42.66866" lon="-2.09584">
        <ele>463.6</ele>
        <time>2021-07-25 10:34:02</time>
      </trkpt>
      <trkpt lat="42.66856" lon="-2.09596">
        <ele>463.6</ele>
        <time>2021-07-25 10:34:06</time>
      </trkpt>
      <trkpt lat="42.66847" lon="-2.09609">
        <ele>463.4</ele>
        <time>2021-07-25 10:34:10</time>
      </trkpt>
      <trkpt lat="42.6684" lon="-2.09622">
        <ele>464.2</ele>
        <time>2021-07-25 10:34:14</time>
      </trkpt>
      <trkpt lat="42.66835" lon="-2.09634">
        <ele>464.4</ele>
        <time>2021-07-25 10:34:18</time>
      </trkpt>
      <trkpt lat="42.66831" lon="-2.09647">
        <ele>465</ele>
        <time>2021-07-25 10:34:22</time>
      </trkpt>
      <trkpt lat="42.66826" lon="-2.09657">
        <ele>466</ele>
        <time>2021-07-25 10:34:26</time>
      </trkpt>
      <trkpt lat="42.66822" lon="-2.09664">
        <ele>466.8</ele>
        <time>2021-07-25 10:34:30</time>
      </trkpt>
      <trkpt lat="42.66822" lon="-2.09664">
        <ele>466.8</ele>
        <time>2021-07-25 10:34:34</time>
      </trkpt>
      <trkpt lat="42.66822" lon="-2.09664">
        <ele>466.8</ele>
        <time>2021-07-25 10:34:38</time>
      </trkpt>
      <trkpt lat="42.66822" lon="-2.09664">
        <ele>467.6</ele>
        <time>2021-07-25 10:34:42</time>
      </trkpt>
      <trkpt lat="42.66822" lon="-2.09664">
        <ele>466.6</ele>
        <time>2021-07-25 10:34:46</time>
      </trkpt>
      <trkpt lat="42.66822" lon="-2.09664">
        <ele>466.8</ele>
        <time>2021-07-25 10:34:50</time>
      </trkpt>
      <trkpt lat="42.66822" lon="-2.09664">
        <ele>466.8</ele>
        <time>2021-07-25 10:34:54</time>
      </trkpt>
      <trkpt lat="42.66822" lon="-2.09664">
        <ele>466.8</ele>
        <time>2021-07-25 10:34:58</time>
      </trkpt>
      <trkpt lat="42.66822" lon="-2.09664">
        <ele>467</ele>
        <time>2021-07-25 10:35:02</time>
      </trkpt>
      <trkpt lat="42.66822" lon="-2.09664">
        <ele>467</ele>
        <time>2021-07-25 10:35:06</time>
      </trkpt>
      <trkpt lat="42.66822" lon="-2.09664">
        <ele>466.6</ele>
        <time>2021-07-25 10:35:10</time>
      </trkpt>
      <trkpt lat="42.66822" lon="-2.09664">
        <ele>466.8</ele>
        <time>2021-07-25 10:35:14</time>
      </trkpt>
      <trkpt lat="42.66822" lon="-2.09664">
        <ele>467</ele>
        <time>2021-07-25 10:35:18</time>
      </trkpt>
      <trkpt lat="42.66822" lon="-2.09664">
        <ele>467</ele>
        <time>2021-07-25 10:35:22</time>
      </trkpt>
      <trkpt lat="42.66822" lon="-2.09664">
        <ele>467.2</ele>
        <time>2021-07-25 10:35:26</time>
      </trkpt>
      <trkpt lat="42.6682" lon="-2.09668">
        <ele>467</ele>
        <time>2021-07-25 10:35:30</time>
      </trkpt>
      <trkpt lat="42.66813" lon="-2.09673">
        <ele>467.4</ele>
        <time>2021-07-25 10:35:34</time>
      </trkpt>
      <trkpt lat="42.66805" lon="-2.09681">
        <ele>467</ele>
        <time>2021-07-25 10:35:38</time>
      </trkpt>
      <trkpt lat="42.66797" lon="-2.0969">
        <ele>467</ele>
        <time>2021-07-25 10:35:42</time>
      </trkpt>
      <trkpt lat="42.66789" lon="-2.09701">
        <ele>467.4</ele>
        <time>2021-07-25 10:35:46</time>
      </trkpt>
      <trkpt lat="42.66782" lon="-2.09714">
        <ele>467.4</ele>
        <time>2021-07-25 10:35:50</time>
      </trkpt>
      <trkpt lat="42.66777" lon="-2.09728">
        <ele>468.2</ele>
        <time>2021-07-25 10:35:54</time>
      </trkpt>
      <trkpt lat="42.66772" lon="-2.09742">
        <ele>468.8</ele>
        <time>2021-07-25 10:35:58</time>
      </trkpt>
      <trkpt lat="42.66771" lon="-2.09755">
        <ele>470</ele>
        <time>2021-07-25 10:36:02</time>
      </trkpt>
      <trkpt lat="42.66769" lon="-2.09768">
        <ele>471</ele>
        <time>2021-07-25 10:36:06</time>
      </trkpt>
      <trkpt lat="42.66769" lon="-2.0978">
        <ele>471.6</ele>
        <time>2021-07-25 10:36:10</time>
      </trkpt>
      <trkpt lat="42.66767" lon="-2.09792">
        <ele>472.2</ele>
        <time>2021-07-25 10:36:14</time>
      </trkpt>
      <trkpt lat="42.66765" lon="-2.09803">
        <ele>471.6</ele>
        <time>2021-07-25 10:36:18</time>
      </trkpt>
      <trkpt lat="42.66761" lon="-2.09817">
        <ele>471.4</ele>
        <time>2021-07-25 10:36:22</time>
      </trkpt>
      <trkpt lat="42.66758" lon="-2.09835">
        <ele>471.4</ele>
        <time>2021-07-25 10:36:26</time>
      </trkpt>
      <trkpt lat="42.66756" lon="-2.0985">
        <ele>472.4</ele>
        <time>2021-07-25 10:36:30</time>
      </trkpt>
      <trkpt lat="42.66755" lon="-2.09862">
        <ele>473.6</ele>
        <time>2021-07-25 10:36:34</time>
      </trkpt>
      <trkpt lat="42.66754" lon="-2.09874">
        <ele>473.6</ele>
        <time>2021-07-25 10:36:38</time>
      </trkpt>
      <trkpt lat="42.66752" lon="-2.09885">
        <ele>474.4</ele>
        <time>2021-07-25 10:36:42</time>
      </trkpt>
      <trkpt lat="42.6675" lon="-2.09896">
        <ele>475</ele>
        <time>2021-07-25 10:36:46</time>
      </trkpt>
      <trkpt lat="42.66748" lon="-2.09908">
        <ele>475.4</ele>
        <time>2021-07-25 10:36:50</time>
      </trkpt>
      <trkpt lat="42.66744" lon="-2.09919">
        <ele>476.2</ele>
        <time>2021-07-25 10:36:54</time>
      </trkpt>
      <trkpt lat="42.66741" lon="-2.0993">
        <ele>476</ele>
        <time>2021-07-25 10:36:58</time>
      </trkpt>
      <trkpt lat="42.66737" lon="-2.09943">
        <ele>476.4</ele>
        <time>2021-07-25 10:37:02</time>
      </trkpt>
      <trkpt lat="42.66735" lon="-2.09957">
        <ele>476.4</ele>
        <time>2021-07-25 10:37:06</time>
      </trkpt>
      <trkpt lat="42.66734" lon="-2.09972">
        <ele>476.8</ele>
        <time>2021-07-25 10:37:10</time>
      </trkpt>
      <trkpt lat="42.66735" lon="-2.09988">
        <ele>476.8</ele>
        <time>2021-07-25 10:37:14</time>
      </trkpt>
      <trkpt lat="42.66737" lon="-2.10002">
        <ele>477.2</ele>
        <time>2021-07-25 10:37:18</time>
      </trkpt>
      <trkpt lat="42.66737" lon="-2.10015">
        <ele>478</ele>
        <time>2021-07-25 10:37:22</time>
      </trkpt>
      <trkpt lat="42.66735" lon="-2.10028">
        <ele>477.8</ele>
        <time>2021-07-25 10:37:26</time>
      </trkpt>
      <trkpt lat="42.66733" lon="-2.1004">
        <ele>478.4</ele>
        <time>2021-07-25 10:37:30</time>
      </trkpt>
      <trkpt lat="42.6673" lon="-2.10053">
        <ele>478.4</ele>
        <time>2021-07-25 10:37:34</time>
      </trkpt>
      <trkpt lat="42.66728" lon="-2.10066">
        <ele>479.2</ele>
        <time>2021-07-25 10:37:38</time>
      </trkpt>
      <trkpt lat="42.66727" lon="-2.10079">
        <ele>479.4</ele>
        <time>2021-07-25 10:37:42</time>
      </trkpt>
      <trkpt lat="42.66727" lon="-2.10093">
        <ele>479.4</ele>
        <time>2021-07-25 10:37:46</time>
      </trkpt>
      <trkpt lat="42.66729" lon="-2.10107">
        <ele>480.2</ele>
        <time>2021-07-25 10:37:50</time>
      </trkpt>
      <trkpt lat="42.6673" lon="-2.1012">
        <ele>481</ele>
        <time>2021-07-25 10:37:54</time>
      </trkpt>
      <trkpt lat="42.6673" lon="-2.10131">
        <ele>482</ele>
        <time>2021-07-25 10:37:58</time>
      </trkpt>
      <trkpt lat="42.66728" lon="-2.10141">
        <ele>482.6</ele>
        <time>2021-07-25 10:38:02</time>
      </trkpt>
      <trkpt lat="42.66725" lon="-2.10151">
        <ele>483.8</ele>
        <time>2021-07-25 10:38:06</time>
      </trkpt>
      <trkpt lat="42.6672" lon="-2.1016">
        <ele>484.8</ele>
        <time>2021-07-25 10:38:10</time>
      </trkpt>
      <trkpt lat="42.66714" lon="-2.10169">
        <ele>485</ele>
        <time>2021-07-25 10:38:14</time>
      </trkpt>
      <trkpt lat="42.66706" lon="-2.1018">
        <ele>484.2</ele>
        <time>2021-07-25 10:38:18</time>
      </trkpt>
      <trkpt lat="42.66701" lon="-2.10195">
        <ele>483.6</ele>
        <time>2021-07-25 10:38:22</time>
      </trkpt>
      <trkpt lat="42.66701" lon="-2.10213">
        <ele>484.2</ele>
        <time>2021-07-25 10:38:26</time>
      </trkpt>
      <trkpt lat="42.66704" lon="-2.10229">
        <ele>483.8</ele>
        <time>2021-07-25 10:38:30</time>
      </trkpt>
      <trkpt lat="42.66701" lon="-2.10244">
        <ele>484.2</ele>
        <time>2021-07-25 10:38:34</time>
      </trkpt>
      <trkpt lat="42.66694" lon="-2.10257">
        <ele>484.8</ele>
        <time>2021-07-25 10:38:38</time>
      </trkpt>
      <trkpt lat="42.66685" lon="-2.10268">
        <ele>485.8</ele>
        <time>2021-07-25 10:38:42</time>
      </trkpt>
      <trkpt lat="42.66675" lon="-2.10269">
        <ele>486.8</ele>
        <time>2021-07-25 10:38:46</time>
      </trkpt>
      <trkpt lat="42.66666" lon="-2.10264">
        <ele>487.6</ele>
        <time>2021-07-25 10:38:50</time>
      </trkpt>
      <trkpt lat="42.66656" lon="-2.10258">
        <ele>488.2</ele>
        <time>2021-07-25 10:38:54</time>
      </trkpt>
      <trkpt lat="42.66647" lon="-2.10253">
        <ele>488.4</ele>
        <time>2021-07-25 10:38:58</time>
      </trkpt>
      <trkpt lat="42.66639" lon="-2.10248">
        <ele>489.2</ele>
        <time>2021-07-25 10:39:02</time>
      </trkpt>
      <trkpt lat="42.6663" lon="-2.1025">
        <ele>489.6</ele>
        <time>2021-07-25 10:39:06</time>
      </trkpt>
      <trkpt lat="42.66622" lon="-2.10247">
        <ele>490.4</ele>
        <time>2021-07-25 10:39:10</time>
      </trkpt>
      <trkpt lat="42.66616" lon="-2.10239">
        <ele>491</ele>
        <time>2021-07-25 10:39:14</time>
      </trkpt>
      <trkpt lat="42.66611" lon="-2.10229">
        <ele>491.8</ele>
        <time>2021-07-25 10:39:18</time>
      </trkpt>
      <trkpt lat="42.66603" lon="-2.10225">
        <ele>492</ele>
        <time>2021-07-25 10:39:22</time>
      </trkpt>
      <trkpt lat="42.66594" lon="-2.10221">
        <ele>492.2</ele>
        <time>2021-07-25 10:39:26</time>
      </trkpt>
      <trkpt lat="42.66585" lon="-2.10217">
        <ele>492.8</ele>
        <time>2021-07-25 10:39:30</time>
      </trkpt>
      <trkpt lat="42.66576" lon="-2.10211">
        <ele>492.8</ele>
        <time>2021-07-25 10:39:34</time>
      </trkpt>
      <trkpt lat="42.66568" lon="-2.10204">
        <ele>493.4</ele>
        <time>2021-07-25 10:39:38</time>
      </trkpt>
      <trkpt lat="42.6656" lon="-2.10196">
        <ele>493.2</ele>
        <time>2021-07-25 10:39:42</time>
      </trkpt>
      <trkpt lat="42.66552" lon="-2.10193">
        <ele>493.6</ele>
        <time>2021-07-25 10:39:46</time>
      </trkpt>
      <trkpt lat="42.66543" lon="-2.10197">
        <ele>493</ele>
        <time>2021-07-25 10:39:50</time>
      </trkpt>
      <trkpt lat="42.66532" lon="-2.10205">
        <ele>493</ele>
        <time>2021-07-25 10:39:54</time>
      </trkpt>
      <trkpt lat="42.66523" lon="-2.10215">
        <ele>492.8</ele>
        <time>2021-07-25 10:39:58</time>
      </trkpt>
      <trkpt lat="42.66516" lon="-2.10226">
        <ele>492.6</ele>
        <time>2021-07-25 10:40:02</time>
      </trkpt>
      <trkpt lat="42.66509" lon="-2.1024">
        <ele>492.6</ele>
        <time>2021-07-25 10:40:06</time>
      </trkpt>
      <trkpt lat="42.66501" lon="-2.10253">
        <ele>492.8</ele>
        <time>2021-07-25 10:40:10</time>
      </trkpt>
      <trkpt lat="42.66491" lon="-2.10262">
        <ele>492.8</ele>
        <time>2021-07-25 10:40:14</time>
      </trkpt>
      <trkpt lat="42.66483" lon="-2.10269">
        <ele>492</ele>
        <time>2021-07-25 10:40:18</time>
      </trkpt>
      <trkpt lat="42.6648" lon="-2.10276">
        <ele>491.8</ele>
        <time>2021-07-25 10:40:22</time>
      </trkpt>
      <trkpt lat="42.66479" lon="-2.10279">
        <ele>490.4</ele>
        <time>2021-07-25 10:40:26</time>
      </trkpt>
      <trkpt lat="42.66476" lon="-2.1029">
        <ele>490.6</ele>
        <time>2021-07-25 10:40:30</time>
      </trkpt>
      <trkpt lat="42.66472" lon="-2.10303">
        <ele>489</ele>
        <time>2021-07-25 10:40:34</time>
      </trkpt>
      <trkpt lat="42.66468" lon="-2.1032">
        <ele>487.6</ele>
        <time>2021-07-25 10:40:38</time>
      </trkpt>
      <trkpt lat="42.66468" lon="-2.10337">
        <ele>487.4</ele>
        <time>2021-07-25 10:40:42</time>
      </trkpt>
      <trkpt lat="42.66469" lon="-2.10348">
        <ele>486.2</ele>
        <time>2021-07-25 10:40:46</time>
      </trkpt>
      <trkpt lat="42.66469" lon="-2.10362">
        <ele>484.8</ele>
        <time>2021-07-25 10:40:50</time>
      </trkpt>
      <trkpt lat="42.66466" lon="-2.10374">
        <ele>483.2</ele>
        <time>2021-07-25 10:40:54</time>
      </trkpt>
      <trkpt lat="42.66464" lon="-2.10387">
        <ele>481.2</ele>
        <time>2021-07-25 10:40:58</time>
      </trkpt>
      <trkpt lat="42.66461" lon="-2.10402">
        <ele>480.2</ele>
        <time>2021-07-25 10:41:02</time>
      </trkpt>
      <trkpt lat="42.66456" lon="-2.10426">
        <ele>477</ele>
        <time>2021-07-25 10:41:06</time>
      </trkpt>
      <trkpt lat="42.66447" lon="-2.1045">
        <ele>477</ele>
        <time>2021-07-25 10:41:10</time>
      </trkpt>
      <trkpt lat="42.66437" lon="-2.10469">
        <ele>476</ele>
        <time>2021-07-25 10:41:14</time>
      </trkpt>
      <trkpt lat="42.66425" lon="-2.1049">
        <ele>472.4</ele>
        <time>2021-07-25 10:41:18</time>
      </trkpt>
      <trkpt lat="42.6641" lon="-2.10516">
        <ele>470.2</ele>
        <time>2021-07-25 10:41:22</time>
      </trkpt>
      <trkpt lat="42.66397" lon="-2.10542">
        <ele>468</ele>
        <time>2021-07-25 10:41:26</time>
      </trkpt>
      <trkpt lat="42.66393" lon="-2.10567">
        <ele>468.2</ele>
        <time>2021-07-25 10:41:30</time>
      </trkpt>
      <trkpt lat="42.66402" lon="-2.10588">
        <ele>467</ele>
        <time>2021-07-25 10:41:34</time>
      </trkpt>
      <trkpt lat="42.66407" lon="-2.10606">
        <ele>465</ele>
        <time>2021-07-25 10:41:38</time>
      </trkpt>
      <trkpt lat="42.66403" lon="-2.10623">
        <ele>462.2</ele>
        <time>2021-07-25 10:41:42</time>
      </trkpt>
      <trkpt lat="42.6639" lon="-2.10636">
        <ele>461</ele>
        <time>2021-07-25 10:41:46</time>
      </trkpt>
      <trkpt lat="42.66375" lon="-2.10645">
        <ele>460</ele>
        <time>2021-07-25 10:41:50</time>
      </trkpt>
      <trkpt lat="42.6636" lon="-2.10665">
        <ele>457.4</ele>
        <time>2021-07-25 10:41:54</time>
      </trkpt>
      <trkpt lat="42.66345" lon="-2.10686">
        <ele>456.8</ele>
        <time>2021-07-25 10:41:58</time>
      </trkpt>
      <trkpt lat="42.66332" lon="-2.10704">
        <ele>456.8</ele>
        <time>2021-07-25 10:42:02</time>
      </trkpt>
      <trkpt lat="42.66324" lon="-2.10714">
        <ele>457.2</ele>
        <time>2021-07-25 10:42:06</time>
      </trkpt>
      <trkpt lat="42.66324" lon="-2.10714">
        <ele>457.2</ele>
        <time>2021-07-25 10:42:10</time>
      </trkpt>
      <trkpt lat="42.66324" lon="-2.10714">
        <ele>457.4</ele>
        <time>2021-07-25 10:42:14</time>
      </trkpt>
      <trkpt lat="42.66324" lon="-2.10714">
        <ele>457.2</ele>
        <time>2021-07-25 10:42:18</time>
      </trkpt>
      <trkpt lat="42.66323" lon="-2.10716">
        <ele>457.4</ele>
        <time>2021-07-25 10:42:22</time>
      </trkpt>
      <trkpt lat="42.66323" lon="-2.10728">
        <ele>457.4</ele>
        <time>2021-07-25 10:42:26</time>
      </trkpt>
      <trkpt lat="42.66322" lon="-2.10741">
        <ele>458.6</ele>
        <time>2021-07-25 10:42:30</time>
      </trkpt>
      <trkpt lat="42.66317" lon="-2.1075">
        <ele>459.6</ele>
        <time>2021-07-25 10:42:34</time>
      </trkpt>
      <trkpt lat="42.66313" lon="-2.10761">
        <ele>460</ele>
        <time>2021-07-25 10:42:38</time>
      </trkpt>
      <trkpt lat="42.6631" lon="-2.10772">
        <ele>460.4</ele>
        <time>2021-07-25 10:42:42</time>
      </trkpt>
      <trkpt lat="42.66306" lon="-2.10781">
        <ele>461.4</ele>
        <time>2021-07-25 10:42:46</time>
      </trkpt>
      <trkpt lat="42.66301" lon="-2.10791">
        <ele>461.2</ele>
        <time>2021-07-25 10:42:50</time>
      </trkpt>
      <trkpt lat="42.66295" lon="-2.10799">
        <ele>461</ele>
        <time>2021-07-25 10:42:54</time>
      </trkpt>
      <trkpt lat="42.66283" lon="-2.10812">
        <ele>458.2</ele>
        <time>2021-07-25 10:42:58</time>
      </trkpt>
      <trkpt lat="42.6627" lon="-2.10835">
        <ele>457.2</ele>
        <time>2021-07-25 10:43:02</time>
      </trkpt>
      <trkpt lat="42.66261" lon="-2.10861">
        <ele>457.2</ele>
        <time>2021-07-25 10:43:06</time>
      </trkpt>
      <trkpt lat="42.66254" lon="-2.10883">
        <ele>459.4</ele>
        <time>2021-07-25 10:43:10</time>
      </trkpt>
      <trkpt lat="42.66251" lon="-2.10897">
        <ele>461</ele>
        <time>2021-07-25 10:43:14</time>
      </trkpt>
      <trkpt lat="42.66248" lon="-2.1091">
        <ele>461.8</ele>
        <time>2021-07-25 10:43:18</time>
      </trkpt>
      <trkpt lat="42.66244" lon="-2.10922">
        <ele>462.2</ele>
        <time>2021-07-25 10:43:22</time>
      </trkpt>
      <trkpt lat="42.6624" lon="-2.10934">
        <ele>462.6</ele>
        <time>2021-07-25 10:43:26</time>
      </trkpt>
      <trkpt lat="42.66235" lon="-2.10946">
        <ele>463.8</ele>
        <time>2021-07-25 10:43:30</time>
      </trkpt>
      <trkpt lat="42.6623" lon="-2.10958">
        <ele>463.6</ele>
        <time>2021-07-25 10:43:34</time>
      </trkpt>
      <trkpt lat="42.66228" lon="-2.1097">
        <ele>464</ele>
        <time>2021-07-25 10:43:38</time>
      </trkpt>
      <trkpt lat="42.66226" lon="-2.10984">
        <ele>464.8</ele>
        <time>2021-07-25 10:43:42</time>
      </trkpt>
      <trkpt lat="42.66227" lon="-2.10997">
        <ele>464.6</ele>
        <time>2021-07-25 10:43:46</time>
      </trkpt>
      <trkpt lat="42.66228" lon="-2.11011">
        <ele>465.2</ele>
        <time>2021-07-25 10:43:50</time>
      </trkpt>
      <trkpt lat="42.66232" lon="-2.11025">
        <ele>465.2</ele>
        <time>2021-07-25 10:43:54</time>
      </trkpt>
      <trkpt lat="42.66237" lon="-2.11039">
        <ele>465.6</ele>
        <time>2021-07-25 10:43:58</time>
      </trkpt>
      <trkpt lat="42.66244" lon="-2.11053">
        <ele>465.6</ele>
        <time>2021-07-25 10:44:02</time>
      </trkpt>
      <trkpt lat="42.66252" lon="-2.11067">
        <ele>466.2</ele>
        <time>2021-07-25 10:44:06</time>
      </trkpt>
      <trkpt lat="42.66258" lon="-2.11081">
        <ele>466.4</ele>
        <time>2021-07-25 10:44:10</time>
      </trkpt>
      <trkpt lat="42.66262" lon="-2.11096">
        <ele>467.2</ele>
        <time>2021-07-25 10:44:14</time>
      </trkpt>
      <trkpt lat="42.66267" lon="-2.11111">
        <ele>467.2</ele>
        <time>2021-07-25 10:44:18</time>
      </trkpt>
      <trkpt lat="42.66271" lon="-2.11126">
        <ele>468.2</ele>
        <time>2021-07-25 10:44:22</time>
      </trkpt>
      <trkpt lat="42.66277" lon="-2.11141">
        <ele>468</ele>
        <time>2021-07-25 10:44:26</time>
      </trkpt>
      <trkpt lat="42.66285" lon="-2.11156">
        <ele>468.6</ele>
        <time>2021-07-25 10:44:30</time>
      </trkpt>
      <trkpt lat="42.66294" lon="-2.11171">
        <ele>468</ele>
        <time>2021-07-25 10:44:34</time>
      </trkpt>
      <trkpt lat="42.66303" lon="-2.11187">
        <ele>468.2</ele>
        <time>2021-07-25 10:44:38</time>
      </trkpt>
      <trkpt lat="42.66311" lon="-2.11205">
        <ele>468.4</ele>
        <time>2021-07-25 10:44:42</time>
      </trkpt>
      <trkpt lat="42.66319" lon="-2.1122">
        <ele>468.8</ele>
        <time>2021-07-25 10:44:46</time>
      </trkpt>
      <trkpt lat="42.66328" lon="-2.11235">
        <ele>469</ele>
        <time>2021-07-25 10:44:50</time>
      </trkpt>
      <trkpt lat="42.66337" lon="-2.11251">
        <ele>469.6</ele>
        <time>2021-07-25 10:44:54</time>
      </trkpt>
      <trkpt lat="42.66344" lon="-2.11266">
        <ele>469.6</ele>
        <time>2021-07-25 10:44:58</time>
      </trkpt>
      <trkpt lat="42.66351" lon="-2.11279">
        <ele>470.2</ele>
        <time>2021-07-25 10:45:02</time>
      </trkpt>
      <trkpt lat="42.66359" lon="-2.11292">
        <ele>470.4</ele>
        <time>2021-07-25 10:45:06</time>
      </trkpt>
      <trkpt lat="42.66368" lon="-2.11304">
        <ele>470.8</ele>
        <time>2021-07-25 10:45:10</time>
      </trkpt>
      <trkpt lat="42.66377" lon="-2.11319">
        <ele>469.8</ele>
        <time>2021-07-25 10:45:14</time>
      </trkpt>
      <trkpt lat="42.66378" lon="-2.11341">
        <ele>468.6</ele>
        <time>2021-07-25 10:45:18</time>
      </trkpt>
      <trkpt lat="42.66366" lon="-2.11362">
        <ele>467.6</ele>
        <time>2021-07-25 10:45:22</time>
      </trkpt>
      <trkpt lat="42.66356" lon="-2.11383">
        <ele>467</ele>
        <time>2021-07-25 10:45:26</time>
      </trkpt>
      <trkpt lat="42.66348" lon="-2.11403">
        <ele>466.8</ele>
        <time>2021-07-25 10:45:30</time>
      </trkpt>
      <trkpt lat="42.66337" lon="-2.11414">
        <ele>465.4</ele>
        <time>2021-07-25 10:45:34</time>
      </trkpt>
      <trkpt lat="42.66324" lon="-2.11422">
        <ele>464.4</ele>
        <time>2021-07-25 10:45:38</time>
      </trkpt>
      <trkpt lat="42.66312" lon="-2.1143">
        <ele>463.4</ele>
        <time>2021-07-25 10:45:42</time>
      </trkpt>
      <trkpt lat="42.66301" lon="-2.11443">
        <ele>462.8</ele>
        <time>2021-07-25 10:45:46</time>
      </trkpt>
      <trkpt lat="42.66291" lon="-2.11461">
        <ele>461.6</ele>
        <time>2021-07-25 10:45:50</time>
      </trkpt>
      <trkpt lat="42.66282" lon="-2.11479">
        <ele>461.6</ele>
        <time>2021-07-25 10:45:54</time>
      </trkpt>
      <trkpt lat="42.66273" lon="-2.11497">
        <ele>459.6</ele>
        <time>2021-07-25 10:45:58</time>
      </trkpt>
      <trkpt lat="42.66263" lon="-2.1151">
        <ele>458.8</ele>
        <time>2021-07-25 10:46:02</time>
      </trkpt>
      <trkpt lat="42.6625" lon="-2.11519">
        <ele>456.6</ele>
        <time>2021-07-25 10:46:06</time>
      </trkpt>
      <trkpt lat="42.66237" lon="-2.11518">
        <ele>455.8</ele>
        <time>2021-07-25 10:46:10</time>
      </trkpt>
      <trkpt lat="42.66221" lon="-2.11517">
        <ele>455</ele>
        <time>2021-07-25 10:46:14</time>
      </trkpt>
      <trkpt lat="42.66207" lon="-2.11521">
        <ele>454.2</ele>
        <time>2021-07-25 10:46:18</time>
      </trkpt>
      <trkpt lat="42.66195" lon="-2.11525">
        <ele>453</ele>
        <time>2021-07-25 10:46:22</time>
      </trkpt>
      <trkpt lat="42.66183" lon="-2.11531">
        <ele>451.6</ele>
        <time>2021-07-25 10:46:26</time>
      </trkpt>
      <trkpt lat="42.66171" lon="-2.11532">
        <ele>451</ele>
        <time>2021-07-25 10:46:30</time>
      </trkpt>
      <trkpt lat="42.66157" lon="-2.11533">
        <ele>449.6</ele>
        <time>2021-07-25 10:46:34</time>
      </trkpt>
      <trkpt lat="42.6614" lon="-2.11537">
        <ele>448.2</ele>
        <time>2021-07-25 10:46:38</time>
      </trkpt>
      <trkpt lat="42.66124" lon="-2.1154">
        <ele>447.2</ele>
        <time>2021-07-25 10:46:42</time>
      </trkpt>
      <trkpt lat="42.66107" lon="-2.11537">
        <ele>445.8</ele>
        <time>2021-07-25 10:46:46</time>
      </trkpt>
      <trkpt lat="42.6609" lon="-2.11527">
        <ele>444.6</ele>
        <time>2021-07-25 10:46:50</time>
      </trkpt>
      <trkpt lat="42.66075" lon="-2.11527">
        <ele>443.2</ele>
        <time>2021-07-25 10:46:54</time>
      </trkpt>
      <trkpt lat="42.66067" lon="-2.1154">
        <ele>443</ele>
        <time>2021-07-25 10:46:58</time>
      </trkpt>
      <trkpt lat="42.66067" lon="-2.11556">
        <ele>441.2</ele>
        <time>2021-07-25 10:47:02</time>
      </trkpt>
      <trkpt lat="42.66072" lon="-2.11576">
        <ele>439.4</ele>
        <time>2021-07-25 10:47:06</time>
      </trkpt>
      <trkpt lat="42.66078" lon="-2.11591">
        <ele>438</ele>
        <time>2021-07-25 10:47:10</time>
      </trkpt>
      <trkpt lat="42.66079" lon="-2.1161">
        <ele>437</ele>
        <time>2021-07-25 10:47:14</time>
      </trkpt>
      <trkpt lat="42.66068" lon="-2.11627">
        <ele>434.6</ele>
        <time>2021-07-25 10:47:18</time>
      </trkpt>
      <trkpt lat="42.66064" lon="-2.11649">
        <ele>434</ele>
        <time>2021-07-25 10:47:22</time>
      </trkpt>
      <trkpt lat="42.66065" lon="-2.11669">
        <ele>433.8</ele>
        <time>2021-07-25 10:47:26</time>
      </trkpt>
      <trkpt lat="42.66053" lon="-2.1168">
        <ele>434.8</ele>
        <time>2021-07-25 10:47:30</time>
      </trkpt>
      <trkpt lat="42.66038" lon="-2.11682">
        <ele>435</ele>
        <time>2021-07-25 10:47:34</time>
      </trkpt>
      <trkpt lat="42.66024" lon="-2.11688">
        <ele>434.4</ele>
        <time>2021-07-25 10:47:38</time>
      </trkpt>
      <trkpt lat="42.66013" lon="-2.11703">
        <ele>434.6</ele>
        <time>2021-07-25 10:47:42</time>
      </trkpt>
      <trkpt lat="42.66003" lon="-2.1172">
        <ele>434.4</ele>
        <time>2021-07-25 10:47:46</time>
      </trkpt>
      <trkpt lat="42.65993" lon="-2.11738">
        <ele>434.6</ele>
        <time>2021-07-25 10:47:50</time>
      </trkpt>
      <trkpt lat="42.65984" lon="-2.11757">
        <ele>434.8</ele>
        <time>2021-07-25 10:47:54</time>
      </trkpt>
      <trkpt lat="42.65976" lon="-2.11776">
        <ele>435</ele>
        <time>2021-07-25 10:47:58</time>
      </trkpt>
      <trkpt lat="42.65968" lon="-2.11794">
        <ele>434.6</ele>
        <time>2021-07-25 10:48:02</time>
      </trkpt>
      <trkpt lat="42.65961" lon="-2.11813">
        <ele>435</ele>
        <time>2021-07-25 10:48:06</time>
      </trkpt>
      <trkpt lat="42.65955" lon="-2.11833">
        <ele>435.2</ele>
        <time>2021-07-25 10:48:10</time>
      </trkpt>
      <trkpt lat="42.65949" lon="-2.11853">
        <ele>435</ele>
        <time>2021-07-25 10:48:14</time>
      </trkpt>
      <trkpt lat="42.65943" lon="-2.11871">
        <ele>435.4</ele>
        <time>2021-07-25 10:48:18</time>
      </trkpt>
      <trkpt lat="42.65935" lon="-2.11892">
        <ele>434.8</ele>
        <time>2021-07-25 10:48:22</time>
      </trkpt>
      <trkpt lat="42.6593" lon="-2.11916">
        <ele>435.2</ele>
        <time>2021-07-25 10:48:26</time>
      </trkpt>
      <trkpt lat="42.65926" lon="-2.11939">
        <ele>434.6</ele>
        <time>2021-07-25 10:48:30</time>
      </trkpt>
      <trkpt lat="42.65922" lon="-2.11964">
        <ele>434</ele>
        <time>2021-07-25 10:48:34</time>
      </trkpt>
      <trkpt lat="42.6592" lon="-2.11988">
        <ele>434.6</ele>
        <time>2021-07-25 10:48:38</time>
      </trkpt>
      <trkpt lat="42.65919" lon="-2.1201">
        <ele>435.2</ele>
        <time>2021-07-25 10:48:42</time>
      </trkpt>
      <trkpt lat="42.65921" lon="-2.12032">
        <ele>435.4</ele>
        <time>2021-07-25 10:48:46</time>
      </trkpt>
      <trkpt lat="42.65923" lon="-2.12053">
        <ele>435.4</ele>
        <time>2021-07-25 10:48:50</time>
      </trkpt>
      <trkpt lat="42.65924" lon="-2.12073">
        <ele>435</ele>
        <time>2021-07-25 10:48:54</time>
      </trkpt>
      <trkpt lat="42.65924" lon="-2.12096">
        <ele>435.2</ele>
        <time>2021-07-25 10:48:58</time>
      </trkpt>
      <trkpt lat="42.65924" lon="-2.12117">
        <ele>435.6</ele>
        <time>2021-07-25 10:49:02</time>
      </trkpt>
      <trkpt lat="42.65924" lon="-2.12137">
        <ele>435.6</ele>
        <time>2021-07-25 10:49:06</time>
      </trkpt>
      <trkpt lat="42.65923" lon="-2.12158">
        <ele>436</ele>
        <time>2021-07-25 10:49:10</time>
      </trkpt>
      <trkpt lat="42.65922" lon="-2.1218">
        <ele>435.8</ele>
        <time>2021-07-25 10:49:14</time>
      </trkpt>
      <trkpt lat="42.65921" lon="-2.12203">
        <ele>436</ele>
        <time>2021-07-25 10:49:18</time>
      </trkpt>
      <trkpt lat="42.65921" lon="-2.12224">
        <ele>436</ele>
        <time>2021-07-25 10:49:22</time>
      </trkpt>
      <trkpt lat="42.65921" lon="-2.12244">
        <ele>437</ele>
        <time>2021-07-25 10:49:26</time>
      </trkpt>
      <trkpt lat="42.65919" lon="-2.12262">
        <ele>437.6</ele>
        <time>2021-07-25 10:49:30</time>
      </trkpt>
      <trkpt lat="42.65914" lon="-2.12279">
        <ele>437.6</ele>
        <time>2021-07-25 10:49:34</time>
      </trkpt>
      <trkpt lat="42.65908" lon="-2.12297">
        <ele>437.4</ele>
        <time>2021-07-25 10:49:38</time>
      </trkpt>
      <trkpt lat="42.65903" lon="-2.12316">
        <ele>438.2</ele>
        <time>2021-07-25 10:49:42</time>
      </trkpt>
      <trkpt lat="42.659" lon="-2.12335">
        <ele>438.6</ele>
        <time>2021-07-25 10:49:46</time>
      </trkpt>
      <trkpt lat="42.65897" lon="-2.12353">
        <ele>438.2</ele>
        <time>2021-07-25 10:49:50</time>
      </trkpt>
      <trkpt lat="42.65892" lon="-2.12373">
        <ele>438</ele>
        <time>2021-07-25 10:49:54</time>
      </trkpt>
      <trkpt lat="42.65887" lon="-2.12392">
        <ele>438.8</ele>
        <time>2021-07-25 10:49:58</time>
      </trkpt>
      <trkpt lat="42.6588" lon="-2.12409">
        <ele>439</ele>
        <time>2021-07-25 10:50:02</time>
      </trkpt>
      <trkpt lat="42.65872" lon="-2.12427">
        <ele>438.8</ele>
        <time>2021-07-25 10:50:06</time>
      </trkpt>
      <trkpt lat="42.65862" lon="-2.12446">
        <ele>438</ele>
        <time>2021-07-25 10:50:10</time>
      </trkpt>
      <trkpt lat="42.65849" lon="-2.12468">
        <ele>437.4</ele>
        <time>2021-07-25 10:50:14</time>
      </trkpt>
      <trkpt lat="42.65834" lon="-2.12489">
        <ele>436.2</ele>
        <time>2021-07-25 10:50:18</time>
      </trkpt>
      <trkpt lat="42.6582" lon="-2.12511">
        <ele>436.2</ele>
        <time>2021-07-25 10:50:22</time>
      </trkpt>
      <trkpt lat="42.6581" lon="-2.12534">
        <ele>435.6</ele>
        <time>2021-07-25 10:50:26</time>
      </trkpt>
      <trkpt lat="42.658" lon="-2.12556">
        <ele>435.6</ele>
        <time>2021-07-25 10:50:30</time>
      </trkpt>
      <trkpt lat="42.65791" lon="-2.12578">
        <ele>436.2</ele>
        <time>2021-07-25 10:50:34</time>
      </trkpt>
      <trkpt lat="42.65781" lon="-2.12597">
        <ele>436.4</ele>
        <time>2021-07-25 10:50:38</time>
      </trkpt>
      <trkpt lat="42.65771" lon="-2.12616">
        <ele>436.8</ele>
        <time>2021-07-25 10:50:42</time>
      </trkpt>
      <trkpt lat="42.6576" lon="-2.12635">
        <ele>436.4</ele>
        <time>2021-07-25 10:50:46</time>
      </trkpt>
      <trkpt lat="42.65746" lon="-2.1265">
        <ele>437</ele>
        <time>2021-07-25 10:50:50</time>
      </trkpt>
      <trkpt lat="42.65733" lon="-2.12665">
        <ele>436.6</ele>
        <time>2021-07-25 10:50:54</time>
      </trkpt>
      <trkpt lat="42.65722" lon="-2.1268">
        <ele>437.4</ele>
        <time>2021-07-25 10:50:58</time>
      </trkpt>
      <trkpt lat="42.65711" lon="-2.12695">
        <ele>438</ele>
        <time>2021-07-25 10:51:02</time>
      </trkpt>
      <trkpt lat="42.65701" lon="-2.12708">
        <ele>438.8</ele>
        <time>2021-07-25 10:51:06</time>
      </trkpt>
      <trkpt lat="42.65692" lon="-2.1272">
        <ele>439</ele>
        <time>2021-07-25 10:51:10</time>
      </trkpt>
      <trkpt lat="42.65684" lon="-2.12729">
        <ele>440</ele>
        <time>2021-07-25 10:51:14</time>
      </trkpt>
      <trkpt lat="42.65678" lon="-2.12739">
        <ele>440.4</ele>
        <time>2021-07-25 10:51:18</time>
      </trkpt>
      <trkpt lat="42.65672" lon="-2.1275">
        <ele>441.6</ele>
        <time>2021-07-25 10:51:22</time>
      </trkpt>
      <trkpt lat="42.65669" lon="-2.1276">
        <ele>442.8</ele>
        <time>2021-07-25 10:51:26</time>
      </trkpt>
      <trkpt lat="42.65668" lon="-2.12768">
        <ele>444.2</ele>
        <time>2021-07-25 10:51:30</time>
      </trkpt>
      <trkpt lat="42.65668" lon="-2.12768">
        <ele>444.2</ele>
        <time>2021-07-25 10:51:34</time>
      </trkpt>
      <trkpt lat="42.65668" lon="-2.12768">
        <ele>443.2</ele>
        <time>2021-07-25 10:51:38</time>
      </trkpt>
      <trkpt lat="42.65668" lon="-2.12768">
        <ele>443.6</ele>
        <time>2021-07-25 10:51:42</time>
      </trkpt>
      <trkpt lat="42.65668" lon="-2.12768">
        <ele>443.8</ele>
        <time>2021-07-25 10:51:46</time>
      </trkpt>
      <trkpt lat="42.65668" lon="-2.12768">
        <ele>443.8</ele>
        <time>2021-07-25 10:51:50</time>
      </trkpt>
      <trkpt lat="42.65665" lon="-2.12772">
        <ele>442.4</ele>
        <time>2021-07-25 10:51:54</time>
      </trkpt>
      <trkpt lat="42.65662" lon="-2.12789">
        <ele>442.4</ele>
        <time>2021-07-25 10:51:58</time>
      </trkpt>
      <trkpt lat="42.65663" lon="-2.12806">
        <ele>441.6</ele>
        <time>2021-07-25 10:52:02</time>
      </trkpt>
      <trkpt lat="42.65663" lon="-2.12828">
        <ele>436</ele>
        <time>2021-07-25 10:52:06</time>
      </trkpt>
      <trkpt lat="42.65662" lon="-2.12862">
        <ele>436</ele>
        <time>2021-07-25 10:52:10</time>
      </trkpt>
      <trkpt lat="42.65664" lon="-2.12895">
        <ele>436.2</ele>
        <time>2021-07-25 10:52:14</time>
      </trkpt>
      <trkpt lat="42.65666" lon="-2.12922">
        <ele>437</ele>
        <time>2021-07-25 10:52:18</time>
      </trkpt>
      <trkpt lat="42.65666" lon="-2.12947">
        <ele>437</ele>
        <time>2021-07-25 10:52:22</time>
      </trkpt>
      <trkpt lat="42.65666" lon="-2.12972">
        <ele>437.2</ele>
        <time>2021-07-25 10:52:26</time>
      </trkpt>
      <trkpt lat="42.65666" lon="-2.12997">
        <ele>437.2</ele>
        <time>2021-07-25 10:52:30</time>
      </trkpt>
      <trkpt lat="42.65666" lon="-2.13021">
        <ele>437</ele>
        <time>2021-07-25 10:52:34</time>
      </trkpt>
      <trkpt lat="42.65667" lon="-2.13046">
        <ele>437.4</ele>
        <time>2021-07-25 10:52:38</time>
      </trkpt>
      <trkpt lat="42.65668" lon="-2.1307">
        <ele>437.2</ele>
        <time>2021-07-25 10:52:42</time>
      </trkpt>
      <trkpt lat="42.65669" lon="-2.13092">
        <ele>437.2</ele>
        <time>2021-07-25 10:52:46</time>
      </trkpt>
      <trkpt lat="42.6567" lon="-2.13115">
        <ele>438.2</ele>
        <time>2021-07-25 10:52:50</time>
      </trkpt>
      <trkpt lat="42.6567" lon="-2.13137">
        <ele>437.6</ele>
        <time>2021-07-25 10:52:54</time>
      </trkpt>
      <trkpt lat="42.65671" lon="-2.13157">
        <ele>438</ele>
        <time>2021-07-25 10:52:58</time>
      </trkpt>
      <trkpt lat="42.65672" lon="-2.13178">
        <ele>438</ele>
        <time>2021-07-25 10:53:02</time>
      </trkpt>
      <trkpt lat="42.65673" lon="-2.13199">
        <ele>438.6</ele>
        <time>2021-07-25 10:53:06</time>
      </trkpt>
      <trkpt lat="42.65673" lon="-2.1322">
        <ele>438.4</ele>
        <time>2021-07-25 10:53:10</time>
      </trkpt>
      <trkpt lat="42.65674" lon="-2.13242">
        <ele>438.8</ele>
        <time>2021-07-25 10:53:14</time>
      </trkpt>
      <trkpt lat="42.65674" lon="-2.13264">
        <ele>438</ele>
        <time>2021-07-25 10:53:18</time>
      </trkpt>
      <trkpt lat="42.65674" lon="-2.13287">
        <ele>438.6</ele>
        <time>2021-07-25 10:53:22</time>
      </trkpt>
      <trkpt lat="42.65675" lon="-2.13309">
        <ele>438.2</ele>
        <time>2021-07-25 10:53:26</time>
      </trkpt>
      <trkpt lat="42.65676" lon="-2.13331">
        <ele>438.6</ele>
        <time>2021-07-25 10:53:30</time>
      </trkpt>
      <trkpt lat="42.65676" lon="-2.13352">
        <ele>439</ele>
        <time>2021-07-25 10:53:34</time>
      </trkpt>
      <trkpt lat="42.65677" lon="-2.13373">
        <ele>439.4</ele>
        <time>2021-07-25 10:53:38</time>
      </trkpt>
      <trkpt lat="42.65677" lon="-2.13395">
        <ele>439.4</ele>
        <time>2021-07-25 10:53:42</time>
      </trkpt>
      <trkpt lat="42.65678" lon="-2.13418">
        <ele>439.8</ele>
        <time>2021-07-25 10:53:46</time>
      </trkpt>
      <trkpt lat="42.65678" lon="-2.13441">
        <ele>439.6</ele>
        <time>2021-07-25 10:53:50</time>
      </trkpt>
      <trkpt lat="42.6568" lon="-2.13462">
        <ele>439.8</ele>
        <time>2021-07-25 10:53:54</time>
      </trkpt>
      <trkpt lat="42.65684" lon="-2.13484">
        <ele>440.2</ele>
        <time>2021-07-25 10:53:58</time>
      </trkpt>
      <trkpt lat="42.65688" lon="-2.13506">
        <ele>441</ele>
        <time>2021-07-25 10:54:02</time>
      </trkpt>
      <trkpt lat="42.65693" lon="-2.13527">
        <ele>440.4</ele>
        <time>2021-07-25 10:54:06</time>
      </trkpt>
      <trkpt lat="42.657" lon="-2.13546">
        <ele>440.4</ele>
        <time>2021-07-25 10:54:10</time>
      </trkpt>
      <trkpt lat="42.65707" lon="-2.13568">
        <ele>440.8</ele>
        <time>2021-07-25 10:54:14</time>
      </trkpt>
      <trkpt lat="42.65714" lon="-2.13588">
        <ele>440.6</ele>
        <time>2021-07-25 10:54:18</time>
      </trkpt>
      <trkpt lat="42.6572" lon="-2.13607">
        <ele>440.8</ele>
        <time>2021-07-25 10:54:22</time>
      </trkpt>
      <trkpt lat="42.65727" lon="-2.13627">
        <ele>441.2</ele>
        <time>2021-07-25 10:54:26</time>
      </trkpt>
      <trkpt lat="42.65735" lon="-2.13647">
        <ele>441.2</ele>
        <time>2021-07-25 10:54:30</time>
      </trkpt>
      <trkpt lat="42.65743" lon="-2.13667">
        <ele>441.6</ele>
        <time>2021-07-25 10:54:34</time>
      </trkpt>
      <trkpt lat="42.6575" lon="-2.13686">
        <ele>441.6</ele>
        <time>2021-07-25 10:54:38</time>
      </trkpt>
      <trkpt lat="42.65757" lon="-2.13706">
        <ele>441.4</ele>
        <time>2021-07-25 10:54:42</time>
      </trkpt>
      <trkpt lat="42.65765" lon="-2.13725">
        <ele>442.4</ele>
        <time>2021-07-25 10:54:46</time>
      </trkpt>
      <trkpt lat="42.65771" lon="-2.13744">
        <ele>442.4</ele>
        <time>2021-07-25 10:54:50</time>
      </trkpt>
      <trkpt lat="42.65778" lon="-2.13761">
        <ele>443</ele>
        <time>2021-07-25 10:54:54</time>
      </trkpt>
      <trkpt lat="42.65785" lon="-2.13778">
        <ele>443</ele>
        <time>2021-07-25 10:54:58</time>
      </trkpt>
      <trkpt lat="42.65791" lon="-2.13796">
        <ele>443.4</ele>
        <time>2021-07-25 10:55:02</time>
      </trkpt>
      <trkpt lat="42.65798" lon="-2.13813">
        <ele>443.6</ele>
        <time>2021-07-25 10:55:06</time>
      </trkpt>
      <trkpt lat="42.65804" lon="-2.1383">
        <ele>444.2</ele>
        <time>2021-07-25 10:55:10</time>
      </trkpt>
      <trkpt lat="42.65809" lon="-2.13847">
        <ele>443.6</ele>
        <time>2021-07-25 10:55:14</time>
      </trkpt>
      <trkpt lat="42.65814" lon="-2.13864">
        <ele>444.2</ele>
        <time>2021-07-25 10:55:18</time>
      </trkpt>
      <trkpt lat="42.65819" lon="-2.13881">
        <ele>444.6</ele>
        <time>2021-07-25 10:55:22</time>
      </trkpt>
      <trkpt lat="42.65823" lon="-2.13897">
        <ele>444.6</ele>
        <time>2021-07-25 10:55:26</time>
      </trkpt>
      <trkpt lat="42.65826" lon="-2.13913">
        <ele>445.4</ele>
        <time>2021-07-25 10:55:30</time>
      </trkpt>
      <trkpt lat="42.65828" lon="-2.13929">
        <ele>446.2</ele>
        <time>2021-07-25 10:55:34</time>
      </trkpt>
      <trkpt lat="42.65827" lon="-2.13946">
        <ele>446</ele>
        <time>2021-07-25 10:55:38</time>
      </trkpt>
      <trkpt lat="42.65828" lon="-2.13962">
        <ele>446</ele>
        <time>2021-07-25 10:55:42</time>
      </trkpt>
      <trkpt lat="42.65828" lon="-2.13979">
        <ele>446.4</ele>
        <time>2021-07-25 10:55:46</time>
      </trkpt>
      <trkpt lat="42.65828" lon="-2.13996">
        <ele>446.2</ele>
        <time>2021-07-25 10:55:50</time>
      </trkpt>
      <trkpt lat="42.65828" lon="-2.14013">
        <ele>446.6</ele>
        <time>2021-07-25 10:55:54</time>
      </trkpt>
      <trkpt lat="42.65828" lon="-2.14026">
        <ele>446.8</ele>
        <time>2021-07-25 10:55:58</time>
      </trkpt>
      <trkpt lat="42.65829" lon="-2.14039">
        <ele>447.8</ele>
        <time>2021-07-25 10:56:02</time>
      </trkpt>
      <trkpt lat="42.65829" lon="-2.14053">
        <ele>447.2</ele>
        <time>2021-07-25 10:56:06</time>
      </trkpt>
      <trkpt lat="42.65831" lon="-2.14068">
        <ele>447.4</ele>
        <time>2021-07-25 10:56:10</time>
      </trkpt>
      <trkpt lat="42.65832" lon="-2.14084">
        <ele>447.6</ele>
        <time>2021-07-25 10:56:14</time>
      </trkpt>
      <trkpt lat="42.65832" lon="-2.14101">
        <ele>448.4</ele>
        <time>2021-07-25 10:56:18</time>
      </trkpt>
      <trkpt lat="42.65832" lon="-2.14122">
        <ele>448.2</ele>
        <time>2021-07-25 10:56:22</time>
      </trkpt>
      <trkpt lat="42.65832" lon="-2.14141">
        <ele>448.4</ele>
        <time>2021-07-25 10:56:26</time>
      </trkpt>
      <trkpt lat="42.65833" lon="-2.14159">
        <ele>448.4</ele>
        <time>2021-07-25 10:56:30</time>
      </trkpt>
      <trkpt lat="42.65834" lon="-2.14176">
        <ele>448.8</ele>
        <time>2021-07-25 10:56:34</time>
      </trkpt>
      <trkpt lat="42.65833" lon="-2.14195">
        <ele>449</ele>
        <time>2021-07-25 10:56:38</time>
      </trkpt>
      <trkpt lat="42.65833" lon="-2.14214">
        <ele>449</ele>
        <time>2021-07-25 10:56:42</time>
      </trkpt>
      <trkpt lat="42.65834" lon="-2.1423">
        <ele>449.6</ele>
        <time>2021-07-25 10:56:46</time>
      </trkpt>
      <trkpt lat="42.65835" lon="-2.14247">
        <ele>449.8</ele>
        <time>2021-07-25 10:56:50</time>
      </trkpt>
      <trkpt lat="42.65834" lon="-2.14267">
        <ele>450</ele>
        <time>2021-07-25 10:56:54</time>
      </trkpt>
      <trkpt lat="42.65834" lon="-2.14287">
        <ele>449.8</ele>
        <time>2021-07-25 10:56:58</time>
      </trkpt>
      <trkpt lat="42.65834" lon="-2.14306">
        <ele>450.4</ele>
        <time>2021-07-25 10:57:02</time>
      </trkpt>
      <trkpt lat="42.65835" lon="-2.14324">
        <ele>449</ele>
        <time>2021-07-25 10:57:06</time>
      </trkpt>
      <trkpt lat="42.65836" lon="-2.14341">
        <ele>450</ele>
        <time>2021-07-25 10:57:10</time>
      </trkpt>
      <trkpt lat="42.65835" lon="-2.14359">
        <ele>450.4</ele>
        <time>2021-07-25 10:57:14</time>
      </trkpt>
      <trkpt lat="42.65836" lon="-2.14377">
        <ele>450.4</ele>
        <time>2021-07-25 10:57:18</time>
      </trkpt>
      <trkpt lat="42.65835" lon="-2.14397">
        <ele>451</ele>
        <time>2021-07-25 10:57:22</time>
      </trkpt>
      <trkpt lat="42.65834" lon="-2.14417">
        <ele>451</ele>
        <time>2021-07-25 10:57:26</time>
      </trkpt>
      <trkpt lat="42.65834" lon="-2.14438">
        <ele>450.4</ele>
        <time>2021-07-25 10:57:30</time>
      </trkpt>
      <trkpt lat="42.65835" lon="-2.14456">
        <ele>451.2</ele>
        <time>2021-07-25 10:57:34</time>
      </trkpt>
      <trkpt lat="42.65835" lon="-2.14474">
        <ele>450.4</ele>
        <time>2021-07-25 10:57:38</time>
      </trkpt>
      <trkpt lat="42.65835" lon="-2.14494">
        <ele>449.8</ele>
        <time>2021-07-25 10:57:42</time>
      </trkpt>
      <trkpt lat="42.65835" lon="-2.14515">
        <ele>450</ele>
        <time>2021-07-25 10:57:46</time>
      </trkpt>
      <trkpt lat="42.65835" lon="-2.14538">
        <ele>450</ele>
        <time>2021-07-25 10:57:50</time>
      </trkpt>
      <trkpt lat="42.65836" lon="-2.1456">
        <ele>450</ele>
        <time>2021-07-25 10:57:54</time>
      </trkpt>
      <trkpt lat="42.65836" lon="-2.14582">
        <ele>450</ele>
        <time>2021-07-25 10:57:58</time>
      </trkpt>
      <trkpt lat="42.65837" lon="-2.14604">
        <ele>449.6</ele>
        <time>2021-07-25 10:58:02</time>
      </trkpt>
      <trkpt lat="42.65837" lon="-2.14626">
        <ele>450</ele>
        <time>2021-07-25 10:58:06</time>
      </trkpt>
      <trkpt lat="42.65837" lon="-2.14647">
        <ele>450.2</ele>
        <time>2021-07-25 10:58:10</time>
      </trkpt>
      <trkpt lat="42.65837" lon="-2.14667">
        <ele>450.4</ele>
        <time>2021-07-25 10:58:14</time>
      </trkpt>
      <trkpt lat="42.65835" lon="-2.14686">
        <ele>450.2</ele>
        <time>2021-07-25 10:58:18</time>
      </trkpt>
      <trkpt lat="42.65835" lon="-2.14704">
        <ele>449.4</ele>
        <time>2021-07-25 10:58:22</time>
      </trkpt>
      <trkpt lat="42.65838" lon="-2.14724">
        <ele>451</ele>
        <time>2021-07-25 10:58:26</time>
      </trkpt>
      <trkpt lat="42.65839" lon="-2.14744">
        <ele>450.6</ele>
        <time>2021-07-25 10:58:30</time>
      </trkpt>
      <trkpt lat="42.65839" lon="-2.14765">
        <ele>450.8</ele>
        <time>2021-07-25 10:58:34</time>
      </trkpt>
      <trkpt lat="42.65839" lon="-2.14785">
        <ele>451</ele>
        <time>2021-07-25 10:58:38</time>
      </trkpt>
      <trkpt lat="42.65838" lon="-2.14805">
        <ele>450.8</ele>
        <time>2021-07-25 10:58:42</time>
      </trkpt>
      <trkpt lat="42.65839" lon="-2.14827">
        <ele>451.2</ele>
        <time>2021-07-25 10:58:46</time>
      </trkpt>
      <trkpt lat="42.6584" lon="-2.14848">
        <ele>451.4</ele>
        <time>2021-07-25 10:58:50</time>
      </trkpt>
      <trkpt lat="42.6584" lon="-2.14869">
        <ele>451.4</ele>
        <time>2021-07-25 10:58:54</time>
      </trkpt>
      <trkpt lat="42.6584" lon="-2.1489">
        <ele>451.4</ele>
        <time>2021-07-25 10:58:58</time>
      </trkpt>
      <trkpt lat="42.6584" lon="-2.14912">
        <ele>451</ele>
        <time>2021-07-25 10:59:02</time>
      </trkpt>
      <trkpt lat="42.6584" lon="-2.14935">
        <ele>451</ele>
        <time>2021-07-25 10:59:06</time>
      </trkpt>
      <trkpt lat="42.65841" lon="-2.14957">
        <ele>451.2</ele>
        <time>2021-07-25 10:59:10</time>
      </trkpt>
      <trkpt lat="42.65841" lon="-2.14978">
        <ele>451.2</ele>
        <time>2021-07-25 10:59:14</time>
      </trkpt>
      <trkpt lat="42.65841" lon="-2.14997">
        <ele>451.8</ele>
        <time>2021-07-25 10:59:18</time>
      </trkpt>
      <trkpt lat="42.65841" lon="-2.15016">
        <ele>452.2</ele>
        <time>2021-07-25 10:59:22</time>
      </trkpt>
      <trkpt lat="42.65841" lon="-2.15034">
        <ele>452.4</ele>
        <time>2021-07-25 10:59:26</time>
      </trkpt>
      <trkpt lat="42.65841" lon="-2.15053">
        <ele>452</ele>
        <time>2021-07-25 10:59:30</time>
      </trkpt>
      <trkpt lat="42.65841" lon="-2.15071">
        <ele>451.6</ele>
        <time>2021-07-25 10:59:34</time>
      </trkpt>
      <trkpt lat="42.65842" lon="-2.1509">
        <ele>452</ele>
        <time>2021-07-25 10:59:38</time>
      </trkpt>
      <trkpt lat="42.65842" lon="-2.15107">
        <ele>453.4</ele>
        <time>2021-07-25 10:59:42</time>
      </trkpt>
      <trkpt lat="42.65841" lon="-2.15125">
        <ele>453.2</ele>
        <time>2021-07-25 10:59:46</time>
      </trkpt>
      <trkpt lat="42.65842" lon="-2.15144">
        <ele>452.8</ele>
        <time>2021-07-25 10:59:50</time>
      </trkpt>
      <trkpt lat="42.65843" lon="-2.15162">
        <ele>453</ele>
        <time>2021-07-25 10:59:54</time>
      </trkpt>
      <trkpt lat="42.65842" lon="-2.15181">
        <ele>454.2</ele>
        <time>2021-07-25 10:59:58</time>
      </trkpt>
      <trkpt lat="42.65842" lon="-2.15199">
        <ele>454.8</ele>
        <time>2021-07-25 11:00:02</time>
      </trkpt>
      <trkpt lat="42.65843" lon="-2.15217">
        <ele>454.8</ele>
        <time>2021-07-25 11:00:06</time>
      </trkpt>
      <trkpt lat="42.65843" lon="-2.15237">
        <ele>455.2</ele>
        <time>2021-07-25 11:00:10</time>
      </trkpt>
      <trkpt lat="42.65844" lon="-2.15257">
        <ele>455.4</ele>
        <time>2021-07-25 11:00:14</time>
      </trkpt>
      <trkpt lat="42.65845" lon="-2.15276">
        <ele>455</ele>
        <time>2021-07-25 11:00:18</time>
      </trkpt>
      <trkpt lat="42.65847" lon="-2.15295">
        <ele>456</ele>
        <time>2021-07-25 11:00:22</time>
      </trkpt>
      <trkpt lat="42.65844" lon="-2.15312">
        <ele>456</ele>
        <time>2021-07-25 11:00:26</time>
      </trkpt>
      <trkpt lat="42.65844" lon="-2.15331">
        <ele>455.4</ele>
        <time>2021-07-25 11:00:30</time>
      </trkpt>
      <trkpt lat="42.65845" lon="-2.15349">
        <ele>455.4</ele>
        <time>2021-07-25 11:00:34</time>
      </trkpt>
      <trkpt lat="42.65845" lon="-2.15369">
        <ele>456.4</ele>
        <time>2021-07-25 11:00:38</time>
      </trkpt>
      <trkpt lat="42.65845" lon="-2.15388">
        <ele>457</ele>
        <time>2021-07-25 11:00:42</time>
      </trkpt>
      <trkpt lat="42.65845" lon="-2.15408">
        <ele>456.8</ele>
        <time>2021-07-25 11:00:46</time>
      </trkpt>
      <trkpt lat="42.65846" lon="-2.15428">
        <ele>456.8</ele>
        <time>2021-07-25 11:00:50</time>
      </trkpt>
      <trkpt lat="42.65846" lon="-2.15447">
        <ele>456.4</ele>
        <time>2021-07-25 11:00:54</time>
      </trkpt>
      <trkpt lat="42.65846" lon="-2.15465">
        <ele>456.6</ele>
        <time>2021-07-25 11:00:58</time>
      </trkpt>
      <trkpt lat="42.65846" lon="-2.15483">
        <ele>458.2</ele>
        <time>2021-07-25 11:01:02</time>
      </trkpt>
      <trkpt lat="42.65847" lon="-2.15501">
        <ele>458.2</ele>
        <time>2021-07-25 11:01:06</time>
      </trkpt>
      <trkpt lat="42.65847" lon="-2.1552">
        <ele>458.2</ele>
        <time>2021-07-25 11:01:10</time>
      </trkpt>
      <trkpt lat="42.65847" lon="-2.15539">
        <ele>458.4</ele>
        <time>2021-07-25 11:01:14</time>
      </trkpt>
      <trkpt lat="42.65847" lon="-2.15559">
        <ele>458.6</ele>
        <time>2021-07-25 11:01:18</time>
      </trkpt>
      <trkpt lat="42.65847" lon="-2.15578">
        <ele>458.4</ele>
        <time>2021-07-25 11:01:22</time>
      </trkpt>
      <trkpt lat="42.65847" lon="-2.15597">
        <ele>458.6</ele>
        <time>2021-07-25 11:01:26</time>
      </trkpt>
      <trkpt lat="42.65847" lon="-2.15616">
        <ele>459.2</ele>
        <time>2021-07-25 11:01:30</time>
      </trkpt>
      <trkpt lat="42.65847" lon="-2.15635">
        <ele>458.8</ele>
        <time>2021-07-25 11:01:34</time>
      </trkpt>
      <trkpt lat="42.65848" lon="-2.15654">
        <ele>458.6</ele>
        <time>2021-07-25 11:01:38</time>
      </trkpt>
      <trkpt lat="42.65849" lon="-2.15673">
        <ele>458.8</ele>
        <time>2021-07-25 11:01:42</time>
      </trkpt>
      <trkpt lat="42.6585" lon="-2.1569">
        <ele>459.4</ele>
        <time>2021-07-25 11:01:46</time>
      </trkpt>
      <trkpt lat="42.65852" lon="-2.15706">
        <ele>459.6</ele>
        <time>2021-07-25 11:01:50</time>
      </trkpt>
      <trkpt lat="42.65853" lon="-2.15725">
        <ele>459</ele>
        <time>2021-07-25 11:01:54</time>
      </trkpt>
      <trkpt lat="42.65854" lon="-2.15744">
        <ele>459</ele>
        <time>2021-07-25 11:01:58</time>
      </trkpt>
      <trkpt lat="42.65856" lon="-2.1576">
        <ele>460</ele>
        <time>2021-07-25 11:02:02</time>
      </trkpt>
      <trkpt lat="42.65857" lon="-2.15778">
        <ele>460.6</ele>
        <time>2021-07-25 11:02:06</time>
      </trkpt>
      <trkpt lat="42.65858" lon="-2.15795">
        <ele>460.8</ele>
        <time>2021-07-25 11:02:10</time>
      </trkpt>
      <trkpt lat="42.6586" lon="-2.1581">
        <ele>461</ele>
        <time>2021-07-25 11:02:14</time>
      </trkpt>
      <trkpt lat="42.65866" lon="-2.15817">
        <ele>461.6</ele>
        <time>2021-07-25 11:02:18</time>
      </trkpt>
      <trkpt lat="42.6587" lon="-2.15821">
        <ele>461.8</ele>
        <time>2021-07-25 11:02:22</time>
      </trkpt>
      <trkpt lat="42.65871" lon="-2.1583">
        <ele>461</ele>
        <time>2021-07-25 11:02:26</time>
      </trkpt>
      <trkpt lat="42.6587" lon="-2.15841">
        <ele>460.4</ele>
        <time>2021-07-25 11:02:30</time>
      </trkpt>
      <trkpt lat="42.65868" lon="-2.15854">
        <ele>460.4</ele>
        <time>2021-07-25 11:02:34</time>
      </trkpt>
      <trkpt lat="42.65867" lon="-2.15868">
        <ele>460.8</ele>
        <time>2021-07-25 11:02:38</time>
      </trkpt>
      <trkpt lat="42.65867" lon="-2.15882">
        <ele>460.8</ele>
        <time>2021-07-25 11:02:42</time>
      </trkpt>
      <trkpt lat="42.65865" lon="-2.15895">
        <ele>460.8</ele>
        <time>2021-07-25 11:02:46</time>
      </trkpt>
      <trkpt lat="42.65865" lon="-2.15913">
        <ele>460.4</ele>
        <time>2021-07-25 11:02:50</time>
      </trkpt>
      <trkpt lat="42.65863" lon="-2.15934">
        <ele>460.2</ele>
        <time>2021-07-25 11:02:54</time>
      </trkpt>
      <trkpt lat="42.65861" lon="-2.15955">
        <ele>460.4</ele>
        <time>2021-07-25 11:02:58</time>
      </trkpt>
      <trkpt lat="42.65852" lon="-2.15972">
        <ele>460.2</ele>
        <time>2021-07-25 11:03:02</time>
      </trkpt>
      <trkpt lat="42.65851" lon="-2.15994">
        <ele>459.2</ele>
        <time>2021-07-25 11:03:06</time>
      </trkpt>
      <trkpt lat="42.65852" lon="-2.16017">
        <ele>459.8</ele>
        <time>2021-07-25 11:03:10</time>
      </trkpt>
      <trkpt lat="42.65852" lon="-2.16042">
        <ele>460</ele>
        <time>2021-07-25 11:03:14</time>
      </trkpt>
      <trkpt lat="42.65853" lon="-2.16066">
        <ele>459.6</ele>
        <time>2021-07-25 11:03:18</time>
      </trkpt>
      <trkpt lat="42.65853" lon="-2.16089">
        <ele>459.6</ele>
        <time>2021-07-25 11:03:22</time>
      </trkpt>
      <trkpt lat="42.65853" lon="-2.16112">
        <ele>460</ele>
        <time>2021-07-25 11:03:26</time>
      </trkpt>
      <trkpt lat="42.65853" lon="-2.16135">
        <ele>460</ele>
        <time>2021-07-25 11:03:30</time>
      </trkpt>
      <trkpt lat="42.65853" lon="-2.16159">
        <ele>459.8</ele>
        <time>2021-07-25 11:03:34</time>
      </trkpt>
      <trkpt lat="42.65854" lon="-2.16183">
        <ele>459.8</ele>
        <time>2021-07-25 11:03:38</time>
      </trkpt>
      <trkpt lat="42.65854" lon="-2.16207">
        <ele>459.8</ele>
        <time>2021-07-25 11:03:42</time>
      </trkpt>
      <trkpt lat="42.65854" lon="-2.16232">
        <ele>460</ele>
        <time>2021-07-25 11:03:46</time>
      </trkpt>
      <trkpt lat="42.65853" lon="-2.16258">
        <ele>459.8</ele>
        <time>2021-07-25 11:03:50</time>
      </trkpt>
      <trkpt lat="42.65854" lon="-2.16283">
        <ele>460</ele>
        <time>2021-07-25 11:03:54</time>
      </trkpt>
      <trkpt lat="42.65855" lon="-2.16308">
        <ele>459</ele>
        <time>2021-07-25 11:03:58</time>
      </trkpt>
      <trkpt lat="42.65859" lon="-2.16332">
        <ele>459.8</ele>
        <time>2021-07-25 11:04:02</time>
      </trkpt>
      <trkpt lat="42.65864" lon="-2.16356">
        <ele>459.6</ele>
        <time>2021-07-25 11:04:06</time>
      </trkpt>
      <trkpt lat="42.65871" lon="-2.1638">
        <ele>459.2</ele>
        <time>2021-07-25 11:04:10</time>
      </trkpt>
      <trkpt lat="42.65879" lon="-2.16403">
        <ele>458</ele>
        <time>2021-07-25 11:04:14</time>
      </trkpt>
      <trkpt lat="42.65889" lon="-2.16426">
        <ele>458.8</ele>
        <time>2021-07-25 11:04:18</time>
      </trkpt>
      <trkpt lat="42.65899" lon="-2.16449">
        <ele>459</ele>
        <time>2021-07-25 11:04:22</time>
      </trkpt>
      <trkpt lat="42.65909" lon="-2.16471">
        <ele>459.4</ele>
        <time>2021-07-25 11:04:26</time>
      </trkpt>
      <trkpt lat="42.65918" lon="-2.16492">
        <ele>459</ele>
        <time>2021-07-25 11:04:30</time>
      </trkpt>
      <trkpt lat="42.65928" lon="-2.16512">
        <ele>458.4</ele>
        <time>2021-07-25 11:04:34</time>
      </trkpt>
      <trkpt lat="42.65937" lon="-2.16534">
        <ele>459.6</ele>
        <time>2021-07-25 11:04:38</time>
      </trkpt>
      <trkpt lat="42.65944" lon="-2.16555">
        <ele>459.4</ele>
        <time>2021-07-25 11:04:42</time>
      </trkpt>
      <trkpt lat="42.65951" lon="-2.16577">
        <ele>460.2</ele>
        <time>2021-07-25 11:04:46</time>
      </trkpt>
      <trkpt lat="42.65958" lon="-2.16598">
        <ele>458.6</ele>
        <time>2021-07-25 11:04:50</time>
      </trkpt>
      <trkpt lat="42.65963" lon="-2.16622">
        <ele>458.4</ele>
        <time>2021-07-25 11:04:54</time>
      </trkpt>
      <trkpt lat="42.65967" lon="-2.16647">
        <ele>458.8</ele>
        <time>2021-07-25 11:04:58</time>
      </trkpt>
      <trkpt lat="42.65971" lon="-2.16671">
        <ele>459.2</ele>
        <time>2021-07-25 11:05:02</time>
      </trkpt>
      <trkpt lat="42.65976" lon="-2.16695">
        <ele>459.4</ele>
        <time>2021-07-25 11:05:06</time>
      </trkpt>
      <trkpt lat="42.65979" lon="-2.16719">
        <ele>459.4</ele>
        <time>2021-07-25 11:05:10</time>
      </trkpt>
      <trkpt lat="42.65983" lon="-2.16743">
        <ele>459.6</ele>
        <time>2021-07-25 11:05:14</time>
      </trkpt>
      <trkpt lat="42.65987" lon="-2.16767">
        <ele>459</ele>
        <time>2021-07-25 11:05:18</time>
      </trkpt>
      <trkpt lat="42.65992" lon="-2.16792">
        <ele>459.2</ele>
        <time>2021-07-25 11:05:22</time>
      </trkpt>
      <trkpt lat="42.65995" lon="-2.16816">
        <ele>459.8</ele>
        <time>2021-07-25 11:05:26</time>
      </trkpt>
      <trkpt lat="42.65999" lon="-2.1684">
        <ele>459</ele>
        <time>2021-07-25 11:05:30</time>
      </trkpt>
      <trkpt lat="42.66004" lon="-2.16864">
        <ele>460</ele>
        <time>2021-07-25 11:05:34</time>
      </trkpt>
      <trkpt lat="42.66008" lon="-2.16887">
        <ele>459.2</ele>
        <time>2021-07-25 11:05:38</time>
      </trkpt>
      <trkpt lat="42.66012" lon="-2.1691">
        <ele>459.4</ele>
        <time>2021-07-25 11:05:42</time>
      </trkpt>
      <trkpt lat="42.66016" lon="-2.16934">
        <ele>459.8</ele>
        <time>2021-07-25 11:05:46</time>
      </trkpt>
      <trkpt lat="42.66019" lon="-2.16958">
        <ele>460</ele>
        <time>2021-07-25 11:05:50</time>
      </trkpt>
      <trkpt lat="42.66023" lon="-2.16983">
        <ele>460.4</ele>
        <time>2021-07-25 11:05:54</time>
      </trkpt>
      <trkpt lat="42.66027" lon="-2.17008">
        <ele>460.4</ele>
        <time>2021-07-25 11:05:58</time>
      </trkpt>
      <trkpt lat="42.66031" lon="-2.17033">
        <ele>459.6</ele>
        <time>2021-07-25 11:06:02</time>
      </trkpt>
      <trkpt lat="42.66035" lon="-2.17058">
        <ele>459.4</ele>
        <time>2021-07-25 11:06:06</time>
      </trkpt>
      <trkpt lat="42.66039" lon="-2.17083">
        <ele>460.2</ele>
        <time>2021-07-25 11:06:10</time>
      </trkpt>
      <trkpt lat="42.66043" lon="-2.17107">
        <ele>460</ele>
        <time>2021-07-25 11:06:14</time>
      </trkpt>
      <trkpt lat="42.66047" lon="-2.17132">
        <ele>460.4</ele>
        <time>2021-07-25 11:06:18</time>
      </trkpt>
      <trkpt lat="42.6605" lon="-2.17156">
        <ele>459.6</ele>
        <time>2021-07-25 11:06:22</time>
      </trkpt>
      <trkpt lat="42.66054" lon="-2.17181">
        <ele>460.4</ele>
        <time>2021-07-25 11:06:26</time>
      </trkpt>
      <trkpt lat="42.66059" lon="-2.17206">
        <ele>461</ele>
        <time>2021-07-25 11:06:30</time>
      </trkpt>
      <trkpt lat="42.66063" lon="-2.17229">
        <ele>460.2</ele>
        <time>2021-07-25 11:06:34</time>
      </trkpt>
      <trkpt lat="42.66067" lon="-2.17254">
        <ele>460</ele>
        <time>2021-07-25 11:06:38</time>
      </trkpt>
      <trkpt lat="42.66071" lon="-2.17278">
        <ele>460</ele>
        <time>2021-07-25 11:06:42</time>
      </trkpt>
      <trkpt lat="42.66075" lon="-2.17302">
        <ele>459.8</ele>
        <time>2021-07-25 11:06:46</time>
      </trkpt>
      <trkpt lat="42.66079" lon="-2.17325">
        <ele>460.8</ele>
        <time>2021-07-25 11:06:50</time>
      </trkpt>
      <trkpt lat="42.66083" lon="-2.17347">
        <ele>460.4</ele>
        <time>2021-07-25 11:06:54</time>
      </trkpt>
      <trkpt lat="42.66087" lon="-2.17369">
        <ele>460.4</ele>
        <time>2021-07-25 11:06:58</time>
      </trkpt>
      <trkpt lat="42.6609" lon="-2.17391">
        <ele>459.8</ele>
        <time>2021-07-25 11:07:02</time>
      </trkpt>
      <trkpt lat="42.66095" lon="-2.17411">
        <ele>460.4</ele>
        <time>2021-07-25 11:07:06</time>
      </trkpt>
      <trkpt lat="42.66099" lon="-2.17433">
        <ele>460.4</ele>
        <time>2021-07-25 11:07:10</time>
      </trkpt>
      <trkpt lat="42.66104" lon="-2.17453">
        <ele>460</ele>
        <time>2021-07-25 11:07:14</time>
      </trkpt>
      <trkpt lat="42.66107" lon="-2.17478">
        <ele>460.4</ele>
        <time>2021-07-25 11:07:18</time>
      </trkpt>
      <trkpt lat="42.66109" lon="-2.17507">
        <ele>460.4</ele>
        <time>2021-07-25 11:07:22</time>
      </trkpt>
      <trkpt lat="42.6611" lon="-2.17535">
        <ele>459.8</ele>
        <time>2021-07-25 11:07:26</time>
      </trkpt>
      <trkpt lat="42.66111" lon="-2.17563">
        <ele>459.6</ele>
        <time>2021-07-25 11:07:30</time>
      </trkpt>
      <trkpt lat="42.66111" lon="-2.17588">
        <ele>459.6</ele>
        <time>2021-07-25 11:07:34</time>
      </trkpt>
      <trkpt lat="42.6611" lon="-2.17614">
        <ele>460</ele>
        <time>2021-07-25 11:07:38</time>
      </trkpt>
      <trkpt lat="42.66107" lon="-2.17639">
        <ele>459.8</ele>
        <time>2021-07-25 11:07:42</time>
      </trkpt>
      <trkpt lat="42.66105" lon="-2.17664">
        <ele>461</ele>
        <time>2021-07-25 11:07:46</time>
      </trkpt>
      <trkpt lat="42.66102" lon="-2.17688">
        <ele>460.2</ele>
        <time>2021-07-25 11:07:50</time>
      </trkpt>
      <trkpt lat="42.661" lon="-2.17713">
        <ele>461</ele>
        <time>2021-07-25 11:07:54</time>
      </trkpt>
      <trkpt lat="42.66098" lon="-2.17737">
        <ele>460.4</ele>
        <time>2021-07-25 11:07:58</time>
      </trkpt>
      <trkpt lat="42.66095" lon="-2.17762">
        <ele>460</ele>
        <time>2021-07-25 11:08:02</time>
      </trkpt>
      <trkpt lat="42.66093" lon="-2.17787">
        <ele>460</ele>
        <time>2021-07-25 11:08:06</time>
      </trkpt>
      <trkpt lat="42.6609" lon="-2.17811">
        <ele>459.6</ele>
        <time>2021-07-25 11:08:10</time>
      </trkpt>
      <trkpt lat="42.66088" lon="-2.17836">
        <ele>459.4</ele>
        <time>2021-07-25 11:08:14</time>
      </trkpt>
      <trkpt lat="42.66086" lon="-2.17861">
        <ele>459.6</ele>
        <time>2021-07-25 11:08:18</time>
      </trkpt>
      <trkpt lat="42.66083" lon="-2.17885">
        <ele>459</ele>
        <time>2021-07-25 11:08:22</time>
      </trkpt>
      <trkpt lat="42.6608" lon="-2.17909">
        <ele>459.8</ele>
        <time>2021-07-25 11:08:26</time>
      </trkpt>
      <trkpt lat="42.66078" lon="-2.17934">
        <ele>459.8</ele>
        <time>2021-07-25 11:08:30</time>
      </trkpt>
      <trkpt lat="42.66075" lon="-2.17959">
        <ele>460.4</ele>
        <time>2021-07-25 11:08:34</time>
      </trkpt>
      <trkpt lat="42.66072" lon="-2.17985">
        <ele>459.8</ele>
        <time>2021-07-25 11:08:38</time>
      </trkpt>
      <trkpt lat="42.66069" lon="-2.18011">
        <ele>460.4</ele>
        <time>2021-07-25 11:08:42</time>
      </trkpt>
      <trkpt lat="42.66067" lon="-2.18037">
        <ele>460.8</ele>
        <time>2021-07-25 11:08:46</time>
      </trkpt>
      <trkpt lat="42.66064" lon="-2.18062">
        <ele>459.4</ele>
        <time>2021-07-25 11:08:50</time>
      </trkpt>
      <trkpt lat="42.66062" lon="-2.18087">
        <ele>460.2</ele>
        <time>2021-07-25 11:08:54</time>
      </trkpt>
      <trkpt lat="42.6606" lon="-2.18113">
        <ele>459.8</ele>
        <time>2021-07-25 11:08:58</time>
      </trkpt>
      <trkpt lat="42.66057" lon="-2.18137">
        <ele>460.6</ele>
        <time>2021-07-25 11:09:02</time>
      </trkpt>
      <trkpt lat="42.66054" lon="-2.1816">
        <ele>460.4</ele>
        <time>2021-07-25 11:09:06</time>
      </trkpt>
      <trkpt lat="42.66052" lon="-2.18184">
        <ele>459.8</ele>
        <time>2021-07-25 11:09:10</time>
      </trkpt>
      <trkpt lat="42.6605" lon="-2.18207">
        <ele>460.8</ele>
        <time>2021-07-25 11:09:14</time>
      </trkpt>
      <trkpt lat="42.66049" lon="-2.18231">
        <ele>460.8</ele>
        <time>2021-07-25 11:09:18</time>
      </trkpt>
      <trkpt lat="42.66045" lon="-2.18255">
        <ele>459.8</ele>
        <time>2021-07-25 11:09:22</time>
      </trkpt>
      <trkpt lat="42.66043" lon="-2.18279">
        <ele>460.2</ele>
        <time>2021-07-25 11:09:26</time>
      </trkpt>
      <trkpt lat="42.6604" lon="-2.18304">
        <ele>460</ele>
        <time>2021-07-25 11:09:30</time>
      </trkpt>
      <trkpt lat="42.66038" lon="-2.18328">
        <ele>460.6</ele>
        <time>2021-07-25 11:09:34</time>
      </trkpt>
      <trkpt lat="42.66035" lon="-2.18352">
        <ele>460.6</ele>
        <time>2021-07-25 11:09:38</time>
      </trkpt>
      <trkpt lat="42.66032" lon="-2.18376">
        <ele>460.6</ele>
        <time>2021-07-25 11:09:42</time>
      </trkpt>
      <trkpt lat="42.66031" lon="-2.18401">
        <ele>460</ele>
        <time>2021-07-25 11:09:46</time>
      </trkpt>
      <trkpt lat="42.66028" lon="-2.18424">
        <ele>460.4</ele>
        <time>2021-07-25 11:09:50</time>
      </trkpt>
      <trkpt lat="42.66026" lon="-2.18447">
        <ele>460.6</ele>
        <time>2021-07-25 11:09:54</time>
      </trkpt>
      <trkpt lat="42.66024" lon="-2.18471">
        <ele>459.6</ele>
        <time>2021-07-25 11:09:58</time>
      </trkpt>
      <trkpt lat="42.6602" lon="-2.18495">
        <ele>460.8</ele>
        <time>2021-07-25 11:10:02</time>
      </trkpt>
      <trkpt lat="42.66018" lon="-2.18517">
        <ele>460.4</ele>
        <time>2021-07-25 11:10:06</time>
      </trkpt>
      <trkpt lat="42.66016" lon="-2.18539">
        <ele>460.6</ele>
        <time>2021-07-25 11:10:10</time>
      </trkpt>
      <trkpt lat="42.66013" lon="-2.18561">
        <ele>461.2</ele>
        <time>2021-07-25 11:10:14</time>
      </trkpt>
      <trkpt lat="42.6601" lon="-2.18579">
        <ele>461.8</ele>
        <time>2021-07-25 11:10:18</time>
      </trkpt>
      <trkpt lat="42.66008" lon="-2.18595">
        <ele>461.8</ele>
        <time>2021-07-25 11:10:22</time>
      </trkpt>
      <trkpt lat="42.66007" lon="-2.1861">
        <ele>461.8</ele>
        <time>2021-07-25 11:10:26</time>
      </trkpt>
      <trkpt lat="42.66008" lon="-2.1862">
        <ele>462</ele>
        <time>2021-07-25 11:10:30</time>
      </trkpt>
      <trkpt lat="42.66008" lon="-2.18628">
        <ele>462.2</ele>
        <time>2021-07-25 11:10:34</time>
      </trkpt>
      <trkpt lat="42.66005" lon="-2.18643">
        <ele>461.6</ele>
        <time>2021-07-25 11:10:38</time>
      </trkpt>
      <trkpt lat="42.66004" lon="-2.18662">
        <ele>460.4</ele>
        <time>2021-07-25 11:10:42</time>
      </trkpt>
      <trkpt lat="42.66004" lon="-2.18682">
        <ele>460.2</ele>
        <time>2021-07-25 11:10:46</time>
      </trkpt>
      <trkpt lat="42.66004" lon="-2.18705">
        <ele>459.8</ele>
        <time>2021-07-25 11:10:50</time>
      </trkpt>
      <trkpt lat="42.66006" lon="-2.18728">
        <ele>460.4</ele>
        <time>2021-07-25 11:10:54</time>
      </trkpt>
      <trkpt lat="42.6601" lon="-2.1875">
        <ele>460.4</ele>
        <time>2021-07-25 11:10:58</time>
      </trkpt>
      <trkpt lat="42.66015" lon="-2.1877">
        <ele>460.8</ele>
        <time>2021-07-25 11:11:02</time>
      </trkpt>
      <trkpt lat="42.66021" lon="-2.1879">
        <ele>461</ele>
        <time>2021-07-25 11:11:06</time>
      </trkpt>
      <trkpt lat="42.66028" lon="-2.18807">
        <ele>461.6</ele>
        <time>2021-07-25 11:11:10</time>
      </trkpt>
      <trkpt lat="42.66033" lon="-2.1882">
        <ele>461.6</ele>
        <time>2021-07-25 11:11:14</time>
      </trkpt>
      <trkpt lat="42.66036" lon="-2.18827">
        <ele>461.6</ele>
        <time>2021-07-25 11:11:18</time>
      </trkpt>
      <trkpt lat="42.6604" lon="-2.18828">
        <ele>461.6</ele>
        <time>2021-07-25 11:11:22</time>
      </trkpt>
      <trkpt lat="42.66045" lon="-2.18832">
        <ele>461.6</ele>
        <time>2021-07-25 11:11:26</time>
      </trkpt>
      <trkpt lat="42.6605" lon="-2.18837">
        <ele>460.8</ele>
        <time>2021-07-25 11:11:30</time>
      </trkpt>
      <trkpt lat="42.66056" lon="-2.18849">
        <ele>461</ele>
        <time>2021-07-25 11:11:34</time>
      </trkpt>
      <trkpt lat="42.66062" lon="-2.18859">
        <ele>461.8</ele>
        <time>2021-07-25 11:11:38</time>
      </trkpt>
      <trkpt lat="42.66065" lon="-2.18871">
        <ele>461.2</ele>
        <time>2021-07-25 11:11:42</time>
      </trkpt>
      <trkpt lat="42.66057" lon="-2.18881">
        <ele>461.4</ele>
        <time>2021-07-25 11:11:46</time>
      </trkpt>
      <trkpt lat="42.66051" lon="-2.18889">
        <ele>461</ele>
        <time>2021-07-25 11:11:50</time>
      </trkpt>
      <trkpt lat="42.66052" lon="-2.18898">
        <ele>460.6</ele>
        <time>2021-07-25 11:11:54</time>
      </trkpt>
      <trkpt lat="42.66058" lon="-2.18909">
        <ele>460.6</ele>
        <time>2021-07-25 11:11:58</time>
      </trkpt>
      <trkpt lat="42.66065" lon="-2.18923">
        <ele>459.8</ele>
        <time>2021-07-25 11:12:02</time>
      </trkpt>
      <trkpt lat="42.66075" lon="-2.18937">
        <ele>460</ele>
        <time>2021-07-25 11:12:06</time>
      </trkpt>
      <trkpt lat="42.66085" lon="-2.18952">
        <ele>460.4</ele>
        <time>2021-07-25 11:12:10</time>
      </trkpt>
      <trkpt lat="42.66092" lon="-2.18969">
        <ele>461</ele>
        <time>2021-07-25 11:12:14</time>
      </trkpt>
      <trkpt lat="42.66097" lon="-2.18986">
        <ele>460.8</ele>
        <time>2021-07-25 11:12:18</time>
      </trkpt>
      <trkpt lat="42.66102" lon="-2.18998">
        <ele>461.6</ele>
        <time>2021-07-25 11:12:22</time>
      </trkpt>
      <trkpt lat="42.66109" lon="-2.19">
        <ele>461.8</ele>
        <time>2021-07-25 11:12:26</time>
      </trkpt>
      <trkpt lat="42.66114" lon="-2.18998">
        <ele>461.6</ele>
        <time>2021-07-25 11:12:30</time>
      </trkpt>
      <trkpt lat="42.66122" lon="-2.18994">
        <ele>460.4</ele>
        <time>2021-07-25 11:12:34</time>
      </trkpt>
      <trkpt lat="42.66132" lon="-2.18993">
        <ele>461.2</ele>
        <time>2021-07-25 11:12:38</time>
      </trkpt>
      <trkpt lat="42.66142" lon="-2.18995">
        <ele>462.4</ele>
        <time>2021-07-25 11:12:42</time>
      </trkpt>
      <trkpt lat="42.66151" lon="-2.18999">
        <ele>462.4</ele>
        <time>2021-07-25 11:12:46</time>
      </trkpt>
      <trkpt lat="42.66157" lon="-2.19008">
        <ele>461.4</ele>
        <time>2021-07-25 11:12:50</time>
      </trkpt>
      <trkpt lat="42.66165" lon="-2.1902">
        <ele>461.4</ele>
        <time>2021-07-25 11:12:54</time>
      </trkpt>
      <trkpt lat="42.66174" lon="-2.19033">
        <ele>461.4</ele>
        <time>2021-07-25 11:12:58</time>
      </trkpt>
      <trkpt lat="42.66183" lon="-2.19049">
        <ele>461</ele>
        <time>2021-07-25 11:13:02</time>
      </trkpt>
      <trkpt lat="42.66191" lon="-2.19067">
        <ele>461.2</ele>
        <time>2021-07-25 11:13:06</time>
      </trkpt>
      <trkpt lat="42.662" lon="-2.19084">
        <ele>460.4</ele>
        <time>2021-07-25 11:13:10</time>
      </trkpt>
      <trkpt lat="42.66209" lon="-2.19099">
        <ele>459.6</ele>
        <time>2021-07-25 11:13:14</time>
      </trkpt>
      <trkpt lat="42.66218" lon="-2.19113">
        <ele>459.6</ele>
        <time>2021-07-25 11:13:18</time>
      </trkpt>
      <trkpt lat="42.66225" lon="-2.1913">
        <ele>459</ele>
        <time>2021-07-25 11:13:22</time>
      </trkpt>
      <trkpt lat="42.66235" lon="-2.19148">
        <ele>459.8</ele>
        <time>2021-07-25 11:13:26</time>
      </trkpt>
      <trkpt lat="42.66245" lon="-2.19167">
        <ele>460</ele>
        <time>2021-07-25 11:13:30</time>
      </trkpt>
      <trkpt lat="42.66254" lon="-2.19185">
        <ele>460</ele>
        <time>2021-07-25 11:13:34</time>
      </trkpt>
      <trkpt lat="42.66261" lon="-2.19204">
        <ele>460.8</ele>
        <time>2021-07-25 11:13:38</time>
      </trkpt>
      <trkpt lat="42.66265" lon="-2.19225">
        <ele>460.6</ele>
        <time>2021-07-25 11:13:42</time>
      </trkpt>
      <trkpt lat="42.66268" lon="-2.19248">
        <ele>460.6</ele>
        <time>2021-07-25 11:13:46</time>
      </trkpt>
      <trkpt lat="42.66273" lon="-2.19267">
        <ele>460.8</ele>
        <time>2021-07-25 11:13:50</time>
      </trkpt>
      <trkpt lat="42.66279" lon="-2.19284">
        <ele>461</ele>
        <time>2021-07-25 11:13:54</time>
      </trkpt>
      <trkpt lat="42.66284" lon="-2.19304">
        <ele>460.6</ele>
        <time>2021-07-25 11:13:58</time>
      </trkpt>
      <trkpt lat="42.66288" lon="-2.19324">
        <ele>460.4</ele>
        <time>2021-07-25 11:14:02</time>
      </trkpt>
      <trkpt lat="42.66293" lon="-2.19345">
        <ele>460</ele>
        <time>2021-07-25 11:14:06</time>
      </trkpt>
      <trkpt lat="42.66296" lon="-2.19367">
        <ele>460.4</ele>
        <time>2021-07-25 11:14:10</time>
      </trkpt>
      <trkpt lat="42.663" lon="-2.1939">
        <ele>459.8</ele>
        <time>2021-07-25 11:14:14</time>
      </trkpt>
      <trkpt lat="42.66303" lon="-2.19413">
        <ele>460.2</ele>
        <time>2021-07-25 11:14:18</time>
      </trkpt>
      <trkpt lat="42.66306" lon="-2.19436">
        <ele>460.6</ele>
        <time>2021-07-25 11:14:22</time>
      </trkpt>
      <trkpt lat="42.66309" lon="-2.19461">
        <ele>460.6</ele>
        <time>2021-07-25 11:14:26</time>
      </trkpt>
      <trkpt lat="42.66311" lon="-2.19485">
        <ele>460.4</ele>
        <time>2021-07-25 11:14:30</time>
      </trkpt>
      <trkpt lat="42.66314" lon="-2.19508">
        <ele>460.4</ele>
        <time>2021-07-25 11:14:34</time>
      </trkpt>
      <trkpt lat="42.66317" lon="-2.19532">
        <ele>460.2</ele>
        <time>2021-07-25 11:14:38</time>
      </trkpt>
      <trkpt lat="42.66319" lon="-2.19558">
        <ele>460.4</ele>
        <time>2021-07-25 11:14:42</time>
      </trkpt>
      <trkpt lat="42.66322" lon="-2.19582">
        <ele>460.4</ele>
        <time>2021-07-25 11:14:46</time>
      </trkpt>
      <trkpt lat="42.66324" lon="-2.19605">
        <ele>460.2</ele>
        <time>2021-07-25 11:14:50</time>
      </trkpt>
      <trkpt lat="42.66326" lon="-2.19631">
        <ele>460.4</ele>
        <time>2021-07-25 11:14:54</time>
      </trkpt>
      <trkpt lat="42.66329" lon="-2.19656">
        <ele>460.4</ele>
        <time>2021-07-25 11:14:58</time>
      </trkpt>
      <trkpt lat="42.66332" lon="-2.19681">
        <ele>459.8</ele>
        <time>2021-07-25 11:15:02</time>
      </trkpt>
      <trkpt lat="42.66336" lon="-2.19707">
        <ele>460.2</ele>
        <time>2021-07-25 11:15:06</time>
      </trkpt>
      <trkpt lat="42.66338" lon="-2.19731">
        <ele>460.2</ele>
        <time>2021-07-25 11:15:10</time>
      </trkpt>
      <trkpt lat="42.66341" lon="-2.19755">
        <ele>460.4</ele>
        <time>2021-07-25 11:15:14</time>
      </trkpt>
      <trkpt lat="42.66343" lon="-2.19778">
        <ele>460.6</ele>
        <time>2021-07-25 11:15:18</time>
      </trkpt>
      <trkpt lat="42.66346" lon="-2.19802">
        <ele>460.8</ele>
        <time>2021-07-25 11:15:22</time>
      </trkpt>
      <trkpt lat="42.66348" lon="-2.19826">
        <ele>460.4</ele>
        <time>2021-07-25 11:15:26</time>
      </trkpt>
      <trkpt lat="42.66351" lon="-2.1985">
        <ele>460</ele>
        <time>2021-07-25 11:15:30</time>
      </trkpt>
      <trkpt lat="42.66354" lon="-2.19873">
        <ele>460</ele>
        <time>2021-07-25 11:15:34</time>
      </trkpt>
      <trkpt lat="42.66356" lon="-2.19898">
        <ele>460.2</ele>
        <time>2021-07-25 11:15:38</time>
      </trkpt>
      <trkpt lat="42.66358" lon="-2.19923">
        <ele>459.4</ele>
        <time>2021-07-25 11:15:42</time>
      </trkpt>
      <trkpt lat="42.66362" lon="-2.19948">
        <ele>459.6</ele>
        <time>2021-07-25 11:15:46</time>
      </trkpt>
      <trkpt lat="42.66364" lon="-2.19973">
        <ele>460</ele>
        <time>2021-07-25 11:15:50</time>
      </trkpt>
      <trkpt lat="42.66367" lon="-2.19997">
        <ele>460</ele>
        <time>2021-07-25 11:15:54</time>
      </trkpt>
      <trkpt lat="42.6637" lon="-2.20022">
        <ele>460.2</ele>
        <time>2021-07-25 11:15:58</time>
      </trkpt>
      <trkpt lat="42.66371" lon="-2.20047">
        <ele>459.8</ele>
        <time>2021-07-25 11:16:02</time>
      </trkpt>
      <trkpt lat="42.66373" lon="-2.20071">
        <ele>459.6</ele>
        <time>2021-07-25 11:16:06</time>
      </trkpt>
      <trkpt lat="42.66373" lon="-2.20096">
        <ele>460</ele>
        <time>2021-07-25 11:16:10</time>
      </trkpt>
      <trkpt lat="42.66371" lon="-2.20122">
        <ele>460</ele>
        <time>2021-07-25 11:16:14</time>
      </trkpt>
      <trkpt lat="42.66368" lon="-2.20147">
        <ele>460.2</ele>
        <time>2021-07-25 11:16:18</time>
      </trkpt>
      <trkpt lat="42.66362" lon="-2.20171">
        <ele>460.6</ele>
        <time>2021-07-25 11:16:22</time>
      </trkpt>
      <trkpt lat="42.66355" lon="-2.20195">
        <ele>459.6</ele>
        <time>2021-07-25 11:16:26</time>
      </trkpt>
      <trkpt lat="42.66344" lon="-2.20218">
        <ele>459.6</ele>
        <time>2021-07-25 11:16:30</time>
      </trkpt>
      <trkpt lat="42.66334" lon="-2.2024">
        <ele>459.4</ele>
        <time>2021-07-25 11:16:34</time>
      </trkpt>
      <trkpt lat="42.66323" lon="-2.20261">
        <ele>459.6</ele>
        <time>2021-07-25 11:16:38</time>
      </trkpt>
      <trkpt lat="42.66313" lon="-2.20282">
        <ele>459.6</ele>
        <time>2021-07-25 11:16:42</time>
      </trkpt>
      <trkpt lat="42.66301" lon="-2.20303">
        <ele>459.4</ele>
        <time>2021-07-25 11:16:46</time>
      </trkpt>
      <trkpt lat="42.6629" lon="-2.20324">
        <ele>459.4</ele>
        <time>2021-07-25 11:16:50</time>
      </trkpt>
      <trkpt lat="42.6628" lon="-2.20343">
        <ele>459.6</ele>
        <time>2021-07-25 11:16:54</time>
      </trkpt>
      <trkpt lat="42.6627" lon="-2.20363">
        <ele>459.6</ele>
        <time>2021-07-25 11:16:58</time>
      </trkpt>
      <trkpt lat="42.6626" lon="-2.20382">
        <ele>459.8</ele>
        <time>2021-07-25 11:17:02</time>
      </trkpt>
      <trkpt lat="42.66251" lon="-2.20401">
        <ele>460</ele>
        <time>2021-07-25 11:17:06</time>
      </trkpt>
      <trkpt lat="42.66244" lon="-2.20422">
        <ele>460</ele>
        <time>2021-07-25 11:17:10</time>
      </trkpt>
      <trkpt lat="42.66238" lon="-2.20444">
        <ele>459.6</ele>
        <time>2021-07-25 11:17:14</time>
      </trkpt>
      <trkpt lat="42.66233" lon="-2.20467">
        <ele>459</ele>
        <time>2021-07-25 11:17:18</time>
      </trkpt>
      <trkpt lat="42.6623" lon="-2.2049">
        <ele>459</ele>
        <time>2021-07-25 11:17:22</time>
      </trkpt>
      <trkpt lat="42.66229" lon="-2.20515">
        <ele>458.8</ele>
        <time>2021-07-25 11:17:26</time>
      </trkpt>
      <trkpt lat="42.6623" lon="-2.20539">
        <ele>458.8</ele>
        <time>2021-07-25 11:17:30</time>
      </trkpt>
      <trkpt lat="42.66232" lon="-2.20562">
        <ele>459.6</ele>
        <time>2021-07-25 11:17:34</time>
      </trkpt>
      <trkpt lat="42.66236" lon="-2.20584">
        <ele>459.6</ele>
        <time>2021-07-25 11:17:38</time>
      </trkpt>
      <trkpt lat="42.66242" lon="-2.20607">
        <ele>459.2</ele>
        <time>2021-07-25 11:17:42</time>
      </trkpt>
      <trkpt lat="42.6625" lon="-2.2063">
        <ele>459</ele>
        <time>2021-07-25 11:17:46</time>
      </trkpt>
      <trkpt lat="42.66258" lon="-2.20651">
        <ele>459.2</ele>
        <time>2021-07-25 11:17:50</time>
      </trkpt>
      <trkpt lat="42.66267" lon="-2.20672">
        <ele>459</ele>
        <time>2021-07-25 11:17:54</time>
      </trkpt>
      <trkpt lat="42.66276" lon="-2.20693">
        <ele>459</ele>
        <time>2021-07-25 11:17:58</time>
      </trkpt>
      <trkpt lat="42.66282" lon="-2.20715">
        <ele>458.6</ele>
        <time>2021-07-25 11:18:02</time>
      </trkpt>
      <trkpt lat="42.66291" lon="-2.20737">
        <ele>458.6</ele>
        <time>2021-07-25 11:18:06</time>
      </trkpt>
      <trkpt lat="42.66301" lon="-2.20759">
        <ele>458.4</ele>
        <time>2021-07-25 11:18:10</time>
      </trkpt>
      <trkpt lat="42.66311" lon="-2.2078">
        <ele>458.2</ele>
        <time>2021-07-25 11:18:14</time>
      </trkpt>
      <trkpt lat="42.6632" lon="-2.20801">
        <ele>458.2</ele>
        <time>2021-07-25 11:18:18</time>
      </trkpt>
      <trkpt lat="42.66329" lon="-2.20823">
        <ele>458.4</ele>
        <time>2021-07-25 11:18:22</time>
      </trkpt>
      <trkpt lat="42.66338" lon="-2.20843">
        <ele>458.8</ele>
        <time>2021-07-25 11:18:26</time>
      </trkpt>
      <trkpt lat="42.66347" lon="-2.20863">
        <ele>458.6</ele>
        <time>2021-07-25 11:18:30</time>
      </trkpt>
      <trkpt lat="42.66355" lon="-2.20882">
        <ele>458.8</ele>
        <time>2021-07-25 11:18:34</time>
      </trkpt>
      <trkpt lat="42.66361" lon="-2.20903">
        <ele>459</ele>
        <time>2021-07-25 11:18:38</time>
      </trkpt>
      <trkpt lat="42.66369" lon="-2.20924">
        <ele>459.2</ele>
        <time>2021-07-25 11:18:42</time>
      </trkpt>
      <trkpt lat="42.66375" lon="-2.20945">
        <ele>458.6</ele>
        <time>2021-07-25 11:18:46</time>
      </trkpt>
      <trkpt lat="42.6638" lon="-2.20967">
        <ele>459.2</ele>
        <time>2021-07-25 11:18:50</time>
      </trkpt>
      <trkpt lat="42.66383" lon="-2.20991">
        <ele>458.6</ele>
        <time>2021-07-25 11:18:54</time>
      </trkpt>
      <trkpt lat="42.66387" lon="-2.21016">
        <ele>458.6</ele>
        <time>2021-07-25 11:18:58</time>
      </trkpt>
      <trkpt lat="42.66391" lon="-2.21039">
        <ele>459</ele>
        <time>2021-07-25 11:19:02</time>
      </trkpt>
      <trkpt lat="42.66394" lon="-2.21062">
        <ele>459.2</ele>
        <time>2021-07-25 11:19:06</time>
      </trkpt>
      <trkpt lat="42.66398" lon="-2.21085">
        <ele>458.8</ele>
        <time>2021-07-25 11:19:10</time>
      </trkpt>
      <trkpt lat="42.66401" lon="-2.21108">
        <ele>458.8</ele>
        <time>2021-07-25 11:19:14</time>
      </trkpt>
      <trkpt lat="42.66405" lon="-2.21132">
        <ele>459.2</ele>
        <time>2021-07-25 11:19:18</time>
      </trkpt>
      <trkpt lat="42.66412" lon="-2.21155">
        <ele>459</ele>
        <time>2021-07-25 11:19:22</time>
      </trkpt>
      <trkpt lat="42.6642" lon="-2.21176">
        <ele>458.4</ele>
        <time>2021-07-25 11:19:26</time>
      </trkpt>
      <trkpt lat="42.6643" lon="-2.21197">
        <ele>458.2</ele>
        <time>2021-07-25 11:19:30</time>
      </trkpt>
      <trkpt lat="42.6644" lon="-2.21217">
        <ele>458.4</ele>
        <time>2021-07-25 11:19:34</time>
      </trkpt>
      <trkpt lat="42.66451" lon="-2.21237">
        <ele>459</ele>
        <time>2021-07-25 11:19:38</time>
      </trkpt>
      <trkpt lat="42.66462" lon="-2.21255">
        <ele>458.4</ele>
        <time>2021-07-25 11:19:42</time>
      </trkpt>
      <trkpt lat="42.66474" lon="-2.21274">
        <ele>458.4</ele>
        <time>2021-07-25 11:19:46</time>
      </trkpt>
      <trkpt lat="42.66485" lon="-2.21292">
        <ele>458.8</ele>
        <time>2021-07-25 11:19:50</time>
      </trkpt>
      <trkpt lat="42.66496" lon="-2.21311">
        <ele>458.4</ele>
        <time>2021-07-25 11:19:54</time>
      </trkpt>
      <trkpt lat="42.66507" lon="-2.2133">
        <ele>458.4</ele>
        <time>2021-07-25 11:19:58</time>
      </trkpt>
      <trkpt lat="42.66518" lon="-2.21349">
        <ele>458.4</ele>
        <time>2021-07-25 11:20:02</time>
      </trkpt>
      <trkpt lat="42.66528" lon="-2.21368">
        <ele>458.2</ele>
        <time>2021-07-25 11:20:06</time>
      </trkpt>
      <trkpt lat="42.66539" lon="-2.21387">
        <ele>458.4</ele>
        <time>2021-07-25 11:20:10</time>
      </trkpt>
      <trkpt lat="42.66549" lon="-2.21406">
        <ele>458.6</ele>
        <time>2021-07-25 11:20:14</time>
      </trkpt>
      <trkpt lat="42.6656" lon="-2.21425">
        <ele>458.4</ele>
        <time>2021-07-25 11:20:18</time>
      </trkpt>
      <trkpt lat="42.66572" lon="-2.21444">
        <ele>458.6</ele>
        <time>2021-07-25 11:20:22</time>
      </trkpt>
      <trkpt lat="42.66583" lon="-2.21465">
        <ele>458.2</ele>
        <time>2021-07-25 11:20:26</time>
      </trkpt>
      <trkpt lat="42.66593" lon="-2.21485">
        <ele>458.2</ele>
        <time>2021-07-25 11:20:30</time>
      </trkpt>
      <trkpt lat="42.66605" lon="-2.21504">
        <ele>458.4</ele>
        <time>2021-07-25 11:20:34</time>
      </trkpt>
      <trkpt lat="42.66616" lon="-2.21523">
        <ele>458.6</ele>
        <time>2021-07-25 11:20:38</time>
      </trkpt>
      <trkpt lat="42.66626" lon="-2.21541">
        <ele>458.6</ele>
        <time>2021-07-25 11:20:42</time>
      </trkpt>
      <trkpt lat="42.66638" lon="-2.21561">
        <ele>458.8</ele>
        <time>2021-07-25 11:20:46</time>
      </trkpt>
      <trkpt lat="42.66649" lon="-2.2158">
        <ele>459</ele>
        <time>2021-07-25 11:20:50</time>
      </trkpt>
      <trkpt lat="42.66662" lon="-2.21596">
        <ele>458.6</ele>
        <time>2021-07-25 11:20:54</time>
      </trkpt>
      <trkpt lat="42.66675" lon="-2.21612">
        <ele>458.8</ele>
        <time>2021-07-25 11:20:58</time>
      </trkpt>
      <trkpt lat="42.66688" lon="-2.21626">
        <ele>458.4</ele>
        <time>2021-07-25 11:21:02</time>
      </trkpt>
      <trkpt lat="42.66699" lon="-2.21641">
        <ele>458.4</ele>
        <time>2021-07-25 11:21:06</time>
      </trkpt>
      <trkpt lat="42.66712" lon="-2.21657">
        <ele>459</ele>
        <time>2021-07-25 11:21:10</time>
      </trkpt>
      <trkpt lat="42.66727" lon="-2.21673">
        <ele>458.2</ele>
        <time>2021-07-25 11:21:14</time>
      </trkpt>
      <trkpt lat="42.6674" lon="-2.2169">
        <ele>458.4</ele>
        <time>2021-07-25 11:21:18</time>
      </trkpt>
      <trkpt lat="42.66752" lon="-2.21707">
        <ele>458.4</ele>
        <time>2021-07-25 11:21:22</time>
      </trkpt>
      <trkpt lat="42.66768" lon="-2.21725">
        <ele>458.6</ele>
        <time>2021-07-25 11:21:26</time>
      </trkpt>
      <trkpt lat="42.66782" lon="-2.21744">
        <ele>458.4</ele>
        <time>2021-07-25 11:21:30</time>
      </trkpt>
      <trkpt lat="42.66796" lon="-2.2176">
        <ele>458</ele>
        <time>2021-07-25 11:21:34</time>
      </trkpt>
      <trkpt lat="42.6681" lon="-2.21776">
        <ele>458.8</ele>
        <time>2021-07-25 11:21:38</time>
      </trkpt>
      <trkpt lat="42.66823" lon="-2.21792">
        <ele>459</ele>
        <time>2021-07-25 11:21:42</time>
      </trkpt>
      <trkpt lat="42.66835" lon="-2.21808">
        <ele>458.4</ele>
        <time>2021-07-25 11:21:46</time>
      </trkpt>
      <trkpt lat="42.66848" lon="-2.21823">
        <ele>459</ele>
        <time>2021-07-25 11:21:50</time>
      </trkpt>
      <trkpt lat="42.6686" lon="-2.21837">
        <ele>458.8</ele>
        <time>2021-07-25 11:21:54</time>
      </trkpt>
      <trkpt lat="42.66872" lon="-2.21851">
        <ele>459.4</ele>
        <time>2021-07-25 11:21:58</time>
      </trkpt>
      <trkpt lat="42.66884" lon="-2.21866">
        <ele>459.2</ele>
        <time>2021-07-25 11:22:02</time>
      </trkpt>
      <trkpt lat="42.66897" lon="-2.21881">
        <ele>459</ele>
        <time>2021-07-25 11:22:06</time>
      </trkpt>
      <trkpt lat="42.66909" lon="-2.21896">
        <ele>459</ele>
        <time>2021-07-25 11:22:10</time>
      </trkpt>
      <trkpt lat="42.66922" lon="-2.2191">
        <ele>459.2</ele>
        <time>2021-07-25 11:22:14</time>
      </trkpt>
      <trkpt lat="42.66934" lon="-2.21925">
        <ele>460</ele>
        <time>2021-07-25 11:22:18</time>
      </trkpt>
      <trkpt lat="42.66946" lon="-2.2194">
        <ele>459.6</ele>
        <time>2021-07-25 11:22:22</time>
      </trkpt>
      <trkpt lat="42.66958" lon="-2.21954">
        <ele>459.8</ele>
        <time>2021-07-25 11:22:26</time>
      </trkpt>
      <trkpt lat="42.6697" lon="-2.2197">
        <ele>459.6</ele>
        <time>2021-07-25 11:22:30</time>
      </trkpt>
      <trkpt lat="42.66979" lon="-2.21989">
        <ele>460</ele>
        <time>2021-07-25 11:22:34</time>
      </trkpt>
      <trkpt lat="42.66987" lon="-2.22008">
        <ele>460.4</ele>
        <time>2021-07-25 11:22:38</time>
      </trkpt>
      <trkpt lat="42.66994" lon="-2.22027">
        <ele>460.8</ele>
        <time>2021-07-25 11:22:42</time>
      </trkpt>
      <trkpt lat="42.67" lon="-2.22042">
        <ele>460.8</ele>
        <time>2021-07-25 11:22:46</time>
      </trkpt>
      <trkpt lat="42.67005" lon="-2.22059">
        <ele>460.8</ele>
        <time>2021-07-25 11:22:50</time>
      </trkpt>
      <trkpt lat="42.67008" lon="-2.22078">
        <ele>461.2</ele>
        <time>2021-07-25 11:22:54</time>
      </trkpt>
      <trkpt lat="42.67009" lon="-2.22095">
        <ele>460.8</ele>
        <time>2021-07-25 11:22:58</time>
      </trkpt>
      <trkpt lat="42.67009" lon="-2.22112">
        <ele>461.6</ele>
        <time>2021-07-25 11:23:02</time>
      </trkpt>
      <trkpt lat="42.67008" lon="-2.22119">
        <ele>461.6</ele>
        <time>2021-07-25 11:23:06</time>
      </trkpt>
      <trkpt lat="42.67008" lon="-2.22119">
        <ele>462</ele>
        <time>2021-07-25 11:23:10</time>
      </trkpt>
      <trkpt lat="42.67008" lon="-2.22162">
        <ele>462.4</ele>
        <time>2021-07-25 11:23:14</time>
      </trkpt>
      <trkpt lat="42.67012" lon="-2.22183">
        <ele>462.4</ele>
        <time>2021-07-25 11:23:18</time>
      </trkpt>
      <trkpt lat="42.6701" lon="-2.22203">
        <ele>462</ele>
        <time>2021-07-25 11:23:22</time>
      </trkpt>
      <trkpt lat="42.67009" lon="-2.22221">
        <ele>462.8</ele>
        <time>2021-07-25 11:23:26</time>
      </trkpt>
      <trkpt lat="42.67007" lon="-2.22239">
        <ele>462.6</ele>
        <time>2021-07-25 11:23:30</time>
      </trkpt>
      <trkpt lat="42.67008" lon="-2.22257">
        <ele>463</ele>
        <time>2021-07-25 11:23:34</time>
      </trkpt>
      <trkpt lat="42.67008" lon="-2.22274">
        <ele>463.2</ele>
        <time>2021-07-25 11:23:38</time>
      </trkpt>
      <trkpt lat="42.67008" lon="-2.22291">
        <ele>463.2</ele>
        <time>2021-07-25 11:23:42</time>
      </trkpt>
      <trkpt lat="42.67008" lon="-2.22309">
        <ele>463.4</ele>
        <time>2021-07-25 11:23:46</time>
      </trkpt>
      <trkpt lat="42.67008" lon="-2.22327">
        <ele>463.6</ele>
        <time>2021-07-25 11:23:50</time>
      </trkpt>
      <trkpt lat="42.67008" lon="-2.22346">
        <ele>463.6</ele>
        <time>2021-07-25 11:23:54</time>
      </trkpt>
      <trkpt lat="42.67008" lon="-2.22367">
        <ele>464.4</ele>
        <time>2021-07-25 11:23:58</time>
      </trkpt>
      <trkpt lat="42.67007" lon="-2.22387">
        <ele>464.8</ele>
        <time>2021-07-25 11:24:02</time>
      </trkpt>
      <trkpt lat="42.67007" lon="-2.22406">
        <ele>464.8</ele>
        <time>2021-07-25 11:24:06</time>
      </trkpt>
      <trkpt lat="42.67008" lon="-2.22424">
        <ele>465</ele>
        <time>2021-07-25 11:24:10</time>
      </trkpt>
      <trkpt lat="42.67007" lon="-2.22441">
        <ele>464.8</ele>
        <time>2021-07-25 11:24:14</time>
      </trkpt>
      <trkpt lat="42.67007" lon="-2.22459">
        <ele>465.2</ele>
        <time>2021-07-25 11:24:18</time>
      </trkpt>
      <trkpt lat="42.67007" lon="-2.22478">
        <ele>465</ele>
        <time>2021-07-25 11:24:22</time>
      </trkpt>
      <trkpt lat="42.67008" lon="-2.22497">
        <ele>465.8</ele>
        <time>2021-07-25 11:24:26</time>
      </trkpt>
      <trkpt lat="42.67008" lon="-2.22518">
        <ele>465.8</ele>
        <time>2021-07-25 11:24:30</time>
      </trkpt>
      <trkpt lat="42.67006" lon="-2.22539">
        <ele>466.2</ele>
        <time>2021-07-25 11:24:34</time>
      </trkpt>
      <trkpt lat="42.67006" lon="-2.22559">
        <ele>466.8</ele>
        <time>2021-07-25 11:24:38</time>
      </trkpt>
      <trkpt lat="42.67007" lon="-2.22576">
        <ele>466.2</ele>
        <time>2021-07-25 11:24:42</time>
      </trkpt>
      <trkpt lat="42.67007" lon="-2.22593">
        <ele>466.8</ele>
        <time>2021-07-25 11:24:46</time>
      </trkpt>
      <trkpt lat="42.67007" lon="-2.2261">
        <ele>467.2</ele>
        <time>2021-07-25 11:24:50</time>
      </trkpt>
      <trkpt lat="42.67006" lon="-2.22631">
        <ele>467.6</ele>
        <time>2021-07-25 11:24:54</time>
      </trkpt>
      <trkpt lat="42.67007" lon="-2.22649">
        <ele>467.6</ele>
        <time>2021-07-25 11:24:58</time>
      </trkpt>
      <trkpt lat="42.67007" lon="-2.22669">
        <ele>468.2</ele>
        <time>2021-07-25 11:25:02</time>
      </trkpt>
      <trkpt lat="42.67007" lon="-2.22688">
        <ele>468.2</ele>
        <time>2021-07-25 11:25:06</time>
      </trkpt>
      <trkpt lat="42.67006" lon="-2.22709">
        <ele>468.2</ele>
        <time>2021-07-25 11:25:10</time>
      </trkpt>
      <trkpt lat="42.67007" lon="-2.22729">
        <ele>468.4</ele>
        <time>2021-07-25 11:25:14</time>
      </trkpt>
      <trkpt lat="42.67006" lon="-2.2275">
        <ele>468.6</ele>
        <time>2021-07-25 11:25:18</time>
      </trkpt>
      <trkpt lat="42.67006" lon="-2.22768">
        <ele>468.8</ele>
        <time>2021-07-25 11:25:22</time>
      </trkpt>
      <trkpt lat="42.67007" lon="-2.22788">
        <ele>469</ele>
        <time>2021-07-25 11:25:26</time>
      </trkpt>
      <trkpt lat="42.67007" lon="-2.22808">
        <ele>469.4</ele>
        <time>2021-07-25 11:25:30</time>
      </trkpt>
      <trkpt lat="42.67007" lon="-2.22825">
        <ele>469.4</ele>
        <time>2021-07-25 11:25:34</time>
      </trkpt>
      <trkpt lat="42.67007" lon="-2.22842">
        <ele>469.4</ele>
        <time>2021-07-25 11:25:38</time>
      </trkpt>
      <trkpt lat="42.67006" lon="-2.2286">
        <ele>470</ele>
        <time>2021-07-25 11:25:42</time>
      </trkpt>
      <trkpt lat="42.67006" lon="-2.22879">
        <ele>470</ele>
        <time>2021-07-25 11:25:46</time>
      </trkpt>
      <trkpt lat="42.67006" lon="-2.229">
        <ele>470.2</ele>
        <time>2021-07-25 11:25:50</time>
      </trkpt>
      <trkpt lat="42.67005" lon="-2.22921">
        <ele>471</ele>
        <time>2021-07-25 11:25:54</time>
      </trkpt>
      <trkpt lat="42.67001" lon="-2.22945">
        <ele>470.8</ele>
        <time>2021-07-25 11:25:58</time>
      </trkpt>
      <trkpt lat="42.66999" lon="-2.22966">
        <ele>470.8</ele>
        <time>2021-07-25 11:26:02</time>
      </trkpt>
      <trkpt lat="42.66995" lon="-2.22987">
        <ele>471.2</ele>
        <time>2021-07-25 11:26:06</time>
      </trkpt>
      <trkpt lat="42.66991" lon="-2.23006">
        <ele>471.6</ele>
        <time>2021-07-25 11:26:10</time>
      </trkpt>
      <trkpt lat="42.66987" lon="-2.23025">
        <ele>471.4</ele>
        <time>2021-07-25 11:26:14</time>
      </trkpt>
      <trkpt lat="42.66982" lon="-2.23043">
        <ele>471.6</ele>
        <time>2021-07-25 11:26:18</time>
      </trkpt>
      <trkpt lat="42.66975" lon="-2.23059">
        <ele>472</ele>
        <time>2021-07-25 11:26:22</time>
      </trkpt>
      <trkpt lat="42.66967" lon="-2.23077">
        <ele>472.2</ele>
        <time>2021-07-25 11:26:26</time>
      </trkpt>
      <trkpt lat="42.6696" lon="-2.23093">
        <ele>473.2</ele>
        <time>2021-07-25 11:26:30</time>
      </trkpt>
      <trkpt lat="42.66951" lon="-2.23106">
        <ele>472.8</ele>
        <time>2021-07-25 11:26:34</time>
      </trkpt>
      <trkpt lat="42.66942" lon="-2.2312">
        <ele>473</ele>
        <time>2021-07-25 11:26:38</time>
      </trkpt>
      <trkpt lat="42.66932" lon="-2.23133">
        <ele>473.6</ele>
        <time>2021-07-25 11:26:42</time>
      </trkpt>
      <trkpt lat="42.66922" lon="-2.23144">
        <ele>473.8</ele>
        <time>2021-07-25 11:26:46</time>
      </trkpt>
      <trkpt lat="42.66912" lon="-2.23155">
        <ele>474.2</ele>
        <time>2021-07-25 11:26:50</time>
      </trkpt>
      <trkpt lat="42.66901" lon="-2.23164">
        <ele>474.2</ele>
        <time>2021-07-25 11:26:54</time>
      </trkpt>
      <trkpt lat="42.6689" lon="-2.23173">
        <ele>474</ele>
        <time>2021-07-25 11:26:58</time>
      </trkpt>
      <trkpt lat="42.66878" lon="-2.23182">
        <ele>475.4</ele>
        <time>2021-07-25 11:27:02</time>
      </trkpt>
      <trkpt lat="42.66864" lon="-2.2319">
        <ele>475</ele>
        <time>2021-07-25 11:27:06</time>
      </trkpt>
      <trkpt lat="42.6685" lon="-2.23197">
        <ele>475.6</ele>
        <time>2021-07-25 11:27:10</time>
      </trkpt>
      <trkpt lat="42.66837" lon="-2.23203">
        <ele>475.8</ele>
        <time>2021-07-25 11:27:14</time>
      </trkpt>
      <trkpt lat="42.66824" lon="-2.23208">
        <ele>475.6</ele>
        <time>2021-07-25 11:27:18</time>
      </trkpt>
      <trkpt lat="42.6681" lon="-2.23214">
        <ele>475.6</ele>
        <time>2021-07-25 11:27:22</time>
      </trkpt>
      <trkpt lat="42.66796" lon="-2.2322">
        <ele>476</ele>
        <time>2021-07-25 11:27:26</time>
      </trkpt>
      <trkpt lat="42.66783" lon="-2.23226">
        <ele>476</ele>
        <time>2021-07-25 11:27:30</time>
      </trkpt>
      <trkpt lat="42.6677" lon="-2.23233">
        <ele>476.4</ele>
        <time>2021-07-25 11:27:34</time>
      </trkpt>
      <trkpt lat="42.66757" lon="-2.23238">
        <ele>476.2</ele>
        <time>2021-07-25 11:27:38</time>
      </trkpt>
      <trkpt lat="42.66745" lon="-2.23243">
        <ele>476.8</ele>
        <time>2021-07-25 11:27:42</time>
      </trkpt>
      <trkpt lat="42.66732" lon="-2.23248">
        <ele>477.2</ele>
        <time>2021-07-25 11:27:46</time>
      </trkpt>
      <trkpt lat="42.66719" lon="-2.23254">
        <ele>477.4</ele>
        <time>2021-07-25 11:27:50</time>
      </trkpt>
      <trkpt lat="42.66705" lon="-2.23259">
        <ele>477.6</ele>
        <time>2021-07-25 11:27:54</time>
      </trkpt>
      <trkpt lat="42.66692" lon="-2.23265">
        <ele>477.8</ele>
        <time>2021-07-25 11:27:58</time>
      </trkpt>
      <trkpt lat="42.66678" lon="-2.23271">
        <ele>477.6</ele>
        <time>2021-07-25 11:28:02</time>
      </trkpt>
      <trkpt lat="42.66664" lon="-2.23277">
        <ele>478</ele>
        <time>2021-07-25 11:28:06</time>
      </trkpt>
      <trkpt lat="42.6665" lon="-2.23283">
        <ele>478.4</ele>
        <time>2021-07-25 11:28:10</time>
      </trkpt>
      <trkpt lat="42.66636" lon="-2.23287">
        <ele>478.2</ele>
        <time>2021-07-25 11:28:14</time>
      </trkpt>
      <trkpt lat="42.66622" lon="-2.23292">
        <ele>478.4</ele>
        <time>2021-07-25 11:28:18</time>
      </trkpt>
      <trkpt lat="42.66608" lon="-2.23298">
        <ele>478.8</ele>
        <time>2021-07-25 11:28:22</time>
      </trkpt>
      <trkpt lat="42.66595" lon="-2.23304">
        <ele>479.4</ele>
        <time>2021-07-25 11:28:26</time>
      </trkpt>
      <trkpt lat="42.66581" lon="-2.2331">
        <ele>479.4</ele>
        <time>2021-07-25 11:28:30</time>
      </trkpt>
      <trkpt lat="42.66567" lon="-2.23317">
        <ele>479.8</ele>
        <time>2021-07-25 11:28:34</time>
      </trkpt>
      <trkpt lat="42.66555" lon="-2.23325">
        <ele>480.2</ele>
        <time>2021-07-25 11:28:38</time>
      </trkpt>
      <trkpt lat="42.66543" lon="-2.23333">
        <ele>480.8</ele>
        <time>2021-07-25 11:28:42</time>
      </trkpt>
      <trkpt lat="42.66531" lon="-2.23343">
        <ele>480.4</ele>
        <time>2021-07-25 11:28:46</time>
      </trkpt>
      <trkpt lat="42.66519" lon="-2.23355">
        <ele>480.4</ele>
        <time>2021-07-25 11:28:50</time>
      </trkpt>
      <trkpt lat="42.66507" lon="-2.23369">
        <ele>481</ele>
        <time>2021-07-25 11:28:54</time>
      </trkpt>
      <trkpt lat="42.66497" lon="-2.23384">
        <ele>481</ele>
        <time>2021-07-25 11:28:58</time>
      </trkpt>
      <trkpt lat="42.66488" lon="-2.23397">
        <ele>481.6</ele>
        <time>2021-07-25 11:29:02</time>
      </trkpt>
      <trkpt lat="42.66479" lon="-2.23413">
        <ele>482.2</ele>
        <time>2021-07-25 11:29:06</time>
      </trkpt>
      <trkpt lat="42.66472" lon="-2.23427">
        <ele>481.8</ele>
        <time>2021-07-25 11:29:10</time>
      </trkpt>
      <trkpt lat="42.66466" lon="-2.23443">
        <ele>482</ele>
        <time>2021-07-25 11:29:14</time>
      </trkpt>
      <trkpt lat="42.6646" lon="-2.23461">
        <ele>482.4</ele>
        <time>2021-07-25 11:29:18</time>
      </trkpt>
      <trkpt lat="42.66457" lon="-2.23478">
        <ele>483.6</ele>
        <time>2021-07-25 11:29:22</time>
      </trkpt>
      <trkpt lat="42.66455" lon="-2.23495">
        <ele>483.8</ele>
        <time>2021-07-25 11:29:26</time>
      </trkpt>
      <trkpt lat="42.66452" lon="-2.23512">
        <ele>483.2</ele>
        <time>2021-07-25 11:29:30</time>
      </trkpt>
      <trkpt lat="42.6645" lon="-2.2353">
        <ele>483.6</ele>
        <time>2021-07-25 11:29:34</time>
      </trkpt>
      <trkpt lat="42.66448" lon="-2.23548">
        <ele>484.2</ele>
        <time>2021-07-25 11:29:38</time>
      </trkpt>
      <trkpt lat="42.66448" lon="-2.23566">
        <ele>484.2</ele>
        <time>2021-07-25 11:29:42</time>
      </trkpt>
      <trkpt lat="42.66448" lon="-2.23585">
        <ele>484</ele>
        <time>2021-07-25 11:29:46</time>
      </trkpt>
      <trkpt lat="42.66448" lon="-2.23602">
        <ele>484.4</ele>
        <time>2021-07-25 11:29:50</time>
      </trkpt>
      <trkpt lat="42.66449" lon="-2.23619">
        <ele>484.8</ele>
        <time>2021-07-25 11:29:54</time>
      </trkpt>
      <trkpt lat="42.6645" lon="-2.23631">
        <ele>485.4</ele>
        <time>2021-07-25 11:29:58</time>
      </trkpt>
      <trkpt lat="42.66451" lon="-2.23639">
        <ele>485.8</ele>
        <time>2021-07-25 11:30:02</time>
      </trkpt>
      <trkpt lat="42.6645" lon="-2.23645">
        <ele>485.8</ele>
        <time>2021-07-25 11:30:06</time>
      </trkpt>
      <trkpt lat="42.6645" lon="-2.23656">
        <ele>486</ele>
        <time>2021-07-25 11:30:10</time>
      </trkpt>
      <trkpt lat="42.66451" lon="-2.2367">
        <ele>486.4</ele>
        <time>2021-07-25 11:30:14</time>
      </trkpt>
      <trkpt lat="42.66451" lon="-2.23679">
        <ele>486.6</ele>
        <time>2021-07-25 11:30:18</time>
      </trkpt>
      <trkpt lat="42.66451" lon="-2.23679">
        <ele>486.4</ele>
        <time>2021-07-25 11:30:22</time>
      </trkpt>
      <trkpt lat="42.66453" lon="-2.23682">
        <ele>486.4</ele>
        <time>2021-07-25 11:30:26</time>
      </trkpt>
      <trkpt lat="42.66458" lon="-2.2368">
        <ele>486.2</ele>
        <time>2021-07-25 11:30:30</time>
      </trkpt>
      <trkpt lat="42.66465" lon="-2.23676">
        <ele>485.8</ele>
        <time>2021-07-25 11:30:34</time>
      </trkpt>
      <trkpt lat="42.6647" lon="-2.23672">
        <ele>485.6</ele>
        <time>2021-07-25 11:30:38</time>
      </trkpt>
      <trkpt lat="42.66478" lon="-2.23668">
        <ele>484.6</ele>
        <time>2021-07-25 11:30:42</time>
      </trkpt>
      <trkpt lat="42.66486" lon="-2.23676">
        <ele>484.4</ele>
        <time>2021-07-25 11:30:46</time>
      </trkpt>
      <trkpt lat="42.66494" lon="-2.23686">
        <ele>484.6</ele>
        <time>2021-07-25 11:30:50</time>
      </trkpt>
      <trkpt lat="42.66502" lon="-2.23695">
        <ele>484.2</ele>
        <time>2021-07-25 11:30:54</time>
      </trkpt>
      <trkpt lat="42.66511" lon="-2.23706">
        <ele>484.8</ele>
        <time>2021-07-25 11:30:58</time>
      </trkpt>
      <trkpt lat="42.6652" lon="-2.23716">
        <ele>484.4</ele>
        <time>2021-07-25 11:31:02</time>
      </trkpt>
      <trkpt lat="42.66528" lon="-2.23726">
        <ele>485.4</ele>
        <time>2021-07-25 11:31:06</time>
      </trkpt>
      <trkpt lat="42.66536" lon="-2.23736">
        <ele>483</ele>
        <time>2021-07-25 11:31:10</time>
      </trkpt>
      <trkpt lat="42.66544" lon="-2.23746">
        <ele>484</ele>
        <time>2021-07-25 11:31:14</time>
      </trkpt>
      <trkpt lat="42.66552" lon="-2.23755">
        <ele>484.2</ele>
        <time>2021-07-25 11:31:18</time>
      </trkpt>
      <trkpt lat="42.66559" lon="-2.23762">
        <ele>484.4</ele>
        <time>2021-07-25 11:31:22</time>
      </trkpt>
      <trkpt lat="42.66565" lon="-2.23772">
        <ele>483</ele>
        <time>2021-07-25 11:31:26</time>
      </trkpt>
      <trkpt lat="42.66571" lon="-2.2379">
        <ele>483</ele>
        <time>2021-07-25 11:31:30</time>
      </trkpt>
      <trkpt lat="42.66576" lon="-2.23813">
        <ele>481.8</ele>
        <time>2021-07-25 11:31:34</time>
      </trkpt>
      <trkpt lat="42.66581" lon="-2.23836">
        <ele>481.8</ele>
        <time>2021-07-25 11:31:38</time>
      </trkpt>
      <trkpt lat="42.66586" lon="-2.23856">
        <ele>482.2</ele>
        <time>2021-07-25 11:31:42</time>
      </trkpt>
      <trkpt lat="42.6659" lon="-2.23873">
        <ele>483</ele>
        <time>2021-07-25 11:31:46</time>
      </trkpt>
      <trkpt lat="42.66593" lon="-2.23888">
        <ele>483.2</ele>
        <time>2021-07-25 11:31:50</time>
      </trkpt>
      <trkpt lat="42.66597" lon="-2.23903">
        <ele>484</ele>
        <time>2021-07-25 11:31:54</time>
      </trkpt>
      <trkpt lat="42.666" lon="-2.23917">
        <ele>484.4</ele>
        <time>2021-07-25 11:31:58</time>
      </trkpt>
      <trkpt lat="42.66604" lon="-2.23931">
        <ele>484.4</ele>
        <time>2021-07-25 11:32:02</time>
      </trkpt>
      <trkpt lat="42.66607" lon="-2.23946">
        <ele>485</ele>
        <time>2021-07-25 11:32:06</time>
      </trkpt>
      <trkpt lat="42.6661" lon="-2.23961">
        <ele>485.2</ele>
        <time>2021-07-25 11:32:10</time>
      </trkpt>
      <trkpt lat="42.66614" lon="-2.23976">
        <ele>485.2</ele>
        <time>2021-07-25 11:32:14</time>
      </trkpt>
      <trkpt lat="42.66618" lon="-2.23989">
        <ele>485.6</ele>
        <time>2021-07-25 11:32:18</time>
      </trkpt>
      <trkpt lat="42.66621" lon="-2.24004">
        <ele>485.8</ele>
        <time>2021-07-25 11:32:22</time>
      </trkpt>
      <trkpt lat="42.66624" lon="-2.24018">
        <ele>486</ele>
        <time>2021-07-25 11:32:26</time>
      </trkpt>
      <trkpt lat="42.66628" lon="-2.24033">
        <ele>485.8</ele>
        <time>2021-07-25 11:32:30</time>
      </trkpt>
      <trkpt lat="42.6663" lon="-2.24048">
        <ele>486</ele>
        <time>2021-07-25 11:32:34</time>
      </trkpt>
      <trkpt lat="42.66633" lon="-2.24063">
        <ele>486.4</ele>
        <time>2021-07-25 11:32:38</time>
      </trkpt>
      <trkpt lat="42.66637" lon="-2.24077">
        <ele>486.6</ele>
        <time>2021-07-25 11:32:42</time>
      </trkpt>
      <trkpt lat="42.6664" lon="-2.24093">
        <ele>486.4</ele>
        <time>2021-07-25 11:32:46</time>
      </trkpt>
      <trkpt lat="42.66643" lon="-2.24108">
        <ele>486.4</ele>
        <time>2021-07-25 11:32:50</time>
      </trkpt>
      <trkpt lat="42.66647" lon="-2.24123">
        <ele>487.2</ele>
        <time>2021-07-25 11:32:54</time>
      </trkpt>
      <trkpt lat="42.66651" lon="-2.24139">
        <ele>487.2</ele>
        <time>2021-07-25 11:32:58</time>
      </trkpt>
      <trkpt lat="42.66654" lon="-2.24154">
        <ele>487.6</ele>
        <time>2021-07-25 11:33:02</time>
      </trkpt>
      <trkpt lat="42.66658" lon="-2.24169">
        <ele>487.6</ele>
        <time>2021-07-25 11:33:06</time>
      </trkpt>
      <trkpt lat="42.66661" lon="-2.24185">
        <ele>488</ele>
        <time>2021-07-25 11:33:10</time>
      </trkpt>
      <trkpt lat="42.66665" lon="-2.242">
        <ele>488.4</ele>
        <time>2021-07-25 11:33:14</time>
      </trkpt>
      <trkpt lat="42.66668" lon="-2.24216">
        <ele>489</ele>
        <time>2021-07-25 11:33:18</time>
      </trkpt>
      <trkpt lat="42.66672" lon="-2.24232">
        <ele>488.8</ele>
        <time>2021-07-25 11:33:22</time>
      </trkpt>
      <trkpt lat="42.66676" lon="-2.24248">
        <ele>489.2</ele>
        <time>2021-07-25 11:33:26</time>
      </trkpt>
      <trkpt lat="42.66679" lon="-2.24263">
        <ele>489.2</ele>
        <time>2021-07-25 11:33:30</time>
      </trkpt>
      <trkpt lat="42.66683" lon="-2.24279">
        <ele>488.8</ele>
        <time>2021-07-25 11:33:34</time>
      </trkpt>
      <trkpt lat="42.66686" lon="-2.24294">
        <ele>489.2</ele>
        <time>2021-07-25 11:33:38</time>
      </trkpt>
      <trkpt lat="42.66689" lon="-2.24309">
        <ele>489</ele>
        <time>2021-07-25 11:33:42</time>
      </trkpt>
      <trkpt lat="42.66693" lon="-2.24324">
        <ele>489.4</ele>
        <time>2021-07-25 11:33:46</time>
      </trkpt>
      <trkpt lat="42.66697" lon="-2.24339">
        <ele>489.8</ele>
        <time>2021-07-25 11:33:50</time>
      </trkpt>
      <trkpt lat="42.667" lon="-2.24353">
        <ele>490.6</ele>
        <time>2021-07-25 11:33:54</time>
      </trkpt>
      <trkpt lat="42.66704" lon="-2.24368">
        <ele>490.4</ele>
        <time>2021-07-25 11:33:58</time>
      </trkpt>
      <trkpt lat="42.66708" lon="-2.24383">
        <ele>491.2</ele>
        <time>2021-07-25 11:34:02</time>
      </trkpt>
      <trkpt lat="42.6671" lon="-2.24393">
        <ele>491.2</ele>
        <time>2021-07-25 11:34:06</time>
      </trkpt>
      <trkpt lat="42.66708" lon="-2.24405">
        <ele>491.4</ele>
        <time>2021-07-25 11:34:10</time>
      </trkpt>
      <trkpt lat="42.66702" lon="-2.24417">
        <ele>491.2</ele>
        <time>2021-07-25 11:34:14</time>
      </trkpt>
      <trkpt lat="42.66694" lon="-2.24427">
        <ele>491.4</ele>
        <time>2021-07-25 11:34:18</time>
      </trkpt>
      <trkpt lat="42.66687" lon="-2.24437">
        <ele>491.4</ele>
        <time>2021-07-25 11:34:22</time>
      </trkpt>
      <trkpt lat="42.6668" lon="-2.24447">
        <ele>491.8</ele>
        <time>2021-07-25 11:34:26</time>
      </trkpt>
      <trkpt lat="42.66671" lon="-2.24457">
        <ele>492.4</ele>
        <time>2021-07-25 11:34:30</time>
      </trkpt>
      <trkpt lat="42.66663" lon="-2.24469">
        <ele>492.4</ele>
        <time>2021-07-25 11:34:34</time>
      </trkpt>
      <trkpt lat="42.66654" lon="-2.2448">
        <ele>492.6</ele>
        <time>2021-07-25 11:34:38</time>
      </trkpt>
      <trkpt lat="42.66645" lon="-2.24491">
        <ele>493.2</ele>
        <time>2021-07-25 11:34:42</time>
      </trkpt>
      <trkpt lat="42.66638" lon="-2.24502">
        <ele>493.8</ele>
        <time>2021-07-25 11:34:46</time>
      </trkpt>
      <trkpt lat="42.6663" lon="-2.24514">
        <ele>494.6</ele>
        <time>2021-07-25 11:34:50</time>
      </trkpt>
      <trkpt lat="42.66623" lon="-2.24526">
        <ele>494.8</ele>
        <time>2021-07-25 11:34:54</time>
      </trkpt>
      <trkpt lat="42.6662" lon="-2.24538">
        <ele>496</ele>
        <time>2021-07-25 11:34:58</time>
      </trkpt>
      <trkpt lat="42.66621" lon="-2.24548">
        <ele>495.6</ele>
        <time>2021-07-25 11:35:02</time>
      </trkpt>
      <trkpt lat="42.66627" lon="-2.24558">
        <ele>495.8</ele>
        <time>2021-07-25 11:35:06</time>
      </trkpt>
      <trkpt lat="42.66634" lon="-2.2457">
        <ele>495.8</ele>
        <time>2021-07-25 11:35:10</time>
      </trkpt>
      <trkpt lat="42.6664" lon="-2.24583">
        <ele>495.6</ele>
        <time>2021-07-25 11:35:14</time>
      </trkpt>
      <trkpt lat="42.66648" lon="-2.24596">
        <ele>495.4</ele>
        <time>2021-07-25 11:35:18</time>
      </trkpt>
      <trkpt lat="42.66655" lon="-2.2461">
        <ele>495.4</ele>
        <time>2021-07-25 11:35:22</time>
      </trkpt>
      <trkpt lat="42.66664" lon="-2.24622">
        <ele>495</ele>
        <time>2021-07-25 11:35:26</time>
      </trkpt>
      <trkpt lat="42.66671" lon="-2.24635">
        <ele>495</ele>
        <time>2021-07-25 11:35:30</time>
      </trkpt>
      <trkpt lat="42.66678" lon="-2.24647">
        <ele>495.4</ele>
        <time>2021-07-25 11:35:34</time>
      </trkpt>
      <trkpt lat="42.66685" lon="-2.24659">
        <ele>495</ele>
        <time>2021-07-25 11:35:38</time>
      </trkpt>
      <trkpt lat="42.66694" lon="-2.24671">
        <ele>495</ele>
        <time>2021-07-25 11:35:42</time>
      </trkpt>
      <trkpt lat="42.667" lon="-2.24685">
        <ele>495.6</ele>
        <time>2021-07-25 11:35:46</time>
      </trkpt>
      <trkpt lat="42.66707" lon="-2.24694">
        <ele>495.2</ele>
        <time>2021-07-25 11:35:50</time>
      </trkpt>
      <trkpt lat="42.66718" lon="-2.24692">
        <ele>495.2</ele>
        <time>2021-07-25 11:35:54</time>
      </trkpt>
      <trkpt lat="42.6673" lon="-2.24687">
        <ele>494.8</ele>
        <time>2021-07-25 11:35:58</time>
      </trkpt>
      <trkpt lat="42.6674" lon="-2.24683">
        <ele>495</ele>
        <time>2021-07-25 11:36:02</time>
      </trkpt>
      <trkpt lat="42.66746" lon="-2.24687">
        <ele>495.2</ele>
        <time>2021-07-25 11:36:06</time>
      </trkpt>
      <trkpt lat="42.66749" lon="-2.24695">
        <ele>495.8</ele>
        <time>2021-07-25 11:36:10</time>
      </trkpt>
      <trkpt lat="42.66751" lon="-2.24707">
        <ele>495.8</ele>
        <time>2021-07-25 11:36:14</time>
      </trkpt>
      <trkpt lat="42.66752" lon="-2.24719">
        <ele>496.6</ele>
        <time>2021-07-25 11:36:18</time>
      </trkpt>
      <trkpt lat="42.66752" lon="-2.2473">
        <ele>497.4</ele>
        <time>2021-07-25 11:36:22</time>
      </trkpt>
      <trkpt lat="42.66753" lon="-2.24739">
        <ele>496.8</ele>
        <time>2021-07-25 11:36:26</time>
      </trkpt>
      <trkpt lat="42.66755" lon="-2.24751">
        <ele>497</ele>
        <time>2021-07-25 11:36:30</time>
      </trkpt>
      <trkpt lat="42.66764" lon="-2.24758">
        <ele>496</ele>
        <time>2021-07-25 11:36:34</time>
      </trkpt>
      <trkpt lat="42.66766" lon="-2.24771">
        <ele>497.2</ele>
        <time>2021-07-25 11:36:38</time>
      </trkpt>
      <trkpt lat="42.66765" lon="-2.24785">
        <ele>497.2</ele>
        <time>2021-07-25 11:36:42</time>
      </trkpt>
      <trkpt lat="42.66764" lon="-2.248">
        <ele>497.4</ele>
        <time>2021-07-25 11:36:46</time>
      </trkpt>
      <trkpt lat="42.66764" lon="-2.24814">
        <ele>498</ele>
        <time>2021-07-25 11:36:50</time>
      </trkpt>
      <trkpt lat="42.66764" lon="-2.2483">
        <ele>497.8</ele>
        <time>2021-07-25 11:36:54</time>
      </trkpt>
      <trkpt lat="42.66765" lon="-2.24847">
        <ele>497.6</ele>
        <time>2021-07-25 11:36:58</time>
      </trkpt>
      <trkpt lat="42.66769" lon="-2.24864">
        <ele>498.2</ele>
        <time>2021-07-25 11:37:02</time>
      </trkpt>
      <trkpt lat="42.66774" lon="-2.24878">
        <ele>498.2</ele>
        <time>2021-07-25 11:37:06</time>
      </trkpt>
      <trkpt lat="42.66781" lon="-2.24891">
        <ele>498.8</ele>
        <time>2021-07-25 11:37:10</time>
      </trkpt>
      <trkpt lat="42.66788" lon="-2.24905">
        <ele>498.8</ele>
        <time>2021-07-25 11:37:14</time>
      </trkpt>
      <trkpt lat="42.66795" lon="-2.24918">
        <ele>499</ele>
        <time>2021-07-25 11:37:18</time>
      </trkpt>
      <trkpt lat="42.66803" lon="-2.24931">
        <ele>498.8</ele>
        <time>2021-07-25 11:37:22</time>
      </trkpt>
      <trkpt lat="42.6681" lon="-2.24944">
        <ele>498.8</ele>
        <time>2021-07-25 11:37:26</time>
      </trkpt>
      <trkpt lat="42.66818" lon="-2.24957">
        <ele>499.6</ele>
        <time>2021-07-25 11:37:30</time>
      </trkpt>
      <trkpt lat="42.66825" lon="-2.2497">
        <ele>500.2</ele>
        <time>2021-07-25 11:37:34</time>
      </trkpt>
      <trkpt lat="42.66833" lon="-2.24981">
        <ele>500.2</ele>
        <time>2021-07-25 11:37:38</time>
      </trkpt>
      <trkpt lat="42.66839" lon="-2.24994">
        <ele>500.4</ele>
        <time>2021-07-25 11:37:42</time>
      </trkpt>
      <trkpt lat="42.66846" lon="-2.25007">
        <ele>500.6</ele>
        <time>2021-07-25 11:37:46</time>
      </trkpt>
      <trkpt lat="42.66853" lon="-2.2502">
        <ele>500.8</ele>
        <time>2021-07-25 11:37:50</time>
      </trkpt>
      <trkpt lat="42.66861" lon="-2.25035">
        <ele>501.4</ele>
        <time>2021-07-25 11:37:54</time>
      </trkpt>
      <trkpt lat="42.66868" lon="-2.25049">
        <ele>501.4</ele>
        <time>2021-07-25 11:37:58</time>
      </trkpt>
      <trkpt lat="42.66874" lon="-2.25064">
        <ele>500.8</ele>
        <time>2021-07-25 11:38:02</time>
      </trkpt>
      <trkpt lat="42.66879" lon="-2.25079">
        <ele>501.6</ele>
        <time>2021-07-25 11:38:06</time>
      </trkpt>
      <trkpt lat="42.66884" lon="-2.25094">
        <ele>502</ele>
        <time>2021-07-25 11:38:10</time>
      </trkpt>
      <trkpt lat="42.66888" lon="-2.25111">
        <ele>502</ele>
        <time>2021-07-25 11:38:14</time>
      </trkpt>
      <trkpt lat="42.66893" lon="-2.25127">
        <ele>502.4</ele>
        <time>2021-07-25 11:38:18</time>
      </trkpt>
      <trkpt lat="42.66896" lon="-2.25143">
        <ele>502.8</ele>
        <time>2021-07-25 11:38:22</time>
      </trkpt>
      <trkpt lat="42.66899" lon="-2.25159">
        <ele>503.2</ele>
        <time>2021-07-25 11:38:26</time>
      </trkpt>
      <trkpt lat="42.669" lon="-2.25175">
        <ele>503.2</ele>
        <time>2021-07-25 11:38:30</time>
      </trkpt>
      <trkpt lat="42.66903" lon="-2.25191">
        <ele>503.2</ele>
        <time>2021-07-25 11:38:34</time>
      </trkpt>
      <trkpt lat="42.66904" lon="-2.25209">
        <ele>503.6</ele>
        <time>2021-07-25 11:38:38</time>
      </trkpt>
      <trkpt lat="42.66906" lon="-2.25224">
        <ele>504.2</ele>
        <time>2021-07-25 11:38:42</time>
      </trkpt>
      <trkpt lat="42.66908" lon="-2.2524">
        <ele>504.2</ele>
        <time>2021-07-25 11:38:46</time>
      </trkpt>
      <trkpt lat="42.6691" lon="-2.25257">
        <ele>504.2</ele>
        <time>2021-07-25 11:38:50</time>
      </trkpt>
      <trkpt lat="42.66911" lon="-2.25274">
        <ele>504.2</ele>
        <time>2021-07-25 11:38:54</time>
      </trkpt>
      <trkpt lat="42.66913" lon="-2.25291">
        <ele>504.4</ele>
        <time>2021-07-25 11:38:58</time>
      </trkpt>
      <trkpt lat="42.66914" lon="-2.25307">
        <ele>504.4</ele>
        <time>2021-07-25 11:39:02</time>
      </trkpt>
      <trkpt lat="42.66916" lon="-2.25324">
        <ele>504.8</ele>
        <time>2021-07-25 11:39:06</time>
      </trkpt>
      <trkpt lat="42.66917" lon="-2.25341">
        <ele>505.4</ele>
        <time>2021-07-25 11:39:10</time>
      </trkpt>
      <trkpt lat="42.66918" lon="-2.25358">
        <ele>504.8</ele>
        <time>2021-07-25 11:39:14</time>
      </trkpt>
      <trkpt lat="42.66919" lon="-2.25374">
        <ele>505.2</ele>
        <time>2021-07-25 11:39:18</time>
      </trkpt>
      <trkpt lat="42.66921" lon="-2.25389">
        <ele>505.8</ele>
        <time>2021-07-25 11:39:22</time>
      </trkpt>
      <trkpt lat="42.66922" lon="-2.25401">
        <ele>506.4</ele>
        <time>2021-07-25 11:39:26</time>
      </trkpt>
      <trkpt lat="42.66924" lon="-2.25414">
        <ele>506.2</ele>
        <time>2021-07-25 11:39:30</time>
      </trkpt>
      <trkpt lat="42.66925" lon="-2.25429">
        <ele>506.6</ele>
        <time>2021-07-25 11:39:34</time>
      </trkpt>
      <trkpt lat="42.66926" lon="-2.25445">
        <ele>506.4</ele>
        <time>2021-07-25 11:39:38</time>
      </trkpt>
      <trkpt lat="42.66928" lon="-2.25461">
        <ele>505.8</ele>
        <time>2021-07-25 11:39:42</time>
      </trkpt>
      <trkpt lat="42.66929" lon="-2.25476">
        <ele>506.2</ele>
        <time>2021-07-25 11:39:46</time>
      </trkpt>
      <trkpt lat="42.6693" lon="-2.25491">
        <ele>506.4</ele>
        <time>2021-07-25 11:39:50</time>
      </trkpt>
      <trkpt lat="42.66931" lon="-2.25507">
        <ele>507.2</ele>
        <time>2021-07-25 11:39:54</time>
      </trkpt>
      <trkpt lat="42.66932" lon="-2.25523">
        <ele>507.4</ele>
        <time>2021-07-25 11:39:58</time>
      </trkpt>
      <trkpt lat="42.66934" lon="-2.25539">
        <ele>507.4</ele>
        <time>2021-07-25 11:40:02</time>
      </trkpt>
      <trkpt lat="42.66935" lon="-2.25555">
        <ele>507.8</ele>
        <time>2021-07-25 11:40:06</time>
      </trkpt>
      <trkpt lat="42.66936" lon="-2.2557">
        <ele>507.8</ele>
        <time>2021-07-25 11:40:10</time>
      </trkpt>
      <trkpt lat="42.66938" lon="-2.25586">
        <ele>508.2</ele>
        <time>2021-07-25 11:40:14</time>
      </trkpt>
      <trkpt lat="42.66939" lon="-2.25602">
        <ele>508.4</ele>
        <time>2021-07-25 11:40:18</time>
      </trkpt>
      <trkpt lat="42.66941" lon="-2.25619">
        <ele>508.4</ele>
        <time>2021-07-25 11:40:22</time>
      </trkpt>
      <trkpt lat="42.66942" lon="-2.25635">
        <ele>509.6</ele>
        <time>2021-07-25 11:40:26</time>
      </trkpt>
      <trkpt lat="42.66943" lon="-2.25651">
        <ele>509.2</ele>
        <time>2021-07-25 11:40:30</time>
      </trkpt>
      <trkpt lat="42.66945" lon="-2.25667">
        <ele>509.2</ele>
        <time>2021-07-25 11:40:34</time>
      </trkpt>
      <trkpt lat="42.66946" lon="-2.25683">
        <ele>509.4</ele>
        <time>2021-07-25 11:40:38</time>
      </trkpt>
      <trkpt lat="42.66948" lon="-2.257">
        <ele>509.6</ele>
        <time>2021-07-25 11:40:42</time>
      </trkpt>
      <trkpt lat="42.66949" lon="-2.25716">
        <ele>510</ele>
        <time>2021-07-25 11:40:46</time>
      </trkpt>
      <trkpt lat="42.66951" lon="-2.25732">
        <ele>510</ele>
        <time>2021-07-25 11:40:50</time>
      </trkpt>
      <trkpt lat="42.66952" lon="-2.25747">
        <ele>510.4</ele>
        <time>2021-07-25 11:40:54</time>
      </trkpt>
      <trkpt lat="42.66954" lon="-2.25764">
        <ele>511</ele>
        <time>2021-07-25 11:40:58</time>
      </trkpt>
      <trkpt lat="42.66955" lon="-2.2578">
        <ele>511</ele>
        <time>2021-07-25 11:41:02</time>
      </trkpt>
      <trkpt lat="42.66958" lon="-2.25797">
        <ele>511.4</ele>
        <time>2021-07-25 11:41:06</time>
      </trkpt>
      <trkpt lat="42.6696" lon="-2.25814">
        <ele>512</ele>
        <time>2021-07-25 11:41:10</time>
      </trkpt>
      <trkpt lat="42.66961" lon="-2.25832">
        <ele>512</ele>
        <time>2021-07-25 11:41:14</time>
      </trkpt>
      <trkpt lat="42.66963" lon="-2.2585">
        <ele>512</ele>
        <time>2021-07-25 11:41:18</time>
      </trkpt>
      <trkpt lat="42.66963" lon="-2.25867">
        <ele>511.8</ele>
        <time>2021-07-25 11:41:22</time>
      </trkpt>
      <trkpt lat="42.66965" lon="-2.25883">
        <ele>512.2</ele>
        <time>2021-07-25 11:41:26</time>
      </trkpt>
      <trkpt lat="42.66967" lon="-2.25899">
        <ele>513</ele>
        <time>2021-07-25 11:41:30</time>
      </trkpt>
      <trkpt lat="42.6697" lon="-2.25913">
        <ele>512.4</ele>
        <time>2021-07-25 11:41:34</time>
      </trkpt>
      <trkpt lat="42.66973" lon="-2.2593">
        <ele>512.6</ele>
        <time>2021-07-25 11:41:38</time>
      </trkpt>
      <trkpt lat="42.66976" lon="-2.25944">
        <ele>512.8</ele>
        <time>2021-07-25 11:41:42</time>
      </trkpt>
      <trkpt lat="42.6698" lon="-2.25958">
        <ele>513</ele>
        <time>2021-07-25 11:41:46</time>
      </trkpt>
      <trkpt lat="42.66985" lon="-2.25973">
        <ele>513.4</ele>
        <time>2021-07-25 11:41:50</time>
      </trkpt>
      <trkpt lat="42.6699" lon="-2.25986">
        <ele>513.6</ele>
        <time>2021-07-25 11:41:54</time>
      </trkpt>
      <trkpt lat="42.66996" lon="-2.26001">
        <ele>514.2</ele>
        <time>2021-07-25 11:41:58</time>
      </trkpt>
      <trkpt lat="42.67002" lon="-2.26014">
        <ele>513.6</ele>
        <time>2021-07-25 11:42:02</time>
      </trkpt>
      <trkpt lat="42.67009" lon="-2.26028">
        <ele>514.2</ele>
        <time>2021-07-25 11:42:06</time>
      </trkpt>
      <trkpt lat="42.67017" lon="-2.26042">
        <ele>514</ele>
        <time>2021-07-25 11:42:10</time>
      </trkpt>
      <trkpt lat="42.67026" lon="-2.26056">
        <ele>514</ele>
        <time>2021-07-25 11:42:14</time>
      </trkpt>
      <trkpt lat="42.67034" lon="-2.2607">
        <ele>514</ele>
        <time>2021-07-25 11:42:18</time>
      </trkpt>
      <trkpt lat="42.67042" lon="-2.26084">
        <ele>514.4</ele>
        <time>2021-07-25 11:42:22</time>
      </trkpt>
      <trkpt lat="42.67048" lon="-2.26094">
        <ele>515.2</ele>
        <time>2021-07-25 11:42:26</time>
      </trkpt>
      <trkpt lat="42.67045" lon="-2.26093">
        <ele>515</ele>
        <time>2021-07-25 11:42:30</time>
      </trkpt>
      <trkpt lat="42.67043" lon="-2.26093">
        <ele>515</ele>
        <time>2021-07-25 11:42:34</time>
      </trkpt>
      <trkpt lat="42.67046" lon="-2.26094">
        <ele>514.6</ele>
        <time>2021-07-25 11:42:38</time>
      </trkpt>
      <trkpt lat="42.67051" lon="-2.261">
        <ele>514.6</ele>
        <time>2021-07-25 11:42:42</time>
      </trkpt>
      <trkpt lat="42.67051" lon="-2.261">
        <ele>510.2</ele>
        <time>2021-07-25 11:42:46</time>
      </trkpt>
      <trkpt lat="42.67848" lon="-2.27461">
        <ele>510</ele>
        <time>2021-07-25 11:42:50</time>
      </trkpt>
      <trkpt lat="42.67853" lon="-2.27483">
        <ele>509.8</ele>
        <time>2021-07-25 11:42:54</time>
      </trkpt>
      <trkpt lat="42.67862" lon="-2.27499">
        <ele>509.2</ele>
        <time>2021-07-25 11:42:58</time>
      </trkpt>
      <trkpt lat="42.67869" lon="-2.27513">
        <ele>509</ele>
        <time>2021-07-25 11:43:02</time>
      </trkpt>
      <trkpt lat="42.67878" lon="-2.27525">
        <ele>509.4</ele>
        <time>2021-07-25 11:43:06</time>
      </trkpt>
      <trkpt lat="42.67887" lon="-2.27534">
        <ele>509</ele>
        <time>2021-07-25 11:43:10</time>
      </trkpt>
      <trkpt lat="42.67898" lon="-2.27545">
        <ele>509.2</ele>
        <time>2021-07-25 11:43:14</time>
      </trkpt>
      <trkpt lat="42.67909" lon="-2.27555">
        <ele>508.8</ele>
        <time>2021-07-25 11:43:18</time>
      </trkpt>
      <trkpt lat="42.67922" lon="-2.27564">
        <ele>509</ele>
        <time>2021-07-25 11:43:22</time>
      </trkpt>
      <trkpt lat="42.67935" lon="-2.27571">
        <ele>509</ele>
        <time>2021-07-25 11:43:26</time>
      </trkpt>
      <trkpt lat="42.67947" lon="-2.27578">
        <ele>509.4</ele>
        <time>2021-07-25 11:43:30</time>
      </trkpt>
      <trkpt lat="42.67961" lon="-2.27584">
        <ele>509</ele>
        <time>2021-07-25 11:43:34</time>
      </trkpt>
      <trkpt lat="42.67973" lon="-2.2759">
        <ele>509</ele>
        <time>2021-07-25 11:43:38</time>
      </trkpt>
      <trkpt lat="42.67986" lon="-2.27596">
        <ele>509.8</ele>
        <time>2021-07-25 11:43:42</time>
      </trkpt>
      <trkpt lat="42.68" lon="-2.27602">
        <ele>509.6</ele>
        <time>2021-07-25 11:43:46</time>
      </trkpt>
      <trkpt lat="42.68013" lon="-2.27608">
        <ele>509.4</ele>
        <time>2021-07-25 11:43:50</time>
      </trkpt>
      <trkpt lat="42.68027" lon="-2.27613">
        <ele>508.8</ele>
        <time>2021-07-25 11:43:54</time>
      </trkpt>
      <trkpt lat="42.68042" lon="-2.2762">
        <ele>508.6</ele>
        <time>2021-07-25 11:43:58</time>
      </trkpt>
      <trkpt lat="42.68055" lon="-2.27626">
        <ele>509.4</ele>
        <time>2021-07-25 11:44:02</time>
      </trkpt>
      <trkpt lat="42.68069" lon="-2.27632">
        <ele>509.8</ele>
        <time>2021-07-25 11:44:06</time>
      </trkpt>
      <trkpt lat="42.68083" lon="-2.27639">
        <ele>509.6</ele>
        <time>2021-07-25 11:44:10</time>
      </trkpt>
      <trkpt lat="42.68096" lon="-2.27648">
        <ele>509.6</ele>
        <time>2021-07-25 11:44:14</time>
      </trkpt>
      <trkpt lat="42.68108" lon="-2.27658">
        <ele>509.2</ele>
        <time>2021-07-25 11:44:18</time>
      </trkpt>
      <trkpt lat="42.6812" lon="-2.27671">
        <ele>509.4</ele>
        <time>2021-07-25 11:44:22</time>
      </trkpt>
      <trkpt lat="42.68132" lon="-2.27683">
        <ele>509.2</ele>
        <time>2021-07-25 11:44:26</time>
      </trkpt>
      <trkpt lat="42.68144" lon="-2.27695">
        <ele>509.2</ele>
        <time>2021-07-25 11:44:30</time>
      </trkpt>
      <trkpt lat="42.68155" lon="-2.27707">
        <ele>509.2</ele>
        <time>2021-07-25 11:44:34</time>
      </trkpt>
      <trkpt lat="42.68167" lon="-2.2772">
        <ele>509.4</ele>
        <time>2021-07-25 11:44:38</time>
      </trkpt>
      <trkpt lat="42.68179" lon="-2.27732">
        <ele>509.6</ele>
        <time>2021-07-25 11:44:42</time>
      </trkpt>
      <trkpt lat="42.68191" lon="-2.27745">
        <ele>509.6</ele>
        <time>2021-07-25 11:44:46</time>
      </trkpt>
      <trkpt lat="42.68202" lon="-2.27755">
        <ele>508.8</ele>
        <time>2021-07-25 11:44:50</time>
      </trkpt>
      <trkpt lat="42.68213" lon="-2.27764">
        <ele>509.2</ele>
        <time>2021-07-25 11:44:54</time>
      </trkpt>
      <trkpt lat="42.68226" lon="-2.27782">
        <ele>509.6</ele>
        <time>2021-07-25 11:44:58</time>
      </trkpt>
      <trkpt lat="42.68239" lon="-2.27796">
        <ele>510</ele>
        <time>2021-07-25 11:45:02</time>
      </trkpt>
      <trkpt lat="42.68251" lon="-2.27811">
        <ele>509.6</ele>
        <time>2021-07-25 11:45:06</time>
      </trkpt>
      <trkpt lat="42.68263" lon="-2.27827">
        <ele>509.6</ele>
        <time>2021-07-25 11:45:10</time>
      </trkpt>
      <trkpt lat="42.68273" lon="-2.27846">
        <ele>509.6</ele>
        <time>2021-07-25 11:45:14</time>
      </trkpt>
      <trkpt lat="42.68282" lon="-2.27864">
        <ele>508.8</ele>
        <time>2021-07-25 11:45:18</time>
      </trkpt>
      <trkpt lat="42.68289" lon="-2.27884">
        <ele>509.2</ele>
        <time>2021-07-25 11:45:22</time>
      </trkpt>
      <trkpt lat="42.68294" lon="-2.27905">
        <ele>509.8</ele>
        <time>2021-07-25 11:45:26</time>
      </trkpt>
      <trkpt lat="42.68297" lon="-2.27926">
        <ele>509.2</ele>
        <time>2021-07-25 11:45:30</time>
      </trkpt>
      <trkpt lat="42.68299" lon="-2.27948">
        <ele>509.2</ele>
        <time>2021-07-25 11:45:34</time>
      </trkpt>
      <trkpt lat="42.683" lon="-2.27971">
        <ele>509.4</ele>
        <time>2021-07-25 11:45:38</time>
      </trkpt>
      <trkpt lat="42.68302" lon="-2.27993">
        <ele>509.8</ele>
        <time>2021-07-25 11:45:42</time>
      </trkpt>
      <trkpt lat="42.68303" lon="-2.28013">
        <ele>509.8</ele>
        <time>2021-07-25 11:45:46</time>
      </trkpt>
      <trkpt lat="42.68304" lon="-2.28033">
        <ele>510</ele>
        <time>2021-07-25 11:45:50</time>
      </trkpt>
      <trkpt lat="42.68305" lon="-2.28053">
        <ele>510.6</ele>
        <time>2021-07-25 11:45:54</time>
      </trkpt>
      <trkpt lat="42.68305" lon="-2.28075">
        <ele>510</ele>
        <time>2021-07-25 11:45:58</time>
      </trkpt>
      <trkpt lat="42.68307" lon="-2.28097">
        <ele>509.8</ele>
        <time>2021-07-25 11:46:02</time>
      </trkpt>
      <trkpt lat="42.68309" lon="-2.2812">
        <ele>509.8</ele>
        <time>2021-07-25 11:46:06</time>
      </trkpt>
      <trkpt lat="42.6831" lon="-2.28143">
        <ele>509.8</ele>
        <time>2021-07-25 11:46:10</time>
      </trkpt>
      <trkpt lat="42.68312" lon="-2.28165">
        <ele>510.4</ele>
        <time>2021-07-25 11:46:14</time>
      </trkpt>
      <trkpt lat="42.68313" lon="-2.28187">
        <ele>510.6</ele>
        <time>2021-07-25 11:46:18</time>
      </trkpt>
      <trkpt lat="42.68314" lon="-2.28209">
        <ele>510.6</ele>
        <time>2021-07-25 11:46:22</time>
      </trkpt>
      <trkpt lat="42.68316" lon="-2.2823">
        <ele>511</ele>
        <time>2021-07-25 11:46:26</time>
      </trkpt>
      <trkpt lat="42.68317" lon="-2.28252">
        <ele>510.8</ele>
        <time>2021-07-25 11:46:30</time>
      </trkpt>
      <trkpt lat="42.68318" lon="-2.28272">
        <ele>511.2</ele>
        <time>2021-07-25 11:46:34</time>
      </trkpt>
      <trkpt lat="42.68319" lon="-2.28292">
        <ele>511.2</ele>
        <time>2021-07-25 11:46:38</time>
      </trkpt>
      <trkpt lat="42.6832" lon="-2.28312">
        <ele>511</ele>
        <time>2021-07-25 11:46:42</time>
      </trkpt>
      <trkpt lat="42.68321" lon="-2.28331">
        <ele>510.6</ele>
        <time>2021-07-25 11:46:46</time>
      </trkpt>
      <trkpt lat="42.68321" lon="-2.28352">
        <ele>510.8</ele>
        <time>2021-07-25 11:46:50</time>
      </trkpt>
      <trkpt lat="42.68322" lon="-2.28372">
        <ele>510.8</ele>
        <time>2021-07-25 11:46:54</time>
      </trkpt>
      <trkpt lat="42.68324" lon="-2.28392">
        <ele>511.6</ele>
        <time>2021-07-25 11:46:58</time>
      </trkpt>
      <trkpt lat="42.68326" lon="-2.28411">
        <ele>511</ele>
        <time>2021-07-25 11:47:02</time>
      </trkpt>
      <trkpt lat="42.68327" lon="-2.28431">
        <ele>511.8</ele>
        <time>2021-07-25 11:47:06</time>
      </trkpt>
      <trkpt lat="42.68329" lon="-2.28451">
        <ele>511.6</ele>
        <time>2021-07-25 11:47:10</time>
      </trkpt>
      <trkpt lat="42.68331" lon="-2.28471">
        <ele>512</ele>
        <time>2021-07-25 11:47:14</time>
      </trkpt>
      <trkpt lat="42.68334" lon="-2.28487">
        <ele>512.2</ele>
        <time>2021-07-25 11:47:18</time>
      </trkpt>
      <trkpt lat="42.68338" lon="-2.28503">
        <ele>512</ele>
        <time>2021-07-25 11:47:22</time>
      </trkpt>
      <trkpt lat="42.68341" lon="-2.28519">
        <ele>512</ele>
        <time>2021-07-25 11:47:26</time>
      </trkpt>
      <trkpt lat="42.68347" lon="-2.28536">
        <ele>512.2</ele>
        <time>2021-07-25 11:47:30</time>
      </trkpt>
      <trkpt lat="42.68353" lon="-2.28551">
        <ele>512.4</ele>
        <time>2021-07-25 11:47:34</time>
      </trkpt>
      <trkpt lat="42.6836" lon="-2.28564">
        <ele>512.4</ele>
        <time>2021-07-25 11:47:38</time>
      </trkpt>
      <trkpt lat="42.68363" lon="-2.28575">
        <ele>512.4</ele>
        <time>2021-07-25 11:47:42</time>
      </trkpt>
      <trkpt lat="42.6836" lon="-2.28578">
        <ele>513</ele>
        <time>2021-07-25 11:47:46</time>
      </trkpt>
      <trkpt lat="42.68353" lon="-2.28582">
        <ele>512.4</ele>
        <time>2021-07-25 11:47:50</time>
      </trkpt>
      <trkpt lat="42.68353" lon="-2.28582">
        <ele>512</ele>
        <time>2021-07-25 11:47:54</time>
      </trkpt>
      <trkpt lat="42.68347" lon="-2.28586">
        <ele>511.8</ele>
        <time>2021-07-25 11:47:58</time>
      </trkpt>
      <trkpt lat="42.68347" lon="-2.28586">
        <ele>511.8</ele>
        <time>2021-07-25 11:48:02</time>
      </trkpt>
      <trkpt lat="42.68347" lon="-2.28586">
        <ele>512</ele>
        <time>2021-07-25 11:48:06</time>
      </trkpt>
      <trkpt lat="42.68347" lon="-2.28586">
        <ele>512</ele>
        <time>2021-07-25 11:48:10</time>
      </trkpt>
      <trkpt lat="42.68347" lon="-2.28586">
        <ele>512</ele>
        <time>2021-07-25 11:48:14</time>
      </trkpt>
      <trkpt lat="42.68347" lon="-2.28586">
        <ele>511.8</ele>
        <time>2021-07-25 11:48:18</time>
      </trkpt>
      <trkpt lat="42.68347" lon="-2.28586">
        <ele>511.8</ele>
        <time>2021-07-25 11:48:22</time>
      </trkpt>
      <trkpt lat="42.68347" lon="-2.28586">
        <ele>512</ele>
        <time>2021-07-25 11:48:26</time>
      </trkpt>
      <trkpt lat="42.68347" lon="-2.28586">
        <ele>512</ele>
        <time>2021-07-25 11:48:30</time>
      </trkpt>
      <trkpt lat="42.68347" lon="-2.28586">
        <ele>512.2</ele>
        <time>2021-07-25 11:48:34</time>
      </trkpt>
      <trkpt lat="42.68347" lon="-2.28586">
        <ele>512</ele>
        <time>2021-07-25 11:48:38</time>
      </trkpt>
      <trkpt lat="42.68347" lon="-2.28586">
        <ele>511.8</ele>
        <time>2021-07-25 11:48:42</time>
      </trkpt>
      <trkpt lat="42.68347" lon="-2.28586">
        <ele>512.2</ele>
        <time>2021-07-25 11:48:46</time>
      </trkpt>
      <trkpt lat="42.68347" lon="-2.28586">
        <ele>512.2</ele>
        <time>2021-07-25 11:48:50</time>
      </trkpt>
      <trkpt lat="42.68347" lon="-2.28586">
        <ele>512</ele>
        <time>2021-07-25 11:48:54</time>
      </trkpt>
      <trkpt lat="42.68347" lon="-2.28586">
        <ele>511.8</ele>
        <time>2021-07-25 11:48:58</time>
      </trkpt>
      <trkpt lat="42.68347" lon="-2.28586">
        <ele>512</ele>
        <time>2021-07-25 11:49:02</time>
      </trkpt>
      <trkpt lat="42.68347" lon="-2.28586">
        <ele>512.2</ele>
        <time>2021-07-25 11:49:06</time>
      </trkpt>
      <trkpt lat="42.68347" lon="-2.28586">
        <ele>512.8</ele>
        <time>2021-07-25 11:49:10</time>
      </trkpt>
      <trkpt lat="42.68347" lon="-2.28586">
        <ele>512.4</ele>
        <time>2021-07-25 11:49:14</time>
      </trkpt>
      <trkpt lat="42.68347" lon="-2.28586">
        <ele>512.6</ele>
        <time>2021-07-25 11:49:18</time>
      </trkpt>
      <trkpt lat="42.68347" lon="-2.28586">
        <ele>512.4</ele>
        <time>2021-07-25 11:49:22</time>
      </trkpt>
      <trkpt lat="42.68347" lon="-2.28586">
        <ele>512.4</ele>
        <time>2021-07-25 11:49:26</time>
      </trkpt>
      <trkpt lat="42.68347" lon="-2.28586">
        <ele>512.4</ele>
        <time>2021-07-25 11:49:30</time>
      </trkpt>
      <trkpt lat="42.68347" lon="-2.28586">
        <ele>512.4</ele>
        <time>2021-07-25 11:49:34</time>
      </trkpt>
      <trkpt lat="42.68347" lon="-2.28586">
        <ele>512.6</ele>
        <time>2021-07-25 11:49:38</time>
      </trkpt>
      <trkpt lat="42.68347" lon="-2.28586">
        <ele>512.6</ele>
        <time>2021-07-25 11:49:42</time>
      </trkpt>
      <trkpt lat="42.68347" lon="-2.28586">
        <ele>512.4</ele>
        <time>2021-07-25 11:49:46</time>
      </trkpt>
      <trkpt lat="42.68347" lon="-2.28586">
        <ele>512.6</ele>
        <time>2021-07-25 11:49:50</time>
      </trkpt>
      <trkpt lat="42.68347" lon="-2.28586">
        <ele>512.4</ele>
        <time>2021-07-25 11:49:54</time>
      </trkpt>
      <trkpt lat="42.68347" lon="-2.28586">
        <ele>512.6</ele>
        <time>2021-07-25 11:49:58</time>
      </trkpt>
      <trkpt lat="42.68347" lon="-2.28586">
        <ele>512.4</ele>
        <time>2021-07-25 11:50:02</time>
      </trkpt>
      <trkpt lat="42.68347" lon="-2.28586">
        <ele>512.6</ele>
        <time>2021-07-25 11:50:06</time>
      </trkpt>
      <trkpt lat="42.68347" lon="-2.28586">
        <ele>512.4</ele>
        <time>2021-07-25 11:50:10</time>
      </trkpt>
      <trkpt lat="42.68347" lon="-2.28586">
        <ele>512.8</ele>
        <time>2021-07-25 11:50:14</time>
      </trkpt>
      <trkpt lat="42.68347" lon="-2.28586">
        <ele>512.6</ele>
        <time>2021-07-25 11:50:18</time>
      </trkpt>
      <trkpt lat="42.68347" lon="-2.28586">
        <ele>512.6</ele>
        <time>2021-07-25 11:50:22</time>
      </trkpt>
      <trkpt lat="42.68347" lon="-2.28586">
        <ele>513</ele>
        <time>2021-07-25 11:50:26</time>
      </trkpt>
      <trkpt lat="42.68347" lon="-2.28586">
        <ele>513</ele>
        <time>2021-07-25 11:50:30</time>
      </trkpt>
      <trkpt lat="42.68347" lon="-2.28586">
        <ele>513</ele>
        <time>2021-07-25 11:50:34</time>
      </trkpt>
      <trkpt lat="42.68347" lon="-2.28586">
        <ele>513</ele>
        <time>2021-07-25 11:50:38</time>
      </trkpt>
      <trkpt lat="42.68347" lon="-2.28586">
        <ele>513</ele>
        <time>2021-07-25 11:50:42</time>
      </trkpt>
      <trkpt lat="42.68347" lon="-2.28586">
        <ele>512.8</ele>
        <time>2021-07-25 11:50:46</time>
      </trkpt>
      <trkpt lat="42.68347" lon="-2.28586">
        <ele>513</ele>
        <time>2021-07-25 11:50:50</time>
      </trkpt>
      <trkpt lat="42.68347" lon="-2.28586">
        <ele>513.4</ele>
        <time>2021-07-25 11:50:54</time>
      </trkpt>
      <trkpt lat="42.68347" lon="-2.28586">
        <ele>513</ele>
        <time>2021-07-25 11:50:58</time>
      </trkpt>
      <trkpt lat="42.68347" lon="-2.28586">
        <ele>513</ele>
        <time>2021-07-25 11:51:02</time>
      </trkpt>
      <trkpt lat="42.68347" lon="-2.28586">
        <ele>512.6</ele>
        <time>2021-07-25 11:51:06</time>
      </trkpt>
      <trkpt lat="42.68347" lon="-2.28586">
        <ele>512.6</ele>
        <time>2021-07-25 11:51:10</time>
      </trkpt>
      <trkpt lat="42.68347" lon="-2.28586">
        <ele>513.2</ele>
        <time>2021-07-25 11:51:14</time>
      </trkpt>
      <trkpt lat="42.68347" lon="-2.28586">
        <ele>513</ele>
        <time>2021-07-25 11:51:18</time>
      </trkpt>
      <trkpt lat="42.68347" lon="-2.28586">
        <ele>513.2</ele>
        <time>2021-07-25 11:51:22</time>
      </trkpt>
      <trkpt lat="42.68347" lon="-2.28586">
        <ele>513.2</ele>
        <time>2021-07-25 11:51:26</time>
      </trkpt>
      <trkpt lat="42.68347" lon="-2.28586">
        <ele>513.4</ele>
        <time>2021-07-25 11:51:30</time>
      </trkpt>
      <trkpt lat="42.68347" lon="-2.28586">
        <ele>512.6</ele>
        <time>2021-07-25 11:51:34</time>
      </trkpt>
      <trkpt lat="42.68347" lon="-2.28586">
        <ele>513</ele>
        <time>2021-07-25 11:51:38</time>
      </trkpt>
      <trkpt lat="42.68347" lon="-2.28586">
        <ele>512.8</ele>
        <time>2021-07-25 11:51:42</time>
      </trkpt>
      <trkpt lat="42.68347" lon="-2.28586">
        <ele>512.8</ele>
        <time>2021-07-25 11:51:46</time>
      </trkpt>
      <trkpt lat="42.68347" lon="-2.28586">
        <ele>513.2</ele>
        <time>2021-07-25 11:51:50</time>
      </trkpt>
      <trkpt lat="42.68347" lon="-2.28586">
        <ele>513.2</ele>
        <time>2021-07-25 11:51:54</time>
      </trkpt>
      <trkpt lat="42.68347" lon="-2.28586">
        <ele>513.2</ele>
        <time>2021-07-25 11:51:58</time>
      </trkpt>
      <trkpt lat="42.68347" lon="-2.28586">
        <ele>513.2</ele>
        <time>2021-07-25 11:52:02</time>
      </trkpt>
      <trkpt lat="42.68347" lon="-2.28586">
        <ele>513.2</ele>
        <time>2021-07-25 11:52:06</time>
      </trkpt>
      <trkpt lat="42.68347" lon="-2.28586">
        <ele>513</ele>
        <time>2021-07-25 11:52:10</time>
      </trkpt>
      <trkpt lat="42.68347" lon="-2.28586">
        <ele>513.4</ele>
        <time>2021-07-25 11:52:14</time>
      </trkpt>
      <trkpt lat="42.68347" lon="-2.28586">
        <ele>513</ele>
        <time>2021-07-25 11:52:18</time>
      </trkpt>
      <trkpt lat="42.68347" lon="-2.28586">
        <ele>513.2</ele>
        <time>2021-07-25 11:52:22</time>
      </trkpt>
      <trkpt lat="42.68347" lon="-2.28586">
        <ele>513.4</ele>
        <time>2021-07-25 11:52:26</time>
      </trkpt>
      <trkpt lat="42.68347" lon="-2.28586">
        <ele>513.2</ele>
        <time>2021-07-25 11:52:30</time>
      </trkpt>
      <trkpt lat="42.68347" lon="-2.28586">
        <ele>513.2</ele>
        <time>2021-07-25 11:52:34</time>
      </trkpt>
      <trkpt lat="42.68347" lon="-2.28586">
        <ele>513.6</ele>
        <time>2021-07-25 11:52:38</time>
      </trkpt>
      <trkpt lat="42.68347" lon="-2.28586">
        <ele>513.2</ele>
        <time>2021-07-25 11:52:42</time>
      </trkpt>
      <trkpt lat="42.68347" lon="-2.28586">
        <ele>513.6</ele>
        <time>2021-07-25 11:52:46</time>
      </trkpt>
      <trkpt lat="42.68347" lon="-2.28586">
        <ele>513.6</ele>
        <time>2021-07-25 11:52:50</time>
      </trkpt>
      <trkpt lat="42.68347" lon="-2.28586">
        <ele>513.6</ele>
        <time>2021-07-25 11:52:54</time>
      </trkpt>
      <trkpt lat="42.68347" lon="-2.28586">
        <ele>513.6</ele>
        <time>2021-07-25 11:52:58</time>
      </trkpt>
      <trkpt lat="42.68347" lon="-2.28586">
        <ele>513.6</ele>
        <time>2021-07-25 11:53:02</time>
      </trkpt>
      <trkpt lat="42.68347" lon="-2.28586">
        <ele>513.6</ele>
        <time>2021-07-25 11:53:06</time>
      </trkpt>
      <trkpt lat="42.68347" lon="-2.28586">
        <ele>513.4</ele>
        <time>2021-07-25 11:53:10</time>
      </trkpt>
      <trkpt lat="42.68347" lon="-2.28586">
        <ele>513.6</ele>
        <time>2021-07-25 11:53:14</time>
      </trkpt>
      <trkpt lat="42.68347" lon="-2.28586">
        <ele>513.4</ele>
        <time>2021-07-25 11:53:18</time>
      </trkpt>
      <trkpt lat="42.68347" lon="-2.28586">
        <ele>513.4</ele>
        <time>2021-07-25 11:53:22</time>
      </trkpt>
      <trkpt lat="42.68347" lon="-2.28586">
        <ele>513.4</ele>
        <time>2021-07-25 11:53:26</time>
      </trkpt>
      <trkpt lat="42.68347" lon="-2.28586">
        <ele>513.4</ele>
        <time>2021-07-25 11:53:30</time>
      </trkpt>
      <trkpt lat="42.68347" lon="-2.28586">
        <ele>513.4</ele>
        <time>2021-07-25 11:53:34</time>
      </trkpt>
      <trkpt lat="42.68347" lon="-2.28586">
        <ele>513.6</ele>
        <time>2021-07-25 11:53:38</time>
      </trkpt>
      <trkpt lat="42.68347" lon="-2.28586">
        <ele>513.4</ele>
        <time>2021-07-25 11:53:42</time>
      </trkpt>
      <trkpt lat="42.68347" lon="-2.28586">
        <ele>513.4</ele>
        <time>2021-07-25 11:53:46</time>
      </trkpt>
      <trkpt lat="42.68347" lon="-2.28586">
        <ele>513.6</ele>
        <time>2021-07-25 11:53:50</time>
      </trkpt>
      <trkpt lat="42.68347" lon="-2.28586">
        <ele>513.8</ele>
        <time>2021-07-25 11:53:54</time>
      </trkpt>
      <trkpt lat="42.68347" lon="-2.28586">
        <ele>514</ele>
        <time>2021-07-25 11:53:58</time>
      </trkpt>
      <trkpt lat="42.68347" lon="-2.28586">
        <ele>513.8</ele>
        <time>2021-07-25 11:54:02</time>
      </trkpt>
      <trkpt lat="42.68347" lon="-2.28586">
        <ele>514</ele>
        <time>2021-07-25 11:54:06</time>
      </trkpt>
      <trkpt lat="42.68347" lon="-2.28586">
        <ele>513.6</ele>
        <time>2021-07-25 11:54:10</time>
      </trkpt>
      <trkpt lat="42.68347" lon="-2.28586">
        <ele>513.8</ele>
        <time>2021-07-25 11:54:14</time>
      </trkpt>
      <trkpt lat="42.68347" lon="-2.28586">
        <ele>513.8</ele>
        <time>2021-07-25 11:54:18</time>
      </trkpt>
      <trkpt lat="42.68347" lon="-2.28586">
        <ele>514.2</ele>
        <time>2021-07-25 11:54:22</time>
      </trkpt>
      <trkpt lat="42.68347" lon="-2.28586">
        <ele>514</ele>
        <time>2021-07-25 11:54:26</time>
      </trkpt>
      <trkpt lat="42.68347" lon="-2.28586">
        <ele>514</ele>
        <time>2021-07-25 11:54:30</time>
      </trkpt>
      <trkpt lat="42.68347" lon="-2.28586">
        <ele>514</ele>
        <time>2021-07-25 11:54:34</time>
      </trkpt>
      <trkpt lat="42.68347" lon="-2.28586">
        <ele>514.2</ele>
        <time>2021-07-25 11:54:38</time>
      </trkpt>
      <trkpt lat="42.68347" lon="-2.28586">
        <ele>514.2</ele>
        <time>2021-07-25 11:54:42</time>
      </trkpt>
      <trkpt lat="42.68347" lon="-2.28586">
        <ele>514.2</ele>
        <time>2021-07-25 11:54:46</time>
      </trkpt>
      <trkpt lat="42.68347" lon="-2.28586">
        <ele>514.4</ele>
        <time>2021-07-25 11:54:50</time>
      </trkpt>
      <trkpt lat="42.68347" lon="-2.28586">
        <ele>514.2</ele>
        <time>2021-07-25 11:54:54</time>
      </trkpt>
      <trkpt lat="42.68347" lon="-2.28586">
        <ele>514</ele>
        <time>2021-07-25 11:54:58</time>
      </trkpt>
      <trkpt lat="42.68347" lon="-2.28586">
        <ele>514.2</ele>
        <time>2021-07-25 11:55:02</time>
      </trkpt>
      <trkpt lat="42.68347" lon="-2.28586">
        <ele>514.2</ele>
        <time>2021-07-25 11:55:06</time>
      </trkpt>
      <trkpt lat="42.68347" lon="-2.28586">
        <ele>514.4</ele>
        <time>2021-07-25 11:55:10</time>
      </trkpt>
      <trkpt lat="42.68347" lon="-2.28586">
        <ele>514.4</ele>
        <time>2021-07-25 11:55:14</time>
      </trkpt>
      <trkpt lat="42.68347" lon="-2.28586">
        <ele>514.6</ele>
        <time>2021-07-25 11:55:18</time>
      </trkpt>
      <trkpt lat="42.68347" lon="-2.28586">
        <ele>514.2</ele>
        <time>2021-07-25 11:55:22</time>
      </trkpt>
      <trkpt lat="42.68347" lon="-2.28586">
        <ele>514.4</ele>
        <time>2021-07-25 11:55:26</time>
      </trkpt>
      <trkpt lat="42.68347" lon="-2.28586">
        <ele>514.2</ele>
        <time>2021-07-25 11:55:30</time>
      </trkpt>
      <trkpt lat="42.68347" lon="-2.28586">
        <ele>514.4</ele>
        <time>2021-07-25 11:55:34</time>
      </trkpt>
      <trkpt lat="42.68347" lon="-2.28586">
        <ele>514.6</ele>
        <time>2021-07-25 11:55:38</time>
      </trkpt>
      <trkpt lat="42.68347" lon="-2.28586">
        <ele>514.6</ele>
        <time>2021-07-25 11:55:42</time>
      </trkpt>
      <trkpt lat="42.68347" lon="-2.28586">
        <ele>514.6</ele>
        <time>2021-07-25 11:55:46</time>
      </trkpt>
      <trkpt lat="42.68347" lon="-2.28586">
        <ele>514.4</ele>
        <time>2021-07-25 11:55:50</time>
      </trkpt>
      <trkpt lat="42.68347" lon="-2.28586">
        <ele>514.6</ele>
        <time>2021-07-25 11:55:54</time>
      </trkpt>
      <trkpt lat="42.68347" lon="-2.28586">
        <ele>514.6</ele>
        <time>2021-07-25 11:55:58</time>
      </trkpt>
      <trkpt lat="42.68347" lon="-2.28586">
        <ele>514.4</ele>
        <time>2021-07-25 11:56:02</time>
      </trkpt>
      <trkpt lat="42.68347" lon="-2.28586">
        <ele>514.6</ele>
        <time>2021-07-25 11:56:06</time>
      </trkpt>
      <trkpt lat="42.68347" lon="-2.28586">
        <ele>515</ele>
        <time>2021-07-25 11:56:10</time>
      </trkpt>
      <trkpt lat="42.68347" lon="-2.28586">
        <ele>514.8</ele>
        <time>2021-07-25 11:56:14</time>
      </trkpt>
      <trkpt lat="42.68347" lon="-2.28586">
        <ele>514.8</ele>
        <time>2021-07-25 11:56:18</time>
      </trkpt>
      <trkpt lat="42.68347" lon="-2.28586">
        <ele>514.6</ele>
        <time>2021-07-25 11:56:22</time>
      </trkpt>
      <trkpt lat="42.68347" lon="-2.28586">
        <ele>515</ele>
        <time>2021-07-25 11:56:26</time>
      </trkpt>
      <trkpt lat="42.68347" lon="-2.28586">
        <ele>515</ele>
        <time>2021-07-25 11:56:30</time>
      </trkpt>
      <trkpt lat="42.68347" lon="-2.28586">
        <ele>514.8</ele>
        <time>2021-07-25 11:56:34</time>
      </trkpt>
      <trkpt lat="42.68347" lon="-2.28586">
        <ele>514.8</ele>
        <time>2021-07-25 11:56:38</time>
      </trkpt>
      <trkpt lat="42.68347" lon="-2.28586">
        <ele>514.6</ele>
        <time>2021-07-25 11:56:42</time>
      </trkpt>
      <trkpt lat="42.68347" lon="-2.28586">
        <ele>515</ele>
        <time>2021-07-25 11:56:46</time>
      </trkpt>
      <trkpt lat="42.68347" lon="-2.28586">
        <ele>514.8</ele>
        <time>2021-07-25 11:56:50</time>
      </trkpt>
      <trkpt lat="42.68347" lon="-2.28586">
        <ele>515</ele>
        <time>2021-07-25 11:56:54</time>
      </trkpt>
      <trkpt lat="42.68347" lon="-2.28586">
        <ele>514.8</ele>
        <time>2021-07-25 11:56:58</time>
      </trkpt>
      <trkpt lat="42.68347" lon="-2.28586">
        <ele>515.4</ele>
        <time>2021-07-25 11:57:02</time>
      </trkpt>
      <trkpt lat="42.68347" lon="-2.28586">
        <ele>515</ele>
        <time>2021-07-25 11:57:06</time>
      </trkpt>
      <trkpt lat="42.68347" lon="-2.28586">
        <ele>515.2</ele>
        <time>2021-07-25 11:57:10</time>
      </trkpt>
      <trkpt lat="42.68347" lon="-2.28586">
        <ele>515.2</ele>
        <time>2021-07-25 11:57:14</time>
      </trkpt>
      <trkpt lat="42.68347" lon="-2.28586">
        <ele>515.2</ele>
        <time>2021-07-25 11:57:18</time>
      </trkpt>
      <trkpt lat="42.68347" lon="-2.28586">
        <ele>515.2</ele>
        <time>2021-07-25 11:57:22</time>
      </trkpt>
      <trkpt lat="42.68347" lon="-2.28586">
        <ele>515</ele>
        <time>2021-07-25 11:57:26</time>
      </trkpt>
      <trkpt lat="42.68347" lon="-2.28586">
        <ele>515</ele>
        <time>2021-07-25 11:57:30</time>
      </trkpt>
      <trkpt lat="42.68347" lon="-2.28586">
        <ele>514.8</ele>
        <time>2021-07-25 11:57:34</time>
      </trkpt>
      <trkpt lat="42.68347" lon="-2.28586">
        <ele>515</ele>
        <time>2021-07-25 11:57:38</time>
      </trkpt>
      <trkpt lat="42.68347" lon="-2.28586">
        <ele>514.8</ele>
        <time>2021-07-25 11:57:42</time>
      </trkpt>
      <trkpt lat="42.68347" lon="-2.28586">
        <ele>514.8</ele>
        <time>2021-07-25 11:57:46</time>
      </trkpt>
      <trkpt lat="42.68347" lon="-2.28586">
        <ele>515.2</ele>
        <time>2021-07-25 11:57:50</time>
      </trkpt>
      <trkpt lat="42.68347" lon="-2.28586">
        <ele>515</ele>
        <time>2021-07-25 11:57:54</time>
      </trkpt>
      <trkpt lat="42.68347" lon="-2.28586">
        <ele>515</ele>
        <time>2021-07-25 11:57:58</time>
      </trkpt>
      <trkpt lat="42.68347" lon="-2.28586">
        <ele>515</ele>
        <time>2021-07-25 11:58:02</time>
      </trkpt>
      <trkpt lat="42.68347" lon="-2.28586">
        <ele>515</ele>
        <time>2021-07-25 11:58:06</time>
      </trkpt>
      <trkpt lat="42.68347" lon="-2.28586">
        <ele>515.2</ele>
        <time>2021-07-25 11:58:10</time>
      </trkpt>
      <trkpt lat="42.68347" lon="-2.28586">
        <ele>515.2</ele>
        <time>2021-07-25 11:58:14</time>
      </trkpt>
      <trkpt lat="42.68347" lon="-2.28586">
        <ele>515.2</ele>
        <time>2021-07-25 11:58:18</time>
      </trkpt>
      <trkpt lat="42.68347" lon="-2.28586">
        <ele>515.2</ele>
        <time>2021-07-25 11:58:22</time>
      </trkpt>
      <trkpt lat="42.68347" lon="-2.28586">
        <ele>515.2</ele>
        <time>2021-07-25 11:58:26</time>
      </trkpt>
      <trkpt lat="42.68347" lon="-2.28586">
        <ele>515.4</ele>
        <time>2021-07-25 11:58:30</time>
      </trkpt>
      <trkpt lat="42.68347" lon="-2.28586">
        <ele>515.2</ele>
        <time>2021-07-25 11:58:34</time>
      </trkpt>
      <trkpt lat="42.68347" lon="-2.28586">
        <ele>515</ele>
        <time>2021-07-25 11:58:38</time>
      </trkpt>
      <trkpt lat="42.68347" lon="-2.28586">
        <ele>515.2</ele>
        <time>2021-07-25 11:58:42</time>
      </trkpt>
      <trkpt lat="42.68347" lon="-2.28586">
        <ele>515.2</ele>
        <time>2021-07-25 11:58:46</time>
      </trkpt>
      <trkpt lat="42.68347" lon="-2.28586">
        <ele>515.2</ele>
        <time>2021-07-25 11:58:50</time>
      </trkpt>
      <trkpt lat="42.68347" lon="-2.28586">
        <ele>515.2</ele>
        <time>2021-07-25 11:58:54</time>
      </trkpt>
      <trkpt lat="42.68347" lon="-2.28586">
        <ele>515.6</ele>
        <time>2021-07-25 11:58:58</time>
      </trkpt>
      <trkpt lat="42.68347" lon="-2.28586">
        <ele>515.6</ele>
        <time>2021-07-25 11:59:02</time>
      </trkpt>
      <trkpt lat="42.68347" lon="-2.28586">
        <ele>515.6</ele>
        <time>2021-07-25 11:59:06</time>
      </trkpt>
      <trkpt lat="42.68347" lon="-2.28586">
        <ele>515.6</ele>
        <time>2021-07-25 11:59:10</time>
      </trkpt>
      <trkpt lat="42.68347" lon="-2.28586">
        <ele>515.8</ele>
        <time>2021-07-25 11:59:14</time>
      </trkpt>
      <trkpt lat="42.68347" lon="-2.28586">
        <ele>515.8</ele>
        <time>2021-07-25 11:59:18</time>
      </trkpt>
      <trkpt lat="42.68347" lon="-2.28586">
        <ele>515.8</ele>
        <time>2021-07-25 11:59:22</time>
      </trkpt>
      <trkpt lat="42.68347" lon="-2.28586">
        <ele>515.2</ele>
        <time>2021-07-25 11:59:26</time>
      </trkpt>
      <trkpt lat="42.68347" lon="-2.28586">
        <ele>515.8</ele>
        <time>2021-07-25 11:59:30</time>
      </trkpt>
      <trkpt lat="42.68347" lon="-2.28586">
        <ele>515.2</ele>
        <time>2021-07-25 11:59:34</time>
      </trkpt>
      <trkpt lat="42.68347" lon="-2.28586">
        <ele>515.8</ele>
        <time>2021-07-25 11:59:38</time>
      </trkpt>
      <trkpt lat="42.68347" lon="-2.28586">
        <ele>515.8</ele>
        <time>2021-07-25 11:59:42</time>
      </trkpt>
      <trkpt lat="42.68347" lon="-2.28586">
        <ele>516</ele>
        <time>2021-07-25 11:59:46</time>
      </trkpt>
      <trkpt lat="42.68347" lon="-2.28586">
        <ele>515.6</ele>
        <time>2021-07-25 11:59:50</time>
      </trkpt>
      <trkpt lat="42.68347" lon="-2.28586">
        <ele>515.8</ele>
        <time>2021-07-25 11:59:54</time>
      </trkpt>
      <trkpt lat="42.68347" lon="-2.28586">
        <ele>515.8</ele>
        <time>2021-07-25 11:59:58</time>
      </trkpt>
      <trkpt lat="42.68347" lon="-2.28586">
        <ele>515.8</ele>
        <time>2021-07-25 12:00:02</time>
      </trkpt>
      <trkpt lat="42.68347" lon="-2.28586">
        <ele>515.8</ele>
        <time>2021-07-25 12:00:06</time>
      </trkpt>
      <trkpt lat="42.68347" lon="-2.28586">
        <ele>515.2</ele>
        <time>2021-07-25 12:00:10</time>
      </trkpt>
      <trkpt lat="42.68347" lon="-2.28586">
        <ele>515.2</ele>
        <time>2021-07-25 12:00:14</time>
      </trkpt>
      <trkpt lat="42.68347" lon="-2.28586">
        <ele>515.8</ele>
        <time>2021-07-25 12:00:18</time>
      </trkpt>
      <trkpt lat="42.68347" lon="-2.28586">
        <ele>515.6</ele>
        <time>2021-07-25 12:00:22</time>
      </trkpt>
      <trkpt lat="42.68347" lon="-2.28586">
        <ele>515.6</ele>
        <time>2021-07-25 12:00:26</time>
      </trkpt>
      <trkpt lat="42.68347" lon="-2.28586">
        <ele>515.8</ele>
        <time>2021-07-25 12:00:30</time>
      </trkpt>
      <trkpt lat="42.68347" lon="-2.28586">
        <ele>515.4</ele>
        <time>2021-07-25 12:00:34</time>
      </trkpt>
      <trkpt lat="42.68347" lon="-2.28586">
        <ele>515.6</ele>
        <time>2021-07-25 12:00:38</time>
      </trkpt>
      <trkpt lat="42.68347" lon="-2.28586">
        <ele>515.6</ele>
        <time>2021-07-25 12:00:42</time>
      </trkpt>
      <trkpt lat="42.68347" lon="-2.28586">
        <ele>515.8</ele>
        <time>2021-07-25 12:00:46</time>
      </trkpt>
      <trkpt lat="42.68347" lon="-2.28586">
        <ele>515.8</ele>
        <time>2021-07-25 12:00:50</time>
      </trkpt>
      <trkpt lat="42.68347" lon="-2.28586">
        <ele>516</ele>
        <time>2021-07-25 12:00:54</time>
      </trkpt>
      <trkpt lat="42.68347" lon="-2.28586">
        <ele>515.4</ele>
        <time>2021-07-25 12:00:58</time>
      </trkpt>
      <trkpt lat="42.68346" lon="-2.28585">
        <ele>516</ele>
        <time>2021-07-25 12:01:02</time>
      </trkpt>
      <trkpt lat="42.68349" lon="-2.28586">
        <ele>516</ele>
        <time>2021-07-25 12:01:06</time>
      </trkpt>
      <trkpt lat="42.68351" lon="-2.28585">
        <ele>515.8</ele>
        <time>2021-07-25 12:01:10</time>
      </trkpt>
      <trkpt lat="42.68354" lon="-2.28585">
        <ele>516</ele>
        <time>2021-07-25 12:01:14</time>
      </trkpt>
      <trkpt lat="42.68357" lon="-2.28584">
        <ele>516</ele>
        <time>2021-07-25 12:01:18</time>
      </trkpt>
      <trkpt lat="42.6836" lon="-2.28583">
        <ele>516.4</ele>
        <time>2021-07-25 12:01:22</time>
      </trkpt>
      <trkpt lat="42.68362" lon="-2.28582">
        <ele>516.6</ele>
        <time>2021-07-25 12:01:26</time>
      </trkpt>
      <trkpt lat="42.68362" lon="-2.28582">
        <ele>516.6</ele>
        <time>2021-07-25 12:01:30</time>
      </trkpt>
      <trkpt lat="42.68362" lon="-2.28582">
        <ele>516.6</ele>
        <time>2021-07-25 12:01:34</time>
      </trkpt>
      <trkpt lat="42.68362" lon="-2.28582">
        <ele>516.6</ele>
        <time>2021-07-25 12:01:38</time>
      </trkpt>
      <trkpt lat="42.68362" lon="-2.28582">
        <ele>516.6</ele>
        <time>2021-07-25 12:01:42</time>
      </trkpt>
      <trkpt lat="42.68366" lon="-2.28585">
        <ele>516.4</ele>
        <time>2021-07-25 12:01:46</time>
      </trkpt>
      <trkpt lat="42.6837" lon="-2.28591">
        <ele>516.4</ele>
        <time>2021-07-25 12:01:50</time>
      </trkpt>
      <trkpt lat="42.68376" lon="-2.28598">
        <ele>516.2</ele>
        <time>2021-07-25 12:01:54</time>
      </trkpt>
      <trkpt lat="42.68382" lon="-2.28608">
        <ele>516.4</ele>
        <time>2021-07-25 12:01:58</time>
      </trkpt>
      <trkpt lat="42.68391" lon="-2.28617">
        <ele>516.8</ele>
        <time>2021-07-25 12:02:02</time>
      </trkpt>
      <trkpt lat="42.68397" lon="-2.28621">
        <ele>517.2</ele>
        <time>2021-07-25 12:02:06</time>
      </trkpt>
      <trkpt lat="42.68402" lon="-2.28626">
        <ele>516.6</ele>
        <time>2021-07-25 12:02:10</time>
      </trkpt>
      <trkpt lat="42.68409" lon="-2.28637">
        <ele>516.6</ele>
        <time>2021-07-25 12:02:14</time>
      </trkpt>
      <trkpt lat="42.68421" lon="-2.2865">
        <ele>516</ele>
        <time>2021-07-25 12:02:18</time>
      </trkpt>
      <trkpt lat="42.68432" lon="-2.28663">
        <ele>515.6</ele>
        <time>2021-07-25 12:02:22</time>
      </trkpt>
      <trkpt lat="42.68445" lon="-2.28677">
        <ele>515.6</ele>
        <time>2021-07-25 12:02:26</time>
      </trkpt>
      <trkpt lat="42.68459" lon="-2.28691">
        <ele>515.8</ele>
        <time>2021-07-25 12:02:30</time>
      </trkpt>
      <trkpt lat="42.68473" lon="-2.28705">
        <ele>516.4</ele>
        <time>2021-07-25 12:02:34</time>
      </trkpt>
      <trkpt lat="42.68486" lon="-2.28719">
        <ele>516.4</ele>
        <time>2021-07-25 12:02:38</time>
      </trkpt>
      <trkpt lat="42.68498" lon="-2.28735">
        <ele>516</ele>
        <time>2021-07-25 12:02:42</time>
      </trkpt>
      <trkpt lat="42.6851" lon="-2.28752">
        <ele>516.6</ele>
        <time>2021-07-25 12:02:46</time>
      </trkpt>
      <trkpt lat="42.68521" lon="-2.28769">
        <ele>516</ele>
        <time>2021-07-25 12:02:50</time>
      </trkpt>
      <trkpt lat="42.6853" lon="-2.28787">
        <ele>516</ele>
        <time>2021-07-25 12:02:54</time>
      </trkpt>
      <trkpt lat="42.68538" lon="-2.28806">
        <ele>516</ele>
        <time>2021-07-25 12:02:58</time>
      </trkpt>
      <trkpt lat="42.68542" lon="-2.28824">
        <ele>516.4</ele>
        <time>2021-07-25 12:03:02</time>
      </trkpt>
      <trkpt lat="42.68547" lon="-2.28843">
        <ele>516.6</ele>
        <time>2021-07-25 12:03:06</time>
      </trkpt>
      <trkpt lat="42.6855" lon="-2.28861">
        <ele>517</ele>
        <time>2021-07-25 12:03:10</time>
      </trkpt>
      <trkpt lat="42.68552" lon="-2.28881">
        <ele>516</ele>
        <time>2021-07-25 12:03:14</time>
      </trkpt>
      <trkpt lat="42.68553" lon="-2.28902">
        <ele>516.6</ele>
        <time>2021-07-25 12:03:18</time>
      </trkpt>
      <trkpt lat="42.68554" lon="-2.28924">
        <ele>516.6</ele>
        <time>2021-07-25 12:03:22</time>
      </trkpt>
      <trkpt lat="42.68554" lon="-2.28946">
        <ele>516.2</ele>
        <time>2021-07-25 12:03:26</time>
      </trkpt>
      <trkpt lat="42.68555" lon="-2.28966">
        <ele>516.6</ele>
        <time>2021-07-25 12:03:30</time>
      </trkpt>
      <trkpt lat="42.68556" lon="-2.28985">
        <ele>516.2</ele>
        <time>2021-07-25 12:03:34</time>
      </trkpt>
      <trkpt lat="42.68558" lon="-2.29005">
        <ele>516.6</ele>
        <time>2021-07-25 12:03:38</time>
      </trkpt>
      <trkpt lat="42.68559" lon="-2.29024">
        <ele>516.6</ele>
        <time>2021-07-25 12:03:42</time>
      </trkpt>
      <trkpt lat="42.68561" lon="-2.29045">
        <ele>517.2</ele>
        <time>2021-07-25 12:03:46</time>
      </trkpt>
      <trkpt lat="42.68562" lon="-2.29066">
        <ele>517.4</ele>
        <time>2021-07-25 12:03:50</time>
      </trkpt>
      <trkpt lat="42.68562" lon="-2.29088">
        <ele>518</ele>
        <time>2021-07-25 12:03:54</time>
      </trkpt>
      <trkpt lat="42.68563" lon="-2.2911">
        <ele>517.4</ele>
        <time>2021-07-25 12:03:58</time>
      </trkpt>
      <trkpt lat="42.68564" lon="-2.29131">
        <ele>517.2</ele>
        <time>2021-07-25 12:04:02</time>
      </trkpt>
      <trkpt lat="42.68565" lon="-2.29154">
        <ele>517.4</ele>
        <time>2021-07-25 12:04:06</time>
      </trkpt>
      <trkpt lat="42.68566" lon="-2.29175">
        <ele>517.4</ele>
        <time>2021-07-25 12:04:10</time>
      </trkpt>
      <trkpt lat="42.68567" lon="-2.29197">
        <ele>515.8</ele>
        <time>2021-07-25 12:04:14</time>
      </trkpt>
      <trkpt lat="42.68569" lon="-2.29222">
        <ele>515.8</ele>
        <time>2021-07-25 12:04:18</time>
      </trkpt>
      <trkpt lat="42.68573" lon="-2.29247">
        <ele>513.4</ele>
        <time>2021-07-25 12:04:22</time>
      </trkpt>
      <trkpt lat="42.6858" lon="-2.29271">
        <ele>514.2</ele>
        <time>2021-07-25 12:04:26</time>
      </trkpt>
      <trkpt lat="42.68587" lon="-2.29293">
        <ele>513.8</ele>
        <time>2021-07-25 12:04:30</time>
      </trkpt>
      <trkpt lat="42.68594" lon="-2.29313">
        <ele>514.2</ele>
        <time>2021-07-25 12:04:34</time>
      </trkpt>
      <trkpt lat="42.68604" lon="-2.2933">
        <ele>514.8</ele>
        <time>2021-07-25 12:04:38</time>
      </trkpt>
      <trkpt lat="42.68612" lon="-2.29346">
        <ele>515.2</ele>
        <time>2021-07-25 12:04:42</time>
      </trkpt>
      <trkpt lat="42.68622" lon="-2.2936">
        <ele>515.4</ele>
        <time>2021-07-25 12:04:46</time>
      </trkpt>
      <trkpt lat="42.6863" lon="-2.29372">
        <ele>515.2</ele>
        <time>2021-07-25 12:04:50</time>
      </trkpt>
      <trkpt lat="42.68641" lon="-2.29385">
        <ele>515.2</ele>
        <time>2021-07-25 12:04:54</time>
      </trkpt>
      <trkpt lat="42.68652" lon="-2.29397">
        <ele>515.2</ele>
        <time>2021-07-25 12:04:58</time>
      </trkpt>
      <trkpt lat="42.68661" lon="-2.29409">
        <ele>516.6</ele>
        <time>2021-07-25 12:05:02</time>
      </trkpt>
      <trkpt lat="42.68671" lon="-2.29419">
        <ele>516.6</ele>
        <time>2021-07-25 12:05:06</time>
      </trkpt>
      <trkpt lat="42.68683" lon="-2.29427">
        <ele>516.2</ele>
        <time>2021-07-25 12:05:10</time>
      </trkpt>
      <trkpt lat="42.68696" lon="-2.29434">
        <ele>516.4</ele>
        <time>2021-07-25 12:05:14</time>
      </trkpt>
      <trkpt lat="42.68708" lon="-2.2944">
        <ele>516.6</ele>
        <time>2021-07-25 12:05:18</time>
      </trkpt>
      <trkpt lat="42.6872" lon="-2.29447">
        <ele>516.6</ele>
        <time>2021-07-25 12:05:22</time>
      </trkpt>
      <trkpt lat="42.68733" lon="-2.29454">
        <ele>517.2</ele>
        <time>2021-07-25 12:05:26</time>
      </trkpt>
      <trkpt lat="42.68746" lon="-2.2946">
        <ele>518</ele>
        <time>2021-07-25 12:05:30</time>
      </trkpt>
      <trkpt lat="42.68759" lon="-2.29464">
        <ele>518.8</ele>
        <time>2021-07-25 12:05:34</time>
      </trkpt>
      <trkpt lat="42.6877" lon="-2.29469">
        <ele>519</ele>
        <time>2021-07-25 12:05:38</time>
      </trkpt>
      <trkpt lat="42.6878" lon="-2.29475">
        <ele>519.4</ele>
        <time>2021-07-25 12:05:42</time>
      </trkpt>
      <trkpt lat="42.6879" lon="-2.29482">
        <ele>520</ele>
        <time>2021-07-25 12:05:46</time>
      </trkpt>
      <trkpt lat="42.68798" lon="-2.29488">
        <ele>520.8</ele>
        <time>2021-07-25 12:05:50</time>
      </trkpt>
      <trkpt lat="42.68805" lon="-2.29493">
        <ele>521</ele>
        <time>2021-07-25 12:05:54</time>
      </trkpt>
      <trkpt lat="42.68812" lon="-2.295">
        <ele>521.8</ele>
        <time>2021-07-25 12:05:58</time>
      </trkpt>
      <trkpt lat="42.68819" lon="-2.29508">
        <ele>522.2</ele>
        <time>2021-07-25 12:06:02</time>
      </trkpt>
      <trkpt lat="42.68826" lon="-2.29517">
        <ele>522.4</ele>
        <time>2021-07-25 12:06:06</time>
      </trkpt>
      <trkpt lat="42.68833" lon="-2.29527">
        <ele>522.2</ele>
        <time>2021-07-25 12:06:10</time>
      </trkpt>
      <trkpt lat="42.6884" lon="-2.29538">
        <ele>522.6</ele>
        <time>2021-07-25 12:06:14</time>
      </trkpt>
      <trkpt lat="42.68846" lon="-2.2955">
        <ele>523.4</ele>
        <time>2021-07-25 12:06:18</time>
      </trkpt>
      <trkpt lat="42.68852" lon="-2.29562">
        <ele>523.4</ele>
        <time>2021-07-25 12:06:22</time>
      </trkpt>
      <trkpt lat="42.68858" lon="-2.29574">
        <ele>523.4</ele>
        <time>2021-07-25 12:06:26</time>
      </trkpt>
      <trkpt lat="42.68865" lon="-2.29586">
        <ele>523.2</ele>
        <time>2021-07-25 12:06:30</time>
      </trkpt>
      <trkpt lat="42.68872" lon="-2.296">
        <ele>524</ele>
        <time>2021-07-25 12:06:34</time>
      </trkpt>
      <trkpt lat="42.68878" lon="-2.29613">
        <ele>523.2</ele>
        <time>2021-07-25 12:06:38</time>
      </trkpt>
      <trkpt lat="42.68883" lon="-2.29624">
        <ele>523.2</ele>
        <time>2021-07-25 12:06:42</time>
      </trkpt>
      <trkpt lat="42.68891" lon="-2.29632">
        <ele>523.4</ele>
        <time>2021-07-25 12:06:46</time>
      </trkpt>
      <trkpt lat="42.68898" lon="-2.29644">
        <ele>524.2</ele>
        <time>2021-07-25 12:06:50</time>
      </trkpt>
      <trkpt lat="42.68905" lon="-2.29654">
        <ele>524.4</ele>
        <time>2021-07-25 12:06:54</time>
      </trkpt>
      <trkpt lat="42.68912" lon="-2.29663">
        <ele>525.6</ele>
        <time>2021-07-25 12:06:58</time>
      </trkpt>
      <trkpt lat="42.68919" lon="-2.29672">
        <ele>526</ele>
        <time>2021-07-25 12:07:02</time>
      </trkpt>
      <trkpt lat="42.68926" lon="-2.29682">
        <ele>526.8</ele>
        <time>2021-07-25 12:07:06</time>
      </trkpt>
      <trkpt lat="42.68933" lon="-2.2969">
        <ele>527</ele>
        <time>2021-07-25 12:07:10</time>
      </trkpt>
      <trkpt lat="42.6894" lon="-2.29698">
        <ele>527</ele>
        <time>2021-07-25 12:07:14</time>
      </trkpt>
      <trkpt lat="42.68948" lon="-2.29706">
        <ele>527.2</ele>
        <time>2021-07-25 12:07:18</time>
      </trkpt>
      <trkpt lat="42.68955" lon="-2.29713">
        <ele>527.8</ele>
        <time>2021-07-25 12:07:22</time>
      </trkpt>
      <trkpt lat="42.68963" lon="-2.29721">
        <ele>528.4</ele>
        <time>2021-07-25 12:07:26</time>
      </trkpt>
      <trkpt lat="42.68972" lon="-2.29729">
        <ele>528.4</ele>
        <time>2021-07-25 12:07:30</time>
      </trkpt>
      <trkpt lat="42.6898" lon="-2.29736">
        <ele>529.2</ele>
        <time>2021-07-25 12:07:34</time>
      </trkpt>
      <trkpt lat="42.68989" lon="-2.29743">
        <ele>529.2</ele>
        <time>2021-07-25 12:07:38</time>
      </trkpt>
      <trkpt lat="42.68998" lon="-2.2975">
        <ele>529.4</ele>
        <time>2021-07-25 12:07:42</time>
      </trkpt>
      <trkpt lat="42.69007" lon="-2.29758">
        <ele>530</ele>
        <time>2021-07-25 12:07:46</time>
      </trkpt>
      <trkpt lat="42.69016" lon="-2.29766">
        <ele>529.4</ele>
        <time>2021-07-25 12:07:50</time>
      </trkpt>
      <trkpt lat="42.69026" lon="-2.29775">
        <ele>529.6</ele>
        <time>2021-07-25 12:07:54</time>
      </trkpt>
      <trkpt lat="42.69035" lon="-2.29785">
        <ele>530.2</ele>
        <time>2021-07-25 12:07:58</time>
      </trkpt>
      <trkpt lat="42.69043" lon="-2.29795">
        <ele>530.2</ele>
        <time>2021-07-25 12:08:02</time>
      </trkpt>
      <trkpt lat="42.69051" lon="-2.29805">
        <ele>530.6</ele>
        <time>2021-07-25 12:08:06</time>
      </trkpt>
      <trkpt lat="42.69058" lon="-2.29815">
        <ele>530.2</ele>
        <time>2021-07-25 12:08:10</time>
      </trkpt>
      <trkpt lat="42.69067" lon="-2.29822">
        <ele>530.8</ele>
        <time>2021-07-25 12:08:14</time>
      </trkpt>
      <trkpt lat="42.69075" lon="-2.29829">
        <ele>531</ele>
        <time>2021-07-25 12:08:18</time>
      </trkpt>
      <trkpt lat="42.69083" lon="-2.29837">
        <ele>532</ele>
        <time>2021-07-25 12:08:22</time>
      </trkpt>
      <trkpt lat="42.69092" lon="-2.29844">
        <ele>532.2</ele>
        <time>2021-07-25 12:08:26</time>
      </trkpt>
      <trkpt lat="42.691" lon="-2.29851">
        <ele>532.6</ele>
        <time>2021-07-25 12:08:30</time>
      </trkpt>
      <trkpt lat="42.69108" lon="-2.29856">
        <ele>533.2</ele>
        <time>2021-07-25 12:08:34</time>
      </trkpt>
      <trkpt lat="42.69116" lon="-2.29863">
        <ele>534</ele>
        <time>2021-07-25 12:08:38</time>
      </trkpt>
      <trkpt lat="42.69125" lon="-2.29868">
        <ele>534.2</ele>
        <time>2021-07-25 12:08:42</time>
      </trkpt>
      <trkpt lat="42.69134" lon="-2.29875">
        <ele>535.2</ele>
        <time>2021-07-25 12:08:46</time>
      </trkpt>
      <trkpt lat="42.69141" lon="-2.29881">
        <ele>534.8</ele>
        <time>2021-07-25 12:08:50</time>
      </trkpt>
      <trkpt lat="42.69145" lon="-2.29888">
        <ele>535.2</ele>
        <time>2021-07-25 12:08:54</time>
      </trkpt>
      <trkpt lat="42.69149" lon="-2.29897">
        <ele>534.8</ele>
        <time>2021-07-25 12:08:58</time>
      </trkpt>
      <trkpt lat="42.69153" lon="-2.29908">
        <ele>535.2</ele>
        <time>2021-07-25 12:09:02</time>
      </trkpt>
      <trkpt lat="42.69161" lon="-2.29915">
        <ele>535.2</ele>
        <time>2021-07-25 12:09:06</time>
      </trkpt>
      <trkpt lat="42.6917" lon="-2.2992">
        <ele>536.2</ele>
        <time>2021-07-25 12:09:10</time>
      </trkpt>
      <trkpt lat="42.69177" lon="-2.29927">
        <ele>536.4</ele>
        <time>2021-07-25 12:09:14</time>
      </trkpt>
      <trkpt lat="42.69185" lon="-2.29934">
        <ele>537</ele>
        <time>2021-07-25 12:09:18</time>
      </trkpt>
      <trkpt lat="42.6919" lon="-2.2994">
        <ele>537.4</ele>
        <time>2021-07-25 12:09:22</time>
      </trkpt>
      <trkpt lat="42.69194" lon="-2.29943">
        <ele>537.4</ele>
        <time>2021-07-25 12:09:26</time>
      </trkpt>
      <trkpt lat="42.692" lon="-2.29948">
        <ele>537.8</ele>
        <time>2021-07-25 12:09:30</time>
      </trkpt>
      <trkpt lat="42.69206" lon="-2.29954">
        <ele>538</ele>
        <time>2021-07-25 12:09:34</time>
      </trkpt>
      <trkpt lat="42.69212" lon="-2.29959">
        <ele>538.4</ele>
        <time>2021-07-25 12:09:38</time>
      </trkpt>
      <trkpt lat="42.69216" lon="-2.29964">
        <ele>538.6</ele>
        <time>2021-07-25 12:09:42</time>
      </trkpt>
      <trkpt lat="42.69223" lon="-2.29969">
        <ele>538.8</ele>
        <time>2021-07-25 12:09:46</time>
      </trkpt>
      <trkpt lat="42.69229" lon="-2.29974">
        <ele>539.6</ele>
        <time>2021-07-25 12:09:50</time>
      </trkpt>
      <trkpt lat="42.69235" lon="-2.2998">
        <ele>540</ele>
        <time>2021-07-25 12:09:54</time>
      </trkpt>
      <trkpt lat="42.69242" lon="-2.29985">
        <ele>540</ele>
        <time>2021-07-25 12:09:58</time>
      </trkpt>
      <trkpt lat="42.69248" lon="-2.29991">
        <ele>540.8</ele>
        <time>2021-07-25 12:10:02</time>
      </trkpt>
      <trkpt lat="42.69254" lon="-2.29995">
        <ele>541</ele>
        <time>2021-07-25 12:10:06</time>
      </trkpt>
      <trkpt lat="42.6926" lon="-2.30001">
        <ele>541.4</ele>
        <time>2021-07-25 12:10:10</time>
      </trkpt>
      <trkpt lat="42.69265" lon="-2.30008">
        <ele>541.8</ele>
        <time>2021-07-25 12:10:14</time>
      </trkpt>
      <trkpt lat="42.69269" lon="-2.30017">
        <ele>542.2</ele>
        <time>2021-07-25 12:10:18</time>
      </trkpt>
      <trkpt lat="42.69273" lon="-2.30026">
        <ele>542.2</ele>
        <time>2021-07-25 12:10:22</time>
      </trkpt>
      <trkpt lat="42.69276" lon="-2.30035">
        <ele>542.8</ele>
        <time>2021-07-25 12:10:26</time>
      </trkpt>
      <trkpt lat="42.6928" lon="-2.30042">
        <ele>543.2</ele>
        <time>2021-07-25 12:10:30</time>
      </trkpt>
      <trkpt lat="42.69284" lon="-2.30049">
        <ele>543</ele>
        <time>2021-07-25 12:10:34</time>
      </trkpt>
      <trkpt lat="42.69288" lon="-2.30058">
        <ele>543.2</ele>
        <time>2021-07-25 12:10:38</time>
      </trkpt>
      <trkpt lat="42.69294" lon="-2.30067">
        <ele>543.6</ele>
        <time>2021-07-25 12:10:42</time>
      </trkpt>
      <trkpt lat="42.69298" lon="-2.30077">
        <ele>544</ele>
        <time>2021-07-25 12:10:46</time>
      </trkpt>
      <trkpt lat="42.69302" lon="-2.30086">
        <ele>544.6</ele>
        <time>2021-07-25 12:10:50</time>
      </trkpt>
      <trkpt lat="42.69305" lon="-2.30097">
        <ele>544.4</ele>
        <time>2021-07-25 12:10:54</time>
      </trkpt>
      <trkpt lat="42.69308" lon="-2.30108">
        <ele>544.2</ele>
        <time>2021-07-25 12:10:58</time>
      </trkpt>
      <trkpt lat="42.69311" lon="-2.3012">
        <ele>544.6</ele>
        <time>2021-07-25 12:11:02</time>
      </trkpt>
      <trkpt lat="42.69313" lon="-2.3013">
        <ele>545</ele>
        <time>2021-07-25 12:11:06</time>
      </trkpt>
      <trkpt lat="42.69313" lon="-2.30137">
        <ele>545.4</ele>
        <time>2021-07-25 12:11:10</time>
      </trkpt>
      <trkpt lat="42.69313" lon="-2.30137">
        <ele>545.2</ele>
        <time>2021-07-25 12:11:14</time>
      </trkpt>
      <trkpt lat="42.69313" lon="-2.30137">
        <ele>545.4</ele>
        <time>2021-07-25 12:11:18</time>
      </trkpt>
      <trkpt lat="42.69313" lon="-2.30137">
        <ele>545.4</ele>
        <time>2021-07-25 12:11:22</time>
      </trkpt>
      <trkpt lat="42.69313" lon="-2.30137">
        <ele>544.8</ele>
        <time>2021-07-25 12:11:26</time>
      </trkpt>
      <trkpt lat="42.69313" lon="-2.30137">
        <ele>545</ele>
        <time>2021-07-25 12:11:30</time>
      </trkpt>
      <trkpt lat="42.69313" lon="-2.30139">
        <ele>544.8</ele>
        <time>2021-07-25 12:11:34</time>
      </trkpt>
      <trkpt lat="42.69313" lon="-2.30139">
        <ele>545.2</ele>
        <time>2021-07-25 12:11:38</time>
      </trkpt>
      <trkpt lat="42.69313" lon="-2.30139">
        <ele>544.8</ele>
        <time>2021-07-25 12:11:42</time>
      </trkpt>
      <trkpt lat="42.69313" lon="-2.30139">
        <ele>545.4</ele>
        <time>2021-07-25 12:11:46</time>
      </trkpt>
      <trkpt lat="42.69313" lon="-2.30139">
        <ele>545</ele>
        <time>2021-07-25 12:11:50</time>
      </trkpt>
      <trkpt lat="42.69313" lon="-2.30139">
        <ele>545.2</ele>
        <time>2021-07-25 12:11:54</time>
      </trkpt>
      <trkpt lat="42.69313" lon="-2.30139">
        <ele>545</ele>
        <time>2021-07-25 12:11:58</time>
      </trkpt>
      <trkpt lat="42.69313" lon="-2.30139">
        <ele>545.2</ele>
        <time>2021-07-25 12:12:02</time>
      </trkpt>
      <trkpt lat="42.69313" lon="-2.30139">
        <ele>545.2</ele>
        <time>2021-07-25 12:12:06</time>
      </trkpt>
      <trkpt lat="42.69313" lon="-2.30139">
        <ele>545.4</ele>
        <time>2021-07-25 12:12:10</time>
      </trkpt>
      <trkpt lat="42.69313" lon="-2.30139">
        <ele>545</ele>
        <time>2021-07-25 12:12:14</time>
      </trkpt>
      <trkpt lat="42.69313" lon="-2.30139">
        <ele>545.4</ele>
        <time>2021-07-25 12:12:18</time>
      </trkpt>
      <trkpt lat="42.69314" lon="-2.30146">
        <ele>544.8</ele>
        <time>2021-07-25 12:12:22</time>
      </trkpt>
      <trkpt lat="42.69317" lon="-2.3016">
        <ele>544</ele>
        <time>2021-07-25 12:12:26</time>
      </trkpt>
      <trkpt lat="42.69321" lon="-2.30179">
        <ele>542.4</ele>
        <time>2021-07-25 12:12:30</time>
      </trkpt>
      <trkpt lat="42.69328" lon="-2.30203">
        <ele>541</ele>
        <time>2021-07-25 12:12:34</time>
      </trkpt>
      <trkpt lat="42.69338" lon="-2.30231">
        <ele>539.6</ele>
        <time>2021-07-25 12:12:38</time>
      </trkpt>
      <trkpt lat="42.6934" lon="-2.30259">
        <ele>538.6</ele>
        <time>2021-07-25 12:12:42</time>
      </trkpt>
      <trkpt lat="42.69322" lon="-2.30283">
        <ele>536.2</ele>
        <time>2021-07-25 12:12:46</time>
      </trkpt>
      <trkpt lat="42.69301" lon="-2.30305">
        <ele>536.4</ele>
        <time>2021-07-25 12:12:50</time>
      </trkpt>
      <trkpt lat="42.69282" lon="-2.30325">
        <ele>536.8</ele>
        <time>2021-07-25 12:12:54</time>
      </trkpt>
      <trkpt lat="42.69265" lon="-2.30344">
        <ele>536.8</ele>
        <time>2021-07-25 12:12:58</time>
      </trkpt>
      <trkpt lat="42.69248" lon="-2.30362">
        <ele>536.6</ele>
        <time>2021-07-25 12:13:02</time>
      </trkpt>
      <trkpt lat="42.69234" lon="-2.30382">
        <ele>536.6</ele>
        <time>2021-07-25 12:13:06</time>
      </trkpt>
      <trkpt lat="42.69221" lon="-2.304">
        <ele>537</ele>
        <time>2021-07-25 12:13:10</time>
      </trkpt>
      <trkpt lat="42.69205" lon="-2.30414">
        <ele>537.4</ele>
        <time>2021-07-25 12:13:14</time>
      </trkpt>
      <trkpt lat="42.6919" lon="-2.30427">
        <ele>537.8</ele>
        <time>2021-07-25 12:13:18</time>
      </trkpt>
      <trkpt lat="42.69176" lon="-2.30438">
        <ele>538.2</ele>
        <time>2021-07-25 12:13:22</time>
      </trkpt>
      <trkpt lat="42.69162" lon="-2.30451">
        <ele>538.2</ele>
        <time>2021-07-25 12:13:26</time>
      </trkpt>
      <trkpt lat="42.6915" lon="-2.30467">
        <ele>539</ele>
        <time>2021-07-25 12:13:30</time>
      </trkpt>
      <trkpt lat="42.69139" lon="-2.30484">
        <ele>538</ele>
        <time>2021-07-25 12:13:34</time>
      </trkpt>
      <trkpt lat="42.69128" lon="-2.30502">
        <ele>538.2</ele>
        <time>2021-07-25 12:13:38</time>
      </trkpt>
      <trkpt lat="42.69119" lon="-2.30519">
        <ele>538.4</ele>
        <time>2021-07-25 12:13:42</time>
      </trkpt>
      <trkpt lat="42.6911" lon="-2.30536">
        <ele>538.6</ele>
        <time>2021-07-25 12:13:46</time>
      </trkpt>
      <trkpt lat="42.691" lon="-2.30552">
        <ele>538.6</ele>
        <time>2021-07-25 12:13:50</time>
      </trkpt>
      <trkpt lat="42.6909" lon="-2.30569">
        <ele>538.4</ele>
        <time>2021-07-25 12:13:54</time>
      </trkpt>
      <trkpt lat="42.69081" lon="-2.30585">
        <ele>538.8</ele>
        <time>2021-07-25 12:13:58</time>
      </trkpt>
      <trkpt lat="42.69072" lon="-2.30602">
        <ele>538.2</ele>
        <time>2021-07-25 12:14:02</time>
      </trkpt>
      <trkpt lat="42.69063" lon="-2.30619">
        <ele>539.4</ele>
        <time>2021-07-25 12:14:06</time>
      </trkpt>
      <trkpt lat="42.69055" lon="-2.30635">
        <ele>539.6</ele>
        <time>2021-07-25 12:14:10</time>
      </trkpt>
      <trkpt lat="42.69046" lon="-2.30652">
        <ele>540</ele>
        <time>2021-07-25 12:14:14</time>
      </trkpt>
      <trkpt lat="42.69037" lon="-2.30668">
        <ele>540.4</ele>
        <time>2021-07-25 12:14:18</time>
      </trkpt>
      <trkpt lat="42.69029" lon="-2.30687">
        <ele>540</ele>
        <time>2021-07-25 12:14:22</time>
      </trkpt>
      <trkpt lat="42.6902" lon="-2.30706">
        <ele>540</ele>
        <time>2021-07-25 12:14:26</time>
      </trkpt>
      <trkpt lat="42.6901" lon="-2.30725">
        <ele>540</ele>
        <time>2021-07-25 12:14:30</time>
      </trkpt>
      <trkpt lat="42.69001" lon="-2.30746">
        <ele>539.8</ele>
        <time>2021-07-25 12:14:34</time>
      </trkpt>
      <trkpt lat="42.6899" lon="-2.30768">
        <ele>539.6</ele>
        <time>2021-07-25 12:14:38</time>
      </trkpt>
      <trkpt lat="42.68979" lon="-2.30791">
        <ele>539</ele>
        <time>2021-07-25 12:14:42</time>
      </trkpt>
      <trkpt lat="42.68968" lon="-2.30814">
        <ele>538.2</ele>
        <time>2021-07-25 12:14:46</time>
      </trkpt>
      <trkpt lat="42.68957" lon="-2.30839">
        <ele>537.8</ele>
        <time>2021-07-25 12:14:50</time>
      </trkpt>
      <trkpt lat="42.68945" lon="-2.30863">
        <ele>537.4</ele>
        <time>2021-07-25 12:14:54</time>
      </trkpt>
      <trkpt lat="42.68933" lon="-2.30888">
        <ele>536.8</ele>
        <time>2021-07-25 12:14:58</time>
      </trkpt>
      <trkpt lat="42.68921" lon="-2.30913">
        <ele>537.4</ele>
        <time>2021-07-25 12:15:02</time>
      </trkpt>
      <trkpt lat="42.68909" lon="-2.30938">
        <ele>537</ele>
        <time>2021-07-25 12:15:06</time>
      </trkpt>
      <trkpt lat="42.68897" lon="-2.30964">
        <ele>537</ele>
        <time>2021-07-25 12:15:10</time>
      </trkpt>
      <trkpt lat="42.68885" lon="-2.30989">
        <ele>536.8</ele>
        <time>2021-07-25 12:15:14</time>
      </trkpt>
      <trkpt lat="42.68873" lon="-2.31014">
        <ele>536.2</ele>
        <time>2021-07-25 12:15:18</time>
      </trkpt>
      <trkpt lat="42.68861" lon="-2.3104">
        <ele>536.4</ele>
        <time>2021-07-25 12:15:22</time>
      </trkpt>
      <trkpt lat="42.68849" lon="-2.31065">
        <ele>535.8</ele>
        <time>2021-07-25 12:15:26</time>
      </trkpt>
      <trkpt lat="42.68836" lon="-2.31091">
        <ele>535.8</ele>
        <time>2021-07-25 12:15:30</time>
      </trkpt>
      <trkpt lat="42.68824" lon="-2.31116">
        <ele>536.4</ele>
        <time>2021-07-25 12:15:34</time>
      </trkpt>
      <trkpt lat="42.68813" lon="-2.3114">
        <ele>536</ele>
        <time>2021-07-25 12:15:38</time>
      </trkpt>
      <trkpt lat="42.68802" lon="-2.31165">
        <ele>536.2</ele>
        <time>2021-07-25 12:15:42</time>
      </trkpt>
      <trkpt lat="42.6879" lon="-2.31189">
        <ele>536.4</ele>
        <time>2021-07-25 12:15:46</time>
      </trkpt>
      <trkpt lat="42.68778" lon="-2.31212">
        <ele>536.4</ele>
        <time>2021-07-25 12:15:50</time>
      </trkpt>
      <trkpt lat="42.68769" lon="-2.31232">
        <ele>535.6</ele>
        <time>2021-07-25 12:15:54</time>
      </trkpt>
      <trkpt lat="42.68759" lon="-2.31253">
        <ele>535</ele>
        <time>2021-07-25 12:15:58</time>
      </trkpt>
      <trkpt lat="42.6875" lon="-2.31274">
        <ele>534</ele>
        <time>2021-07-25 12:16:02</time>
      </trkpt>
      <trkpt lat="42.68738" lon="-2.31295">
        <ele>533.4</ele>
        <time>2021-07-25 12:16:06</time>
      </trkpt>
      <trkpt lat="42.68725" lon="-2.31318">
        <ele>532.6</ele>
        <time>2021-07-25 12:16:10</time>
      </trkpt>
      <trkpt lat="42.68711" lon="-2.31341">
        <ele>532.6</ele>
        <time>2021-07-25 12:16:14</time>
      </trkpt>
      <trkpt lat="42.68696" lon="-2.31361">
        <ele>532.2</ele>
        <time>2021-07-25 12:16:18</time>
      </trkpt>
      <trkpt lat="42.68679" lon="-2.31383">
        <ele>531.8</ele>
        <time>2021-07-25 12:16:22</time>
      </trkpt>
      <trkpt lat="42.68661" lon="-2.31402">
        <ele>530.6</ele>
        <time>2021-07-25 12:16:26</time>
      </trkpt>
      <trkpt lat="42.68643" lon="-2.31417">
        <ele>532</ele>
        <time>2021-07-25 12:16:30</time>
      </trkpt>
      <trkpt lat="42.68627" lon="-2.3143">
        <ele>531.4</ele>
        <time>2021-07-25 12:16:34</time>
      </trkpt>
      <trkpt lat="42.68612" lon="-2.31441">
        <ele>531.8</ele>
        <time>2021-07-25 12:16:38</time>
      </trkpt>
      <trkpt lat="42.68598" lon="-2.3145">
        <ele>532</ele>
        <time>2021-07-25 12:16:42</time>
      </trkpt>
      <trkpt lat="42.68585" lon="-2.31461">
        <ele>532.2</ele>
        <time>2021-07-25 12:16:46</time>
      </trkpt>
      <trkpt lat="42.68571" lon="-2.31471">
        <ele>531.8</ele>
        <time>2021-07-25 12:16:50</time>
      </trkpt>
      <trkpt lat="42.68557" lon="-2.31482">
        <ele>532</ele>
        <time>2021-07-25 12:16:54</time>
      </trkpt>
      <trkpt lat="42.68544" lon="-2.31493">
        <ele>532.2</ele>
        <time>2021-07-25 12:16:58</time>
      </trkpt>
      <trkpt lat="42.68531" lon="-2.31503">
        <ele>532.6</ele>
        <time>2021-07-25 12:17:02</time>
      </trkpt>
      <trkpt lat="42.68518" lon="-2.31513">
        <ele>532.6</ele>
        <time>2021-07-25 12:17:06</time>
      </trkpt>
      <trkpt lat="42.68505" lon="-2.31523">
        <ele>533.4</ele>
        <time>2021-07-25 12:17:10</time>
      </trkpt>
      <trkpt lat="42.68493" lon="-2.31532">
        <ele>533.6</ele>
        <time>2021-07-25 12:17:14</time>
      </trkpt>
      <trkpt lat="42.68481" lon="-2.31541">
        <ele>534.6</ele>
        <time>2021-07-25 12:17:18</time>
      </trkpt>
      <trkpt lat="42.68471" lon="-2.3155">
        <ele>534.4</ele>
        <time>2021-07-25 12:17:22</time>
      </trkpt>
      <trkpt lat="42.68461" lon="-2.31558">
        <ele>535</ele>
        <time>2021-07-25 12:17:26</time>
      </trkpt>
      <trkpt lat="42.68451" lon="-2.31565">
        <ele>534.8</ele>
        <time>2021-07-25 12:17:30</time>
      </trkpt>
      <trkpt lat="42.68442" lon="-2.31571">
        <ele>535</ele>
        <time>2021-07-25 12:17:34</time>
      </trkpt>
      <trkpt lat="42.68433" lon="-2.31577">
        <ele>535.6</ele>
        <time>2021-07-25 12:17:38</time>
      </trkpt>
      <trkpt lat="42.68423" lon="-2.31584">
        <ele>536</ele>
        <time>2021-07-25 12:17:42</time>
      </trkpt>
      <trkpt lat="42.68413" lon="-2.31591">
        <ele>536.2</ele>
        <time>2021-07-25 12:17:46</time>
      </trkpt>
      <trkpt lat="42.68403" lon="-2.31598">
        <ele>535.8</ele>
        <time>2021-07-25 12:17:50</time>
      </trkpt>
      <trkpt lat="42.68392" lon="-2.31606">
        <ele>536.4</ele>
        <time>2021-07-25 12:17:54</time>
      </trkpt>
      <trkpt lat="42.68381" lon="-2.31613">
        <ele>535.4</ele>
        <time>2021-07-25 12:17:58</time>
      </trkpt>
      <trkpt lat="42.6837" lon="-2.31621">
        <ele>536.2</ele>
        <time>2021-07-25 12:18:02</time>
      </trkpt>
      <trkpt lat="42.68359" lon="-2.3163">
        <ele>535.6</ele>
        <time>2021-07-25 12:18:06</time>
      </trkpt>
      <trkpt lat="42.68348" lon="-2.31638">
        <ele>535.6</ele>
        <time>2021-07-25 12:18:10</time>
      </trkpt>
      <trkpt lat="42.68338" lon="-2.31647">
        <ele>535.8</ele>
        <time>2021-07-25 12:18:14</time>
      </trkpt>
      <trkpt lat="42.6833" lon="-2.31656">
        <ele>535.6</ele>
        <time>2021-07-25 12:18:18</time>
      </trkpt>
      <trkpt lat="42.68321" lon="-2.31658">
        <ele>536.8</ele>
        <time>2021-07-25 12:18:22</time>
      </trkpt>
      <trkpt lat="42.68314" lon="-2.31654">
        <ele>536.6</ele>
        <time>2021-07-25 12:18:26</time>
      </trkpt>
      <trkpt lat="42.68308" lon="-2.31652">
        <ele>536.4</ele>
        <time>2021-07-25 12:18:30</time>
      </trkpt>
      <trkpt lat="42.683" lon="-2.31651">
        <ele>536.2</ele>
        <time>2021-07-25 12:18:34</time>
      </trkpt>
      <trkpt lat="42.683" lon="-2.31651">
        <ele>536.2</ele>
        <time>2021-07-25 12:18:38</time>
      </trkpt>
      <trkpt lat="42.683" lon="-2.31651">
        <ele>536.4</ele>
        <time>2021-07-25 12:18:42</time>
      </trkpt>
      <trkpt lat="42.683" lon="-2.31651">
        <ele>536.2</ele>
        <time>2021-07-25 12:18:46</time>
      </trkpt>
      <trkpt lat="42.683" lon="-2.31651">
        <ele>535.8</ele>
        <time>2021-07-25 12:18:50</time>
      </trkpt>
      <trkpt lat="42.68294" lon="-2.31652">
        <ele>535.8</ele>
        <time>2021-07-25 12:18:54</time>
      </trkpt>
      <trkpt lat="42.68296" lon="-2.31646">
        <ele>535.8</ele>
        <time>2021-07-25 12:18:58</time>
      </trkpt>
      <trkpt lat="42.68296" lon="-2.31646">
        <ele>536</ele>
        <time>2021-07-25 12:19:02</time>
      </trkpt>
      <trkpt lat="42.68296" lon="-2.31646">
        <ele>536.2</ele>
        <time>2021-07-25 12:19:06</time>
      </trkpt>
      <trkpt lat="42.68296" lon="-2.31646">
        <ele>536.2</ele>
        <time>2021-07-25 12:19:10</time>
      </trkpt>
      <trkpt lat="42.68296" lon="-2.31643">
        <ele>536</ele>
        <time>2021-07-25 12:19:14</time>
      </trkpt>
      <trkpt lat="42.68292" lon="-2.31631">
        <ele>535.8</ele>
        <time>2021-07-25 12:19:18</time>
      </trkpt>
      <trkpt lat="42.68286" lon="-2.31618">
        <ele>535.4</ele>
        <time>2021-07-25 12:19:22</time>
      </trkpt>
      <trkpt lat="42.6828" lon="-2.31604">
        <ele>534.8</ele>
        <time>2021-07-25 12:19:26</time>
      </trkpt>
      <trkpt lat="42.68273" lon="-2.3159">
        <ele>534.8</ele>
        <time>2021-07-25 12:19:30</time>
      </trkpt>
      <trkpt lat="42.68266" lon="-2.31575">
        <ele>535.2</ele>
        <time>2021-07-25 12:19:34</time>
      </trkpt>
      <trkpt lat="42.68258" lon="-2.31558">
        <ele>534.8</ele>
        <time>2021-07-25 12:19:38</time>
      </trkpt>
      <trkpt lat="42.6825" lon="-2.31542">
        <ele>534.4</ele>
        <time>2021-07-25 12:19:42</time>
      </trkpt>
      <trkpt lat="42.68243" lon="-2.31527">
        <ele>534</ele>
        <time>2021-07-25 12:19:46</time>
      </trkpt>
      <trkpt lat="42.68236" lon="-2.31515">
        <ele>533.4</ele>
        <time>2021-07-25 12:19:50</time>
      </trkpt>
      <trkpt lat="42.68226" lon="-2.31516">
        <ele>532</ele>
        <time>2021-07-25 12:19:54</time>
      </trkpt>
      <trkpt lat="42.68221" lon="-2.31532">
        <ele>530.6</ele>
        <time>2021-07-25 12:19:58</time>
      </trkpt>
      <trkpt lat="42.68215" lon="-2.31551">
        <ele>531</ele>
        <time>2021-07-25 12:20:02</time>
      </trkpt>
      <trkpt lat="42.68209" lon="-2.31571">
        <ele>530.6</ele>
        <time>2021-07-25 12:20:06</time>
      </trkpt>
      <trkpt lat="42.68203" lon="-2.31593">
        <ele>530.2</ele>
        <time>2021-07-25 12:20:10</time>
      </trkpt>
      <trkpt lat="42.68196" lon="-2.31618">
        <ele>530.6</ele>
        <time>2021-07-25 12:20:14</time>
      </trkpt>
      <trkpt lat="42.68188" lon="-2.31644">
        <ele>529.4</ele>
        <time>2021-07-25 12:20:18</time>
      </trkpt>
      <trkpt lat="42.68181" lon="-2.31671">
        <ele>528.4</ele>
        <time>2021-07-25 12:20:22</time>
      </trkpt>
      <trkpt lat="42.68173" lon="-2.31699">
        <ele>527.8</ele>
        <time>2021-07-25 12:20:26</time>
      </trkpt>
      <trkpt lat="42.68165" lon="-2.31728">
        <ele>527.2</ele>
        <time>2021-07-25 12:20:30</time>
      </trkpt>
      <trkpt lat="42.68157" lon="-2.31758">
        <ele>527</ele>
        <time>2021-07-25 12:20:34</time>
      </trkpt>
      <trkpt lat="42.68149" lon="-2.31788">
        <ele>527.4</ele>
        <time>2021-07-25 12:20:38</time>
      </trkpt>
      <trkpt lat="42.68141" lon="-2.31817">
        <ele>526.4</ele>
        <time>2021-07-25 12:20:42</time>
      </trkpt>
      <trkpt lat="42.68133" lon="-2.31845">
        <ele>527.2</ele>
        <time>2021-07-25 12:20:46</time>
      </trkpt>
      <trkpt lat="42.68126" lon="-2.31873">
        <ele>527.6</ele>
        <time>2021-07-25 12:20:50</time>
      </trkpt>
      <trkpt lat="42.68118" lon="-2.319">
        <ele>527</ele>
        <time>2021-07-25 12:20:54</time>
      </trkpt>
      <trkpt lat="42.68111" lon="-2.31928">
        <ele>527</ele>
        <time>2021-07-25 12:20:58</time>
      </trkpt>
      <trkpt lat="42.68103" lon="-2.31955">
        <ele>526.4</ele>
        <time>2021-07-25 12:21:02</time>
      </trkpt>
      <trkpt lat="42.68096" lon="-2.31981">
        <ele>526.8</ele>
        <time>2021-07-25 12:21:06</time>
      </trkpt>
      <trkpt lat="42.6809" lon="-2.32007">
        <ele>526.8</ele>
        <time>2021-07-25 12:21:10</time>
      </trkpt>
      <trkpt lat="42.68082" lon="-2.32033">
        <ele>526.8</ele>
        <time>2021-07-25 12:21:14</time>
      </trkpt>
      <trkpt lat="42.68076" lon="-2.32058">
        <ele>527</ele>
        <time>2021-07-25 12:21:18</time>
      </trkpt>
      <trkpt lat="42.68069" lon="-2.32083">
        <ele>526.2</ele>
        <time>2021-07-25 12:21:22</time>
      </trkpt>
      <trkpt lat="42.68062" lon="-2.32109">
        <ele>525.8</ele>
        <time>2021-07-25 12:21:26</time>
      </trkpt>
      <trkpt lat="42.68055" lon="-2.32134">
        <ele>525.8</ele>
        <time>2021-07-25 12:21:30</time>
      </trkpt>
      <trkpt lat="42.68048" lon="-2.3216">
        <ele>524.6</ele>
        <time>2021-07-25 12:21:34</time>
      </trkpt>
      <trkpt lat="42.68041" lon="-2.32186">
        <ele>524.6</ele>
        <time>2021-07-25 12:21:38</time>
      </trkpt>
      <trkpt lat="42.68034" lon="-2.32213">
        <ele>524.4</ele>
        <time>2021-07-25 12:21:42</time>
      </trkpt>
      <trkpt lat="42.68026" lon="-2.3224">
        <ele>524.2</ele>
        <time>2021-07-25 12:21:46</time>
      </trkpt>
      <trkpt lat="42.68019" lon="-2.32268">
        <ele>523.4</ele>
        <time>2021-07-25 12:21:50</time>
      </trkpt>
      <trkpt lat="42.68011" lon="-2.32297">
        <ele>523</ele>
        <time>2021-07-25 12:21:54</time>
      </trkpt>
      <trkpt lat="42.68003" lon="-2.32326">
        <ele>523</ele>
        <time>2021-07-25 12:21:58</time>
      </trkpt>
      <trkpt lat="42.67995" lon="-2.32356">
        <ele>522.2</ele>
        <time>2021-07-25 12:22:02</time>
      </trkpt>
      <trkpt lat="42.67987" lon="-2.32386">
        <ele>521.6</ele>
        <time>2021-07-25 12:22:06</time>
      </trkpt>
      <trkpt lat="42.67978" lon="-2.32417">
        <ele>520.8</ele>
        <time>2021-07-25 12:22:10</time>
      </trkpt>
      <trkpt lat="42.6797" lon="-2.32448">
        <ele>520</ele>
        <time>2021-07-25 12:22:14</time>
      </trkpt>
      <trkpt lat="42.67961" lon="-2.32479">
        <ele>519.4</ele>
        <time>2021-07-25 12:22:18</time>
      </trkpt>
      <trkpt lat="42.67953" lon="-2.3251">
        <ele>520</ele>
        <time>2021-07-25 12:22:22</time>
      </trkpt>
      <trkpt lat="42.67945" lon="-2.32541">
        <ele>519.4</ele>
        <time>2021-07-25 12:22:26</time>
      </trkpt>
      <trkpt lat="42.67936" lon="-2.3257">
        <ele>519</ele>
        <time>2021-07-25 12:22:30</time>
      </trkpt>
      <trkpt lat="42.67929" lon="-2.32598">
        <ele>519.6</ele>
        <time>2021-07-25 12:22:34</time>
      </trkpt>
      <trkpt lat="42.67921" lon="-2.32626">
        <ele>520.2</ele>
        <time>2021-07-25 12:22:38</time>
      </trkpt>
      <trkpt lat="42.67913" lon="-2.32653">
        <ele>520</ele>
        <time>2021-07-25 12:22:42</time>
      </trkpt>
      <trkpt lat="42.67906" lon="-2.32679">
        <ele>519.4</ele>
        <time>2021-07-25 12:22:46</time>
      </trkpt>
      <trkpt lat="42.67899" lon="-2.32705">
        <ele>520</ele>
        <time>2021-07-25 12:22:50</time>
      </trkpt>
      <trkpt lat="42.67892" lon="-2.32729">
        <ele>519.8</ele>
        <time>2021-07-25 12:22:54</time>
      </trkpt>
      <trkpt lat="42.67886" lon="-2.32752">
        <ele>521.2</ele>
        <time>2021-07-25 12:22:58</time>
      </trkpt>
      <trkpt lat="42.6788" lon="-2.32775">
        <ele>520</ele>
        <time>2021-07-25 12:23:02</time>
      </trkpt>
      <trkpt lat="42.67874" lon="-2.32798">
        <ele>520</ele>
        <time>2021-07-25 12:23:06</time>
      </trkpt>
      <trkpt lat="42.67868" lon="-2.3282">
        <ele>520.2</ele>
        <time>2021-07-25 12:23:10</time>
      </trkpt>
      <trkpt lat="42.67862" lon="-2.32842">
        <ele>521.2</ele>
        <time>2021-07-25 12:23:14</time>
      </trkpt>
      <trkpt lat="42.67856" lon="-2.32864">
        <ele>520.8</ele>
        <time>2021-07-25 12:23:18</time>
      </trkpt>
      <trkpt lat="42.6785" lon="-2.32885">
        <ele>521.2</ele>
        <time>2021-07-25 12:23:22</time>
      </trkpt>
      <trkpt lat="42.67844" lon="-2.32905">
        <ele>521.4</ele>
        <time>2021-07-25 12:23:26</time>
      </trkpt>
      <trkpt lat="42.67839" lon="-2.32926">
        <ele>521.4</ele>
        <time>2021-07-25 12:23:30</time>
      </trkpt>
      <trkpt lat="42.67833" lon="-2.32947">
        <ele>521.2</ele>
        <time>2021-07-25 12:23:34</time>
      </trkpt>
      <trkpt lat="42.67828" lon="-2.32967">
        <ele>521.4</ele>
        <time>2021-07-25 12:23:38</time>
      </trkpt>
      <trkpt lat="42.67824" lon="-2.32989">
        <ele>521.2</ele>
        <time>2021-07-25 12:23:42</time>
      </trkpt>
      <trkpt lat="42.67817" lon="-2.33009">
        <ele>520.8</ele>
        <time>2021-07-25 12:23:46</time>
      </trkpt>
      <trkpt lat="42.67811" lon="-2.3303">
        <ele>521.4</ele>
        <time>2021-07-25 12:23:50</time>
      </trkpt>
      <trkpt lat="42.67805" lon="-2.33051">
        <ele>521.6</ele>
        <time>2021-07-25 12:23:54</time>
      </trkpt>
      <trkpt lat="42.67799" lon="-2.33073">
        <ele>521.4</ele>
        <time>2021-07-25 12:23:58</time>
      </trkpt>
      <trkpt lat="42.67793" lon="-2.33095">
        <ele>521.6</ele>
        <time>2021-07-25 12:24:02</time>
      </trkpt>
      <trkpt lat="42.67787" lon="-2.33118">
        <ele>521.2</ele>
        <time>2021-07-25 12:24:06</time>
      </trkpt>
      <trkpt lat="42.6778" lon="-2.33141">
        <ele>521</ele>
        <time>2021-07-25 12:24:10</time>
      </trkpt>
      <trkpt lat="42.67773" lon="-2.33166">
        <ele>520.2</ele>
        <time>2021-07-25 12:24:14</time>
      </trkpt>
      <trkpt lat="42.67766" lon="-2.33191">
        <ele>520.2</ele>
        <time>2021-07-25 12:24:18</time>
      </trkpt>
      <trkpt lat="42.67759" lon="-2.33217">
        <ele>519.6</ele>
        <time>2021-07-25 12:24:22</time>
      </trkpt>
      <trkpt lat="42.67752" lon="-2.33243">
        <ele>519.6</ele>
        <time>2021-07-25 12:24:26</time>
      </trkpt>
      <trkpt lat="42.67744" lon="-2.33272">
        <ele>520</ele>
        <time>2021-07-25 12:24:30</time>
      </trkpt>
      <trkpt lat="42.67736" lon="-2.33301">
        <ele>518.8</ele>
        <time>2021-07-25 12:24:34</time>
      </trkpt>
      <trkpt lat="42.67728" lon="-2.33331">
        <ele>518</ele>
        <time>2021-07-25 12:24:38</time>
      </trkpt>
      <trkpt lat="42.6772" lon="-2.3336">
        <ele>518.2</ele>
        <time>2021-07-25 12:24:42</time>
      </trkpt>
      <trkpt lat="42.67712" lon="-2.33389">
        <ele>517</ele>
        <time>2021-07-25 12:24:46</time>
      </trkpt>
      <trkpt lat="42.67704" lon="-2.33418">
        <ele>518</ele>
        <time>2021-07-25 12:24:50</time>
      </trkpt>
      <trkpt lat="42.67697" lon="-2.33446">
        <ele>517.8</ele>
        <time>2021-07-25 12:24:54</time>
      </trkpt>
      <trkpt lat="42.67689" lon="-2.33474">
        <ele>518</ele>
        <time>2021-07-25 12:24:58</time>
      </trkpt>
      <trkpt lat="42.67681" lon="-2.33502">
        <ele>517</ele>
        <time>2021-07-25 12:25:02</time>
      </trkpt>
      <trkpt lat="42.67674" lon="-2.3353">
        <ele>517.2</ele>
        <time>2021-07-25 12:25:06</time>
      </trkpt>
      <trkpt lat="42.67666" lon="-2.33558">
        <ele>517.4</ele>
        <time>2021-07-25 12:25:10</time>
      </trkpt>
      <trkpt lat="42.67659" lon="-2.33585">
        <ele>517.2</ele>
        <time>2021-07-25 12:25:14</time>
      </trkpt>
      <trkpt lat="42.67652" lon="-2.33612">
        <ele>516.6</ele>
        <time>2021-07-25 12:25:18</time>
      </trkpt>
      <trkpt lat="42.67645" lon="-2.33636">
        <ele>516</ele>
        <time>2021-07-25 12:25:22</time>
      </trkpt>
      <trkpt lat="42.67638" lon="-2.3366">
        <ele>517.4</ele>
        <time>2021-07-25 12:25:26</time>
      </trkpt>
      <trkpt lat="42.67632" lon="-2.33683">
        <ele>518.2</ele>
        <time>2021-07-25 12:25:30</time>
      </trkpt>
      <trkpt lat="42.67626" lon="-2.33706">
        <ele>517</ele>
        <time>2021-07-25 12:25:34</time>
      </trkpt>
      <trkpt lat="42.6762" lon="-2.33729">
        <ele>517</ele>
        <time>2021-07-25 12:25:38</time>
      </trkpt>
      <trkpt lat="42.67614" lon="-2.33752">
        <ele>517</ele>
        <time>2021-07-25 12:25:42</time>
      </trkpt>
      <trkpt lat="42.67608" lon="-2.33775">
        <ele>517.4</ele>
        <time>2021-07-25 12:25:46</time>
      </trkpt>
      <trkpt lat="42.67602" lon="-2.33797">
        <ele>517.4</ele>
        <time>2021-07-25 12:25:50</time>
      </trkpt>
      <trkpt lat="42.67596" lon="-2.33819">
        <ele>518</ele>
        <time>2021-07-25 12:25:54</time>
      </trkpt>
      <trkpt lat="42.67591" lon="-2.3384">
        <ele>517.8</ele>
        <time>2021-07-25 12:25:58</time>
      </trkpt>
      <trkpt lat="42.67585" lon="-2.33861">
        <ele>518.6</ele>
        <time>2021-07-25 12:26:02</time>
      </trkpt>
      <trkpt lat="42.67579" lon="-2.33882">
        <ele>518.6</ele>
        <time>2021-07-25 12:26:06</time>
      </trkpt>
      <trkpt lat="42.67573" lon="-2.33904">
        <ele>518.8</ele>
        <time>2021-07-25 12:26:10</time>
      </trkpt>
      <trkpt lat="42.67567" lon="-2.33926">
        <ele>518.6</ele>
        <time>2021-07-25 12:26:14</time>
      </trkpt>
      <trkpt lat="42.67561" lon="-2.33948">
        <ele>519.2</ele>
        <time>2021-07-25 12:26:18</time>
      </trkpt>
      <trkpt lat="42.67555" lon="-2.33969">
        <ele>518.4</ele>
        <time>2021-07-25 12:26:22</time>
      </trkpt>
      <trkpt lat="42.67549" lon="-2.33991">
        <ele>518.2</ele>
        <time>2021-07-25 12:26:26</time>
      </trkpt>
      <trkpt lat="42.67544" lon="-2.34012">
        <ele>519.6</ele>
        <time>2021-07-25 12:26:30</time>
      </trkpt>
      <trkpt lat="42.67538" lon="-2.34033">
        <ele>519.6</ele>
        <time>2021-07-25 12:26:34</time>
      </trkpt>
      <trkpt lat="42.67532" lon="-2.34055">
        <ele>519.6</ele>
        <time>2021-07-25 12:26:38</time>
      </trkpt>
      <trkpt lat="42.67525" lon="-2.34078">
        <ele>519.2</ele>
        <time>2021-07-25 12:26:42</time>
      </trkpt>
      <trkpt lat="42.67519" lon="-2.34102">
        <ele>519.2</ele>
        <time>2021-07-25 12:26:46</time>
      </trkpt>
      <trkpt lat="42.67513" lon="-2.34126">
        <ele>519.2</ele>
        <time>2021-07-25 12:26:50</time>
      </trkpt>
      <trkpt lat="42.67506" lon="-2.3415">
        <ele>519.4</ele>
        <time>2021-07-25 12:26:54</time>
      </trkpt>
      <trkpt lat="42.67499" lon="-2.34175">
        <ele>518.6</ele>
        <time>2021-07-25 12:26:58</time>
      </trkpt>
      <trkpt lat="42.67493" lon="-2.34198">
        <ele>519.4</ele>
        <time>2021-07-25 12:27:02</time>
      </trkpt>
      <trkpt lat="42.67486" lon="-2.34222">
        <ele>518.6</ele>
        <time>2021-07-25 12:27:06</time>
      </trkpt>
      <trkpt lat="42.6748" lon="-2.34244">
        <ele>519.8</ele>
        <time>2021-07-25 12:27:10</time>
      </trkpt>
      <trkpt lat="42.67474" lon="-2.34267">
        <ele>519.8</ele>
        <time>2021-07-25 12:27:14</time>
      </trkpt>
      <trkpt lat="42.67468" lon="-2.34289">
        <ele>519.2</ele>
        <time>2021-07-25 12:27:18</time>
      </trkpt>
      <trkpt lat="42.67462" lon="-2.34312">
        <ele>519.2</ele>
        <time>2021-07-25 12:27:22</time>
      </trkpt>
      <trkpt lat="42.67456" lon="-2.34334">
        <ele>519.8</ele>
        <time>2021-07-25 12:27:26</time>
      </trkpt>
      <trkpt lat="42.67449" lon="-2.34357">
        <ele>520</ele>
        <time>2021-07-25 12:27:30</time>
      </trkpt>
      <trkpt lat="42.67443" lon="-2.3438">
        <ele>520.6</ele>
        <time>2021-07-25 12:27:34</time>
      </trkpt>
      <trkpt lat="42.67437" lon="-2.34404">
        <ele>519.2</ele>
        <time>2021-07-25 12:27:38</time>
      </trkpt>
      <trkpt lat="42.67431" lon="-2.34426">
        <ele>519.4</ele>
        <time>2021-07-25 12:27:42</time>
      </trkpt>
      <trkpt lat="42.67425" lon="-2.34448">
        <ele>520</ele>
        <time>2021-07-25 12:27:46</time>
      </trkpt>
      <trkpt lat="42.6742" lon="-2.3447">
        <ele>520</ele>
        <time>2021-07-25 12:27:50</time>
      </trkpt>
      <trkpt lat="42.67415" lon="-2.34492">
        <ele>519.8</ele>
        <time>2021-07-25 12:27:54</time>
      </trkpt>
      <trkpt lat="42.6741" lon="-2.34514">
        <ele>519.6</ele>
        <time>2021-07-25 12:27:58</time>
      </trkpt>
      <trkpt lat="42.67406" lon="-2.34535">
        <ele>520.6</ele>
        <time>2021-07-25 12:28:02</time>
      </trkpt>
      <trkpt lat="42.67407" lon="-2.34555">
        <ele>520</ele>
        <time>2021-07-25 12:28:06</time>
      </trkpt>
      <trkpt lat="42.67411" lon="-2.34575">
        <ele>520</ele>
        <time>2021-07-25 12:28:10</time>
      </trkpt>
      <trkpt lat="42.67418" lon="-2.34592">
        <ele>519</ele>
        <time>2021-07-25 12:28:14</time>
      </trkpt>
      <trkpt lat="42.6743" lon="-2.34605">
        <ele>519.2</ele>
        <time>2021-07-25 12:28:18</time>
      </trkpt>
      <trkpt lat="42.67444" lon="-2.34614">
        <ele>519.4</ele>
        <time>2021-07-25 12:28:22</time>
      </trkpt>
      <trkpt lat="42.67457" lon="-2.34628">
        <ele>519.6</ele>
        <time>2021-07-25 12:28:26</time>
      </trkpt>
      <trkpt lat="42.67456" lon="-2.34649">
        <ele>520.2</ele>
        <time>2021-07-25 12:28:30</time>
      </trkpt>
      <trkpt lat="42.67453" lon="-2.34669">
        <ele>520.2</ele>
        <time>2021-07-25 12:28:34</time>
      </trkpt>
      <trkpt lat="42.6745" lon="-2.34689">
        <ele>520</ele>
        <time>2021-07-25 12:28:38</time>
      </trkpt>
      <trkpt lat="42.67446" lon="-2.34708">
        <ele>520</ele>
        <time>2021-07-25 12:28:42</time>
      </trkpt>
      <trkpt lat="42.67444" lon="-2.34725">
        <ele>520.8</ele>
        <time>2021-07-25 12:28:46</time>
      </trkpt>
      <trkpt lat="42.67441" lon="-2.34741">
        <ele>520.6</ele>
        <time>2021-07-25 12:28:50</time>
      </trkpt>
      <trkpt lat="42.67438" lon="-2.3476">
        <ele>520.4</ele>
        <time>2021-07-25 12:28:54</time>
      </trkpt>
      <trkpt lat="42.67436" lon="-2.34779">
        <ele>520.4</ele>
        <time>2021-07-25 12:28:58</time>
      </trkpt>
      <trkpt lat="42.67433" lon="-2.34797">
        <ele>520</ele>
        <time>2021-07-25 12:29:02</time>
      </trkpt>
      <trkpt lat="42.67431" lon="-2.34816">
        <ele>520.8</ele>
        <time>2021-07-25 12:29:06</time>
      </trkpt>
      <trkpt lat="42.67428" lon="-2.34835">
        <ele>520.4</ele>
        <time>2021-07-25 12:29:10</time>
      </trkpt>
      <trkpt lat="42.67425" lon="-2.34853">
        <ele>520.8</ele>
        <time>2021-07-25 12:29:14</time>
      </trkpt>
      <trkpt lat="42.67422" lon="-2.34873">
        <ele>520.6</ele>
        <time>2021-07-25 12:29:18</time>
      </trkpt>
      <trkpt lat="42.67419" lon="-2.34895">
        <ele>520.2</ele>
        <time>2021-07-25 12:29:22</time>
      </trkpt>
      <trkpt lat="42.67416" lon="-2.34916">
        <ele>520</ele>
        <time>2021-07-25 12:29:26</time>
      </trkpt>
      <trkpt lat="42.67413" lon="-2.34936">
        <ele>520.4</ele>
        <time>2021-07-25 12:29:30</time>
      </trkpt>
      <trkpt lat="42.6741" lon="-2.34957">
        <ele>520.2</ele>
        <time>2021-07-25 12:29:34</time>
      </trkpt>
      <trkpt lat="42.67407" lon="-2.34977">
        <ele>520</ele>
        <time>2021-07-25 12:29:38</time>
      </trkpt>
      <trkpt lat="42.67404" lon="-2.34998">
        <ele>520.4</ele>
        <time>2021-07-25 12:29:42</time>
      </trkpt>
      <trkpt lat="42.67401" lon="-2.35019">
        <ele>520.2</ele>
        <time>2021-07-25 12:29:46</time>
      </trkpt>
      <trkpt lat="42.67398" lon="-2.35039">
        <ele>520.6</ele>
        <time>2021-07-25 12:29:50</time>
      </trkpt>
      <trkpt lat="42.67395" lon="-2.35059">
        <ele>520.6</ele>
        <time>2021-07-25 12:29:54</time>
      </trkpt>
      <trkpt lat="42.67392" lon="-2.3508">
        <ele>521</ele>
        <time>2021-07-25 12:29:58</time>
      </trkpt>
      <trkpt lat="42.67389" lon="-2.35101">
        <ele>521.4</ele>
        <time>2021-07-25 12:30:02</time>
      </trkpt>
      <trkpt lat="42.67387" lon="-2.35122">
        <ele>520.8</ele>
        <time>2021-07-25 12:30:06</time>
      </trkpt>
      <trkpt lat="42.67384" lon="-2.35142">
        <ele>521</ele>
        <time>2021-07-25 12:30:10</time>
      </trkpt>
      <trkpt lat="42.67381" lon="-2.35163">
        <ele>521.8</ele>
        <time>2021-07-25 12:30:14</time>
      </trkpt>
      <trkpt lat="42.67378" lon="-2.35184">
        <ele>521.8</ele>
        <time>2021-07-25 12:30:18</time>
      </trkpt>
      <trkpt lat="42.67375" lon="-2.35205">
        <ele>521.4</ele>
        <time>2021-07-25 12:30:22</time>
      </trkpt>
      <trkpt lat="42.67372" lon="-2.35225">
        <ele>522.4</ele>
        <time>2021-07-25 12:30:26</time>
      </trkpt>
      <trkpt lat="42.67369" lon="-2.35244">
        <ele>522.4</ele>
        <time>2021-07-25 12:30:30</time>
      </trkpt>
      <trkpt lat="42.67366" lon="-2.35265">
        <ele>522.4</ele>
        <time>2021-07-25 12:30:34</time>
      </trkpt>
      <trkpt lat="42.67363" lon="-2.35285">
        <ele>522.4</ele>
        <time>2021-07-25 12:30:38</time>
      </trkpt>
      <trkpt lat="42.6736" lon="-2.35306">
        <ele>521.8</ele>
        <time>2021-07-25 12:30:42</time>
      </trkpt>
      <trkpt lat="42.67358" lon="-2.35326">
        <ele>522.6</ele>
        <time>2021-07-25 12:30:46</time>
      </trkpt>
      <trkpt lat="42.67354" lon="-2.35345">
        <ele>522.2</ele>
        <time>2021-07-25 12:30:50</time>
      </trkpt>
      <trkpt lat="42.67351" lon="-2.35365">
        <ele>522.2</ele>
        <time>2021-07-25 12:30:54</time>
      </trkpt>
      <trkpt lat="42.67348" lon="-2.35385">
        <ele>522</ele>
        <time>2021-07-25 12:30:58</time>
      </trkpt>
      <trkpt lat="42.67345" lon="-2.35405">
        <ele>523</ele>
        <time>2021-07-25 12:31:02</time>
      </trkpt>
      <trkpt lat="42.67342" lon="-2.35425">
        <ele>522.8</ele>
        <time>2021-07-25 12:31:06</time>
      </trkpt>
      <trkpt lat="42.67339" lon="-2.35445">
        <ele>523.4</ele>
        <time>2021-07-25 12:31:10</time>
      </trkpt>
      <trkpt lat="42.67337" lon="-2.35464">
        <ele>523.4</ele>
        <time>2021-07-25 12:31:14</time>
      </trkpt>
      <trkpt lat="42.67334" lon="-2.35483">
        <ele>523.2</ele>
        <time>2021-07-25 12:31:18</time>
      </trkpt>
      <trkpt lat="42.67332" lon="-2.35502">
        <ele>522.8</ele>
        <time>2021-07-25 12:31:22</time>
      </trkpt>
      <trkpt lat="42.67329" lon="-2.35521">
        <ele>522.8</ele>
        <time>2021-07-25 12:31:26</time>
      </trkpt>
      <trkpt lat="42.67326" lon="-2.3554">
        <ele>522.8</ele>
        <time>2021-07-25 12:31:30</time>
      </trkpt>
      <trkpt lat="42.67322" lon="-2.35558">
        <ele>523.6</ele>
        <time>2021-07-25 12:31:34</time>
      </trkpt>
      <trkpt lat="42.6732" lon="-2.35575">
        <ele>524</ele>
        <time>2021-07-25 12:31:38</time>
      </trkpt>
      <trkpt lat="42.67317" lon="-2.35594">
        <ele>523.8</ele>
        <time>2021-07-25 12:31:42</time>
      </trkpt>
      <trkpt lat="42.67314" lon="-2.35612">
        <ele>524.2</ele>
        <time>2021-07-25 12:31:46</time>
      </trkpt>
      <trkpt lat="42.67312" lon="-2.35631">
        <ele>524.4</ele>
        <time>2021-07-25 12:31:50</time>
      </trkpt>
      <trkpt lat="42.67309" lon="-2.35648">
        <ele>524.4</ele>
        <time>2021-07-25 12:31:54</time>
      </trkpt>
      <trkpt lat="42.67306" lon="-2.35666">
        <ele>524.4</ele>
        <time>2021-07-25 12:31:58</time>
      </trkpt>
      <trkpt lat="42.67304" lon="-2.35686">
        <ele>524.4</ele>
        <time>2021-07-25 12:32:02</time>
      </trkpt>
      <trkpt lat="42.67305" lon="-2.35703">
        <ele>524.6</ele>
        <time>2021-07-25 12:32:06</time>
      </trkpt>
      <trkpt lat="42.67306" lon="-2.35717">
        <ele>525</ele>
        <time>2021-07-25 12:32:10</time>
      </trkpt>
      <trkpt lat="42.67305" lon="-2.3573">
        <ele>525.2</ele>
        <time>2021-07-25 12:32:14</time>
      </trkpt>
      <trkpt lat="42.67303" lon="-2.3574">
        <ele>525.2</ele>
        <time>2021-07-25 12:32:18</time>
      </trkpt>
      <trkpt lat="42.67301" lon="-2.35753">
        <ele>525</ele>
        <time>2021-07-25 12:32:22</time>
      </trkpt>
      <trkpt lat="42.67298" lon="-2.35769">
        <ele>525</ele>
        <time>2021-07-25 12:32:26</time>
      </trkpt>
      <trkpt lat="42.67297" lon="-2.35786">
        <ele>525.6</ele>
        <time>2021-07-25 12:32:30</time>
      </trkpt>
      <trkpt lat="42.67296" lon="-2.35804">
        <ele>525.2</ele>
        <time>2021-07-25 12:32:34</time>
      </trkpt>
      <trkpt lat="42.67295" lon="-2.35822">
        <ele>525.6</ele>
        <time>2021-07-25 12:32:38</time>
      </trkpt>
      <trkpt lat="42.67295" lon="-2.35841">
        <ele>525.4</ele>
        <time>2021-07-25 12:32:42</time>
      </trkpt>
      <trkpt lat="42.67295" lon="-2.3586">
        <ele>525.4</ele>
        <time>2021-07-25 12:32:46</time>
      </trkpt>
      <trkpt lat="42.67297" lon="-2.35881">
        <ele>525.6</ele>
        <time>2021-07-25 12:32:50</time>
      </trkpt>
      <trkpt lat="42.673" lon="-2.35901">
        <ele>524.6</ele>
        <time>2021-07-25 12:32:54</time>
      </trkpt>
      <trkpt lat="42.67303" lon="-2.3592">
        <ele>525.8</ele>
        <time>2021-07-25 12:32:58</time>
      </trkpt>
      <trkpt lat="42.67307" lon="-2.3594">
        <ele>526.4</ele>
        <time>2021-07-25 12:33:02</time>
      </trkpt>
      <trkpt lat="42.67311" lon="-2.35959">
        <ele>526.2</ele>
        <time>2021-07-25 12:33:06</time>
      </trkpt>
      <trkpt lat="42.67315" lon="-2.35979">
        <ele>526</ele>
        <time>2021-07-25 12:33:10</time>
      </trkpt>
      <trkpt lat="42.67319" lon="-2.36">
        <ele>526.2</ele>
        <time>2021-07-25 12:33:14</time>
      </trkpt>
      <trkpt lat="42.67323" lon="-2.3602">
        <ele>526.8</ele>
        <time>2021-07-25 12:33:18</time>
      </trkpt>
      <trkpt lat="42.67327" lon="-2.36039">
        <ele>526.6</ele>
        <time>2021-07-25 12:33:22</time>
      </trkpt>
      <trkpt lat="42.67331" lon="-2.36058">
        <ele>527.2</ele>
        <time>2021-07-25 12:33:26</time>
      </trkpt>
      <trkpt lat="42.67335" lon="-2.36077">
        <ele>527</ele>
        <time>2021-07-25 12:33:30</time>
      </trkpt>
      <trkpt lat="42.67339" lon="-2.36096">
        <ele>527</ele>
        <time>2021-07-25 12:33:34</time>
      </trkpt>
      <trkpt lat="42.67343" lon="-2.36116">
        <ele>527.4</ele>
        <time>2021-07-25 12:33:38</time>
      </trkpt>
      <trkpt lat="42.67347" lon="-2.36136">
        <ele>527.4</ele>
        <time>2021-07-25 12:33:42</time>
      </trkpt>
      <trkpt lat="42.67351" lon="-2.36156">
        <ele>527.8</ele>
        <time>2021-07-25 12:33:46</time>
      </trkpt>
      <trkpt lat="42.67355" lon="-2.36176">
        <ele>527.4</ele>
        <time>2021-07-25 12:33:50</time>
      </trkpt>
      <trkpt lat="42.67358" lon="-2.36195">
        <ele>527.4</ele>
        <time>2021-07-25 12:33:54</time>
      </trkpt>
      <trkpt lat="42.67362" lon="-2.36215">
        <ele>527.8</ele>
        <time>2021-07-25 12:33:58</time>
      </trkpt>
      <trkpt lat="42.67367" lon="-2.36235">
        <ele>527.6</ele>
        <time>2021-07-25 12:34:02</time>
      </trkpt>
      <trkpt lat="42.6737" lon="-2.36255">
        <ele>527.8</ele>
        <time>2021-07-25 12:34:06</time>
      </trkpt>
      <trkpt lat="42.67374" lon="-2.36274">
        <ele>528</ele>
        <time>2021-07-25 12:34:10</time>
      </trkpt>
      <trkpt lat="42.67378" lon="-2.36294">
        <ele>528.4</ele>
        <time>2021-07-25 12:34:14</time>
      </trkpt>
      <trkpt lat="42.67382" lon="-2.36313">
        <ele>528</ele>
        <time>2021-07-25 12:34:18</time>
      </trkpt>
      <trkpt lat="42.67386" lon="-2.36333">
        <ele>528.6</ele>
        <time>2021-07-25 12:34:22</time>
      </trkpt>
      <trkpt lat="42.67389" lon="-2.36352">
        <ele>529</ele>
        <time>2021-07-25 12:34:26</time>
      </trkpt>
      <trkpt lat="42.67392" lon="-2.36369">
        <ele>529</ele>
        <time>2021-07-25 12:34:30</time>
      </trkpt>
      <trkpt lat="42.67394" lon="-2.36388">
        <ele>529.2</ele>
        <time>2021-07-25 12:34:34</time>
      </trkpt>
      <trkpt lat="42.67395" lon="-2.36406">
        <ele>528.8</ele>
        <time>2021-07-25 12:34:38</time>
      </trkpt>
      <trkpt lat="42.67399" lon="-2.36425">
        <ele>528.8</ele>
        <time>2021-07-25 12:34:42</time>
      </trkpt>
      <trkpt lat="42.67403" lon="-2.36445">
        <ele>529.2</ele>
        <time>2021-07-25 12:34:46</time>
      </trkpt>
      <trkpt lat="42.67407" lon="-2.36464">
        <ele>529.4</ele>
        <time>2021-07-25 12:34:50</time>
      </trkpt>
      <trkpt lat="42.6741" lon="-2.36483">
        <ele>529.2</ele>
        <time>2021-07-25 12:34:54</time>
      </trkpt>
      <trkpt lat="42.67414" lon="-2.36502">
        <ele>529.6</ele>
        <time>2021-07-25 12:34:58</time>
      </trkpt>
      <trkpt lat="42.67418" lon="-2.3652">
        <ele>529.6</ele>
        <time>2021-07-25 12:35:02</time>
      </trkpt>
      <trkpt lat="42.67422" lon="-2.36539">
        <ele>529.8</ele>
        <time>2021-07-25 12:35:06</time>
      </trkpt>
      <trkpt lat="42.67426" lon="-2.36558">
        <ele>530</ele>
        <time>2021-07-25 12:35:10</time>
      </trkpt>
      <trkpt lat="42.6743" lon="-2.36578">
        <ele>530.2</ele>
        <time>2021-07-25 12:35:14</time>
      </trkpt>
      <trkpt lat="42.67433" lon="-2.36596">
        <ele>530.2</ele>
        <time>2021-07-25 12:35:18</time>
      </trkpt>
      <trkpt lat="42.67437" lon="-2.36615">
        <ele>530</ele>
        <time>2021-07-25 12:35:22</time>
      </trkpt>
      <trkpt lat="42.67441" lon="-2.36634">
        <ele>530.2</ele>
        <time>2021-07-25 12:35:26</time>
      </trkpt>
      <trkpt lat="42.67445" lon="-2.36652">
        <ele>530.6</ele>
        <time>2021-07-25 12:35:30</time>
      </trkpt>
      <trkpt lat="42.67449" lon="-2.36671">
        <ele>530.6</ele>
        <time>2021-07-25 12:35:34</time>
      </trkpt>
      <trkpt lat="42.67453" lon="-2.36691">
        <ele>530.2</ele>
        <time>2021-07-25 12:35:38</time>
      </trkpt>
      <trkpt lat="42.67457" lon="-2.36711">
        <ele>530.6</ele>
        <time>2021-07-25 12:35:42</time>
      </trkpt>
      <trkpt lat="42.6746" lon="-2.36731">
        <ele>531</ele>
        <time>2021-07-25 12:35:46</time>
      </trkpt>
      <trkpt lat="42.67464" lon="-2.36751">
        <ele>531</ele>
        <time>2021-07-25 12:35:50</time>
      </trkpt>
      <trkpt lat="42.67469" lon="-2.36771">
        <ele>530.8</ele>
        <time>2021-07-25 12:35:54</time>
      </trkpt>
      <trkpt lat="42.67473" lon="-2.3679">
        <ele>530.6</ele>
        <time>2021-07-25 12:35:58</time>
      </trkpt>
      <trkpt lat="42.67477" lon="-2.3681">
        <ele>531</ele>
        <time>2021-07-25 12:36:02</time>
      </trkpt>
      <trkpt lat="42.67481" lon="-2.3683">
        <ele>531.2</ele>
        <time>2021-07-25 12:36:06</time>
      </trkpt>
      <trkpt lat="42.67484" lon="-2.36848">
        <ele>531</ele>
        <time>2021-07-25 12:36:10</time>
      </trkpt>
      <trkpt lat="42.67488" lon="-2.36867">
        <ele>531.4</ele>
        <time>2021-07-25 12:36:14</time>
      </trkpt>
      <trkpt lat="42.67492" lon="-2.36886">
        <ele>530.8</ele>
        <time>2021-07-25 12:36:18</time>
      </trkpt>
      <trkpt lat="42.67498" lon="-2.36903">
        <ele>532</ele>
        <time>2021-07-25 12:36:22</time>
      </trkpt>
      <trkpt lat="42.67504" lon="-2.36919">
        <ele>532.4</ele>
        <time>2021-07-25 12:36:26</time>
      </trkpt>
      <trkpt lat="42.67508" lon="-2.3693">
        <ele>533.4</ele>
        <time>2021-07-25 12:36:30</time>
      </trkpt>
      <trkpt lat="42.67512" lon="-2.36939">
        <ele>534.2</ele>
        <time>2021-07-25 12:36:34</time>
      </trkpt>
      <trkpt lat="42.67517" lon="-2.36946">
        <ele>535</ele>
        <time>2021-07-25 12:36:38</time>
      </trkpt>
      <trkpt lat="42.67521" lon="-2.36954">
        <ele>535.6</ele>
        <time>2021-07-25 12:36:42</time>
      </trkpt>
      <trkpt lat="42.67525" lon="-2.36962">
        <ele>536.6</ele>
        <time>2021-07-25 12:36:46</time>
      </trkpt>
      <trkpt lat="42.67529" lon="-2.36968">
        <ele>537.2</ele>
        <time>2021-07-25 12:36:50</time>
      </trkpt>
      <trkpt lat="42.67533" lon="-2.36975">
        <ele>537.6</ele>
        <time>2021-07-25 12:36:54</time>
      </trkpt>
      <trkpt lat="42.67534" lon="-2.36983">
        <ele>538.4</ele>
        <time>2021-07-25 12:36:58</time>
      </trkpt>
      <trkpt lat="42.67532" lon="-2.3699">
        <ele>539</ele>
        <time>2021-07-25 12:37:02</time>
      </trkpt>
      <trkpt lat="42.67527" lon="-2.36997">
        <ele>539</ele>
        <time>2021-07-25 12:37:06</time>
      </trkpt>
      <trkpt lat="42.67522" lon="-2.37005">
        <ele>539.2</ele>
        <time>2021-07-25 12:37:10</time>
      </trkpt>
      <trkpt lat="42.67516" lon="-2.37013">
        <ele>539.2</ele>
        <time>2021-07-25 12:37:14</time>
      </trkpt>
      <trkpt lat="42.67509" lon="-2.37023">
        <ele>539</ele>
        <time>2021-07-25 12:37:18</time>
      </trkpt>
      <trkpt lat="42.67502" lon="-2.37035">
        <ele>538</ele>
        <time>2021-07-25 12:37:22</time>
      </trkpt>
      <trkpt lat="42.67495" lon="-2.37053">
        <ele>536.2</ele>
        <time>2021-07-25 12:37:26</time>
      </trkpt>
      <trkpt lat="42.67497" lon="-2.37079">
        <ele>533.4</ele>
        <time>2021-07-25 12:37:30</time>
      </trkpt>
      <trkpt lat="42.67499" lon="-2.37108">
        <ele>531</ele>
        <time>2021-07-25 12:37:34</time>
      </trkpt>
      <trkpt lat="42.67499" lon="-2.37135">
        <ele>530.8</ele>
        <time>2021-07-25 12:37:38</time>
      </trkpt>
      <trkpt lat="42.67498" lon="-2.3716">
        <ele>531.8</ele>
        <time>2021-07-25 12:37:42</time>
      </trkpt>
      <trkpt lat="42.67497" lon="-2.37182">
        <ele>532</ele>
        <time>2021-07-25 12:37:46</time>
      </trkpt>
      <trkpt lat="42.67497" lon="-2.37202">
        <ele>531.8</ele>
        <time>2021-07-25 12:37:50</time>
      </trkpt>
      <trkpt lat="42.67497" lon="-2.37224">
        <ele>531.8</ele>
        <time>2021-07-25 12:37:54</time>
      </trkpt>
      <trkpt lat="42.67497" lon="-2.37245">
        <ele>532</ele>
        <time>2021-07-25 12:37:58</time>
      </trkpt>
      <trkpt lat="42.67497" lon="-2.37265">
        <ele>532.6</ele>
        <time>2021-07-25 12:38:02</time>
      </trkpt>
      <trkpt lat="42.67495" lon="-2.37285">
        <ele>532.8</ele>
        <time>2021-07-25 12:38:06</time>
      </trkpt>
      <trkpt lat="42.67494" lon="-2.37304">
        <ele>532.8</ele>
        <time>2021-07-25 12:38:10</time>
      </trkpt>
      <trkpt lat="42.67494" lon="-2.37321">
        <ele>533.2</ele>
        <time>2021-07-25 12:38:14</time>
      </trkpt>
      <trkpt lat="42.67494" lon="-2.37336">
        <ele>532.6</ele>
        <time>2021-07-25 12:38:18</time>
      </trkpt>
      <trkpt lat="42.67492" lon="-2.37353">
        <ele>533.2</ele>
        <time>2021-07-25 12:38:22</time>
      </trkpt>
      <trkpt lat="42.67493" lon="-2.37371">
        <ele>533.4</ele>
        <time>2021-07-25 12:38:26</time>
      </trkpt>
      <trkpt lat="42.67494" lon="-2.37389">
        <ele>533</ele>
        <time>2021-07-25 12:38:30</time>
      </trkpt>
      <trkpt lat="42.67495" lon="-2.37409">
        <ele>533.2</ele>
        <time>2021-07-25 12:38:34</time>
      </trkpt>
      <trkpt lat="42.67497" lon="-2.37428">
        <ele>533.2</ele>
        <time>2021-07-25 12:38:38</time>
      </trkpt>
      <trkpt lat="42.67501" lon="-2.37448">
        <ele>533</ele>
        <time>2021-07-25 12:38:42</time>
      </trkpt>
      <trkpt lat="42.67505" lon="-2.37469">
        <ele>533</ele>
        <time>2021-07-25 12:38:46</time>
      </trkpt>
      <trkpt lat="42.67508" lon="-2.37491">
        <ele>532.6</ele>
        <time>2021-07-25 12:38:50</time>
      </trkpt>
      <trkpt lat="42.67513" lon="-2.37513">
        <ele>532.8</ele>
        <time>2021-07-25 12:38:54</time>
      </trkpt>
      <trkpt lat="42.67517" lon="-2.37535">
        <ele>532.6</ele>
        <time>2021-07-25 12:38:58</time>
      </trkpt>
      <trkpt lat="42.67522" lon="-2.37556">
        <ele>532.6</ele>
        <time>2021-07-25 12:39:02</time>
      </trkpt>
      <trkpt lat="42.67525" lon="-2.37577">
        <ele>532.6</ele>
        <time>2021-07-25 12:39:06</time>
      </trkpt>
      <trkpt lat="42.6753" lon="-2.37599">
        <ele>533</ele>
        <time>2021-07-25 12:39:10</time>
      </trkpt>
      <trkpt lat="42.67534" lon="-2.37622">
        <ele>532.8</ele>
        <time>2021-07-25 12:39:14</time>
      </trkpt>
      <trkpt lat="42.67538" lon="-2.37644">
        <ele>532.8</ele>
        <time>2021-07-25 12:39:18</time>
      </trkpt>
      <trkpt lat="42.67545" lon="-2.37666">
        <ele>532.6</ele>
        <time>2021-07-25 12:39:22</time>
      </trkpt>
      <trkpt lat="42.67548" lon="-2.37686">
        <ele>532.6</ele>
        <time>2021-07-25 12:39:26</time>
      </trkpt>
      <trkpt lat="42.67553" lon="-2.37707">
        <ele>533</ele>
        <time>2021-07-25 12:39:30</time>
      </trkpt>
      <trkpt lat="42.67558" lon="-2.3773">
        <ele>533.2</ele>
        <time>2021-07-25 12:39:34</time>
      </trkpt>
      <trkpt lat="42.67561" lon="-2.37751">
        <ele>532.6</ele>
        <time>2021-07-25 12:39:38</time>
      </trkpt>
      <trkpt lat="42.67566" lon="-2.37772">
        <ele>532.6</ele>
        <time>2021-07-25 12:39:42</time>
      </trkpt>
      <trkpt lat="42.67572" lon="-2.37793">
        <ele>532.8</ele>
        <time>2021-07-25 12:39:46</time>
      </trkpt>
      <trkpt lat="42.67575" lon="-2.37816">
        <ele>532.6</ele>
        <time>2021-07-25 12:39:50</time>
      </trkpt>
      <trkpt lat="42.6758" lon="-2.37838">
        <ele>532.8</ele>
        <time>2021-07-25 12:39:54</time>
      </trkpt>
      <trkpt lat="42.67584" lon="-2.3786">
        <ele>533.2</ele>
        <time>2021-07-25 12:39:58</time>
      </trkpt>
      <trkpt lat="42.67587" lon="-2.37883">
        <ele>533.6</ele>
        <time>2021-07-25 12:40:02</time>
      </trkpt>
      <trkpt lat="42.67591" lon="-2.37906">
        <ele>533.4</ele>
        <time>2021-07-25 12:40:06</time>
      </trkpt>
      <trkpt lat="42.67595" lon="-2.37929">
        <ele>532.6</ele>
        <time>2021-07-25 12:40:10</time>
      </trkpt>
      <trkpt lat="42.67599" lon="-2.37951">
        <ele>533</ele>
        <time>2021-07-25 12:40:14</time>
      </trkpt>
      <trkpt lat="42.67603" lon="-2.37973">
        <ele>533.4</ele>
        <time>2021-07-25 12:40:18</time>
      </trkpt>
      <trkpt lat="42.67607" lon="-2.37995">
        <ele>533.4</ele>
        <time>2021-07-25 12:40:22</time>
      </trkpt>
      <trkpt lat="42.67611" lon="-2.38015">
        <ele>534</ele>
        <time>2021-07-25 12:40:26</time>
      </trkpt>
      <trkpt lat="42.67614" lon="-2.38035">
        <ele>534.6</ele>
        <time>2021-07-25 12:40:30</time>
      </trkpt>
      <trkpt lat="42.67617" lon="-2.38056">
        <ele>534</ele>
        <time>2021-07-25 12:40:34</time>
      </trkpt>
      <trkpt lat="42.67621" lon="-2.38077">
        <ele>534.4</ele>
        <time>2021-07-25 12:40:38</time>
      </trkpt>
      <trkpt lat="42.67626" lon="-2.38098">
        <ele>534.2</ele>
        <time>2021-07-25 12:40:42</time>
      </trkpt>
      <trkpt lat="42.6763" lon="-2.38119">
        <ele>534.2</ele>
        <time>2021-07-25 12:40:46</time>
      </trkpt>
      <trkpt lat="42.67634" lon="-2.38142">
        <ele>534</ele>
        <time>2021-07-25 12:40:50</time>
      </trkpt>
      <trkpt lat="42.67639" lon="-2.38164">
        <ele>534</ele>
        <time>2021-07-25 12:40:54</time>
      </trkpt>
      <trkpt lat="42.67642" lon="-2.38185">
        <ele>534.2</ele>
        <time>2021-07-25 12:40:58</time>
      </trkpt>
      <trkpt lat="42.67646" lon="-2.38204">
        <ele>534.8</ele>
        <time>2021-07-25 12:41:02</time>
      </trkpt>
      <trkpt lat="42.67649" lon="-2.38223">
        <ele>535</ele>
        <time>2021-07-25 12:41:06</time>
      </trkpt>
      <trkpt lat="42.67651" lon="-2.38241">
        <ele>535.4</ele>
        <time>2021-07-25 12:41:10</time>
      </trkpt>
      <trkpt lat="42.67651" lon="-2.38262">
        <ele>535.4</ele>
        <time>2021-07-25 12:41:14</time>
      </trkpt>
      <trkpt lat="42.67651" lon="-2.38282">
        <ele>535.4</ele>
        <time>2021-07-25 12:41:18</time>
      </trkpt>
      <trkpt lat="42.67649" lon="-2.38302">
        <ele>536</ele>
        <time>2021-07-25 12:41:22</time>
      </trkpt>
      <trkpt lat="42.67648" lon="-2.3832">
        <ele>536.2</ele>
        <time>2021-07-25 12:41:26</time>
      </trkpt>
      <trkpt lat="42.67647" lon="-2.38339">
        <ele>536.8</ele>
        <time>2021-07-25 12:41:30</time>
      </trkpt>
      <trkpt lat="42.67646" lon="-2.38356">
        <ele>536.6</ele>
        <time>2021-07-25 12:41:34</time>
      </trkpt>
      <trkpt lat="42.67645" lon="-2.38373">
        <ele>537.4</ele>
        <time>2021-07-25 12:41:38</time>
      </trkpt>
      <trkpt lat="42.67643" lon="-2.38391">
        <ele>537.6</ele>
        <time>2021-07-25 12:41:42</time>
      </trkpt>
      <trkpt lat="42.6764" lon="-2.38408">
        <ele>537.6</ele>
        <time>2021-07-25 12:41:46</time>
      </trkpt>
      <trkpt lat="42.67639" lon="-2.38424">
        <ele>537.4</ele>
        <time>2021-07-25 12:41:50</time>
      </trkpt>
      <trkpt lat="42.67637" lon="-2.38439">
        <ele>538</ele>
        <time>2021-07-25 12:41:54</time>
      </trkpt>
      <trkpt lat="42.67637" lon="-2.38454">
        <ele>538.8</ele>
        <time>2021-07-25 12:41:58</time>
      </trkpt>
      <trkpt lat="42.67635" lon="-2.38469">
        <ele>538</ele>
        <time>2021-07-25 12:42:02</time>
      </trkpt>
      <trkpt lat="42.67635" lon="-2.38484">
        <ele>538.4</ele>
        <time>2021-07-25 12:42:06</time>
      </trkpt>
      <trkpt lat="42.67634" lon="-2.385">
        <ele>539.2</ele>
        <time>2021-07-25 12:42:10</time>
      </trkpt>
      <trkpt lat="42.67633" lon="-2.38515">
        <ele>539.6</ele>
        <time>2021-07-25 12:42:14</time>
      </trkpt>
      <trkpt lat="42.67631" lon="-2.3853">
        <ele>539.4</ele>
        <time>2021-07-25 12:42:18</time>
      </trkpt>
      <trkpt lat="42.67628" lon="-2.38544">
        <ele>539.6</ele>
        <time>2021-07-25 12:42:22</time>
      </trkpt>
      <trkpt lat="42.67625" lon="-2.38559">
        <ele>539.6</ele>
        <time>2021-07-25 12:42:26</time>
      </trkpt>
      <trkpt lat="42.67623" lon="-2.38575">
        <ele>538.6</ele>
        <time>2021-07-25 12:42:30</time>
      </trkpt>
      <trkpt lat="42.67621" lon="-2.38591">
        <ele>539.2</ele>
        <time>2021-07-25 12:42:34</time>
      </trkpt>
      <trkpt lat="42.67619" lon="-2.38607">
        <ele>539.6</ele>
        <time>2021-07-25 12:42:38</time>
      </trkpt>
      <trkpt lat="42.67618" lon="-2.38621">
        <ele>540.2</ele>
        <time>2021-07-25 12:42:42</time>
      </trkpt>
      <trkpt lat="42.67616" lon="-2.38636">
        <ele>540.2</ele>
        <time>2021-07-25 12:42:46</time>
      </trkpt>
      <trkpt lat="42.67614" lon="-2.38652">
        <ele>541</ele>
        <time>2021-07-25 12:42:50</time>
      </trkpt>
      <trkpt lat="42.67613" lon="-2.38667">
        <ele>541</ele>
        <time>2021-07-25 12:42:54</time>
      </trkpt>
      <trkpt lat="42.67611" lon="-2.38683">
        <ele>541.4</ele>
        <time>2021-07-25 12:42:58</time>
      </trkpt>
      <trkpt lat="42.67609" lon="-2.387">
        <ele>541.4</ele>
        <time>2021-07-25 12:43:02</time>
      </trkpt>
      <trkpt lat="42.67608" lon="-2.38716">
        <ele>541.6</ele>
        <time>2021-07-25 12:43:06</time>
      </trkpt>
      <trkpt lat="42.67606" lon="-2.38731">
        <ele>542.6</ele>
        <time>2021-07-25 12:43:10</time>
      </trkpt>
      <trkpt lat="42.67605" lon="-2.38748">
        <ele>542</ele>
        <time>2021-07-25 12:43:14</time>
      </trkpt>
      <trkpt lat="42.67606" lon="-2.38764">
        <ele>542.6</ele>
        <time>2021-07-25 12:43:18</time>
      </trkpt>
      <trkpt lat="42.67608" lon="-2.38779">
        <ele>542.8</ele>
        <time>2021-07-25 12:43:22</time>
      </trkpt>
      <trkpt lat="42.67609" lon="-2.38796">
        <ele>542.6</ele>
        <time>2021-07-25 12:43:26</time>
      </trkpt>
      <trkpt lat="42.67611" lon="-2.38811">
        <ele>543.8</ele>
        <time>2021-07-25 12:43:30</time>
      </trkpt>
      <trkpt lat="42.67614" lon="-2.38824">
        <ele>543.8</ele>
        <time>2021-07-25 12:43:34</time>
      </trkpt>
      <trkpt lat="42.67617" lon="-2.38839">
        <ele>544</ele>
        <time>2021-07-25 12:43:38</time>
      </trkpt>
      <trkpt lat="42.67622" lon="-2.38854">
        <ele>544.6</ele>
        <time>2021-07-25 12:43:42</time>
      </trkpt>
      <trkpt lat="42.67627" lon="-2.38869">
        <ele>544.4</ele>
        <time>2021-07-25 12:43:46</time>
      </trkpt>
      <trkpt lat="42.67633" lon="-2.38885">
        <ele>544.4</ele>
        <time>2021-07-25 12:43:50</time>
      </trkpt>
      <trkpt lat="42.6764" lon="-2.38899">
        <ele>544.8</ele>
        <time>2021-07-25 12:43:54</time>
      </trkpt>
      <trkpt lat="42.67646" lon="-2.38912">
        <ele>545.2</ele>
        <time>2021-07-25 12:43:58</time>
      </trkpt>
      <trkpt lat="42.67652" lon="-2.38925">
        <ele>545.6</ele>
        <time>2021-07-25 12:44:02</time>
      </trkpt>
      <trkpt lat="42.67657" lon="-2.38938">
        <ele>545.4</ele>
        <time>2021-07-25 12:44:06</time>
      </trkpt>
      <trkpt lat="42.67661" lon="-2.38946">
        <ele>545.6</ele>
        <time>2021-07-25 12:44:10</time>
      </trkpt>
      <trkpt lat="42.67666" lon="-2.38956">
        <ele>546.2</ele>
        <time>2021-07-25 12:44:14</time>
      </trkpt>
      <trkpt lat="42.67671" lon="-2.38967">
        <ele>546.2</ele>
        <time>2021-07-25 12:44:18</time>
      </trkpt>
      <trkpt lat="42.67674" lon="-2.38977">
        <ele>546.2</ele>
        <time>2021-07-25 12:44:22</time>
      </trkpt>
      <trkpt lat="42.67678" lon="-2.38986">
        <ele>546.2</ele>
        <time>2021-07-25 12:44:26</time>
      </trkpt>
      <trkpt lat="42.67683" lon="-2.38995">
        <ele>546.2</ele>
        <time>2021-07-25 12:44:30</time>
      </trkpt>
      <trkpt lat="42.67687" lon="-2.39005">
        <ele>547.2</ele>
        <time>2021-07-25 12:44:34</time>
      </trkpt>
      <trkpt lat="42.67687" lon="-2.39005">
        <ele>547.6</ele>
        <time>2021-07-25 12:44:38</time>
      </trkpt>
      <trkpt lat="42.67687" lon="-2.39012">
        <ele>548</ele>
        <time>2021-07-25 12:44:42</time>
      </trkpt>
      <trkpt lat="42.67687" lon="-2.39012">
        <ele>547.8</ele>
        <time>2021-07-25 12:44:46</time>
      </trkpt>
      <trkpt lat="42.67687" lon="-2.39012">
        <ele>548.2</ele>
        <time>2021-07-25 12:44:50</time>
      </trkpt>
      <trkpt lat="42.67688" lon="-2.39016">
        <ele>547.6</ele>
        <time>2021-07-25 12:44:54</time>
      </trkpt>
      <trkpt lat="42.67697" lon="-2.39021">
        <ele>547.4</ele>
        <time>2021-07-25 12:44:58</time>
      </trkpt>
      <trkpt lat="42.67705" lon="-2.39029">
        <ele>547.6</ele>
        <time>2021-07-25 12:45:02</time>
      </trkpt>
      <trkpt lat="42.67711" lon="-2.39037">
        <ele>548</ele>
        <time>2021-07-25 12:45:06</time>
      </trkpt>
      <trkpt lat="42.67719" lon="-2.39044">
        <ele>548</ele>
        <time>2021-07-25 12:45:10</time>
      </trkpt>
      <trkpt lat="42.67729" lon="-2.39054">
        <ele>547.8</ele>
        <time>2021-07-25 12:45:14</time>
      </trkpt>
      <trkpt lat="42.67739" lon="-2.39062">
        <ele>548.6</ele>
        <time>2021-07-25 12:45:18</time>
      </trkpt>
      <trkpt lat="42.67749" lon="-2.3907">
        <ele>548.6</ele>
        <time>2021-07-25 12:45:22</time>
      </trkpt>
      <trkpt lat="42.6776" lon="-2.39077">
        <ele>548.4</ele>
        <time>2021-07-25 12:45:26</time>
      </trkpt>
      <trkpt lat="42.67771" lon="-2.39083">
        <ele>548.8</ele>
        <time>2021-07-25 12:45:30</time>
      </trkpt>
      <trkpt lat="42.67782" lon="-2.39087">
        <ele>549</ele>
        <time>2021-07-25 12:45:34</time>
      </trkpt>
      <trkpt lat="42.67794" lon="-2.39092">
        <ele>549.4</ele>
        <time>2021-07-25 12:45:38</time>
      </trkpt>
      <trkpt lat="42.67806" lon="-2.39097">
        <ele>549.8</ele>
        <time>2021-07-25 12:45:42</time>
      </trkpt>
      <trkpt lat="42.67818" lon="-2.39102">
        <ele>549.6</ele>
        <time>2021-07-25 12:45:46</time>
      </trkpt>
      <trkpt lat="42.6783" lon="-2.39107">
        <ele>549.6</ele>
        <time>2021-07-25 12:45:50</time>
      </trkpt>
      <trkpt lat="42.67843" lon="-2.39113">
        <ele>550.4</ele>
        <time>2021-07-25 12:45:54</time>
      </trkpt>
      <trkpt lat="42.67857" lon="-2.39118">
        <ele>550.8</ele>
        <time>2021-07-25 12:45:58</time>
      </trkpt>
      <trkpt lat="42.6787" lon="-2.39123">
        <ele>550.4</ele>
        <time>2021-07-25 12:46:02</time>
      </trkpt>
      <trkpt lat="42.67881" lon="-2.3913">
        <ele>550.2</ele>
        <time>2021-07-25 12:46:06</time>
      </trkpt>
      <trkpt lat="42.67891" lon="-2.39135">
        <ele>550.2</ele>
        <time>2021-07-25 12:46:10</time>
      </trkpt>
      <trkpt lat="42.67901" lon="-2.39138">
        <ele>550.4</ele>
        <time>2021-07-25 12:46:14</time>
      </trkpt>
      <trkpt lat="42.67912" lon="-2.39142">
        <ele>550.8</ele>
        <time>2021-07-25 12:46:18</time>
      </trkpt>
      <trkpt lat="42.67925" lon="-2.39147">
        <ele>550.8</ele>
        <time>2021-07-25 12:46:22</time>
      </trkpt>
      <trkpt lat="42.67937" lon="-2.39154">
        <ele>551</ele>
        <time>2021-07-25 12:46:26</time>
      </trkpt>
      <trkpt lat="42.67949" lon="-2.39158">
        <ele>550.8</ele>
        <time>2021-07-25 12:46:30</time>
      </trkpt>
      <trkpt lat="42.67961" lon="-2.39162">
        <ele>551.6</ele>
        <time>2021-07-25 12:46:34</time>
      </trkpt>
      <trkpt lat="42.67973" lon="-2.39165">
        <ele>551.6</ele>
        <time>2021-07-25 12:46:38</time>
      </trkpt>
      <trkpt lat="42.67986" lon="-2.3917">
        <ele>551.4</ele>
        <time>2021-07-25 12:46:42</time>
      </trkpt>
      <trkpt lat="42.67997" lon="-2.39176">
        <ele>551.8</ele>
        <time>2021-07-25 12:46:46</time>
      </trkpt>
      <trkpt lat="42.68011" lon="-2.39181">
        <ele>551.8</ele>
        <time>2021-07-25 12:46:50</time>
      </trkpt>
      <trkpt lat="42.68025" lon="-2.39187">
        <ele>552.4</ele>
        <time>2021-07-25 12:46:54</time>
      </trkpt>
      <trkpt lat="42.68039" lon="-2.39193">
        <ele>552.2</ele>
        <time>2021-07-25 12:46:58</time>
      </trkpt>
      <trkpt lat="42.68053" lon="-2.39201">
        <ele>552.2</ele>
        <time>2021-07-25 12:47:02</time>
      </trkpt>
      <trkpt lat="42.68067" lon="-2.39209">
        <ele>552.2</ele>
        <time>2021-07-25 12:47:06</time>
      </trkpt>
      <trkpt lat="42.68081" lon="-2.39215">
        <ele>552.2</ele>
        <time>2021-07-25 12:47:10</time>
      </trkpt>
      <trkpt lat="42.68095" lon="-2.39222">
        <ele>553</ele>
        <time>2021-07-25 12:47:14</time>
      </trkpt>
      <trkpt lat="42.68108" lon="-2.39228">
        <ele>553.2</ele>
        <time>2021-07-25 12:47:18</time>
      </trkpt>
      <trkpt lat="42.68123" lon="-2.39235">
        <ele>553.2</ele>
        <time>2021-07-25 12:47:22</time>
      </trkpt>
      <trkpt lat="42.68137" lon="-2.39243">
        <ele>552.6</ele>
        <time>2021-07-25 12:47:26</time>
      </trkpt>
      <trkpt lat="42.68151" lon="-2.39251">
        <ele>552.8</ele>
        <time>2021-07-25 12:47:30</time>
      </trkpt>
      <trkpt lat="42.68165" lon="-2.39258">
        <ele>553.4</ele>
        <time>2021-07-25 12:47:34</time>
      </trkpt>
      <trkpt lat="42.68178" lon="-2.39265">
        <ele>553.2</ele>
        <time>2021-07-25 12:47:38</time>
      </trkpt>
      <trkpt lat="42.68191" lon="-2.39273">
        <ele>554.2</ele>
        <time>2021-07-25 12:47:42</time>
      </trkpt>
      <trkpt lat="42.68197" lon="-2.39277">
        <ele>554.4</ele>
        <time>2021-07-25 12:47:46</time>
      </trkpt>
      <trkpt lat="42.68198" lon="-2.39278">
        <ele>554.8</ele>
        <time>2021-07-25 12:47:50</time>
      </trkpt>
      <trkpt lat="42.68201" lon="-2.39278">
        <ele>554.6</ele>
        <time>2021-07-25 12:47:54</time>
      </trkpt>
      <trkpt lat="42.68204" lon="-2.39278">
        <ele>554.6</ele>
        <time>2021-07-25 12:47:58</time>
      </trkpt>
      <trkpt lat="42.68204" lon="-2.39278">
        <ele>555</ele>
        <time>2021-07-25 12:48:02</time>
      </trkpt>
      <trkpt lat="42.68206" lon="-2.39279">
        <ele>554.6</ele>
        <time>2021-07-25 12:48:06</time>
      </trkpt>
      <trkpt lat="42.68211" lon="-2.39282">
        <ele>554.6</ele>
        <time>2021-07-25 12:48:10</time>
      </trkpt>
      <trkpt lat="42.68219" lon="-2.39286">
        <ele>554.6</ele>
        <time>2021-07-25 12:48:14</time>
      </trkpt>
      <trkpt lat="42.68229" lon="-2.3929">
        <ele>554.2</ele>
        <time>2021-07-25 12:48:18</time>
      </trkpt>
      <trkpt lat="42.68241" lon="-2.39296">
        <ele>554.2</ele>
        <time>2021-07-25 12:48:22</time>
      </trkpt>
      <trkpt lat="42.68254" lon="-2.39304">
        <ele>554.2</ele>
        <time>2021-07-25 12:48:26</time>
      </trkpt>
      <trkpt lat="42.68266" lon="-2.39311">
        <ele>554.8</ele>
        <time>2021-07-25 12:48:30</time>
      </trkpt>
      <trkpt lat="42.68278" lon="-2.39317">
        <ele>555.2</ele>
        <time>2021-07-25 12:48:34</time>
      </trkpt>
      <trkpt lat="42.6829" lon="-2.39324">
        <ele>555</ele>
        <time>2021-07-25 12:48:38</time>
      </trkpt>
      <trkpt lat="42.68304" lon="-2.39331">
        <ele>555.4</ele>
        <time>2021-07-25 12:48:42</time>
      </trkpt>
      <trkpt lat="42.68318" lon="-2.39339">
        <ele>555.8</ele>
        <time>2021-07-25 12:48:46</time>
      </trkpt>
      <trkpt lat="42.68331" lon="-2.39346">
        <ele>555.8</ele>
        <time>2021-07-25 12:48:50</time>
      </trkpt>
      <trkpt lat="42.68344" lon="-2.39355">
        <ele>556</ele>
        <time>2021-07-25 12:48:54</time>
      </trkpt>
      <trkpt lat="42.68358" lon="-2.39362">
        <ele>556</ele>
        <time>2021-07-25 12:48:58</time>
      </trkpt>
      <trkpt lat="42.68371" lon="-2.39369">
        <ele>556</ele>
        <time>2021-07-25 12:49:02</time>
      </trkpt>
      <trkpt lat="42.68386" lon="-2.39376">
        <ele>556</ele>
        <time>2021-07-25 12:49:06</time>
      </trkpt>
      <trkpt lat="42.684" lon="-2.39384">
        <ele>556.4</ele>
        <time>2021-07-25 12:49:10</time>
      </trkpt>
      <trkpt lat="42.68413" lon="-2.39392">
        <ele>556.8</ele>
        <time>2021-07-25 12:49:14</time>
      </trkpt>
      <trkpt lat="42.68426" lon="-2.39399">
        <ele>556.8</ele>
        <time>2021-07-25 12:49:18</time>
      </trkpt>
      <trkpt lat="42.68439" lon="-2.39407">
        <ele>557</ele>
        <time>2021-07-25 12:49:22</time>
      </trkpt>
      <trkpt lat="42.68453" lon="-2.39415">
        <ele>556.2</ele>
        <time>2021-07-25 12:49:26</time>
      </trkpt>
      <trkpt lat="42.68466" lon="-2.39422">
        <ele>557.2</ele>
        <time>2021-07-25 12:49:30</time>
      </trkpt>
      <trkpt lat="42.68478" lon="-2.39428">
        <ele>557.2</ele>
        <time>2021-07-25 12:49:34</time>
      </trkpt>
      <trkpt lat="42.68491" lon="-2.39434">
        <ele>557.4</ele>
        <time>2021-07-25 12:49:38</time>
      </trkpt>
      <trkpt lat="42.68504" lon="-2.3944">
        <ele>557.4</ele>
        <time>2021-07-25 12:49:42</time>
      </trkpt>
      <trkpt lat="42.68517" lon="-2.39448">
        <ele>557.6</ele>
        <time>2021-07-25 12:49:46</time>
      </trkpt>
      <trkpt lat="42.68529" lon="-2.39455">
        <ele>556.4</ele>
        <time>2021-07-25 12:49:50</time>
      </trkpt>
      <trkpt lat="42.68541" lon="-2.39462">
        <ele>557.4</ele>
        <time>2021-07-25 12:49:54</time>
      </trkpt>
      <trkpt lat="42.68553" lon="-2.39468">
        <ele>558</ele>
        <time>2021-07-25 12:49:58</time>
      </trkpt>
      <trkpt lat="42.68564" lon="-2.39474">
        <ele>557.8</ele>
        <time>2021-07-25 12:50:02</time>
      </trkpt>
      <trkpt lat="42.68576" lon="-2.39481">
        <ele>558.2</ele>
        <time>2021-07-25 12:50:06</time>
      </trkpt>
      <trkpt lat="42.68588" lon="-2.39488">
        <ele>558.2</ele>
        <time>2021-07-25 12:50:10</time>
      </trkpt>
      <trkpt lat="42.68599" lon="-2.39492">
        <ele>558</ele>
        <time>2021-07-25 12:50:14</time>
      </trkpt>
      <trkpt lat="42.68609" lon="-2.39495">
        <ele>559.8</ele>
        <time>2021-07-25 12:50:18</time>
      </trkpt>
      <trkpt lat="42.68618" lon="-2.39499">
        <ele>558.8</ele>
        <time>2021-07-25 12:50:22</time>
      </trkpt>
      <trkpt lat="42.68626" lon="-2.39502">
        <ele>559.6</ele>
        <time>2021-07-25 12:50:26</time>
      </trkpt>
      <trkpt lat="42.68634" lon="-2.39506">
        <ele>559.6</ele>
        <time>2021-07-25 12:50:30</time>
      </trkpt>
      <trkpt lat="42.68641" lon="-2.3951">
        <ele>560.8</ele>
        <time>2021-07-25 12:50:34</time>
      </trkpt>
      <trkpt lat="42.68648" lon="-2.39513">
        <ele>562.2</ele>
        <time>2021-07-25 12:50:38</time>
      </trkpt>
      <trkpt lat="42.68656" lon="-2.39515">
        <ele>561.8</ele>
        <time>2021-07-25 12:50:42</time>
      </trkpt>
      <trkpt lat="42.68664" lon="-2.39518">
        <ele>563.2</ele>
        <time>2021-07-25 12:50:46</time>
      </trkpt>
      <trkpt lat="42.68671" lon="-2.39521">
        <ele>564.8</ele>
        <time>2021-07-25 12:50:50</time>
      </trkpt>
      <trkpt lat="42.68678" lon="-2.39525">
        <ele>565.4</ele>
        <time>2021-07-25 12:50:54</time>
      </trkpt>
      <trkpt lat="42.68686" lon="-2.39529">
        <ele>565.2</ele>
        <time>2021-07-25 12:50:58</time>
      </trkpt>
      <trkpt lat="42.68695" lon="-2.39534">
        <ele>565.8</ele>
        <time>2021-07-25 12:51:02</time>
      </trkpt>
      <trkpt lat="42.68704" lon="-2.3954">
        <ele>565.8</ele>
        <time>2021-07-25 12:51:06</time>
      </trkpt>
      <trkpt lat="42.68713" lon="-2.39545">
        <ele>566.6</ele>
        <time>2021-07-25 12:51:10</time>
      </trkpt>
      <trkpt lat="42.68717" lon="-2.39552">
        <ele>567.4</ele>
        <time>2021-07-25 12:51:14</time>
      </trkpt>
      <trkpt lat="42.68714" lon="-2.3956">
        <ele>567.6</ele>
        <time>2021-07-25 12:51:18</time>
      </trkpt>
      <trkpt lat="42.68713" lon="-2.39573">
        <ele>567.4</ele>
        <time>2021-07-25 12:51:22</time>
      </trkpt>
      <trkpt lat="42.68713" lon="-2.39587">
        <ele>567.6</ele>
        <time>2021-07-25 12:51:26</time>
      </trkpt>
      <trkpt lat="42.68712" lon="-2.39599">
        <ele>567.6</ele>
        <time>2021-07-25 12:51:30</time>
      </trkpt>
      <trkpt lat="42.68717" lon="-2.39607">
        <ele>569</ele>
        <time>2021-07-25 12:51:34</time>
      </trkpt>
      <trkpt lat="42.68724" lon="-2.39606">
        <ele>569.2</ele>
        <time>2021-07-25 12:51:38</time>
      </trkpt>
      <trkpt lat="42.68732" lon="-2.39606">
        <ele>569.4</ele>
        <time>2021-07-25 12:51:42</time>
      </trkpt>
      <trkpt lat="42.68741" lon="-2.39606">
        <ele>570</ele>
        <time>2021-07-25 12:51:46</time>
      </trkpt>
      <trkpt lat="42.68751" lon="-2.39606">
        <ele>569.6</ele>
        <time>2021-07-25 12:51:50</time>
      </trkpt>
      <trkpt lat="42.68762" lon="-2.39607">
        <ele>569.8</ele>
        <time>2021-07-25 12:51:54</time>
      </trkpt>
      <trkpt lat="42.68775" lon="-2.39612">
        <ele>569.8</ele>
        <time>2021-07-25 12:51:58</time>
      </trkpt>
      <trkpt lat="42.68788" lon="-2.39619">
        <ele>569.8</ele>
        <time>2021-07-25 12:52:02</time>
      </trkpt>
      <trkpt lat="42.68799" lon="-2.39626">
        <ele>570.4</ele>
        <time>2021-07-25 12:52:06</time>
      </trkpt>
      <trkpt lat="42.68811" lon="-2.39634">
        <ele>570.2</ele>
        <time>2021-07-25 12:52:10</time>
      </trkpt>
      <trkpt lat="42.68823" lon="-2.3964">
        <ele>570.2</ele>
        <time>2021-07-25 12:52:14</time>
      </trkpt>
      <trkpt lat="42.68835" lon="-2.39645">
        <ele>570.4</ele>
        <time>2021-07-25 12:52:18</time>
      </trkpt>
      <trkpt lat="42.68847" lon="-2.39649">
        <ele>571.2</ele>
        <time>2021-07-25 12:52:22</time>
      </trkpt>
      <trkpt lat="42.6886" lon="-2.39655">
        <ele>570.6</ele>
        <time>2021-07-25 12:52:26</time>
      </trkpt>
      <trkpt lat="42.68872" lon="-2.39661">
        <ele>570</ele>
        <time>2021-07-25 12:52:30</time>
      </trkpt>
      <trkpt lat="42.68884" lon="-2.39667">
        <ele>570.4</ele>
        <time>2021-07-25 12:52:34</time>
      </trkpt>
      <trkpt lat="42.68897" lon="-2.39673">
        <ele>568.6</ele>
        <time>2021-07-25 12:52:38</time>
      </trkpt>
      <trkpt lat="42.68913" lon="-2.39681">
        <ele>569</ele>
        <time>2021-07-25 12:52:42</time>
      </trkpt>
      <trkpt lat="42.6893" lon="-2.39691">
        <ele>568.2</ele>
        <time>2021-07-25 12:52:46</time>
      </trkpt>
      <trkpt lat="42.68945" lon="-2.39702">
        <ele>569</ele>
        <time>2021-07-25 12:52:50</time>
      </trkpt>
      <trkpt lat="42.68958" lon="-2.39714">
        <ele>568.2</ele>
        <time>2021-07-25 12:52:54</time>
      </trkpt>
      <trkpt lat="42.68969" lon="-2.39724">
        <ele>568.8</ele>
        <time>2021-07-25 12:52:58</time>
      </trkpt>
      <trkpt lat="42.68978" lon="-2.39733">
        <ele>569.8</ele>
        <time>2021-07-25 12:53:02</time>
      </trkpt>
      <trkpt lat="42.68989" lon="-2.39742">
        <ele>569</ele>
        <time>2021-07-25 12:53:06</time>
      </trkpt>
      <trkpt lat="42.69001" lon="-2.39749">
        <ele>569.2</ele>
        <time>2021-07-25 12:53:10</time>
      </trkpt>
      <trkpt lat="42.69017" lon="-2.39757">
        <ele>567</ele>
        <time>2021-07-25 12:53:14</time>
      </trkpt>
      <trkpt lat="42.69035" lon="-2.39766">
        <ele>565.8</ele>
        <time>2021-07-25 12:53:18</time>
      </trkpt>
      <trkpt lat="42.69058" lon="-2.3977">
        <ele>562.6</ele>
        <time>2021-07-25 12:53:22</time>
      </trkpt>
      <trkpt lat="42.69083" lon="-2.39775">
        <ele>561.8</ele>
        <time>2021-07-25 12:53:26</time>
      </trkpt>
      <trkpt lat="42.69105" lon="-2.39782">
        <ele>562.2</ele>
        <time>2021-07-25 12:53:30</time>
      </trkpt>
      <trkpt lat="42.69124" lon="-2.39792">
        <ele>562.2</ele>
        <time>2021-07-25 12:53:34</time>
      </trkpt>
      <trkpt lat="42.69139" lon="-2.39802">
        <ele>562.2</ele>
        <time>2021-07-25 12:53:38</time>
      </trkpt>
      <trkpt lat="42.69155" lon="-2.39811">
        <ele>561.8</ele>
        <time>2021-07-25 12:53:42</time>
      </trkpt>
      <trkpt lat="42.6917" lon="-2.39823">
        <ele>562.8</ele>
        <time>2021-07-25 12:53:46</time>
      </trkpt>
      <trkpt lat="42.69187" lon="-2.39834">
        <ele>563</ele>
        <time>2021-07-25 12:53:50</time>
      </trkpt>
      <trkpt lat="42.69205" lon="-2.39842">
        <ele>560.4</ele>
        <time>2021-07-25 12:53:54</time>
      </trkpt>
      <trkpt lat="42.6922" lon="-2.39839">
        <ele>561.6</ele>
        <time>2021-07-25 12:53:58</time>
      </trkpt>
      <trkpt lat="42.69227" lon="-2.3982">
        <ele>561.2</ele>
        <time>2021-07-25 12:54:02</time>
      </trkpt>
      <trkpt lat="42.69232" lon="-2.39802">
        <ele>561.2</ele>
        <time>2021-07-25 12:54:06</time>
      </trkpt>
      <trkpt lat="42.69237" lon="-2.39795">
        <ele>562.6</ele>
        <time>2021-07-25 12:54:10</time>
      </trkpt>
      <trkpt lat="42.69237" lon="-2.39795">
        <ele>562.6</ele>
        <time>2021-07-25 12:54:14</time>
      </trkpt>
      <trkpt lat="42.69237" lon="-2.39795">
        <ele>562.4</ele>
        <time>2021-07-25 12:54:18</time>
      </trkpt>
      <trkpt lat="42.69237" lon="-2.39795">
        <ele>562.6</ele>
        <time>2021-07-25 12:54:22</time>
      </trkpt>
      <trkpt lat="42.69237" lon="-2.39795">
        <ele>562.6</ele>
        <time>2021-07-25 12:54:26</time>
      </trkpt>
      <trkpt lat="42.69237" lon="-2.39795">
        <ele>562.4</ele>
        <time>2021-07-25 12:54:30</time>
      </trkpt>
      <trkpt lat="42.69237" lon="-2.39795">
        <ele>562.2</ele>
        <time>2021-07-25 12:54:34</time>
      </trkpt>
      <trkpt lat="42.69237" lon="-2.39795">
        <ele>562.4</ele>
        <time>2021-07-25 12:54:38</time>
      </trkpt>
      <trkpt lat="42.69237" lon="-2.39795">
        <ele>562</ele>
        <time>2021-07-25 12:54:42</time>
      </trkpt>
      <trkpt lat="42.69237" lon="-2.39795">
        <ele>562.4</ele>
        <time>2021-07-25 12:54:46</time>
      </trkpt>
      <trkpt lat="42.69237" lon="-2.39795">
        <ele>562.4</ele>
        <time>2021-07-25 12:54:50</time>
      </trkpt>
      <trkpt lat="42.69237" lon="-2.39795">
        <ele>562.2</ele>
        <time>2021-07-25 12:54:54</time>
      </trkpt>
      <trkpt lat="42.69237" lon="-2.39795">
        <ele>562</ele>
        <time>2021-07-25 12:54:58</time>
      </trkpt>
      <trkpt lat="42.69237" lon="-2.39795">
        <ele>562</ele>
        <time>2021-07-25 12:55:02</time>
      </trkpt>
      <trkpt lat="42.69237" lon="-2.39795">
        <ele>562.4</ele>
        <time>2021-07-25 12:55:06</time>
      </trkpt>
      <trkpt lat="42.69237" lon="-2.39795">
        <ele>562.4</ele>
        <time>2021-07-25 12:55:10</time>
      </trkpt>
      <trkpt lat="42.69237" lon="-2.39795">
        <ele>562.4</ele>
        <time>2021-07-25 12:55:14</time>
      </trkpt>
      <trkpt lat="42.69243" lon="-2.39797">
        <ele>562.2</ele>
        <time>2021-07-25 12:55:18</time>
      </trkpt>
      <trkpt lat="42.69247" lon="-2.39799">
        <ele>562.2</ele>
        <time>2021-07-25 12:55:22</time>
      </trkpt>
      <trkpt lat="42.69251" lon="-2.39802">
        <ele>561.6</ele>
        <time>2021-07-25 12:55:26</time>
      </trkpt>
      <trkpt lat="42.69254" lon="-2.39804">
        <ele>561.4</ele>
        <time>2021-07-25 12:55:30</time>
      </trkpt>
      <trkpt lat="42.69254" lon="-2.39804">
        <ele>562.2</ele>
        <time>2021-07-25 12:55:34</time>
      </trkpt>
      <trkpt lat="42.69254" lon="-2.39804">
        <ele>562.2</ele>
        <time>2021-07-25 12:55:38</time>
      </trkpt>
      <trkpt lat="42.69254" lon="-2.39804">
        <ele>562.4</ele>
        <time>2021-07-25 12:55:42</time>
      </trkpt>
      <trkpt lat="42.69254" lon="-2.39804">
        <ele>562.2</ele>
        <time>2021-07-25 12:55:46</time>
      </trkpt>
      <trkpt lat="42.69254" lon="-2.39804">
        <ele>562.2</ele>
        <time>2021-07-25 12:55:50</time>
      </trkpt>
      <trkpt lat="42.69254" lon="-2.39804">
        <ele>562.4</ele>
        <time>2021-07-25 12:55:54</time>
      </trkpt>
      <trkpt lat="42.69254" lon="-2.39804">
        <ele>562.4</ele>
        <time>2021-07-25 12:55:58</time>
      </trkpt>
      <trkpt lat="42.69254" lon="-2.39804">
        <ele>562.2</ele>
        <time>2021-07-25 12:56:02</time>
      </trkpt>
      <trkpt lat="42.69254" lon="-2.39804">
        <ele>562.2</ele>
        <time>2021-07-25 12:56:06</time>
      </trkpt>
      <trkpt lat="42.69254" lon="-2.39804">
        <ele>562</ele>
        <time>2021-07-25 12:56:10</time>
      </trkpt>
      <trkpt lat="42.69254" lon="-2.39804">
        <ele>562.2</ele>
        <time>2021-07-25 12:56:14</time>
      </trkpt>
      <trkpt lat="42.69254" lon="-2.39804">
        <ele>562.4</ele>
        <time>2021-07-25 12:56:18</time>
      </trkpt>
      <trkpt lat="42.69254" lon="-2.39804">
        <ele>562.2</ele>
        <time>2021-07-25 12:56:22</time>
      </trkpt>
      <trkpt lat="42.69254" lon="-2.39804">
        <ele>562.2</ele>
        <time>2021-07-25 12:56:26</time>
      </trkpt>
      <trkpt lat="42.69254" lon="-2.39804">
        <ele>562.2</ele>
        <time>2021-07-25 12:56:30</time>
      </trkpt>
      <trkpt lat="42.69254" lon="-2.39804">
        <ele>561.8</ele>
        <time>2021-07-25 12:56:34</time>
      </trkpt>
      <trkpt lat="42.69254" lon="-2.39804">
        <ele>561.8</ele>
        <time>2021-07-25 12:56:38</time>
      </trkpt>
      <trkpt lat="42.69254" lon="-2.39804">
        <ele>561.8</ele>
        <time>2021-07-25 12:56:42</time>
      </trkpt>
      <trkpt lat="42.69254" lon="-2.39804">
        <ele>561.8</ele>
        <time>2021-07-25 12:56:46</time>
      </trkpt>
      <trkpt lat="42.69254" lon="-2.39804">
        <ele>562</ele>
        <time>2021-07-25 12:56:50</time>
      </trkpt>
      <trkpt lat="42.69254" lon="-2.39804">
        <ele>562.2</ele>
        <time>2021-07-25 12:56:54</time>
      </trkpt>
      <trkpt lat="42.69254" lon="-2.39804">
        <ele>562.2</ele>
        <time>2021-07-25 12:56:58</time>
      </trkpt>
      <trkpt lat="42.69254" lon="-2.39804">
        <ele>562.2</ele>
        <time>2021-07-25 12:57:02</time>
      </trkpt>
      <trkpt lat="42.69254" lon="-2.39804">
        <ele>562.4</ele>
        <time>2021-07-25 12:57:06</time>
      </trkpt>
      <trkpt lat="42.69254" lon="-2.39804">
        <ele>562.4</ele>
        <time>2021-07-25 12:57:10</time>
      </trkpt>
      <trkpt lat="42.69254" lon="-2.39804">
        <ele>562.6</ele>
        <time>2021-07-25 12:57:14</time>
      </trkpt>
      <trkpt lat="42.69254" lon="-2.39804">
        <ele>562.2</ele>
        <time>2021-07-25 12:57:18</time>
      </trkpt>
      <trkpt lat="42.69254" lon="-2.39804">
        <ele>562.2</ele>
        <time>2021-07-25 12:57:22</time>
      </trkpt>
      <trkpt lat="42.69254" lon="-2.39804">
        <ele>562.2</ele>
        <time>2021-07-25 12:57:26</time>
      </trkpt>
      <trkpt lat="42.69254" lon="-2.39804">
        <ele>562.4</ele>
        <time>2021-07-25 12:57:30</time>
      </trkpt>
      <trkpt lat="42.69254" lon="-2.39804">
        <ele>562.2</ele>
        <time>2021-07-25 12:57:34</time>
      </trkpt>
      <trkpt lat="42.69254" lon="-2.39804">
        <ele>562.2</ele>
        <time>2021-07-25 12:57:38</time>
      </trkpt>
      <trkpt lat="42.69254" lon="-2.39804">
        <ele>562.4</ele>
        <time>2021-07-25 12:57:42</time>
      </trkpt>
      <trkpt lat="42.69254" lon="-2.39804">
        <ele>562.4</ele>
        <time>2021-07-25 12:57:46</time>
      </trkpt>
      <trkpt lat="42.69254" lon="-2.39804">
        <ele>562.2</ele>
        <time>2021-07-25 12:57:50</time>
      </trkpt>
      <trkpt lat="42.69254" lon="-2.39804">
        <ele>562.4</ele>
        <time>2021-07-25 12:57:54</time>
      </trkpt>
      <trkpt lat="42.69254" lon="-2.39804">
        <ele>562.4</ele>
        <time>2021-07-25 12:57:58</time>
      </trkpt>
      <trkpt lat="42.69254" lon="-2.39804">
        <ele>562.4</ele>
        <time>2021-07-25 12:58:02</time>
      </trkpt>
      <trkpt lat="42.69254" lon="-2.39804">
        <ele>562.2</ele>
        <time>2021-07-25 12:58:06</time>
      </trkpt>
      <trkpt lat="42.69254" lon="-2.39804">
        <ele>562.2</ele>
        <time>2021-07-25 12:58:10</time>
      </trkpt>
      <trkpt lat="42.69254" lon="-2.39804">
        <ele>562.6</ele>
        <time>2021-07-25 12:58:14</time>
      </trkpt>
      <trkpt lat="42.69254" lon="-2.39804">
        <ele>562.6</ele>
        <time>2021-07-25 12:58:18</time>
      </trkpt>
      <trkpt lat="42.69254" lon="-2.39804">
        <ele>562.6</ele>
        <time>2021-07-25 12:58:22</time>
      </trkpt>
      <trkpt lat="42.69254" lon="-2.39804">
        <ele>562.4</ele>
        <time>2021-07-25 12:58:26</time>
      </trkpt>
      <trkpt lat="42.69254" lon="-2.39804">
        <ele>562.6</ele>
        <time>2021-07-25 12:58:30</time>
      </trkpt>
      <trkpt lat="42.69254" lon="-2.39804">
        <ele>562.6</ele>
        <time>2021-07-25 12:58:34</time>
      </trkpt>
      <trkpt lat="42.69254" lon="-2.39804">
        <ele>562.6</ele>
        <time>2021-07-25 12:58:38</time>
      </trkpt>
      <trkpt lat="42.69254" lon="-2.39804">
        <ele>562.6</ele>
        <time>2021-07-25 12:58:42</time>
      </trkpt>
      <trkpt lat="42.69254" lon="-2.39804">
        <ele>562.6</ele>
        <time>2021-07-25 12:58:46</time>
      </trkpt>
      <trkpt lat="42.69254" lon="-2.39804">
        <ele>562.4</ele>
        <time>2021-07-25 12:58:50</time>
      </trkpt>
      <trkpt lat="42.69254" lon="-2.39804">
        <ele>562.2</ele>
        <time>2021-07-25 12:58:54</time>
      </trkpt>
      <trkpt lat="42.69254" lon="-2.39804">
        <ele>562.2</ele>
        <time>2021-07-25 12:58:58</time>
      </trkpt>
      <trkpt lat="42.69254" lon="-2.39804">
        <ele>561.8</ele>
        <time>2021-07-25 12:59:02</time>
      </trkpt>
      <trkpt lat="42.69254" lon="-2.39804">
        <ele>562.4</ele>
        <time>2021-07-25 12:59:06</time>
      </trkpt>
      <trkpt lat="42.69254" lon="-2.39804">
        <ele>562.4</ele>
        <time>2021-07-25 12:59:10</time>
      </trkpt>
      <trkpt lat="42.69254" lon="-2.39804">
        <ele>562.4</ele>
        <time>2021-07-25 12:59:14</time>
      </trkpt>
      <trkpt lat="42.69254" lon="-2.39804">
        <ele>562.4</ele>
        <time>2021-07-25 12:59:18</time>
      </trkpt>
      <trkpt lat="42.69254" lon="-2.39804">
        <ele>562.4</ele>
        <time>2021-07-25 12:59:22</time>
      </trkpt>
      <trkpt lat="42.69254" lon="-2.39804">
        <ele>562.4</ele>
        <time>2021-07-25 12:59:26</time>
      </trkpt>
      <trkpt lat="42.69254" lon="-2.39804">
        <ele>562</ele>
        <time>2021-07-25 12:59:30</time>
      </trkpt>
      <trkpt lat="42.69254" lon="-2.39804">
        <ele>562.4</ele>
        <time>2021-07-25 12:59:34</time>
      </trkpt>
      <trkpt lat="42.69254" lon="-2.39804">
        <ele>562.2</ele>
        <time>2021-07-25 12:59:38</time>
      </trkpt>
      <trkpt lat="42.69254" lon="-2.39804">
        <ele>562.4</ele>
        <time>2021-07-25 12:59:42</time>
      </trkpt>
      <trkpt lat="42.69254" lon="-2.39804">
        <ele>562.2</ele>
        <time>2021-07-25 12:59:46</time>
      </trkpt>
      <trkpt lat="42.69254" lon="-2.39804">
        <ele>562.4</ele>
        <time>2021-07-25 12:59:50</time>
      </trkpt>
      <trkpt lat="42.69254" lon="-2.39804">
        <ele>562.6</ele>
        <time>2021-07-25 12:59:54</time>
      </trkpt>
      <trkpt lat="42.69254" lon="-2.39804">
        <ele>562.4</ele>
        <time>2021-07-25 12:59:58</time>
      </trkpt>
      <trkpt lat="42.69254" lon="-2.39804">
        <ele>562.4</ele>
        <time>2021-07-25 13:00:02</time>
      </trkpt>
      <trkpt lat="42.69254" lon="-2.39804">
        <ele>562.2</ele>
        <time>2021-07-25 13:00:06</time>
      </trkpt>
      <trkpt lat="42.69254" lon="-2.39804">
        <ele>562.2</ele>
        <time>2021-07-25 13:00:10</time>
      </trkpt>
      <trkpt lat="42.69254" lon="-2.39804">
        <ele>562.2</ele>
        <time>2021-07-25 13:00:14</time>
      </trkpt>
      <trkpt lat="42.69254" lon="-2.39804">
        <ele>562.2</ele>
        <time>2021-07-25 13:00:18</time>
      </trkpt>
      <trkpt lat="42.69254" lon="-2.39804">
        <ele>562</ele>
        <time>2021-07-25 13:00:22</time>
      </trkpt>
      <trkpt lat="42.69254" lon="-2.39804">
        <ele>562.8</ele>
        <time>2021-07-25 13:00:26</time>
      </trkpt>
      <trkpt lat="42.69254" lon="-2.39804">
        <ele>562.2</ele>
        <time>2021-07-25 13:00:30</time>
      </trkpt>
      <trkpt lat="42.69254" lon="-2.39804">
        <ele>562.4</ele>
        <time>2021-07-25 13:00:34</time>
      </trkpt>
      <trkpt lat="42.69254" lon="-2.39804">
        <ele>562.6</ele>
        <time>2021-07-25 13:00:38</time>
      </trkpt>
      <trkpt lat="42.69254" lon="-2.39804">
        <ele>562.4</ele>
        <time>2021-07-25 13:00:42</time>
      </trkpt>
      <trkpt lat="42.69254" lon="-2.39804">
        <ele>562.6</ele>
        <time>2021-07-25 13:00:46</time>
      </trkpt>
      <trkpt lat="42.69254" lon="-2.39804">
        <ele>562.8</ele>
        <time>2021-07-25 13:00:50</time>
      </trkpt>
      <trkpt lat="42.69254" lon="-2.39804">
        <ele>563</ele>
        <time>2021-07-25 13:00:54</time>
      </trkpt>
      <trkpt lat="42.69254" lon="-2.39804">
        <ele>562.6</ele>
        <time>2021-07-25 13:00:58</time>
      </trkpt>
      <trkpt lat="42.69254" lon="-2.39804">
        <ele>562.4</ele>
        <time>2021-07-25 13:01:02</time>
      </trkpt>
      <trkpt lat="42.69254" lon="-2.39804">
        <ele>562.8</ele>
        <time>2021-07-25 13:01:06</time>
      </trkpt>
      <trkpt lat="42.69254" lon="-2.39804">
        <ele>562.4</ele>
        <time>2021-07-25 13:01:10</time>
      </trkpt>
      <trkpt lat="42.69254" lon="-2.39804">
        <ele>562.4</ele>
        <time>2021-07-25 13:01:14</time>
      </trkpt>
      <trkpt lat="42.69254" lon="-2.39804">
        <ele>562.6</ele>
        <time>2021-07-25 13:01:18</time>
      </trkpt>
      <trkpt lat="42.69254" lon="-2.39804">
        <ele>562.4</ele>
        <time>2021-07-25 13:01:22</time>
      </trkpt>
      <trkpt lat="42.69254" lon="-2.39804">
        <ele>562.6</ele>
        <time>2021-07-25 13:01:26</time>
      </trkpt>
      <trkpt lat="42.69254" lon="-2.39804">
        <ele>562.6</ele>
        <time>2021-07-25 13:01:30</time>
      </trkpt>
      <trkpt lat="42.69254" lon="-2.39804">
        <ele>562.8</ele>
        <time>2021-07-25 13:01:34</time>
      </trkpt>
      <trkpt lat="42.69254" lon="-2.39804">
        <ele>562.8</ele>
        <time>2021-07-25 13:01:38</time>
      </trkpt>
      <trkpt lat="42.69254" lon="-2.39804">
        <ele>562.8</ele>
        <time>2021-07-25 13:01:42</time>
      </trkpt>
      <trkpt lat="42.69254" lon="-2.39804">
        <ele>562.6</ele>
        <time>2021-07-25 13:01:46</time>
      </trkpt>
      <trkpt lat="42.69254" lon="-2.39804">
        <ele>562.6</ele>
        <time>2021-07-25 13:01:50</time>
      </trkpt>
      <trkpt lat="42.69254" lon="-2.39804">
        <ele>562.6</ele>
        <time>2021-07-25 13:01:54</time>
      </trkpt>
      <trkpt lat="42.69254" lon="-2.39804">
        <ele>562.4</ele>
        <time>2021-07-25 13:01:58</time>
      </trkpt>
      <trkpt lat="42.69254" lon="-2.39804">
        <ele>562.4</ele>
        <time>2021-07-25 13:02:02</time>
      </trkpt>
      <trkpt lat="42.69254" lon="-2.39804">
        <ele>563</ele>
        <time>2021-07-25 13:02:06</time>
      </trkpt>
      <trkpt lat="42.69254" lon="-2.39804">
        <ele>562.8</ele>
        <time>2021-07-25 13:02:10</time>
      </trkpt>
      <trkpt lat="42.69254" lon="-2.39804">
        <ele>562.4</ele>
        <time>2021-07-25 13:02:14</time>
      </trkpt>
      <trkpt lat="42.69254" lon="-2.39804">
        <ele>562.4</ele>
        <time>2021-07-25 13:02:18</time>
      </trkpt>
      <trkpt lat="42.69254" lon="-2.39804">
        <ele>562.4</ele>
        <time>2021-07-25 13:02:22</time>
      </trkpt>
      <trkpt lat="42.69254" lon="-2.39804">
        <ele>562.8</ele>
        <time>2021-07-25 13:02:26</time>
      </trkpt>
      <trkpt lat="42.69254" lon="-2.39804">
        <ele>563</ele>
        <time>2021-07-25 13:02:30</time>
      </trkpt>
      <trkpt lat="42.69254" lon="-2.39804">
        <ele>562.8</ele>
        <time>2021-07-25 13:02:34</time>
      </trkpt>
      <trkpt lat="42.69254" lon="-2.39804">
        <ele>562.6</ele>
        <time>2021-07-25 13:02:38</time>
      </trkpt>
      <trkpt lat="42.69254" lon="-2.39804">
        <ele>562.6</ele>
        <time>2021-07-25 13:02:42</time>
      </trkpt>
      <trkpt lat="42.69254" lon="-2.39804">
        <ele>562.8</ele>
        <time>2021-07-25 13:02:46</time>
      </trkpt>
      <trkpt lat="42.69254" lon="-2.39804">
        <ele>562.6</ele>
        <time>2021-07-25 13:02:50</time>
      </trkpt>
      <trkpt lat="42.69254" lon="-2.39804">
        <ele>562.8</ele>
        <time>2021-07-25 13:02:54</time>
      </trkpt>
      <trkpt lat="42.69254" lon="-2.39804">
        <ele>562.6</ele>
        <time>2021-07-25 13:02:58</time>
      </trkpt>
      <trkpt lat="42.69254" lon="-2.39804">
        <ele>562.6</ele>
        <time>2021-07-25 13:03:02</time>
      </trkpt>
      <trkpt lat="42.69254" lon="-2.39804">
        <ele>562.8</ele>
        <time>2021-07-25 13:03:06</time>
      </trkpt>
      <trkpt lat="42.69254" lon="-2.39804">
        <ele>563</ele>
        <time>2021-07-25 13:03:10</time>
      </trkpt>
      <trkpt lat="42.69254" lon="-2.39804">
        <ele>562.8</ele>
        <time>2021-07-25 13:03:14</time>
      </trkpt>
      <trkpt lat="42.69254" lon="-2.39804">
        <ele>563</ele>
        <time>2021-07-25 13:03:18</time>
      </trkpt>
      <trkpt lat="42.69254" lon="-2.39804">
        <ele>562.6</ele>
        <time>2021-07-25 13:03:22</time>
      </trkpt>
      <trkpt lat="42.69254" lon="-2.39804">
        <ele>562.8</ele>
        <time>2021-07-25 13:03:26</time>
      </trkpt>
      <trkpt lat="42.69254" lon="-2.39804">
        <ele>563</ele>
        <time>2021-07-25 13:03:30</time>
      </trkpt>
      <trkpt lat="42.69254" lon="-2.39804">
        <ele>562.8</ele>
        <time>2021-07-25 13:03:34</time>
      </trkpt>
      <trkpt lat="42.69254" lon="-2.39804">
        <ele>562.8</ele>
        <time>2021-07-25 13:03:38</time>
      </trkpt>
      <trkpt lat="42.69254" lon="-2.39804">
        <ele>563.2</ele>
        <time>2021-07-25 13:03:42</time>
      </trkpt>
      <trkpt lat="42.69254" lon="-2.39804">
        <ele>563.2</ele>
        <time>2021-07-25 13:03:46</time>
      </trkpt>
      <trkpt lat="42.69254" lon="-2.39804">
        <ele>562.8</ele>
        <time>2021-07-25 13:03:50</time>
      </trkpt>
      <trkpt lat="42.69254" lon="-2.39804">
        <ele>563.2</ele>
        <time>2021-07-25 13:03:54</time>
      </trkpt>
      <trkpt lat="42.69254" lon="-2.39804">
        <ele>563</ele>
        <time>2021-07-25 13:03:58</time>
      </trkpt>
      <trkpt lat="42.69254" lon="-2.39804">
        <ele>563</ele>
        <time>2021-07-25 13:04:02</time>
      </trkpt>
      <trkpt lat="42.69254" lon="-2.39804">
        <ele>563.2</ele>
        <time>2021-07-25 13:04:06</time>
      </trkpt>
      <trkpt lat="42.69254" lon="-2.39804">
        <ele>563.2</ele>
        <time>2021-07-25 13:04:10</time>
      </trkpt>
      <trkpt lat="42.69254" lon="-2.39804">
        <ele>563.2</ele>
        <time>2021-07-25 13:04:14</time>
      </trkpt>
      <trkpt lat="42.69254" lon="-2.39804">
        <ele>562.8</ele>
        <time>2021-07-25 13:04:18</time>
      </trkpt>
      <trkpt lat="42.69254" lon="-2.39804">
        <ele>563.2</ele>
        <time>2021-07-25 13:04:22</time>
      </trkpt>
      <trkpt lat="42.69254" lon="-2.39804">
        <ele>563.2</ele>
        <time>2021-07-25 13:04:26</time>
      </trkpt>
      <trkpt lat="42.69254" lon="-2.39804">
        <ele>563.2</ele>
        <time>2021-07-25 13:04:30</time>
      </trkpt>
      <trkpt lat="42.69254" lon="-2.39804">
        <ele>563.2</ele>
        <time>2021-07-25 13:04:34</time>
      </trkpt>
      <trkpt lat="42.69254" lon="-2.39804">
        <ele>563</ele>
        <time>2021-07-25 13:04:38</time>
      </trkpt>
      <trkpt lat="42.69254" lon="-2.39804">
        <ele>563.2</ele>
        <time>2021-07-25 13:04:42</time>
      </trkpt>
      <trkpt lat="42.69254" lon="-2.39804">
        <ele>563</ele>
        <time>2021-07-25 13:04:46</time>
      </trkpt>
      <trkpt lat="42.69254" lon="-2.39804">
        <ele>563.2</ele>
        <time>2021-07-25 13:04:50</time>
      </trkpt>
      <trkpt lat="42.69254" lon="-2.39804">
        <ele>563</ele>
        <time>2021-07-25 13:04:54</time>
      </trkpt>
      <trkpt lat="42.69254" lon="-2.39804">
        <ele>563.2</ele>
        <time>2021-07-25 13:04:58</time>
      </trkpt>
      <trkpt lat="42.69254" lon="-2.39804">
        <ele>563.2</ele>
        <time>2021-07-25 13:05:02</time>
      </trkpt>
      <trkpt lat="42.69254" lon="-2.39804">
        <ele>563.4</ele>
        <time>2021-07-25 13:05:06</time>
      </trkpt>
      <trkpt lat="42.69254" lon="-2.39804">
        <ele>563.4</ele>
        <time>2021-07-25 13:05:10</time>
      </trkpt>
      <trkpt lat="42.69254" lon="-2.39804">
        <ele>563</ele>
        <time>2021-07-25 13:05:14</time>
      </trkpt>
      <trkpt lat="42.69254" lon="-2.39804">
        <ele>562.8</ele>
        <time>2021-07-25 13:05:18</time>
      </trkpt>
      <trkpt lat="42.69254" lon="-2.39804">
        <ele>563</ele>
        <time>2021-07-25 13:05:22</time>
      </trkpt>
      <trkpt lat="42.69254" lon="-2.39804">
        <ele>562.8</ele>
        <time>2021-07-25 13:05:26</time>
      </trkpt>
      <trkpt lat="42.69254" lon="-2.39804">
        <ele>563.2</ele>
        <time>2021-07-25 13:05:30</time>
      </trkpt>
      <trkpt lat="42.69254" lon="-2.39804">
        <ele>563.4</ele>
        <time>2021-07-25 13:05:34</time>
      </trkpt>
      <trkpt lat="42.69254" lon="-2.39804">
        <ele>563.2</ele>
        <time>2021-07-25 13:05:38</time>
      </trkpt>
      <trkpt lat="42.69254" lon="-2.39804">
        <ele>563.4</ele>
        <time>2021-07-25 13:05:42</time>
      </trkpt>
      <trkpt lat="42.69254" lon="-2.39804">
        <ele>563.4</ele>
        <time>2021-07-25 13:05:46</time>
      </trkpt>
      <trkpt lat="42.69254" lon="-2.39804">
        <ele>563.6</ele>
        <time>2021-07-25 13:05:50</time>
      </trkpt>
      <trkpt lat="42.69254" lon="-2.39804">
        <ele>564</ele>
        <time>2021-07-25 13:05:54</time>
      </trkpt>
      <trkpt lat="42.69254" lon="-2.39804">
        <ele>563.4</ele>
        <time>2021-07-25 13:05:58</time>
      </trkpt>
      <trkpt lat="42.69254" lon="-2.39804">
        <ele>563.8</ele>
        <time>2021-07-25 13:06:02</time>
      </trkpt>
      <trkpt lat="42.69254" lon="-2.39804">
        <ele>563.6</ele>
        <time>2021-07-25 13:06:06</time>
      </trkpt>
      <trkpt lat="42.69254" lon="-2.39804">
        <ele>563.6</ele>
        <time>2021-07-25 13:06:10</time>
      </trkpt>
      <trkpt lat="42.69254" lon="-2.39804">
        <ele>563.2</ele>
        <time>2021-07-25 13:06:14</time>
      </trkpt>
      <trkpt lat="42.69254" lon="-2.39804">
        <ele>563.2</ele>
        <time>2021-07-25 13:06:18</time>
      </trkpt>
      <trkpt lat="42.69254" lon="-2.39804">
        <ele>563</ele>
        <time>2021-07-25 13:06:22</time>
      </trkpt>
      <trkpt lat="42.69254" lon="-2.39804">
        <ele>563.4</ele>
        <time>2021-07-25 13:06:26</time>
      </trkpt>
      <trkpt lat="42.69254" lon="-2.39804">
        <ele>563.4</ele>
        <time>2021-07-25 13:06:30</time>
      </trkpt>
      <trkpt lat="42.69254" lon="-2.39804">
        <ele>563.2</ele>
        <time>2021-07-25 13:06:34</time>
      </trkpt>
      <trkpt lat="42.69254" lon="-2.39804">
        <ele>563.2</ele>
        <time>2021-07-25 13:06:38</time>
      </trkpt>
      <trkpt lat="42.69254" lon="-2.39804">
        <ele>563.4</ele>
        <time>2021-07-25 13:06:42</time>
      </trkpt>
      <trkpt lat="42.69254" lon="-2.39804">
        <ele>563.4</ele>
        <time>2021-07-25 13:06:46</time>
      </trkpt>
      <trkpt lat="42.69254" lon="-2.39804">
        <ele>563.2</ele>
        <time>2021-07-25 13:06:50</time>
      </trkpt>
      <trkpt lat="42.69254" lon="-2.39804">
        <ele>563.2</ele>
        <time>2021-07-25 13:06:54</time>
      </trkpt>
      <trkpt lat="42.69254" lon="-2.39804">
        <ele>563.4</ele>
        <time>2021-07-25 13:06:58</time>
      </trkpt>
      <trkpt lat="42.69254" lon="-2.39804">
        <ele>563.2</ele>
        <time>2021-07-25 13:07:02</time>
      </trkpt>
      <trkpt lat="42.69254" lon="-2.39804">
        <ele>563.2</ele>
        <time>2021-07-25 13:07:06</time>
      </trkpt>
      <trkpt lat="42.69254" lon="-2.39804">
        <ele>563.6</ele>
        <time>2021-07-25 13:07:10</time>
      </trkpt>
      <trkpt lat="42.69254" lon="-2.39804">
        <ele>563.2</ele>
        <time>2021-07-25 13:07:14</time>
      </trkpt>
      <trkpt lat="42.69254" lon="-2.39804">
        <ele>563.2</ele>
        <time>2021-07-25 13:07:18</time>
      </trkpt>
      <trkpt lat="42.69254" lon="-2.39804">
        <ele>563.4</ele>
        <time>2021-07-25 13:07:22</time>
      </trkpt>
      <trkpt lat="42.69254" lon="-2.39804">
        <ele>563.4</ele>
        <time>2021-07-25 13:07:26</time>
      </trkpt>
      <trkpt lat="42.69254" lon="-2.39804">
        <ele>563.6</ele>
        <time>2021-07-25 13:07:30</time>
      </trkpt>
      <trkpt lat="42.69254" lon="-2.39804">
        <ele>563.4</ele>
        <time>2021-07-25 13:07:34</time>
      </trkpt>
      <trkpt lat="42.69254" lon="-2.39804">
        <ele>563.6</ele>
        <time>2021-07-25 13:07:38</time>
      </trkpt>
      <trkpt lat="42.69254" lon="-2.39804">
        <ele>563.8</ele>
        <time>2021-07-25 13:07:42</time>
      </trkpt>
      <trkpt lat="42.69254" lon="-2.39804">
        <ele>563.6</ele>
        <time>2021-07-25 13:07:46</time>
      </trkpt>
      <trkpt lat="42.69254" lon="-2.39804">
        <ele>563.2</ele>
        <time>2021-07-25 13:07:50</time>
      </trkpt>
      <trkpt lat="42.69254" lon="-2.39804">
        <ele>563.8</ele>
        <time>2021-07-25 13:07:54</time>
      </trkpt>
      <trkpt lat="42.69254" lon="-2.39804">
        <ele>563.8</ele>
        <time>2021-07-25 13:07:58</time>
      </trkpt>
      <trkpt lat="42.69254" lon="-2.39804">
        <ele>563.6</ele>
        <time>2021-07-25 13:08:02</time>
      </trkpt>
      <trkpt lat="42.69254" lon="-2.39804">
        <ele>563.4</ele>
        <time>2021-07-25 13:08:06</time>
      </trkpt>
      <trkpt lat="42.69254" lon="-2.39804">
        <ele>563.2</ele>
        <time>2021-07-25 13:08:10</time>
      </trkpt>
      <trkpt lat="42.69254" lon="-2.39804">
        <ele>563.6</ele>
        <time>2021-07-25 13:08:14</time>
      </trkpt>
      <trkpt lat="42.69254" lon="-2.39804">
        <ele>563.4</ele>
        <time>2021-07-25 13:08:18</time>
      </trkpt>
      <trkpt lat="42.69254" lon="-2.39804">
        <ele>563.4</ele>
        <time>2021-07-25 13:08:22</time>
      </trkpt>
      <trkpt lat="42.69254" lon="-2.39804">
        <ele>563.2</ele>
        <time>2021-07-25 13:08:26</time>
      </trkpt>
      <trkpt lat="42.69254" lon="-2.39804">
        <ele>563.2</ele>
        <time>2021-07-25 13:08:30</time>
      </trkpt>
      <trkpt lat="42.69254" lon="-2.39804">
        <ele>563.2</ele>
        <time>2021-07-25 13:08:34</time>
      </trkpt>
      <trkpt lat="42.69254" lon="-2.39804">
        <ele>563.4</ele>
        <time>2021-07-25 13:08:38</time>
      </trkpt>
      <trkpt lat="42.69254" lon="-2.39804">
        <ele>563.4</ele>
        <time>2021-07-25 13:08:42</time>
      </trkpt>
      <trkpt lat="42.69254" lon="-2.39804">
        <ele>563.6</ele>
        <time>2021-07-25 13:08:46</time>
      </trkpt>
      <trkpt lat="42.69254" lon="-2.39804">
        <ele>563.4</ele>
        <time>2021-07-25 13:08:50</time>
      </trkpt>
      <trkpt lat="42.69254" lon="-2.39804">
        <ele>563.4</ele>
        <time>2021-07-25 13:08:54</time>
      </trkpt>
      <trkpt lat="42.69254" lon="-2.39804">
        <ele>563.4</ele>
        <time>2021-07-25 13:08:58</time>
      </trkpt>
      <trkpt lat="42.69254" lon="-2.39804">
        <ele>563.2</ele>
        <time>2021-07-25 13:09:02</time>
      </trkpt>
      <trkpt lat="42.69254" lon="-2.39804">
        <ele>563.2</ele>
        <time>2021-07-25 13:09:06</time>
      </trkpt>
      <trkpt lat="42.69254" lon="-2.39804">
        <ele>563.4</ele>
        <time>2021-07-25 13:09:10</time>
      </trkpt>
      <trkpt lat="42.69254" lon="-2.39804">
        <ele>563.4</ele>
        <time>2021-07-25 13:09:14</time>
      </trkpt>
      <trkpt lat="42.69254" lon="-2.39804">
        <ele>563.6</ele>
        <time>2021-07-25 13:09:18</time>
      </trkpt>
      <trkpt lat="42.69254" lon="-2.39804">
        <ele>563.6</ele>
        <time>2021-07-25 13:09:22</time>
      </trkpt>
      <trkpt lat="42.69254" lon="-2.39804">
        <ele>563.6</ele>
        <time>2021-07-25 13:09:26</time>
      </trkpt>
      <trkpt lat="42.69254" lon="-2.39804">
        <ele>563.6</ele>
        <time>2021-07-25 13:09:30</time>
      </trkpt>
      <trkpt lat="42.69254" lon="-2.39804">
        <ele>563.2</ele>
        <time>2021-07-25 13:09:34</time>
      </trkpt>
      <trkpt lat="42.69254" lon="-2.39804">
        <ele>563.4</ele>
        <time>2021-07-25 13:09:38</time>
      </trkpt>
      <trkpt lat="42.69254" lon="-2.39804">
        <ele>563.4</ele>
        <time>2021-07-25 13:09:42</time>
      </trkpt>
      <trkpt lat="42.69254" lon="-2.39804">
        <ele>563.4</ele>
        <time>2021-07-25 13:09:46</time>
      </trkpt>
      <trkpt lat="42.69254" lon="-2.39804">
        <ele>563.6</ele>
        <time>2021-07-25 13:09:50</time>
      </trkpt>
      <trkpt lat="42.69254" lon="-2.39804">
        <ele>563.6</ele>
        <time>2021-07-25 13:09:54</time>
      </trkpt>
      <trkpt lat="42.69254" lon="-2.39804">
        <ele>563.4</ele>
        <time>2021-07-25 13:09:58</time>
      </trkpt>
      <trkpt lat="42.69254" lon="-2.39804">
        <ele>563.6</ele>
        <time>2021-07-25 13:10:02</time>
      </trkpt>
      <trkpt lat="42.69254" lon="-2.39804">
        <ele>563.4</ele>
        <time>2021-07-25 13:10:06</time>
      </trkpt>
      <trkpt lat="42.69254" lon="-2.39804">
        <ele>563.2</ele>
        <time>2021-07-25 13:10:10</time>
      </trkpt>
      <trkpt lat="42.69254" lon="-2.39804">
        <ele>563.4</ele>
        <time>2021-07-25 13:10:14</time>
      </trkpt>
      <trkpt lat="42.69254" lon="-2.39804">
        <ele>563.4</ele>
        <time>2021-07-25 13:10:18</time>
      </trkpt>
      <trkpt lat="42.69254" lon="-2.39804">
        <ele>563.4</ele>
        <time>2021-07-25 13:10:22</time>
      </trkpt>
      <trkpt lat="42.69254" lon="-2.39804">
        <ele>563.6</ele>
        <time>2021-07-25 13:10:26</time>
      </trkpt>
      <trkpt lat="42.69254" lon="-2.39804">
        <ele>563.6</ele>
        <time>2021-07-25 13:10:30</time>
      </trkpt>
      <trkpt lat="42.69254" lon="-2.39804">
        <ele>563.4</ele>
        <time>2021-07-25 13:10:34</time>
      </trkpt>
      <trkpt lat="42.69254" lon="-2.39804">
        <ele>563.4</ele>
        <time>2021-07-25 13:10:38</time>
      </trkpt>
      <trkpt lat="42.69254" lon="-2.39804">
        <ele>563.2</ele>
        <time>2021-07-25 13:10:42</time>
      </trkpt>
      <trkpt lat="42.69254" lon="-2.39804">
        <ele>563.6</ele>
        <time>2021-07-25 13:10:46</time>
      </trkpt>
      <trkpt lat="42.69254" lon="-2.39804">
        <ele>563.2</ele>
        <time>2021-07-25 13:10:50</time>
      </trkpt>
      <trkpt lat="42.69254" lon="-2.39804">
        <ele>563.6</ele>
        <time>2021-07-25 13:10:54</time>
      </trkpt>
      <trkpt lat="42.69254" lon="-2.39804">
        <ele>563.8</ele>
        <time>2021-07-25 13:10:58</time>
      </trkpt>
      <trkpt lat="42.69254" lon="-2.39804">
        <ele>563.2</ele>
        <time>2021-07-25 13:11:02</time>
      </trkpt>
      <trkpt lat="42.69254" lon="-2.39804">
        <ele>563.6</ele>
        <time>2021-07-25 13:11:06</time>
      </trkpt>
      <trkpt lat="42.69254" lon="-2.39804">
        <ele>563.6</ele>
        <time>2021-07-25 13:11:10</time>
      </trkpt>
      <trkpt lat="42.69254" lon="-2.39804">
        <ele>563.4</ele>
        <time>2021-07-25 13:11:14</time>
      </trkpt>
      <trkpt lat="42.69254" lon="-2.39804">
        <ele>563.4</ele>
        <time>2021-07-25 13:11:18</time>
      </trkpt>
      <trkpt lat="42.69254" lon="-2.39804">
        <ele>564</ele>
        <time>2021-07-25 13:11:22</time>
      </trkpt>
      <trkpt lat="42.69254" lon="-2.39804">
        <ele>563.6</ele>
        <time>2021-07-25 13:11:26</time>
      </trkpt>
      <trkpt lat="42.69254" lon="-2.39804">
        <ele>563.6</ele>
        <time>2021-07-25 13:11:30</time>
      </trkpt>
      <trkpt lat="42.69254" lon="-2.39804">
        <ele>563.6</ele>
        <time>2021-07-25 13:11:34</time>
      </trkpt>
      <trkpt lat="42.69254" lon="-2.39804">
        <ele>563.2</ele>
        <time>2021-07-25 13:11:38</time>
      </trkpt>
      <trkpt lat="42.69254" lon="-2.39804">
        <ele>563.6</ele>
        <time>2021-07-25 13:11:42</time>
      </trkpt>
      <trkpt lat="42.69254" lon="-2.39804">
        <ele>563.4</ele>
        <time>2021-07-25 13:11:46</time>
      </trkpt>
      <trkpt lat="42.69254" lon="-2.39804">
        <ele>563.2</ele>
        <time>2021-07-25 13:11:50</time>
      </trkpt>
      <trkpt lat="42.69254" lon="-2.39804">
        <ele>563.2</ele>
        <time>2021-07-25 13:11:54</time>
      </trkpt>
      <trkpt lat="42.69254" lon="-2.39804">
        <ele>563.6</ele>
        <time>2021-07-25 13:11:58</time>
      </trkpt>
      <trkpt lat="42.69254" lon="-2.39804">
        <ele>563.4</ele>
        <time>2021-07-25 13:12:02</time>
      </trkpt>
      <trkpt lat="42.69254" lon="-2.39804">
        <ele>563.6</ele>
        <time>2021-07-25 13:12:06</time>
      </trkpt>
      <trkpt lat="42.69254" lon="-2.39804">
        <ele>563.6</ele>
        <time>2021-07-25 13:12:10</time>
      </trkpt>
      <trkpt lat="42.69254" lon="-2.39804">
        <ele>563.2</ele>
        <time>2021-07-25 13:12:14</time>
      </trkpt>
      <trkpt lat="42.69254" lon="-2.39804">
        <ele>563.8</ele>
        <time>2021-07-25 13:12:18</time>
      </trkpt>
      <trkpt lat="42.69254" lon="-2.39804">
        <ele>563.8</ele>
        <time>2021-07-25 13:12:22</time>
      </trkpt>
      <trkpt lat="42.69254" lon="-2.39804">
        <ele>563.6</ele>
        <time>2021-07-25 13:12:26</time>
      </trkpt>
      <trkpt lat="42.69254" lon="-2.39804">
        <ele>563.6</ele>
        <time>2021-07-25 13:12:30</time>
      </trkpt>
      <trkpt lat="42.69254" lon="-2.39804">
        <ele>563.6</ele>
        <time>2021-07-25 13:12:34</time>
      </trkpt>
      <trkpt lat="42.69254" lon="-2.39804">
        <ele>564</ele>
        <time>2021-07-25 13:12:38</time>
      </trkpt>
      <trkpt lat="42.69254" lon="-2.39804">
        <ele>563.6</ele>
        <time>2021-07-25 13:12:42</time>
      </trkpt>
      <trkpt lat="42.69254" lon="-2.39804">
        <ele>564</ele>
        <time>2021-07-25 13:12:46</time>
      </trkpt>
      <trkpt lat="42.69254" lon="-2.39804">
        <ele>564</ele>
        <time>2021-07-25 13:12:50</time>
      </trkpt>
      <trkpt lat="42.69254" lon="-2.39804">
        <ele>563.6</ele>
        <time>2021-07-25 13:12:54</time>
      </trkpt>
      <trkpt lat="42.69254" lon="-2.39804">
        <ele>563.8</ele>
        <time>2021-07-25 13:12:58</time>
      </trkpt>
      <trkpt lat="42.69254" lon="-2.39804">
        <ele>563.8</ele>
        <time>2021-07-25 13:13:02</time>
      </trkpt>
      <trkpt lat="42.69254" lon="-2.39804">
        <ele>563.8</ele>
        <time>2021-07-25 13:13:06</time>
      </trkpt>
      <trkpt lat="42.69254" lon="-2.39804">
        <ele>563.6</ele>
        <time>2021-07-25 13:13:10</time>
      </trkpt>
      <trkpt lat="42.69254" lon="-2.39804">
        <ele>563.4</ele>
        <time>2021-07-25 13:13:14</time>
      </trkpt>
      <trkpt lat="42.69254" lon="-2.39804">
        <ele>563.8</ele>
        <time>2021-07-25 13:13:18</time>
      </trkpt>
      <trkpt lat="42.69254" lon="-2.39804">
        <ele>563.8</ele>
        <time>2021-07-25 13:13:22</time>
      </trkpt>
      <trkpt lat="42.69254" lon="-2.39804">
        <ele>563.8</ele>
        <time>2021-07-25 13:13:26</time>
      </trkpt>
      <trkpt lat="42.69254" lon="-2.39804">
        <ele>563.8</ele>
        <time>2021-07-25 13:13:30</time>
      </trkpt>
      <trkpt lat="42.69254" lon="-2.39804">
        <ele>564</ele>
        <time>2021-07-25 13:13:34</time>
      </trkpt>
      <trkpt lat="42.69254" lon="-2.39804">
        <ele>564</ele>
        <time>2021-07-25 13:13:38</time>
      </trkpt>
      <trkpt lat="42.69254" lon="-2.39804">
        <ele>563.4</ele>
        <time>2021-07-25 13:13:42</time>
      </trkpt>
      <trkpt lat="42.69254" lon="-2.39804">
        <ele>563.8</ele>
        <time>2021-07-25 13:13:46</time>
      </trkpt>
      <trkpt lat="42.69254" lon="-2.39804">
        <ele>563.8</ele>
        <time>2021-07-25 13:13:50</time>
      </trkpt>
      <trkpt lat="42.69254" lon="-2.39804">
        <ele>563.8</ele>
        <time>2021-07-25 13:13:54</time>
      </trkpt>
      <trkpt lat="42.69254" lon="-2.39804">
        <ele>564</ele>
        <time>2021-07-25 13:13:58</time>
      </trkpt>
      <trkpt lat="42.69254" lon="-2.39804">
        <ele>563.4</ele>
        <time>2021-07-25 13:14:02</time>
      </trkpt>
      <trkpt lat="42.69254" lon="-2.39804">
        <ele>563.8</ele>
        <time>2021-07-25 13:14:06</time>
      </trkpt>
      <trkpt lat="42.69254" lon="-2.39804">
        <ele>563.6</ele>
        <time>2021-07-25 13:14:10</time>
      </trkpt>
      <trkpt lat="42.69254" lon="-2.39804">
        <ele>564</ele>
        <time>2021-07-25 13:14:14</time>
      </trkpt>
      <trkpt lat="42.69254" lon="-2.39804">
        <ele>563.4</ele>
        <time>2021-07-25 13:14:18</time>
      </trkpt>
      <trkpt lat="42.69254" lon="-2.39804">
        <ele>563.8</ele>
        <time>2021-07-25 13:14:22</time>
      </trkpt>
      <trkpt lat="42.69254" lon="-2.39804">
        <ele>563.6</ele>
        <time>2021-07-25 13:14:26</time>
      </trkpt>
      <trkpt lat="42.69254" lon="-2.39804">
        <ele>563.6</ele>
        <time>2021-07-25 13:14:30</time>
      </trkpt>
      <trkpt lat="42.69254" lon="-2.39804">
        <ele>564</ele>
        <time>2021-07-25 13:14:34</time>
      </trkpt>
      <trkpt lat="42.69254" lon="-2.39804">
        <ele>563.8</ele>
        <time>2021-07-25 13:14:38</time>
      </trkpt>
      <trkpt lat="42.69254" lon="-2.39804">
        <ele>563.8</ele>
        <time>2021-07-25 13:14:42</time>
      </trkpt>
      <trkpt lat="42.69254" lon="-2.39804">
        <ele>563.8</ele>
        <time>2021-07-25 13:14:46</time>
      </trkpt>
      <trkpt lat="42.69254" lon="-2.39804">
        <ele>563.6</ele>
        <time>2021-07-25 13:14:50</time>
      </trkpt>
      <trkpt lat="42.69254" lon="-2.39804">
        <ele>563.6</ele>
        <time>2021-07-25 13:14:54</time>
      </trkpt>
      <trkpt lat="42.69254" lon="-2.39804">
        <ele>563.6</ele>
        <time>2021-07-25 13:14:58</time>
      </trkpt>
      <trkpt lat="42.69254" lon="-2.39804">
        <ele>563.8</ele>
        <time>2021-07-25 13:15:02</time>
      </trkpt>
      <trkpt lat="42.69254" lon="-2.39804">
        <ele>563.8</ele>
        <time>2021-07-25 13:15:06</time>
      </trkpt>
      <trkpt lat="42.69254" lon="-2.39804">
        <ele>563.8</ele>
        <time>2021-07-25 13:15:10</time>
      </trkpt>
      <trkpt lat="42.69254" lon="-2.39804">
        <ele>563.8</ele>
        <time>2021-07-25 13:15:14</time>
      </trkpt>
      <trkpt lat="42.69254" lon="-2.39804">
        <ele>563.8</ele>
        <time>2021-07-25 13:15:18</time>
      </trkpt>
      <trkpt lat="42.69254" lon="-2.39804">
        <ele>563.6</ele>
        <time>2021-07-25 13:15:22</time>
      </trkpt>
      <trkpt lat="42.69254" lon="-2.39804">
        <ele>563.8</ele>
        <time>2021-07-25 13:15:26</time>
      </trkpt>
      <trkpt lat="42.69254" lon="-2.39804">
        <ele>563.8</ele>
        <time>2021-07-25 13:15:30</time>
      </trkpt>
      <trkpt lat="42.69254" lon="-2.39804">
        <ele>564</ele>
        <time>2021-07-25 13:15:34</time>
      </trkpt>
      <trkpt lat="42.69254" lon="-2.39804">
        <ele>563.8</ele>
        <time>2021-07-25 13:15:38</time>
      </trkpt>
      <trkpt lat="42.69254" lon="-2.39804">
        <ele>564.2</ele>
        <time>2021-07-25 13:15:42</time>
      </trkpt>
      <trkpt lat="42.69254" lon="-2.39804">
        <ele>563.6</ele>
        <time>2021-07-25 13:15:46</time>
      </trkpt>
      <trkpt lat="42.69254" lon="-2.39804">
        <ele>563.8</ele>
        <time>2021-07-25 13:15:50</time>
      </trkpt>
      <trkpt lat="42.69254" lon="-2.39804">
        <ele>563.8</ele>
        <time>2021-07-25 13:15:54</time>
      </trkpt>
      <trkpt lat="42.69254" lon="-2.39804">
        <ele>564</ele>
        <time>2021-07-25 13:15:58</time>
      </trkpt>
      <trkpt lat="42.69254" lon="-2.39804">
        <ele>563.8</ele>
        <time>2021-07-25 13:16:02</time>
      </trkpt>
      <trkpt lat="42.69254" lon="-2.39804">
        <ele>564</ele>
        <time>2021-07-25 13:16:06</time>
      </trkpt>
      <trkpt lat="42.69254" lon="-2.39804">
        <ele>564.4</ele>
        <time>2021-07-25 13:16:10</time>
      </trkpt>
      <trkpt lat="42.69254" lon="-2.39804">
        <ele>564.4</ele>
        <time>2021-07-25 13:16:14</time>
      </trkpt>
      <trkpt lat="42.69254" lon="-2.39804">
        <ele>564.2</ele>
        <time>2021-07-25 13:16:18</time>
      </trkpt>
      <trkpt lat="42.69254" lon="-2.39804">
        <ele>564.4</ele>
        <time>2021-07-25 13:16:22</time>
      </trkpt>
      <trkpt lat="42.69254" lon="-2.39804">
        <ele>564.2</ele>
        <time>2021-07-25 13:16:26</time>
      </trkpt>
      <trkpt lat="42.69254" lon="-2.39804">
        <ele>564</ele>
        <time>2021-07-25 13:16:30</time>
      </trkpt>
      <trkpt lat="42.69254" lon="-2.39804">
        <ele>564</ele>
        <time>2021-07-25 13:16:34</time>
      </trkpt>
      <trkpt lat="42.69254" lon="-2.39804">
        <ele>564.4</ele>
        <time>2021-07-25 13:16:38</time>
      </trkpt>
      <trkpt lat="42.69254" lon="-2.39804">
        <ele>564.4</ele>
        <time>2021-07-25 13:16:42</time>
      </trkpt>
      <trkpt lat="42.69254" lon="-2.39804">
        <ele>564</ele>
        <time>2021-07-25 13:16:46</time>
      </trkpt>
      <trkpt lat="42.69254" lon="-2.39804">
        <ele>564.2</ele>
        <time>2021-07-25 13:16:50</time>
      </trkpt>
      <trkpt lat="42.69254" lon="-2.39804">
        <ele>564</ele>
        <time>2021-07-25 13:16:54</time>
      </trkpt>
      <trkpt lat="42.69254" lon="-2.39804">
        <ele>564.2</ele>
        <time>2021-07-25 13:16:58</time>
      </trkpt>
      <trkpt lat="42.69254" lon="-2.39804">
        <ele>564.2</ele>
        <time>2021-07-25 13:17:02</time>
      </trkpt>
      <trkpt lat="42.69254" lon="-2.39804">
        <ele>564.2</ele>
        <time>2021-07-25 13:17:06</time>
      </trkpt>
      <trkpt lat="42.69254" lon="-2.39804">
        <ele>564.6</ele>
        <time>2021-07-25 13:17:10</time>
      </trkpt>
      <trkpt lat="42.69254" lon="-2.39804">
        <ele>564</ele>
        <time>2021-07-25 13:17:14</time>
      </trkpt>
      <trkpt lat="42.69254" lon="-2.39804">
        <ele>563.8</ele>
        <time>2021-07-25 13:17:18</time>
      </trkpt>
      <trkpt lat="42.69254" lon="-2.39804">
        <ele>564.4</ele>
        <time>2021-07-25 13:17:22</time>
      </trkpt>
      <trkpt lat="42.69254" lon="-2.39804">
        <ele>564</ele>
        <time>2021-07-25 13:17:26</time>
      </trkpt>
      <trkpt lat="42.69254" lon="-2.39804">
        <ele>564.2</ele>
        <time>2021-07-25 13:17:30</time>
      </trkpt>
      <trkpt lat="42.69254" lon="-2.39804">
        <ele>564.4</ele>
        <time>2021-07-25 13:17:34</time>
      </trkpt>
      <trkpt lat="42.69254" lon="-2.39804">
        <ele>564.4</ele>
        <time>2021-07-25 13:17:38</time>
      </trkpt>
      <trkpt lat="42.69254" lon="-2.39804">
        <ele>564.2</ele>
        <time>2021-07-25 13:17:42</time>
      </trkpt>
      <trkpt lat="42.69254" lon="-2.39804">
        <ele>564.2</ele>
        <time>2021-07-25 13:17:46</time>
      </trkpt>
      <trkpt lat="42.69254" lon="-2.39804">
        <ele>564.4</ele>
        <time>2021-07-25 13:17:50</time>
      </trkpt>
      <trkpt lat="42.69254" lon="-2.39804">
        <ele>564</ele>
        <time>2021-07-25 13:17:54</time>
      </trkpt>
      <trkpt lat="42.69254" lon="-2.39804">
        <ele>564</ele>
        <time>2021-07-25 13:17:58</time>
      </trkpt>
      <trkpt lat="42.69254" lon="-2.39804">
        <ele>564.4</ele>
        <time>2021-07-25 13:18:02</time>
      </trkpt>
      <trkpt lat="42.69254" lon="-2.39804">
        <ele>564.4</ele>
        <time>2021-07-25 13:18:06</time>
      </trkpt>
      <trkpt lat="42.69254" lon="-2.39804">
        <ele>564.4</ele>
        <time>2021-07-25 13:18:10</time>
      </trkpt>
      <trkpt lat="42.69254" lon="-2.39804">
        <ele>565.2</ele>
        <time>2021-07-25 13:18:14</time>
      </trkpt>
      <trkpt lat="42.69254" lon="-2.39804">
        <ele>564.6</ele>
        <time>2021-07-25 13:18:18</time>
      </trkpt>
      <trkpt lat="42.69254" lon="-2.39804">
        <ele>564.6</ele>
        <time>2021-07-25 13:18:22</time>
      </trkpt>
      <trkpt lat="42.69254" lon="-2.39804">
        <ele>564.6</ele>
        <time>2021-07-25 13:18:26</time>
      </trkpt>
      <trkpt lat="42.69254" lon="-2.39804">
        <ele>564.2</ele>
        <time>2021-07-25 13:18:30</time>
      </trkpt>
      <trkpt lat="42.69254" lon="-2.39804">
        <ele>564.4</ele>
        <time>2021-07-25 13:18:34</time>
      </trkpt>
      <trkpt lat="42.69254" lon="-2.39804">
        <ele>564.6</ele>
        <time>2021-07-25 13:18:38</time>
      </trkpt>
      <trkpt lat="42.69254" lon="-2.39804">
        <ele>564.6</ele>
        <time>2021-07-25 13:18:42</time>
      </trkpt>
      <trkpt lat="42.69254" lon="-2.39804">
        <ele>564.4</ele>
        <time>2021-07-25 13:18:46</time>
      </trkpt>
      <trkpt lat="42.69254" lon="-2.39804">
        <ele>564.2</ele>
        <time>2021-07-25 13:18:50</time>
      </trkpt>
      <trkpt lat="42.69254" lon="-2.39804">
        <ele>565.2</ele>
        <time>2021-07-25 13:18:54</time>
      </trkpt>
      <trkpt lat="42.69254" lon="-2.39804">
        <ele>565.2</ele>
        <time>2021-07-25 13:18:58</time>
      </trkpt>
      <trkpt lat="42.69254" lon="-2.39804">
        <ele>565.2</ele>
        <time>2021-07-25 13:19:02</time>
      </trkpt>
      <trkpt lat="42.69254" lon="-2.39804">
        <ele>565</ele>
        <time>2021-07-25 13:19:06</time>
      </trkpt>
      <trkpt lat="42.69254" lon="-2.39804">
        <ele>565</ele>
        <time>2021-07-25 13:19:10</time>
      </trkpt>
      <trkpt lat="42.69254" lon="-2.39804">
        <ele>565.4</ele>
        <time>2021-07-25 13:19:14</time>
      </trkpt>
      <trkpt lat="42.69254" lon="-2.39804">
        <ele>565.2</ele>
        <time>2021-07-25 13:19:18</time>
      </trkpt>
      <trkpt lat="42.69257" lon="-2.39807">
        <ele>565.2</ele>
        <time>2021-07-25 13:19:22</time>
      </trkpt>
      <trkpt lat="42.69257" lon="-2.39807">
        <ele>564.6</ele>
        <time>2021-07-25 13:19:26</time>
      </trkpt>
      <trkpt lat="42.69257" lon="-2.39807">
        <ele>564.4</ele>
        <time>2021-07-25 13:19:30</time>
      </trkpt>
      <trkpt lat="42.69263" lon="-2.39809">
        <ele>564.4</ele>
        <time>2021-07-25 13:19:34</time>
      </trkpt>
      <trkpt lat="42.69269" lon="-2.39817">
        <ele>563.6</ele>
        <time>2021-07-25 13:19:38</time>
      </trkpt>
      <trkpt lat="42.69276" lon="-2.39826">
        <ele>563.4</ele>
        <time>2021-07-25 13:19:42</time>
      </trkpt>
      <trkpt lat="42.69284" lon="-2.39835">
        <ele>564.4</ele>
        <time>2021-07-25 13:19:46</time>
      </trkpt>
      <trkpt lat="42.69291" lon="-2.39843">
        <ele>565</ele>
        <time>2021-07-25 13:19:50</time>
      </trkpt>
      <trkpt lat="42.69296" lon="-2.39849">
        <ele>565.8</ele>
        <time>2021-07-25 13:19:54</time>
      </trkpt>
      <trkpt lat="42.69301" lon="-2.39855">
        <ele>566</ele>
        <time>2021-07-25 13:19:58</time>
      </trkpt>
      <trkpt lat="42.69307" lon="-2.3986">
        <ele>566.4</ele>
        <time>2021-07-25 13:20:02</time>
      </trkpt>
      <trkpt lat="42.69312" lon="-2.39866">
        <ele>567.4</ele>
        <time>2021-07-25 13:20:06</time>
      </trkpt>
      <trkpt lat="42.69318" lon="-2.39871">
        <ele>568.2</ele>
        <time>2021-07-25 13:20:10</time>
      </trkpt>
      <trkpt lat="42.69322" lon="-2.39876">
        <ele>568.8</ele>
        <time>2021-07-25 13:20:14</time>
      </trkpt>
      <trkpt lat="42.69326" lon="-2.3988">
        <ele>569</ele>
        <time>2021-07-25 13:20:18</time>
      </trkpt>
      <trkpt lat="42.69331" lon="-2.39886">
        <ele>570</ele>
        <time>2021-07-25 13:20:22</time>
      </trkpt>
      <trkpt lat="42.69336" lon="-2.39891">
        <ele>571.2</ele>
        <time>2021-07-25 13:20:26</time>
      </trkpt>
      <trkpt lat="42.69341" lon="-2.39896">
        <ele>571.8</ele>
        <time>2021-07-25 13:20:30</time>
      </trkpt>
      <trkpt lat="42.69345" lon="-2.399">
        <ele>571.2</ele>
        <time>2021-07-25 13:20:34</time>
      </trkpt>
      <trkpt lat="42.6935" lon="-2.39901">
        <ele>570.8</ele>
        <time>2021-07-25 13:20:38</time>
      </trkpt>
      <trkpt lat="42.69356" lon="-2.39901">
        <ele>571</ele>
        <time>2021-07-25 13:20:42</time>
      </trkpt>
      <trkpt lat="42.69363" lon="-2.39902">
        <ele>571</ele>
        <time>2021-07-25 13:20:46</time>
      </trkpt>
      <trkpt lat="42.6937" lon="-2.39901">
        <ele>570.6</ele>
        <time>2021-07-25 13:20:50</time>
      </trkpt>
      <trkpt lat="42.6938" lon="-2.39901">
        <ele>570.4</ele>
        <time>2021-07-25 13:20:54</time>
      </trkpt>
      <trkpt lat="42.6939" lon="-2.399">
        <ele>570.2</ele>
        <time>2021-07-25 13:20:58</time>
      </trkpt>
      <trkpt lat="42.694" lon="-2.39899">
        <ele>570.8</ele>
        <time>2021-07-25 13:21:02</time>
      </trkpt>
      <trkpt lat="42.69411" lon="-2.39898">
        <ele>568</ele>
        <time>2021-07-25 13:21:06</time>
      </trkpt>
      <trkpt lat="42.69429" lon="-2.39897">
        <ele>565.4</ele>
        <time>2021-07-25 13:21:10</time>
      </trkpt>
      <trkpt lat="42.69446" lon="-2.39903">
        <ele>564.2</ele>
        <time>2021-07-25 13:21:14</time>
      </trkpt>
      <trkpt lat="42.69463" lon="-2.39913">
        <ele>564.2</ele>
        <time>2021-07-25 13:21:18</time>
      </trkpt>
      <trkpt lat="42.69479" lon="-2.39918">
        <ele>564</ele>
        <time>2021-07-25 13:21:22</time>
      </trkpt>
      <trkpt lat="42.69491" lon="-2.39927">
        <ele>564.4</ele>
        <time>2021-07-25 13:21:26</time>
      </trkpt>
      <trkpt lat="42.69501" lon="-2.39936">
        <ele>564.2</ele>
        <time>2021-07-25 13:21:30</time>
      </trkpt>
      <trkpt lat="42.69511" lon="-2.39947">
        <ele>564.2</ele>
        <time>2021-07-25 13:21:34</time>
      </trkpt>
      <trkpt lat="42.69521" lon="-2.39958">
        <ele>564.8</ele>
        <time>2021-07-25 13:21:38</time>
      </trkpt>
      <trkpt lat="42.6953" lon="-2.39969">
        <ele>564.8</ele>
        <time>2021-07-25 13:21:42</time>
      </trkpt>
      <trkpt lat="42.69539" lon="-2.3998">
        <ele>565.4</ele>
        <time>2021-07-25 13:21:46</time>
      </trkpt>
      <trkpt lat="42.69548" lon="-2.39991">
        <ele>565.2</ele>
        <time>2021-07-25 13:21:50</time>
      </trkpt>
      <trkpt lat="42.69556" lon="-2.40002">
        <ele>565.8</ele>
        <time>2021-07-25 13:21:54</time>
      </trkpt>
      <trkpt lat="42.69564" lon="-2.40012">
        <ele>566</ele>
        <time>2021-07-25 13:21:58</time>
      </trkpt>
      <trkpt lat="42.69573" lon="-2.40023">
        <ele>566</ele>
        <time>2021-07-25 13:22:02</time>
      </trkpt>
      <trkpt lat="42.69582" lon="-2.40035">
        <ele>566</ele>
        <time>2021-07-25 13:22:06</time>
      </trkpt>
      <trkpt lat="42.69592" lon="-2.40046">
        <ele>566.8</ele>
        <time>2021-07-25 13:22:10</time>
      </trkpt>
      <trkpt lat="42.69601" lon="-2.40058">
        <ele>567</ele>
        <time>2021-07-25 13:22:14</time>
      </trkpt>
      <trkpt lat="42.69611" lon="-2.40071">
        <ele>567.4</ele>
        <time>2021-07-25 13:22:18</time>
      </trkpt>
      <trkpt lat="42.69621" lon="-2.40083">
        <ele>568.2</ele>
        <time>2021-07-25 13:22:22</time>
      </trkpt>
      <trkpt lat="42.69631" lon="-2.40096">
        <ele>567.4</ele>
        <time>2021-07-25 13:22:26</time>
      </trkpt>
      <trkpt lat="42.69641" lon="-2.40109">
        <ele>566.6</ele>
        <time>2021-07-25 13:22:30</time>
      </trkpt>
      <trkpt lat="42.69651" lon="-2.40121">
        <ele>568</ele>
        <time>2021-07-25 13:22:34</time>
      </trkpt>
      <trkpt lat="42.6966" lon="-2.40134">
        <ele>568.4</ele>
        <time>2021-07-25 13:22:38</time>
      </trkpt>
      <trkpt lat="42.6967" lon="-2.40147">
        <ele>569</ele>
        <time>2021-07-25 13:22:42</time>
      </trkpt>
      <trkpt lat="42.6968" lon="-2.4016">
        <ele>568.6</ele>
        <time>2021-07-25 13:22:46</time>
      </trkpt>
      <trkpt lat="42.69691" lon="-2.40174">
        <ele>569</ele>
        <time>2021-07-25 13:22:50</time>
      </trkpt>
      <trkpt lat="42.69701" lon="-2.40186">
        <ele>569.6</ele>
        <time>2021-07-25 13:22:54</time>
      </trkpt>
      <trkpt lat="42.6971" lon="-2.40199">
        <ele>569.6</ele>
        <time>2021-07-25 13:22:58</time>
      </trkpt>
      <trkpt lat="42.6972" lon="-2.40211">
        <ele>569.6</ele>
        <time>2021-07-25 13:23:02</time>
      </trkpt>
      <trkpt lat="42.6973" lon="-2.40223">
        <ele>569.2</ele>
        <time>2021-07-25 13:23:06</time>
      </trkpt>
      <trkpt lat="42.69739" lon="-2.40235">
        <ele>569</ele>
        <time>2021-07-25 13:23:10</time>
      </trkpt>
      <trkpt lat="42.69748" lon="-2.40246">
        <ele>570.2</ele>
        <time>2021-07-25 13:23:14</time>
      </trkpt>
      <trkpt lat="42.69756" lon="-2.40256">
        <ele>570.2</ele>
        <time>2021-07-25 13:23:18</time>
      </trkpt>
      <trkpt lat="42.69763" lon="-2.40266">
        <ele>570.2</ele>
        <time>2021-07-25 13:23:22</time>
      </trkpt>
      <trkpt lat="42.69771" lon="-2.40277">
        <ele>570.4</ele>
        <time>2021-07-25 13:23:26</time>
      </trkpt>
      <trkpt lat="42.6978" lon="-2.40287">
        <ele>570.8</ele>
        <time>2021-07-25 13:23:30</time>
      </trkpt>
      <trkpt lat="42.69788" lon="-2.40299">
        <ele>570.8</ele>
        <time>2021-07-25 13:23:34</time>
      </trkpt>
      <trkpt lat="42.69798" lon="-2.40311">
        <ele>570.6</ele>
        <time>2021-07-25 13:23:38</time>
      </trkpt>
      <trkpt lat="42.69809" lon="-2.40324">
        <ele>571.2</ele>
        <time>2021-07-25 13:23:42</time>
      </trkpt>
      <trkpt lat="42.69819" lon="-2.40337">
        <ele>571</ele>
        <time>2021-07-25 13:23:46</time>
      </trkpt>
      <trkpt lat="42.69829" lon="-2.4035">
        <ele>571.2</ele>
        <time>2021-07-25 13:23:50</time>
      </trkpt>
      <trkpt lat="42.69839" lon="-2.40363">
        <ele>571.4</ele>
        <time>2021-07-25 13:23:54</time>
      </trkpt>
      <trkpt lat="42.6985" lon="-2.40376">
        <ele>571.4</ele>
        <time>2021-07-25 13:23:58</time>
      </trkpt>
      <trkpt lat="42.6986" lon="-2.40389">
        <ele>571.8</ele>
        <time>2021-07-25 13:24:02</time>
      </trkpt>
      <trkpt lat="42.6987" lon="-2.40402">
        <ele>571.8</ele>
        <time>2021-07-25 13:24:06</time>
      </trkpt>
      <trkpt lat="42.6988" lon="-2.40415">
        <ele>573</ele>
        <time>2021-07-25 13:24:10</time>
      </trkpt>
      <trkpt lat="42.6989" lon="-2.40428">
        <ele>572.8</ele>
        <time>2021-07-25 13:24:14</time>
      </trkpt>
      <trkpt lat="42.699" lon="-2.40441">
        <ele>573.2</ele>
        <time>2021-07-25 13:24:18</time>
      </trkpt>
      <trkpt lat="42.6991" lon="-2.40454">
        <ele>572.8</ele>
        <time>2021-07-25 13:24:22</time>
      </trkpt>
      <trkpt lat="42.69921" lon="-2.40468">
        <ele>572.8</ele>
        <time>2021-07-25 13:24:26</time>
      </trkpt>
      <trkpt lat="42.69932" lon="-2.40481">
        <ele>573.2</ele>
        <time>2021-07-25 13:24:30</time>
      </trkpt>
      <trkpt lat="42.69942" lon="-2.40494">
        <ele>572.8</ele>
        <time>2021-07-25 13:24:34</time>
      </trkpt>
      <trkpt lat="42.69952" lon="-2.40507">
        <ele>573.2</ele>
        <time>2021-07-25 13:24:38</time>
      </trkpt>
      <trkpt lat="42.69962" lon="-2.40519">
        <ele>573.4</ele>
        <time>2021-07-25 13:24:42</time>
      </trkpt>
      <trkpt lat="42.69971" lon="-2.40531">
        <ele>573.8</ele>
        <time>2021-07-25 13:24:46</time>
      </trkpt>
      <trkpt lat="42.69981" lon="-2.40544">
        <ele>573.6</ele>
        <time>2021-07-25 13:24:50</time>
      </trkpt>
      <trkpt lat="42.69991" lon="-2.40556">
        <ele>574.2</ele>
        <time>2021-07-25 13:24:54</time>
      </trkpt>
      <trkpt lat="42.7" lon="-2.40568">
        <ele>574.4</ele>
        <time>2021-07-25 13:24:58</time>
      </trkpt>
      <trkpt lat="42.70009" lon="-2.40581">
        <ele>574.4</ele>
        <time>2021-07-25 13:25:02</time>
      </trkpt>
      <trkpt lat="42.70019" lon="-2.40593">
        <ele>574</ele>
        <time>2021-07-25 13:25:06</time>
      </trkpt>
      <trkpt lat="42.7003" lon="-2.40606">
        <ele>574</ele>
        <time>2021-07-25 13:25:10</time>
      </trkpt>
      <trkpt lat="42.7004" lon="-2.40619">
        <ele>574.8</ele>
        <time>2021-07-25 13:25:14</time>
      </trkpt>
      <trkpt lat="42.7005" lon="-2.40632">
        <ele>575.4</ele>
        <time>2021-07-25 13:25:18</time>
      </trkpt>
      <trkpt lat="42.7006" lon="-2.40645">
        <ele>575</ele>
        <time>2021-07-25 13:25:22</time>
      </trkpt>
      <trkpt lat="42.70069" lon="-2.40657">
        <ele>575.4</ele>
        <time>2021-07-25 13:25:26</time>
      </trkpt>
      <trkpt lat="42.70079" lon="-2.40669">
        <ele>576.8</ele>
        <time>2021-07-25 13:25:30</time>
      </trkpt>
      <trkpt lat="42.70089" lon="-2.40681">
        <ele>576.4</ele>
        <time>2021-07-25 13:25:34</time>
      </trkpt>
      <trkpt lat="42.70099" lon="-2.40693">
        <ele>576.4</ele>
        <time>2021-07-25 13:25:38</time>
      </trkpt>
      <trkpt lat="42.70108" lon="-2.40706">
        <ele>576.8</ele>
        <time>2021-07-25 13:25:42</time>
      </trkpt>
      <trkpt lat="42.70118" lon="-2.40717">
        <ele>576.2</ele>
        <time>2021-07-25 13:25:46</time>
      </trkpt>
      <trkpt lat="42.70126" lon="-2.40728">
        <ele>577</ele>
        <time>2021-07-25 13:25:50</time>
      </trkpt>
      <trkpt lat="42.70135" lon="-2.4074">
        <ele>576.4</ele>
        <time>2021-07-25 13:25:54</time>
      </trkpt>
      <trkpt lat="42.70145" lon="-2.40752">
        <ele>577.4</ele>
        <time>2021-07-25 13:25:58</time>
      </trkpt>
      <trkpt lat="42.70153" lon="-2.40764">
        <ele>577.4</ele>
        <time>2021-07-25 13:26:02</time>
      </trkpt>
      <trkpt lat="42.70162" lon="-2.40775">
        <ele>577.2</ele>
        <time>2021-07-25 13:26:06</time>
      </trkpt>
      <trkpt lat="42.70172" lon="-2.40787">
        <ele>577.6</ele>
        <time>2021-07-25 13:26:10</time>
      </trkpt>
      <trkpt lat="42.7018" lon="-2.40797">
        <ele>578</ele>
        <time>2021-07-25 13:26:14</time>
      </trkpt>
      <trkpt lat="42.7019" lon="-2.4081">
        <ele>578.4</ele>
        <time>2021-07-25 13:26:18</time>
      </trkpt>
      <trkpt lat="42.70199" lon="-2.40822">
        <ele>578.4</ele>
        <time>2021-07-25 13:26:22</time>
      </trkpt>
      <trkpt lat="42.70209" lon="-2.40834">
        <ele>578.2</ele>
        <time>2021-07-25 13:26:26</time>
      </trkpt>
      <trkpt lat="42.70218" lon="-2.40846">
        <ele>578.4</ele>
        <time>2021-07-25 13:26:30</time>
      </trkpt>
      <trkpt lat="42.70228" lon="-2.40858">
        <ele>578</ele>
        <time>2021-07-25 13:26:34</time>
      </trkpt>
      <trkpt lat="42.70238" lon="-2.4087">
        <ele>578.4</ele>
        <time>2021-07-25 13:26:38</time>
      </trkpt>
      <trkpt lat="42.70247" lon="-2.40882">
        <ele>579.2</ele>
        <time>2021-07-25 13:26:42</time>
      </trkpt>
      <trkpt lat="42.70256" lon="-2.40894">
        <ele>578.8</ele>
        <time>2021-07-25 13:26:46</time>
      </trkpt>
      <trkpt lat="42.70265" lon="-2.40905">
        <ele>579.6</ele>
        <time>2021-07-25 13:26:50</time>
      </trkpt>
      <trkpt lat="42.70273" lon="-2.40917">
        <ele>579.4</ele>
        <time>2021-07-25 13:26:54</time>
      </trkpt>
      <trkpt lat="42.70282" lon="-2.40929">
        <ele>580.2</ele>
        <time>2021-07-25 13:26:58</time>
      </trkpt>
      <trkpt lat="42.70292" lon="-2.40941">
        <ele>580</ele>
        <time>2021-07-25 13:27:02</time>
      </trkpt>
      <trkpt lat="42.70302" lon="-2.40953">
        <ele>580.6</ele>
        <time>2021-07-25 13:27:06</time>
      </trkpt>
      <trkpt lat="42.70312" lon="-2.40966">
        <ele>581.4</ele>
        <time>2021-07-25 13:27:10</time>
      </trkpt>
      <trkpt lat="42.70322" lon="-2.4098">
        <ele>580.6</ele>
        <time>2021-07-25 13:27:14</time>
      </trkpt>
      <trkpt lat="42.70331" lon="-2.40991">
        <ele>580.6</ele>
        <time>2021-07-25 13:27:18</time>
      </trkpt>
      <trkpt lat="42.70341" lon="-2.41004">
        <ele>581.2</ele>
        <time>2021-07-25 13:27:22</time>
      </trkpt>
      <trkpt lat="42.7035" lon="-2.41017">
        <ele>581.4</ele>
        <time>2021-07-25 13:27:26</time>
      </trkpt>
      <trkpt lat="42.7036" lon="-2.4103">
        <ele>581.4</ele>
        <time>2021-07-25 13:27:30</time>
      </trkpt>
      <trkpt lat="42.7037" lon="-2.41041">
        <ele>581.4</ele>
        <time>2021-07-25 13:27:34</time>
      </trkpt>
      <trkpt lat="42.70378" lon="-2.41053">
        <ele>582</ele>
        <time>2021-07-25 13:27:38</time>
      </trkpt>
      <trkpt lat="42.70386" lon="-2.41064">
        <ele>582</ele>
        <time>2021-07-25 13:27:42</time>
      </trkpt>
      <trkpt lat="42.70396" lon="-2.41075">
        <ele>582.2</ele>
        <time>2021-07-25 13:27:46</time>
      </trkpt>
      <trkpt lat="42.70406" lon="-2.41087">
        <ele>582</ele>
        <time>2021-07-25 13:27:50</time>
      </trkpt>
      <trkpt lat="42.70416" lon="-2.411">
        <ele>582.6</ele>
        <time>2021-07-25 13:27:54</time>
      </trkpt>
      <trkpt lat="42.70425" lon="-2.41112">
        <ele>582.8</ele>
        <time>2021-07-25 13:27:58</time>
      </trkpt>
      <trkpt lat="42.70434" lon="-2.41124">
        <ele>582.8</ele>
        <time>2021-07-25 13:28:02</time>
      </trkpt>
      <trkpt lat="42.70445" lon="-2.41138">
        <ele>583.4</ele>
        <time>2021-07-25 13:28:06</time>
      </trkpt>
      <trkpt lat="42.70453" lon="-2.41149">
        <ele>583.4</ele>
        <time>2021-07-25 13:28:10</time>
      </trkpt>
      <trkpt lat="42.70451" lon="-2.41153">
        <ele>584</ele>
        <time>2021-07-25 13:28:14</time>
      </trkpt>
      <trkpt lat="42.7045" lon="-2.41154">
        <ele>585</ele>
        <time>2021-07-25 13:28:18</time>
      </trkpt>
      <trkpt lat="42.7045" lon="-2.41154">
        <ele>585.4</ele>
        <time>2021-07-25 13:28:22</time>
      </trkpt>
      <trkpt lat="42.70523" lon="-2.41276">
        <ele>585.8</ele>
        <time>2021-07-25 13:28:26</time>
      </trkpt>
      <trkpt lat="42.70531" lon="-2.41288">
        <ele>586</ele>
        <time>2021-07-25 13:28:30</time>
      </trkpt>
      <trkpt lat="42.7054" lon="-2.41297">
        <ele>585.4</ele>
        <time>2021-07-25 13:28:34</time>
      </trkpt>
      <trkpt lat="42.70546" lon="-2.4131">
        <ele>586</ele>
        <time>2021-07-25 13:28:38</time>
      </trkpt>
      <trkpt lat="42.70554" lon="-2.41323">
        <ele>586</ele>
        <time>2021-07-25 13:28:42</time>
      </trkpt>
      <trkpt lat="42.70562" lon="-2.41337">
        <ele>586</ele>
        <time>2021-07-25 13:28:46</time>
      </trkpt>
      <trkpt lat="42.7057" lon="-2.41352">
        <ele>586.4</ele>
        <time>2021-07-25 13:28:50</time>
      </trkpt>
      <trkpt lat="42.70578" lon="-2.41366">
        <ele>586.2</ele>
        <time>2021-07-25 13:28:54</time>
      </trkpt>
      <trkpt lat="42.70586" lon="-2.4138">
        <ele>587</ele>
        <time>2021-07-25 13:28:58</time>
      </trkpt>
      <trkpt lat="42.70593" lon="-2.41392">
        <ele>586.8</ele>
        <time>2021-07-25 13:29:02</time>
      </trkpt>
      <trkpt lat="42.70599" lon="-2.41404">
        <ele>587.2</ele>
        <time>2021-07-25 13:29:06</time>
      </trkpt>
      <trkpt lat="42.70606" lon="-2.41416">
        <ele>587.2</ele>
        <time>2021-07-25 13:29:10</time>
      </trkpt>
      <trkpt lat="42.70612" lon="-2.4143">
        <ele>587.4</ele>
        <time>2021-07-25 13:29:14</time>
      </trkpt>
      <trkpt lat="42.7062" lon="-2.41443">
        <ele>587.6</ele>
        <time>2021-07-25 13:29:18</time>
      </trkpt>
      <trkpt lat="42.70628" lon="-2.41456">
        <ele>587.8</ele>
        <time>2021-07-25 13:29:22</time>
      </trkpt>
      <trkpt lat="42.70634" lon="-2.41474">
        <ele>588.6</ele>
        <time>2021-07-25 13:29:26</time>
      </trkpt>
      <trkpt lat="42.70641" lon="-2.4149">
        <ele>588.6</ele>
        <time>2021-07-25 13:29:30</time>
      </trkpt>
      <trkpt lat="42.70648" lon="-2.41504">
        <ele>588.2</ele>
        <time>2021-07-25 13:29:34</time>
      </trkpt>
      <trkpt lat="42.70655" lon="-2.41519">
        <ele>588</ele>
        <time>2021-07-25 13:29:38</time>
      </trkpt>
      <trkpt lat="42.70661" lon="-2.41534">
        <ele>588.6</ele>
        <time>2021-07-25 13:29:42</time>
      </trkpt>
      <trkpt lat="42.70668" lon="-2.41549">
        <ele>587.8</ele>
        <time>2021-07-25 13:29:46</time>
      </trkpt>
      <trkpt lat="42.70673" lon="-2.41563">
        <ele>588.6</ele>
        <time>2021-07-25 13:29:50</time>
      </trkpt>
      <trkpt lat="42.70679" lon="-2.41577">
        <ele>588.8</ele>
        <time>2021-07-25 13:29:54</time>
      </trkpt>
      <trkpt lat="42.70686" lon="-2.41594">
        <ele>589.2</ele>
        <time>2021-07-25 13:29:58</time>
      </trkpt>
      <trkpt lat="42.70693" lon="-2.4161">
        <ele>588.4</ele>
        <time>2021-07-25 13:30:02</time>
      </trkpt>
      <trkpt lat="42.707" lon="-2.41626">
        <ele>589.8</ele>
        <time>2021-07-25 13:30:06</time>
      </trkpt>
      <trkpt lat="42.70707" lon="-2.41641">
        <ele>590</ele>
        <time>2021-07-25 13:30:10</time>
      </trkpt>
      <trkpt lat="42.70714" lon="-2.41656">
        <ele>590</ele>
        <time>2021-07-25 13:30:14</time>
      </trkpt>
      <trkpt lat="42.7072" lon="-2.4167">
        <ele>589.4</ele>
        <time>2021-07-25 13:30:18</time>
      </trkpt>
      <trkpt lat="42.70727" lon="-2.41684">
        <ele>589.4</ele>
        <time>2021-07-25 13:30:22</time>
      </trkpt>
      <trkpt lat="42.70735" lon="-2.41699">
        <ele>589.8</ele>
        <time>2021-07-25 13:30:26</time>
      </trkpt>
      <trkpt lat="42.70744" lon="-2.41712">
        <ele>590.8</ele>
        <time>2021-07-25 13:30:30</time>
      </trkpt>
      <trkpt lat="42.70753" lon="-2.41723">
        <ele>591</ele>
        <time>2021-07-25 13:30:34</time>
      </trkpt>
      <trkpt lat="42.70762" lon="-2.41733">
        <ele>591.8</ele>
        <time>2021-07-25 13:30:38</time>
      </trkpt>
      <trkpt lat="42.70771" lon="-2.41743">
        <ele>591.6</ele>
        <time>2021-07-25 13:30:42</time>
      </trkpt>
      <trkpt lat="42.7078" lon="-2.41753">
        <ele>592.2</ele>
        <time>2021-07-25 13:30:46</time>
      </trkpt>
      <trkpt lat="42.7079" lon="-2.41763">
        <ele>592.2</ele>
        <time>2021-07-25 13:30:50</time>
      </trkpt>
      <trkpt lat="42.70801" lon="-2.41773">
        <ele>591.6</ele>
        <time>2021-07-25 13:30:54</time>
      </trkpt>
      <trkpt lat="42.70812" lon="-2.41782">
        <ele>592.4</ele>
        <time>2021-07-25 13:30:58</time>
      </trkpt>
      <trkpt lat="42.70824" lon="-2.41792">
        <ele>592.4</ele>
        <time>2021-07-25 13:31:02</time>
      </trkpt>
      <trkpt lat="42.70834" lon="-2.41798">
        <ele>592.2</ele>
        <time>2021-07-25 13:31:06</time>
      </trkpt>
      <trkpt lat="42.70846" lon="-2.41805">
        <ele>592.6</ele>
        <time>2021-07-25 13:31:10</time>
      </trkpt>
      <trkpt lat="42.70858" lon="-2.41811">
        <ele>593</ele>
        <time>2021-07-25 13:31:14</time>
      </trkpt>
      <trkpt lat="42.70869" lon="-2.41816">
        <ele>593.2</ele>
        <time>2021-07-25 13:31:18</time>
      </trkpt>
      <trkpt lat="42.70881" lon="-2.41823">
        <ele>593.2</ele>
        <time>2021-07-25 13:31:22</time>
      </trkpt>
      <trkpt lat="42.70894" lon="-2.4183">
        <ele>593.8</ele>
        <time>2021-07-25 13:31:26</time>
      </trkpt>
      <trkpt lat="42.70907" lon="-2.41838">
        <ele>593.8</ele>
        <time>2021-07-25 13:31:30</time>
      </trkpt>
      <trkpt lat="42.70919" lon="-2.41845">
        <ele>593.6</ele>
        <time>2021-07-25 13:31:34</time>
      </trkpt>
      <trkpt lat="42.70931" lon="-2.41851">
        <ele>594.2</ele>
        <time>2021-07-25 13:31:38</time>
      </trkpt>
      <trkpt lat="42.70944" lon="-2.41858">
        <ele>594.2</ele>
        <time>2021-07-25 13:31:42</time>
      </trkpt>
      <trkpt lat="42.70956" lon="-2.41865">
        <ele>594.2</ele>
        <time>2021-07-25 13:31:46</time>
      </trkpt>
      <trkpt lat="42.70969" lon="-2.41871">
        <ele>595</ele>
        <time>2021-07-25 13:31:50</time>
      </trkpt>
      <trkpt lat="42.70983" lon="-2.41878">
        <ele>595.4</ele>
        <time>2021-07-25 13:31:54</time>
      </trkpt>
      <trkpt lat="42.70996" lon="-2.41885">
        <ele>596</ele>
        <time>2021-07-25 13:31:58</time>
      </trkpt>
      <trkpt lat="42.7101" lon="-2.41892">
        <ele>595.6</ele>
        <time>2021-07-25 13:32:02</time>
      </trkpt>
      <trkpt lat="42.71022" lon="-2.41898">
        <ele>596</ele>
        <time>2021-07-25 13:32:06</time>
      </trkpt>
      <trkpt lat="42.71036" lon="-2.41905">
        <ele>596.6</ele>
        <time>2021-07-25 13:32:10</time>
      </trkpt>
      <trkpt lat="42.71049" lon="-2.41911">
        <ele>596</ele>
        <time>2021-07-25 13:32:14</time>
      </trkpt>
      <trkpt lat="42.71061" lon="-2.41917">
        <ele>596.6</ele>
        <time>2021-07-25 13:32:18</time>
      </trkpt>
      <trkpt lat="42.71074" lon="-2.41923">
        <ele>596.4</ele>
        <time>2021-07-25 13:32:22</time>
      </trkpt>
      <trkpt lat="42.71086" lon="-2.4193">
        <ele>596.8</ele>
        <time>2021-07-25 13:32:26</time>
      </trkpt>
      <trkpt lat="42.71098" lon="-2.41937">
        <ele>596.4</ele>
        <time>2021-07-25 13:32:30</time>
      </trkpt>
      <trkpt lat="42.7111" lon="-2.41944">
        <ele>596.8</ele>
        <time>2021-07-25 13:32:34</time>
      </trkpt>
      <trkpt lat="42.71121" lon="-2.4195">
        <ele>596.6</ele>
        <time>2021-07-25 13:32:38</time>
      </trkpt>
      <trkpt lat="42.71131" lon="-2.41957">
        <ele>597.4</ele>
        <time>2021-07-25 13:32:42</time>
      </trkpt>
      <trkpt lat="42.71141" lon="-2.41959">
        <ele>597.2</ele>
        <time>2021-07-25 13:32:46</time>
      </trkpt>
      <trkpt lat="42.71152" lon="-2.41955">
        <ele>596.4</ele>
        <time>2021-07-25 13:32:50</time>
      </trkpt>
      <trkpt lat="42.71158" lon="-2.41941">
        <ele>596.8</ele>
        <time>2021-07-25 13:32:54</time>
      </trkpt>
      <trkpt lat="42.71161" lon="-2.41928">
        <ele>597.2</ele>
        <time>2021-07-25 13:32:58</time>
      </trkpt>
      <trkpt lat="42.71164" lon="-2.41918">
        <ele>597.4</ele>
        <time>2021-07-25 13:33:02</time>
      </trkpt>
      <trkpt lat="42.71168" lon="-2.4191">
        <ele>597.4</ele>
        <time>2021-07-25 13:33:06</time>
      </trkpt>
      <trkpt lat="42.71172" lon="-2.41906">
        <ele>597.4</ele>
        <time>2021-07-25 13:33:10</time>
      </trkpt>
      <trkpt lat="42.71172" lon="-2.41906">
        <ele>597.6</ele>
        <time>2021-07-25 13:33:14</time>
      </trkpt>
      <trkpt lat="42.71172" lon="-2.41906">
        <ele>597.6</ele>
        <time>2021-07-25 13:33:18</time>
      </trkpt>
      <trkpt lat="42.71172" lon="-2.41906">
        <ele>597.8</ele>
        <time>2021-07-25 13:33:22</time>
      </trkpt>
      <trkpt lat="42.71172" lon="-2.41906">
        <ele>597.6</ele>
        <time>2021-07-25 13:33:26</time>
      </trkpt>
      <trkpt lat="42.71172" lon="-2.41906">
        <ele>597.8</ele>
        <time>2021-07-25 13:33:30</time>
      </trkpt>
      <trkpt lat="42.71172" lon="-2.41906">
        <ele>597.4</ele>
        <time>2021-07-25 13:33:34</time>
      </trkpt>
      <trkpt lat="42.71172" lon="-2.41906">
        <ele>597.2</ele>
        <time>2021-07-25 13:33:38</time>
      </trkpt>
      <trkpt lat="42.71172" lon="-2.41906">
        <ele>597.8</ele>
        <time>2021-07-25 13:33:42</time>
      </trkpt>
      <trkpt lat="42.71172" lon="-2.41906">
        <ele>598</ele>
        <time>2021-07-25 13:33:46</time>
      </trkpt>
      <trkpt lat="42.71172" lon="-2.41906">
        <ele>597.4</ele>
        <time>2021-07-25 13:33:50</time>
      </trkpt>
      <trkpt lat="42.71172" lon="-2.41906">
        <ele>596.2</ele>
        <time>2021-07-25 13:33:54</time>
      </trkpt>
      <trkpt lat="42.71172" lon="-2.41906">
        <ele>596.8</ele>
        <time>2021-07-25 13:33:58</time>
      </trkpt>
      <trkpt lat="42.71172" lon="-2.41906">
        <ele>597.6</ele>
        <time>2021-07-25 13:34:02</time>
      </trkpt>
      <trkpt lat="42.71172" lon="-2.41906">
        <ele>597.6</ele>
        <time>2021-07-25 13:34:06</time>
      </trkpt>
      <trkpt lat="42.71172" lon="-2.41906">
        <ele>597.8</ele>
        <time>2021-07-25 13:34:10</time>
      </trkpt>
      <trkpt lat="42.71172" lon="-2.41906">
        <ele>597.8</ele>
        <time>2021-07-25 13:34:14</time>
      </trkpt>
      <trkpt lat="42.71172" lon="-2.41906">
        <ele>597.2</ele>
        <time>2021-07-25 13:34:18</time>
      </trkpt>
      <trkpt lat="42.71172" lon="-2.41906">
        <ele>597.4</ele>
        <time>2021-07-25 13:34:22</time>
      </trkpt>
      <trkpt lat="42.71172" lon="-2.41906">
        <ele>597.4</ele>
        <time>2021-07-25 13:34:26</time>
      </trkpt>
      <trkpt lat="42.71172" lon="-2.41906">
        <ele>597.4</ele>
        <time>2021-07-25 13:34:30</time>
      </trkpt>
      <trkpt lat="42.71178" lon="-2.41903">
        <ele>597.2</ele>
        <time>2021-07-25 13:34:34</time>
      </trkpt>
      <trkpt lat="42.71183" lon="-2.41901">
        <ele>597</ele>
        <time>2021-07-25 13:34:38</time>
      </trkpt>
      <trkpt lat="42.71193" lon="-2.41903">
        <ele>597.2</ele>
        <time>2021-07-25 13:34:42</time>
      </trkpt>
      <trkpt lat="42.71203" lon="-2.41905">
        <ele>596.6</ele>
        <time>2021-07-25 13:34:46</time>
      </trkpt>
      <trkpt lat="42.71217" lon="-2.41907">
        <ele>595.8</ele>
        <time>2021-07-25 13:34:50</time>
      </trkpt>
      <trkpt lat="42.7123" lon="-2.41909">
        <ele>595.8</ele>
        <time>2021-07-25 13:34:54</time>
      </trkpt>
      <trkpt lat="42.7124" lon="-2.41909">
        <ele>597.8</ele>
        <time>2021-07-25 13:34:58</time>
      </trkpt>
      <trkpt lat="42.71244" lon="-2.41908">
        <ele>598</ele>
        <time>2021-07-25 13:35:02</time>
      </trkpt>
      <trkpt lat="42.71248" lon="-2.41907">
        <ele>598.6</ele>
        <time>2021-07-25 13:35:06</time>
      </trkpt>
      <trkpt lat="42.71251" lon="-2.41907">
        <ele>599</ele>
        <time>2021-07-25 13:35:10</time>
      </trkpt>
      <trkpt lat="42.71255" lon="-2.41906">
        <ele>599.2</ele>
        <time>2021-07-25 13:35:14</time>
      </trkpt>
      <trkpt lat="42.71255" lon="-2.41906">
        <ele>599.6</ele>
        <time>2021-07-25 13:35:18</time>
      </trkpt>
      <trkpt lat="42.71256" lon="-2.41904">
        <ele>599</ele>
        <time>2021-07-25 13:35:22</time>
      </trkpt>
      <trkpt lat="42.71261" lon="-2.41902">
        <ele>599</ele>
        <time>2021-07-25 13:35:26</time>
      </trkpt>
      <trkpt lat="42.71266" lon="-2.41899">
        <ele>598.4</ele>
        <time>2021-07-25 13:35:30</time>
      </trkpt>
      <trkpt lat="42.71274" lon="-2.41896">
        <ele>599</ele>
        <time>2021-07-25 13:35:34</time>
      </trkpt>
      <trkpt lat="42.71284" lon="-2.41893">
        <ele>599</ele>
        <time>2021-07-25 13:35:38</time>
      </trkpt>
      <trkpt lat="42.71294" lon="-2.4189">
        <ele>599.6</ele>
        <time>2021-07-25 13:35:42</time>
      </trkpt>
      <trkpt lat="42.71304" lon="-2.41887">
        <ele>600.4</ele>
        <time>2021-07-25 13:35:46</time>
      </trkpt>
      <trkpt lat="42.71313" lon="-2.41885">
        <ele>600.4</ele>
        <time>2021-07-25 13:35:50</time>
      </trkpt>
      <trkpt lat="42.71323" lon="-2.41884">
        <ele>600.4</ele>
        <time>2021-07-25 13:35:54</time>
      </trkpt>
      <trkpt lat="42.71333" lon="-2.41884">
        <ele>600.8</ele>
        <time>2021-07-25 13:35:58</time>
      </trkpt>
      <trkpt lat="42.71344" lon="-2.41885">
        <ele>601.4</ele>
        <time>2021-07-25 13:36:02</time>
      </trkpt>
      <trkpt lat="42.71354" lon="-2.41885">
        <ele>601.2</ele>
        <time>2021-07-25 13:36:06</time>
      </trkpt>
      <trkpt lat="42.71366" lon="-2.41886">
        <ele>601</ele>
        <time>2021-07-25 13:36:10</time>
      </trkpt>
      <trkpt lat="42.7138" lon="-2.41892">
        <ele>601.4</ele>
        <time>2021-07-25 13:36:14</time>
      </trkpt>
      <trkpt lat="42.71393" lon="-2.419">
        <ele>601.2</ele>
        <time>2021-07-25 13:36:18</time>
      </trkpt>
      <trkpt lat="42.71406" lon="-2.4191">
        <ele>601.4</ele>
        <time>2021-07-25 13:36:22</time>
      </trkpt>
      <trkpt lat="42.71418" lon="-2.4192">
        <ele>601.8</ele>
        <time>2021-07-25 13:36:26</time>
      </trkpt>
      <trkpt lat="42.7143" lon="-2.41932">
        <ele>601.2</ele>
        <time>2021-07-25 13:36:30</time>
      </trkpt>
      <trkpt lat="42.71442" lon="-2.41943">
        <ele>601</ele>
        <time>2021-07-25 13:36:34</time>
      </trkpt>
      <trkpt lat="42.71453" lon="-2.41955">
        <ele>600.4</ele>
        <time>2021-07-25 13:36:38</time>
      </trkpt>
      <trkpt lat="42.71465" lon="-2.41966">
        <ele>601.4</ele>
        <time>2021-07-25 13:36:42</time>
      </trkpt>
      <trkpt lat="42.71476" lon="-2.4198">
        <ele>601.2</ele>
        <time>2021-07-25 13:36:46</time>
      </trkpt>
      <trkpt lat="42.71487" lon="-2.41993">
        <ele>601.8</ele>
        <time>2021-07-25 13:36:50</time>
      </trkpt>
      <trkpt lat="42.71497" lon="-2.42007">
        <ele>601.6</ele>
        <time>2021-07-25 13:36:54</time>
      </trkpt>
      <trkpt lat="42.71507" lon="-2.42019">
        <ele>601.8</ele>
        <time>2021-07-25 13:36:58</time>
      </trkpt>
      <trkpt lat="42.71518" lon="-2.42033">
        <ele>602.4</ele>
        <time>2021-07-25 13:37:02</time>
      </trkpt>
      <trkpt lat="42.71531" lon="-2.42045">
        <ele>602</ele>
        <time>2021-07-25 13:37:06</time>
      </trkpt>
      <trkpt lat="42.71545" lon="-2.42054">
        <ele>602.2</ele>
        <time>2021-07-25 13:37:10</time>
      </trkpt>
      <trkpt lat="42.71559" lon="-2.42061">
        <ele>602.2</ele>
        <time>2021-07-25 13:37:14</time>
      </trkpt>
      <trkpt lat="42.71573" lon="-2.42063">
        <ele>602.8</ele>
        <time>2021-07-25 13:37:18</time>
      </trkpt>
      <trkpt lat="42.71587" lon="-2.42065">
        <ele>602.6</ele>
        <time>2021-07-25 13:37:22</time>
      </trkpt>
      <trkpt lat="42.71601" lon="-2.42066">
        <ele>603</ele>
        <time>2021-07-25 13:37:26</time>
      </trkpt>
      <trkpt lat="42.71614" lon="-2.42067">
        <ele>603.2</ele>
        <time>2021-07-25 13:37:30</time>
      </trkpt>
      <trkpt lat="42.71627" lon="-2.42069">
        <ele>604</ele>
        <time>2021-07-25 13:37:34</time>
      </trkpt>
      <trkpt lat="42.71639" lon="-2.42072">
        <ele>604.2</ele>
        <time>2021-07-25 13:37:38</time>
      </trkpt>
      <trkpt lat="42.71651" lon="-2.42075">
        <ele>604.8</ele>
        <time>2021-07-25 13:37:42</time>
      </trkpt>
      <trkpt lat="42.71664" lon="-2.4208">
        <ele>604.8</ele>
        <time>2021-07-25 13:37:46</time>
      </trkpt>
      <trkpt lat="42.71676" lon="-2.42085">
        <ele>605</ele>
        <time>2021-07-25 13:37:50</time>
      </trkpt>
      <trkpt lat="42.71688" lon="-2.42094">
        <ele>605</ele>
        <time>2021-07-25 13:37:54</time>
      </trkpt>
      <trkpt lat="42.71701" lon="-2.42102">
        <ele>605.6</ele>
        <time>2021-07-25 13:37:58</time>
      </trkpt>
      <trkpt lat="42.71715" lon="-2.42109">
        <ele>605.6</ele>
        <time>2021-07-25 13:38:02</time>
      </trkpt>
      <trkpt lat="42.7173" lon="-2.42114">
        <ele>605.4</ele>
        <time>2021-07-25 13:38:06</time>
      </trkpt>
      <trkpt lat="42.71745" lon="-2.42117">
        <ele>605.8</ele>
        <time>2021-07-25 13:38:10</time>
      </trkpt>
      <trkpt lat="42.7176" lon="-2.42119">
        <ele>605.6</ele>
        <time>2021-07-25 13:38:14</time>
      </trkpt>
      <trkpt lat="42.71774" lon="-2.42125">
        <ele>605.4</ele>
        <time>2021-07-25 13:38:18</time>
      </trkpt>
      <trkpt lat="42.71791" lon="-2.42133">
        <ele>604.8</ele>
        <time>2021-07-25 13:38:22</time>
      </trkpt>
      <trkpt lat="42.71809" lon="-2.42143">
        <ele>603.4</ele>
        <time>2021-07-25 13:38:26</time>
      </trkpt>
      <trkpt lat="42.71827" lon="-2.42147">
        <ele>603</ele>
        <time>2021-07-25 13:38:30</time>
      </trkpt>
      <trkpt lat="42.71846" lon="-2.42155">
        <ele>601.4</ele>
        <time>2021-07-25 13:38:34</time>
      </trkpt>
      <trkpt lat="42.71862" lon="-2.42173">
        <ele>601.4</ele>
        <time>2021-07-25 13:38:38</time>
      </trkpt>
      <trkpt lat="42.71875" lon="-2.42199">
        <ele>601.8</ele>
        <time>2021-07-25 13:38:42</time>
      </trkpt>
      <trkpt lat="42.71884" lon="-2.42223">
        <ele>601.8</ele>
        <time>2021-07-25 13:38:46</time>
      </trkpt>
      <trkpt lat="42.71894" lon="-2.42245">
        <ele>601.6</ele>
        <time>2021-07-25 13:38:50</time>
      </trkpt>
      <trkpt lat="42.71904" lon="-2.42265">
        <ele>601.8</ele>
        <time>2021-07-25 13:38:54</time>
      </trkpt>
      <trkpt lat="42.71912" lon="-2.42284">
        <ele>602.6</ele>
        <time>2021-07-25 13:38:58</time>
      </trkpt>
      <trkpt lat="42.7192" lon="-2.42303">
        <ele>603.2</ele>
        <time>2021-07-25 13:39:02</time>
      </trkpt>
      <trkpt lat="42.71928" lon="-2.42321">
        <ele>602.6</ele>
        <time>2021-07-25 13:39:06</time>
      </trkpt>
      <trkpt lat="42.71935" lon="-2.42339">
        <ele>602.8</ele>
        <time>2021-07-25 13:39:10</time>
      </trkpt>
      <trkpt lat="42.71942" lon="-2.42355">
        <ele>603</ele>
        <time>2021-07-25 13:39:14</time>
      </trkpt>
      <trkpt lat="42.71948" lon="-2.42372">
        <ele>603.6</ele>
        <time>2021-07-25 13:39:18</time>
      </trkpt>
      <trkpt lat="42.71955" lon="-2.42388">
        <ele>603.6</ele>
        <time>2021-07-25 13:39:22</time>
      </trkpt>
      <trkpt lat="42.71964" lon="-2.42403">
        <ele>604</ele>
        <time>2021-07-25 13:39:26</time>
      </trkpt>
      <trkpt lat="42.71975" lon="-2.42415">
        <ele>604.2</ele>
        <time>2021-07-25 13:39:30</time>
      </trkpt>
      <trkpt lat="42.71989" lon="-2.42424">
        <ele>604.2</ele>
        <time>2021-07-25 13:39:34</time>
      </trkpt>
      <trkpt lat="42.72006" lon="-2.42427">
        <ele>603.2</ele>
        <time>2021-07-25 13:39:38</time>
      </trkpt>
      <trkpt lat="42.72025" lon="-2.42428">
        <ele>603</ele>
        <time>2021-07-25 13:39:42</time>
      </trkpt>
      <trkpt lat="42.72042" lon="-2.42432">
        <ele>603.4</ele>
        <time>2021-07-25 13:39:46</time>
      </trkpt>
      <trkpt lat="42.72054" lon="-2.42441">
        <ele>604.2</ele>
        <time>2021-07-25 13:39:50</time>
      </trkpt>
      <trkpt lat="42.72062" lon="-2.42453">
        <ele>604.8</ele>
        <time>2021-07-25 13:39:54</time>
      </trkpt>
      <trkpt lat="42.72068" lon="-2.42463">
        <ele>605.2</ele>
        <time>2021-07-25 13:39:58</time>
      </trkpt>
      <trkpt lat="42.72074" lon="-2.42472">
        <ele>606</ele>
        <time>2021-07-25 13:40:02</time>
      </trkpt>
      <trkpt lat="42.72081" lon="-2.42481">
        <ele>606</ele>
        <time>2021-07-25 13:40:06</time>
      </trkpt>
      <trkpt lat="42.72088" lon="-2.42491">
        <ele>606.2</ele>
        <time>2021-07-25 13:40:10</time>
      </trkpt>
      <trkpt lat="42.72096" lon="-2.42499">
        <ele>605.8</ele>
        <time>2021-07-25 13:40:14</time>
      </trkpt>
      <trkpt lat="42.72103" lon="-2.42507">
        <ele>606.2</ele>
        <time>2021-07-25 13:40:18</time>
      </trkpt>
      <trkpt lat="42.72112" lon="-2.42516">
        <ele>606.2</ele>
        <time>2021-07-25 13:40:22</time>
      </trkpt>
      <trkpt lat="42.72122" lon="-2.42525">
        <ele>606.4</ele>
        <time>2021-07-25 13:40:26</time>
      </trkpt>
      <trkpt lat="42.72134" lon="-2.42533">
        <ele>606.4</ele>
        <time>2021-07-25 13:40:30</time>
      </trkpt>
      <trkpt lat="42.72144" lon="-2.4254">
        <ele>606.8</ele>
        <time>2021-07-25 13:40:34</time>
      </trkpt>
      <trkpt lat="42.72154" lon="-2.42547">
        <ele>606.2</ele>
        <time>2021-07-25 13:40:38</time>
      </trkpt>
      <trkpt lat="42.72162" lon="-2.42558">
        <ele>606.2</ele>
        <time>2021-07-25 13:40:42</time>
      </trkpt>
      <trkpt lat="42.72168" lon="-2.42572">
        <ele>606.4</ele>
        <time>2021-07-25 13:40:46</time>
      </trkpt>
      <trkpt lat="42.72173" lon="-2.42586">
        <ele>607</ele>
        <time>2021-07-25 13:40:50</time>
      </trkpt>
      <trkpt lat="42.72173" lon="-2.42595">
        <ele>606</ele>
        <time>2021-07-25 13:40:54</time>
      </trkpt>
      <trkpt lat="42.72165" lon="-2.42594">
        <ele>605.2</ele>
        <time>2021-07-25 13:40:58</time>
      </trkpt>
      <trkpt lat="42.72156" lon="-2.42592">
        <ele>604.6</ele>
        <time>2021-07-25 13:41:02</time>
      </trkpt>
      <trkpt lat="42.72143" lon="-2.42589">
        <ele>604.4</ele>
        <time>2021-07-25 13:41:06</time>
      </trkpt>
      <trkpt lat="42.72128" lon="-2.42585">
        <ele>604</ele>
        <time>2021-07-25 13:41:10</time>
      </trkpt>
      <trkpt lat="42.72111" lon="-2.42585">
        <ele>603.6</ele>
        <time>2021-07-25 13:41:14</time>
      </trkpt>
      <trkpt lat="42.72096" lon="-2.42592">
        <ele>603.4</ele>
        <time>2021-07-25 13:41:18</time>
      </trkpt>
      <trkpt lat="42.72083" lon="-2.426">
        <ele>604.2</ele>
        <time>2021-07-25 13:41:22</time>
      </trkpt>
      <trkpt lat="42.72073" lon="-2.42601">
        <ele>604.2</ele>
        <time>2021-07-25 13:41:26</time>
      </trkpt>
      <trkpt lat="42.72062" lon="-2.42601">
        <ele>602.2</ele>
        <time>2021-07-25 13:41:30</time>
      </trkpt>
      <trkpt lat="42.72052" lon="-2.426">
        <ele>601.8</ele>
        <time>2021-07-25 13:41:34</time>
      </trkpt>
      <trkpt lat="42.72049" lon="-2.42601">
        <ele>602.2</ele>
        <time>2021-07-25 13:41:38</time>
      </trkpt>
      <trkpt lat="42.72037" lon="-2.42613">
        <ele>602.6</ele>
        <time>2021-07-25 13:41:42</time>
      </trkpt>
      <trkpt lat="42.72028" lon="-2.42639">
        <ele>604.4</ele>
        <time>2021-07-25 13:41:46</time>
      </trkpt>
      <trkpt lat="42.72024" lon="-2.42648">
        <ele>604.4</ele>
        <time>2021-07-25 13:41:50</time>
      </trkpt>
      <trkpt lat="42.72019" lon="-2.42654">
        <ele>605.4</ele>
        <time>2021-07-25 13:41:54</time>
      </trkpt>
      <trkpt lat="42.72015" lon="-2.42662">
        <ele>605.4</ele>
        <time>2021-07-25 13:41:58</time>
      </trkpt>
      <trkpt lat="42.7201" lon="-2.42672">
        <ele>605.6</ele>
        <time>2021-07-25 13:42:02</time>
      </trkpt>
      <trkpt lat="42.72009" lon="-2.42684">
        <ele>605.4</ele>
        <time>2021-07-25 13:42:06</time>
      </trkpt>
      <trkpt lat="42.72016" lon="-2.42694">
        <ele>605.2</ele>
        <time>2021-07-25 13:42:10</time>
      </trkpt>
      <trkpt lat="42.72024" lon="-2.42705">
        <ele>604.4</ele>
        <time>2021-07-25 13:42:14</time>
      </trkpt>
      <trkpt lat="42.72032" lon="-2.42718">
        <ele>604.8</ele>
        <time>2021-07-25 13:42:18</time>
      </trkpt>
      <trkpt lat="42.72041" lon="-2.42731">
        <ele>605</ele>
        <time>2021-07-25 13:42:22</time>
      </trkpt>
      <trkpt lat="42.7205" lon="-2.42744">
        <ele>605.4</ele>
        <time>2021-07-25 13:42:26</time>
      </trkpt>
      <trkpt lat="42.72061" lon="-2.42756">
        <ele>605.6</ele>
        <time>2021-07-25 13:42:30</time>
      </trkpt>
      <trkpt lat="42.72073" lon="-2.42766">
        <ele>605.2</ele>
        <time>2021-07-25 13:42:34</time>
      </trkpt>
      <trkpt lat="42.72086" lon="-2.42776">
        <ele>605</ele>
        <time>2021-07-25 13:42:38</time>
      </trkpt>
      <trkpt lat="42.72099" lon="-2.42784">
        <ele>605.6</ele>
        <time>2021-07-25 13:42:42</time>
      </trkpt>
      <trkpt lat="42.72113" lon="-2.42791">
        <ele>605.6</ele>
        <time>2021-07-25 13:42:46</time>
      </trkpt>
      <trkpt lat="42.72127" lon="-2.42797">
        <ele>604.8</ele>
        <time>2021-07-25 13:42:50</time>
      </trkpt>
      <trkpt lat="42.72141" lon="-2.42801">
        <ele>605.4</ele>
        <time>2021-07-25 13:42:54</time>
      </trkpt>
      <trkpt lat="42.72156" lon="-2.42804">
        <ele>605.8</ele>
        <time>2021-07-25 13:42:58</time>
      </trkpt>
      <trkpt lat="42.7217" lon="-2.42804">
        <ele>605.6</ele>
        <time>2021-07-25 13:43:02</time>
      </trkpt>
      <trkpt lat="42.72186" lon="-2.42803">
        <ele>605.6</ele>
        <time>2021-07-25 13:43:06</time>
      </trkpt>
      <trkpt lat="42.72201" lon="-2.428">
        <ele>605.6</ele>
        <time>2021-07-25 13:43:10</time>
      </trkpt>
      <trkpt lat="42.72217" lon="-2.42796">
        <ele>606</ele>
        <time>2021-07-25 13:43:14</time>
      </trkpt>
      <trkpt lat="42.72232" lon="-2.42791">
        <ele>606.4</ele>
        <time>2021-07-25 13:43:18</time>
      </trkpt>
      <trkpt lat="42.72248" lon="-2.42786">
        <ele>606.4</ele>
        <time>2021-07-25 13:43:22</time>
      </trkpt>
      <trkpt lat="42.72264" lon="-2.42781">
        <ele>606.4</ele>
        <time>2021-07-25 13:43:26</time>
      </trkpt>
      <trkpt lat="42.7228" lon="-2.42777">
        <ele>607</ele>
        <time>2021-07-25 13:43:30</time>
      </trkpt>
      <trkpt lat="42.72296" lon="-2.42773">
        <ele>606.8</ele>
        <time>2021-07-25 13:43:34</time>
      </trkpt>
      <trkpt lat="42.72311" lon="-2.42768">
        <ele>606.6</ele>
        <time>2021-07-25 13:43:38</time>
      </trkpt>
      <trkpt lat="42.72327" lon="-2.42763">
        <ele>606.4</ele>
        <time>2021-07-25 13:43:42</time>
      </trkpt>
      <trkpt lat="42.72341" lon="-2.42758">
        <ele>607</ele>
        <time>2021-07-25 13:43:46</time>
      </trkpt>
      <trkpt lat="42.72356" lon="-2.42753">
        <ele>607.4</ele>
        <time>2021-07-25 13:43:50</time>
      </trkpt>
      <trkpt lat="42.7237" lon="-2.42749">
        <ele>607.6</ele>
        <time>2021-07-25 13:43:54</time>
      </trkpt>
      <trkpt lat="42.72383" lon="-2.42745">
        <ele>607.8</ele>
        <time>2021-07-25 13:43:58</time>
      </trkpt>
      <trkpt lat="42.72395" lon="-2.42741">
        <ele>608.4</ele>
        <time>2021-07-25 13:44:02</time>
      </trkpt>
      <trkpt lat="42.72407" lon="-2.42737">
        <ele>608.8</ele>
        <time>2021-07-25 13:44:06</time>
      </trkpt>
      <trkpt lat="42.72418" lon="-2.42734">
        <ele>608.6</ele>
        <time>2021-07-25 13:44:10</time>
      </trkpt>
      <trkpt lat="42.72429" lon="-2.4273">
        <ele>608.8</ele>
        <time>2021-07-25 13:44:14</time>
      </trkpt>
      <trkpt lat="42.7244" lon="-2.42726">
        <ele>609.4</ele>
        <time>2021-07-25 13:44:18</time>
      </trkpt>
      <trkpt lat="42.72453" lon="-2.42723">
        <ele>609.6</ele>
        <time>2021-07-25 13:44:22</time>
      </trkpt>
      <trkpt lat="42.72466" lon="-2.4272">
        <ele>609.4</ele>
        <time>2021-07-25 13:44:26</time>
      </trkpt>
      <trkpt lat="42.72479" lon="-2.42718">
        <ele>609.6</ele>
        <time>2021-07-25 13:44:30</time>
      </trkpt>
      <trkpt lat="42.72493" lon="-2.42713">
        <ele>610.4</ele>
        <time>2021-07-25 13:44:34</time>
      </trkpt>
      <trkpt lat="42.72507" lon="-2.4271">
        <ele>610.4</ele>
        <time>2021-07-25 13:44:38</time>
      </trkpt>
      <trkpt lat="42.72519" lon="-2.4271">
        <ele>610.8</ele>
        <time>2021-07-25 13:44:42</time>
      </trkpt>
      <trkpt lat="42.72532" lon="-2.4271">
        <ele>611</ele>
        <time>2021-07-25 13:44:46</time>
      </trkpt>
      <trkpt lat="42.72542" lon="-2.42711">
        <ele>611.4</ele>
        <time>2021-07-25 13:44:50</time>
      </trkpt>
      <trkpt lat="42.72552" lon="-2.4271">
        <ele>611.4</ele>
        <time>2021-07-25 13:44:54</time>
      </trkpt>
      <trkpt lat="42.72561" lon="-2.42709">
        <ele>610.4</ele>
        <time>2021-07-25 13:44:58</time>
      </trkpt>
      <trkpt lat="42.72572" lon="-2.42706">
        <ele>609.4</ele>
        <time>2021-07-25 13:45:02</time>
      </trkpt>
      <trkpt lat="42.72586" lon="-2.42708">
        <ele>610</ele>
        <time>2021-07-25 13:45:06</time>
      </trkpt>
      <trkpt lat="42.726" lon="-2.42712">
        <ele>611.4</ele>
        <time>2021-07-25 13:45:10</time>
      </trkpt>
      <trkpt lat="42.72606" lon="-2.42714">
        <ele>612.4</ele>
        <time>2021-07-25 13:45:14</time>
      </trkpt>
      <trkpt lat="42.72611" lon="-2.42716">
        <ele>613.4</ele>
        <time>2021-07-25 13:45:18</time>
      </trkpt>
      <trkpt lat="42.72617" lon="-2.42717">
        <ele>614.6</ele>
        <time>2021-07-25 13:45:22</time>
      </trkpt>
      <trkpt lat="42.72622" lon="-2.42718">
        <ele>615</ele>
        <time>2021-07-25 13:45:26</time>
      </trkpt>
      <trkpt lat="42.7263" lon="-2.4272">
        <ele>615.8</ele>
        <time>2021-07-25 13:45:30</time>
      </trkpt>
      <trkpt lat="42.72636" lon="-2.42724">
        <ele>617.4</ele>
        <time>2021-07-25 13:45:34</time>
      </trkpt>
      <trkpt lat="42.72644" lon="-2.42728">
        <ele>617.2</ele>
        <time>2021-07-25 13:45:38</time>
      </trkpt>
      <trkpt lat="42.72649" lon="-2.42734">
        <ele>618</ele>
        <time>2021-07-25 13:45:42</time>
      </trkpt>
      <trkpt lat="42.72655" lon="-2.42738">
        <ele>618.4</ele>
        <time>2021-07-25 13:45:46</time>
      </trkpt>
      <trkpt lat="42.7266" lon="-2.42738">
        <ele>619.6</ele>
        <time>2021-07-25 13:45:50</time>
      </trkpt>
      <trkpt lat="42.72664" lon="-2.42742">
        <ele>620</ele>
        <time>2021-07-25 13:45:54</time>
      </trkpt>
      <trkpt lat="42.72665" lon="-2.42744">
        <ele>620</ele>
        <time>2021-07-25 13:45:58</time>
      </trkpt>
      <trkpt lat="42.72668" lon="-2.42746">
        <ele>620.6</ele>
        <time>2021-07-25 13:46:02</time>
      </trkpt>
      <trkpt lat="42.72671" lon="-2.42748">
        <ele>620.8</ele>
        <time>2021-07-25 13:46:06</time>
      </trkpt>
      <trkpt lat="42.72674" lon="-2.4275">
        <ele>621.6</ele>
        <time>2021-07-25 13:46:10</time>
      </trkpt>
      <trkpt lat="42.72676" lon="-2.42752">
        <ele>622.4</ele>
        <time>2021-07-25 13:46:14</time>
      </trkpt>
      <trkpt lat="42.72679" lon="-2.42754">
        <ele>622.6</ele>
        <time>2021-07-25 13:46:18</time>
      </trkpt>
      <trkpt lat="42.72682" lon="-2.42756">
        <ele>623.6</ele>
        <time>2021-07-25 13:46:22</time>
      </trkpt>
      <trkpt lat="42.72685" lon="-2.42759">
        <ele>623.6</ele>
        <time>2021-07-25 13:46:26</time>
      </trkpt>
      <trkpt lat="42.72688" lon="-2.42761">
        <ele>624.8</ele>
        <time>2021-07-25 13:46:30</time>
      </trkpt>
      <trkpt lat="42.72691" lon="-2.42762">
        <ele>625.2</ele>
        <time>2021-07-25 13:46:34</time>
      </trkpt>
      <trkpt lat="42.72694" lon="-2.42763">
        <ele>625.4</ele>
        <time>2021-07-25 13:46:38</time>
      </trkpt>
      <trkpt lat="42.72694" lon="-2.42763">
        <ele>625.4</ele>
        <time>2021-07-25 13:46:42</time>
      </trkpt>
      <trkpt lat="42.72696" lon="-2.42763">
        <ele>625</ele>
        <time>2021-07-25 13:46:46</time>
      </trkpt>
      <trkpt lat="42.72704" lon="-2.42764">
        <ele>624.2</ele>
        <time>2021-07-25 13:46:50</time>
      </trkpt>
      <trkpt lat="42.72713" lon="-2.42768">
        <ele>622.8</ele>
        <time>2021-07-25 13:46:54</time>
      </trkpt>
      <trkpt lat="42.72723" lon="-2.42772">
        <ele>623.2</ele>
        <time>2021-07-25 13:46:58</time>
      </trkpt>
      <trkpt lat="42.7273" lon="-2.42775">
        <ele>621.6</ele>
        <time>2021-07-25 13:47:02</time>
      </trkpt>
      <trkpt lat="42.72739" lon="-2.42777">
        <ele>620</ele>
        <time>2021-07-25 13:47:06</time>
      </trkpt>
      <trkpt lat="42.72747" lon="-2.42777">
        <ele>617.6</ele>
        <time>2021-07-25 13:47:10</time>
      </trkpt>
      <trkpt lat="42.72758" lon="-2.42777">
        <ele>616.6</ele>
        <time>2021-07-25 13:47:14</time>
      </trkpt>
      <trkpt lat="42.72772" lon="-2.42783">
        <ele>614.8</ele>
        <time>2021-07-25 13:47:18</time>
      </trkpt>
      <trkpt lat="42.72791" lon="-2.42789">
        <ele>614.8</ele>
        <time>2021-07-25 13:47:22</time>
      </trkpt>
      <trkpt lat="42.72805" lon="-2.42793">
        <ele>614.8</ele>
        <time>2021-07-25 13:47:26</time>
      </trkpt>
      <trkpt lat="42.72819" lon="-2.42796">
        <ele>615</ele>
        <time>2021-07-25 13:47:30</time>
      </trkpt>
      <trkpt lat="42.72829" lon="-2.42798">
        <ele>615.4</ele>
        <time>2021-07-25 13:47:34</time>
      </trkpt>
      <trkpt lat="42.7284" lon="-2.42802">
        <ele>615</ele>
        <time>2021-07-25 13:47:38</time>
      </trkpt>
      <trkpt lat="42.7285" lon="-2.42807">
        <ele>614.2</ele>
        <time>2021-07-25 13:47:42</time>
      </trkpt>
      <trkpt lat="42.72861" lon="-2.42815">
        <ele>613</ele>
        <time>2021-07-25 13:47:46</time>
      </trkpt>
      <trkpt lat="42.72871" lon="-2.42827">
        <ele>612.6</ele>
        <time>2021-07-25 13:47:50</time>
      </trkpt>
      <trkpt lat="42.7288" lon="-2.42842">
        <ele>612.2</ele>
        <time>2021-07-25 13:47:54</time>
      </trkpt>
      <trkpt lat="42.72883" lon="-2.42856">
        <ele>611.2</ele>
        <time>2021-07-25 13:47:58</time>
      </trkpt>
      <trkpt lat="42.72887" lon="-2.42874">
        <ele>611.2</ele>
        <time>2021-07-25 13:48:02</time>
      </trkpt>
      <trkpt lat="42.72889" lon="-2.42891">
        <ele>611.4</ele>
        <time>2021-07-25 13:48:06</time>
      </trkpt>
      <trkpt lat="42.72889" lon="-2.42891">
        <ele>611.6</ele>
        <time>2021-07-25 13:48:10</time>
      </trkpt>
      <trkpt lat="42.72889" lon="-2.42891">
        <ele>611.6</ele>
        <time>2021-07-25 13:48:14</time>
      </trkpt>
      <trkpt lat="42.72888" lon="-2.42899">
        <ele>611.8</ele>
        <time>2021-07-25 13:48:18</time>
      </trkpt>
      <trkpt lat="42.7289" lon="-2.42899">
        <ele>611.6</ele>
        <time>2021-07-25 13:48:22</time>
      </trkpt>
      <trkpt lat="42.7289" lon="-2.42899">
        <ele>611.6</ele>
        <time>2021-07-25 13:48:26</time>
      </trkpt>
      <trkpt lat="42.7289" lon="-2.42899">
        <ele>611.8</ele>
        <time>2021-07-25 13:48:30</time>
      </trkpt>
      <trkpt lat="42.7289" lon="-2.42899">
        <ele>611.8</ele>
        <time>2021-07-25 13:48:34</time>
      </trkpt>
      <trkpt lat="42.72891" lon="-2.42898">
        <ele>611.8</ele>
        <time>2021-07-25 13:48:38</time>
      </trkpt>
      <trkpt lat="42.72891" lon="-2.42898">
        <ele>611.6</ele>
        <time>2021-07-25 13:48:42</time>
      </trkpt>
      <trkpt lat="42.72891" lon="-2.42898">
        <ele>611.6</ele>
        <time>2021-07-25 13:48:46</time>
      </trkpt>
      <trkpt lat="42.72891" lon="-2.42898">
        <ele>611.6</ele>
        <time>2021-07-25 13:48:50</time>
      </trkpt>
      <trkpt lat="42.72891" lon="-2.42898">
        <ele>611.6</ele>
        <time>2021-07-25 13:48:54</time>
      </trkpt>
      <trkpt lat="42.72891" lon="-2.42898">
        <ele>611.6</ele>
        <time>2021-07-25 13:48:58</time>
      </trkpt>
      <trkpt lat="42.72891" lon="-2.42898">
        <ele>611.6</ele>
        <time>2021-07-25 13:49:02</time>
      </trkpt>
      <trkpt lat="42.72891" lon="-2.42898">
        <ele>610.8</ele>
        <time>2021-07-25 13:49:06</time>
      </trkpt>
      <trkpt lat="42.72891" lon="-2.42898">
        <ele>610.2</ele>
        <time>2021-07-25 13:49:10</time>
      </trkpt>
      <trkpt lat="42.72891" lon="-2.42898">
        <ele>610.4</ele>
        <time>2021-07-25 13:49:14</time>
      </trkpt>
      <trkpt lat="42.72891" lon="-2.42898">
        <ele>610.8</ele>
        <time>2021-07-25 13:49:18</time>
      </trkpt>
      <trkpt lat="42.72891" lon="-2.42898">
        <ele>610.8</ele>
        <time>2021-07-25 13:49:22</time>
      </trkpt>
      <trkpt lat="42.72891" lon="-2.42898">
        <ele>611</ele>
        <time>2021-07-25 13:49:26</time>
      </trkpt>
      <trkpt lat="42.72891" lon="-2.42898">
        <ele>611</ele>
        <time>2021-07-25 13:49:30</time>
      </trkpt>
      <trkpt lat="42.72891" lon="-2.42898">
        <ele>611</ele>
        <time>2021-07-25 13:49:34</time>
      </trkpt>
      <trkpt lat="42.72891" lon="-2.42898">
        <ele>611</ele>
        <time>2021-07-25 13:49:38</time>
      </trkpt>
      <trkpt lat="42.72891" lon="-2.42898">
        <ele>611.2</ele>
        <time>2021-07-25 13:49:42</time>
      </trkpt>
      <trkpt lat="42.72891" lon="-2.42898">
        <ele>611</ele>
        <time>2021-07-25 13:49:46</time>
      </trkpt>
      <trkpt lat="42.72891" lon="-2.42898">
        <ele>611.6</ele>
        <time>2021-07-25 13:49:50</time>
      </trkpt>
      <trkpt lat="42.72891" lon="-2.42898">
        <ele>611.6</ele>
        <time>2021-07-25 13:49:54</time>
      </trkpt>
      <trkpt lat="42.72891" lon="-2.42898">
        <ele>611.6</ele>
        <time>2021-07-25 13:49:58</time>
      </trkpt>
      <trkpt lat="42.72891" lon="-2.42898">
        <ele>611.8</ele>
        <time>2021-07-25 13:50:02</time>
      </trkpt>
      <trkpt lat="42.72891" lon="-2.42898">
        <ele>611.6</ele>
        <time>2021-07-25 13:50:06</time>
      </trkpt>
      <trkpt lat="42.72891" lon="-2.42898">
        <ele>611.8</ele>
        <time>2021-07-25 13:50:10</time>
      </trkpt>
      <trkpt lat="42.72891" lon="-2.42898">
        <ele>611.4</ele>
        <time>2021-07-25 13:50:14</time>
      </trkpt>
      <trkpt lat="42.72891" lon="-2.42898">
        <ele>612</ele>
        <time>2021-07-25 13:50:18</time>
      </trkpt>
      <trkpt lat="42.72891" lon="-2.42898">
        <ele>611.6</ele>
        <time>2021-07-25 13:50:22</time>
      </trkpt>
      <trkpt lat="42.72891" lon="-2.42898">
        <ele>611.6</ele>
        <time>2021-07-25 13:50:26</time>
      </trkpt>
      <trkpt lat="42.72891" lon="-2.42898">
        <ele>611.8</ele>
        <time>2021-07-25 13:50:30</time>
      </trkpt>
      <trkpt lat="42.72891" lon="-2.42898">
        <ele>611.6</ele>
        <time>2021-07-25 13:50:34</time>
      </trkpt>
      <trkpt lat="42.72891" lon="-2.42898">
        <ele>611.6</ele>
        <time>2021-07-25 13:50:38</time>
      </trkpt>
      <trkpt lat="42.72891" lon="-2.42898">
        <ele>611.8</ele>
        <time>2021-07-25 13:50:42</time>
      </trkpt>
      <trkpt lat="42.72891" lon="-2.42898">
        <ele>611.8</ele>
        <time>2021-07-25 13:50:46</time>
      </trkpt>
      <trkpt lat="42.72891" lon="-2.42898">
        <ele>611.4</ele>
        <time>2021-07-25 13:50:50</time>
      </trkpt>
      <trkpt lat="42.72891" lon="-2.42898">
        <ele>611.2</ele>
        <time>2021-07-25 13:50:54</time>
      </trkpt>
      <trkpt lat="42.72891" lon="-2.42898">
        <ele>611.2</ele>
        <time>2021-07-25 13:50:58</time>
      </trkpt>
      <trkpt lat="42.72891" lon="-2.42898">
        <ele>611.4</ele>
        <time>2021-07-25 13:51:02</time>
      </trkpt>
      <trkpt lat="42.72891" lon="-2.42898">
        <ele>610.8</ele>
        <time>2021-07-25 13:51:06</time>
      </trkpt>
      <trkpt lat="42.72891" lon="-2.42898">
        <ele>611.2</ele>
        <time>2021-07-25 13:51:10</time>
      </trkpt>
      <trkpt lat="42.72891" lon="-2.42898">
        <ele>611.2</ele>
        <time>2021-07-25 13:51:14</time>
      </trkpt>
      <trkpt lat="42.72891" lon="-2.42898">
        <ele>611.4</ele>
        <time>2021-07-25 13:51:18</time>
      </trkpt>
      <trkpt lat="42.72891" lon="-2.42898">
        <ele>611.2</ele>
        <time>2021-07-25 13:51:22</time>
      </trkpt>
      <trkpt lat="42.72891" lon="-2.42898">
        <ele>611</ele>
        <time>2021-07-25 13:51:26</time>
      </trkpt>
      <trkpt lat="42.72891" lon="-2.42898">
        <ele>611.6</ele>
        <time>2021-07-25 13:51:30</time>
      </trkpt>
      <trkpt lat="42.72891" lon="-2.42898">
        <ele>611.4</ele>
        <time>2021-07-25 13:51:34</time>
      </trkpt>
      <trkpt lat="42.72891" lon="-2.42898">
        <ele>611.2</ele>
        <time>2021-07-25 13:51:38</time>
      </trkpt>
      <trkpt lat="42.72891" lon="-2.42898">
        <ele>611.2</ele>
        <time>2021-07-25 13:51:42</time>
      </trkpt>
      <trkpt lat="42.72891" lon="-2.42898">
        <ele>611.2</ele>
        <time>2021-07-25 13:51:46</time>
      </trkpt>
      <trkpt lat="42.72891" lon="-2.42898">
        <ele>611.2</ele>
        <time>2021-07-25 13:51:50</time>
      </trkpt>
      <trkpt lat="42.72891" lon="-2.42898">
        <ele>611.4</ele>
        <time>2021-07-25 13:51:54</time>
      </trkpt>
      <trkpt lat="42.72891" lon="-2.42898">
        <ele>611.4</ele>
        <time>2021-07-25 13:51:58</time>
      </trkpt>
      <trkpt lat="42.72891" lon="-2.42898">
        <ele>611.6</ele>
        <time>2021-07-25 13:52:02</time>
      </trkpt>
      <trkpt lat="42.72891" lon="-2.42898">
        <ele>611.6</ele>
        <time>2021-07-25 13:52:06</time>
      </trkpt>
      <trkpt lat="42.72891" lon="-2.42898">
        <ele>611.6</ele>
        <time>2021-07-25 13:52:10</time>
      </trkpt>
      <trkpt lat="42.72891" lon="-2.42898">
        <ele>611.4</ele>
        <time>2021-07-25 13:52:14</time>
      </trkpt>
      <trkpt lat="42.72891" lon="-2.42898">
        <ele>611.2</ele>
        <time>2021-07-25 13:52:18</time>
      </trkpt>
      <trkpt lat="42.72891" lon="-2.42898">
        <ele>611.2</ele>
        <time>2021-07-25 13:52:22</time>
      </trkpt>
      <trkpt lat="42.72891" lon="-2.42898">
        <ele>611.6</ele>
        <time>2021-07-25 13:52:26</time>
      </trkpt>
      <trkpt lat="42.72891" lon="-2.42898">
        <ele>611.4</ele>
        <time>2021-07-25 13:52:30</time>
      </trkpt>
      <trkpt lat="42.72891" lon="-2.42898">
        <ele>611.4</ele>
        <time>2021-07-25 13:52:34</time>
      </trkpt>
      <trkpt lat="42.72891" lon="-2.42898">
        <ele>611.4</ele>
        <time>2021-07-25 13:52:38</time>
      </trkpt>
      <trkpt lat="42.72891" lon="-2.42898">
        <ele>611.4</ele>
        <time>2021-07-25 13:52:42</time>
      </trkpt>
      <trkpt lat="42.72891" lon="-2.42898">
        <ele>611.4</ele>
        <time>2021-07-25 13:52:46</time>
      </trkpt>
      <trkpt lat="42.72891" lon="-2.42898">
        <ele>611.2</ele>
        <time>2021-07-25 13:52:50</time>
      </trkpt>
      <trkpt lat="42.72891" lon="-2.42898">
        <ele>611</ele>
        <time>2021-07-25 13:52:54</time>
      </trkpt>
      <trkpt lat="42.72891" lon="-2.42898">
        <ele>611.4</ele>
        <time>2021-07-25 13:52:58</time>
      </trkpt>
      <trkpt lat="42.72891" lon="-2.42898">
        <ele>611.2</ele>
        <time>2021-07-25 13:53:02</time>
      </trkpt>
      <trkpt lat="42.72891" lon="-2.42898">
        <ele>611.2</ele>
        <time>2021-07-25 13:53:06</time>
      </trkpt>
      <trkpt lat="42.72891" lon="-2.42898">
        <ele>611.2</ele>
        <time>2021-07-25 13:53:10</time>
      </trkpt>
      <trkpt lat="42.72891" lon="-2.42898">
        <ele>611</ele>
        <time>2021-07-25 13:53:14</time>
      </trkpt>
      <trkpt lat="42.72891" lon="-2.42898">
        <ele>610.8</ele>
        <time>2021-07-25 13:53:18</time>
      </trkpt>
      <trkpt lat="42.72891" lon="-2.42898">
        <ele>610.8</ele>
        <time>2021-07-25 13:53:22</time>
      </trkpt>
      <trkpt lat="42.72891" lon="-2.42898">
        <ele>610.6</ele>
        <time>2021-07-25 13:53:26</time>
      </trkpt>
      <trkpt lat="42.72891" lon="-2.42898">
        <ele>611</ele>
        <time>2021-07-25 13:53:30</time>
      </trkpt>
      <trkpt lat="42.72891" lon="-2.42898">
        <ele>611</ele>
        <time>2021-07-25 13:53:34</time>
      </trkpt>
      <trkpt lat="42.72891" lon="-2.42898">
        <ele>611</ele>
        <time>2021-07-25 13:53:38</time>
      </trkpt>
      <trkpt lat="42.72891" lon="-2.42898">
        <ele>611.2</ele>
        <time>2021-07-25 13:53:42</time>
      </trkpt>
      <trkpt lat="42.72891" lon="-2.42898">
        <ele>611.4</ele>
        <time>2021-07-25 13:53:46</time>
      </trkpt>
      <trkpt lat="42.72891" lon="-2.42898">
        <ele>611.2</ele>
        <time>2021-07-25 13:53:50</time>
      </trkpt>
      <trkpt lat="42.72891" lon="-2.42898">
        <ele>611.4</ele>
        <time>2021-07-25 13:53:54</time>
      </trkpt>
      <trkpt lat="42.72891" lon="-2.42898">
        <ele>611.2</ele>
        <time>2021-07-25 13:53:58</time>
      </trkpt>
      <trkpt lat="42.72891" lon="-2.42898">
        <ele>611.6</ele>
        <time>2021-07-25 13:54:02</time>
      </trkpt>
      <trkpt lat="42.72891" lon="-2.42898">
        <ele>611.4</ele>
        <time>2021-07-25 13:54:06</time>
      </trkpt>
      <trkpt lat="42.72891" lon="-2.42898">
        <ele>611.4</ele>
        <time>2021-07-25 13:54:10</time>
      </trkpt>
      <trkpt lat="42.72891" lon="-2.42898">
        <ele>611.6</ele>
        <time>2021-07-25 13:54:14</time>
      </trkpt>
      <trkpt lat="42.72891" lon="-2.42898">
        <ele>611.2</ele>
        <time>2021-07-25 13:54:18</time>
      </trkpt>
      <trkpt lat="42.72891" lon="-2.42898">
        <ele>611.4</ele>
        <time>2021-07-25 13:54:22</time>
      </trkpt>
      <trkpt lat="42.72891" lon="-2.42898">
        <ele>611.2</ele>
        <time>2021-07-25 13:54:26</time>
      </trkpt>
      <trkpt lat="42.72891" lon="-2.42898">
        <ele>611.4</ele>
        <time>2021-07-25 13:54:30</time>
      </trkpt>
      <trkpt lat="42.72891" lon="-2.42898">
        <ele>611.2</ele>
        <time>2021-07-25 13:54:34</time>
      </trkpt>
      <trkpt lat="42.72891" lon="-2.42898">
        <ele>611</ele>
        <time>2021-07-25 13:54:38</time>
      </trkpt>
      <trkpt lat="42.72891" lon="-2.42898">
        <ele>611.2</ele>
        <time>2021-07-25 13:54:42</time>
      </trkpt>
      <trkpt lat="42.72891" lon="-2.42898">
        <ele>611</ele>
        <time>2021-07-25 13:54:46</time>
      </trkpt>
      <trkpt lat="42.72891" lon="-2.42898">
        <ele>611.4</ele>
        <time>2021-07-25 13:54:50</time>
      </trkpt>
      <trkpt lat="42.72891" lon="-2.42898">
        <ele>610.8</ele>
        <time>2021-07-25 13:54:54</time>
      </trkpt>
      <trkpt lat="42.72891" lon="-2.42898">
        <ele>611.2</ele>
        <time>2021-07-25 13:54:58</time>
      </trkpt>
      <trkpt lat="42.72891" lon="-2.42898">
        <ele>611</ele>
        <time>2021-07-25 13:55:02</time>
      </trkpt>
      <trkpt lat="42.72891" lon="-2.42898">
        <ele>610.8</ele>
        <time>2021-07-25 13:55:06</time>
      </trkpt>
      <trkpt lat="42.72891" lon="-2.42898">
        <ele>610.8</ele>
        <time>2021-07-25 13:55:10</time>
      </trkpt>
      <trkpt lat="42.72891" lon="-2.42898">
        <ele>610.8</ele>
        <time>2021-07-25 13:55:14</time>
      </trkpt>
      <trkpt lat="42.72891" lon="-2.42898">
        <ele>611</ele>
        <time>2021-07-25 13:55:18</time>
      </trkpt>
      <trkpt lat="42.72891" lon="-2.42898">
        <ele>610.6</ele>
        <time>2021-07-25 13:55:22</time>
      </trkpt>
      <trkpt lat="42.72891" lon="-2.42898">
        <ele>610.6</ele>
        <time>2021-07-25 13:55:26</time>
      </trkpt>
      <trkpt lat="42.72891" lon="-2.42898">
        <ele>610.4</ele>
        <time>2021-07-25 13:55:30</time>
      </trkpt>
      <trkpt lat="42.72891" lon="-2.42898">
        <ele>610.2</ele>
        <time>2021-07-25 13:55:34</time>
      </trkpt>
      <trkpt lat="42.72891" lon="-2.42898">
        <ele>610.6</ele>
        <time>2021-07-25 13:55:38</time>
      </trkpt>
      <trkpt lat="42.72891" lon="-2.42898">
        <ele>610.8</ele>
        <time>2021-07-25 13:55:42</time>
      </trkpt>
      <trkpt lat="42.72891" lon="-2.42898">
        <ele>610.4</ele>
        <time>2021-07-25 13:55:46</time>
      </trkpt>
      <trkpt lat="42.72891" lon="-2.42898">
        <ele>610.4</ele>
        <time>2021-07-25 13:55:50</time>
      </trkpt>
      <trkpt lat="42.72891" lon="-2.42898">
        <ele>610.6</ele>
        <time>2021-07-25 13:55:54</time>
      </trkpt>
      <trkpt lat="42.72891" lon="-2.42898">
        <ele>610.4</ele>
        <time>2021-07-25 13:55:58</time>
      </trkpt>
      <trkpt lat="42.72891" lon="-2.42898">
        <ele>610.8</ele>
        <time>2021-07-25 13:56:02</time>
      </trkpt>
      <trkpt lat="42.72891" lon="-2.42898">
        <ele>610.4</ele>
        <time>2021-07-25 13:56:06</time>
      </trkpt>
      <trkpt lat="42.72891" lon="-2.42898">
        <ele>610.6</ele>
        <time>2021-07-25 13:56:10</time>
      </trkpt>
      <trkpt lat="42.72891" lon="-2.42898">
        <ele>610.2</ele>
        <time>2021-07-25 13:56:14</time>
      </trkpt>
      <trkpt lat="42.72891" lon="-2.42898">
        <ele>610.2</ele>
        <time>2021-07-25 13:56:18</time>
      </trkpt>
      <trkpt lat="42.72891" lon="-2.42898">
        <ele>610.2</ele>
        <time>2021-07-25 13:56:22</time>
      </trkpt>
      <trkpt lat="42.72891" lon="-2.42898">
        <ele>610.2</ele>
        <time>2021-07-25 13:56:26</time>
      </trkpt>
      <trkpt lat="42.72891" lon="-2.42898">
        <ele>610.2</ele>
        <time>2021-07-25 13:56:30</time>
      </trkpt>
      <trkpt lat="42.72891" lon="-2.42898">
        <ele>610.4</ele>
        <time>2021-07-25 13:56:34</time>
      </trkpt>
      <trkpt lat="42.72891" lon="-2.42898">
        <ele>610.6</ele>
        <time>2021-07-25 13:56:38</time>
      </trkpt>
      <trkpt lat="42.72891" lon="-2.42898">
        <ele>610.4</ele>
        <time>2021-07-25 13:56:42</time>
      </trkpt>
      <trkpt lat="42.72891" lon="-2.42898">
        <ele>610.4</ele>
        <time>2021-07-25 13:56:46</time>
      </trkpt>
      <trkpt lat="42.72891" lon="-2.42898">
        <ele>610.8</ele>
        <time>2021-07-25 13:56:50</time>
      </trkpt>
      <trkpt lat="42.72891" lon="-2.42898">
        <ele>610.6</ele>
        <time>2021-07-25 13:56:54</time>
      </trkpt>
      <trkpt lat="42.72891" lon="-2.42898">
        <ele>610.8</ele>
        <time>2021-07-25 13:56:58</time>
      </trkpt>
      <trkpt lat="42.72891" lon="-2.42898">
        <ele>610.8</ele>
        <time>2021-07-25 13:57:02</time>
      </trkpt>
      <trkpt lat="42.72891" lon="-2.42898">
        <ele>610.8</ele>
        <time>2021-07-25 13:57:06</time>
      </trkpt>
      <trkpt lat="42.72891" lon="-2.42898">
        <ele>610.8</ele>
        <time>2021-07-25 13:57:10</time>
      </trkpt>
      <trkpt lat="42.72891" lon="-2.42898">
        <ele>610.6</ele>
        <time>2021-07-25 13:57:14</time>
      </trkpt>
      <trkpt lat="42.72891" lon="-2.42898">
        <ele>611</ele>
        <time>2021-07-25 13:57:18</time>
      </trkpt>
      <trkpt lat="42.72891" lon="-2.42898">
        <ele>611.4</ele>
        <time>2021-07-25 13:57:22</time>
      </trkpt>
      <trkpt lat="42.72891" lon="-2.42898">
        <ele>611.2</ele>
        <time>2021-07-25 13:57:26</time>
      </trkpt>
      <trkpt lat="42.72891" lon="-2.42898">
        <ele>611.4</ele>
        <time>2021-07-25 13:57:30</time>
      </trkpt>
      <trkpt lat="42.72891" lon="-2.42898">
        <ele>611.4</ele>
        <time>2021-07-25 13:57:34</time>
      </trkpt>
      <trkpt lat="42.72891" lon="-2.42898">
        <ele>611.2</ele>
        <time>2021-07-25 13:57:38</time>
      </trkpt>
      <trkpt lat="42.72891" lon="-2.42898">
        <ele>611.2</ele>
        <time>2021-07-25 13:57:42</time>
      </trkpt>
      <trkpt lat="42.72891" lon="-2.42898">
        <ele>611.4</ele>
        <time>2021-07-25 13:57:46</time>
      </trkpt>
      <trkpt lat="42.72891" lon="-2.42898">
        <ele>611.2</ele>
        <time>2021-07-25 13:57:50</time>
      </trkpt>
      <trkpt lat="42.72891" lon="-2.42898">
        <ele>611.4</ele>
        <time>2021-07-25 13:57:54</time>
      </trkpt>
      <trkpt lat="42.72891" lon="-2.42898">
        <ele>611.2</ele>
        <time>2021-07-25 13:57:58</time>
      </trkpt>
      <trkpt lat="42.72891" lon="-2.42898">
        <ele>611.2</ele>
        <time>2021-07-25 13:58:02</time>
      </trkpt>
      <trkpt lat="42.72891" lon="-2.42898">
        <ele>611.2</ele>
        <time>2021-07-25 13:58:06</time>
      </trkpt>
      <trkpt lat="42.72891" lon="-2.42898">
        <ele>611.2</ele>
        <time>2021-07-25 13:58:10</time>
      </trkpt>
      <trkpt lat="42.72891" lon="-2.42898">
        <ele>611.2</ele>
        <time>2021-07-25 13:58:14</time>
      </trkpt>
      <trkpt lat="42.72891" lon="-2.42898">
        <ele>610.8</ele>
        <time>2021-07-25 13:58:18</time>
      </trkpt>
      <trkpt lat="42.72891" lon="-2.42898">
        <ele>610.8</ele>
        <time>2021-07-25 13:58:22</time>
      </trkpt>
      <trkpt lat="42.72891" lon="-2.42898">
        <ele>610.8</ele>
        <time>2021-07-25 13:58:26</time>
      </trkpt>
      <trkpt lat="42.72891" lon="-2.42898">
        <ele>610.6</ele>
        <time>2021-07-25 13:58:30</time>
      </trkpt>
      <trkpt lat="42.72891" lon="-2.42898">
        <ele>610.8</ele>
        <time>2021-07-25 13:58:34</time>
      </trkpt>
      <trkpt lat="42.72891" lon="-2.42898">
        <ele>610.6</ele>
        <time>2021-07-25 13:58:38</time>
      </trkpt>
      <trkpt lat="42.72891" lon="-2.42898">
        <ele>610.6</ele>
        <time>2021-07-25 13:58:42</time>
      </trkpt>
      <trkpt lat="42.72891" lon="-2.42898">
        <ele>610.6</ele>
        <time>2021-07-25 13:58:46</time>
      </trkpt>
      <trkpt lat="42.72891" lon="-2.42898">
        <ele>610.6</ele>
        <time>2021-07-25 13:58:50</time>
      </trkpt>
      <trkpt lat="42.72891" lon="-2.42898">
        <ele>610.8</ele>
        <time>2021-07-25 13:58:54</time>
      </trkpt>
      <trkpt lat="42.72891" lon="-2.42898">
        <ele>610.8</ele>
        <time>2021-07-25 13:58:58</time>
      </trkpt>
      <trkpt lat="42.72891" lon="-2.42898">
        <ele>611</ele>
        <time>2021-07-25 13:59:02</time>
      </trkpt>
      <trkpt lat="42.72891" lon="-2.42898">
        <ele>610.8</ele>
        <time>2021-07-25 13:59:06</time>
      </trkpt>
      <trkpt lat="42.72891" lon="-2.42898">
        <ele>610.8</ele>
        <time>2021-07-25 13:59:10</time>
      </trkpt>
      <trkpt lat="42.72891" lon="-2.42898">
        <ele>611</ele>
        <time>2021-07-25 13:59:14</time>
      </trkpt>
      <trkpt lat="42.72891" lon="-2.42898">
        <ele>610.6</ele>
        <time>2021-07-25 13:59:18</time>
      </trkpt>
      <trkpt lat="42.72891" lon="-2.42898">
        <ele>611.2</ele>
        <time>2021-07-25 13:59:22</time>
      </trkpt>
      <trkpt lat="42.72891" lon="-2.42898">
        <ele>610.8</ele>
        <time>2021-07-25 13:59:26</time>
      </trkpt>
      <trkpt lat="42.72891" lon="-2.42898">
        <ele>611</ele>
        <time>2021-07-25 13:59:30</time>
      </trkpt>
      <trkpt lat="42.72891" lon="-2.42898">
        <ele>611</ele>
        <time>2021-07-25 13:59:34</time>
      </trkpt>
      <trkpt lat="42.72891" lon="-2.42898">
        <ele>611</ele>
        <time>2021-07-25 13:59:38</time>
      </trkpt>
      <trkpt lat="42.72891" lon="-2.42898">
        <ele>610.8</ele>
        <time>2021-07-25 13:59:42</time>
      </trkpt>
      <trkpt lat="42.72891" lon="-2.42898">
        <ele>611</ele>
        <time>2021-07-25 13:59:46</time>
      </trkpt>
      <trkpt lat="42.72891" lon="-2.42898">
        <ele>611</ele>
        <time>2021-07-25 13:59:50</time>
      </trkpt>
      <trkpt lat="42.72891" lon="-2.42898">
        <ele>611.2</ele>
        <time>2021-07-25 13:59:54</time>
      </trkpt>
      <trkpt lat="42.72891" lon="-2.42898">
        <ele>611.4</ele>
        <time>2021-07-25 13:59:58</time>
      </trkpt>
      <trkpt lat="42.72891" lon="-2.42898">
        <ele>611</ele>
        <time>2021-07-25 14:00:02</time>
      </trkpt>
      <trkpt lat="42.72891" lon="-2.42898">
        <ele>611.2</ele>
        <time>2021-07-25 14:00:06</time>
      </trkpt>
      <trkpt lat="42.72891" lon="-2.42898">
        <ele>611.2</ele>
        <time>2021-07-25 14:00:10</time>
      </trkpt>
      <trkpt lat="42.72891" lon="-2.42898">
        <ele>611</ele>
        <time>2021-07-25 14:00:14</time>
      </trkpt>
      <trkpt lat="42.72891" lon="-2.42898">
        <ele>611</ele>
        <time>2021-07-25 14:00:18</time>
      </trkpt>
      <trkpt lat="42.72891" lon="-2.42898">
        <ele>611</ele>
        <time>2021-07-25 14:00:22</time>
      </trkpt>
      <trkpt lat="42.72891" lon="-2.42898">
        <ele>611</ele>
        <time>2021-07-25 14:00:26</time>
      </trkpt>
      <trkpt lat="42.72891" lon="-2.42898">
        <ele>611</ele>
        <time>2021-07-25 14:00:30</time>
      </trkpt>
      <trkpt lat="42.72891" lon="-2.42898">
        <ele>611</ele>
        <time>2021-07-25 14:00:34</time>
      </trkpt>
      <trkpt lat="42.72891" lon="-2.42898">
        <ele>611</ele>
        <time>2021-07-25 14:00:38</time>
      </trkpt>
      <trkpt lat="42.72891" lon="-2.42898">
        <ele>610.8</ele>
        <time>2021-07-25 14:00:42</time>
      </trkpt>
      <trkpt lat="42.72891" lon="-2.42898">
        <ele>611.4</ele>
        <time>2021-07-25 14:00:46</time>
      </trkpt>
      <trkpt lat="42.72891" lon="-2.42898">
        <ele>611.6</ele>
        <time>2021-07-25 14:00:50</time>
      </trkpt>
      <trkpt lat="42.72891" lon="-2.42898">
        <ele>611.6</ele>
        <time>2021-07-25 14:00:54</time>
      </trkpt>
      <trkpt lat="42.72891" lon="-2.42898">
        <ele>611.4</ele>
        <time>2021-07-25 14:00:58</time>
      </trkpt>
      <trkpt lat="42.72891" lon="-2.42898">
        <ele>611.6</ele>
        <time>2021-07-25 14:01:02</time>
      </trkpt>
      <trkpt lat="42.72891" lon="-2.42898">
        <ele>611.6</ele>
        <time>2021-07-25 14:01:06</time>
      </trkpt>
      <trkpt lat="42.72891" lon="-2.42898">
        <ele>611.4</ele>
        <time>2021-07-25 14:01:10</time>
      </trkpt>
      <trkpt lat="42.72891" lon="-2.42898">
        <ele>611.4</ele>
        <time>2021-07-25 14:01:14</time>
      </trkpt>
      <trkpt lat="42.72891" lon="-2.42898">
        <ele>611.6</ele>
        <time>2021-07-25 14:01:18</time>
      </trkpt>
      <trkpt lat="42.72891" lon="-2.42898">
        <ele>611.6</ele>
        <time>2021-07-25 14:01:22</time>
      </trkpt>
      <trkpt lat="42.72891" lon="-2.42898">
        <ele>611.4</ele>
        <time>2021-07-25 14:01:26</time>
      </trkpt>
      <trkpt lat="42.72891" lon="-2.42898">
        <ele>611.6</ele>
        <time>2021-07-25 14:01:30</time>
      </trkpt>
      <trkpt lat="42.72891" lon="-2.42898">
        <ele>611.4</ele>
        <time>2021-07-25 14:01:34</time>
      </trkpt>
      <trkpt lat="42.72891" lon="-2.42898">
        <ele>611.6</ele>
        <time>2021-07-25 14:01:38</time>
      </trkpt>
      <trkpt lat="42.72891" lon="-2.42898">
        <ele>611</ele>
        <time>2021-07-25 14:01:42</time>
      </trkpt>
      <trkpt lat="42.72891" lon="-2.42898">
        <ele>611.2</ele>
        <time>2021-07-25 14:01:46</time>
      </trkpt>
      <trkpt lat="42.72891" lon="-2.42898">
        <ele>611.2</ele>
        <time>2021-07-25 14:01:50</time>
      </trkpt>
      <trkpt lat="42.72891" lon="-2.42898">
        <ele>611.2</ele>
        <time>2021-07-25 14:01:54</time>
      </trkpt>
      <trkpt lat="42.72891" lon="-2.42898">
        <ele>611.6</ele>
        <time>2021-07-25 14:01:58</time>
      </trkpt>
      <trkpt lat="42.72891" lon="-2.42898">
        <ele>611.6</ele>
        <time>2021-07-25 14:02:02</time>
      </trkpt>
      <trkpt lat="42.72891" lon="-2.42898">
        <ele>611.4</ele>
        <time>2021-07-25 14:02:06</time>
      </trkpt>
      <trkpt lat="42.72891" lon="-2.42898">
        <ele>611.2</ele>
        <time>2021-07-25 14:02:10</time>
      </trkpt>
      <trkpt lat="42.72891" lon="-2.42898">
        <ele>611.2</ele>
        <time>2021-07-25 14:02:14</time>
      </trkpt>
      <trkpt lat="42.72891" lon="-2.42898">
        <ele>611.2</ele>
        <time>2021-07-25 14:02:18</time>
      </trkpt>
      <trkpt lat="42.72891" lon="-2.42898">
        <ele>611</ele>
        <time>2021-07-25 14:02:22</time>
      </trkpt>
      <trkpt lat="42.72891" lon="-2.42898">
        <ele>611</ele>
        <time>2021-07-25 14:02:26</time>
      </trkpt>
      <trkpt lat="42.72891" lon="-2.42898">
        <ele>611.2</ele>
        <time>2021-07-25 14:02:30</time>
      </trkpt>
      <trkpt lat="42.72891" lon="-2.42898">
        <ele>611</ele>
        <time>2021-07-25 14:02:34</time>
      </trkpt>
      <trkpt lat="42.72891" lon="-2.42898">
        <ele>611</ele>
        <time>2021-07-25 14:02:38</time>
      </trkpt>
      <trkpt lat="42.72891" lon="-2.42898">
        <ele>611</ele>
        <time>2021-07-25 14:02:42</time>
      </trkpt>
      <trkpt lat="42.72891" lon="-2.42898">
        <ele>611.2</ele>
        <time>2021-07-25 14:02:46</time>
      </trkpt>
      <trkpt lat="42.72891" lon="-2.42898">
        <ele>611</ele>
        <time>2021-07-25 14:02:50</time>
      </trkpt>
      <trkpt lat="42.72891" lon="-2.42898">
        <ele>611.2</ele>
        <time>2021-07-25 14:02:54</time>
      </trkpt>
      <trkpt lat="42.72891" lon="-2.42898">
        <ele>611.2</ele>
        <time>2021-07-25 14:02:58</time>
      </trkpt>
      <trkpt lat="42.72891" lon="-2.42898">
        <ele>611.6</ele>
        <time>2021-07-25 14:03:02</time>
      </trkpt>
      <trkpt lat="42.72891" lon="-2.42898">
        <ele>611.2</ele>
        <time>2021-07-25 14:03:06</time>
      </trkpt>
      <trkpt lat="42.72891" lon="-2.42898">
        <ele>611.4</ele>
        <time>2021-07-25 14:03:10</time>
      </trkpt>
      <trkpt lat="42.72891" lon="-2.42898">
        <ele>611</ele>
        <time>2021-07-25 14:03:14</time>
      </trkpt>
      <trkpt lat="42.72891" lon="-2.42898">
        <ele>611.4</ele>
        <time>2021-07-25 14:03:18</time>
      </trkpt>
      <trkpt lat="42.72891" lon="-2.42898">
        <ele>611.4</ele>
        <time>2021-07-25 14:03:22</time>
      </trkpt>
      <trkpt lat="42.72891" lon="-2.42898">
        <ele>611.4</ele>
        <time>2021-07-25 14:03:26</time>
      </trkpt>
      <trkpt lat="42.72891" lon="-2.42898">
        <ele>611.2</ele>
        <time>2021-07-25 14:03:30</time>
      </trkpt>
      <trkpt lat="42.72891" lon="-2.42898">
        <ele>611.2</ele>
        <time>2021-07-25 14:03:34</time>
      </trkpt>
      <trkpt lat="42.72891" lon="-2.42898">
        <ele>611.6</ele>
        <time>2021-07-25 14:03:38</time>
      </trkpt>
      <trkpt lat="42.72891" lon="-2.42898">
        <ele>611.6</ele>
        <time>2021-07-25 14:03:42</time>
      </trkpt>
      <trkpt lat="42.72891" lon="-2.42898">
        <ele>611</ele>
        <time>2021-07-25 14:03:46</time>
      </trkpt>
      <trkpt lat="42.72891" lon="-2.42898">
        <ele>611.4</ele>
        <time>2021-07-25 14:03:50</time>
      </trkpt>
      <trkpt lat="42.72891" lon="-2.42898">
        <ele>611.2</ele>
        <time>2021-07-25 14:03:54</time>
      </trkpt>
      <trkpt lat="42.72891" lon="-2.42898">
        <ele>611.2</ele>
        <time>2021-07-25 14:03:58</time>
      </trkpt>
      <trkpt lat="42.72891" lon="-2.42898">
        <ele>611.2</ele>
        <time>2021-07-25 14:04:02</time>
      </trkpt>
      <trkpt lat="42.72891" lon="-2.42898">
        <ele>611.6</ele>
        <time>2021-07-25 14:04:06</time>
      </trkpt>
      <trkpt lat="42.72891" lon="-2.42898">
        <ele>611.8</ele>
        <time>2021-07-25 14:04:10</time>
      </trkpt>
      <trkpt lat="42.72891" lon="-2.42898">
        <ele>611.4</ele>
        <time>2021-07-25 14:04:14</time>
      </trkpt>
      <trkpt lat="42.72891" lon="-2.42898">
        <ele>611.6</ele>
        <time>2021-07-25 14:04:18</time>
      </trkpt>
      <trkpt lat="42.72891" lon="-2.42898">
        <ele>611.4</ele>
        <time>2021-07-25 14:04:22</time>
      </trkpt>
      <trkpt lat="42.72891" lon="-2.42898">
        <ele>611.4</ele>
        <time>2021-07-25 14:04:26</time>
      </trkpt>
      <trkpt lat="42.72891" lon="-2.42898">
        <ele>611.4</ele>
        <time>2021-07-25 14:04:30</time>
      </trkpt>
      <trkpt lat="42.72891" lon="-2.42898">
        <ele>611.6</ele>
        <time>2021-07-25 14:04:34</time>
      </trkpt>
      <trkpt lat="42.72891" lon="-2.42898">
        <ele>611.6</ele>
        <time>2021-07-25 14:04:38</time>
      </trkpt>
      <trkpt lat="42.72891" lon="-2.42898">
        <ele>611.4</ele>
        <time>2021-07-25 14:04:42</time>
      </trkpt>
      <trkpt lat="42.72891" lon="-2.42898">
        <ele>611.8</ele>
        <time>2021-07-25 14:04:46</time>
      </trkpt>
      <trkpt lat="42.72891" lon="-2.42898">
        <ele>611.8</ele>
        <time>2021-07-25 14:04:50</time>
      </trkpt>
      <trkpt lat="42.72891" lon="-2.42898">
        <ele>611.6</ele>
        <time>2021-07-25 14:04:54</time>
      </trkpt>
      <trkpt lat="42.72891" lon="-2.42898">
        <ele>611.6</ele>
        <time>2021-07-25 14:04:58</time>
      </trkpt>
      <trkpt lat="42.72891" lon="-2.42898">
        <ele>611.8</ele>
        <time>2021-07-25 14:05:02</time>
      </trkpt>
      <trkpt lat="42.72891" lon="-2.42898">
        <ele>612</ele>
        <time>2021-07-25 14:05:06</time>
      </trkpt>
      <trkpt lat="42.72891" lon="-2.42898">
        <ele>611.8</ele>
        <time>2021-07-25 14:05:10</time>
      </trkpt>
      <trkpt lat="42.72891" lon="-2.42898">
        <ele>612</ele>
        <time>2021-07-25 14:05:14</time>
      </trkpt>
      <trkpt lat="42.72891" lon="-2.42898">
        <ele>612.2</ele>
        <time>2021-07-25 14:05:18</time>
      </trkpt>
      <trkpt lat="42.72891" lon="-2.42898">
        <ele>612</ele>
        <time>2021-07-25 14:05:22</time>
      </trkpt>
      <trkpt lat="42.72891" lon="-2.42898">
        <ele>611.8</ele>
        <time>2021-07-25 14:05:26</time>
      </trkpt>
      <trkpt lat="42.72891" lon="-2.42898">
        <ele>611.8</ele>
        <time>2021-07-25 14:05:30</time>
      </trkpt>
      <trkpt lat="42.72891" lon="-2.42898">
        <ele>612</ele>
        <time>2021-07-25 14:05:34</time>
      </trkpt>
      <trkpt lat="42.72891" lon="-2.42898">
        <ele>611.8</ele>
        <time>2021-07-25 14:05:38</time>
      </trkpt>
      <trkpt lat="42.72891" lon="-2.42898">
        <ele>611.8</ele>
        <time>2021-07-25 14:05:42</time>
      </trkpt>
      <trkpt lat="42.72891" lon="-2.42898">
        <ele>611.4</ele>
        <time>2021-07-25 14:05:46</time>
      </trkpt>
      <trkpt lat="42.72891" lon="-2.42898">
        <ele>611.6</ele>
        <time>2021-07-25 14:05:50</time>
      </trkpt>
      <trkpt lat="42.72891" lon="-2.42898">
        <ele>611.4</ele>
        <time>2021-07-25 14:05:54</time>
      </trkpt>
      <trkpt lat="42.72891" lon="-2.42898">
        <ele>611.8</ele>
        <time>2021-07-25 14:05:58</time>
      </trkpt>
      <trkpt lat="42.72891" lon="-2.42898">
        <ele>611.6</ele>
        <time>2021-07-25 14:06:02</time>
      </trkpt>
      <trkpt lat="42.72891" lon="-2.42898">
        <ele>611.6</ele>
        <time>2021-07-25 14:06:06</time>
      </trkpt>
      <trkpt lat="42.72891" lon="-2.42898">
        <ele>611.6</ele>
        <time>2021-07-25 14:06:10</time>
      </trkpt>
      <trkpt lat="42.72891" lon="-2.42898">
        <ele>611.6</ele>
        <time>2021-07-25 14:06:14</time>
      </trkpt>
      <trkpt lat="42.72891" lon="-2.42898">
        <ele>611.6</ele>
        <time>2021-07-25 14:06:18</time>
      </trkpt>
      <trkpt lat="42.72891" lon="-2.42898">
        <ele>611.6</ele>
        <time>2021-07-25 14:06:22</time>
      </trkpt>
      <trkpt lat="42.72891" lon="-2.42898">
        <ele>611.6</ele>
        <time>2021-07-25 14:06:26</time>
      </trkpt>
      <trkpt lat="42.72891" lon="-2.42898">
        <ele>611.6</ele>
        <time>2021-07-25 14:06:30</time>
      </trkpt>
      <trkpt lat="42.72891" lon="-2.42898">
        <ele>611.6</ele>
        <time>2021-07-25 14:06:34</time>
      </trkpt>
      <trkpt lat="42.72891" lon="-2.42898">
        <ele>611.4</ele>
        <time>2021-07-25 14:06:38</time>
      </trkpt>
      <trkpt lat="42.72891" lon="-2.42898">
        <ele>611.6</ele>
        <time>2021-07-25 14:06:42</time>
      </trkpt>
      <trkpt lat="42.72891" lon="-2.42898">
        <ele>611.4</ele>
        <time>2021-07-25 14:06:46</time>
      </trkpt>
      <trkpt lat="42.72891" lon="-2.42898">
        <ele>611</ele>
        <time>2021-07-25 14:06:50</time>
      </trkpt>
      <trkpt lat="42.72891" lon="-2.42898">
        <ele>611.2</ele>
        <time>2021-07-25 14:06:54</time>
      </trkpt>
      <trkpt lat="42.72891" lon="-2.42898">
        <ele>611.2</ele>
        <time>2021-07-25 14:06:58</time>
      </trkpt>
      <trkpt lat="42.72891" lon="-2.42898">
        <ele>611.2</ele>
        <time>2021-07-25 14:07:02</time>
      </trkpt>
      <trkpt lat="42.72891" lon="-2.42898">
        <ele>611</ele>
        <time>2021-07-25 14:07:06</time>
      </trkpt>
      <trkpt lat="42.72891" lon="-2.42898">
        <ele>611.2</ele>
        <time>2021-07-25 14:07:10</time>
      </trkpt>
      <trkpt lat="42.72891" lon="-2.42898">
        <ele>610.8</ele>
        <time>2021-07-25 14:07:14</time>
      </trkpt>
      <trkpt lat="42.72891" lon="-2.42898">
        <ele>611.2</ele>
        <time>2021-07-25 14:07:18</time>
      </trkpt>
      <trkpt lat="42.72891" lon="-2.42898">
        <ele>611</ele>
        <time>2021-07-25 14:07:22</time>
      </trkpt>
      <trkpt lat="42.72891" lon="-2.42898">
        <ele>611</ele>
        <time>2021-07-25 14:07:26</time>
      </trkpt>
      <trkpt lat="42.72891" lon="-2.42898">
        <ele>611.2</ele>
        <time>2021-07-25 14:07:30</time>
      </trkpt>
      <trkpt lat="42.72891" lon="-2.42898">
        <ele>611.2</ele>
        <time>2021-07-25 14:07:34</time>
      </trkpt>
      <trkpt lat="42.72891" lon="-2.42898">
        <ele>611</ele>
        <time>2021-07-25 14:07:38</time>
      </trkpt>
      <trkpt lat="42.72891" lon="-2.42898">
        <ele>611.6</ele>
        <time>2021-07-25 14:07:42</time>
      </trkpt>
      <trkpt lat="42.72891" lon="-2.42898">
        <ele>611.4</ele>
        <time>2021-07-25 14:07:46</time>
      </trkpt>
      <trkpt lat="42.72891" lon="-2.42898">
        <ele>611.2</ele>
        <time>2021-07-25 14:07:50</time>
      </trkpt>
      <trkpt lat="42.72891" lon="-2.42898">
        <ele>611.2</ele>
        <time>2021-07-25 14:07:54</time>
      </trkpt>
      <trkpt lat="42.72891" lon="-2.42898">
        <ele>611</ele>
        <time>2021-07-25 14:07:58</time>
      </trkpt>
      <trkpt lat="42.72891" lon="-2.42898">
        <ele>611</ele>
        <time>2021-07-25 14:08:02</time>
      </trkpt>
      <trkpt lat="42.72891" lon="-2.42898">
        <ele>611.2</ele>
        <time>2021-07-25 14:08:06</time>
      </trkpt>
      <trkpt lat="42.72891" lon="-2.42898">
        <ele>611.2</ele>
        <time>2021-07-25 14:08:10</time>
      </trkpt>
      <trkpt lat="42.72891" lon="-2.42898">
        <ele>611.2</ele>
        <time>2021-07-25 14:08:14</time>
      </trkpt>
      <trkpt lat="42.72891" lon="-2.42898">
        <ele>611.2</ele>
        <time>2021-07-25 14:08:18</time>
      </trkpt>
      <trkpt lat="42.72891" lon="-2.42898">
        <ele>610.8</ele>
        <time>2021-07-25 14:08:22</time>
      </trkpt>
      <trkpt lat="42.72891" lon="-2.42898">
        <ele>611.2</ele>
        <time>2021-07-25 14:08:26</time>
      </trkpt>
      <trkpt lat="42.72891" lon="-2.42898">
        <ele>611</ele>
        <time>2021-07-25 14:08:30</time>
      </trkpt>
      <trkpt lat="42.72891" lon="-2.42898">
        <ele>610.8</ele>
        <time>2021-07-25 14:08:34</time>
      </trkpt>
      <trkpt lat="42.72891" lon="-2.42898">
        <ele>611.4</ele>
        <time>2021-07-25 14:08:38</time>
      </trkpt>
      <trkpt lat="42.72891" lon="-2.42898">
        <ele>611.2</ele>
        <time>2021-07-25 14:08:42</time>
      </trkpt>
      <trkpt lat="42.72891" lon="-2.42898">
        <ele>611.2</ele>
        <time>2021-07-25 14:08:46</time>
      </trkpt>
      <trkpt lat="42.72891" lon="-2.42898">
        <ele>610.6</ele>
        <time>2021-07-25 14:08:50</time>
      </trkpt>
      <trkpt lat="42.72891" lon="-2.42898">
        <ele>611</ele>
        <time>2021-07-25 14:08:54</time>
      </trkpt>
      <trkpt lat="42.72891" lon="-2.42898">
        <ele>611</ele>
        <time>2021-07-25 14:08:58</time>
      </trkpt>
      <trkpt lat="42.72891" lon="-2.42898">
        <ele>610.8</ele>
        <time>2021-07-25 14:09:02</time>
      </trkpt>
      <trkpt lat="42.72891" lon="-2.42898">
        <ele>611</ele>
        <time>2021-07-25 14:09:06</time>
      </trkpt>
      <trkpt lat="42.72891" lon="-2.42898">
        <ele>610.8</ele>
        <time>2021-07-25 14:09:10</time>
      </trkpt>
      <trkpt lat="42.72891" lon="-2.42898">
        <ele>611</ele>
        <time>2021-07-25 14:09:14</time>
      </trkpt>
      <trkpt lat="42.72891" lon="-2.42898">
        <ele>611.2</ele>
        <time>2021-07-25 14:09:18</time>
      </trkpt>
      <trkpt lat="42.72891" lon="-2.42898">
        <ele>611</ele>
        <time>2021-07-25 14:09:22</time>
      </trkpt>
      <trkpt lat="42.72891" lon="-2.42898">
        <ele>611.4</ele>
        <time>2021-07-25 14:09:26</time>
      </trkpt>
      <trkpt lat="42.72891" lon="-2.42898">
        <ele>611.2</ele>
        <time>2021-07-25 14:09:30</time>
      </trkpt>
      <trkpt lat="42.72891" lon="-2.42898">
        <ele>611.2</ele>
        <time>2021-07-25 14:09:34</time>
      </trkpt>
      <trkpt lat="42.72891" lon="-2.42898">
        <ele>611</ele>
        <time>2021-07-25 14:09:38</time>
      </trkpt>
      <trkpt lat="42.72891" lon="-2.42898">
        <ele>611.4</ele>
        <time>2021-07-25 14:09:42</time>
      </trkpt>
      <trkpt lat="42.72891" lon="-2.42898">
        <ele>611.2</ele>
        <time>2021-07-25 14:09:46</time>
      </trkpt>
      <trkpt lat="42.72891" lon="-2.42898">
        <ele>611.2</ele>
        <time>2021-07-25 14:09:50</time>
      </trkpt>
      <trkpt lat="42.72891" lon="-2.42898">
        <ele>611.2</ele>
        <time>2021-07-25 14:09:54</time>
      </trkpt>
      <trkpt lat="42.72891" lon="-2.42898">
        <ele>611.2</ele>
        <time>2021-07-25 14:09:58</time>
      </trkpt>
      <trkpt lat="42.72891" lon="-2.42898">
        <ele>611.4</ele>
        <time>2021-07-25 14:10:02</time>
      </trkpt>
      <trkpt lat="42.72891" lon="-2.42898">
        <ele>611</ele>
        <time>2021-07-25 14:10:06</time>
      </trkpt>
      <trkpt lat="42.72891" lon="-2.42898">
        <ele>611</ele>
        <time>2021-07-25 14:10:10</time>
      </trkpt>
      <trkpt lat="42.72891" lon="-2.42898">
        <ele>610.8</ele>
        <time>2021-07-25 14:10:14</time>
      </trkpt>
      <trkpt lat="42.72891" lon="-2.42898">
        <ele>611.2</ele>
        <time>2021-07-25 14:10:18</time>
      </trkpt>
      <trkpt lat="42.72891" lon="-2.42898">
        <ele>611.2</ele>
        <time>2021-07-25 14:10:22</time>
      </trkpt>
      <trkpt lat="42.72891" lon="-2.42898">
        <ele>611.2</ele>
        <time>2021-07-25 14:10:26</time>
      </trkpt>
      <trkpt lat="42.72891" lon="-2.42898">
        <ele>611.2</ele>
        <time>2021-07-25 14:10:30</time>
      </trkpt>
      <trkpt lat="42.72891" lon="-2.42898">
        <ele>611</ele>
        <time>2021-07-25 14:10:34</time>
      </trkpt>
      <trkpt lat="42.72891" lon="-2.42898">
        <ele>611</ele>
        <time>2021-07-25 14:10:38</time>
      </trkpt>
      <trkpt lat="42.72891" lon="-2.42898">
        <ele>611.4</ele>
        <time>2021-07-25 14:10:42</time>
      </trkpt>
      <trkpt lat="42.72891" lon="-2.42898">
        <ele>611</ele>
        <time>2021-07-25 14:10:46</time>
      </trkpt>
      <trkpt lat="42.72891" lon="-2.42898">
        <ele>611.2</ele>
        <time>2021-07-25 14:10:50</time>
      </trkpt>
      <trkpt lat="42.72891" lon="-2.42898">
        <ele>611.4</ele>
        <time>2021-07-25 14:10:54</time>
      </trkpt>
      <trkpt lat="42.72891" lon="-2.42898">
        <ele>611.2</ele>
        <time>2021-07-25 14:10:58</time>
      </trkpt>
      <trkpt lat="42.72891" lon="-2.42898">
        <ele>611.8</ele>
        <time>2021-07-25 14:11:02</time>
      </trkpt>
      <trkpt lat="42.72891" lon="-2.42898">
        <ele>611.4</ele>
        <time>2021-07-25 14:11:06</time>
      </trkpt>
      <trkpt lat="42.72891" lon="-2.42898">
        <ele>611.6</ele>
        <time>2021-07-25 14:11:10</time>
      </trkpt>
      <trkpt lat="42.72891" lon="-2.42898">
        <ele>611.6</ele>
        <time>2021-07-25 14:11:14</time>
      </trkpt>
      <trkpt lat="42.72891" lon="-2.42898">
        <ele>611.6</ele>
        <time>2021-07-25 14:11:18</time>
      </trkpt>
      <trkpt lat="42.72891" lon="-2.42898">
        <ele>611.8</ele>
        <time>2021-07-25 14:11:22</time>
      </trkpt>
      <trkpt lat="42.72891" lon="-2.42898">
        <ele>611.4</ele>
        <time>2021-07-25 14:11:26</time>
      </trkpt>
      <trkpt lat="42.72891" lon="-2.42898">
        <ele>611.4</ele>
        <time>2021-07-25 14:11:30</time>
      </trkpt>
      <trkpt lat="42.72891" lon="-2.42898">
        <ele>612</ele>
        <time>2021-07-25 14:11:34</time>
      </trkpt>
      <trkpt lat="42.72891" lon="-2.42898">
        <ele>611.8</ele>
        <time>2021-07-25 14:11:38</time>
      </trkpt>
      <trkpt lat="42.72891" lon="-2.42898">
        <ele>612.2</ele>
        <time>2021-07-25 14:11:42</time>
      </trkpt>
      <trkpt lat="42.72891" lon="-2.42898">
        <ele>612</ele>
        <time>2021-07-25 14:11:46</time>
      </trkpt>
      <trkpt lat="42.72891" lon="-2.42898">
        <ele>612.2</ele>
        <time>2021-07-25 14:11:50</time>
      </trkpt>
      <trkpt lat="42.72891" lon="-2.42898">
        <ele>612</ele>
        <time>2021-07-25 14:11:54</time>
      </trkpt>
      <trkpt lat="42.72891" lon="-2.42898">
        <ele>612</ele>
        <time>2021-07-25 14:11:58</time>
      </trkpt>
      <trkpt lat="42.72891" lon="-2.42898">
        <ele>612</ele>
        <time>2021-07-25 14:12:02</time>
      </trkpt>
      <trkpt lat="42.72891" lon="-2.42898">
        <ele>612</ele>
        <time>2021-07-25 14:12:06</time>
      </trkpt>
      <trkpt lat="42.72891" lon="-2.42898">
        <ele>611.8</ele>
        <time>2021-07-25 14:12:10</time>
      </trkpt>
      <trkpt lat="42.72891" lon="-2.42898">
        <ele>612</ele>
        <time>2021-07-25 14:12:14</time>
      </trkpt>
      <trkpt lat="42.72891" lon="-2.42898">
        <ele>611.8</ele>
        <time>2021-07-25 14:12:18</time>
      </trkpt>
      <trkpt lat="42.72891" lon="-2.42898">
        <ele>612.2</ele>
        <time>2021-07-25 14:12:22</time>
      </trkpt>
      <trkpt lat="42.72891" lon="-2.42898">
        <ele>612.2</ele>
        <time>2021-07-25 14:12:26</time>
      </trkpt>
      <trkpt lat="42.72891" lon="-2.42898">
        <ele>612.4</ele>
        <time>2021-07-25 14:12:30</time>
      </trkpt>
      <trkpt lat="42.72891" lon="-2.42898">
        <ele>612.2</ele>
        <time>2021-07-25 14:12:34</time>
      </trkpt>
      <trkpt lat="42.72891" lon="-2.42898">
        <ele>612</ele>
        <time>2021-07-25 14:12:38</time>
      </trkpt>
      <trkpt lat="42.72891" lon="-2.42898">
        <ele>612</ele>
        <time>2021-07-25 14:12:42</time>
      </trkpt>
      <trkpt lat="42.72891" lon="-2.42898">
        <ele>612</ele>
        <time>2021-07-25 14:12:46</time>
      </trkpt>
      <trkpt lat="42.72891" lon="-2.42898">
        <ele>612</ele>
        <time>2021-07-25 14:12:50</time>
      </trkpt>
      <trkpt lat="42.72891" lon="-2.42898">
        <ele>612</ele>
        <time>2021-07-25 14:12:54</time>
      </trkpt>
      <trkpt lat="42.72891" lon="-2.42898">
        <ele>612.2</ele>
        <time>2021-07-25 14:12:58</time>
      </trkpt>
      <trkpt lat="42.72891" lon="-2.42898">
        <ele>612</ele>
        <time>2021-07-25 14:13:02</time>
      </trkpt>
      <trkpt lat="42.72891" lon="-2.42898">
        <ele>612.2</ele>
        <time>2021-07-25 14:13:06</time>
      </trkpt>
      <trkpt lat="42.72891" lon="-2.42898">
        <ele>612.4</ele>
        <time>2021-07-25 14:13:10</time>
      </trkpt>
      <trkpt lat="42.72891" lon="-2.42898">
        <ele>612.2</ele>
        <time>2021-07-25 14:13:14</time>
      </trkpt>
      <trkpt lat="42.72891" lon="-2.42898">
        <ele>612.4</ele>
        <time>2021-07-25 14:13:18</time>
      </trkpt>
      <trkpt lat="42.72891" lon="-2.42898">
        <ele>612.2</ele>
        <time>2021-07-25 14:13:22</time>
      </trkpt>
      <trkpt lat="42.72891" lon="-2.42898">
        <ele>612.2</ele>
        <time>2021-07-25 14:13:26</time>
      </trkpt>
      <trkpt lat="42.72891" lon="-2.42898">
        <ele>612</ele>
        <time>2021-07-25 14:13:30</time>
      </trkpt>
      <trkpt lat="42.72891" lon="-2.42898">
        <ele>612</ele>
        <time>2021-07-25 14:13:34</time>
      </trkpt>
      <trkpt lat="42.72891" lon="-2.42898">
        <ele>612</ele>
        <time>2021-07-25 14:13:38</time>
      </trkpt>
      <trkpt lat="42.72891" lon="-2.42898">
        <ele>612.2</ele>
        <time>2021-07-25 14:13:42</time>
      </trkpt>
      <trkpt lat="42.72891" lon="-2.42898">
        <ele>612.2</ele>
        <time>2021-07-25 14:13:46</time>
      </trkpt>
      <trkpt lat="42.72891" lon="-2.42898">
        <ele>612.2</ele>
        <time>2021-07-25 14:13:50</time>
      </trkpt>
      <trkpt lat="42.72891" lon="-2.42898">
        <ele>612.2</ele>
        <time>2021-07-25 14:13:54</time>
      </trkpt>
      <trkpt lat="42.72891" lon="-2.42898">
        <ele>612</ele>
        <time>2021-07-25 14:13:58</time>
      </trkpt>
      <trkpt lat="42.72891" lon="-2.42898">
        <ele>611.6</ele>
        <time>2021-07-25 14:14:02</time>
      </trkpt>
      <trkpt lat="42.72891" lon="-2.42898">
        <ele>611.6</ele>
        <time>2021-07-25 14:14:06</time>
      </trkpt>
      <trkpt lat="42.72891" lon="-2.42898">
        <ele>611.4</ele>
        <time>2021-07-25 14:14:10</time>
      </trkpt>
      <trkpt lat="42.72891" lon="-2.42898">
        <ele>611.4</ele>
        <time>2021-07-25 14:14:14</time>
      </trkpt>
      <trkpt lat="42.72891" lon="-2.42898">
        <ele>611.2</ele>
        <time>2021-07-25 14:14:18</time>
      </trkpt>
      <trkpt lat="42.72891" lon="-2.42898">
        <ele>610.6</ele>
        <time>2021-07-25 14:14:22</time>
      </trkpt>
      <trkpt lat="42.72891" lon="-2.42898">
        <ele>610.6</ele>
        <time>2021-07-25 14:14:26</time>
      </trkpt>
      <trkpt lat="42.72891" lon="-2.42898">
        <ele>610.8</ele>
        <time>2021-07-25 14:14:30</time>
      </trkpt>
      <trkpt lat="42.72891" lon="-2.42898">
        <ele>610.6</ele>
        <time>2021-07-25 14:14:34</time>
      </trkpt>
      <trkpt lat="42.72891" lon="-2.42898">
        <ele>611</ele>
        <time>2021-07-25 14:14:38</time>
      </trkpt>
      <trkpt lat="42.72891" lon="-2.42898">
        <ele>610.8</ele>
        <time>2021-07-25 14:14:42</time>
      </trkpt>
      <trkpt lat="42.72891" lon="-2.42898">
        <ele>611.2</ele>
        <time>2021-07-25 14:14:46</time>
      </trkpt>
      <trkpt lat="42.72891" lon="-2.42898">
        <ele>611.2</ele>
        <time>2021-07-25 14:14:50</time>
      </trkpt>
      <trkpt lat="42.72891" lon="-2.42898">
        <ele>611.4</ele>
        <time>2021-07-25 14:14:54</time>
      </trkpt>
      <trkpt lat="42.72891" lon="-2.42898">
        <ele>611.4</ele>
        <time>2021-07-25 14:14:58</time>
      </trkpt>
      <trkpt lat="42.72891" lon="-2.42898">
        <ele>611.4</ele>
        <time>2021-07-25 14:15:02</time>
      </trkpt>
      <trkpt lat="42.72891" lon="-2.42898">
        <ele>611.4</ele>
        <time>2021-07-25 14:15:06</time>
      </trkpt>
      <trkpt lat="42.72891" lon="-2.42898">
        <ele>611.6</ele>
        <time>2021-07-25 14:15:10</time>
      </trkpt>
      <trkpt lat="42.72891" lon="-2.42898">
        <ele>611.4</ele>
        <time>2021-07-25 14:15:14</time>
      </trkpt>
      <trkpt lat="42.72891" lon="-2.42898">
        <ele>611.8</ele>
        <time>2021-07-25 14:15:18</time>
      </trkpt>
      <trkpt lat="42.72891" lon="-2.42898">
        <ele>611.6</ele>
        <time>2021-07-25 14:15:22</time>
      </trkpt>
      <trkpt lat="42.72891" lon="-2.42898">
        <ele>611.6</ele>
        <time>2021-07-25 14:15:26</time>
      </trkpt>
      <trkpt lat="42.72891" lon="-2.42898">
        <ele>611.6</ele>
        <time>2021-07-25 14:15:30</time>
      </trkpt>
      <trkpt lat="42.72891" lon="-2.42898">
        <ele>611.6</ele>
        <time>2021-07-25 14:15:34</time>
      </trkpt>
      <trkpt lat="42.72891" lon="-2.42898">
        <ele>611.4</ele>
        <time>2021-07-25 14:15:38</time>
      </trkpt>
      <trkpt lat="42.72891" lon="-2.42898">
        <ele>611.6</ele>
        <time>2021-07-25 14:15:42</time>
      </trkpt>
      <trkpt lat="42.72891" lon="-2.42898">
        <ele>611.4</ele>
        <time>2021-07-25 14:15:46</time>
      </trkpt>
      <trkpt lat="42.72891" lon="-2.42898">
        <ele>611.2</ele>
        <time>2021-07-25 14:15:50</time>
      </trkpt>
      <trkpt lat="42.72891" lon="-2.42898">
        <ele>611</ele>
        <time>2021-07-25 14:15:54</time>
      </trkpt>
      <trkpt lat="42.72891" lon="-2.42898">
        <ele>611</ele>
        <time>2021-07-25 14:15:58</time>
      </trkpt>
      <trkpt lat="42.72891" lon="-2.42898">
        <ele>611</ele>
        <time>2021-07-25 14:16:02</time>
      </trkpt>
      <trkpt lat="42.72891" lon="-2.42898">
        <ele>611.2</ele>
        <time>2021-07-25 14:16:06</time>
      </trkpt>
      <trkpt lat="42.72891" lon="-2.42898">
        <ele>610.6</ele>
        <time>2021-07-25 14:16:10</time>
      </trkpt>
      <trkpt lat="42.72891" lon="-2.42898">
        <ele>611</ele>
        <time>2021-07-25 14:16:14</time>
      </trkpt>
      <trkpt lat="42.72891" lon="-2.42898">
        <ele>610.8</ele>
        <time>2021-07-25 14:16:18</time>
      </trkpt>
      <trkpt lat="42.72891" lon="-2.42898">
        <ele>610.8</ele>
        <time>2021-07-25 14:16:22</time>
      </trkpt>
      <trkpt lat="42.72891" lon="-2.42898">
        <ele>611.6</ele>
        <time>2021-07-25 14:16:26</time>
      </trkpt>
      <trkpt lat="42.72891" lon="-2.42898">
        <ele>611.2</ele>
        <time>2021-07-25 14:16:30</time>
      </trkpt>
      <trkpt lat="42.72891" lon="-2.42898">
        <ele>611.2</ele>
        <time>2021-07-25 14:16:34</time>
      </trkpt>
      <trkpt lat="42.72891" lon="-2.42898">
        <ele>611.2</ele>
        <time>2021-07-25 14:16:38</time>
      </trkpt>
      <trkpt lat="42.72891" lon="-2.42898">
        <ele>611.2</ele>
        <time>2021-07-25 14:16:42</time>
      </trkpt>
      <trkpt lat="42.72891" lon="-2.42898">
        <ele>611</ele>
        <time>2021-07-25 14:16:46</time>
      </trkpt>
      <trkpt lat="42.72891" lon="-2.42898">
        <ele>611.2</ele>
        <time>2021-07-25 14:16:50</time>
      </trkpt>
      <trkpt lat="42.72891" lon="-2.42898">
        <ele>611</ele>
        <time>2021-07-25 14:16:54</time>
      </trkpt>
      <trkpt lat="42.72891" lon="-2.42898">
        <ele>611.2</ele>
        <time>2021-07-25 14:16:58</time>
      </trkpt>
      <trkpt lat="42.72891" lon="-2.42898">
        <ele>611</ele>
        <time>2021-07-25 14:17:02</time>
      </trkpt>
      <trkpt lat="42.72891" lon="-2.42898">
        <ele>610.8</ele>
        <time>2021-07-25 14:17:06</time>
      </trkpt>
      <trkpt lat="42.72891" lon="-2.42898">
        <ele>611.2</ele>
        <time>2021-07-25 14:17:10</time>
      </trkpt>
      <trkpt lat="42.72891" lon="-2.42898">
        <ele>611.4</ele>
        <time>2021-07-25 14:17:14</time>
      </trkpt>
      <trkpt lat="42.72891" lon="-2.42898">
        <ele>611.4</ele>
        <time>2021-07-25 14:17:18</time>
      </trkpt>
      <trkpt lat="42.72891" lon="-2.42898">
        <ele>611.2</ele>
        <time>2021-07-25 14:17:22</time>
      </trkpt>
      <trkpt lat="42.72891" lon="-2.42898">
        <ele>611</ele>
        <time>2021-07-25 14:17:26</time>
      </trkpt>
      <trkpt lat="42.72891" lon="-2.42898">
        <ele>611.2</ele>
        <time>2021-07-25 14:17:30</time>
      </trkpt>
      <trkpt lat="42.72891" lon="-2.42898">
        <ele>611.6</ele>
        <time>2021-07-25 14:17:34</time>
      </trkpt>
      <trkpt lat="42.72891" lon="-2.42898">
        <ele>611.4</ele>
        <time>2021-07-25 14:17:38</time>
      </trkpt>
      <trkpt lat="42.72891" lon="-2.42898">
        <ele>611.4</ele>
        <time>2021-07-25 14:17:42</time>
      </trkpt>
      <trkpt lat="42.72891" lon="-2.42898">
        <ele>611.4</ele>
        <time>2021-07-25 14:17:46</time>
      </trkpt>
      <trkpt lat="42.72891" lon="-2.42898">
        <ele>611.2</ele>
        <time>2021-07-25 14:17:50</time>
      </trkpt>
      <trkpt lat="42.72891" lon="-2.42898">
        <ele>611</ele>
        <time>2021-07-25 14:17:54</time>
      </trkpt>
      <trkpt lat="42.72891" lon="-2.42898">
        <ele>611.2</ele>
        <time>2021-07-25 14:17:58</time>
      </trkpt>
      <trkpt lat="42.72891" lon="-2.42898">
        <ele>611.2</ele>
        <time>2021-07-25 14:18:02</time>
      </trkpt>
      <trkpt lat="42.72891" lon="-2.42898">
        <ele>611</ele>
        <time>2021-07-25 14:18:06</time>
      </trkpt>
      <trkpt lat="42.72891" lon="-2.42898">
        <ele>611.2</ele>
        <time>2021-07-25 14:18:10</time>
      </trkpt>
      <trkpt lat="42.72891" lon="-2.42898">
        <ele>611.2</ele>
        <time>2021-07-25 14:18:14</time>
      </trkpt>
      <trkpt lat="42.72891" lon="-2.42898">
        <ele>611.2</ele>
        <time>2021-07-25 14:18:18</time>
      </trkpt>
      <trkpt lat="42.72891" lon="-2.42898">
        <ele>610.8</ele>
        <time>2021-07-25 14:18:22</time>
      </trkpt>
      <trkpt lat="42.72891" lon="-2.42898">
        <ele>610.8</ele>
        <time>2021-07-25 14:18:26</time>
      </trkpt>
      <trkpt lat="42.72891" lon="-2.42898">
        <ele>610.4</ele>
        <time>2021-07-25 14:18:30</time>
      </trkpt>
      <trkpt lat="42.72891" lon="-2.42898">
        <ele>611</ele>
        <time>2021-07-25 14:18:34</time>
      </trkpt>
      <trkpt lat="42.72891" lon="-2.42898">
        <ele>610.8</ele>
        <time>2021-07-25 14:18:38</time>
      </trkpt>
      <trkpt lat="42.72891" lon="-2.42898">
        <ele>610.8</ele>
        <time>2021-07-25 14:18:42</time>
      </trkpt>
      <trkpt lat="42.72891" lon="-2.42898">
        <ele>610.8</ele>
        <time>2021-07-25 14:18:46</time>
      </trkpt>
      <trkpt lat="42.72891" lon="-2.42898">
        <ele>611.2</ele>
        <time>2021-07-25 14:18:50</time>
      </trkpt>
      <trkpt lat="42.72891" lon="-2.42898">
        <ele>611</ele>
        <time>2021-07-25 14:18:54</time>
      </trkpt>
      <trkpt lat="42.72891" lon="-2.42898">
        <ele>611.2</ele>
        <time>2021-07-25 14:18:58</time>
      </trkpt>
      <trkpt lat="42.72891" lon="-2.42898">
        <ele>611.2</ele>
        <time>2021-07-25 14:19:02</time>
      </trkpt>
      <trkpt lat="42.72891" lon="-2.42898">
        <ele>611.6</ele>
        <time>2021-07-25 14:19:06</time>
      </trkpt>
      <trkpt lat="42.72891" lon="-2.42898">
        <ele>611</ele>
        <time>2021-07-25 14:19:10</time>
      </trkpt>
      <trkpt lat="42.72891" lon="-2.42898">
        <ele>611</ele>
        <time>2021-07-25 14:19:14</time>
      </trkpt>
      <trkpt lat="42.72891" lon="-2.42898">
        <ele>610.8</ele>
        <time>2021-07-25 14:19:18</time>
      </trkpt>
      <trkpt lat="42.72891" lon="-2.42898">
        <ele>610.4</ele>
        <time>2021-07-25 14:19:22</time>
      </trkpt>
      <trkpt lat="42.72891" lon="-2.42898">
        <ele>610.8</ele>
        <time>2021-07-25 14:19:26</time>
      </trkpt>
      <trkpt lat="42.72891" lon="-2.42898">
        <ele>610.8</ele>
        <time>2021-07-25 14:19:30</time>
      </trkpt>
      <trkpt lat="42.72891" lon="-2.42898">
        <ele>610.6</ele>
        <time>2021-07-25 14:19:34</time>
      </trkpt>
      <trkpt lat="42.72891" lon="-2.42898">
        <ele>610.6</ele>
        <time>2021-07-25 14:19:38</time>
      </trkpt>
      <trkpt lat="42.72891" lon="-2.42898">
        <ele>610.6</ele>
        <time>2021-07-25 14:19:42</time>
      </trkpt>
      <trkpt lat="42.72891" lon="-2.42898">
        <ele>610.8</ele>
        <time>2021-07-25 14:19:46</time>
      </trkpt>
      <trkpt lat="42.72891" lon="-2.42898">
        <ele>610.8</ele>
        <time>2021-07-25 14:19:50</time>
      </trkpt>
      <trkpt lat="42.72891" lon="-2.42898">
        <ele>610.8</ele>
        <time>2021-07-25 14:19:54</time>
      </trkpt>
      <trkpt lat="42.72891" lon="-2.42898">
        <ele>610.6</ele>
        <time>2021-07-25 14:19:58</time>
      </trkpt>
      <trkpt lat="42.72891" lon="-2.42898">
        <ele>611</ele>
        <time>2021-07-25 14:20:02</time>
      </trkpt>
      <trkpt lat="42.72891" lon="-2.42898">
        <ele>611</ele>
        <time>2021-07-25 14:20:06</time>
      </trkpt>
      <trkpt lat="42.72891" lon="-2.42898">
        <ele>610.6</ele>
        <time>2021-07-25 14:20:10</time>
      </trkpt>
      <trkpt lat="42.72891" lon="-2.42898">
        <ele>610.6</ele>
        <time>2021-07-25 14:20:14</time>
      </trkpt>
      <trkpt lat="42.72891" lon="-2.42898">
        <ele>610.8</ele>
        <time>2021-07-25 14:20:18</time>
      </trkpt>
      <trkpt lat="42.72891" lon="-2.42898">
        <ele>610.8</ele>
        <time>2021-07-25 14:20:22</time>
      </trkpt>
      <trkpt lat="42.72891" lon="-2.42898">
        <ele>610.6</ele>
        <time>2021-07-25 14:20:26</time>
      </trkpt>
      <trkpt lat="42.72891" lon="-2.42898">
        <ele>611</ele>
        <time>2021-07-25 14:20:30</time>
      </trkpt>
      <trkpt lat="42.72891" lon="-2.42898">
        <ele>610.8</ele>
        <time>2021-07-25 14:20:34</time>
      </trkpt>
      <trkpt lat="42.72891" lon="-2.42898">
        <ele>610.8</ele>
        <time>2021-07-25 14:20:38</time>
      </trkpt>
      <trkpt lat="42.72891" lon="-2.42898">
        <ele>610.8</ele>
        <time>2021-07-25 14:20:42</time>
      </trkpt>
      <trkpt lat="42.72891" lon="-2.42898">
        <ele>610.8</ele>
        <time>2021-07-25 14:20:46</time>
      </trkpt>
      <trkpt lat="42.72891" lon="-2.42898">
        <ele>611</ele>
        <time>2021-07-25 14:20:50</time>
      </trkpt>
      <trkpt lat="42.72891" lon="-2.42898">
        <ele>610.8</ele>
        <time>2021-07-25 14:20:54</time>
      </trkpt>
      <trkpt lat="42.72891" lon="-2.42898">
        <ele>611.2</ele>
        <time>2021-07-25 14:20:58</time>
      </trkpt>
      <trkpt lat="42.72891" lon="-2.42898">
        <ele>610.8</ele>
        <time>2021-07-25 14:21:02</time>
      </trkpt>
      <trkpt lat="42.72891" lon="-2.42898">
        <ele>611.4</ele>
        <time>2021-07-25 14:21:06</time>
      </trkpt>
      <trkpt lat="42.72891" lon="-2.42898">
        <ele>611.4</ele>
        <time>2021-07-25 14:21:10</time>
      </trkpt>
      <trkpt lat="42.72891" lon="-2.42898">
        <ele>611.4</ele>
        <time>2021-07-25 14:21:14</time>
      </trkpt>
      <trkpt lat="42.72891" lon="-2.42898">
        <ele>611.4</ele>
        <time>2021-07-25 14:21:18</time>
      </trkpt>
      <trkpt lat="42.72891" lon="-2.42898">
        <ele>611.4</ele>
        <time>2021-07-25 14:21:22</time>
      </trkpt>
      <trkpt lat="42.72891" lon="-2.42898">
        <ele>611.2</ele>
        <time>2021-07-25 14:21:26</time>
      </trkpt>
      <trkpt lat="42.72891" lon="-2.42898">
        <ele>611</ele>
        <time>2021-07-25 14:21:30</time>
      </trkpt>
      <trkpt lat="42.72891" lon="-2.42898">
        <ele>611.2</ele>
        <time>2021-07-25 14:21:34</time>
      </trkpt>
      <trkpt lat="42.72891" lon="-2.42898">
        <ele>611.6</ele>
        <time>2021-07-25 14:21:38</time>
      </trkpt>
      <trkpt lat="42.72891" lon="-2.42898">
        <ele>611.2</ele>
        <time>2021-07-25 14:21:42</time>
      </trkpt>
      <trkpt lat="42.72891" lon="-2.42898">
        <ele>611.4</ele>
        <time>2021-07-25 14:21:46</time>
      </trkpt>
      <trkpt lat="42.72891" lon="-2.42898">
        <ele>611.6</ele>
        <time>2021-07-25 14:21:50</time>
      </trkpt>
      <trkpt lat="42.72891" lon="-2.42898">
        <ele>611.6</ele>
        <time>2021-07-25 14:21:54</time>
      </trkpt>
      <trkpt lat="42.72891" lon="-2.42898">
        <ele>611.2</ele>
        <time>2021-07-25 14:21:58</time>
      </trkpt>
      <trkpt lat="42.72891" lon="-2.42898">
        <ele>611.4</ele>
        <time>2021-07-25 14:22:02</time>
      </trkpt>
      <trkpt lat="42.72891" lon="-2.42898">
        <ele>611.6</ele>
        <time>2021-07-25 14:22:06</time>
      </trkpt>
      <trkpt lat="42.72891" lon="-2.42898">
        <ele>611.6</ele>
        <time>2021-07-25 14:22:10</time>
      </trkpt>
      <trkpt lat="42.72891" lon="-2.42898">
        <ele>611.4</ele>
        <time>2021-07-25 14:22:14</time>
      </trkpt>
      <trkpt lat="42.72891" lon="-2.42898">
        <ele>611.6</ele>
        <time>2021-07-25 14:22:18</time>
      </trkpt>
      <trkpt lat="42.72891" lon="-2.42898">
        <ele>611.4</ele>
        <time>2021-07-25 14:22:22</time>
      </trkpt>
      <trkpt lat="42.72891" lon="-2.42898">
        <ele>611.6</ele>
        <time>2021-07-25 14:22:26</time>
      </trkpt>
      <trkpt lat="42.72891" lon="-2.42898">
        <ele>611.4</ele>
        <time>2021-07-25 14:22:30</time>
      </trkpt>
      <trkpt lat="42.72891" lon="-2.42898">
        <ele>611.6</ele>
        <time>2021-07-25 14:22:34</time>
      </trkpt>
      <trkpt lat="42.72891" lon="-2.42898">
        <ele>611.6</ele>
        <time>2021-07-25 14:22:38</time>
      </trkpt>
      <trkpt lat="42.72891" lon="-2.42898">
        <ele>611.6</ele>
        <time>2021-07-25 14:22:42</time>
      </trkpt>
      <trkpt lat="42.72891" lon="-2.42898">
        <ele>611.6</ele>
        <time>2021-07-25 14:22:46</time>
      </trkpt>
      <trkpt lat="42.72891" lon="-2.42898">
        <ele>611.8</ele>
        <time>2021-07-25 14:22:50</time>
      </trkpt>
      <trkpt lat="42.72891" lon="-2.42898">
        <ele>611.8</ele>
        <time>2021-07-25 14:22:54</time>
      </trkpt>
      <trkpt lat="42.72891" lon="-2.42898">
        <ele>611.8</ele>
        <time>2021-07-25 14:22:58</time>
      </trkpt>
      <trkpt lat="42.72891" lon="-2.42898">
        <ele>611.6</ele>
        <time>2021-07-25 14:23:02</time>
      </trkpt>
      <trkpt lat="42.72891" lon="-2.42898">
        <ele>611.6</ele>
        <time>2021-07-25 14:23:06</time>
      </trkpt>
      <trkpt lat="42.72891" lon="-2.42898">
        <ele>611.6</ele>
        <time>2021-07-25 14:23:10</time>
      </trkpt>
      <trkpt lat="42.72891" lon="-2.42898">
        <ele>611.6</ele>
        <time>2021-07-25 14:23:14</time>
      </trkpt>
      <trkpt lat="42.72891" lon="-2.42898">
        <ele>611.6</ele>
        <time>2021-07-25 14:23:18</time>
      </trkpt>
      <trkpt lat="42.72891" lon="-2.42898">
        <ele>611.6</ele>
        <time>2021-07-25 14:23:22</time>
      </trkpt>
      <trkpt lat="42.72891" lon="-2.42898">
        <ele>611.6</ele>
        <time>2021-07-25 14:23:26</time>
      </trkpt>
      <trkpt lat="42.72891" lon="-2.42898">
        <ele>611.6</ele>
        <time>2021-07-25 14:23:30</time>
      </trkpt>
      <trkpt lat="42.72891" lon="-2.42898">
        <ele>611.6</ele>
        <time>2021-07-25 14:23:34</time>
      </trkpt>
      <trkpt lat="42.72891" lon="-2.42898">
        <ele>611.8</ele>
        <time>2021-07-25 14:23:38</time>
      </trkpt>
      <trkpt lat="42.72891" lon="-2.42898">
        <ele>612</ele>
        <time>2021-07-25 14:23:42</time>
      </trkpt>
      <trkpt lat="42.72891" lon="-2.42898">
        <ele>611.8</ele>
        <time>2021-07-25 14:23:46</time>
      </trkpt>
      <trkpt lat="42.72891" lon="-2.42898">
        <ele>611.8</ele>
        <time>2021-07-25 14:23:50</time>
      </trkpt>
      <trkpt lat="42.72891" lon="-2.42898">
        <ele>612</ele>
        <time>2021-07-25 14:23:54</time>
      </trkpt>
      <trkpt lat="42.72891" lon="-2.42898">
        <ele>612</ele>
        <time>2021-07-25 14:23:58</time>
      </trkpt>
      <trkpt lat="42.72891" lon="-2.42898">
        <ele>612</ele>
        <time>2021-07-25 14:24:02</time>
      </trkpt>
      <trkpt lat="42.72891" lon="-2.42898">
        <ele>611.8</ele>
        <time>2021-07-25 14:24:06</time>
      </trkpt>
      <trkpt lat="42.72891" lon="-2.42898">
        <ele>611.8</ele>
        <time>2021-07-25 14:24:10</time>
      </trkpt>
      <trkpt lat="42.72891" lon="-2.42898">
        <ele>612</ele>
        <time>2021-07-25 14:24:14</time>
      </trkpt>
      <trkpt lat="42.72891" lon="-2.42898">
        <ele>612</ele>
        <time>2021-07-25 14:24:18</time>
      </trkpt>
      <trkpt lat="42.72891" lon="-2.42898">
        <ele>612</ele>
        <time>2021-07-25 14:24:22</time>
      </trkpt>
      <trkpt lat="42.72891" lon="-2.42898">
        <ele>612.2</ele>
        <time>2021-07-25 14:24:26</time>
      </trkpt>
      <trkpt lat="42.72891" lon="-2.42898">
        <ele>611.8</ele>
        <time>2021-07-25 14:24:30</time>
      </trkpt>
      <trkpt lat="42.72891" lon="-2.42898">
        <ele>612</ele>
        <time>2021-07-25 14:24:34</time>
      </trkpt>
      <trkpt lat="42.72891" lon="-2.42898">
        <ele>612.2</ele>
        <time>2021-07-25 14:24:38</time>
      </trkpt>
      <trkpt lat="42.72891" lon="-2.42898">
        <ele>612.2</ele>
        <time>2021-07-25 14:24:42</time>
      </trkpt>
      <trkpt lat="42.72891" lon="-2.42898">
        <ele>612</ele>
        <time>2021-07-25 14:24:46</time>
      </trkpt>
      <trkpt lat="42.72891" lon="-2.42898">
        <ele>612.2</ele>
        <time>2021-07-25 14:24:50</time>
      </trkpt>
      <trkpt lat="42.72891" lon="-2.42898">
        <ele>611.6</ele>
        <time>2021-07-25 14:24:54</time>
      </trkpt>
      <trkpt lat="42.72891" lon="-2.42898">
        <ele>612</ele>
        <time>2021-07-25 14:24:58</time>
      </trkpt>
      <trkpt lat="42.72891" lon="-2.42898">
        <ele>611.8</ele>
        <time>2021-07-25 14:25:02</time>
      </trkpt>
      <trkpt lat="42.72891" lon="-2.42898">
        <ele>612.2</ele>
        <time>2021-07-25 14:25:06</time>
      </trkpt>
      <trkpt lat="42.72891" lon="-2.42898">
        <ele>612</ele>
        <time>2021-07-25 14:25:10</time>
      </trkpt>
      <trkpt lat="42.72891" lon="-2.42898">
        <ele>612</ele>
        <time>2021-07-25 14:25:14</time>
      </trkpt>
      <trkpt lat="42.72891" lon="-2.42898">
        <ele>612</ele>
        <time>2021-07-25 14:25:18</time>
      </trkpt>
      <trkpt lat="42.72891" lon="-2.42898">
        <ele>612</ele>
        <time>2021-07-25 14:25:22</time>
      </trkpt>
      <trkpt lat="42.72891" lon="-2.42898">
        <ele>612.2</ele>
        <time>2021-07-25 14:25:26</time>
      </trkpt>
      <trkpt lat="42.72891" lon="-2.42898">
        <ele>612.2</ele>
        <time>2021-07-25 14:25:30</time>
      </trkpt>
      <trkpt lat="42.72891" lon="-2.42898">
        <ele>612.4</ele>
        <time>2021-07-25 14:25:34</time>
      </trkpt>
      <trkpt lat="42.72891" lon="-2.42898">
        <ele>612</ele>
        <time>2021-07-25 14:25:38</time>
      </trkpt>
      <trkpt lat="42.72891" lon="-2.42898">
        <ele>612</ele>
        <time>2021-07-25 14:25:42</time>
      </trkpt>
      <trkpt lat="42.72891" lon="-2.42898">
        <ele>612</ele>
        <time>2021-07-25 14:25:46</time>
      </trkpt>
      <trkpt lat="42.72891" lon="-2.42898">
        <ele>612.2</ele>
        <time>2021-07-25 14:25:50</time>
      </trkpt>
      <trkpt lat="42.72891" lon="-2.42898">
        <ele>611.8</ele>
        <time>2021-07-25 14:25:54</time>
      </trkpt>
      <trkpt lat="42.72891" lon="-2.42898">
        <ele>612.2</ele>
        <time>2021-07-25 14:25:58</time>
      </trkpt>
      <trkpt lat="42.72891" lon="-2.42898">
        <ele>612.4</ele>
        <time>2021-07-25 14:26:02</time>
      </trkpt>
      <trkpt lat="42.72891" lon="-2.42898">
        <ele>612</ele>
        <time>2021-07-25 14:26:06</time>
      </trkpt>
      <trkpt lat="42.72891" lon="-2.42898">
        <ele>611.8</ele>
        <time>2021-07-25 14:26:10</time>
      </trkpt>
      <trkpt lat="42.72891" lon="-2.42898">
        <ele>612.2</ele>
        <time>2021-07-25 14:26:14</time>
      </trkpt>
      <trkpt lat="42.72891" lon="-2.42898">
        <ele>612.6</ele>
        <time>2021-07-25 14:26:18</time>
      </trkpt>
      <trkpt lat="42.72891" lon="-2.42898">
        <ele>612</ele>
        <time>2021-07-25 14:26:22</time>
      </trkpt>
      <trkpt lat="42.72891" lon="-2.42898">
        <ele>612.4</ele>
        <time>2021-07-25 14:26:26</time>
      </trkpt>
      <trkpt lat="42.72891" lon="-2.42898">
        <ele>612.4</ele>
        <time>2021-07-25 14:26:30</time>
      </trkpt>
      <trkpt lat="42.72891" lon="-2.42898">
        <ele>612.4</ele>
        <time>2021-07-25 14:26:34</time>
      </trkpt>
      <trkpt lat="42.72891" lon="-2.42898">
        <ele>612.6</ele>
        <time>2021-07-25 14:26:38</time>
      </trkpt>
      <trkpt lat="42.72891" lon="-2.42898">
        <ele>612.4</ele>
        <time>2021-07-25 14:26:42</time>
      </trkpt>
      <trkpt lat="42.72891" lon="-2.42898">
        <ele>612.2</ele>
        <time>2021-07-25 14:26:46</time>
      </trkpt>
      <trkpt lat="42.72891" lon="-2.42898">
        <ele>612.4</ele>
        <time>2021-07-25 14:26:50</time>
      </trkpt>
      <trkpt lat="42.72891" lon="-2.42898">
        <ele>612.4</ele>
        <time>2021-07-25 14:26:54</time>
      </trkpt>
      <trkpt lat="42.72891" lon="-2.42898">
        <ele>612.2</ele>
        <time>2021-07-25 14:26:58</time>
      </trkpt>
      <trkpt lat="42.72891" lon="-2.42898">
        <ele>612.4</ele>
        <time>2021-07-25 14:27:02</time>
      </trkpt>
      <trkpt lat="42.72891" lon="-2.42898">
        <ele>612.4</ele>
        <time>2021-07-25 14:27:06</time>
      </trkpt>
      <trkpt lat="42.72891" lon="-2.42898">
        <ele>612.4</ele>
        <time>2021-07-25 14:27:10</time>
      </trkpt>
      <trkpt lat="42.72891" lon="-2.42898">
        <ele>612.4</ele>
        <time>2021-07-25 14:27:14</time>
      </trkpt>
      <trkpt lat="42.72891" lon="-2.42898">
        <ele>612.4</ele>
        <time>2021-07-25 14:27:18</time>
      </trkpt>
      <trkpt lat="42.72891" lon="-2.42898">
        <ele>612.4</ele>
        <time>2021-07-25 14:27:22</time>
      </trkpt>
      <trkpt lat="42.72891" lon="-2.42898">
        <ele>612.4</ele>
        <time>2021-07-25 14:27:26</time>
      </trkpt>
      <trkpt lat="42.72891" lon="-2.42898">
        <ele>612.2</ele>
        <time>2021-07-25 14:27:30</time>
      </trkpt>
      <trkpt lat="42.72891" lon="-2.42898">
        <ele>612</ele>
        <time>2021-07-25 14:27:34</time>
      </trkpt>
      <trkpt lat="42.72891" lon="-2.42898">
        <ele>612</ele>
        <time>2021-07-25 14:27:38</time>
      </trkpt>
      <trkpt lat="42.72891" lon="-2.42898">
        <ele>612</ele>
        <time>2021-07-25 14:27:42</time>
      </trkpt>
      <trkpt lat="42.72891" lon="-2.42898">
        <ele>612</ele>
        <time>2021-07-25 14:27:46</time>
      </trkpt>
      <trkpt lat="42.72891" lon="-2.42898">
        <ele>612.2</ele>
        <time>2021-07-25 14:27:50</time>
      </trkpt>
      <trkpt lat="42.72891" lon="-2.42898">
        <ele>612</ele>
        <time>2021-07-25 14:27:54</time>
      </trkpt>
      <trkpt lat="42.72891" lon="-2.42898">
        <ele>612</ele>
        <time>2021-07-25 14:27:58</time>
      </trkpt>
      <trkpt lat="42.72891" lon="-2.42898">
        <ele>612</ele>
        <time>2021-07-25 14:28:02</time>
      </trkpt>
      <trkpt lat="42.72891" lon="-2.42898">
        <ele>612.2</ele>
        <time>2021-07-25 14:28:06</time>
      </trkpt>
      <trkpt lat="42.72891" lon="-2.42898">
        <ele>612</ele>
        <time>2021-07-25 14:28:10</time>
      </trkpt>
      <trkpt lat="42.72891" lon="-2.42898">
        <ele>612.2</ele>
        <time>2021-07-25 14:28:14</time>
      </trkpt>
      <trkpt lat="42.72891" lon="-2.42898">
        <ele>612.4</ele>
        <time>2021-07-25 14:28:18</time>
      </trkpt>
      <trkpt lat="42.72891" lon="-2.42898">
        <ele>612.4</ele>
        <time>2021-07-25 14:28:22</time>
      </trkpt>
      <trkpt lat="42.72891" lon="-2.42898">
        <ele>612.6</ele>
        <time>2021-07-25 14:28:26</time>
      </trkpt>
      <trkpt lat="42.72891" lon="-2.42898">
        <ele>612.4</ele>
        <time>2021-07-25 14:28:30</time>
      </trkpt>
      <trkpt lat="42.72891" lon="-2.42898">
        <ele>612.4</ele>
        <time>2021-07-25 14:28:34</time>
      </trkpt>
      <trkpt lat="42.72891" lon="-2.42898">
        <ele>612.2</ele>
        <time>2021-07-25 14:28:38</time>
      </trkpt>
      <trkpt lat="42.72891" lon="-2.42898">
        <ele>612.4</ele>
        <time>2021-07-25 14:28:42</time>
      </trkpt>
      <trkpt lat="42.72891" lon="-2.42898">
        <ele>612.2</ele>
        <time>2021-07-25 14:28:46</time>
      </trkpt>
      <trkpt lat="42.72891" lon="-2.42898">
        <ele>612.2</ele>
        <time>2021-07-25 14:28:50</time>
      </trkpt>
      <trkpt lat="42.72891" lon="-2.42898">
        <ele>612.4</ele>
        <time>2021-07-25 14:28:54</time>
      </trkpt>
      <trkpt lat="42.72891" lon="-2.42898">
        <ele>612.4</ele>
        <time>2021-07-25 14:28:58</time>
      </trkpt>
      <trkpt lat="42.72891" lon="-2.42898">
        <ele>612.4</ele>
        <time>2021-07-25 14:29:02</time>
      </trkpt>
      <trkpt lat="42.72891" lon="-2.42898">
        <ele>612.4</ele>
        <time>2021-07-25 14:29:06</time>
      </trkpt>
      <trkpt lat="42.72891" lon="-2.42898">
        <ele>612.4</ele>
        <time>2021-07-25 14:29:10</time>
      </trkpt>
      <trkpt lat="42.72891" lon="-2.42898">
        <ele>612.8</ele>
        <time>2021-07-25 14:29:14</time>
      </trkpt>
      <trkpt lat="42.72891" lon="-2.42898">
        <ele>613</ele>
        <time>2021-07-25 14:29:18</time>
      </trkpt>
      <trkpt lat="42.72891" lon="-2.42898">
        <ele>613</ele>
        <time>2021-07-25 14:29:22</time>
      </trkpt>
      <trkpt lat="42.72891" lon="-2.42898">
        <ele>613</ele>
        <time>2021-07-25 14:29:26</time>
      </trkpt>
      <trkpt lat="42.72891" lon="-2.42898">
        <ele>612.8</ele>
        <time>2021-07-25 14:29:30</time>
      </trkpt>
      <trkpt lat="42.72891" lon="-2.42898">
        <ele>613</ele>
        <time>2021-07-25 14:29:34</time>
      </trkpt>
      <trkpt lat="42.72891" lon="-2.42898">
        <ele>613</ele>
        <time>2021-07-25 14:29:38</time>
      </trkpt>
      <trkpt lat="42.72891" lon="-2.42898">
        <ele>613</ele>
        <time>2021-07-25 14:29:42</time>
      </trkpt>
      <trkpt lat="42.72891" lon="-2.42898">
        <ele>613.2</ele>
        <time>2021-07-25 14:29:46</time>
      </trkpt>
      <trkpt lat="42.72891" lon="-2.42898">
        <ele>613</ele>
        <time>2021-07-25 14:29:50</time>
      </trkpt>
      <trkpt lat="42.72891" lon="-2.42898">
        <ele>613</ele>
        <time>2021-07-25 14:29:54</time>
      </trkpt>
      <trkpt lat="42.72891" lon="-2.42898">
        <ele>613.2</ele>
        <time>2021-07-25 14:29:58</time>
      </trkpt>
      <trkpt lat="42.72891" lon="-2.42898">
        <ele>613.2</ele>
        <time>2021-07-25 14:30:02</time>
      </trkpt>
      <trkpt lat="42.72891" lon="-2.42898">
        <ele>613.2</ele>
        <time>2021-07-25 14:30:06</time>
      </trkpt>
      <trkpt lat="42.72891" lon="-2.42898">
        <ele>613.4</ele>
        <time>2021-07-25 14:30:10</time>
      </trkpt>
      <trkpt lat="42.72891" lon="-2.42898">
        <ele>613.2</ele>
        <time>2021-07-25 14:30:14</time>
      </trkpt>
      <trkpt lat="42.72891" lon="-2.42898">
        <ele>613.4</ele>
        <time>2021-07-25 14:30:18</time>
      </trkpt>
      <trkpt lat="42.72891" lon="-2.42898">
        <ele>613.2</ele>
        <time>2021-07-25 14:30:22</time>
      </trkpt>
      <trkpt lat="42.72891" lon="-2.42898">
        <ele>613.2</ele>
        <time>2021-07-25 14:30:26</time>
      </trkpt>
      <trkpt lat="42.72891" lon="-2.42898">
        <ele>613.4</ele>
        <time>2021-07-25 14:30:30</time>
      </trkpt>
      <trkpt lat="42.72891" lon="-2.42898">
        <ele>613.4</ele>
        <time>2021-07-25 14:30:34</time>
      </trkpt>
      <trkpt lat="42.72891" lon="-2.42898">
        <ele>613.2</ele>
        <time>2021-07-25 14:30:38</time>
      </trkpt>
      <trkpt lat="42.72891" lon="-2.42898">
        <ele>613.2</ele>
        <time>2021-07-25 14:30:42</time>
      </trkpt>
      <trkpt lat="42.72891" lon="-2.42898">
        <ele>613.6</ele>
        <time>2021-07-25 14:30:46</time>
      </trkpt>
      <trkpt lat="42.72891" lon="-2.42898">
        <ele>613.4</ele>
        <time>2021-07-25 14:30:50</time>
      </trkpt>
      <trkpt lat="42.72891" lon="-2.42898">
        <ele>614</ele>
        <time>2021-07-25 14:30:54</time>
      </trkpt>
      <trkpt lat="42.72891" lon="-2.42898">
        <ele>614.2</ele>
        <time>2021-07-25 14:30:58</time>
      </trkpt>
      <trkpt lat="42.72891" lon="-2.42898">
        <ele>614</ele>
        <time>2021-07-25 14:31:02</time>
      </trkpt>
      <trkpt lat="42.72891" lon="-2.42898">
        <ele>614</ele>
        <time>2021-07-25 14:31:06</time>
      </trkpt>
      <trkpt lat="42.72891" lon="-2.42898">
        <ele>614</ele>
        <time>2021-07-25 14:31:10</time>
      </trkpt>
      <trkpt lat="42.72891" lon="-2.42898">
        <ele>614</ele>
        <time>2021-07-25 14:31:14</time>
      </trkpt>
      <trkpt lat="42.72891" lon="-2.42898">
        <ele>614</ele>
        <time>2021-07-25 14:31:18</time>
      </trkpt>
      <trkpt lat="42.72891" lon="-2.42898">
        <ele>613.8</ele>
        <time>2021-07-25 14:31:22</time>
      </trkpt>
      <trkpt lat="42.72891" lon="-2.42898">
        <ele>613.8</ele>
        <time>2021-07-25 14:31:26</time>
      </trkpt>
      <trkpt lat="42.72891" lon="-2.42898">
        <ele>614</ele>
        <time>2021-07-25 14:31:30</time>
      </trkpt>
      <trkpt lat="42.72891" lon="-2.42898">
        <ele>613.6</ele>
        <time>2021-07-25 14:31:34</time>
      </trkpt>
      <trkpt lat="42.72891" lon="-2.42898">
        <ele>614</ele>
        <time>2021-07-25 14:31:38</time>
      </trkpt>
      <trkpt lat="42.72891" lon="-2.42898">
        <ele>613.6</ele>
        <time>2021-07-25 14:31:42</time>
      </trkpt>
      <trkpt lat="42.72891" lon="-2.42898">
        <ele>613.8</ele>
        <time>2021-07-25 14:31:46</time>
      </trkpt>
      <trkpt lat="42.72891" lon="-2.42898">
        <ele>614</ele>
        <time>2021-07-25 14:31:50</time>
      </trkpt>
      <trkpt lat="42.72891" lon="-2.42898">
        <ele>614.2</ele>
        <time>2021-07-25 14:31:54</time>
      </trkpt>
      <trkpt lat="42.72891" lon="-2.42898">
        <ele>614.2</ele>
        <time>2021-07-25 14:31:58</time>
      </trkpt>
      <trkpt lat="42.72891" lon="-2.42898">
        <ele>614.2</ele>
        <time>2021-07-25 14:32:02</time>
      </trkpt>
      <trkpt lat="42.72891" lon="-2.42898">
        <ele>613.8</ele>
        <time>2021-07-25 14:32:06</time>
      </trkpt>
      <trkpt lat="42.72891" lon="-2.42898">
        <ele>614</ele>
        <time>2021-07-25 14:32:10</time>
      </trkpt>
      <trkpt lat="42.72891" lon="-2.42898">
        <ele>614.2</ele>
        <time>2021-07-25 14:32:14</time>
      </trkpt>
      <trkpt lat="42.72891" lon="-2.42898">
        <ele>613.8</ele>
        <time>2021-07-25 14:32:18</time>
      </trkpt>
      <trkpt lat="42.72891" lon="-2.42898">
        <ele>613.8</ele>
        <time>2021-07-25 14:32:22</time>
      </trkpt>
      <trkpt lat="42.72891" lon="-2.42898">
        <ele>613.8</ele>
        <time>2021-07-25 14:32:26</time>
      </trkpt>
      <trkpt lat="42.72891" lon="-2.42898">
        <ele>614</ele>
        <time>2021-07-25 14:32:30</time>
      </trkpt>
      <trkpt lat="42.72891" lon="-2.42898">
        <ele>613.8</ele>
        <time>2021-07-25 14:32:34</time>
      </trkpt>
      <trkpt lat="42.72891" lon="-2.42898">
        <ele>614</ele>
        <time>2021-07-25 14:32:38</time>
      </trkpt>
      <trkpt lat="42.72891" lon="-2.42898">
        <ele>614.2</ele>
        <time>2021-07-25 14:32:42</time>
      </trkpt>
      <trkpt lat="42.72891" lon="-2.42898">
        <ele>613.8</ele>
        <time>2021-07-25 14:32:46</time>
      </trkpt>
      <trkpt lat="42.72891" lon="-2.42898">
        <ele>614</ele>
        <time>2021-07-25 14:32:50</time>
      </trkpt>
      <trkpt lat="42.72891" lon="-2.42898">
        <ele>614</ele>
        <time>2021-07-25 14:32:54</time>
      </trkpt>
      <trkpt lat="42.72891" lon="-2.42898">
        <ele>613.4</ele>
        <time>2021-07-25 14:32:58</time>
      </trkpt>
      <trkpt lat="42.72891" lon="-2.42898">
        <ele>613.4</ele>
        <time>2021-07-25 14:33:02</time>
      </trkpt>
      <trkpt lat="42.72891" lon="-2.42898">
        <ele>613.6</ele>
        <time>2021-07-25 14:33:06</time>
      </trkpt>
      <trkpt lat="42.72891" lon="-2.42898">
        <ele>613.8</ele>
        <time>2021-07-25 14:33:10</time>
      </trkpt>
      <trkpt lat="42.72891" lon="-2.42898">
        <ele>613.8</ele>
        <time>2021-07-25 14:33:14</time>
      </trkpt>
      <trkpt lat="42.72891" lon="-2.42898">
        <ele>613.8</ele>
        <time>2021-07-25 14:33:18</time>
      </trkpt>
      <trkpt lat="42.72891" lon="-2.42898">
        <ele>614</ele>
        <time>2021-07-25 14:33:22</time>
      </trkpt>
      <trkpt lat="42.72891" lon="-2.42898">
        <ele>614</ele>
        <time>2021-07-25 14:33:26</time>
      </trkpt>
      <trkpt lat="42.72891" lon="-2.42898">
        <ele>613.8</ele>
        <time>2021-07-25 14:33:30</time>
      </trkpt>
      <trkpt lat="42.72891" lon="-2.42898">
        <ele>613.8</ele>
        <time>2021-07-25 14:33:34</time>
      </trkpt>
      <trkpt lat="42.72891" lon="-2.42898">
        <ele>613.6</ele>
        <time>2021-07-25 14:33:38</time>
      </trkpt>
      <trkpt lat="42.72891" lon="-2.42898">
        <ele>614</ele>
        <time>2021-07-25 14:33:42</time>
      </trkpt>
      <trkpt lat="42.72891" lon="-2.42898">
        <ele>613.4</ele>
        <time>2021-07-25 14:33:46</time>
      </trkpt>
      <trkpt lat="42.72891" lon="-2.42898">
        <ele>613.2</ele>
        <time>2021-07-25 14:33:50</time>
      </trkpt>
      <trkpt lat="42.72891" lon="-2.42898">
        <ele>613.2</ele>
        <time>2021-07-25 14:33:54</time>
      </trkpt>
      <trkpt lat="42.72891" lon="-2.42898">
        <ele>613.4</ele>
        <time>2021-07-25 14:33:58</time>
      </trkpt>
      <trkpt lat="42.72891" lon="-2.42898">
        <ele>613.8</ele>
        <time>2021-07-25 14:34:02</time>
      </trkpt>
      <trkpt lat="42.72891" lon="-2.42898">
        <ele>613.6</ele>
        <time>2021-07-25 14:34:06</time>
      </trkpt>
      <trkpt lat="42.72891" lon="-2.42898">
        <ele>613.2</ele>
        <time>2021-07-25 14:34:10</time>
      </trkpt>
      <trkpt lat="42.72891" lon="-2.42898">
        <ele>613.2</ele>
        <time>2021-07-25 14:34:14</time>
      </trkpt>
      <trkpt lat="42.72891" lon="-2.42898">
        <ele>613.2</ele>
        <time>2021-07-25 14:34:18</time>
      </trkpt>
      <trkpt lat="42.72891" lon="-2.42898">
        <ele>613</ele>
        <time>2021-07-25 14:34:22</time>
      </trkpt>
      <trkpt lat="42.72891" lon="-2.42898">
        <ele>613</ele>
        <time>2021-07-25 14:34:26</time>
      </trkpt>
      <trkpt lat="42.72891" lon="-2.42898">
        <ele>613.2</ele>
        <time>2021-07-25 14:34:30</time>
      </trkpt>
      <trkpt lat="42.72891" lon="-2.42898">
        <ele>613.2</ele>
        <time>2021-07-25 14:34:34</time>
      </trkpt>
      <trkpt lat="42.72891" lon="-2.42898">
        <ele>613.4</ele>
        <time>2021-07-25 14:34:38</time>
      </trkpt>
      <trkpt lat="42.72891" lon="-2.42898">
        <ele>613.6</ele>
        <time>2021-07-25 14:34:42</time>
      </trkpt>
      <trkpt lat="42.72891" lon="-2.42898">
        <ele>613.8</ele>
        <time>2021-07-25 14:34:46</time>
      </trkpt>
      <trkpt lat="42.72891" lon="-2.42898">
        <ele>613.6</ele>
        <time>2021-07-25 14:34:50</time>
      </trkpt>
      <trkpt lat="42.72891" lon="-2.42898">
        <ele>613.8</ele>
        <time>2021-07-25 14:34:54</time>
      </trkpt>
      <trkpt lat="42.72891" lon="-2.42898">
        <ele>614</ele>
        <time>2021-07-25 14:34:58</time>
      </trkpt>
      <trkpt lat="42.72891" lon="-2.42898">
        <ele>613.8</ele>
        <time>2021-07-25 14:35:02</time>
      </trkpt>
      <trkpt lat="42.72891" lon="-2.42898">
        <ele>614</ele>
        <time>2021-07-25 14:35:06</time>
      </trkpt>
      <trkpt lat="42.72891" lon="-2.42898">
        <ele>614.4</ele>
        <time>2021-07-25 14:35:10</time>
      </trkpt>
      <trkpt lat="42.72891" lon="-2.42898">
        <ele>614.2</ele>
        <time>2021-07-25 14:35:14</time>
      </trkpt>
      <trkpt lat="42.72891" lon="-2.42898">
        <ele>614.4</ele>
        <time>2021-07-25 14:35:18</time>
      </trkpt>
      <trkpt lat="42.72891" lon="-2.42898">
        <ele>614.6</ele>
        <time>2021-07-25 14:35:22</time>
      </trkpt>
      <trkpt lat="42.72891" lon="-2.42898">
        <ele>614.6</ele>
        <time>2021-07-25 14:35:26</time>
      </trkpt>
      <trkpt lat="42.72891" lon="-2.42898">
        <ele>614.4</ele>
        <time>2021-07-25 14:35:30</time>
      </trkpt>
      <trkpt lat="42.72891" lon="-2.42898">
        <ele>614</ele>
        <time>2021-07-25 14:35:34</time>
      </trkpt>
      <trkpt lat="42.72891" lon="-2.42898">
        <ele>614.4</ele>
        <time>2021-07-25 14:35:38</time>
      </trkpt>
      <trkpt lat="42.72891" lon="-2.42898">
        <ele>614.6</ele>
        <time>2021-07-25 14:35:42</time>
      </trkpt>
      <trkpt lat="42.72891" lon="-2.42898">
        <ele>614.8</ele>
        <time>2021-07-25 14:35:46</time>
      </trkpt>
      <trkpt lat="42.72891" lon="-2.42898">
        <ele>614.4</ele>
        <time>2021-07-25 14:35:50</time>
      </trkpt>
      <trkpt lat="42.72891" lon="-2.42898">
        <ele>614.6</ele>
        <time>2021-07-25 14:35:54</time>
      </trkpt>
      <trkpt lat="42.72891" lon="-2.42898">
        <ele>614.6</ele>
        <time>2021-07-25 14:35:58</time>
      </trkpt>
      <trkpt lat="42.72891" lon="-2.42898">
        <ele>614.2</ele>
        <time>2021-07-25 14:36:02</time>
      </trkpt>
      <trkpt lat="42.72891" lon="-2.42898">
        <ele>614.4</ele>
        <time>2021-07-25 14:36:06</time>
      </trkpt>
      <trkpt lat="42.72891" lon="-2.42898">
        <ele>614.4</ele>
        <time>2021-07-25 14:36:10</time>
      </trkpt>
      <trkpt lat="42.72891" lon="-2.42898">
        <ele>614.2</ele>
        <time>2021-07-25 14:36:14</time>
      </trkpt>
      <trkpt lat="42.72891" lon="-2.42898">
        <ele>614.2</ele>
        <time>2021-07-25 14:36:18</time>
      </trkpt>
      <trkpt lat="42.72891" lon="-2.42898">
        <ele>614.2</ele>
        <time>2021-07-25 14:36:22</time>
      </trkpt>
      <trkpt lat="42.72891" lon="-2.42898">
        <ele>614.2</ele>
        <time>2021-07-25 14:36:26</time>
      </trkpt>
      <trkpt lat="42.72891" lon="-2.42898">
        <ele>614.4</ele>
        <time>2021-07-25 14:36:30</time>
      </trkpt>
      <trkpt lat="42.72891" lon="-2.42898">
        <ele>614.4</ele>
        <time>2021-07-25 14:36:34</time>
      </trkpt>
      <trkpt lat="42.72891" lon="-2.42898">
        <ele>613.8</ele>
        <time>2021-07-25 14:36:38</time>
      </trkpt>
      <trkpt lat="42.72891" lon="-2.42898">
        <ele>613.8</ele>
        <time>2021-07-25 14:36:42</time>
      </trkpt>
      <trkpt lat="42.72891" lon="-2.42898">
        <ele>613.8</ele>
        <time>2021-07-25 14:36:46</time>
      </trkpt>
      <trkpt lat="42.72891" lon="-2.42898">
        <ele>614</ele>
        <time>2021-07-25 14:36:50</time>
      </trkpt>
      <trkpt lat="42.72891" lon="-2.42898">
        <ele>614</ele>
        <time>2021-07-25 14:36:54</time>
      </trkpt>
      <trkpt lat="42.72891" lon="-2.42898">
        <ele>614.2</ele>
        <time>2021-07-25 14:36:58</time>
      </trkpt>
      <trkpt lat="42.72891" lon="-2.42898">
        <ele>614.2</ele>
        <time>2021-07-25 14:37:02</time>
      </trkpt>
      <trkpt lat="42.72891" lon="-2.42898">
        <ele>614.4</ele>
        <time>2021-07-25 14:37:06</time>
      </trkpt>
      <trkpt lat="42.72891" lon="-2.42898">
        <ele>614.2</ele>
        <time>2021-07-25 14:37:10</time>
      </trkpt>
      <trkpt lat="42.72891" lon="-2.42898">
        <ele>614.2</ele>
        <time>2021-07-25 14:37:14</time>
      </trkpt>
      <trkpt lat="42.72891" lon="-2.42898">
        <ele>614.2</ele>
        <time>2021-07-25 14:37:18</time>
      </trkpt>
      <trkpt lat="42.72891" lon="-2.42898">
        <ele>614.2</ele>
        <time>2021-07-25 14:37:22</time>
      </trkpt>
      <trkpt lat="42.72891" lon="-2.42898">
        <ele>614.4</ele>
        <time>2021-07-25 14:37:26</time>
      </trkpt>
      <trkpt lat="42.72891" lon="-2.42898">
        <ele>614.4</ele>
        <time>2021-07-25 14:37:30</time>
      </trkpt>
      <trkpt lat="42.72891" lon="-2.42898">
        <ele>614.2</ele>
        <time>2021-07-25 14:37:34</time>
      </trkpt>
      <trkpt lat="42.72891" lon="-2.42898">
        <ele>614.6</ele>
        <time>2021-07-25 14:37:38</time>
      </trkpt>
      <trkpt lat="42.72891" lon="-2.42898">
        <ele>614.6</ele>
        <time>2021-07-25 14:37:42</time>
      </trkpt>
      <trkpt lat="42.72891" lon="-2.42898">
        <ele>614</ele>
        <time>2021-07-25 14:37:46</time>
      </trkpt>
      <trkpt lat="42.72891" lon="-2.42898">
        <ele>614.2</ele>
        <time>2021-07-25 14:37:50</time>
      </trkpt>
      <trkpt lat="42.72891" lon="-2.42898">
        <ele>614.2</ele>
        <time>2021-07-25 14:37:54</time>
      </trkpt>
      <trkpt lat="42.72891" lon="-2.42898">
        <ele>614</ele>
        <time>2021-07-25 14:37:58</time>
      </trkpt>
      <trkpt lat="42.72891" lon="-2.42898">
        <ele>614</ele>
        <time>2021-07-25 14:38:02</time>
      </trkpt>
      <trkpt lat="42.72891" lon="-2.42898">
        <ele>614</ele>
        <time>2021-07-25 14:38:06</time>
      </trkpt>
      <trkpt lat="42.72891" lon="-2.42898">
        <ele>613.8</ele>
        <time>2021-07-25 14:38:10</time>
      </trkpt>
      <trkpt lat="42.72891" lon="-2.42898">
        <ele>614</ele>
        <time>2021-07-25 14:38:14</time>
      </trkpt>
      <trkpt lat="42.72891" lon="-2.42898">
        <ele>614</ele>
        <time>2021-07-25 14:38:18</time>
      </trkpt>
      <trkpt lat="42.72891" lon="-2.42898">
        <ele>614</ele>
        <time>2021-07-25 14:38:22</time>
      </trkpt>
      <trkpt lat="42.72891" lon="-2.42898">
        <ele>614.2</ele>
        <time>2021-07-25 14:38:26</time>
      </trkpt>
      <trkpt lat="42.72891" lon="-2.42898">
        <ele>614</ele>
        <time>2021-07-25 14:38:30</time>
      </trkpt>
      <trkpt lat="42.72891" lon="-2.42898">
        <ele>614.2</ele>
        <time>2021-07-25 14:38:34</time>
      </trkpt>
      <trkpt lat="42.72891" lon="-2.42898">
        <ele>614.2</ele>
        <time>2021-07-25 14:38:38</time>
      </trkpt>
      <trkpt lat="42.72891" lon="-2.42898">
        <ele>614.2</ele>
        <time>2021-07-25 14:38:42</time>
      </trkpt>
      <trkpt lat="42.72891" lon="-2.42898">
        <ele>614.8</ele>
        <time>2021-07-25 14:38:46</time>
      </trkpt>
      <trkpt lat="42.72891" lon="-2.42898">
        <ele>615</ele>
        <time>2021-07-25 14:38:50</time>
      </trkpt>
      <trkpt lat="42.72891" lon="-2.42898">
        <ele>615</ele>
        <time>2021-07-25 14:38:54</time>
      </trkpt>
      <trkpt lat="42.72891" lon="-2.42898">
        <ele>615</ele>
        <time>2021-07-25 14:38:58</time>
      </trkpt>
      <trkpt lat="42.72891" lon="-2.42898">
        <ele>615</ele>
        <time>2021-07-25 14:39:02</time>
      </trkpt>
      <trkpt lat="42.72891" lon="-2.42898">
        <ele>614.8</ele>
        <time>2021-07-25 14:39:06</time>
      </trkpt>
      <trkpt lat="42.72891" lon="-2.42898">
        <ele>614.4</ele>
        <time>2021-07-25 14:39:10</time>
      </trkpt>
      <trkpt lat="42.72891" lon="-2.42898">
        <ele>614.4</ele>
        <time>2021-07-25 14:39:14</time>
      </trkpt>
      <trkpt lat="42.72891" lon="-2.42898">
        <ele>613.8</ele>
        <time>2021-07-25 14:39:18</time>
      </trkpt>
      <trkpt lat="42.72891" lon="-2.42898">
        <ele>614</ele>
        <time>2021-07-25 14:39:22</time>
      </trkpt>
      <trkpt lat="42.72891" lon="-2.42898">
        <ele>613.8</ele>
        <time>2021-07-25 14:39:26</time>
      </trkpt>
      <trkpt lat="42.72891" lon="-2.42898">
        <ele>613.8</ele>
        <time>2021-07-25 14:39:30</time>
      </trkpt>
      <trkpt lat="42.72891" lon="-2.42898">
        <ele>614</ele>
        <time>2021-07-25 14:39:34</time>
      </trkpt>
      <trkpt lat="42.72891" lon="-2.42898">
        <ele>613.8</ele>
        <time>2021-07-25 14:39:38</time>
      </trkpt>
      <trkpt lat="42.72891" lon="-2.42898">
        <ele>613.6</ele>
        <time>2021-07-25 14:39:42</time>
      </trkpt>
      <trkpt lat="42.72891" lon="-2.42898">
        <ele>614</ele>
        <time>2021-07-25 14:39:46</time>
      </trkpt>
      <trkpt lat="42.72891" lon="-2.42898">
        <ele>614</ele>
        <time>2021-07-25 14:39:50</time>
      </trkpt>
      <trkpt lat="42.72891" lon="-2.42898">
        <ele>614</ele>
        <time>2021-07-25 14:39:54</time>
      </trkpt>
      <trkpt lat="42.72891" lon="-2.42898">
        <ele>614.2</ele>
        <time>2021-07-25 14:39:58</time>
      </trkpt>
      <trkpt lat="42.72891" lon="-2.42898">
        <ele>613.8</ele>
        <time>2021-07-25 14:40:02</time>
      </trkpt>
      <trkpt lat="42.72891" lon="-2.42898">
        <ele>613.6</ele>
        <time>2021-07-25 14:40:06</time>
      </trkpt>
      <trkpt lat="42.72891" lon="-2.42898">
        <ele>613.8</ele>
        <time>2021-07-25 14:40:10</time>
      </trkpt>
      <trkpt lat="42.72891" lon="-2.42898">
        <ele>613.4</ele>
        <time>2021-07-25 14:40:14</time>
      </trkpt>
      <trkpt lat="42.72891" lon="-2.42898">
        <ele>613.4</ele>
        <time>2021-07-25 14:40:18</time>
      </trkpt>
      <trkpt lat="42.72891" lon="-2.42898">
        <ele>613.6</ele>
        <time>2021-07-25 14:40:22</time>
      </trkpt>
      <trkpt lat="42.72891" lon="-2.42898">
        <ele>613.8</ele>
        <time>2021-07-25 14:40:26</time>
      </trkpt>
      <trkpt lat="42.72891" lon="-2.42898">
        <ele>613.8</ele>
        <time>2021-07-25 14:40:30</time>
      </trkpt>
      <trkpt lat="42.72891" lon="-2.42898">
        <ele>613.8</ele>
        <time>2021-07-25 14:40:34</time>
      </trkpt>
      <trkpt lat="42.72891" lon="-2.42898">
        <ele>613.8</ele>
        <time>2021-07-25 14:40:38</time>
      </trkpt>
      <trkpt lat="42.72891" lon="-2.42898">
        <ele>613.8</ele>
        <time>2021-07-25 14:40:42</time>
      </trkpt>
      <trkpt lat="42.72891" lon="-2.42898">
        <ele>613.6</ele>
        <time>2021-07-25 14:40:46</time>
      </trkpt>
      <trkpt lat="42.72891" lon="-2.42898">
        <ele>613.6</ele>
        <time>2021-07-25 14:40:50</time>
      </trkpt>
      <trkpt lat="42.72891" lon="-2.42898">
        <ele>613.4</ele>
        <time>2021-07-25 14:40:54</time>
      </trkpt>
      <trkpt lat="42.72891" lon="-2.42898">
        <ele>613.4</ele>
        <time>2021-07-25 14:40:58</time>
      </trkpt>
      <trkpt lat="42.72891" lon="-2.42898">
        <ele>613</ele>
        <time>2021-07-25 14:41:02</time>
      </trkpt>
      <trkpt lat="42.72891" lon="-2.42898">
        <ele>613.2</ele>
        <time>2021-07-25 14:41:06</time>
      </trkpt>
      <trkpt lat="42.72891" lon="-2.42898">
        <ele>613.4</ele>
        <time>2021-07-25 14:41:10</time>
      </trkpt>
      <trkpt lat="42.72891" lon="-2.42898">
        <ele>613.6</ele>
        <time>2021-07-25 14:41:14</time>
      </trkpt>
      <trkpt lat="42.72891" lon="-2.42898">
        <ele>613.2</ele>
        <time>2021-07-25 14:41:18</time>
      </trkpt>
      <trkpt lat="42.72891" lon="-2.42898">
        <ele>613.2</ele>
        <time>2021-07-25 14:41:22</time>
      </trkpt>
      <trkpt lat="42.72891" lon="-2.42898">
        <ele>613</ele>
        <time>2021-07-25 14:41:26</time>
      </trkpt>
      <trkpt lat="42.72891" lon="-2.42898">
        <ele>612.8</ele>
        <time>2021-07-25 14:41:30</time>
      </trkpt>
      <trkpt lat="42.72891" lon="-2.42898">
        <ele>613</ele>
        <time>2021-07-25 14:41:34</time>
      </trkpt>
      <trkpt lat="42.72891" lon="-2.42898">
        <ele>613</ele>
        <time>2021-07-25 14:41:38</time>
      </trkpt>
      <trkpt lat="42.72891" lon="-2.42898">
        <ele>613</ele>
        <time>2021-07-25 14:41:42</time>
      </trkpt>
      <trkpt lat="42.72891" lon="-2.42898">
        <ele>613</ele>
        <time>2021-07-25 14:41:46</time>
      </trkpt>
      <trkpt lat="42.72891" lon="-2.42898">
        <ele>613.6</ele>
        <time>2021-07-25 14:41:50</time>
      </trkpt>
      <trkpt lat="42.72891" lon="-2.42898">
        <ele>613</ele>
        <time>2021-07-25 14:41:54</time>
      </trkpt>
      <trkpt lat="42.72891" lon="-2.42898">
        <ele>613</ele>
        <time>2021-07-25 14:41:58</time>
      </trkpt>
      <trkpt lat="42.72891" lon="-2.42898">
        <ele>613.4</ele>
        <time>2021-07-25 14:42:02</time>
      </trkpt>
      <trkpt lat="42.72891" lon="-2.42898">
        <ele>613.4</ele>
        <time>2021-07-25 14:42:06</time>
      </trkpt>
      <trkpt lat="42.72891" lon="-2.42898">
        <ele>613.2</ele>
        <time>2021-07-25 14:42:10</time>
      </trkpt>
      <trkpt lat="42.72891" lon="-2.42898">
        <ele>613</ele>
        <time>2021-07-25 14:42:14</time>
      </trkpt>
      <trkpt lat="42.72891" lon="-2.42898">
        <ele>613</ele>
        <time>2021-07-25 14:42:18</time>
      </trkpt>
      <trkpt lat="42.72891" lon="-2.42898">
        <ele>613</ele>
        <time>2021-07-25 14:42:22</time>
      </trkpt>
      <trkpt lat="42.72891" lon="-2.42898">
        <ele>612.2</ele>
        <time>2021-07-25 14:42:26</time>
      </trkpt>
      <trkpt lat="42.72891" lon="-2.42898">
        <ele>613.2</ele>
        <time>2021-07-25 14:42:30</time>
      </trkpt>
      <trkpt lat="42.72891" lon="-2.42898">
        <ele>613.2</ele>
        <time>2021-07-25 14:42:34</time>
      </trkpt>
      <trkpt lat="42.72891" lon="-2.42898">
        <ele>613</ele>
        <time>2021-07-25 14:42:38</time>
      </trkpt>
      <trkpt lat="42.72891" lon="-2.42898">
        <ele>613</ele>
        <time>2021-07-25 14:42:42</time>
      </trkpt>
      <trkpt lat="42.72891" lon="-2.42898">
        <ele>613</ele>
        <time>2021-07-25 14:42:46</time>
      </trkpt>
      <trkpt lat="42.72891" lon="-2.42898">
        <ele>612.4</ele>
        <time>2021-07-25 14:42:50</time>
      </trkpt>
      <trkpt lat="42.72887" lon="-2.42894">
        <ele>612.2</ele>
        <time>2021-07-25 14:42:54</time>
      </trkpt>
      <trkpt lat="42.72886" lon="-2.42903">
        <ele>611</ele>
        <time>2021-07-25 14:42:58</time>
      </trkpt>
      <trkpt lat="42.72884" lon="-2.42916">
        <ele>611.4</ele>
        <time>2021-07-25 14:43:02</time>
      </trkpt>
      <trkpt lat="42.72884" lon="-2.42931">
        <ele>611.8</ele>
        <time>2021-07-25 14:43:06</time>
      </trkpt>
      <trkpt lat="42.7288" lon="-2.42942">
        <ele>611.4</ele>
        <time>2021-07-25 14:43:10</time>
      </trkpt>
      <trkpt lat="42.72881" lon="-2.42957">
        <ele>612</ele>
        <time>2021-07-25 14:43:14</time>
      </trkpt>
      <trkpt lat="42.72878" lon="-2.42969">
        <ele>612.4</ele>
        <time>2021-07-25 14:43:18</time>
      </trkpt>
      <trkpt lat="42.72875" lon="-2.42982">
        <ele>611.8</ele>
        <time>2021-07-25 14:43:22</time>
      </trkpt>
      <trkpt lat="42.72872" lon="-2.42999">
        <ele>612.6</ele>
        <time>2021-07-25 14:43:26</time>
      </trkpt>
      <trkpt lat="42.72869" lon="-2.43014">
        <ele>612.4</ele>
        <time>2021-07-25 14:43:30</time>
      </trkpt>
      <trkpt lat="42.72866" lon="-2.43029">
        <ele>612.4</ele>
        <time>2021-07-25 14:43:34</time>
      </trkpt>
      <trkpt lat="42.72863" lon="-2.43043">
        <ele>612.4</ele>
        <time>2021-07-25 14:43:38</time>
      </trkpt>
      <trkpt lat="42.7286" lon="-2.43056">
        <ele>612</ele>
        <time>2021-07-25 14:43:42</time>
      </trkpt>
      <trkpt lat="42.72859" lon="-2.43066">
        <ele>612.8</ele>
        <time>2021-07-25 14:43:46</time>
      </trkpt>
      <trkpt lat="42.72857" lon="-2.4308">
        <ele>612.8</ele>
        <time>2021-07-25 14:43:50</time>
      </trkpt>
      <trkpt lat="42.72856" lon="-2.43098">
        <ele>611.2</ele>
        <time>2021-07-25 14:43:54</time>
      </trkpt>
      <trkpt lat="42.72853" lon="-2.43118">
        <ele>611</ele>
        <time>2021-07-25 14:43:58</time>
      </trkpt>
      <trkpt lat="42.72846" lon="-2.43141">
        <ele>610.4</ele>
        <time>2021-07-25 14:44:02</time>
      </trkpt>
      <trkpt lat="42.72837" lon="-2.43162">
        <ele>610.8</ele>
        <time>2021-07-25 14:44:06</time>
      </trkpt>
      <trkpt lat="42.72833" lon="-2.43182">
        <ele>611</ele>
        <time>2021-07-25 14:44:10</time>
      </trkpt>
      <trkpt lat="42.72829" lon="-2.43201">
        <ele>611</ele>
        <time>2021-07-25 14:44:14</time>
      </trkpt>
      <trkpt lat="42.72825" lon="-2.4322">
        <ele>611.4</ele>
        <time>2021-07-25 14:44:18</time>
      </trkpt>
      <trkpt lat="42.72827" lon="-2.43241">
        <ele>611.4</ele>
        <time>2021-07-25 14:44:22</time>
      </trkpt>
      <trkpt lat="42.72828" lon="-2.43259">
        <ele>612.2</ele>
        <time>2021-07-25 14:44:26</time>
      </trkpt>
      <trkpt lat="42.72828" lon="-2.43277">
        <ele>612.6</ele>
        <time>2021-07-25 14:44:30</time>
      </trkpt>
      <trkpt lat="42.72834" lon="-2.43288">
        <ele>612.6</ele>
        <time>2021-07-25 14:44:34</time>
      </trkpt>
      <trkpt lat="42.72842" lon="-2.43298">
        <ele>612.2</ele>
        <time>2021-07-25 14:44:38</time>
      </trkpt>
      <trkpt lat="42.72852" lon="-2.43311">
        <ele>612</ele>
        <time>2021-07-25 14:44:42</time>
      </trkpt>
      <trkpt lat="42.72863" lon="-2.43324">
        <ele>612.4</ele>
        <time>2021-07-25 14:44:46</time>
      </trkpt>
      <trkpt lat="42.72875" lon="-2.43337">
        <ele>613.6</ele>
        <time>2021-07-25 14:44:50</time>
      </trkpt>
      <trkpt lat="42.72886" lon="-2.4335">
        <ele>612.8</ele>
        <time>2021-07-25 14:44:54</time>
      </trkpt>
      <trkpt lat="42.72896" lon="-2.43361">
        <ele>613.6</ele>
        <time>2021-07-25 14:44:58</time>
      </trkpt>
      <trkpt lat="42.72907" lon="-2.43374">
        <ele>613.8</ele>
        <time>2021-07-25 14:45:02</time>
      </trkpt>
      <trkpt lat="42.72918" lon="-2.43386">
        <ele>614.4</ele>
        <time>2021-07-25 14:45:06</time>
      </trkpt>
      <trkpt lat="42.7293" lon="-2.43399">
        <ele>613.8</ele>
        <time>2021-07-25 14:45:10</time>
      </trkpt>
      <trkpt lat="42.72942" lon="-2.43408">
        <ele>614.2</ele>
        <time>2021-07-25 14:45:14</time>
      </trkpt>
      <trkpt lat="42.72955" lon="-2.43416">
        <ele>614.6</ele>
        <time>2021-07-25 14:45:18</time>
      </trkpt>
      <trkpt lat="42.72968" lon="-2.43423">
        <ele>614.8</ele>
        <time>2021-07-25 14:45:22</time>
      </trkpt>
      <trkpt lat="42.72979" lon="-2.43431">
        <ele>615.2</ele>
        <time>2021-07-25 14:45:26</time>
      </trkpt>
      <trkpt lat="42.72991" lon="-2.43438">
        <ele>615.8</ele>
        <time>2021-07-25 14:45:30</time>
      </trkpt>
      <trkpt lat="42.73002" lon="-2.43446">
        <ele>615.4</ele>
        <time>2021-07-25 14:45:34</time>
      </trkpt>
      <trkpt lat="42.73014" lon="-2.43455">
        <ele>615.4</ele>
        <time>2021-07-25 14:45:38</time>
      </trkpt>
      <trkpt lat="42.73027" lon="-2.43465">
        <ele>615</ele>
        <time>2021-07-25 14:45:42</time>
      </trkpt>
      <trkpt lat="42.73042" lon="-2.43475">
        <ele>613.2</ele>
        <time>2021-07-25 14:45:46</time>
      </trkpt>
      <trkpt lat="42.73058" lon="-2.43485">
        <ele>613.4</ele>
        <time>2021-07-25 14:45:50</time>
      </trkpt>
      <trkpt lat="42.73075" lon="-2.43493">
        <ele>613.4</ele>
        <time>2021-07-25 14:45:54</time>
      </trkpt>
      <trkpt lat="42.73092" lon="-2.435">
        <ele>612.8</ele>
        <time>2021-07-25 14:45:58</time>
      </trkpt>
      <trkpt lat="42.73109" lon="-2.43509">
        <ele>612.2</ele>
        <time>2021-07-25 14:46:02</time>
      </trkpt>
      <trkpt lat="42.73126" lon="-2.43516">
        <ele>612</ele>
        <time>2021-07-25 14:46:06</time>
      </trkpt>
      <trkpt lat="42.73142" lon="-2.43519">
        <ele>613.2</ele>
        <time>2021-07-25 14:46:10</time>
      </trkpt>
      <trkpt lat="42.73159" lon="-2.43524">
        <ele>613</ele>
        <time>2021-07-25 14:46:14</time>
      </trkpt>
      <trkpt lat="42.73174" lon="-2.4353">
        <ele>613</ele>
        <time>2021-07-25 14:46:18</time>
      </trkpt>
      <trkpt lat="42.73189" lon="-2.43536">
        <ele>612.6</ele>
        <time>2021-07-25 14:46:22</time>
      </trkpt>
      <trkpt lat="42.73204" lon="-2.43541">
        <ele>613.8</ele>
        <time>2021-07-25 14:46:26</time>
      </trkpt>
      <trkpt lat="42.73219" lon="-2.43544">
        <ele>613.8</ele>
        <time>2021-07-25 14:46:30</time>
      </trkpt>
      <trkpt lat="42.73234" lon="-2.43544">
        <ele>615</ele>
        <time>2021-07-25 14:46:34</time>
      </trkpt>
      <trkpt lat="42.7325" lon="-2.43544">
        <ele>614.8</ele>
        <time>2021-07-25 14:46:38</time>
      </trkpt>
      <trkpt lat="42.73265" lon="-2.43549">
        <ele>614.8</ele>
        <time>2021-07-25 14:46:42</time>
      </trkpt>
      <trkpt lat="42.7328" lon="-2.43554">
        <ele>615</ele>
        <time>2021-07-25 14:46:46</time>
      </trkpt>
      <trkpt lat="42.73296" lon="-2.43558">
        <ele>615</ele>
        <time>2021-07-25 14:46:50</time>
      </trkpt>
      <trkpt lat="42.73309" lon="-2.4356">
        <ele>615</ele>
        <time>2021-07-25 14:46:54</time>
      </trkpt>
      <trkpt lat="42.73321" lon="-2.43559">
        <ele>615</ele>
        <time>2021-07-25 14:46:58</time>
      </trkpt>
      <trkpt lat="42.73333" lon="-2.43556">
        <ele>615.6</ele>
        <time>2021-07-25 14:47:02</time>
      </trkpt>
      <trkpt lat="42.73342" lon="-2.43551">
        <ele>616.4</ele>
        <time>2021-07-25 14:47:06</time>
      </trkpt>
      <trkpt lat="42.73351" lon="-2.43549">
        <ele>616.8</ele>
        <time>2021-07-25 14:47:10</time>
      </trkpt>
      <trkpt lat="42.73359" lon="-2.43548">
        <ele>616.6</ele>
        <time>2021-07-25 14:47:14</time>
      </trkpt>
      <trkpt lat="42.73367" lon="-2.43547">
        <ele>615.8</ele>
        <time>2021-07-25 14:47:18</time>
      </trkpt>
      <trkpt lat="42.73376" lon="-2.43547">
        <ele>615.8</ele>
        <time>2021-07-25 14:47:22</time>
      </trkpt>
      <trkpt lat="42.73388" lon="-2.43546">
        <ele>613.8</ele>
        <time>2021-07-25 14:47:26</time>
      </trkpt>
      <trkpt lat="42.73401" lon="-2.43545">
        <ele>613.8</ele>
        <time>2021-07-25 14:47:30</time>
      </trkpt>
      <trkpt lat="42.73412" lon="-2.43543">
        <ele>613.8</ele>
        <time>2021-07-25 14:47:34</time>
      </trkpt>
      <trkpt lat="42.73421" lon="-2.43542">
        <ele>614.4</ele>
        <time>2021-07-25 14:47:38</time>
      </trkpt>
      <trkpt lat="42.73425" lon="-2.43534">
        <ele>615.6</ele>
        <time>2021-07-25 14:47:42</time>
      </trkpt>
      <trkpt lat="42.73419" lon="-2.43533">
        <ele>617</ele>
        <time>2021-07-25 14:47:46</time>
      </trkpt>
      <trkpt lat="42.73411" lon="-2.43534">
        <ele>617.6</ele>
        <time>2021-07-25 14:47:50</time>
      </trkpt>
      <trkpt lat="42.73403" lon="-2.43533">
        <ele>618</ele>
        <time>2021-07-25 14:47:54</time>
      </trkpt>
      <trkpt lat="42.73397" lon="-2.43532">
        <ele>618.8</ele>
        <time>2021-07-25 14:47:58</time>
      </trkpt>
      <trkpt lat="42.73392" lon="-2.43532">
        <ele>619.8</ele>
        <time>2021-07-25 14:48:02</time>
      </trkpt>
      <trkpt lat="42.73385" lon="-2.43531">
        <ele>620.4</ele>
        <time>2021-07-25 14:48:06</time>
      </trkpt>
      <trkpt lat="42.73378" lon="-2.43531">
        <ele>621.4</ele>
        <time>2021-07-25 14:48:10</time>
      </trkpt>
      <trkpt lat="42.73373" lon="-2.43528">
        <ele>621.6</ele>
        <time>2021-07-25 14:48:14</time>
      </trkpt>
      <trkpt lat="42.7337" lon="-2.43523">
        <ele>622.2</ele>
        <time>2021-07-25 14:48:18</time>
      </trkpt>
      <trkpt lat="42.73371" lon="-2.43515">
        <ele>621.8</ele>
        <time>2021-07-25 14:48:22</time>
      </trkpt>
      <trkpt lat="42.73372" lon="-2.43503">
        <ele>621.4</ele>
        <time>2021-07-25 14:48:26</time>
      </trkpt>
      <trkpt lat="42.73374" lon="-2.43491">
        <ele>621.4</ele>
        <time>2021-07-25 14:48:30</time>
      </trkpt>
      <trkpt lat="42.73376" lon="-2.43479">
        <ele>622</ele>
        <time>2021-07-25 14:48:34</time>
      </trkpt>
      <trkpt lat="42.73383" lon="-2.43469">
        <ele>620.8</ele>
        <time>2021-07-25 14:48:38</time>
      </trkpt>
      <trkpt lat="42.73396" lon="-2.43459">
        <ele>618.4</ele>
        <time>2021-07-25 14:48:42</time>
      </trkpt>
      <trkpt lat="42.73411" lon="-2.43447">
        <ele>616.8</ele>
        <time>2021-07-25 14:48:46</time>
      </trkpt>
      <trkpt lat="42.73429" lon="-2.43438">
        <ele>617.8</ele>
        <time>2021-07-25 14:48:50</time>
      </trkpt>
      <trkpt lat="42.73445" lon="-2.43429">
        <ele>617.2</ele>
        <time>2021-07-25 14:48:54</time>
      </trkpt>
      <trkpt lat="42.73461" lon="-2.4342">
        <ele>617.6</ele>
        <time>2021-07-25 14:48:58</time>
      </trkpt>
      <trkpt lat="42.73478" lon="-2.4341">
        <ele>617.6</ele>
        <time>2021-07-25 14:49:02</time>
      </trkpt>
      <trkpt lat="42.73494" lon="-2.43402">
        <ele>617.6</ele>
        <time>2021-07-25 14:49:06</time>
      </trkpt>
      <trkpt lat="42.7351" lon="-2.43395">
        <ele>617.4</ele>
        <time>2021-07-25 14:49:10</time>
      </trkpt>
      <trkpt lat="42.73526" lon="-2.43388">
        <ele>617.6</ele>
        <time>2021-07-25 14:49:14</time>
      </trkpt>
      <trkpt lat="42.73542" lon="-2.43379">
        <ele>618.4</ele>
        <time>2021-07-25 14:49:18</time>
      </trkpt>
      <trkpt lat="42.73558" lon="-2.43372">
        <ele>618</ele>
        <time>2021-07-25 14:49:22</time>
      </trkpt>
      <trkpt lat="42.73576" lon="-2.43367">
        <ele>618</ele>
        <time>2021-07-25 14:49:26</time>
      </trkpt>
      <trkpt lat="42.73594" lon="-2.43366">
        <ele>617.6</ele>
        <time>2021-07-25 14:49:30</time>
      </trkpt>
      <trkpt lat="42.73612" lon="-2.43366">
        <ele>617</ele>
        <time>2021-07-25 14:49:34</time>
      </trkpt>
      <trkpt lat="42.73628" lon="-2.43368">
        <ele>618.2</ele>
        <time>2021-07-25 14:49:38</time>
      </trkpt>
      <trkpt lat="42.73643" lon="-2.43371">
        <ele>618.4</ele>
        <time>2021-07-25 14:49:42</time>
      </trkpt>
      <trkpt lat="42.73659" lon="-2.43376">
        <ele>618.4</ele>
        <time>2021-07-25 14:49:46</time>
      </trkpt>
      <trkpt lat="42.73675" lon="-2.43381">
        <ele>618.4</ele>
        <time>2021-07-25 14:49:50</time>
      </trkpt>
      <trkpt lat="42.73689" lon="-2.43389">
        <ele>618.2</ele>
        <time>2021-07-25 14:49:54</time>
      </trkpt>
      <trkpt lat="42.73702" lon="-2.43399">
        <ele>616.8</ele>
        <time>2021-07-25 14:49:58</time>
      </trkpt>
      <trkpt lat="42.73715" lon="-2.4341">
        <ele>618</ele>
        <time>2021-07-25 14:50:02</time>
      </trkpt>
      <trkpt lat="42.73727" lon="-2.43422">
        <ele>616.8</ele>
        <time>2021-07-25 14:50:06</time>
      </trkpt>
      <trkpt lat="42.73738" lon="-2.43436">
        <ele>617.6</ele>
        <time>2021-07-25 14:50:10</time>
      </trkpt>
      <trkpt lat="42.73749" lon="-2.43451">
        <ele>617.6</ele>
        <time>2021-07-25 14:50:14</time>
      </trkpt>
      <trkpt lat="42.73759" lon="-2.43469">
        <ele>618.2</ele>
        <time>2021-07-25 14:50:18</time>
      </trkpt>
      <trkpt lat="42.73767" lon="-2.43489">
        <ele>619</ele>
        <time>2021-07-25 14:50:22</time>
      </trkpt>
      <trkpt lat="42.73775" lon="-2.43511">
        <ele>618</ele>
        <time>2021-07-25 14:50:26</time>
      </trkpt>
      <trkpt lat="42.73782" lon="-2.43532">
        <ele>618.2</ele>
        <time>2021-07-25 14:50:30</time>
      </trkpt>
      <trkpt lat="42.73787" lon="-2.43557">
        <ele>618.2</ele>
        <time>2021-07-25 14:50:34</time>
      </trkpt>
      <trkpt lat="42.7379" lon="-2.43584">
        <ele>617.6</ele>
        <time>2021-07-25 14:50:38</time>
      </trkpt>
      <trkpt lat="42.73792" lon="-2.43609">
        <ele>617.4</ele>
        <time>2021-07-25 14:50:42</time>
      </trkpt>
      <trkpt lat="42.73793" lon="-2.43633">
        <ele>617.4</ele>
        <time>2021-07-25 14:50:46</time>
      </trkpt>
      <trkpt lat="42.73793" lon="-2.43657">
        <ele>616.2</ele>
        <time>2021-07-25 14:50:50</time>
      </trkpt>
      <trkpt lat="42.7379" lon="-2.4368">
        <ele>617</ele>
        <time>2021-07-25 14:50:54</time>
      </trkpt>
      <trkpt lat="42.73786" lon="-2.43702">
        <ele>617</ele>
        <time>2021-07-25 14:50:58</time>
      </trkpt>
      <trkpt lat="42.73782" lon="-2.43726">
        <ele>617.6</ele>
        <time>2021-07-25 14:51:02</time>
      </trkpt>
      <trkpt lat="42.73778" lon="-2.43748">
        <ele>617.6</ele>
        <time>2021-07-25 14:51:06</time>
      </trkpt>
      <trkpt lat="42.73774" lon="-2.4377">
        <ele>617.4</ele>
        <time>2021-07-25 14:51:10</time>
      </trkpt>
      <trkpt lat="42.7377" lon="-2.43792">
        <ele>618</ele>
        <time>2021-07-25 14:51:14</time>
      </trkpt>
      <trkpt lat="42.73766" lon="-2.43813">
        <ele>618</ele>
        <time>2021-07-25 14:51:18</time>
      </trkpt>
      <trkpt lat="42.73762" lon="-2.43833">
        <ele>617.2</ele>
        <time>2021-07-25 14:51:22</time>
      </trkpt>
      <trkpt lat="42.73758" lon="-2.43855">
        <ele>618.2</ele>
        <time>2021-07-25 14:51:26</time>
      </trkpt>
      <trkpt lat="42.73755" lon="-2.43876">
        <ele>618.2</ele>
        <time>2021-07-25 14:51:30</time>
      </trkpt>
      <trkpt lat="42.73751" lon="-2.43897">
        <ele>618</ele>
        <time>2021-07-25 14:51:34</time>
      </trkpt>
      <trkpt lat="42.73747" lon="-2.43918">
        <ele>618</ele>
        <time>2021-07-25 14:51:38</time>
      </trkpt>
      <trkpt lat="42.73743" lon="-2.43939">
        <ele>618.4</ele>
        <time>2021-07-25 14:51:42</time>
      </trkpt>
      <trkpt lat="42.7374" lon="-2.43961">
        <ele>618.8</ele>
        <time>2021-07-25 14:51:46</time>
      </trkpt>
      <trkpt lat="42.73736" lon="-2.43982">
        <ele>618.4</ele>
        <time>2021-07-25 14:51:50</time>
      </trkpt>
      <trkpt lat="42.73732" lon="-2.44003">
        <ele>619</ele>
        <time>2021-07-25 14:51:54</time>
      </trkpt>
      <trkpt lat="42.73728" lon="-2.44024">
        <ele>618.8</ele>
        <time>2021-07-25 14:51:58</time>
      </trkpt>
      <trkpt lat="42.73725" lon="-2.44045">
        <ele>619</ele>
        <time>2021-07-25 14:52:02</time>
      </trkpt>
      <trkpt lat="42.73721" lon="-2.44065">
        <ele>619.6</ele>
        <time>2021-07-25 14:52:06</time>
      </trkpt>
      <trkpt lat="42.73717" lon="-2.44087">
        <ele>619.6</ele>
        <time>2021-07-25 14:52:10</time>
      </trkpt>
      <trkpt lat="42.73714" lon="-2.44107">
        <ele>620.6</ele>
        <time>2021-07-25 14:52:14</time>
      </trkpt>
      <trkpt lat="42.73711" lon="-2.44129">
        <ele>620.6</ele>
        <time>2021-07-25 14:52:18</time>
      </trkpt>
      <trkpt lat="42.73709" lon="-2.44151">
        <ele>620.6</ele>
        <time>2021-07-25 14:52:22</time>
      </trkpt>
      <trkpt lat="42.73709" lon="-2.44173">
        <ele>620.6</ele>
        <time>2021-07-25 14:52:26</time>
      </trkpt>
      <trkpt lat="42.7371" lon="-2.44195">
        <ele>620.6</ele>
        <time>2021-07-25 14:52:30</time>
      </trkpt>
      <trkpt lat="42.73713" lon="-2.44216">
        <ele>620.8</ele>
        <time>2021-07-25 14:52:34</time>
      </trkpt>
      <trkpt lat="42.73716" lon="-2.44236">
        <ele>621</ele>
        <time>2021-07-25 14:52:38</time>
      </trkpt>
      <trkpt lat="42.73721" lon="-2.44256">
        <ele>620.6</ele>
        <time>2021-07-25 14:52:42</time>
      </trkpt>
      <trkpt lat="42.73727" lon="-2.44275">
        <ele>621.2</ele>
        <time>2021-07-25 14:52:46</time>
      </trkpt>
      <trkpt lat="42.73735" lon="-2.44292">
        <ele>621.2</ele>
        <time>2021-07-25 14:52:50</time>
      </trkpt>
      <trkpt lat="42.73743" lon="-2.44307">
        <ele>621</ele>
        <time>2021-07-25 14:52:54</time>
      </trkpt>
      <trkpt lat="42.73753" lon="-2.44322">
        <ele>621.2</ele>
        <time>2021-07-25 14:52:58</time>
      </trkpt>
      <trkpt lat="42.73763" lon="-2.44337">
        <ele>622</ele>
        <time>2021-07-25 14:53:02</time>
      </trkpt>
      <trkpt lat="42.73772" lon="-2.44351">
        <ele>621.4</ele>
        <time>2021-07-25 14:53:06</time>
      </trkpt>
      <trkpt lat="42.73782" lon="-2.44364">
        <ele>622</ele>
        <time>2021-07-25 14:53:10</time>
      </trkpt>
      <trkpt lat="42.73791" lon="-2.44376">
        <ele>621.6</ele>
        <time>2021-07-25 14:53:14</time>
      </trkpt>
      <trkpt lat="42.738" lon="-2.44383">
        <ele>621.8</ele>
        <time>2021-07-25 14:53:18</time>
      </trkpt>
      <trkpt lat="42.73808" lon="-2.44388">
        <ele>623</ele>
        <time>2021-07-25 14:53:22</time>
      </trkpt>
      <trkpt lat="42.73815" lon="-2.44393">
        <ele>621.2</ele>
        <time>2021-07-25 14:53:26</time>
      </trkpt>
      <trkpt lat="42.73827" lon="-2.444">
        <ele>622.2</ele>
        <time>2021-07-25 14:53:30</time>
      </trkpt>
      <trkpt lat="42.73839" lon="-2.44408">
        <ele>622.6</ele>
        <time>2021-07-25 14:53:34</time>
      </trkpt>
      <trkpt lat="42.7385" lon="-2.44416">
        <ele>622.8</ele>
        <time>2021-07-25 14:53:38</time>
      </trkpt>
      <trkpt lat="42.7386" lon="-2.44422">
        <ele>623.4</ele>
        <time>2021-07-25 14:53:42</time>
      </trkpt>
      <trkpt lat="42.7386" lon="-2.44422">
        <ele>623.2</ele>
        <time>2021-07-25 14:53:46</time>
      </trkpt>
      <trkpt lat="42.7386" lon="-2.44422">
        <ele>623.2</ele>
        <time>2021-07-25 14:53:50</time>
      </trkpt>
      <trkpt lat="42.7386" lon="-2.44422">
        <ele>623.4</ele>
        <time>2021-07-25 14:53:54</time>
      </trkpt>
      <trkpt lat="42.7386" lon="-2.44422">
        <ele>623.6</ele>
        <time>2021-07-25 14:53:58</time>
      </trkpt>
      <trkpt lat="42.7386" lon="-2.44422">
        <ele>623.6</ele>
        <time>2021-07-25 14:54:02</time>
      </trkpt>
      <trkpt lat="42.73863" lon="-2.44424">
        <ele>623</ele>
        <time>2021-07-25 14:54:06</time>
      </trkpt>
      <trkpt lat="42.73867" lon="-2.44429">
        <ele>623.2</ele>
        <time>2021-07-25 14:54:10</time>
      </trkpt>
      <trkpt lat="42.73867" lon="-2.44429">
        <ele>623.6</ele>
        <time>2021-07-25 14:54:14</time>
      </trkpt>
      <trkpt lat="42.73867" lon="-2.44429">
        <ele>623.6</ele>
        <time>2021-07-25 14:54:18</time>
      </trkpt>
      <trkpt lat="42.73867" lon="-2.44429">
        <ele>623.6</ele>
        <time>2021-07-25 14:54:22</time>
      </trkpt>
      <trkpt lat="42.73867" lon="-2.44429">
        <ele>623.6</ele>
        <time>2021-07-25 14:54:26</time>
      </trkpt>
      <trkpt lat="42.73867" lon="-2.44429">
        <ele>623.6</ele>
        <time>2021-07-25 14:54:30</time>
      </trkpt>
      <trkpt lat="42.73867" lon="-2.44429">
        <ele>623.4</ele>
        <time>2021-07-25 14:54:34</time>
      </trkpt>
      <trkpt lat="42.73867" lon="-2.44429">
        <ele>623.8</ele>
        <time>2021-07-25 14:54:38</time>
      </trkpt>
      <trkpt lat="42.73867" lon="-2.44429">
        <ele>623.2</ele>
        <time>2021-07-25 14:54:42</time>
      </trkpt>
      <trkpt lat="42.73867" lon="-2.44429">
        <ele>623.8</ele>
        <time>2021-07-25 14:54:46</time>
      </trkpt>
      <trkpt lat="42.73867" lon="-2.44429">
        <ele>623.6</ele>
        <time>2021-07-25 14:54:50</time>
      </trkpt>
      <trkpt lat="42.73869" lon="-2.44432">
        <ele>623.4</ele>
        <time>2021-07-25 14:54:54</time>
      </trkpt>
      <trkpt lat="42.73869" lon="-2.44432">
        <ele>623.6</ele>
        <time>2021-07-25 14:54:58</time>
      </trkpt>
      <trkpt lat="42.73869" lon="-2.44432">
        <ele>623.4</ele>
        <time>2021-07-25 14:55:02</time>
      </trkpt>
      <trkpt lat="42.73869" lon="-2.44432">
        <ele>623.4</ele>
        <time>2021-07-25 14:55:06</time>
      </trkpt>
      <trkpt lat="42.73869" lon="-2.44432">
        <ele>623.4</ele>
        <time>2021-07-25 14:55:10</time>
      </trkpt>
      <trkpt lat="42.73868" lon="-2.44434">
        <ele>623.4</ele>
        <time>2021-07-25 14:55:14</time>
      </trkpt>
      <trkpt lat="42.73866" lon="-2.44428">
        <ele>623.4</ele>
        <time>2021-07-25 14:55:18</time>
      </trkpt>
      <trkpt lat="42.73862" lon="-2.44421">
        <ele>623</ele>
        <time>2021-07-25 14:55:22</time>
      </trkpt>
      <trkpt lat="42.73855" lon="-2.44417">
        <ele>623.4</ele>
        <time>2021-07-25 14:55:26</time>
      </trkpt>
      <trkpt lat="42.73849" lon="-2.44414">
        <ele>623.6</ele>
        <time>2021-07-25 14:55:30</time>
      </trkpt>
      <trkpt lat="42.73842" lon="-2.44412">
        <ele>624</ele>
        <time>2021-07-25 14:55:34</time>
      </trkpt>
      <trkpt lat="42.73836" lon="-2.44419">
        <ele>623.4</ele>
        <time>2021-07-25 14:55:38</time>
      </trkpt>
      <trkpt lat="42.73829" lon="-2.44426">
        <ele>624</ele>
        <time>2021-07-25 14:55:42</time>
      </trkpt>
      <trkpt lat="42.73819" lon="-2.44424">
        <ele>624</ele>
        <time>2021-07-25 14:55:46</time>
      </trkpt>
      <trkpt lat="42.73811" lon="-2.44417">
        <ele>624.8</ele>
        <time>2021-07-25 14:55:50</time>
      </trkpt>
      <trkpt lat="42.73802" lon="-2.44414">
        <ele>625.6</ele>
        <time>2021-07-25 14:55:54</time>
      </trkpt>
      <trkpt lat="42.73793" lon="-2.44413">
        <ele>626.6</ele>
        <time>2021-07-25 14:55:58</time>
      </trkpt>
      <trkpt lat="42.73785" lon="-2.44417">
        <ele>627.4</ele>
        <time>2021-07-25 14:56:02</time>
      </trkpt>
      <trkpt lat="42.73779" lon="-2.44424">
        <ele>627.4</ele>
        <time>2021-07-25 14:56:06</time>
      </trkpt>
      <trkpt lat="42.73775" lon="-2.44432">
        <ele>628.6</ele>
        <time>2021-07-25 14:56:10</time>
      </trkpt>
      <trkpt lat="42.7377" lon="-2.4444">
        <ele>629.6</ele>
        <time>2021-07-25 14:56:14</time>
      </trkpt>
      <trkpt lat="42.73767" lon="-2.44449">
        <ele>630.2</ele>
        <time>2021-07-25 14:56:18</time>
      </trkpt>
      <trkpt lat="42.73768" lon="-2.44462">
        <ele>630.6</ele>
        <time>2021-07-25 14:56:22</time>
      </trkpt>
      <trkpt lat="42.73773" lon="-2.44473">
        <ele>630.8</ele>
        <time>2021-07-25 14:56:26</time>
      </trkpt>
      <trkpt lat="42.73778" lon="-2.44484">
        <ele>631.4</ele>
        <time>2021-07-25 14:56:30</time>
      </trkpt>
      <trkpt lat="42.73782" lon="-2.44497">
        <ele>632</ele>
        <time>2021-07-25 14:56:34</time>
      </trkpt>
      <trkpt lat="42.73786" lon="-2.4451">
        <ele>632.6</ele>
        <time>2021-07-25 14:56:38</time>
      </trkpt>
      <trkpt lat="42.7379" lon="-2.44522">
        <ele>633.2</ele>
        <time>2021-07-25 14:56:42</time>
      </trkpt>
      <trkpt lat="42.73794" lon="-2.44535">
        <ele>633.4</ele>
        <time>2021-07-25 14:56:46</time>
      </trkpt>
      <trkpt lat="42.73797" lon="-2.44548">
        <ele>634.2</ele>
        <time>2021-07-25 14:56:50</time>
      </trkpt>
      <trkpt lat="42.738" lon="-2.44562">
        <ele>634.8</ele>
        <time>2021-07-25 14:56:54</time>
      </trkpt>
      <trkpt lat="42.73803" lon="-2.44575">
        <ele>635.2</ele>
        <time>2021-07-25 14:56:58</time>
      </trkpt>
      <trkpt lat="42.73806" lon="-2.44588">
        <ele>635.4</ele>
        <time>2021-07-25 14:57:02</time>
      </trkpt>
      <trkpt lat="42.73808" lon="-2.44601">
        <ele>636</ele>
        <time>2021-07-25 14:57:06</time>
      </trkpt>
      <trkpt lat="42.73811" lon="-2.44614">
        <ele>636.8</ele>
        <time>2021-07-25 14:57:10</time>
      </trkpt>
      <trkpt lat="42.73814" lon="-2.44627">
        <ele>636.6</ele>
        <time>2021-07-25 14:57:14</time>
      </trkpt>
      <trkpt lat="42.73817" lon="-2.4464">
        <ele>637.4</ele>
        <time>2021-07-25 14:57:18</time>
      </trkpt>
      <trkpt lat="42.7382" lon="-2.44653">
        <ele>638.2</ele>
        <time>2021-07-25 14:57:22</time>
      </trkpt>
      <trkpt lat="42.73823" lon="-2.44667">
        <ele>638.6</ele>
        <time>2021-07-25 14:57:26</time>
      </trkpt>
      <trkpt lat="42.73826" lon="-2.4468">
        <ele>639.2</ele>
        <time>2021-07-25 14:57:30</time>
      </trkpt>
      <trkpt lat="42.73829" lon="-2.44691">
        <ele>639.6</ele>
        <time>2021-07-25 14:57:34</time>
      </trkpt>
      <trkpt lat="42.73831" lon="-2.44702">
        <ele>639.6</ele>
        <time>2021-07-25 14:57:38</time>
      </trkpt>
      <trkpt lat="42.73835" lon="-2.44715">
        <ele>639.2</ele>
        <time>2021-07-25 14:57:42</time>
      </trkpt>
      <trkpt lat="42.73839" lon="-2.44729">
        <ele>639.8</ele>
        <time>2021-07-25 14:57:46</time>
      </trkpt>
      <trkpt lat="42.73844" lon="-2.44745">
        <ele>639.8</ele>
        <time>2021-07-25 14:57:50</time>
      </trkpt>
      <trkpt lat="42.7385" lon="-2.44763">
        <ele>639.2</ele>
        <time>2021-07-25 14:57:54</time>
      </trkpt>
      <trkpt lat="42.73856" lon="-2.44782">
        <ele>639</ele>
        <time>2021-07-25 14:57:58</time>
      </trkpt>
      <trkpt lat="42.73863" lon="-2.44802">
        <ele>639.4</ele>
        <time>2021-07-25 14:58:02</time>
      </trkpt>
      <trkpt lat="42.73869" lon="-2.44821">
        <ele>639.8</ele>
        <time>2021-07-25 14:58:06</time>
      </trkpt>
      <trkpt lat="42.73876" lon="-2.44839">
        <ele>640.2</ele>
        <time>2021-07-25 14:58:10</time>
      </trkpt>
      <trkpt lat="42.73882" lon="-2.44857">
        <ele>640.2</ele>
        <time>2021-07-25 14:58:14</time>
      </trkpt>
      <trkpt lat="42.73888" lon="-2.44874">
        <ele>640.8</ele>
        <time>2021-07-25 14:58:18</time>
      </trkpt>
      <trkpt lat="42.73894" lon="-2.44891">
        <ele>640.8</ele>
        <time>2021-07-25 14:58:22</time>
      </trkpt>
      <trkpt lat="42.739" lon="-2.44908">
        <ele>641.2</ele>
        <time>2021-07-25 14:58:26</time>
      </trkpt>
      <trkpt lat="42.73906" lon="-2.44925">
        <ele>641.8</ele>
        <time>2021-07-25 14:58:30</time>
      </trkpt>
      <trkpt lat="42.73913" lon="-2.44942">
        <ele>641.6</ele>
        <time>2021-07-25 14:58:34</time>
      </trkpt>
      <trkpt lat="42.73919" lon="-2.44959">
        <ele>641.6</ele>
        <time>2021-07-25 14:58:38</time>
      </trkpt>
      <trkpt lat="42.73925" lon="-2.44976">
        <ele>641.4</ele>
        <time>2021-07-25 14:58:42</time>
      </trkpt>
      <trkpt lat="42.73931" lon="-2.44994">
        <ele>641.6</ele>
        <time>2021-07-25 14:58:46</time>
      </trkpt>
      <trkpt lat="42.73937" lon="-2.45011">
        <ele>641</ele>
        <time>2021-07-25 14:58:50</time>
      </trkpt>
      <trkpt lat="42.73943" lon="-2.45027">
        <ele>641.8</ele>
        <time>2021-07-25 14:58:54</time>
      </trkpt>
      <trkpt lat="42.7395" lon="-2.45046">
        <ele>641</ele>
        <time>2021-07-25 14:58:58</time>
      </trkpt>
      <trkpt lat="42.73956" lon="-2.45065">
        <ele>642</ele>
        <time>2021-07-25 14:59:02</time>
      </trkpt>
      <trkpt lat="42.73963" lon="-2.45084">
        <ele>640.2</ele>
        <time>2021-07-25 14:59:06</time>
      </trkpt>
      <trkpt lat="42.73971" lon="-2.45104">
        <ele>641</ele>
        <time>2021-07-25 14:59:10</time>
      </trkpt>
      <trkpt lat="42.73979" lon="-2.45124">
        <ele>641.4</ele>
        <time>2021-07-25 14:59:14</time>
      </trkpt>
      <trkpt lat="42.73987" lon="-2.45144">
        <ele>642.8</ele>
        <time>2021-07-25 14:59:18</time>
      </trkpt>
      <trkpt lat="42.73996" lon="-2.45165">
        <ele>641.4</ele>
        <time>2021-07-25 14:59:22</time>
      </trkpt>
      <trkpt lat="42.74005" lon="-2.45187">
        <ele>641.8</ele>
        <time>2021-07-25 14:59:26</time>
      </trkpt>
      <trkpt lat="42.74015" lon="-2.45212">
        <ele>641.2</ele>
        <time>2021-07-25 14:59:30</time>
      </trkpt>
      <trkpt lat="42.74024" lon="-2.45239">
        <ele>640.4</ele>
        <time>2021-07-25 14:59:34</time>
      </trkpt>
      <trkpt lat="42.74033" lon="-2.45267">
        <ele>640.4</ele>
        <time>2021-07-25 14:59:38</time>
      </trkpt>
      <trkpt lat="42.74042" lon="-2.45296">
        <ele>639</ele>
        <time>2021-07-25 14:59:42</time>
      </trkpt>
      <trkpt lat="42.74051" lon="-2.45324">
        <ele>637.6</ele>
        <time>2021-07-25 14:59:46</time>
      </trkpt>
      <trkpt lat="42.74061" lon="-2.45352">
        <ele>638.6</ele>
        <time>2021-07-25 14:59:50</time>
      </trkpt>
      <trkpt lat="42.7407" lon="-2.45379">
        <ele>637.8</ele>
        <time>2021-07-25 14:59:54</time>
      </trkpt>
      <trkpt lat="42.7408" lon="-2.45405">
        <ele>637.6</ele>
        <time>2021-07-25 14:59:58</time>
      </trkpt>
      <trkpt lat="42.7409" lon="-2.45431">
        <ele>637.2</ele>
        <time>2021-07-25 15:00:02</time>
      </trkpt>
      <trkpt lat="42.741" lon="-2.45458">
        <ele>637</ele>
        <time>2021-07-25 15:00:06</time>
      </trkpt>
      <trkpt lat="42.7411" lon="-2.45485">
        <ele>635.8</ele>
        <time>2021-07-25 15:00:10</time>
      </trkpt>
      <trkpt lat="42.7412" lon="-2.45513">
        <ele>635.4</ele>
        <time>2021-07-25 15:00:14</time>
      </trkpt>
      <trkpt lat="42.7413" lon="-2.45541">
        <ele>633</ele>
        <time>2021-07-25 15:00:18</time>
      </trkpt>
      <trkpt lat="42.7414" lon="-2.45568">
        <ele>633.2</ele>
        <time>2021-07-25 15:00:22</time>
      </trkpt>
      <trkpt lat="42.7415" lon="-2.45596">
        <ele>634.2</ele>
        <time>2021-07-25 15:00:26</time>
      </trkpt>
      <trkpt lat="42.74161" lon="-2.45623">
        <ele>631</ele>
        <time>2021-07-25 15:00:30</time>
      </trkpt>
      <trkpt lat="42.74172" lon="-2.45651">
        <ele>631.2</ele>
        <time>2021-07-25 15:00:34</time>
      </trkpt>
      <trkpt lat="42.74183" lon="-2.45677">
        <ele>632</ele>
        <time>2021-07-25 15:00:38</time>
      </trkpt>
      <trkpt lat="42.74194" lon="-2.45702">
        <ele>631.4</ele>
        <time>2021-07-25 15:00:42</time>
      </trkpt>
      <trkpt lat="42.74206" lon="-2.45725">
        <ele>632.2</ele>
        <time>2021-07-25 15:00:46</time>
      </trkpt>
      <trkpt lat="42.74218" lon="-2.45747">
        <ele>633.2</ele>
        <time>2021-07-25 15:00:50</time>
      </trkpt>
      <trkpt lat="42.7423" lon="-2.45769">
        <ele>633.8</ele>
        <time>2021-07-25 15:00:54</time>
      </trkpt>
      <trkpt lat="42.74242" lon="-2.45791">
        <ele>633.6</ele>
        <time>2021-07-25 15:00:58</time>
      </trkpt>
      <trkpt lat="42.74255" lon="-2.45811">
        <ele>634</ele>
        <time>2021-07-25 15:01:02</time>
      </trkpt>
      <trkpt lat="42.74266" lon="-2.45831">
        <ele>634.8</ele>
        <time>2021-07-25 15:01:06</time>
      </trkpt>
      <trkpt lat="42.74278" lon="-2.45852">
        <ele>635.8</ele>
        <time>2021-07-25 15:01:10</time>
      </trkpt>
      <trkpt lat="42.7429" lon="-2.45872">
        <ele>635.8</ele>
        <time>2021-07-25 15:01:14</time>
      </trkpt>
      <trkpt lat="42.74302" lon="-2.45893">
        <ele>635</ele>
        <time>2021-07-25 15:01:18</time>
      </trkpt>
      <trkpt lat="42.74314" lon="-2.45913">
        <ele>636</ele>
        <time>2021-07-25 15:01:22</time>
      </trkpt>
      <trkpt lat="42.74325" lon="-2.45932">
        <ele>636.2</ele>
        <time>2021-07-25 15:01:26</time>
      </trkpt>
      <trkpt lat="42.74335" lon="-2.45949">
        <ele>637.2</ele>
        <time>2021-07-25 15:01:30</time>
      </trkpt>
      <trkpt lat="42.74345" lon="-2.45966">
        <ele>637.6</ele>
        <time>2021-07-25 15:01:34</time>
      </trkpt>
      <trkpt lat="42.74354" lon="-2.45982">
        <ele>638.6</ele>
        <time>2021-07-25 15:01:38</time>
      </trkpt>
      <trkpt lat="42.74363" lon="-2.45998">
        <ele>638.6</ele>
        <time>2021-07-25 15:01:42</time>
      </trkpt>
      <trkpt lat="42.74372" lon="-2.46013">
        <ele>638.8</ele>
        <time>2021-07-25 15:01:46</time>
      </trkpt>
      <trkpt lat="42.74381" lon="-2.46027">
        <ele>639.2</ele>
        <time>2021-07-25 15:01:50</time>
      </trkpt>
      <trkpt lat="42.7439" lon="-2.46042">
        <ele>639.4</ele>
        <time>2021-07-25 15:01:54</time>
      </trkpt>
      <trkpt lat="42.74399" lon="-2.46057">
        <ele>640.4</ele>
        <time>2021-07-25 15:01:58</time>
      </trkpt>
      <trkpt lat="42.74407" lon="-2.46072">
        <ele>640.4</ele>
        <time>2021-07-25 15:02:02</time>
      </trkpt>
      <trkpt lat="42.74416" lon="-2.46087">
        <ele>640.6</ele>
        <time>2021-07-25 15:02:06</time>
      </trkpt>
      <trkpt lat="42.74425" lon="-2.46101">
        <ele>641.4</ele>
        <time>2021-07-25 15:02:10</time>
      </trkpt>
      <trkpt lat="42.74434" lon="-2.46117">
        <ele>641.4</ele>
        <time>2021-07-25 15:02:14</time>
      </trkpt>
      <trkpt lat="42.74443" lon="-2.46132">
        <ele>641.8</ele>
        <time>2021-07-25 15:02:18</time>
      </trkpt>
      <trkpt lat="42.74451" lon="-2.46146">
        <ele>641.4</ele>
        <time>2021-07-25 15:02:22</time>
      </trkpt>
      <trkpt lat="42.74459" lon="-2.46161">
        <ele>641.6</ele>
        <time>2021-07-25 15:02:26</time>
      </trkpt>
      <trkpt lat="42.74468" lon="-2.46175">
        <ele>642</ele>
        <time>2021-07-25 15:02:30</time>
      </trkpt>
      <trkpt lat="42.74477" lon="-2.4619">
        <ele>641.6</ele>
        <time>2021-07-25 15:02:34</time>
      </trkpt>
      <trkpt lat="42.74485" lon="-2.46204">
        <ele>643</ele>
        <time>2021-07-25 15:02:38</time>
      </trkpt>
      <trkpt lat="42.74494" lon="-2.46219">
        <ele>643.6</ele>
        <time>2021-07-25 15:02:42</time>
      </trkpt>
      <trkpt lat="42.74503" lon="-2.46234">
        <ele>643.6</ele>
        <time>2021-07-25 15:02:46</time>
      </trkpt>
      <trkpt lat="42.74511" lon="-2.46249">
        <ele>643</ele>
        <time>2021-07-25 15:02:50</time>
      </trkpt>
      <trkpt lat="42.74521" lon="-2.46264">
        <ele>643</ele>
        <time>2021-07-25 15:02:54</time>
      </trkpt>
      <trkpt lat="42.74529" lon="-2.46279">
        <ele>643.2</ele>
        <time>2021-07-25 15:02:58</time>
      </trkpt>
      <trkpt lat="42.74538" lon="-2.46294">
        <ele>644.4</ele>
        <time>2021-07-25 15:03:02</time>
      </trkpt>
      <trkpt lat="42.74547" lon="-2.46309">
        <ele>643.2</ele>
        <time>2021-07-25 15:03:06</time>
      </trkpt>
      <trkpt lat="42.74556" lon="-2.46323">
        <ele>643.2</ele>
        <time>2021-07-25 15:03:10</time>
      </trkpt>
      <trkpt lat="42.74564" lon="-2.46338">
        <ele>643.8</ele>
        <time>2021-07-25 15:03:14</time>
      </trkpt>
      <trkpt lat="42.74573" lon="-2.46353">
        <ele>643</ele>
        <time>2021-07-25 15:03:18</time>
      </trkpt>
      <trkpt lat="42.74581" lon="-2.46367">
        <ele>645.4</ele>
        <time>2021-07-25 15:03:22</time>
      </trkpt>
      <trkpt lat="42.7459" lon="-2.46381">
        <ele>644.6</ele>
        <time>2021-07-25 15:03:26</time>
      </trkpt>
      <trkpt lat="42.74598" lon="-2.46396">
        <ele>645.2</ele>
        <time>2021-07-25 15:03:30</time>
      </trkpt>
      <trkpt lat="42.74607" lon="-2.46412">
        <ele>644.2</ele>
        <time>2021-07-25 15:03:34</time>
      </trkpt>
      <trkpt lat="42.74617" lon="-2.46427">
        <ele>645.2</ele>
        <time>2021-07-25 15:03:38</time>
      </trkpt>
      <trkpt lat="42.74626" lon="-2.46443">
        <ele>645.2</ele>
        <time>2021-07-25 15:03:42</time>
      </trkpt>
      <trkpt lat="42.74636" lon="-2.46459">
        <ele>645.2</ele>
        <time>2021-07-25 15:03:46</time>
      </trkpt>
      <trkpt lat="42.74645" lon="-2.46474">
        <ele>645.6</ele>
        <time>2021-07-25 15:03:50</time>
      </trkpt>
      <trkpt lat="42.74653" lon="-2.4649">
        <ele>645.8</ele>
        <time>2021-07-25 15:03:54</time>
      </trkpt>
      <trkpt lat="42.74663" lon="-2.46505">
        <ele>646.4</ele>
        <time>2021-07-25 15:03:58</time>
      </trkpt>
      <trkpt lat="42.74672" lon="-2.46521">
        <ele>646</ele>
        <time>2021-07-25 15:04:02</time>
      </trkpt>
      <trkpt lat="42.74681" lon="-2.46537">
        <ele>645.6</ele>
        <time>2021-07-25 15:04:06</time>
      </trkpt>
      <trkpt lat="42.74691" lon="-2.46552">
        <ele>645.6</ele>
        <time>2021-07-25 15:04:10</time>
      </trkpt>
      <trkpt lat="42.747" lon="-2.46568">
        <ele>647.6</ele>
        <time>2021-07-25 15:04:14</time>
      </trkpt>
      <trkpt lat="42.74709" lon="-2.46584">
        <ele>648.2</ele>
        <time>2021-07-25 15:04:18</time>
      </trkpt>
      <trkpt lat="42.74719" lon="-2.466">
        <ele>648.2</ele>
        <time>2021-07-25 15:04:22</time>
      </trkpt>
      <trkpt lat="42.74728" lon="-2.46616">
        <ele>648.2</ele>
        <time>2021-07-25 15:04:26</time>
      </trkpt>
      <trkpt lat="42.74737" lon="-2.46632">
        <ele>647.8</ele>
        <time>2021-07-25 15:04:30</time>
      </trkpt>
      <trkpt lat="42.74746" lon="-2.46647">
        <ele>648.4</ele>
        <time>2021-07-25 15:04:34</time>
      </trkpt>
      <trkpt lat="42.74755" lon="-2.46661">
        <ele>649.6</ele>
        <time>2021-07-25 15:04:38</time>
      </trkpt>
      <trkpt lat="42.74763" lon="-2.46675">
        <ele>649.4</ele>
        <time>2021-07-25 15:04:42</time>
      </trkpt>
      <trkpt lat="42.7477" lon="-2.46687">
        <ele>650</ele>
        <time>2021-07-25 15:04:46</time>
      </trkpt>
      <trkpt lat="42.74778" lon="-2.46701">
        <ele>649.8</ele>
        <time>2021-07-25 15:04:50</time>
      </trkpt>
      <trkpt lat="42.74786" lon="-2.46714">
        <ele>650.6</ele>
        <time>2021-07-25 15:04:54</time>
      </trkpt>
      <trkpt lat="42.74794" lon="-2.46727">
        <ele>651.6</ele>
        <time>2021-07-25 15:04:58</time>
      </trkpt>
      <trkpt lat="42.74802" lon="-2.46741">
        <ele>651.2</ele>
        <time>2021-07-25 15:05:02</time>
      </trkpt>
      <trkpt lat="42.7481" lon="-2.46754">
        <ele>651.8</ele>
        <time>2021-07-25 15:05:06</time>
      </trkpt>
      <trkpt lat="42.74818" lon="-2.46767">
        <ele>652.2</ele>
        <time>2021-07-25 15:05:10</time>
      </trkpt>
      <trkpt lat="42.74826" lon="-2.4678">
        <ele>653.2</ele>
        <time>2021-07-25 15:05:14</time>
      </trkpt>
      <trkpt lat="42.74833" lon="-2.46793">
        <ele>651.8</ele>
        <time>2021-07-25 15:05:18</time>
      </trkpt>
      <trkpt lat="42.7484" lon="-2.46806">
        <ele>652.2</ele>
        <time>2021-07-25 15:05:22</time>
      </trkpt>
      <trkpt lat="42.74848" lon="-2.46819">
        <ele>652.4</ele>
        <time>2021-07-25 15:05:26</time>
      </trkpt>
      <trkpt lat="42.74856" lon="-2.46832">
        <ele>653</ele>
        <time>2021-07-25 15:05:30</time>
      </trkpt>
      <trkpt lat="42.74864" lon="-2.46846">
        <ele>653</ele>
        <time>2021-07-25 15:05:34</time>
      </trkpt>
      <trkpt lat="42.74872" lon="-2.46861">
        <ele>654.4</ele>
        <time>2021-07-25 15:05:38</time>
      </trkpt>
      <trkpt lat="42.74881" lon="-2.46876">
        <ele>653.2</ele>
        <time>2021-07-25 15:05:42</time>
      </trkpt>
      <trkpt lat="42.7489" lon="-2.46892">
        <ele>651.2</ele>
        <time>2021-07-25 15:05:46</time>
      </trkpt>
      <trkpt lat="42.74899" lon="-2.46908">
        <ele>653</ele>
        <time>2021-07-25 15:05:50</time>
      </trkpt>
      <trkpt lat="42.74908" lon="-2.46925">
        <ele>652.6</ele>
        <time>2021-07-25 15:05:54</time>
      </trkpt>
      <trkpt lat="42.74918" lon="-2.46943">
        <ele>652.6</ele>
        <time>2021-07-25 15:05:58</time>
      </trkpt>
      <trkpt lat="42.74928" lon="-2.46962">
        <ele>652.6</ele>
        <time>2021-07-25 15:06:02</time>
      </trkpt>
      <trkpt lat="42.74938" lon="-2.46981">
        <ele>652.4</ele>
        <time>2021-07-25 15:06:06</time>
      </trkpt>
      <trkpt lat="42.74947" lon="-2.47001">
        <ele>652.4</ele>
        <time>2021-07-25 15:06:10</time>
      </trkpt>
      <trkpt lat="42.74957" lon="-2.47021">
        <ele>652.4</ele>
        <time>2021-07-25 15:06:14</time>
      </trkpt>
      <trkpt lat="42.74967" lon="-2.4704">
        <ele>652.2</ele>
        <time>2021-07-25 15:06:18</time>
      </trkpt>
      <trkpt lat="42.74977" lon="-2.47059">
        <ele>653.2</ele>
        <time>2021-07-25 15:06:22</time>
      </trkpt>
      <trkpt lat="42.74986" lon="-2.47078">
        <ele>654.2</ele>
        <time>2021-07-25 15:06:26</time>
      </trkpt>
      <trkpt lat="42.74995" lon="-2.47096">
        <ele>654.8</ele>
        <time>2021-07-25 15:06:30</time>
      </trkpt>
      <trkpt lat="42.75004" lon="-2.47113">
        <ele>654.8</ele>
        <time>2021-07-25 15:06:34</time>
      </trkpt>
      <trkpt lat="42.75012" lon="-2.47131">
        <ele>655.4</ele>
        <time>2021-07-25 15:06:38</time>
      </trkpt>
      <trkpt lat="42.7502" lon="-2.47147">
        <ele>655.4</ele>
        <time>2021-07-25 15:06:42</time>
      </trkpt>
      <trkpt lat="42.75028" lon="-2.47163">
        <ele>655.4</ele>
        <time>2021-07-25 15:06:46</time>
      </trkpt>
      <trkpt lat="42.75036" lon="-2.47178">
        <ele>655.6</ele>
        <time>2021-07-25 15:06:50</time>
      </trkpt>
      <trkpt lat="42.75043" lon="-2.47191">
        <ele>656.2</ele>
        <time>2021-07-25 15:06:54</time>
      </trkpt>
      <trkpt lat="42.75049" lon="-2.47205">
        <ele>656.4</ele>
        <time>2021-07-25 15:06:58</time>
      </trkpt>
      <trkpt lat="42.75056" lon="-2.47218">
        <ele>655.8</ele>
        <time>2021-07-25 15:07:02</time>
      </trkpt>
      <trkpt lat="42.75063" lon="-2.47231">
        <ele>657</ele>
        <time>2021-07-25 15:07:06</time>
      </trkpt>
      <trkpt lat="42.75069" lon="-2.47244">
        <ele>657.4</ele>
        <time>2021-07-25 15:07:10</time>
      </trkpt>
      <trkpt lat="42.75076" lon="-2.47257">
        <ele>657.2</ele>
        <time>2021-07-25 15:07:14</time>
      </trkpt>
      <trkpt lat="42.75083" lon="-2.47269">
        <ele>657.6</ele>
        <time>2021-07-25 15:07:18</time>
      </trkpt>
      <trkpt lat="42.75089" lon="-2.47282">
        <ele>658.2</ele>
        <time>2021-07-25 15:07:22</time>
      </trkpt>
      <trkpt lat="42.75095" lon="-2.47296">
        <ele>658</ele>
        <time>2021-07-25 15:07:26</time>
      </trkpt>
      <trkpt lat="42.75102" lon="-2.47309">
        <ele>657.8</ele>
        <time>2021-07-25 15:07:30</time>
      </trkpt>
      <trkpt lat="42.75109" lon="-2.47322">
        <ele>658.8</ele>
        <time>2021-07-25 15:07:34</time>
      </trkpt>
      <trkpt lat="42.75116" lon="-2.47336">
        <ele>659</ele>
        <time>2021-07-25 15:07:38</time>
      </trkpt>
      <trkpt lat="42.75122" lon="-2.4735">
        <ele>659.6</ele>
        <time>2021-07-25 15:07:42</time>
      </trkpt>
      <trkpt lat="42.7513" lon="-2.47364">
        <ele>658.8</ele>
        <time>2021-07-25 15:07:46</time>
      </trkpt>
      <trkpt lat="42.75137" lon="-2.47378">
        <ele>659.4</ele>
        <time>2021-07-25 15:07:50</time>
      </trkpt>
      <trkpt lat="42.75144" lon="-2.47393">
        <ele>659</ele>
        <time>2021-07-25 15:07:54</time>
      </trkpt>
      <trkpt lat="42.75151" lon="-2.47408">
        <ele>659.6</ele>
        <time>2021-07-25 15:07:58</time>
      </trkpt>
      <trkpt lat="42.75159" lon="-2.47421">
        <ele>660</ele>
        <time>2021-07-25 15:08:02</time>
      </trkpt>
      <trkpt lat="42.75167" lon="-2.47436">
        <ele>659.6</ele>
        <time>2021-07-25 15:08:06</time>
      </trkpt>
      <trkpt lat="42.75174" lon="-2.47451">
        <ele>659.8</ele>
        <time>2021-07-25 15:08:10</time>
      </trkpt>
      <trkpt lat="42.75182" lon="-2.47466">
        <ele>661</ele>
        <time>2021-07-25 15:08:14</time>
      </trkpt>
      <trkpt lat="42.7519" lon="-2.47482">
        <ele>661</ele>
        <time>2021-07-25 15:08:18</time>
      </trkpt>
      <trkpt lat="42.75198" lon="-2.47499">
        <ele>661.2</ele>
        <time>2021-07-25 15:08:22</time>
      </trkpt>
      <trkpt lat="42.75208" lon="-2.47517">
        <ele>661</ele>
        <time>2021-07-25 15:08:26</time>
      </trkpt>
      <trkpt lat="42.75218" lon="-2.47535">
        <ele>661.2</ele>
        <time>2021-07-25 15:08:30</time>
      </trkpt>
      <trkpt lat="42.75227" lon="-2.47554">
        <ele>661.2</ele>
        <time>2021-07-25 15:08:34</time>
      </trkpt>
      <trkpt lat="42.75236" lon="-2.47573">
        <ele>661.2</ele>
        <time>2021-07-25 15:08:38</time>
      </trkpt>
      <trkpt lat="42.75245" lon="-2.47591">
        <ele>660.2</ele>
        <time>2021-07-25 15:08:42</time>
      </trkpt>
      <trkpt lat="42.75255" lon="-2.4761">
        <ele>660</ele>
        <time>2021-07-25 15:08:46</time>
      </trkpt>
      <trkpt lat="42.75264" lon="-2.47628">
        <ele>661.2</ele>
        <time>2021-07-25 15:08:50</time>
      </trkpt>
      <trkpt lat="42.75274" lon="-2.47647">
        <ele>661.6</ele>
        <time>2021-07-25 15:08:54</time>
      </trkpt>
      <trkpt lat="42.75284" lon="-2.47666">
        <ele>661.4</ele>
        <time>2021-07-25 15:08:58</time>
      </trkpt>
      <trkpt lat="42.75293" lon="-2.47684">
        <ele>662</ele>
        <time>2021-07-25 15:09:02</time>
      </trkpt>
      <trkpt lat="42.75303" lon="-2.47702">
        <ele>662</ele>
        <time>2021-07-25 15:09:06</time>
      </trkpt>
      <trkpt lat="42.75314" lon="-2.4772">
        <ele>661.4</ele>
        <time>2021-07-25 15:09:10</time>
      </trkpt>
      <trkpt lat="42.75325" lon="-2.47736">
        <ele>661.2</ele>
        <time>2021-07-25 15:09:14</time>
      </trkpt>
      <trkpt lat="42.75339" lon="-2.47751">
        <ele>661.6</ele>
        <time>2021-07-25 15:09:18</time>
      </trkpt>
      <trkpt lat="42.75353" lon="-2.47762">
        <ele>662.4</ele>
        <time>2021-07-25 15:09:22</time>
      </trkpt>
      <trkpt lat="42.75368" lon="-2.47771">
        <ele>662</ele>
        <time>2021-07-25 15:09:26</time>
      </trkpt>
      <trkpt lat="42.75382" lon="-2.47778">
        <ele>663.6</ele>
        <time>2021-07-25 15:09:30</time>
      </trkpt>
      <trkpt lat="42.75396" lon="-2.47782">
        <ele>664</ele>
        <time>2021-07-25 15:09:34</time>
      </trkpt>
      <trkpt lat="42.75409" lon="-2.47785">
        <ele>664.6</ele>
        <time>2021-07-25 15:09:38</time>
      </trkpt>
      <trkpt lat="42.75423" lon="-2.47786">
        <ele>665</ele>
        <time>2021-07-25 15:09:42</time>
      </trkpt>
      <trkpt lat="42.75436" lon="-2.47785">
        <ele>666.4</ele>
        <time>2021-07-25 15:09:46</time>
      </trkpt>
      <trkpt lat="42.75448" lon="-2.47783">
        <ele>666.8</ele>
        <time>2021-07-25 15:09:50</time>
      </trkpt>
      <trkpt lat="42.7546" lon="-2.47779">
        <ele>666.8</ele>
        <time>2021-07-25 15:09:54</time>
      </trkpt>
      <trkpt lat="42.75471" lon="-2.47773">
        <ele>667.8</ele>
        <time>2021-07-25 15:09:58</time>
      </trkpt>
      <trkpt lat="42.75482" lon="-2.47767">
        <ele>668</ele>
        <time>2021-07-25 15:10:02</time>
      </trkpt>
      <trkpt lat="42.75493" lon="-2.47759">
        <ele>668.2</ele>
        <time>2021-07-25 15:10:06</time>
      </trkpt>
      <trkpt lat="42.75503" lon="-2.47751">
        <ele>668.6</ele>
        <time>2021-07-25 15:10:10</time>
      </trkpt>
      <trkpt lat="42.75514" lon="-2.47741">
        <ele>669.2</ele>
        <time>2021-07-25 15:10:14</time>
      </trkpt>
      <trkpt lat="42.75524" lon="-2.4773">
        <ele>669.8</ele>
        <time>2021-07-25 15:10:18</time>
      </trkpt>
      <trkpt lat="42.75535" lon="-2.47719">
        <ele>669.6</ele>
        <time>2021-07-25 15:10:22</time>
      </trkpt>
      <trkpt lat="42.75545" lon="-2.47709">
        <ele>670.4</ele>
        <time>2021-07-25 15:10:26</time>
      </trkpt>
      <trkpt lat="42.75557" lon="-2.47698">
        <ele>670.2</ele>
        <time>2021-07-25 15:10:30</time>
      </trkpt>
      <trkpt lat="42.75567" lon="-2.47688">
        <ele>670.8</ele>
        <time>2021-07-25 15:10:34</time>
      </trkpt>
      <trkpt lat="42.75579" lon="-2.47679">
        <ele>671.4</ele>
        <time>2021-07-25 15:10:38</time>
      </trkpt>
      <trkpt lat="42.75591" lon="-2.47672">
        <ele>671.6</ele>
        <time>2021-07-25 15:10:42</time>
      </trkpt>
      <trkpt lat="42.75603" lon="-2.47666">
        <ele>672</ele>
        <time>2021-07-25 15:10:46</time>
      </trkpt>
      <trkpt lat="42.75615" lon="-2.47662">
        <ele>672.8</ele>
        <time>2021-07-25 15:10:50</time>
      </trkpt>
      <trkpt lat="42.75628" lon="-2.47659">
        <ele>672.8</ele>
        <time>2021-07-25 15:10:54</time>
      </trkpt>
      <trkpt lat="42.7564" lon="-2.47657">
        <ele>673.2</ele>
        <time>2021-07-25 15:10:58</time>
      </trkpt>
      <trkpt lat="42.75653" lon="-2.47658">
        <ele>673</ele>
        <time>2021-07-25 15:11:02</time>
      </trkpt>
      <trkpt lat="42.75666" lon="-2.47659">
        <ele>673.2</ele>
        <time>2021-07-25 15:11:06</time>
      </trkpt>
      <trkpt lat="42.75679" lon="-2.47661">
        <ele>673.6</ele>
        <time>2021-07-25 15:11:10</time>
      </trkpt>
      <trkpt lat="42.75691" lon="-2.47662">
        <ele>674.6</ele>
        <time>2021-07-25 15:11:14</time>
      </trkpt>
      <trkpt lat="42.75703" lon="-2.47661">
        <ele>674.6</ele>
        <time>2021-07-25 15:11:18</time>
      </trkpt>
      <trkpt lat="42.75714" lon="-2.47661">
        <ele>675.6</ele>
        <time>2021-07-25 15:11:22</time>
      </trkpt>
      <trkpt lat="42.75724" lon="-2.47659">
        <ele>676.2</ele>
        <time>2021-07-25 15:11:26</time>
      </trkpt>
      <trkpt lat="42.75733" lon="-2.47656">
        <ele>677</ele>
        <time>2021-07-25 15:11:30</time>
      </trkpt>
      <trkpt lat="42.75741" lon="-2.47653">
        <ele>677</ele>
        <time>2021-07-25 15:11:34</time>
      </trkpt>
      <trkpt lat="42.75749" lon="-2.47648">
        <ele>677.6</ele>
        <time>2021-07-25 15:11:38</time>
      </trkpt>
      <trkpt lat="42.75757" lon="-2.47644">
        <ele>678.6</ele>
        <time>2021-07-25 15:11:42</time>
      </trkpt>
      <trkpt lat="42.75765" lon="-2.47639">
        <ele>679.6</ele>
        <time>2021-07-25 15:11:46</time>
      </trkpt>
      <trkpt lat="42.75772" lon="-2.47633">
        <ele>680.8</ele>
        <time>2021-07-25 15:11:50</time>
      </trkpt>
      <trkpt lat="42.75779" lon="-2.47627">
        <ele>680.8</ele>
        <time>2021-07-25 15:11:54</time>
      </trkpt>
      <trkpt lat="42.75786" lon="-2.47622">
        <ele>681.8</ele>
        <time>2021-07-25 15:11:58</time>
      </trkpt>
      <trkpt lat="42.75794" lon="-2.47617">
        <ele>682.8</ele>
        <time>2021-07-25 15:12:02</time>
      </trkpt>
      <trkpt lat="42.758" lon="-2.47611">
        <ele>683.6</ele>
        <time>2021-07-25 15:12:06</time>
      </trkpt>
      <trkpt lat="42.75808" lon="-2.47605">
        <ele>684.8</ele>
        <time>2021-07-25 15:12:10</time>
      </trkpt>
      <trkpt lat="42.75815" lon="-2.47599">
        <ele>684.8</ele>
        <time>2021-07-25 15:12:14</time>
      </trkpt>
      <trkpt lat="42.75822" lon="-2.47594">
        <ele>685</ele>
        <time>2021-07-25 15:12:18</time>
      </trkpt>
      <trkpt lat="42.7583" lon="-2.47589">
        <ele>685.2</ele>
        <time>2021-07-25 15:12:22</time>
      </trkpt>
      <trkpt lat="42.75837" lon="-2.47585">
        <ele>685.8</ele>
        <time>2021-07-25 15:12:26</time>
      </trkpt>
      <trkpt lat="42.75845" lon="-2.47582">
        <ele>687</ele>
        <time>2021-07-25 15:12:30</time>
      </trkpt>
      <trkpt lat="42.75853" lon="-2.47579">
        <ele>687.6</ele>
        <time>2021-07-25 15:12:34</time>
      </trkpt>
      <trkpt lat="42.75861" lon="-2.47577">
        <ele>688</ele>
        <time>2021-07-25 15:12:38</time>
      </trkpt>
      <trkpt lat="42.75868" lon="-2.47576">
        <ele>688.4</ele>
        <time>2021-07-25 15:12:42</time>
      </trkpt>
      <trkpt lat="42.75876" lon="-2.47576">
        <ele>689.2</ele>
        <time>2021-07-25 15:12:46</time>
      </trkpt>
      <trkpt lat="42.75884" lon="-2.47576">
        <ele>689.6</ele>
        <time>2021-07-25 15:12:50</time>
      </trkpt>
      <trkpt lat="42.75892" lon="-2.47576">
        <ele>690.2</ele>
        <time>2021-07-25 15:12:54</time>
      </trkpt>
      <trkpt lat="42.759" lon="-2.47577">
        <ele>690.6</ele>
        <time>2021-07-25 15:12:58</time>
      </trkpt>
      <trkpt lat="42.75907" lon="-2.47579">
        <ele>691.2</ele>
        <time>2021-07-25 15:13:02</time>
      </trkpt>
      <trkpt lat="42.75915" lon="-2.47581">
        <ele>692</ele>
        <time>2021-07-25 15:13:06</time>
      </trkpt>
      <trkpt lat="42.75924" lon="-2.47584">
        <ele>692.4</ele>
        <time>2021-07-25 15:13:10</time>
      </trkpt>
      <trkpt lat="42.75931" lon="-2.47588">
        <ele>692.4</ele>
        <time>2021-07-25 15:13:14</time>
      </trkpt>
      <trkpt lat="42.75939" lon="-2.47591">
        <ele>693.2</ele>
        <time>2021-07-25 15:13:18</time>
      </trkpt>
      <trkpt lat="42.75947" lon="-2.47596">
        <ele>694.4</ele>
        <time>2021-07-25 15:13:22</time>
      </trkpt>
      <trkpt lat="42.75953" lon="-2.47601">
        <ele>695</ele>
        <time>2021-07-25 15:13:26</time>
      </trkpt>
      <trkpt lat="42.7596" lon="-2.47606">
        <ele>695.2</ele>
        <time>2021-07-25 15:13:30</time>
      </trkpt>
      <trkpt lat="42.75967" lon="-2.47612">
        <ele>695.6</ele>
        <time>2021-07-25 15:13:34</time>
      </trkpt>
      <trkpt lat="42.75974" lon="-2.47619">
        <ele>696.4</ele>
        <time>2021-07-25 15:13:38</time>
      </trkpt>
      <trkpt lat="42.7598" lon="-2.47626">
        <ele>696.8</ele>
        <time>2021-07-25 15:13:42</time>
      </trkpt>
      <trkpt lat="42.75986" lon="-2.47633">
        <ele>697.8</ele>
        <time>2021-07-25 15:13:46</time>
      </trkpt>
      <trkpt lat="42.75991" lon="-2.47641">
        <ele>698.2</ele>
        <time>2021-07-25 15:13:50</time>
      </trkpt>
      <trkpt lat="42.75996" lon="-2.47649">
        <ele>698.8</ele>
        <time>2021-07-25 15:13:54</time>
      </trkpt>
      <trkpt lat="42.76001" lon="-2.47658">
        <ele>699.2</ele>
        <time>2021-07-25 15:13:58</time>
      </trkpt>
      <trkpt lat="42.76006" lon="-2.47667">
        <ele>700.2</ele>
        <time>2021-07-25 15:14:02</time>
      </trkpt>
      <trkpt lat="42.7601" lon="-2.47676">
        <ele>700.2</ele>
        <time>2021-07-25 15:14:06</time>
      </trkpt>
      <trkpt lat="42.76014" lon="-2.47686">
        <ele>699.6</ele>
        <time>2021-07-25 15:14:10</time>
      </trkpt>
      <trkpt lat="42.76018" lon="-2.47696">
        <ele>700.8</ele>
        <time>2021-07-25 15:14:14</time>
      </trkpt>
      <trkpt lat="42.76022" lon="-2.47706">
        <ele>701.6</ele>
        <time>2021-07-25 15:14:18</time>
      </trkpt>
      <trkpt lat="42.76026" lon="-2.47716">
        <ele>702.4</ele>
        <time>2021-07-25 15:14:22</time>
      </trkpt>
      <trkpt lat="42.76029" lon="-2.47727">
        <ele>703</ele>
        <time>2021-07-25 15:14:26</time>
      </trkpt>
      <trkpt lat="42.76033" lon="-2.47737">
        <ele>704</ele>
        <time>2021-07-25 15:14:30</time>
      </trkpt>
      <trkpt lat="42.76036" lon="-2.47748">
        <ele>703.8</ele>
        <time>2021-07-25 15:14:34</time>
      </trkpt>
      <trkpt lat="42.76039" lon="-2.47758">
        <ele>704.4</ele>
        <time>2021-07-25 15:14:38</time>
      </trkpt>
      <trkpt lat="42.76043" lon="-2.47768">
        <ele>704.2</ele>
        <time>2021-07-25 15:14:42</time>
      </trkpt>
      <trkpt lat="42.76046" lon="-2.47778">
        <ele>705.4</ele>
        <time>2021-07-25 15:14:46</time>
      </trkpt>
      <trkpt lat="42.7605" lon="-2.47788">
        <ele>705.2</ele>
        <time>2021-07-25 15:14:50</time>
      </trkpt>
      <trkpt lat="42.76053" lon="-2.47799">
        <ele>705</ele>
        <time>2021-07-25 15:14:54</time>
      </trkpt>
      <trkpt lat="42.76056" lon="-2.47811">
        <ele>705.2</ele>
        <time>2021-07-25 15:14:58</time>
      </trkpt>
      <trkpt lat="42.7606" lon="-2.47822">
        <ele>705.8</ele>
        <time>2021-07-25 15:15:02</time>
      </trkpt>
      <trkpt lat="42.76064" lon="-2.47834">
        <ele>705.6</ele>
        <time>2021-07-25 15:15:06</time>
      </trkpt>
      <trkpt lat="42.76068" lon="-2.47847">
        <ele>706.2</ele>
        <time>2021-07-25 15:15:10</time>
      </trkpt>
      <trkpt lat="42.76073" lon="-2.47861">
        <ele>706.6</ele>
        <time>2021-07-25 15:15:14</time>
      </trkpt>
      <trkpt lat="42.76077" lon="-2.47875">
        <ele>706.6</ele>
        <time>2021-07-25 15:15:18</time>
      </trkpt>
      <trkpt lat="42.76082" lon="-2.47889">
        <ele>707.2</ele>
        <time>2021-07-25 15:15:22</time>
      </trkpt>
      <trkpt lat="42.76087" lon="-2.47903">
        <ele>708.2</ele>
        <time>2021-07-25 15:15:26</time>
      </trkpt>
      <trkpt lat="42.7609" lon="-2.47916">
        <ele>708</ele>
        <time>2021-07-25 15:15:30</time>
      </trkpt>
      <trkpt lat="42.76095" lon="-2.47929">
        <ele>708.8</ele>
        <time>2021-07-25 15:15:34</time>
      </trkpt>
      <trkpt lat="42.76099" lon="-2.47943">
        <ele>709</ele>
        <time>2021-07-25 15:15:38</time>
      </trkpt>
      <trkpt lat="42.76104" lon="-2.47958">
        <ele>708.8</ele>
        <time>2021-07-25 15:15:42</time>
      </trkpt>
      <trkpt lat="42.76109" lon="-2.47973">
        <ele>708.8</ele>
        <time>2021-07-25 15:15:46</time>
      </trkpt>
      <trkpt lat="42.76114" lon="-2.47989">
        <ele>710.4</ele>
        <time>2021-07-25 15:15:50</time>
      </trkpt>
      <trkpt lat="42.76119" lon="-2.48006">
        <ele>710.2</ele>
        <time>2021-07-25 15:15:54</time>
      </trkpt>
      <trkpt lat="42.76123" lon="-2.48023">
        <ele>710.8</ele>
        <time>2021-07-25 15:15:58</time>
      </trkpt>
      <trkpt lat="42.76129" lon="-2.48041">
        <ele>710.8</ele>
        <time>2021-07-25 15:16:02</time>
      </trkpt>
      <trkpt lat="42.76135" lon="-2.48059">
        <ele>710.2</ele>
        <time>2021-07-25 15:16:06</time>
      </trkpt>
      <trkpt lat="42.7614" lon="-2.48076">
        <ele>710.8</ele>
        <time>2021-07-25 15:16:10</time>
      </trkpt>
      <trkpt lat="42.76146" lon="-2.48093">
        <ele>711</ele>
        <time>2021-07-25 15:16:14</time>
      </trkpt>
      <trkpt lat="42.76153" lon="-2.48111">
        <ele>711.6</ele>
        <time>2021-07-25 15:16:18</time>
      </trkpt>
      <trkpt lat="42.7616" lon="-2.48129">
        <ele>712</ele>
        <time>2021-07-25 15:16:22</time>
      </trkpt>
      <trkpt lat="42.76168" lon="-2.48145">
        <ele>712.6</ele>
        <time>2021-07-25 15:16:26</time>
      </trkpt>
      <trkpt lat="42.76177" lon="-2.48161">
        <ele>711.8</ele>
        <time>2021-07-25 15:16:30</time>
      </trkpt>
      <trkpt lat="42.76185" lon="-2.48175">
        <ele>712.4</ele>
        <time>2021-07-25 15:16:34</time>
      </trkpt>
      <trkpt lat="42.76194" lon="-2.48189">
        <ele>713</ele>
        <time>2021-07-25 15:16:38</time>
      </trkpt>
      <trkpt lat="42.76203" lon="-2.48203">
        <ele>713.8</ele>
        <time>2021-07-25 15:16:42</time>
      </trkpt>
      <trkpt lat="42.76212" lon="-2.48217">
        <ele>714.4</ele>
        <time>2021-07-25 15:16:46</time>
      </trkpt>
      <trkpt lat="42.76221" lon="-2.48231">
        <ele>713.6</ele>
        <time>2021-07-25 15:16:50</time>
      </trkpt>
      <trkpt lat="42.76231" lon="-2.48244">
        <ele>713.4</ele>
        <time>2021-07-25 15:16:54</time>
      </trkpt>
      <trkpt lat="42.76239" lon="-2.48258">
        <ele>713.6</ele>
        <time>2021-07-25 15:16:58</time>
      </trkpt>
      <trkpt lat="42.76248" lon="-2.48271">
        <ele>714</ele>
        <time>2021-07-25 15:17:02</time>
      </trkpt>
      <trkpt lat="42.76257" lon="-2.48284">
        <ele>714.8</ele>
        <time>2021-07-25 15:17:06</time>
      </trkpt>
      <trkpt lat="42.76266" lon="-2.48297">
        <ele>715.8</ele>
        <time>2021-07-25 15:17:10</time>
      </trkpt>
      <trkpt lat="42.76274" lon="-2.48311">
        <ele>715.6</ele>
        <time>2021-07-25 15:17:14</time>
      </trkpt>
      <trkpt lat="42.76284" lon="-2.48324">
        <ele>715.8</ele>
        <time>2021-07-25 15:17:18</time>
      </trkpt>
      <trkpt lat="42.76293" lon="-2.48336">
        <ele>717.2</ele>
        <time>2021-07-25 15:17:22</time>
      </trkpt>
      <trkpt lat="42.76303" lon="-2.48348">
        <ele>717</ele>
        <time>2021-07-25 15:17:26</time>
      </trkpt>
      <trkpt lat="42.76313" lon="-2.48359">
        <ele>717.4</ele>
        <time>2021-07-25 15:17:30</time>
      </trkpt>
      <trkpt lat="42.76323" lon="-2.4837">
        <ele>718.2</ele>
        <time>2021-07-25 15:17:34</time>
      </trkpt>
      <trkpt lat="42.76333" lon="-2.48381">
        <ele>718</ele>
        <time>2021-07-25 15:17:38</time>
      </trkpt>
      <trkpt lat="42.76344" lon="-2.48392">
        <ele>718.2</ele>
        <time>2021-07-25 15:17:42</time>
      </trkpt>
      <trkpt lat="42.76355" lon="-2.48404">
        <ele>718.2</ele>
        <time>2021-07-25 15:17:46</time>
      </trkpt>
      <trkpt lat="42.76365" lon="-2.48416">
        <ele>718.8</ele>
        <time>2021-07-25 15:17:50</time>
      </trkpt>
      <trkpt lat="42.76376" lon="-2.48427">
        <ele>718.8</ele>
        <time>2021-07-25 15:17:54</time>
      </trkpt>
      <trkpt lat="42.76387" lon="-2.48438">
        <ele>719.4</ele>
        <time>2021-07-25 15:17:58</time>
      </trkpt>
      <trkpt lat="42.76397" lon="-2.4845">
        <ele>719.6</ele>
        <time>2021-07-25 15:18:02</time>
      </trkpt>
      <trkpt lat="42.76407" lon="-2.48461">
        <ele>719.6</ele>
        <time>2021-07-25 15:18:06</time>
      </trkpt>
      <trkpt lat="42.76418" lon="-2.48472">
        <ele>719.8</ele>
        <time>2021-07-25 15:18:10</time>
      </trkpt>
      <trkpt lat="42.76428" lon="-2.48483">
        <ele>719.2</ele>
        <time>2021-07-25 15:18:14</time>
      </trkpt>
      <trkpt lat="42.76437" lon="-2.48494">
        <ele>720</ele>
        <time>2021-07-25 15:18:18</time>
      </trkpt>
      <trkpt lat="42.76447" lon="-2.48504">
        <ele>720.4</ele>
        <time>2021-07-25 15:18:22</time>
      </trkpt>
      <trkpt lat="42.76456" lon="-2.48514">
        <ele>721</ele>
        <time>2021-07-25 15:18:26</time>
      </trkpt>
      <trkpt lat="42.76465" lon="-2.48524">
        <ele>721.2</ele>
        <time>2021-07-25 15:18:30</time>
      </trkpt>
      <trkpt lat="42.76474" lon="-2.48533">
        <ele>721.4</ele>
        <time>2021-07-25 15:18:34</time>
      </trkpt>
      <trkpt lat="42.76483" lon="-2.48543">
        <ele>722</ele>
        <time>2021-07-25 15:18:38</time>
      </trkpt>
      <trkpt lat="42.76493" lon="-2.48552">
        <ele>722.6</ele>
        <time>2021-07-25 15:18:42</time>
      </trkpt>
      <trkpt lat="42.76505" lon="-2.48561">
        <ele>722.2</ele>
        <time>2021-07-25 15:18:46</time>
      </trkpt>
      <trkpt lat="42.76516" lon="-2.48569">
        <ele>722.6</ele>
        <time>2021-07-25 15:18:50</time>
      </trkpt>
      <trkpt lat="42.76528" lon="-2.48575">
        <ele>722.8</ele>
        <time>2021-07-25 15:18:54</time>
      </trkpt>
      <trkpt lat="42.7654" lon="-2.4858">
        <ele>722.6</ele>
        <time>2021-07-25 15:18:58</time>
      </trkpt>
      <trkpt lat="42.7655" lon="-2.48584">
        <ele>723.6</ele>
        <time>2021-07-25 15:19:02</time>
      </trkpt>
      <trkpt lat="42.7656" lon="-2.48589">
        <ele>723.6</ele>
        <time>2021-07-25 15:19:06</time>
      </trkpt>
      <trkpt lat="42.7657" lon="-2.48593">
        <ele>724.2</ele>
        <time>2021-07-25 15:19:10</time>
      </trkpt>
      <trkpt lat="42.7658" lon="-2.48598">
        <ele>724.8</ele>
        <time>2021-07-25 15:19:14</time>
      </trkpt>
      <trkpt lat="42.7659" lon="-2.48604">
        <ele>725</ele>
        <time>2021-07-25 15:19:18</time>
      </trkpt>
      <trkpt lat="42.76599" lon="-2.48612">
        <ele>725.8</ele>
        <time>2021-07-25 15:19:22</time>
      </trkpt>
      <trkpt lat="42.76608" lon="-2.48619">
        <ele>726.4</ele>
        <time>2021-07-25 15:19:26</time>
      </trkpt>
      <trkpt lat="42.76616" lon="-2.48628">
        <ele>727.2</ele>
        <time>2021-07-25 15:19:30</time>
      </trkpt>
      <trkpt lat="42.76624" lon="-2.48637">
        <ele>727.6</ele>
        <time>2021-07-25 15:19:34</time>
      </trkpt>
      <trkpt lat="42.76631" lon="-2.48646">
        <ele>728.6</ele>
        <time>2021-07-25 15:19:38</time>
      </trkpt>
      <trkpt lat="42.76637" lon="-2.48657">
        <ele>728.8</ele>
        <time>2021-07-25 15:19:42</time>
      </trkpt>
      <trkpt lat="42.76643" lon="-2.48668">
        <ele>729.4</ele>
        <time>2021-07-25 15:19:46</time>
      </trkpt>
      <trkpt lat="42.76648" lon="-2.4868">
        <ele>730</ele>
        <time>2021-07-25 15:19:50</time>
      </trkpt>
      <trkpt lat="42.76654" lon="-2.48693">
        <ele>730</ele>
        <time>2021-07-25 15:19:54</time>
      </trkpt>
      <trkpt lat="42.76661" lon="-2.48707">
        <ele>729.8</ele>
        <time>2021-07-25 15:19:58</time>
      </trkpt>
      <trkpt lat="42.76666" lon="-2.48721">
        <ele>729.8</ele>
        <time>2021-07-25 15:20:02</time>
      </trkpt>
      <trkpt lat="42.76671" lon="-2.48735">
        <ele>730</ele>
        <time>2021-07-25 15:20:06</time>
      </trkpt>
      <trkpt lat="42.76677" lon="-2.48748">
        <ele>730.4</ele>
        <time>2021-07-25 15:20:10</time>
      </trkpt>
      <trkpt lat="42.76683" lon="-2.4876">
        <ele>730.6</ele>
        <time>2021-07-25 15:20:14</time>
      </trkpt>
      <trkpt lat="42.76689" lon="-2.48772">
        <ele>731.2</ele>
        <time>2021-07-25 15:20:18</time>
      </trkpt>
      <trkpt lat="42.76696" lon="-2.48783">
        <ele>732</ele>
        <time>2021-07-25 15:20:22</time>
      </trkpt>
      <trkpt lat="42.76704" lon="-2.48794">
        <ele>732.8</ele>
        <time>2021-07-25 15:20:26</time>
      </trkpt>
      <trkpt lat="42.76712" lon="-2.48803">
        <ele>733.2</ele>
        <time>2021-07-25 15:20:30</time>
      </trkpt>
      <trkpt lat="42.76721" lon="-2.48812">
        <ele>733.6</ele>
        <time>2021-07-25 15:20:34</time>
      </trkpt>
      <trkpt lat="42.76731" lon="-2.48821">
        <ele>733.6</ele>
        <time>2021-07-25 15:20:38</time>
      </trkpt>
      <trkpt lat="42.7674" lon="-2.4883">
        <ele>734.4</ele>
        <time>2021-07-25 15:20:42</time>
      </trkpt>
      <trkpt lat="42.7675" lon="-2.4884">
        <ele>734.6</ele>
        <time>2021-07-25 15:20:46</time>
      </trkpt>
      <trkpt lat="42.7676" lon="-2.48849">
        <ele>734.6</ele>
        <time>2021-07-25 15:20:50</time>
      </trkpt>
      <trkpt lat="42.76769" lon="-2.48858">
        <ele>735</ele>
        <time>2021-07-25 15:20:54</time>
      </trkpt>
      <trkpt lat="42.7678" lon="-2.48868">
        <ele>735.2</ele>
        <time>2021-07-25 15:20:58</time>
      </trkpt>
      <trkpt lat="42.7679" lon="-2.48879">
        <ele>735.8</ele>
        <time>2021-07-25 15:21:02</time>
      </trkpt>
      <trkpt lat="42.768" lon="-2.48889">
        <ele>736.2</ele>
        <time>2021-07-25 15:21:06</time>
      </trkpt>
      <trkpt lat="42.76809" lon="-2.48898">
        <ele>736.6</ele>
        <time>2021-07-25 15:21:10</time>
      </trkpt>
      <trkpt lat="42.76818" lon="-2.48907">
        <ele>737</ele>
        <time>2021-07-25 15:21:14</time>
      </trkpt>
      <trkpt lat="42.76827" lon="-2.48916">
        <ele>737.2</ele>
        <time>2021-07-25 15:21:18</time>
      </trkpt>
      <trkpt lat="42.76835" lon="-2.48926">
        <ele>737.8</ele>
        <time>2021-07-25 15:21:22</time>
      </trkpt>
      <trkpt lat="42.76844" lon="-2.48935">
        <ele>737.8</ele>
        <time>2021-07-25 15:21:26</time>
      </trkpt>
      <trkpt lat="42.76853" lon="-2.48945">
        <ele>738.6</ele>
        <time>2021-07-25 15:21:30</time>
      </trkpt>
      <trkpt lat="42.76862" lon="-2.48955">
        <ele>738.8</ele>
        <time>2021-07-25 15:21:34</time>
      </trkpt>
      <trkpt lat="42.76871" lon="-2.48965">
        <ele>738.8</ele>
        <time>2021-07-25 15:21:38</time>
      </trkpt>
      <trkpt lat="42.76881" lon="-2.48977">
        <ele>738.8</ele>
        <time>2021-07-25 15:21:42</time>
      </trkpt>
      <trkpt lat="42.7689" lon="-2.48988">
        <ele>739.8</ele>
        <time>2021-07-25 15:21:46</time>
      </trkpt>
      <trkpt lat="42.769" lon="-2.48999">
        <ele>739.4</ele>
        <time>2021-07-25 15:21:50</time>
      </trkpt>
      <trkpt lat="42.76911" lon="-2.4901">
        <ele>740.2</ele>
        <time>2021-07-25 15:21:54</time>
      </trkpt>
      <trkpt lat="42.76921" lon="-2.49019">
        <ele>739.6</ele>
        <time>2021-07-25 15:21:58</time>
      </trkpt>
      <trkpt lat="42.76933" lon="-2.49027">
        <ele>740</ele>
        <time>2021-07-25 15:22:02</time>
      </trkpt>
      <trkpt lat="42.76944" lon="-2.49033">
        <ele>740.8</ele>
        <time>2021-07-25 15:22:06</time>
      </trkpt>
      <trkpt lat="42.76955" lon="-2.49037">
        <ele>741.6</ele>
        <time>2021-07-25 15:22:10</time>
      </trkpt>
      <trkpt lat="42.76964" lon="-2.49039">
        <ele>742.4</ele>
        <time>2021-07-25 15:22:14</time>
      </trkpt>
      <trkpt lat="42.76972" lon="-2.49041">
        <ele>742.8</ele>
        <time>2021-07-25 15:22:18</time>
      </trkpt>
      <trkpt lat="42.76972" lon="-2.49041">
        <ele>743.2</ele>
        <time>2021-07-25 15:22:22</time>
      </trkpt>
      <trkpt lat="42.76979" lon="-2.4904">
        <ele>742.8</ele>
        <time>2021-07-25 15:22:26</time>
      </trkpt>
      <trkpt lat="42.76979" lon="-2.4904">
        <ele>743.2</ele>
        <time>2021-07-25 15:22:30</time>
      </trkpt>
      <trkpt lat="42.76979" lon="-2.4904">
        <ele>743.4</ele>
        <time>2021-07-25 15:22:34</time>
      </trkpt>
      <trkpt lat="42.76979" lon="-2.4904">
        <ele>743.6</ele>
        <time>2021-07-25 15:22:38</time>
      </trkpt>
      <trkpt lat="42.76979" lon="-2.4904">
        <ele>743.6</ele>
        <time>2021-07-25 15:22:42</time>
      </trkpt>
      <trkpt lat="42.76979" lon="-2.4904">
        <ele>743.4</ele>
        <time>2021-07-25 15:22:46</time>
      </trkpt>
      <trkpt lat="42.76979" lon="-2.4904">
        <ele>743.2</ele>
        <time>2021-07-25 15:22:50</time>
      </trkpt>
      <trkpt lat="42.76979" lon="-2.4904">
        <ele>743.2</ele>
        <time>2021-07-25 15:22:54</time>
      </trkpt>
      <trkpt lat="42.76979" lon="-2.4904">
        <ele>743.2</ele>
        <time>2021-07-25 15:22:58</time>
      </trkpt>
      <trkpt lat="42.76979" lon="-2.4904">
        <ele>743.4</ele>
        <time>2021-07-25 15:23:02</time>
      </trkpt>
      <trkpt lat="42.76979" lon="-2.4904">
        <ele>742.8</ele>
        <time>2021-07-25 15:23:06</time>
      </trkpt>
      <trkpt lat="42.76979" lon="-2.4904">
        <ele>743.4</ele>
        <time>2021-07-25 15:23:10</time>
      </trkpt>
      <trkpt lat="42.76979" lon="-2.4904">
        <ele>743.2</ele>
        <time>2021-07-25 15:23:14</time>
      </trkpt>
      <trkpt lat="42.76979" lon="-2.4904">
        <ele>743.6</ele>
        <time>2021-07-25 15:23:18</time>
      </trkpt>
      <trkpt lat="42.76979" lon="-2.4904">
        <ele>743</ele>
        <time>2021-07-25 15:23:22</time>
      </trkpt>
      <trkpt lat="42.76979" lon="-2.4904">
        <ele>743</ele>
        <time>2021-07-25 15:23:26</time>
      </trkpt>
      <trkpt lat="42.76979" lon="-2.4904">
        <ele>743.4</ele>
        <time>2021-07-25 15:23:30</time>
      </trkpt>
      <trkpt lat="42.76979" lon="-2.4904">
        <ele>742.8</ele>
        <time>2021-07-25 15:23:34</time>
      </trkpt>
      <trkpt lat="42.76979" lon="-2.4904">
        <ele>742.8</ele>
        <time>2021-07-25 15:23:38</time>
      </trkpt>
      <trkpt lat="42.76979" lon="-2.4904">
        <ele>743.2</ele>
        <time>2021-07-25 15:23:42</time>
      </trkpt>
      <trkpt lat="42.76979" lon="-2.4904">
        <ele>743</ele>
        <time>2021-07-25 15:23:46</time>
      </trkpt>
      <trkpt lat="42.76979" lon="-2.4904">
        <ele>743.4</ele>
        <time>2021-07-25 15:23:50</time>
      </trkpt>
      <trkpt lat="42.76979" lon="-2.4904">
        <ele>743.2</ele>
        <time>2021-07-25 15:23:54</time>
      </trkpt>
      <trkpt lat="42.76979" lon="-2.4904">
        <ele>743.4</ele>
        <time>2021-07-25 15:23:58</time>
      </trkpt>
      <trkpt lat="42.76979" lon="-2.4904">
        <ele>743.2</ele>
        <time>2021-07-25 15:24:02</time>
      </trkpt>
      <trkpt lat="42.76979" lon="-2.4904">
        <ele>743.4</ele>
        <time>2021-07-25 15:24:06</time>
      </trkpt>
      <trkpt lat="42.76979" lon="-2.4904">
        <ele>743.2</ele>
        <time>2021-07-25 15:24:10</time>
      </trkpt>
      <trkpt lat="42.76979" lon="-2.4904">
        <ele>743.6</ele>
        <time>2021-07-25 15:24:14</time>
      </trkpt>
      <trkpt lat="42.76979" lon="-2.4904">
        <ele>743.4</ele>
        <time>2021-07-25 15:24:18</time>
      </trkpt>
      <trkpt lat="42.76979" lon="-2.4904">
        <ele>743.6</ele>
        <time>2021-07-25 15:24:22</time>
      </trkpt>
      <trkpt lat="42.76979" lon="-2.4904">
        <ele>743.6</ele>
        <time>2021-07-25 15:24:26</time>
      </trkpt>
      <trkpt lat="42.76979" lon="-2.4904">
        <ele>743.6</ele>
        <time>2021-07-25 15:24:30</time>
      </trkpt>
      <trkpt lat="42.76979" lon="-2.4904">
        <ele>743.6</ele>
        <time>2021-07-25 15:24:34</time>
      </trkpt>
      <trkpt lat="42.76979" lon="-2.4904">
        <ele>743.6</ele>
        <time>2021-07-25 15:24:38</time>
      </trkpt>
      <trkpt lat="42.76979" lon="-2.4904">
        <ele>743.2</ele>
        <time>2021-07-25 15:24:42</time>
      </trkpt>
      <trkpt lat="42.76979" lon="-2.4904">
        <ele>743.6</ele>
        <time>2021-07-25 15:24:46</time>
      </trkpt>
      <trkpt lat="42.76979" lon="-2.4904">
        <ele>743.2</ele>
        <time>2021-07-25 15:24:50</time>
      </trkpt>
      <trkpt lat="42.76979" lon="-2.4904">
        <ele>743.2</ele>
        <time>2021-07-25 15:24:54</time>
      </trkpt>
      <trkpt lat="42.76979" lon="-2.4904">
        <ele>743.2</ele>
        <time>2021-07-25 15:24:58</time>
      </trkpt>
      <trkpt lat="42.76979" lon="-2.4904">
        <ele>743.2</ele>
        <time>2021-07-25 15:25:02</time>
      </trkpt>
      <trkpt lat="42.76979" lon="-2.4904">
        <ele>743.4</ele>
        <time>2021-07-25 15:25:06</time>
      </trkpt>
      <trkpt lat="42.76979" lon="-2.4904">
        <ele>743.4</ele>
        <time>2021-07-25 15:25:10</time>
      </trkpt>
      <trkpt lat="42.76979" lon="-2.4904">
        <ele>743.8</ele>
        <time>2021-07-25 15:25:14</time>
      </trkpt>
      <trkpt lat="42.76979" lon="-2.4904">
        <ele>744.2</ele>
        <time>2021-07-25 15:25:18</time>
      </trkpt>
      <trkpt lat="42.76979" lon="-2.4904">
        <ele>743.8</ele>
        <time>2021-07-25 15:25:22</time>
      </trkpt>
      <trkpt lat="42.76983" lon="-2.49042">
        <ele>744.2</ele>
        <time>2021-07-25 15:25:26</time>
      </trkpt>
      <trkpt lat="42.76993" lon="-2.49043">
        <ele>744.2</ele>
        <time>2021-07-25 15:25:30</time>
      </trkpt>
      <trkpt lat="42.77003" lon="-2.49045">
        <ele>744.6</ele>
        <time>2021-07-25 15:25:34</time>
      </trkpt>
      <trkpt lat="42.77013" lon="-2.49046">
        <ele>744.8</ele>
        <time>2021-07-25 15:25:38</time>
      </trkpt>
      <trkpt lat="42.77023" lon="-2.49047">
        <ele>745.8</ele>
        <time>2021-07-25 15:25:42</time>
      </trkpt>
      <trkpt lat="42.77032" lon="-2.49049">
        <ele>746</ele>
        <time>2021-07-25 15:25:46</time>
      </trkpt>
      <trkpt lat="42.77042" lon="-2.49052">
        <ele>746.6</ele>
        <time>2021-07-25 15:25:50</time>
      </trkpt>
      <trkpt lat="42.77051" lon="-2.49054">
        <ele>747</ele>
        <time>2021-07-25 15:25:54</time>
      </trkpt>
      <trkpt lat="42.77061" lon="-2.49057">
        <ele>747.2</ele>
        <time>2021-07-25 15:25:58</time>
      </trkpt>
      <trkpt lat="42.77071" lon="-2.49061">
        <ele>747.4</ele>
        <time>2021-07-25 15:26:02</time>
      </trkpt>
      <trkpt lat="42.77081" lon="-2.49066">
        <ele>747.2</ele>
        <time>2021-07-25 15:26:06</time>
      </trkpt>
      <trkpt lat="42.77092" lon="-2.49071">
        <ele>747.4</ele>
        <time>2021-07-25 15:26:10</time>
      </trkpt>
      <trkpt lat="42.77102" lon="-2.49077">
        <ele>747.8</ele>
        <time>2021-07-25 15:26:14</time>
      </trkpt>
      <trkpt lat="42.77113" lon="-2.49084">
        <ele>748.6</ele>
        <time>2021-07-25 15:26:18</time>
      </trkpt>
      <trkpt lat="42.77124" lon="-2.49091">
        <ele>748.8</ele>
        <time>2021-07-25 15:26:22</time>
      </trkpt>
      <trkpt lat="42.77135" lon="-2.49099">
        <ele>750.4</ele>
        <time>2021-07-25 15:26:26</time>
      </trkpt>
      <trkpt lat="42.77146" lon="-2.49106">
        <ele>750.4</ele>
        <time>2021-07-25 15:26:30</time>
      </trkpt>
      <trkpt lat="42.77157" lon="-2.49114">
        <ele>750.4</ele>
        <time>2021-07-25 15:26:34</time>
      </trkpt>
      <trkpt lat="42.77167" lon="-2.49121">
        <ele>751.2</ele>
        <time>2021-07-25 15:26:38</time>
      </trkpt>
      <trkpt lat="42.77178" lon="-2.49128">
        <ele>751.6</ele>
        <time>2021-07-25 15:26:42</time>
      </trkpt>
      <trkpt lat="42.77188" lon="-2.49135">
        <ele>752</ele>
        <time>2021-07-25 15:26:46</time>
      </trkpt>
      <trkpt lat="42.77197" lon="-2.49143">
        <ele>751.8</ele>
        <time>2021-07-25 15:26:50</time>
      </trkpt>
      <trkpt lat="42.77207" lon="-2.49149">
        <ele>753</ele>
        <time>2021-07-25 15:26:54</time>
      </trkpt>
      <trkpt lat="42.77217" lon="-2.49156">
        <ele>753.2</ele>
        <time>2021-07-25 15:26:58</time>
      </trkpt>
      <trkpt lat="42.77227" lon="-2.49163">
        <ele>753.4</ele>
        <time>2021-07-25 15:27:02</time>
      </trkpt>
      <trkpt lat="42.77237" lon="-2.4917">
        <ele>753.8</ele>
        <time>2021-07-25 15:27:06</time>
      </trkpt>
      <trkpt lat="42.77246" lon="-2.49177">
        <ele>754.2</ele>
        <time>2021-07-25 15:27:10</time>
      </trkpt>
      <trkpt lat="42.77256" lon="-2.49184">
        <ele>754.6</ele>
        <time>2021-07-25 15:27:14</time>
      </trkpt>
      <trkpt lat="42.77265" lon="-2.49191">
        <ele>755.8</ele>
        <time>2021-07-25 15:27:18</time>
      </trkpt>
      <trkpt lat="42.77274" lon="-2.49199">
        <ele>757</ele>
        <time>2021-07-25 15:27:22</time>
      </trkpt>
      <trkpt lat="42.77283" lon="-2.49206">
        <ele>757.8</ele>
        <time>2021-07-25 15:27:26</time>
      </trkpt>
      <trkpt lat="42.77292" lon="-2.49215">
        <ele>758</ele>
        <time>2021-07-25 15:27:30</time>
      </trkpt>
      <trkpt lat="42.773" lon="-2.49225">
        <ele>758</ele>
        <time>2021-07-25 15:27:34</time>
      </trkpt>
      <trkpt lat="42.77308" lon="-2.49236">
        <ele>758.2</ele>
        <time>2021-07-25 15:27:38</time>
      </trkpt>
      <trkpt lat="42.77316" lon="-2.49247">
        <ele>758</ele>
        <time>2021-07-25 15:27:42</time>
      </trkpt>
      <trkpt lat="42.77324" lon="-2.4926">
        <ele>758.6</ele>
        <time>2021-07-25 15:27:46</time>
      </trkpt>
      <trkpt lat="42.77331" lon="-2.49273">
        <ele>758.4</ele>
        <time>2021-07-25 15:27:50</time>
      </trkpt>
      <trkpt lat="42.77337" lon="-2.49287">
        <ele>759.2</ele>
        <time>2021-07-25 15:27:54</time>
      </trkpt>
      <trkpt lat="42.77343" lon="-2.49301">
        <ele>759.4</ele>
        <time>2021-07-25 15:27:58</time>
      </trkpt>
      <trkpt lat="42.77349" lon="-2.49314">
        <ele>759.6</ele>
        <time>2021-07-25 15:28:02</time>
      </trkpt>
      <trkpt lat="42.77354" lon="-2.49327">
        <ele>760.2</ele>
        <time>2021-07-25 15:28:06</time>
      </trkpt>
      <trkpt lat="42.7736" lon="-2.4934">
        <ele>760.4</ele>
        <time>2021-07-25 15:28:10</time>
      </trkpt>
      <trkpt lat="42.77366" lon="-2.49353">
        <ele>760.6</ele>
        <time>2021-07-25 15:28:14</time>
      </trkpt>
      <trkpt lat="42.77371" lon="-2.49365">
        <ele>761</ele>
        <time>2021-07-25 15:28:18</time>
      </trkpt>
      <trkpt lat="42.77378" lon="-2.49377">
        <ele>761.4</ele>
        <time>2021-07-25 15:28:22</time>
      </trkpt>
      <trkpt lat="42.77385" lon="-2.49388">
        <ele>761.8</ele>
        <time>2021-07-25 15:28:26</time>
      </trkpt>
      <trkpt lat="42.77393" lon="-2.49398">
        <ele>762</ele>
        <time>2021-07-25 15:28:30</time>
      </trkpt>
      <trkpt lat="42.77402" lon="-2.49406">
        <ele>762.2</ele>
        <time>2021-07-25 15:28:34</time>
      </trkpt>
      <trkpt lat="42.77411" lon="-2.49415">
        <ele>762.6</ele>
        <time>2021-07-25 15:28:38</time>
      </trkpt>
      <trkpt lat="42.7742" lon="-2.49422">
        <ele>762.8</ele>
        <time>2021-07-25 15:28:42</time>
      </trkpt>
      <trkpt lat="42.77429" lon="-2.4943">
        <ele>763.4</ele>
        <time>2021-07-25 15:28:46</time>
      </trkpt>
      <trkpt lat="42.77439" lon="-2.49438">
        <ele>763.8</ele>
        <time>2021-07-25 15:28:50</time>
      </trkpt>
      <trkpt lat="42.77449" lon="-2.49446">
        <ele>764.8</ele>
        <time>2021-07-25 15:28:54</time>
      </trkpt>
      <trkpt lat="42.77458" lon="-2.49454">
        <ele>765.2</ele>
        <time>2021-07-25 15:28:58</time>
      </trkpt>
      <trkpt lat="42.77468" lon="-2.49462">
        <ele>765.2</ele>
        <time>2021-07-25 15:29:02</time>
      </trkpt>
      <trkpt lat="42.77478" lon="-2.4947">
        <ele>765.4</ele>
        <time>2021-07-25 15:29:06</time>
      </trkpt>
      <trkpt lat="42.77488" lon="-2.49479">
        <ele>765.8</ele>
        <time>2021-07-25 15:29:10</time>
      </trkpt>
      <trkpt lat="42.77498" lon="-2.49487">
        <ele>765.8</ele>
        <time>2021-07-25 15:29:14</time>
      </trkpt>
      <trkpt lat="42.77508" lon="-2.49495">
        <ele>766.2</ele>
        <time>2021-07-25 15:29:18</time>
      </trkpt>
      <trkpt lat="42.77518" lon="-2.49504">
        <ele>766.4</ele>
        <time>2021-07-25 15:29:22</time>
      </trkpt>
      <trkpt lat="42.77527" lon="-2.49512">
        <ele>766.2</ele>
        <time>2021-07-25 15:29:26</time>
      </trkpt>
      <trkpt lat="42.77537" lon="-2.49519">
        <ele>766.8</ele>
        <time>2021-07-25 15:29:30</time>
      </trkpt>
      <trkpt lat="42.77546" lon="-2.49528">
        <ele>767.4</ele>
        <time>2021-07-25 15:29:34</time>
      </trkpt>
      <trkpt lat="42.77556" lon="-2.49536">
        <ele>767.8</ele>
        <time>2021-07-25 15:29:38</time>
      </trkpt>
      <trkpt lat="42.77566" lon="-2.49544">
        <ele>768.2</ele>
        <time>2021-07-25 15:29:42</time>
      </trkpt>
      <trkpt lat="42.77576" lon="-2.49552">
        <ele>768.2</ele>
        <time>2021-07-25 15:29:46</time>
      </trkpt>
      <trkpt lat="42.77586" lon="-2.4956">
        <ele>767.8</ele>
        <time>2021-07-25 15:29:50</time>
      </trkpt>
      <trkpt lat="42.77595" lon="-2.49567">
        <ele>767.8</ele>
        <time>2021-07-25 15:29:54</time>
      </trkpt>
      <trkpt lat="42.77604" lon="-2.49575">
        <ele>769.4</ele>
        <time>2021-07-25 15:29:58</time>
      </trkpt>
      <trkpt lat="42.77613" lon="-2.49583">
        <ele>769.6</ele>
        <time>2021-07-25 15:30:02</time>
      </trkpt>
      <trkpt lat="42.77623" lon="-2.49592">
        <ele>770</ele>
        <time>2021-07-25 15:30:06</time>
      </trkpt>
      <trkpt lat="42.77633" lon="-2.49601">
        <ele>770.2</ele>
        <time>2021-07-25 15:30:10</time>
      </trkpt>
      <trkpt lat="42.77643" lon="-2.4961">
        <ele>769</ele>
        <time>2021-07-25 15:30:14</time>
      </trkpt>
      <trkpt lat="42.77654" lon="-2.4962">
        <ele>770.6</ele>
        <time>2021-07-25 15:30:18</time>
      </trkpt>
      <trkpt lat="42.77664" lon="-2.49629">
        <ele>770.6</ele>
        <time>2021-07-25 15:30:22</time>
      </trkpt>
      <trkpt lat="42.77675" lon="-2.49639">
        <ele>769.4</ele>
        <time>2021-07-25 15:30:26</time>
      </trkpt>
      <trkpt lat="42.77686" lon="-2.49649">
        <ele>770.6</ele>
        <time>2021-07-25 15:30:30</time>
      </trkpt>
      <trkpt lat="42.77697" lon="-2.4966">
        <ele>770.6</ele>
        <time>2021-07-25 15:30:34</time>
      </trkpt>
      <trkpt lat="42.77708" lon="-2.49671">
        <ele>769.4</ele>
        <time>2021-07-25 15:30:38</time>
      </trkpt>
      <trkpt lat="42.77718" lon="-2.49681">
        <ele>769.6</ele>
        <time>2021-07-25 15:30:42</time>
      </trkpt>
      <trkpt lat="42.77728" lon="-2.49692">
        <ele>770.4</ele>
        <time>2021-07-25 15:30:46</time>
      </trkpt>
      <trkpt lat="42.77739" lon="-2.49703">
        <ele>771</ele>
        <time>2021-07-25 15:30:50</time>
      </trkpt>
      <trkpt lat="42.77749" lon="-2.49714">
        <ele>771.2</ele>
        <time>2021-07-25 15:30:54</time>
      </trkpt>
      <trkpt lat="42.77758" lon="-2.49724">
        <ele>771.4</ele>
        <time>2021-07-25 15:30:58</time>
      </trkpt>
      <trkpt lat="42.77766" lon="-2.49733">
        <ele>772</ele>
        <time>2021-07-25 15:31:02</time>
      </trkpt>
      <trkpt lat="42.77775" lon="-2.49743">
        <ele>772.8</ele>
        <time>2021-07-25 15:31:06</time>
      </trkpt>
      <trkpt lat="42.77784" lon="-2.49753">
        <ele>773</ele>
        <time>2021-07-25 15:31:10</time>
      </trkpt>
      <trkpt lat="42.77792" lon="-2.49763">
        <ele>774</ele>
        <time>2021-07-25 15:31:14</time>
      </trkpt>
      <trkpt lat="42.778" lon="-2.49773">
        <ele>774</ele>
        <time>2021-07-25 15:31:18</time>
      </trkpt>
      <trkpt lat="42.77809" lon="-2.49783">
        <ele>775</ele>
        <time>2021-07-25 15:31:22</time>
      </trkpt>
      <trkpt lat="42.77818" lon="-2.49794">
        <ele>775</ele>
        <time>2021-07-25 15:31:26</time>
      </trkpt>
      <trkpt lat="42.77827" lon="-2.49804">
        <ele>775.2</ele>
        <time>2021-07-25 15:31:30</time>
      </trkpt>
      <trkpt lat="42.77836" lon="-2.49814">
        <ele>775</ele>
        <time>2021-07-25 15:31:34</time>
      </trkpt>
      <trkpt lat="42.77844" lon="-2.49824">
        <ele>775.2</ele>
        <time>2021-07-25 15:31:38</time>
      </trkpt>
      <trkpt lat="42.77852" lon="-2.49834">
        <ele>775.6</ele>
        <time>2021-07-25 15:31:42</time>
      </trkpt>
      <trkpt lat="42.77861" lon="-2.49845">
        <ele>776.2</ele>
        <time>2021-07-25 15:31:46</time>
      </trkpt>
      <trkpt lat="42.7787" lon="-2.49854">
        <ele>776.4</ele>
        <time>2021-07-25 15:31:50</time>
      </trkpt>
      <trkpt lat="42.77879" lon="-2.49864">
        <ele>776.6</ele>
        <time>2021-07-25 15:31:54</time>
      </trkpt>
      <trkpt lat="42.77887" lon="-2.49876">
        <ele>776.8</ele>
        <time>2021-07-25 15:31:58</time>
      </trkpt>
      <trkpt lat="42.77896" lon="-2.49886">
        <ele>776.8</ele>
        <time>2021-07-25 15:32:02</time>
      </trkpt>
      <trkpt lat="42.77905" lon="-2.49896">
        <ele>777</ele>
        <time>2021-07-25 15:32:06</time>
      </trkpt>
      <trkpt lat="42.77914" lon="-2.49907">
        <ele>777</ele>
        <time>2021-07-25 15:32:10</time>
      </trkpt>
      <trkpt lat="42.77923" lon="-2.49917">
        <ele>777.6</ele>
        <time>2021-07-25 15:32:14</time>
      </trkpt>
      <trkpt lat="42.77931" lon="-2.49928">
        <ele>777.6</ele>
        <time>2021-07-25 15:32:18</time>
      </trkpt>
      <trkpt lat="42.7794" lon="-2.49939">
        <ele>777.8</ele>
        <time>2021-07-25 15:32:22</time>
      </trkpt>
      <trkpt lat="42.77948" lon="-2.4995">
        <ele>778.8</ele>
        <time>2021-07-25 15:32:26</time>
      </trkpt>
      <trkpt lat="42.77957" lon="-2.49961">
        <ele>779.6</ele>
        <time>2021-07-25 15:32:30</time>
      </trkpt>
      <trkpt lat="42.77965" lon="-2.49972">
        <ele>779.4</ele>
        <time>2021-07-25 15:32:34</time>
      </trkpt>
      <trkpt lat="42.77973" lon="-2.49982">
        <ele>779.8</ele>
        <time>2021-07-25 15:32:38</time>
      </trkpt>
      <trkpt lat="42.77981" lon="-2.49993">
        <ele>779.8</ele>
        <time>2021-07-25 15:32:42</time>
      </trkpt>
      <trkpt lat="42.77989" lon="-2.50003">
        <ele>780.6</ele>
        <time>2021-07-25 15:32:46</time>
      </trkpt>
      <trkpt lat="42.77996" lon="-2.50014">
        <ele>781.2</ele>
        <time>2021-07-25 15:32:50</time>
      </trkpt>
      <trkpt lat="42.78003" lon="-2.50023">
        <ele>781.8</ele>
        <time>2021-07-25 15:32:54</time>
      </trkpt>
      <trkpt lat="42.7801" lon="-2.50033">
        <ele>782.4</ele>
        <time>2021-07-25 15:32:58</time>
      </trkpt>
      <trkpt lat="42.78017" lon="-2.50042">
        <ele>782.6</ele>
        <time>2021-07-25 15:33:02</time>
      </trkpt>
      <trkpt lat="42.78023" lon="-2.50051">
        <ele>783.4</ele>
        <time>2021-07-25 15:33:06</time>
      </trkpt>
      <trkpt lat="42.78029" lon="-2.50059">
        <ele>783.8</ele>
        <time>2021-07-25 15:33:10</time>
      </trkpt>
      <trkpt lat="42.78035" lon="-2.50068">
        <ele>784.6</ele>
        <time>2021-07-25 15:33:14</time>
      </trkpt>
      <trkpt lat="42.78041" lon="-2.50076">
        <ele>784.6</ele>
        <time>2021-07-25 15:33:18</time>
      </trkpt>
      <trkpt lat="42.78046" lon="-2.50085">
        <ele>785.6</ele>
        <time>2021-07-25 15:33:22</time>
      </trkpt>
      <trkpt lat="42.78052" lon="-2.50093">
        <ele>786.4</ele>
        <time>2021-07-25 15:33:26</time>
      </trkpt>
      <trkpt lat="42.78058" lon="-2.50102">
        <ele>786.6</ele>
        <time>2021-07-25 15:33:30</time>
      </trkpt>
      <trkpt lat="42.78064" lon="-2.5011">
        <ele>787</ele>
        <time>2021-07-25 15:33:34</time>
      </trkpt>
      <trkpt lat="42.7807" lon="-2.50118">
        <ele>786.8</ele>
        <time>2021-07-25 15:33:38</time>
      </trkpt>
      <trkpt lat="42.78076" lon="-2.50127">
        <ele>787.6</ele>
        <time>2021-07-25 15:33:42</time>
      </trkpt>
      <trkpt lat="42.78083" lon="-2.50136">
        <ele>787.6</ele>
        <time>2021-07-25 15:33:46</time>
      </trkpt>
      <trkpt lat="42.78089" lon="-2.50145">
        <ele>787.8</ele>
        <time>2021-07-25 15:33:50</time>
      </trkpt>
      <trkpt lat="42.78096" lon="-2.50155">
        <ele>788.8</ele>
        <time>2021-07-25 15:33:54</time>
      </trkpt>
      <trkpt lat="42.78102" lon="-2.50164">
        <ele>789</ele>
        <time>2021-07-25 15:33:58</time>
      </trkpt>
      <trkpt lat="42.78108" lon="-2.50173">
        <ele>789</ele>
        <time>2021-07-25 15:34:02</time>
      </trkpt>
      <trkpt lat="42.78115" lon="-2.50182">
        <ele>789</ele>
        <time>2021-07-25 15:34:06</time>
      </trkpt>
      <trkpt lat="42.7812" lon="-2.50191">
        <ele>790.2</ele>
        <time>2021-07-25 15:34:10</time>
      </trkpt>
      <trkpt lat="42.78126" lon="-2.50199">
        <ele>790.2</ele>
        <time>2021-07-25 15:34:14</time>
      </trkpt>
      <trkpt lat="42.78132" lon="-2.50207">
        <ele>790.6</ele>
        <time>2021-07-25 15:34:18</time>
      </trkpt>
      <trkpt lat="42.78138" lon="-2.50216">
        <ele>790.8</ele>
        <time>2021-07-25 15:34:22</time>
      </trkpt>
      <trkpt lat="42.78144" lon="-2.50224">
        <ele>791</ele>
        <time>2021-07-25 15:34:26</time>
      </trkpt>
      <trkpt lat="42.78149" lon="-2.50232">
        <ele>791.6</ele>
        <time>2021-07-25 15:34:30</time>
      </trkpt>
      <trkpt lat="42.78155" lon="-2.5024">
        <ele>793</ele>
        <time>2021-07-25 15:34:34</time>
      </trkpt>
      <trkpt lat="42.78161" lon="-2.50248">
        <ele>793</ele>
        <time>2021-07-25 15:34:38</time>
      </trkpt>
      <trkpt lat="42.78167" lon="-2.50256">
        <ele>793.4</ele>
        <time>2021-07-25 15:34:42</time>
      </trkpt>
      <trkpt lat="42.78173" lon="-2.50264">
        <ele>794.2</ele>
        <time>2021-07-25 15:34:46</time>
      </trkpt>
      <trkpt lat="42.78178" lon="-2.50272">
        <ele>795</ele>
        <time>2021-07-25 15:34:50</time>
      </trkpt>
      <trkpt lat="42.78183" lon="-2.50279">
        <ele>795.4</ele>
        <time>2021-07-25 15:34:54</time>
      </trkpt>
      <trkpt lat="42.78189" lon="-2.50287">
        <ele>796</ele>
        <time>2021-07-25 15:34:58</time>
      </trkpt>
      <trkpt lat="42.78195" lon="-2.50295">
        <ele>797</ele>
        <time>2021-07-25 15:35:02</time>
      </trkpt>
      <trkpt lat="42.782" lon="-2.50304">
        <ele>797.2</ele>
        <time>2021-07-25 15:35:06</time>
      </trkpt>
      <trkpt lat="42.78206" lon="-2.50311">
        <ele>797.8</ele>
        <time>2021-07-25 15:35:10</time>
      </trkpt>
      <trkpt lat="42.78211" lon="-2.50319">
        <ele>798.2</ele>
        <time>2021-07-25 15:35:14</time>
      </trkpt>
      <trkpt lat="42.78217" lon="-2.50326">
        <ele>798.8</ele>
        <time>2021-07-25 15:35:18</time>
      </trkpt>
      <trkpt lat="42.78223" lon="-2.50333">
        <ele>799.6</ele>
        <time>2021-07-25 15:35:22</time>
      </trkpt>
      <trkpt lat="42.78229" lon="-2.5034">
        <ele>799.6</ele>
        <time>2021-07-25 15:35:26</time>
      </trkpt>
      <trkpt lat="42.78236" lon="-2.50346">
        <ele>800.2</ele>
        <time>2021-07-25 15:35:30</time>
      </trkpt>
      <trkpt lat="42.78242" lon="-2.50352">
        <ele>800.2</ele>
        <time>2021-07-25 15:35:34</time>
      </trkpt>
      <trkpt lat="42.78249" lon="-2.50358">
        <ele>800.8</ele>
        <time>2021-07-25 15:35:38</time>
      </trkpt>
      <trkpt lat="42.78256" lon="-2.50363">
        <ele>801.4</ele>
        <time>2021-07-25 15:35:42</time>
      </trkpt>
      <trkpt lat="42.78262" lon="-2.50368">
        <ele>801.6</ele>
        <time>2021-07-25 15:35:46</time>
      </trkpt>
      <trkpt lat="42.7827" lon="-2.50373">
        <ele>802.4</ele>
        <time>2021-07-25 15:35:50</time>
      </trkpt>
      <trkpt lat="42.78277" lon="-2.50378">
        <ele>803</ele>
        <time>2021-07-25 15:35:54</time>
      </trkpt>
      <trkpt lat="42.78284" lon="-2.50382">
        <ele>803.2</ele>
        <time>2021-07-25 15:35:58</time>
      </trkpt>
      <trkpt lat="42.78291" lon="-2.50386">
        <ele>803.8</ele>
        <time>2021-07-25 15:36:02</time>
      </trkpt>
      <trkpt lat="42.78298" lon="-2.5039">
        <ele>803.8</ele>
        <time>2021-07-25 15:36:06</time>
      </trkpt>
      <trkpt lat="42.78306" lon="-2.50393">
        <ele>804.8</ele>
        <time>2021-07-25 15:36:10</time>
      </trkpt>
      <trkpt lat="42.78314" lon="-2.50395">
        <ele>805</ele>
        <time>2021-07-25 15:36:14</time>
      </trkpt>
      <trkpt lat="42.78322" lon="-2.50398">
        <ele>806.2</ele>
        <time>2021-07-25 15:36:18</time>
      </trkpt>
      <trkpt lat="42.7833" lon="-2.50401">
        <ele>806</ele>
        <time>2021-07-25 15:36:22</time>
      </trkpt>
      <trkpt lat="42.78338" lon="-2.50403">
        <ele>806.4</ele>
        <time>2021-07-25 15:36:26</time>
      </trkpt>
      <trkpt lat="42.78345" lon="-2.50404">
        <ele>807.4</ele>
        <time>2021-07-25 15:36:30</time>
      </trkpt>
      <trkpt lat="42.78352" lon="-2.50406">
        <ele>807.6</ele>
        <time>2021-07-25 15:36:34</time>
      </trkpt>
      <trkpt lat="42.7836" lon="-2.50406">
        <ele>808</ele>
        <time>2021-07-25 15:36:38</time>
      </trkpt>
      <trkpt lat="42.78367" lon="-2.50408">
        <ele>809</ele>
        <time>2021-07-25 15:36:42</time>
      </trkpt>
      <trkpt lat="42.78375" lon="-2.50409">
        <ele>809.6</ele>
        <time>2021-07-25 15:36:46</time>
      </trkpt>
      <trkpt lat="42.78382" lon="-2.5041">
        <ele>809.6</ele>
        <time>2021-07-25 15:36:50</time>
      </trkpt>
      <trkpt lat="42.7839" lon="-2.5041">
        <ele>810.6</ele>
        <time>2021-07-25 15:36:54</time>
      </trkpt>
      <trkpt lat="42.78398" lon="-2.50411">
        <ele>810.8</ele>
        <time>2021-07-25 15:36:58</time>
      </trkpt>
      <trkpt lat="42.78405" lon="-2.50412">
        <ele>811</ele>
        <time>2021-07-25 15:37:02</time>
      </trkpt>
      <trkpt lat="42.78413" lon="-2.50413">
        <ele>811.8</ele>
        <time>2021-07-25 15:37:06</time>
      </trkpt>
      <trkpt lat="42.7842" lon="-2.50414">
        <ele>812.4</ele>
        <time>2021-07-25 15:37:10</time>
      </trkpt>
      <trkpt lat="42.78427" lon="-2.50415">
        <ele>813.4</ele>
        <time>2021-07-25 15:37:14</time>
      </trkpt>
      <trkpt lat="42.78435" lon="-2.50417">
        <ele>814</ele>
        <time>2021-07-25 15:37:18</time>
      </trkpt>
      <trkpt lat="42.78442" lon="-2.50418">
        <ele>814.4</ele>
        <time>2021-07-25 15:37:22</time>
      </trkpt>
      <trkpt lat="42.78449" lon="-2.5042">
        <ele>814.4</ele>
        <time>2021-07-25 15:37:26</time>
      </trkpt>
      <trkpt lat="42.78455" lon="-2.50422">
        <ele>815</ele>
        <time>2021-07-25 15:37:30</time>
      </trkpt>
      <trkpt lat="42.78461" lon="-2.50423">
        <ele>815.8</ele>
        <time>2021-07-25 15:37:34</time>
      </trkpt>
      <trkpt lat="42.78461" lon="-2.50423">
        <ele>815.8</ele>
        <time>2021-07-25 15:37:38</time>
      </trkpt>
      <trkpt lat="42.78461" lon="-2.50423">
        <ele>815.8</ele>
        <time>2021-07-25 15:37:42</time>
      </trkpt>
      <trkpt lat="42.78461" lon="-2.50423">
        <ele>815.8</ele>
        <time>2021-07-25 15:37:46</time>
      </trkpt>
      <trkpt lat="42.78461" lon="-2.50423">
        <ele>815.8</ele>
        <time>2021-07-25 15:37:50</time>
      </trkpt>
      <trkpt lat="42.78461" lon="-2.50423">
        <ele>816.2</ele>
        <time>2021-07-25 15:37:54</time>
      </trkpt>
      <trkpt lat="42.78461" lon="-2.50423">
        <ele>816.2</ele>
        <time>2021-07-25 15:37:58</time>
      </trkpt>
      <trkpt lat="42.78461" lon="-2.50423">
        <ele>816</ele>
        <time>2021-07-25 15:38:02</time>
      </trkpt>
      <trkpt lat="42.78461" lon="-2.50423">
        <ele>815.6</ele>
        <time>2021-07-25 15:38:06</time>
      </trkpt>
      <trkpt lat="42.78461" lon="-2.50423">
        <ele>816.2</ele>
        <time>2021-07-25 15:38:10</time>
      </trkpt>
      <trkpt lat="42.78461" lon="-2.50423">
        <ele>816.2</ele>
        <time>2021-07-25 15:38:14</time>
      </trkpt>
      <trkpt lat="42.78461" lon="-2.50423">
        <ele>815.8</ele>
        <time>2021-07-25 15:38:18</time>
      </trkpt>
      <trkpt lat="42.78461" lon="-2.50423">
        <ele>815.8</ele>
        <time>2021-07-25 15:38:22</time>
      </trkpt>
      <trkpt lat="42.78461" lon="-2.50423">
        <ele>816</ele>
        <time>2021-07-25 15:38:26</time>
      </trkpt>
      <trkpt lat="42.78461" lon="-2.50423">
        <ele>816</ele>
        <time>2021-07-25 15:38:30</time>
      </trkpt>
      <trkpt lat="42.78461" lon="-2.50423">
        <ele>816.2</ele>
        <time>2021-07-25 15:38:34</time>
      </trkpt>
      <trkpt lat="42.78461" lon="-2.50423">
        <ele>816.4</ele>
        <time>2021-07-25 15:38:38</time>
      </trkpt>
      <trkpt lat="42.78461" lon="-2.50423">
        <ele>816.6</ele>
        <time>2021-07-25 15:38:42</time>
      </trkpt>
      <trkpt lat="42.78461" lon="-2.50423">
        <ele>816.6</ele>
        <time>2021-07-25 15:38:46</time>
      </trkpt>
      <trkpt lat="42.78461" lon="-2.50423">
        <ele>817.2</ele>
        <time>2021-07-25 15:38:50</time>
      </trkpt>
      <trkpt lat="42.78461" lon="-2.50423">
        <ele>816.8</ele>
        <time>2021-07-25 15:38:54</time>
      </trkpt>
      <trkpt lat="42.78461" lon="-2.50423">
        <ele>816.6</ele>
        <time>2021-07-25 15:38:58</time>
      </trkpt>
      <trkpt lat="42.78461" lon="-2.50423">
        <ele>816.8</ele>
        <time>2021-07-25 15:39:02</time>
      </trkpt>
      <trkpt lat="42.78461" lon="-2.50423">
        <ele>816.8</ele>
        <time>2021-07-25 15:39:06</time>
      </trkpt>
      <trkpt lat="42.78461" lon="-2.50423">
        <ele>816.8</ele>
        <time>2021-07-25 15:39:10</time>
      </trkpt>
      <trkpt lat="42.78461" lon="-2.50423">
        <ele>817</ele>
        <time>2021-07-25 15:39:14</time>
      </trkpt>
      <trkpt lat="42.78461" lon="-2.50423">
        <ele>816.6</ele>
        <time>2021-07-25 15:39:18</time>
      </trkpt>
      <trkpt lat="42.78461" lon="-2.50423">
        <ele>816.8</ele>
        <time>2021-07-25 15:39:22</time>
      </trkpt>
      <trkpt lat="42.78461" lon="-2.50423">
        <ele>816.8</ele>
        <time>2021-07-25 15:39:26</time>
      </trkpt>
      <trkpt lat="42.78463" lon="-2.50422">
        <ele>817</ele>
        <time>2021-07-25 15:39:30</time>
      </trkpt>
      <trkpt lat="42.78471" lon="-2.50426">
        <ele>817.4</ele>
        <time>2021-07-25 15:39:34</time>
      </trkpt>
      <trkpt lat="42.78479" lon="-2.5043">
        <ele>818</ele>
        <time>2021-07-25 15:39:38</time>
      </trkpt>
      <trkpt lat="42.78487" lon="-2.50434">
        <ele>818.4</ele>
        <time>2021-07-25 15:39:42</time>
      </trkpt>
      <trkpt lat="42.78495" lon="-2.50438">
        <ele>818.6</ele>
        <time>2021-07-25 15:39:46</time>
      </trkpt>
      <trkpt lat="42.78503" lon="-2.50443">
        <ele>819.6</ele>
        <time>2021-07-25 15:39:50</time>
      </trkpt>
      <trkpt lat="42.78511" lon="-2.50448">
        <ele>819.6</ele>
        <time>2021-07-25 15:39:54</time>
      </trkpt>
      <trkpt lat="42.78518" lon="-2.50454">
        <ele>820.2</ele>
        <time>2021-07-25 15:39:58</time>
      </trkpt>
      <trkpt lat="42.78525" lon="-2.50459">
        <ele>820.8</ele>
        <time>2021-07-25 15:40:02</time>
      </trkpt>
      <trkpt lat="42.78532" lon="-2.50465">
        <ele>821</ele>
        <time>2021-07-25 15:40:06</time>
      </trkpt>
      <trkpt lat="42.78539" lon="-2.50471">
        <ele>821.6</ele>
        <time>2021-07-25 15:40:10</time>
      </trkpt>
      <trkpt lat="42.78545" lon="-2.50478">
        <ele>822</ele>
        <time>2021-07-25 15:40:14</time>
      </trkpt>
      <trkpt lat="42.78552" lon="-2.50484">
        <ele>822.2</ele>
        <time>2021-07-25 15:40:18</time>
      </trkpt>
      <trkpt lat="42.78558" lon="-2.50491">
        <ele>822.8</ele>
        <time>2021-07-25 15:40:22</time>
      </trkpt>
      <trkpt lat="42.78563" lon="-2.50498">
        <ele>823</ele>
        <time>2021-07-25 15:40:26</time>
      </trkpt>
      <trkpt lat="42.78569" lon="-2.50506">
        <ele>824</ele>
        <time>2021-07-25 15:40:30</time>
      </trkpt>
      <trkpt lat="42.78575" lon="-2.50513">
        <ele>824</ele>
        <time>2021-07-25 15:40:34</time>
      </trkpt>
      <trkpt lat="42.7858" lon="-2.50522">
        <ele>823.8</ele>
        <time>2021-07-25 15:40:38</time>
      </trkpt>
      <trkpt lat="42.78585" lon="-2.5053">
        <ele>824.6</ele>
        <time>2021-07-25 15:40:42</time>
      </trkpt>
      <trkpt lat="42.7859" lon="-2.50539">
        <ele>825.2</ele>
        <time>2021-07-25 15:40:46</time>
      </trkpt>
      <trkpt lat="42.78595" lon="-2.50547">
        <ele>826</ele>
        <time>2021-07-25 15:40:50</time>
      </trkpt>
      <trkpt lat="42.786" lon="-2.50556">
        <ele>825.6</ele>
        <time>2021-07-25 15:40:54</time>
      </trkpt>
      <trkpt lat="42.78605" lon="-2.50565">
        <ele>826.4</ele>
        <time>2021-07-25 15:40:58</time>
      </trkpt>
      <trkpt lat="42.78609" lon="-2.50574">
        <ele>827.6</ele>
        <time>2021-07-25 15:41:02</time>
      </trkpt>
      <trkpt lat="42.78613" lon="-2.50583">
        <ele>827.8</ele>
        <time>2021-07-25 15:41:06</time>
      </trkpt>
      <trkpt lat="42.78618" lon="-2.50592">
        <ele>827.4</ele>
        <time>2021-07-25 15:41:10</time>
      </trkpt>
      <trkpt lat="42.78622" lon="-2.50601">
        <ele>828.8</ele>
        <time>2021-07-25 15:41:14</time>
      </trkpt>
      <trkpt lat="42.78627" lon="-2.50611">
        <ele>829</ele>
        <time>2021-07-25 15:41:18</time>
      </trkpt>
      <trkpt lat="42.78631" lon="-2.5062">
        <ele>829.6</ele>
        <time>2021-07-25 15:41:22</time>
      </trkpt>
      <trkpt lat="42.78636" lon="-2.5063">
        <ele>829.8</ele>
        <time>2021-07-25 15:41:26</time>
      </trkpt>
      <trkpt lat="42.7864" lon="-2.5064">
        <ele>830.4</ele>
        <time>2021-07-25 15:41:30</time>
      </trkpt>
      <trkpt lat="42.78645" lon="-2.50649">
        <ele>831</ele>
        <time>2021-07-25 15:41:34</time>
      </trkpt>
      <trkpt lat="42.7865" lon="-2.50658">
        <ele>831</ele>
        <time>2021-07-25 15:41:38</time>
      </trkpt>
      <trkpt lat="42.78656" lon="-2.50667">
        <ele>831.4</ele>
        <time>2021-07-25 15:41:42</time>
      </trkpt>
      <trkpt lat="42.78661" lon="-2.50675">
        <ele>832</ele>
        <time>2021-07-25 15:41:46</time>
      </trkpt>
      <trkpt lat="42.78667" lon="-2.50684">
        <ele>833.6</ele>
        <time>2021-07-25 15:41:50</time>
      </trkpt>
      <trkpt lat="42.78673" lon="-2.50692">
        <ele>833.8</ele>
        <time>2021-07-25 15:41:54</time>
      </trkpt>
      <trkpt lat="42.78679" lon="-2.507">
        <ele>834.2</ele>
        <time>2021-07-25 15:41:58</time>
      </trkpt>
      <trkpt lat="42.78685" lon="-2.50708">
        <ele>834.6</ele>
        <time>2021-07-25 15:42:02</time>
      </trkpt>
      <trkpt lat="42.78691" lon="-2.50714">
        <ele>834.2</ele>
        <time>2021-07-25 15:42:06</time>
      </trkpt>
      <trkpt lat="42.78697" lon="-2.50721">
        <ele>836.2</ele>
        <time>2021-07-25 15:42:10</time>
      </trkpt>
      <trkpt lat="42.78703" lon="-2.50727">
        <ele>837.2</ele>
        <time>2021-07-25 15:42:14</time>
      </trkpt>
      <trkpt lat="42.78709" lon="-2.50734">
        <ele>837.2</ele>
        <time>2021-07-25 15:42:18</time>
      </trkpt>
      <trkpt lat="42.78716" lon="-2.50739">
        <ele>837.2</ele>
        <time>2021-07-25 15:42:22</time>
      </trkpt>
      <trkpt lat="42.78723" lon="-2.50746">
        <ele>837.6</ele>
        <time>2021-07-25 15:42:26</time>
      </trkpt>
      <trkpt lat="42.7873" lon="-2.50752">
        <ele>838.4</ele>
        <time>2021-07-25 15:42:30</time>
      </trkpt>
      <trkpt lat="42.78736" lon="-2.50758">
        <ele>838.6</ele>
        <time>2021-07-25 15:42:34</time>
      </trkpt>
      <trkpt lat="42.78743" lon="-2.50765">
        <ele>839</ele>
        <time>2021-07-25 15:42:38</time>
      </trkpt>
      <trkpt lat="42.78749" lon="-2.50771">
        <ele>839.2</ele>
        <time>2021-07-25 15:42:42</time>
      </trkpt>
      <trkpt lat="42.78756" lon="-2.50777">
        <ele>840.2</ele>
        <time>2021-07-25 15:42:46</time>
      </trkpt>
      <trkpt lat="42.78763" lon="-2.50784">
        <ele>840.8</ele>
        <time>2021-07-25 15:42:50</time>
      </trkpt>
      <trkpt lat="42.7877" lon="-2.5079">
        <ele>841.4</ele>
        <time>2021-07-25 15:42:54</time>
      </trkpt>
      <trkpt lat="42.78776" lon="-2.50796">
        <ele>842.2</ele>
        <time>2021-07-25 15:42:58</time>
      </trkpt>
      <trkpt lat="42.78783" lon="-2.50802">
        <ele>842.4</ele>
        <time>2021-07-25 15:43:02</time>
      </trkpt>
      <trkpt lat="42.7879" lon="-2.50809">
        <ele>843.4</ele>
        <time>2021-07-25 15:43:06</time>
      </trkpt>
      <trkpt lat="42.78797" lon="-2.50815">
        <ele>843.2</ele>
        <time>2021-07-25 15:43:10</time>
      </trkpt>
      <trkpt lat="42.78805" lon="-2.50822">
        <ele>843.8</ele>
        <time>2021-07-25 15:43:14</time>
      </trkpt>
      <trkpt lat="42.78812" lon="-2.50828">
        <ele>844.4</ele>
        <time>2021-07-25 15:43:18</time>
      </trkpt>
      <trkpt lat="42.78819" lon="-2.50835">
        <ele>844.8</ele>
        <time>2021-07-25 15:43:22</time>
      </trkpt>
      <trkpt lat="42.78826" lon="-2.50841">
        <ele>845.4</ele>
        <time>2021-07-25 15:43:26</time>
      </trkpt>
      <trkpt lat="42.78834" lon="-2.50847">
        <ele>846.6</ele>
        <time>2021-07-25 15:43:30</time>
      </trkpt>
      <trkpt lat="42.7884" lon="-2.50854">
        <ele>847</ele>
        <time>2021-07-25 15:43:34</time>
      </trkpt>
      <trkpt lat="42.78847" lon="-2.5086">
        <ele>847.6</ele>
        <time>2021-07-25 15:43:38</time>
      </trkpt>
      <trkpt lat="42.78853" lon="-2.50867">
        <ele>847.8</ele>
        <time>2021-07-25 15:43:42</time>
      </trkpt>
      <trkpt lat="42.78859" lon="-2.50873">
        <ele>847.8</ele>
        <time>2021-07-25 15:43:46</time>
      </trkpt>
      <trkpt lat="42.78865" lon="-2.5088">
        <ele>849</ele>
        <time>2021-07-25 15:43:50</time>
      </trkpt>
      <trkpt lat="42.7887" lon="-2.50884">
        <ele>849</ele>
        <time>2021-07-25 15:43:54</time>
      </trkpt>
      <trkpt lat="42.78876" lon="-2.50889">
        <ele>849</ele>
        <time>2021-07-25 15:43:58</time>
      </trkpt>
      <trkpt lat="42.78883" lon="-2.50894">
        <ele>849.2</ele>
        <time>2021-07-25 15:44:02</time>
      </trkpt>
      <trkpt lat="42.78889" lon="-2.50901">
        <ele>849.4</ele>
        <time>2021-07-25 15:44:06</time>
      </trkpt>
      <trkpt lat="42.78896" lon="-2.50908">
        <ele>849.8</ele>
        <time>2021-07-25 15:44:10</time>
      </trkpt>
      <trkpt lat="42.78903" lon="-2.50914">
        <ele>850.6</ele>
        <time>2021-07-25 15:44:14</time>
      </trkpt>
      <trkpt lat="42.7891" lon="-2.50921">
        <ele>850.8</ele>
        <time>2021-07-25 15:44:18</time>
      </trkpt>
      <trkpt lat="42.78917" lon="-2.50927">
        <ele>851.4</ele>
        <time>2021-07-25 15:44:22</time>
      </trkpt>
      <trkpt lat="42.78924" lon="-2.50934">
        <ele>852</ele>
        <time>2021-07-25 15:44:26</time>
      </trkpt>
      <trkpt lat="42.7893" lon="-2.5094">
        <ele>851.6</ele>
        <time>2021-07-25 15:44:30</time>
      </trkpt>
      <trkpt lat="42.78937" lon="-2.50946">
        <ele>852</ele>
        <time>2021-07-25 15:44:34</time>
      </trkpt>
      <trkpt lat="42.78944" lon="-2.50953">
        <ele>852.2</ele>
        <time>2021-07-25 15:44:38</time>
      </trkpt>
      <trkpt lat="42.7895" lon="-2.5096">
        <ele>852.4</ele>
        <time>2021-07-25 15:44:42</time>
      </trkpt>
      <trkpt lat="42.78957" lon="-2.50967">
        <ele>852.6</ele>
        <time>2021-07-25 15:44:46</time>
      </trkpt>
      <trkpt lat="42.78964" lon="-2.50974">
        <ele>853</ele>
        <time>2021-07-25 15:44:50</time>
      </trkpt>
      <trkpt lat="42.7897" lon="-2.50983">
        <ele>853</ele>
        <time>2021-07-25 15:44:54</time>
      </trkpt>
      <trkpt lat="42.78977" lon="-2.50994">
        <ele>852.8</ele>
        <time>2021-07-25 15:44:58</time>
      </trkpt>
      <trkpt lat="42.78983" lon="-2.51008">
        <ele>853.2</ele>
        <time>2021-07-25 15:45:02</time>
      </trkpt>
      <trkpt lat="42.78989" lon="-2.51022">
        <ele>852.6</ele>
        <time>2021-07-25 15:45:06</time>
      </trkpt>
      <trkpt lat="42.78993" lon="-2.51037">
        <ele>852.6</ele>
        <time>2021-07-25 15:45:10</time>
      </trkpt>
      <trkpt lat="42.78996" lon="-2.51055">
        <ele>851.4</ele>
        <time>2021-07-25 15:45:14</time>
      </trkpt>
      <trkpt lat="42.78998" lon="-2.51076">
        <ele>850.4</ele>
        <time>2021-07-25 15:45:18</time>
      </trkpt>
      <trkpt lat="42.78999" lon="-2.511">
        <ele>850.2</ele>
        <time>2021-07-25 15:45:22</time>
      </trkpt>
      <trkpt lat="42.78999" lon="-2.51124">
        <ele>848.8</ele>
        <time>2021-07-25 15:45:26</time>
      </trkpt>
      <trkpt lat="42.79001" lon="-2.51151">
        <ele>848.2</ele>
        <time>2021-07-25 15:45:30</time>
      </trkpt>
      <trkpt lat="42.79002" lon="-2.51182">
        <ele>846.2</ele>
        <time>2021-07-25 15:45:34</time>
      </trkpt>
      <trkpt lat="42.79003" lon="-2.51218">
        <ele>843.8</ele>
        <time>2021-07-25 15:45:38</time>
      </trkpt>
      <trkpt lat="42.79006" lon="-2.51257">
        <ele>840.8</ele>
        <time>2021-07-25 15:45:42</time>
      </trkpt>
      <trkpt lat="42.79011" lon="-2.51299">
        <ele>839</ele>
        <time>2021-07-25 15:45:46</time>
      </trkpt>
      <trkpt lat="42.79022" lon="-2.51341">
        <ele>835.2</ele>
        <time>2021-07-25 15:45:50</time>
      </trkpt>
      <trkpt lat="42.79037" lon="-2.51383">
        <ele>832.2</ele>
        <time>2021-07-25 15:45:54</time>
      </trkpt>
      <trkpt lat="42.79051" lon="-2.51425">
        <ele>830.8</ele>
        <time>2021-07-25 15:45:58</time>
      </trkpt>
      <trkpt lat="42.79065" lon="-2.51468">
        <ele>829.8</ele>
        <time>2021-07-25 15:46:02</time>
      </trkpt>
      <trkpt lat="42.79076" lon="-2.51515">
        <ele>826.6</ele>
        <time>2021-07-25 15:46:06</time>
      </trkpt>
      <trkpt lat="42.79078" lon="-2.51567">
        <ele>822.8</ele>
        <time>2021-07-25 15:46:10</time>
      </trkpt>
      <trkpt lat="42.79074" lon="-2.51621">
        <ele>820.2</ele>
        <time>2021-07-25 15:46:14</time>
      </trkpt>
      <trkpt lat="42.79068" lon="-2.51675">
        <ele>817.4</ele>
        <time>2021-07-25 15:46:18</time>
      </trkpt>
      <trkpt lat="42.79061" lon="-2.51726">
        <ele>817.2</ele>
        <time>2021-07-25 15:46:22</time>
      </trkpt>
      <trkpt lat="42.79047" lon="-2.51771">
        <ele>816.6</ele>
        <time>2021-07-25 15:46:26</time>
      </trkpt>
      <trkpt lat="42.79029" lon="-2.51809">
        <ele>816.2</ele>
        <time>2021-07-25 15:46:30</time>
      </trkpt>
      <trkpt lat="42.79013" lon="-2.51847">
        <ele>815.2</ele>
        <time>2021-07-25 15:46:34</time>
      </trkpt>
      <trkpt lat="42.79004" lon="-2.5189">
        <ele>812.6</ele>
        <time>2021-07-25 15:46:38</time>
      </trkpt>
      <trkpt lat="42.79003" lon="-2.51937">
        <ele>810</ele>
        <time>2021-07-25 15:46:42</time>
      </trkpt>
      <trkpt lat="42.79003" lon="-2.51983">
        <ele>807.6</ele>
        <time>2021-07-25 15:46:46</time>
      </trkpt>
      <trkpt lat="42.78996" lon="-2.5203">
        <ele>806.6</ele>
        <time>2021-07-25 15:46:50</time>
      </trkpt>
      <trkpt lat="42.78979" lon="-2.52074">
        <ele>804</ele>
        <time>2021-07-25 15:46:54</time>
      </trkpt>
      <trkpt lat="42.78961" lon="-2.52117">
        <ele>800.8</ele>
        <time>2021-07-25 15:46:58</time>
      </trkpt>
      <trkpt lat="42.7895" lon="-2.52162">
        <ele>800.4</ele>
        <time>2021-07-25 15:47:02</time>
      </trkpt>
      <trkpt lat="42.78949" lon="-2.52207">
        <ele>797.8</ele>
        <time>2021-07-25 15:47:06</time>
      </trkpt>
      <trkpt lat="42.7896" lon="-2.52253">
        <ele>794</ele>
        <time>2021-07-25 15:47:10</time>
      </trkpt>
      <trkpt lat="42.78983" lon="-2.52291">
        <ele>791.2</ele>
        <time>2021-07-25 15:47:14</time>
      </trkpt>
      <trkpt lat="42.79015" lon="-2.52319">
        <ele>788.2</ele>
        <time>2021-07-25 15:47:18</time>
      </trkpt>
      <trkpt lat="42.79048" lon="-2.52341">
        <ele>785</ele>
        <time>2021-07-25 15:47:22</time>
      </trkpt>
      <trkpt lat="42.79078" lon="-2.52368">
        <ele>780.6</ele>
        <time>2021-07-25 15:47:26</time>
      </trkpt>
      <trkpt lat="42.791" lon="-2.52405">
        <ele>778.8</ele>
        <time>2021-07-25 15:47:30</time>
      </trkpt>
      <trkpt lat="42.79113" lon="-2.5245">
        <ele>774.8</ele>
        <time>2021-07-25 15:47:34</time>
      </trkpt>
      <trkpt lat="42.7912" lon="-2.52501">
        <ele>773.8</ele>
        <time>2021-07-25 15:47:38</time>
      </trkpt>
      <trkpt lat="42.79127" lon="-2.52555">
        <ele>768.4</ele>
        <time>2021-07-25 15:47:42</time>
      </trkpt>
      <trkpt lat="42.79134" lon="-2.52609">
        <ele>765.4</ele>
        <time>2021-07-25 15:47:46</time>
      </trkpt>
      <trkpt lat="42.79141" lon="-2.52659">
        <ele>764</ele>
        <time>2021-07-25 15:47:50</time>
      </trkpt>
      <trkpt lat="42.79147" lon="-2.52708">
        <ele>760.4</ele>
        <time>2021-07-25 15:47:54</time>
      </trkpt>
      <trkpt lat="42.79154" lon="-2.52755">
        <ele>757.6</ele>
        <time>2021-07-25 15:47:58</time>
      </trkpt>
      <trkpt lat="42.79169" lon="-2.52797">
        <ele>755</ele>
        <time>2021-07-25 15:48:02</time>
      </trkpt>
      <trkpt lat="42.79193" lon="-2.52831">
        <ele>752</ele>
        <time>2021-07-25 15:48:06</time>
      </trkpt>
      <trkpt lat="42.79225" lon="-2.52851">
        <ele>749.6</ele>
        <time>2021-07-25 15:48:10</time>
      </trkpt>
      <trkpt lat="42.79259" lon="-2.5286">
        <ele>747.2</ele>
        <time>2021-07-25 15:48:14</time>
      </trkpt>
      <trkpt lat="42.79291" lon="-2.52863">
        <ele>745.2</ele>
        <time>2021-07-25 15:48:18</time>
      </trkpt>
      <trkpt lat="42.79323" lon="-2.5287">
        <ele>742</ele>
        <time>2021-07-25 15:48:22</time>
      </trkpt>
      <trkpt lat="42.79354" lon="-2.52888">
        <ele>741</ele>
        <time>2021-07-25 15:48:26</time>
      </trkpt>
      <trkpt lat="42.79385" lon="-2.52912">
        <ele>737</ele>
        <time>2021-07-25 15:48:30</time>
      </trkpt>
      <trkpt lat="42.79417" lon="-2.52936">
        <ele>734.4</ele>
        <time>2021-07-25 15:48:34</time>
      </trkpt>
      <trkpt lat="42.79447" lon="-2.52959">
        <ele>733</ele>
        <time>2021-07-25 15:48:38</time>
      </trkpt>
      <trkpt lat="42.79479" lon="-2.52976">
        <ele>730.2</ele>
        <time>2021-07-25 15:48:42</time>
      </trkpt>
      <trkpt lat="42.79512" lon="-2.52979">
        <ele>728</ele>
        <time>2021-07-25 15:48:46</time>
      </trkpt>
      <trkpt lat="42.79546" lon="-2.52968">
        <ele>725.4</ele>
        <time>2021-07-25 15:48:50</time>
      </trkpt>
      <trkpt lat="42.79576" lon="-2.52946">
        <ele>724.6</ele>
        <time>2021-07-25 15:48:54</time>
      </trkpt>
      <trkpt lat="42.79605" lon="-2.52924">
        <ele>722.6</ele>
        <time>2021-07-25 15:48:58</time>
      </trkpt>
      <trkpt lat="42.79637" lon="-2.52911">
        <ele>719.8</ele>
        <time>2021-07-25 15:49:02</time>
      </trkpt>
      <trkpt lat="42.79671" lon="-2.52908">
        <ele>716.4</ele>
        <time>2021-07-25 15:49:06</time>
      </trkpt>
      <trkpt lat="42.79707" lon="-2.52909">
        <ele>715.4</ele>
        <time>2021-07-25 15:49:10</time>
      </trkpt>
      <trkpt lat="42.79743" lon="-2.52909">
        <ele>713.4</ele>
        <time>2021-07-25 15:49:14</time>
      </trkpt>
      <trkpt lat="42.7978" lon="-2.5291">
        <ele>710.2</ele>
        <time>2021-07-25 15:49:18</time>
      </trkpt>
      <trkpt lat="42.79818" lon="-2.5291">
        <ele>708.4</ele>
        <time>2021-07-25 15:49:22</time>
      </trkpt>
      <trkpt lat="42.79855" lon="-2.52906">
        <ele>705.8</ele>
        <time>2021-07-25 15:49:26</time>
      </trkpt>
      <trkpt lat="42.79889" lon="-2.52896">
        <ele>702.8</ele>
        <time>2021-07-25 15:49:30</time>
      </trkpt>
      <trkpt lat="42.79921" lon="-2.52884">
        <ele>701.6</ele>
        <time>2021-07-25 15:49:34</time>
      </trkpt>
      <trkpt lat="42.79954" lon="-2.52873">
        <ele>698</ele>
        <time>2021-07-25 15:49:38</time>
      </trkpt>
      <trkpt lat="42.79986" lon="-2.52863">
        <ele>693.6</ele>
        <time>2021-07-25 15:49:42</time>
      </trkpt>
      <trkpt lat="42.80018" lon="-2.52858">
        <ele>692.2</ele>
        <time>2021-07-25 15:49:46</time>
      </trkpt>
      <trkpt lat="42.80049" lon="-2.52857">
        <ele>691.6</ele>
        <time>2021-07-25 15:49:50</time>
      </trkpt>
      <trkpt lat="42.80078" lon="-2.52861">
        <ele>688.8</ele>
        <time>2021-07-25 15:49:54</time>
      </trkpt>
      <trkpt lat="42.80103" lon="-2.52869">
        <ele>688.8</ele>
        <time>2021-07-25 15:49:58</time>
      </trkpt>
      <trkpt lat="42.80126" lon="-2.52881">
        <ele>686.8</ele>
        <time>2021-07-25 15:50:02</time>
      </trkpt>
      <trkpt lat="42.80142" lon="-2.52891">
        <ele>685.4</ele>
        <time>2021-07-25 15:50:06</time>
      </trkpt>
      <trkpt lat="42.80155" lon="-2.52904">
        <ele>683.2</ele>
        <time>2021-07-25 15:50:10</time>
      </trkpt>
      <trkpt lat="42.80172" lon="-2.52921">
        <ele>683</ele>
        <time>2021-07-25 15:50:14</time>
      </trkpt>
      <trkpt lat="42.80195" lon="-2.5294">
        <ele>678.8</ele>
        <time>2021-07-25 15:50:18</time>
      </trkpt>
      <trkpt lat="42.8022" lon="-2.52962">
        <ele>675.6</ele>
        <time>2021-07-25 15:50:22</time>
      </trkpt>
      <trkpt lat="42.80246" lon="-2.52987">
        <ele>673.8</ele>
        <time>2021-07-25 15:50:26</time>
      </trkpt>
      <trkpt lat="42.80271" lon="-2.53015">
        <ele>668</ele>
        <time>2021-07-25 15:50:30</time>
      </trkpt>
      <trkpt lat="42.80295" lon="-2.53043">
        <ele>667</ele>
        <time>2021-07-25 15:50:34</time>
      </trkpt>
      <trkpt lat="42.8032" lon="-2.53073">
        <ele>665.2</ele>
        <time>2021-07-25 15:50:38</time>
      </trkpt>
      <trkpt lat="42.80344" lon="-2.53105">
        <ele>664.2</ele>
        <time>2021-07-25 15:50:42</time>
      </trkpt>
      <trkpt lat="42.80368" lon="-2.5314">
        <ele>661.2</ele>
        <time>2021-07-25 15:50:46</time>
      </trkpt>
      <trkpt lat="42.80391" lon="-2.53177">
        <ele>658.2</ele>
        <time>2021-07-25 15:50:50</time>
      </trkpt>
      <trkpt lat="42.80409" lon="-2.5322">
        <ele>657.2</ele>
        <time>2021-07-25 15:50:54</time>
      </trkpt>
      <trkpt lat="42.80423" lon="-2.53265">
        <ele>655.6</ele>
        <time>2021-07-25 15:50:58</time>
      </trkpt>
      <trkpt lat="42.80434" lon="-2.53309">
        <ele>652.6</ele>
        <time>2021-07-25 15:51:02</time>
      </trkpt>
      <trkpt lat="42.80444" lon="-2.53347">
        <ele>650</ele>
        <time>2021-07-25 15:51:06</time>
      </trkpt>
      <trkpt lat="42.80456" lon="-2.53386">
        <ele>647.2</ele>
        <time>2021-07-25 15:51:10</time>
      </trkpt>
      <trkpt lat="42.80473" lon="-2.53426">
        <ele>643.2</ele>
        <time>2021-07-25 15:51:14</time>
      </trkpt>
      <trkpt lat="42.80493" lon="-2.53462">
        <ele>640.4</ele>
        <time>2021-07-25 15:51:18</time>
      </trkpt>
      <trkpt lat="42.80515" lon="-2.53493">
        <ele>640</ele>
        <time>2021-07-25 15:51:22</time>
      </trkpt>
      <trkpt lat="42.80538" lon="-2.53522">
        <ele>636</ele>
        <time>2021-07-25 15:51:26</time>
      </trkpt>
      <trkpt lat="42.80563" lon="-2.5355">
        <ele>635</ele>
        <time>2021-07-25 15:51:30</time>
      </trkpt>
      <trkpt lat="42.80589" lon="-2.53576">
        <ele>632</ele>
        <time>2021-07-25 15:51:34</time>
      </trkpt>
      <trkpt lat="42.80616" lon="-2.53601">
        <ele>628</ele>
        <time>2021-07-25 15:51:38</time>
      </trkpt>
      <trkpt lat="42.80645" lon="-2.53625">
        <ele>625.2</ele>
        <time>2021-07-25 15:51:42</time>
      </trkpt>
      <trkpt lat="42.80674" lon="-2.53647">
        <ele>623.4</ele>
        <time>2021-07-25 15:51:46</time>
      </trkpt>
      <trkpt lat="42.80704" lon="-2.53667">
        <ele>622</ele>
        <time>2021-07-25 15:51:50</time>
      </trkpt>
      <trkpt lat="42.80733" lon="-2.53685">
        <ele>618.6</ele>
        <time>2021-07-25 15:51:54</time>
      </trkpt>
      <trkpt lat="42.80763" lon="-2.537">
        <ele>616</ele>
        <time>2021-07-25 15:51:58</time>
      </trkpt>
      <trkpt lat="42.80793" lon="-2.53714">
        <ele>614.6</ele>
        <time>2021-07-25 15:52:02</time>
      </trkpt>
      <trkpt lat="42.80825" lon="-2.53727">
        <ele>612.4</ele>
        <time>2021-07-25 15:52:06</time>
      </trkpt>
      <trkpt lat="42.80857" lon="-2.53739">
        <ele>608.8</ele>
        <time>2021-07-25 15:52:10</time>
      </trkpt>
      <trkpt lat="42.80888" lon="-2.53751">
        <ele>605.2</ele>
        <time>2021-07-25 15:52:14</time>
      </trkpt>
      <trkpt lat="42.80919" lon="-2.53761">
        <ele>605.2</ele>
        <time>2021-07-25 15:52:18</time>
      </trkpt>
      <trkpt lat="42.8095" lon="-2.53772">
        <ele>603.2</ele>
        <time>2021-07-25 15:52:22</time>
      </trkpt>
      <trkpt lat="42.80983" lon="-2.53783">
        <ele>598.6</ele>
        <time>2021-07-25 15:52:26</time>
      </trkpt>
      <trkpt lat="42.81016" lon="-2.53794">
        <ele>593.6</ele>
        <time>2021-07-25 15:52:30</time>
      </trkpt>
      <trkpt lat="42.81048" lon="-2.53806">
        <ele>593.2</ele>
        <time>2021-07-25 15:52:34</time>
      </trkpt>
      <trkpt lat="42.81079" lon="-2.53817">
        <ele>590</ele>
        <time>2021-07-25 15:52:38</time>
      </trkpt>
      <trkpt lat="42.81109" lon="-2.53827">
        <ele>591.6</ele>
        <time>2021-07-25 15:52:42</time>
      </trkpt>
      <trkpt lat="42.81137" lon="-2.53837">
        <ele>591.4</ele>
        <time>2021-07-25 15:52:46</time>
      </trkpt>
      <trkpt lat="42.81165" lon="-2.53848">
        <ele>591.6</ele>
        <time>2021-07-25 15:52:50</time>
      </trkpt>
      <trkpt lat="42.81194" lon="-2.53861">
        <ele>588</ele>
        <time>2021-07-25 15:52:54</time>
      </trkpt>
      <trkpt lat="42.81222" lon="-2.53879">
        <ele>587.2</ele>
        <time>2021-07-25 15:52:58</time>
      </trkpt>
      <trkpt lat="42.81249" lon="-2.53903">
        <ele>586.2</ele>
        <time>2021-07-25 15:53:02</time>
      </trkpt>
      <trkpt lat="42.81273" lon="-2.53929">
        <ele>582.8</ele>
        <time>2021-07-25 15:53:06</time>
      </trkpt>
      <trkpt lat="42.81293" lon="-2.53954">
        <ele>585.6</ele>
        <time>2021-07-25 15:53:10</time>
      </trkpt>
      <trkpt lat="42.81311" lon="-2.53975">
        <ele>584.8</ele>
        <time>2021-07-25 15:53:14</time>
      </trkpt>
      <trkpt lat="42.81326" lon="-2.53992">
        <ele>586</ele>
        <time>2021-07-25 15:53:18</time>
      </trkpt>
      <trkpt lat="42.81339" lon="-2.54008">
        <ele>588</ele>
        <time>2021-07-25 15:53:22</time>
      </trkpt>
      <trkpt lat="42.81351" lon="-2.54022">
        <ele>589</ele>
        <time>2021-07-25 15:53:26</time>
      </trkpt>
      <trkpt lat="42.81362" lon="-2.54036">
        <ele>588.6</ele>
        <time>2021-07-25 15:53:30</time>
      </trkpt>
      <trkpt lat="42.81373" lon="-2.54048">
        <ele>587.6</ele>
        <time>2021-07-25 15:53:34</time>
      </trkpt>
      <trkpt lat="42.81383" lon="-2.5406">
        <ele>588.4</ele>
        <time>2021-07-25 15:53:38</time>
      </trkpt>
      <trkpt lat="42.81393" lon="-2.54071">
        <ele>589.6</ele>
        <time>2021-07-25 15:53:42</time>
      </trkpt>
      <trkpt lat="42.81403" lon="-2.54084">
        <ele>589.2</ele>
        <time>2021-07-25 15:53:46</time>
      </trkpt>
      <trkpt lat="42.81413" lon="-2.54096">
        <ele>589.2</ele>
        <time>2021-07-25 15:53:50</time>
      </trkpt>
      <trkpt lat="42.81424" lon="-2.54108">
        <ele>590</ele>
        <time>2021-07-25 15:53:54</time>
      </trkpt>
      <trkpt lat="42.81435" lon="-2.54122">
        <ele>589.6</ele>
        <time>2021-07-25 15:53:58</time>
      </trkpt>
      <trkpt lat="42.81446" lon="-2.54135">
        <ele>589.4</ele>
        <time>2021-07-25 15:54:02</time>
      </trkpt>
      <trkpt lat="42.81458" lon="-2.54149">
        <ele>589.8</ele>
        <time>2021-07-25 15:54:06</time>
      </trkpt>
      <trkpt lat="42.81469" lon="-2.54163">
        <ele>589.2</ele>
        <time>2021-07-25 15:54:10</time>
      </trkpt>
      <trkpt lat="42.81481" lon="-2.54178">
        <ele>588.6</ele>
        <time>2021-07-25 15:54:14</time>
      </trkpt>
      <trkpt lat="42.81494" lon="-2.54193">
        <ele>587.6</ele>
        <time>2021-07-25 15:54:18</time>
      </trkpt>
      <trkpt lat="42.81507" lon="-2.5421">
        <ele>586.8</ele>
        <time>2021-07-25 15:54:22</time>
      </trkpt>
      <trkpt lat="42.81521" lon="-2.54227">
        <ele>587</ele>
        <time>2021-07-25 15:54:26</time>
      </trkpt>
      <trkpt lat="42.81536" lon="-2.54245">
        <ele>587</ele>
        <time>2021-07-25 15:54:30</time>
      </trkpt>
      <trkpt lat="42.81551" lon="-2.54263">
        <ele>587</ele>
        <time>2021-07-25 15:54:34</time>
      </trkpt>
      <trkpt lat="42.81564" lon="-2.5428">
        <ele>588</ele>
        <time>2021-07-25 15:54:38</time>
      </trkpt>
      <trkpt lat="42.81576" lon="-2.54294">
        <ele>588.6</ele>
        <time>2021-07-25 15:54:42</time>
      </trkpt>
      <trkpt lat="42.81587" lon="-2.54308">
        <ele>589.4</ele>
        <time>2021-07-25 15:54:46</time>
      </trkpt>
      <trkpt lat="42.81597" lon="-2.54323">
        <ele>589.4</ele>
        <time>2021-07-25 15:54:50</time>
      </trkpt>
      <trkpt lat="42.81607" lon="-2.54338">
        <ele>588.6</ele>
        <time>2021-07-25 15:54:54</time>
      </trkpt>
      <trkpt lat="42.81617" lon="-2.54354">
        <ele>588.4</ele>
        <time>2021-07-25 15:54:58</time>
      </trkpt>
      <trkpt lat="42.81627" lon="-2.54372">
        <ele>587.2</ele>
        <time>2021-07-25 15:55:02</time>
      </trkpt>
      <trkpt lat="42.81638" lon="-2.54394">
        <ele>586.4</ele>
        <time>2021-07-25 15:55:06</time>
      </trkpt>
      <trkpt lat="42.81651" lon="-2.54417">
        <ele>584.8</ele>
        <time>2021-07-25 15:55:10</time>
      </trkpt>
      <trkpt lat="42.81663" lon="-2.54442">
        <ele>584.2</ele>
        <time>2021-07-25 15:55:14</time>
      </trkpt>
      <trkpt lat="42.81676" lon="-2.54468">
        <ele>583.4</ele>
        <time>2021-07-25 15:55:18</time>
      </trkpt>
      <trkpt lat="42.81689" lon="-2.54494">
        <ele>582.6</ele>
        <time>2021-07-25 15:55:22</time>
      </trkpt>
      <trkpt lat="42.81702" lon="-2.54519">
        <ele>581.8</ele>
        <time>2021-07-25 15:55:26</time>
      </trkpt>
      <trkpt lat="42.81715" lon="-2.54545">
        <ele>580.8</ele>
        <time>2021-07-25 15:55:30</time>
      </trkpt>
      <trkpt lat="42.81729" lon="-2.54571">
        <ele>580.4</ele>
        <time>2021-07-25 15:55:34</time>
      </trkpt>
      <trkpt lat="42.81742" lon="-2.54597">
        <ele>579.8</ele>
        <time>2021-07-25 15:55:38</time>
      </trkpt>
      <trkpt lat="42.81756" lon="-2.54623">
        <ele>579</ele>
        <time>2021-07-25 15:55:42</time>
      </trkpt>
      <trkpt lat="42.81769" lon="-2.54651">
        <ele>577.6</ele>
        <time>2021-07-25 15:55:46</time>
      </trkpt>
      <trkpt lat="42.81784" lon="-2.5468">
        <ele>577.4</ele>
        <time>2021-07-25 15:55:50</time>
      </trkpt>
      <trkpt lat="42.81798" lon="-2.54707">
        <ele>577</ele>
        <time>2021-07-25 15:55:54</time>
      </trkpt>
      <trkpt lat="42.8181" lon="-2.54731">
        <ele>578</ele>
        <time>2021-07-25 15:55:58</time>
      </trkpt>
      <trkpt lat="42.81821" lon="-2.54753">
        <ele>578.4</ele>
        <time>2021-07-25 15:56:02</time>
      </trkpt>
      <trkpt lat="42.81831" lon="-2.54772">
        <ele>578.4</ele>
        <time>2021-07-25 15:56:06</time>
      </trkpt>
      <trkpt lat="42.8184" lon="-2.54789">
        <ele>578.6</ele>
        <time>2021-07-25 15:56:10</time>
      </trkpt>
      <trkpt lat="42.81848" lon="-2.54804">
        <ele>578.6</ele>
        <time>2021-07-25 15:56:14</time>
      </trkpt>
      <trkpt lat="42.81855" lon="-2.5482">
        <ele>578.8</ele>
        <time>2021-07-25 15:56:18</time>
      </trkpt>
      <trkpt lat="42.81863" lon="-2.54836">
        <ele>577.8</ele>
        <time>2021-07-25 15:56:22</time>
      </trkpt>
      <trkpt lat="42.81872" lon="-2.54853">
        <ele>577</ele>
        <time>2021-07-25 15:56:26</time>
      </trkpt>
      <trkpt lat="42.81882" lon="-2.54873">
        <ele>575.4</ele>
        <time>2021-07-25 15:56:30</time>
      </trkpt>
      <trkpt lat="42.81893" lon="-2.54894">
        <ele>576</ele>
        <time>2021-07-25 15:56:34</time>
      </trkpt>
      <trkpt lat="42.81904" lon="-2.54917">
        <ele>575.2</ele>
        <time>2021-07-25 15:56:38</time>
      </trkpt>
      <trkpt lat="42.81916" lon="-2.5494">
        <ele>574.4</ele>
        <time>2021-07-25 15:56:42</time>
      </trkpt>
      <trkpt lat="42.81927" lon="-2.54962">
        <ele>573.2</ele>
        <time>2021-07-25 15:56:46</time>
      </trkpt>
      <trkpt lat="42.81939" lon="-2.54985">
        <ele>571.8</ele>
        <time>2021-07-25 15:56:50</time>
      </trkpt>
      <trkpt lat="42.81951" lon="-2.5501">
        <ele>571.8</ele>
        <time>2021-07-25 15:56:54</time>
      </trkpt>
      <trkpt lat="42.81965" lon="-2.55036">
        <ele>570.6</ele>
        <time>2021-07-25 15:56:58</time>
      </trkpt>
      <trkpt lat="42.81979" lon="-2.55064">
        <ele>570.2</ele>
        <time>2021-07-25 15:57:02</time>
      </trkpt>
      <trkpt lat="42.81993" lon="-2.55093">
        <ele>569.4</ele>
        <time>2021-07-25 15:57:06</time>
      </trkpt>
      <trkpt lat="42.82008" lon="-2.55122">
        <ele>569</ele>
        <time>2021-07-25 15:57:10</time>
      </trkpt>
      <trkpt lat="42.82022" lon="-2.55151">
        <ele>567.8</ele>
        <time>2021-07-25 15:57:14</time>
      </trkpt>
      <trkpt lat="42.82037" lon="-2.5518">
        <ele>566</ele>
        <time>2021-07-25 15:57:18</time>
      </trkpt>
      <trkpt lat="42.82051" lon="-2.5521">
        <ele>565.2</ele>
        <time>2021-07-25 15:57:22</time>
      </trkpt>
      <trkpt lat="42.82066" lon="-2.55239">
        <ele>565</ele>
        <time>2021-07-25 15:57:26</time>
      </trkpt>
      <trkpt lat="42.82079" lon="-2.55267">
        <ele>565</ele>
        <time>2021-07-25 15:57:30</time>
      </trkpt>
      <trkpt lat="42.82093" lon="-2.55294">
        <ele>564.6</ele>
        <time>2021-07-25 15:57:34</time>
      </trkpt>
      <trkpt lat="42.82106" lon="-2.5532">
        <ele>564.6</ele>
        <time>2021-07-25 15:57:38</time>
      </trkpt>
      <trkpt lat="42.82119" lon="-2.55349">
        <ele>563.6</ele>
        <time>2021-07-25 15:57:42</time>
      </trkpt>
      <trkpt lat="42.82135" lon="-2.55379">
        <ele>561.4</ele>
        <time>2021-07-25 15:57:46</time>
      </trkpt>
      <trkpt lat="42.82151" lon="-2.55411">
        <ele>560.2</ele>
        <time>2021-07-25 15:57:50</time>
      </trkpt>
      <trkpt lat="42.82167" lon="-2.55443">
        <ele>559.2</ele>
        <time>2021-07-25 15:57:54</time>
      </trkpt>
      <trkpt lat="42.82183" lon="-2.55475">
        <ele>558</ele>
        <time>2021-07-25 15:57:58</time>
      </trkpt>
      <trkpt lat="42.82198" lon="-2.55506">
        <ele>558.2</ele>
        <time>2021-07-25 15:58:02</time>
      </trkpt>
      <trkpt lat="42.82212" lon="-2.55534">
        <ele>560.2</ele>
        <time>2021-07-25 15:58:06</time>
      </trkpt>
      <trkpt lat="42.82225" lon="-2.5556">
        <ele>561.4</ele>
        <time>2021-07-25 15:58:10</time>
      </trkpt>
      <trkpt lat="42.82237" lon="-2.55583">
        <ele>561.6</ele>
        <time>2021-07-25 15:58:14</time>
      </trkpt>
      <trkpt lat="42.82247" lon="-2.55604">
        <ele>561</ele>
        <time>2021-07-25 15:58:18</time>
      </trkpt>
      <trkpt lat="42.82257" lon="-2.55623">
        <ele>560.8</ele>
        <time>2021-07-25 15:58:22</time>
      </trkpt>
      <trkpt lat="42.82267" lon="-2.55644">
        <ele>560.8</ele>
        <time>2021-07-25 15:58:26</time>
      </trkpt>
      <trkpt lat="42.82278" lon="-2.55666">
        <ele>559.6</ele>
        <time>2021-07-25 15:58:30</time>
      </trkpt>
      <trkpt lat="42.82289" lon="-2.55688">
        <ele>559.8</ele>
        <time>2021-07-25 15:58:34</time>
      </trkpt>
      <trkpt lat="42.823" lon="-2.5571">
        <ele>559.6</ele>
        <time>2021-07-25 15:58:38</time>
      </trkpt>
      <trkpt lat="42.82312" lon="-2.55732">
        <ele>560.2</ele>
        <time>2021-07-25 15:58:42</time>
      </trkpt>
      <trkpt lat="42.82325" lon="-2.55756">
        <ele>559</ele>
        <time>2021-07-25 15:58:46</time>
      </trkpt>
      <trkpt lat="42.82341" lon="-2.55781">
        <ele>557</ele>
        <time>2021-07-25 15:58:50</time>
      </trkpt>
      <trkpt lat="42.82357" lon="-2.55806">
        <ele>554.6</ele>
        <time>2021-07-25 15:58:54</time>
      </trkpt>
      <trkpt lat="42.82372" lon="-2.55828">
        <ele>554.8</ele>
        <time>2021-07-25 15:58:58</time>
      </trkpt>
      <trkpt lat="42.82386" lon="-2.55851">
        <ele>553.6</ele>
        <time>2021-07-25 15:59:02</time>
      </trkpt>
      <trkpt lat="42.82401" lon="-2.55873">
        <ele>552.8</ele>
        <time>2021-07-25 15:59:06</time>
      </trkpt>
      <trkpt lat="42.82415" lon="-2.55895">
        <ele>552.8</ele>
        <time>2021-07-25 15:59:10</time>
      </trkpt>
      <trkpt lat="42.8243" lon="-2.55917">
        <ele>552.4</ele>
        <time>2021-07-25 15:59:14</time>
      </trkpt>
      <trkpt lat="42.82443" lon="-2.55938">
        <ele>552</ele>
        <time>2021-07-25 15:59:18</time>
      </trkpt>
      <trkpt lat="42.82457" lon="-2.55959">
        <ele>551.8</ele>
        <time>2021-07-25 15:59:22</time>
      </trkpt>
      <trkpt lat="42.82471" lon="-2.5598">
        <ele>551.4</ele>
        <time>2021-07-25 15:59:26</time>
      </trkpt>
      <trkpt lat="42.82484" lon="-2.56001">
        <ele>550.2</ele>
        <time>2021-07-25 15:59:30</time>
      </trkpt>
      <trkpt lat="42.82498" lon="-2.56022">
        <ele>550.6</ele>
        <time>2021-07-25 15:59:34</time>
      </trkpt>
      <trkpt lat="42.82512" lon="-2.56043">
        <ele>551.6</ele>
        <time>2021-07-25 15:59:38</time>
      </trkpt>
      <trkpt lat="42.82525" lon="-2.56064">
        <ele>550.8</ele>
        <time>2021-07-25 15:59:42</time>
      </trkpt>
      <trkpt lat="42.82538" lon="-2.56084">
        <ele>550.4</ele>
        <time>2021-07-25 15:59:46</time>
      </trkpt>
      <trkpt lat="42.8255" lon="-2.56103">
        <ele>551.8</ele>
        <time>2021-07-25 15:59:50</time>
      </trkpt>
      <trkpt lat="42.82562" lon="-2.56121">
        <ele>551</ele>
        <time>2021-07-25 15:59:54</time>
      </trkpt>
      <trkpt lat="42.82575" lon="-2.56141">
        <ele>551</ele>
        <time>2021-07-25 15:59:58</time>
      </trkpt>
      <trkpt lat="42.82587" lon="-2.56159">
        <ele>551.8</ele>
        <time>2021-07-25 16:00:02</time>
      </trkpt>
      <trkpt lat="42.82598" lon="-2.56177">
        <ele>551</ele>
        <time>2021-07-25 16:00:06</time>
      </trkpt>
      <trkpt lat="42.8261" lon="-2.56194">
        <ele>551.2</ele>
        <time>2021-07-25 16:00:10</time>
      </trkpt>
      <trkpt lat="42.82621" lon="-2.56212">
        <ele>551.4</ele>
        <time>2021-07-25 16:00:14</time>
      </trkpt>
      <trkpt lat="42.82634" lon="-2.56231">
        <ele>548.2</ele>
        <time>2021-07-25 16:00:18</time>
      </trkpt>
      <trkpt lat="42.82647" lon="-2.56251">
        <ele>548</ele>
        <time>2021-07-25 16:00:22</time>
      </trkpt>
      <trkpt lat="42.82662" lon="-2.56274">
        <ele>546.8</ele>
        <time>2021-07-25 16:00:26</time>
      </trkpt>
      <trkpt lat="42.82678" lon="-2.56299">
        <ele>545.4</ele>
        <time>2021-07-25 16:00:30</time>
      </trkpt>
      <trkpt lat="42.82696" lon="-2.56327">
        <ele>544.2</ele>
        <time>2021-07-25 16:00:34</time>
      </trkpt>
      <trkpt lat="42.82713" lon="-2.56353">
        <ele>543.8</ele>
        <time>2021-07-25 16:00:38</time>
      </trkpt>
      <trkpt lat="42.8273" lon="-2.56378">
        <ele>542.4</ele>
        <time>2021-07-25 16:00:42</time>
      </trkpt>
      <trkpt lat="42.82746" lon="-2.56403">
        <ele>542.4</ele>
        <time>2021-07-25 16:00:46</time>
      </trkpt>
      <trkpt lat="42.82762" lon="-2.56428">
        <ele>541.2</ele>
        <time>2021-07-25 16:00:50</time>
      </trkpt>
      <trkpt lat="42.82777" lon="-2.56451">
        <ele>540.8</ele>
        <time>2021-07-25 16:00:54</time>
      </trkpt>
      <trkpt lat="42.82792" lon="-2.56474">
        <ele>540.8</ele>
        <time>2021-07-25 16:00:58</time>
      </trkpt>
      <trkpt lat="42.82807" lon="-2.56498">
        <ele>540.6</ele>
        <time>2021-07-25 16:01:02</time>
      </trkpt>
      <trkpt lat="42.82823" lon="-2.56523">
        <ele>539.8</ele>
        <time>2021-07-25 16:01:06</time>
      </trkpt>
      <trkpt lat="42.82839" lon="-2.56547">
        <ele>539.6</ele>
        <time>2021-07-25 16:01:10</time>
      </trkpt>
      <trkpt lat="42.82855" lon="-2.56572">
        <ele>538.8</ele>
        <time>2021-07-25 16:01:14</time>
      </trkpt>
      <trkpt lat="42.8287" lon="-2.56595">
        <ele>537.6</ele>
        <time>2021-07-25 16:01:18</time>
      </trkpt>
      <trkpt lat="42.82885" lon="-2.56618">
        <ele>537</ele>
        <time>2021-07-25 16:01:22</time>
      </trkpt>
      <trkpt lat="42.82899" lon="-2.5664">
        <ele>536.8</ele>
        <time>2021-07-25 16:01:26</time>
      </trkpt>
      <trkpt lat="42.82914" lon="-2.56662">
        <ele>535</ele>
        <time>2021-07-25 16:01:30</time>
      </trkpt>
      <trkpt lat="42.82928" lon="-2.56683">
        <ele>535</ele>
        <time>2021-07-25 16:01:34</time>
      </trkpt>
      <trkpt lat="42.82941" lon="-2.56703">
        <ele>535.8</ele>
        <time>2021-07-25 16:01:38</time>
      </trkpt>
      <trkpt lat="42.82954" lon="-2.56724">
        <ele>535.8</ele>
        <time>2021-07-25 16:01:42</time>
      </trkpt>
      <trkpt lat="42.82967" lon="-2.56746">
        <ele>535.6</ele>
        <time>2021-07-25 16:01:46</time>
      </trkpt>
      <trkpt lat="42.8298" lon="-2.5677">
        <ele>533.4</ele>
        <time>2021-07-25 16:01:50</time>
      </trkpt>
      <trkpt lat="42.82993" lon="-2.56793">
        <ele>531.8</ele>
        <time>2021-07-25 16:01:54</time>
      </trkpt>
      <trkpt lat="42.83005" lon="-2.56815">
        <ele>531.8</ele>
        <time>2021-07-25 16:01:58</time>
      </trkpt>
      <trkpt lat="42.83018" lon="-2.56837">
        <ele>530.4</ele>
        <time>2021-07-25 16:02:02</time>
      </trkpt>
      <trkpt lat="42.83029" lon="-2.56859">
        <ele>530.2</ele>
        <time>2021-07-25 16:02:06</time>
      </trkpt>
      <trkpt lat="42.8304" lon="-2.56881">
        <ele>529.2</ele>
        <time>2021-07-25 16:02:10</time>
      </trkpt>
      <trkpt lat="42.83051" lon="-2.56901">
        <ele>529.2</ele>
        <time>2021-07-25 16:02:14</time>
      </trkpt>
      <trkpt lat="42.8306" lon="-2.56919">
        <ele>530.2</ele>
        <time>2021-07-25 16:02:18</time>
      </trkpt>
      <trkpt lat="42.83068" lon="-2.56933">
        <ele>530.4</ele>
        <time>2021-07-25 16:02:22</time>
      </trkpt>
      <trkpt lat="42.83074" lon="-2.56938">
        <ele>530.8</ele>
        <time>2021-07-25 16:02:26</time>
      </trkpt>
      <trkpt lat="42.83074" lon="-2.56938">
        <ele>530.6</ele>
        <time>2021-07-25 16:02:30</time>
      </trkpt>
      <trkpt lat="42.83074" lon="-2.56938">
        <ele>530.4</ele>
        <time>2021-07-25 16:02:34</time>
      </trkpt>
      <trkpt lat="42.83074" lon="-2.56938">
        <ele>530.6</ele>
        <time>2021-07-25 16:02:38</time>
      </trkpt>
      <trkpt lat="42.83074" lon="-2.56938">
        <ele>530.4</ele>
        <time>2021-07-25 16:02:42</time>
      </trkpt>
      <trkpt lat="42.83074" lon="-2.56938">
        <ele>530</ele>
        <time>2021-07-25 16:02:46</time>
      </trkpt>
      <trkpt lat="42.83074" lon="-2.56938">
        <ele>530.6</ele>
        <time>2021-07-25 16:02:50</time>
      </trkpt>
      <trkpt lat="42.83074" lon="-2.56938">
        <ele>530.2</ele>
        <time>2021-07-25 16:02:54</time>
      </trkpt>
      <trkpt lat="42.83074" lon="-2.56938">
        <ele>530.2</ele>
        <time>2021-07-25 16:02:58</time>
      </trkpt>
      <trkpt lat="42.83074" lon="-2.56938">
        <ele>530.4</ele>
        <time>2021-07-25 16:03:02</time>
      </trkpt>
      <trkpt lat="42.83074" lon="-2.56938">
        <ele>530.4</ele>
        <time>2021-07-25 16:03:06</time>
      </trkpt>
      <trkpt lat="42.83074" lon="-2.56938">
        <ele>530</ele>
        <time>2021-07-25 16:03:10</time>
      </trkpt>
      <trkpt lat="42.83074" lon="-2.56938">
        <ele>530.6</ele>
        <time>2021-07-25 16:03:14</time>
      </trkpt>
      <trkpt lat="42.83074" lon="-2.56938">
        <ele>530.6</ele>
        <time>2021-07-25 16:03:18</time>
      </trkpt>
      <trkpt lat="42.83074" lon="-2.56938">
        <ele>530.6</ele>
        <time>2021-07-25 16:03:22</time>
      </trkpt>
      <trkpt lat="42.83074" lon="-2.56938">
        <ele>530.8</ele>
        <time>2021-07-25 16:03:26</time>
      </trkpt>
      <trkpt lat="42.83074" lon="-2.56938">
        <ele>530.4</ele>
        <time>2021-07-25 16:03:30</time>
      </trkpt>
      <trkpt lat="42.83074" lon="-2.56938">
        <ele>530.8</ele>
        <time>2021-07-25 16:03:34</time>
      </trkpt>
      <trkpt lat="42.83074" lon="-2.56938">
        <ele>530.6</ele>
        <time>2021-07-25 16:03:38</time>
      </trkpt>
      <trkpt lat="42.83074" lon="-2.56938">
        <ele>530.4</ele>
        <time>2021-07-25 16:03:42</time>
      </trkpt>
      <trkpt lat="42.83074" lon="-2.56938">
        <ele>530.6</ele>
        <time>2021-07-25 16:03:46</time>
      </trkpt>
      <trkpt lat="42.83074" lon="-2.56938">
        <ele>531.2</ele>
        <time>2021-07-25 16:03:50</time>
      </trkpt>
      <trkpt lat="42.83074" lon="-2.56938">
        <ele>531</ele>
        <time>2021-07-25 16:03:54</time>
      </trkpt>
      <trkpt lat="42.83074" lon="-2.56938">
        <ele>530.8</ele>
        <time>2021-07-25 16:03:58</time>
      </trkpt>
      <trkpt lat="42.83074" lon="-2.56938">
        <ele>530.6</ele>
        <time>2021-07-25 16:04:02</time>
      </trkpt>
      <trkpt lat="42.83074" lon="-2.56938">
        <ele>531</ele>
        <time>2021-07-25 16:04:06</time>
      </trkpt>
      <trkpt lat="42.83074" lon="-2.56938">
        <ele>530.8</ele>
        <time>2021-07-25 16:04:10</time>
      </trkpt>
      <trkpt lat="42.83074" lon="-2.56938">
        <ele>531</ele>
        <time>2021-07-25 16:04:14</time>
      </trkpt>
      <trkpt lat="42.83074" lon="-2.56938">
        <ele>531.2</ele>
        <time>2021-07-25 16:04:18</time>
      </trkpt>
      <trkpt lat="42.83074" lon="-2.56938">
        <ele>531.4</ele>
        <time>2021-07-25 16:04:22</time>
      </trkpt>
      <trkpt lat="42.83074" lon="-2.56938">
        <ele>531.2</ele>
        <time>2021-07-25 16:04:26</time>
      </trkpt>
      <trkpt lat="42.83074" lon="-2.56938">
        <ele>531.2</ele>
        <time>2021-07-25 16:04:30</time>
      </trkpt>
      <trkpt lat="42.83074" lon="-2.56938">
        <ele>530.8</ele>
        <time>2021-07-25 16:04:34</time>
      </trkpt>
      <trkpt lat="42.83074" lon="-2.56942">
        <ele>530.8</ele>
        <time>2021-07-25 16:04:38</time>
      </trkpt>
      <trkpt lat="42.8307" lon="-2.56948">
        <ele>531.4</ele>
        <time>2021-07-25 16:04:42</time>
      </trkpt>
      <trkpt lat="42.83068" lon="-2.56954">
        <ele>531.4</ele>
        <time>2021-07-25 16:04:46</time>
      </trkpt>
      <trkpt lat="42.83068" lon="-2.56959">
        <ele>531.4</ele>
        <time>2021-07-25 16:04:50</time>
      </trkpt>
      <trkpt lat="42.83068" lon="-2.56964">
        <ele>531.4</ele>
        <time>2021-07-25 16:04:54</time>
      </trkpt>
      <trkpt lat="42.83068" lon="-2.56964">
        <ele>531.6</ele>
        <time>2021-07-25 16:04:58</time>
      </trkpt>
      <trkpt lat="42.83068" lon="-2.56964">
        <ele>531.2</ele>
        <time>2021-07-25 16:05:02</time>
      </trkpt>
      <trkpt lat="42.83068" lon="-2.56964">
        <ele>532</ele>
        <time>2021-07-25 16:05:06</time>
      </trkpt>
      <trkpt lat="42.83068" lon="-2.56969">
        <ele>531.8</ele>
        <time>2021-07-25 16:05:10</time>
      </trkpt>
      <trkpt lat="42.8307" lon="-2.56965">
        <ele>531.4</ele>
        <time>2021-07-25 16:05:14</time>
      </trkpt>
      <trkpt lat="42.83069" lon="-2.5696">
        <ele>532</ele>
        <time>2021-07-25 16:05:18</time>
      </trkpt>
      <trkpt lat="42.83067" lon="-2.56956">
        <ele>532</ele>
        <time>2021-07-25 16:05:22</time>
      </trkpt>
      <trkpt lat="42.83064" lon="-2.56952">
        <ele>532</ele>
        <time>2021-07-25 16:05:26</time>
      </trkpt>
      <trkpt lat="42.83062" lon="-2.56947">
        <ele>532.2</ele>
        <time>2021-07-25 16:05:30</time>
      </trkpt>
      <trkpt lat="42.8306" lon="-2.56943">
        <ele>532.6</ele>
        <time>2021-07-25 16:05:34</time>
      </trkpt>
      <trkpt lat="42.83057" lon="-2.56939">
        <ele>532.6</ele>
        <time>2021-07-25 16:05:38</time>
      </trkpt>
      <trkpt lat="42.83054" lon="-2.56937">
        <ele>532.6</ele>
        <time>2021-07-25 16:05:42</time>
      </trkpt>
      <trkpt lat="42.8305" lon="-2.5694">
        <ele>532.8</ele>
        <time>2021-07-25 16:05:46</time>
      </trkpt>
      <trkpt lat="42.8305" lon="-2.5694">
        <ele>532.8</ele>
        <time>2021-07-25 16:05:50</time>
      </trkpt>
      <trkpt lat="42.8305" lon="-2.5694">
        <ele>532.8</ele>
        <time>2021-07-25 16:05:54</time>
      </trkpt>
      <trkpt lat="42.8305" lon="-2.5694">
        <ele>532.6</ele>
        <time>2021-07-25 16:05:58</time>
      </trkpt>
      <trkpt lat="42.8305" lon="-2.5694">
        <ele>532.8</ele>
        <time>2021-07-25 16:06:02</time>
      </trkpt>
      <trkpt lat="42.8305" lon="-2.5694">
        <ele>532.8</ele>
        <time>2021-07-25 16:06:06</time>
      </trkpt>
      <trkpt lat="42.83048" lon="-2.5694">
        <ele>532.8</ele>
        <time>2021-07-25 16:06:10</time>
      </trkpt>
      <trkpt lat="42.83046" lon="-2.56938">
        <ele>532.8</ele>
        <time>2021-07-25 16:06:14</time>
      </trkpt>
      <trkpt lat="42.83046" lon="-2.56938">
        <ele>533</ele>
        <time>2021-07-25 16:06:18</time>
      </trkpt>
      <trkpt lat="42.83046" lon="-2.56938">
        <ele>533</ele>
        <time>2021-07-25 16:06:22</time>
      </trkpt>
      <trkpt lat="42.83046" lon="-2.56938">
        <ele>533</ele>
        <time>2021-07-25 16:06:26</time>
      </trkpt>
      <trkpt lat="42.83046" lon="-2.56938">
        <ele>533.4</ele>
        <time>2021-07-25 16:06:30</time>
      </trkpt>
      <trkpt lat="42.83046" lon="-2.56938">
        <ele>533.4</ele>
        <time>2021-07-25 16:06:34</time>
      </trkpt>
      <trkpt lat="42.83046" lon="-2.56938">
        <ele>533.4</ele>
        <time>2021-07-25 16:06:38</time>
      </trkpt>
      <trkpt lat="42.83046" lon="-2.56938">
        <ele>533.2</ele>
        <time>2021-07-25 16:06:42</time>
      </trkpt>
      <trkpt lat="42.83046" lon="-2.56938">
        <ele>533.2</ele>
        <time>2021-07-25 16:06:46</time>
      </trkpt>
      <trkpt lat="42.83046" lon="-2.56938">
        <ele>533.4</ele>
        <time>2021-07-25 16:06:50</time>
      </trkpt>
      <trkpt lat="42.83046" lon="-2.56938">
        <ele>533.2</ele>
        <time>2021-07-25 16:06:54</time>
      </trkpt>
      <trkpt lat="42.83046" lon="-2.56938">
        <ele>533.2</ele>
        <time>2021-07-25 16:06:58</time>
      </trkpt>
      <trkpt lat="42.83046" lon="-2.56938">
        <ele>533.2</ele>
        <time>2021-07-25 16:07:02</time>
      </trkpt>
      <trkpt lat="42.83046" lon="-2.56938">
        <ele>533.4</ele>
        <time>2021-07-25 16:07:06</time>
      </trkpt>
      <trkpt lat="42.83046" lon="-2.56938">
        <ele>533.4</ele>
        <time>2021-07-25 16:07:10</time>
      </trkpt>
      <trkpt lat="42.83046" lon="-2.56938">
        <ele>533.4</ele>
        <time>2021-07-25 16:07:14</time>
      </trkpt>
      <trkpt lat="42.83046" lon="-2.56938">
        <ele>533.4</ele>
        <time>2021-07-25 16:07:18</time>
      </trkpt>
      <trkpt lat="42.83046" lon="-2.56938">
        <ele>533.2</ele>
        <time>2021-07-25 16:07:22</time>
      </trkpt>
      <trkpt lat="42.83046" lon="-2.56938">
        <ele>533.4</ele>
        <time>2021-07-25 16:07:26</time>
      </trkpt>
      <trkpt lat="42.83046" lon="-2.56938">
        <ele>533.6</ele>
        <time>2021-07-25 16:07:30</time>
      </trkpt>
      <trkpt lat="42.83046" lon="-2.56938">
        <ele>533.8</ele>
        <time>2021-07-25 16:07:34</time>
      </trkpt>
      <trkpt lat="42.83046" lon="-2.56938">
        <ele>533.4</ele>
        <time>2021-07-25 16:07:38</time>
      </trkpt>
      <trkpt lat="42.83046" lon="-2.56938">
        <ele>533.4</ele>
        <time>2021-07-25 16:07:42</time>
      </trkpt>
      <trkpt lat="42.83046" lon="-2.56938">
        <ele>533.4</ele>
        <time>2021-07-25 16:07:46</time>
      </trkpt>
      <trkpt lat="42.83046" lon="-2.56938">
        <ele>533.8</ele>
        <time>2021-07-25 16:07:50</time>
      </trkpt>
      <trkpt lat="42.83046" lon="-2.56938">
        <ele>533.4</ele>
        <time>2021-07-25 16:07:54</time>
      </trkpt>
      <trkpt lat="42.83046" lon="-2.56938">
        <ele>534</ele>
        <time>2021-07-25 16:07:58</time>
      </trkpt>
      <trkpt lat="42.83046" lon="-2.56938">
        <ele>534</ele>
        <time>2021-07-25 16:08:02</time>
      </trkpt>
      <trkpt lat="42.83046" lon="-2.56938">
        <ele>534</ele>
        <time>2021-07-25 16:08:06</time>
      </trkpt>
      <trkpt lat="42.83046" lon="-2.56938">
        <ele>534</ele>
        <time>2021-07-25 16:08:10</time>
      </trkpt>
      <trkpt lat="42.83046" lon="-2.56938">
        <ele>534</ele>
        <time>2021-07-25 16:08:14</time>
      </trkpt>
      <trkpt lat="42.83046" lon="-2.56938">
        <ele>534.4</ele>
        <time>2021-07-25 16:08:18</time>
      </trkpt>
      <trkpt lat="42.83046" lon="-2.56938">
        <ele>534</ele>
        <time>2021-07-25 16:08:22</time>
      </trkpt>
      <trkpt lat="42.83046" lon="-2.56938">
        <ele>534.2</ele>
        <time>2021-07-25 16:08:26</time>
      </trkpt>
      <trkpt lat="42.83046" lon="-2.56938">
        <ele>534.2</ele>
        <time>2021-07-25 16:08:30</time>
      </trkpt>
      <trkpt lat="42.83046" lon="-2.56938">
        <ele>534</ele>
        <time>2021-07-25 16:08:34</time>
      </trkpt>
      <trkpt lat="42.83046" lon="-2.56938">
        <ele>534</ele>
        <time>2021-07-25 16:08:38</time>
      </trkpt>
      <trkpt lat="42.83046" lon="-2.56938">
        <ele>534</ele>
        <time>2021-07-25 16:08:42</time>
      </trkpt>
      <trkpt lat="42.83046" lon="-2.56938">
        <ele>534</ele>
        <time>2021-07-25 16:08:46</time>
      </trkpt>
      <trkpt lat="42.83046" lon="-2.56938">
        <ele>534.2</ele>
        <time>2021-07-25 16:08:50</time>
      </trkpt>
      <trkpt lat="42.83046" lon="-2.56938">
        <ele>533.8</ele>
        <time>2021-07-25 16:08:54</time>
      </trkpt>
      <trkpt lat="42.83046" lon="-2.56938">
        <ele>534</ele>
        <time>2021-07-25 16:08:58</time>
      </trkpt>
      <trkpt lat="42.83046" lon="-2.56938">
        <ele>534</ele>
        <time>2021-07-25 16:09:02</time>
      </trkpt>
      <trkpt lat="42.83046" lon="-2.56938">
        <ele>534.2</ele>
        <time>2021-07-25 16:09:06</time>
      </trkpt>
      <trkpt lat="42.83046" lon="-2.56938">
        <ele>534.2</ele>
        <time>2021-07-25 16:09:10</time>
      </trkpt>
      <trkpt lat="42.83046" lon="-2.56938">
        <ele>534.2</ele>
        <time>2021-07-25 16:09:14</time>
      </trkpt>
      <trkpt lat="42.83046" lon="-2.56938">
        <ele>534.2</ele>
        <time>2021-07-25 16:09:18</time>
      </trkpt>
      <trkpt lat="42.83046" lon="-2.56938">
        <ele>534</ele>
        <time>2021-07-25 16:09:22</time>
      </trkpt>
      <trkpt lat="42.83046" lon="-2.56938">
        <ele>534</ele>
        <time>2021-07-25 16:09:26</time>
      </trkpt>
      <trkpt lat="42.83046" lon="-2.56938">
        <ele>534</ele>
        <time>2021-07-25 16:09:30</time>
      </trkpt>
      <trkpt lat="42.83046" lon="-2.56938">
        <ele>534.4</ele>
        <time>2021-07-25 16:09:34</time>
      </trkpt>
      <trkpt lat="42.83046" lon="-2.56938">
        <ele>534.2</ele>
        <time>2021-07-25 16:09:38</time>
      </trkpt>
      <trkpt lat="42.83046" lon="-2.56938">
        <ele>534.2</ele>
        <time>2021-07-25 16:09:42</time>
      </trkpt>
      <trkpt lat="42.83046" lon="-2.56938">
        <ele>534.2</ele>
        <time>2021-07-25 16:09:46</time>
      </trkpt>
      <trkpt lat="42.83046" lon="-2.56938">
        <ele>534.4</ele>
        <time>2021-07-25 16:09:50</time>
      </trkpt>
      <trkpt lat="42.83046" lon="-2.56938">
        <ele>534</ele>
        <time>2021-07-25 16:09:54</time>
      </trkpt>
      <trkpt lat="42.83046" lon="-2.56938">
        <ele>534.4</ele>
        <time>2021-07-25 16:09:58</time>
      </trkpt>
      <trkpt lat="42.83046" lon="-2.56938">
        <ele>534.4</ele>
        <time>2021-07-25 16:10:02</time>
      </trkpt>
      <trkpt lat="42.83046" lon="-2.56938">
        <ele>534.8</ele>
        <time>2021-07-25 16:10:06</time>
      </trkpt>
      <trkpt lat="42.83046" lon="-2.56938">
        <ele>534.4</ele>
        <time>2021-07-25 16:10:10</time>
      </trkpt>
      <trkpt lat="42.83046" lon="-2.56938">
        <ele>534.4</ele>
        <time>2021-07-25 16:10:14</time>
      </trkpt>
      <trkpt lat="42.83046" lon="-2.56938">
        <ele>534.8</ele>
        <time>2021-07-25 16:10:18</time>
      </trkpt>
      <trkpt lat="42.83046" lon="-2.56938">
        <ele>534.8</ele>
        <time>2021-07-25 16:10:22</time>
      </trkpt>
      <trkpt lat="42.83046" lon="-2.56938">
        <ele>534.8</ele>
        <time>2021-07-25 16:10:26</time>
      </trkpt>
      <trkpt lat="42.83046" lon="-2.56938">
        <ele>534.2</ele>
        <time>2021-07-25 16:10:30</time>
      </trkpt>
      <trkpt lat="42.83046" lon="-2.56938">
        <ele>533.6</ele>
        <time>2021-07-25 16:10:34</time>
      </trkpt>
      <trkpt lat="42.83046" lon="-2.56938">
        <ele>534</ele>
        <time>2021-07-25 16:10:38</time>
      </trkpt>
      <trkpt lat="42.83046" lon="-2.56938">
        <ele>533.6</ele>
        <time>2021-07-25 16:10:42</time>
      </trkpt>
      <trkpt lat="42.83046" lon="-2.56938">
        <ele>533.8</ele>
        <time>2021-07-25 16:10:46</time>
      </trkpt>
      <trkpt lat="42.83046" lon="-2.56938">
        <ele>533.8</ele>
        <time>2021-07-25 16:10:50</time>
      </trkpt>
      <trkpt lat="42.83046" lon="-2.56938">
        <ele>534.2</ele>
        <time>2021-07-25 16:10:54</time>
      </trkpt>
      <trkpt lat="42.83046" lon="-2.56938">
        <ele>534.2</ele>
        <time>2021-07-25 16:10:58</time>
      </trkpt>
      <trkpt lat="42.83046" lon="-2.56938">
        <ele>534.2</ele>
        <time>2021-07-25 16:11:02</time>
      </trkpt>
      <trkpt lat="42.83046" lon="-2.56938">
        <ele>534.8</ele>
        <time>2021-07-25 16:11:06</time>
      </trkpt>
      <trkpt lat="42.83046" lon="-2.56938">
        <ele>534.4</ele>
        <time>2021-07-25 16:11:10</time>
      </trkpt>
      <trkpt lat="42.83046" lon="-2.56938">
        <ele>534.4</ele>
        <time>2021-07-25 16:11:14</time>
      </trkpt>
      <trkpt lat="42.83046" lon="-2.56938">
        <ele>535</ele>
        <time>2021-07-25 16:11:18</time>
      </trkpt>
      <trkpt lat="42.83046" lon="-2.56938">
        <ele>534.8</ele>
        <time>2021-07-25 16:11:22</time>
      </trkpt>
      <trkpt lat="42.83046" lon="-2.56938">
        <ele>534.6</ele>
        <time>2021-07-25 16:11:26</time>
      </trkpt>
      <trkpt lat="42.83046" lon="-2.56938">
        <ele>534.4</ele>
        <time>2021-07-25 16:11:30</time>
      </trkpt>
      <trkpt lat="42.83046" lon="-2.56938">
        <ele>534.6</ele>
        <time>2021-07-25 16:11:34</time>
      </trkpt>
      <trkpt lat="42.83046" lon="-2.56938">
        <ele>534.2</ele>
        <time>2021-07-25 16:11:38</time>
      </trkpt>
      <trkpt lat="42.83046" lon="-2.56938">
        <ele>534.2</ele>
        <time>2021-07-25 16:11:42</time>
      </trkpt>
      <trkpt lat="42.83046" lon="-2.56938">
        <ele>534.6</ele>
        <time>2021-07-25 16:11:46</time>
      </trkpt>
      <trkpt lat="42.83046" lon="-2.56938">
        <ele>534</ele>
        <time>2021-07-25 16:11:50</time>
      </trkpt>
      <trkpt lat="42.83046" lon="-2.56938">
        <ele>533.8</ele>
        <time>2021-07-25 16:11:54</time>
      </trkpt>
      <trkpt lat="42.83046" lon="-2.56938">
        <ele>534</ele>
        <time>2021-07-25 16:11:58</time>
      </trkpt>
      <trkpt lat="42.83046" lon="-2.56938">
        <ele>534.4</ele>
        <time>2021-07-25 16:12:02</time>
      </trkpt>
      <trkpt lat="42.83046" lon="-2.56938">
        <ele>534.2</ele>
        <time>2021-07-25 16:12:06</time>
      </trkpt>
      <trkpt lat="42.83046" lon="-2.56938">
        <ele>534.2</ele>
        <time>2021-07-25 16:12:10</time>
      </trkpt>
      <trkpt lat="42.83046" lon="-2.56938">
        <ele>534.6</ele>
        <time>2021-07-25 16:12:14</time>
      </trkpt>
      <trkpt lat="42.83046" lon="-2.56938">
        <ele>534.6</ele>
        <time>2021-07-25 16:12:18</time>
      </trkpt>
      <trkpt lat="42.83046" lon="-2.56938">
        <ele>535</ele>
        <time>2021-07-25 16:12:22</time>
      </trkpt>
      <trkpt lat="42.83046" lon="-2.56938">
        <ele>535</ele>
        <time>2021-07-25 16:12:26</time>
      </trkpt>
      <trkpt lat="42.83046" lon="-2.56938">
        <ele>534.8</ele>
        <time>2021-07-25 16:12:30</time>
      </trkpt>
      <trkpt lat="42.83046" lon="-2.56938">
        <ele>534.4</ele>
        <time>2021-07-25 16:12:34</time>
      </trkpt>
      <trkpt lat="42.83046" lon="-2.56938">
        <ele>534.6</ele>
        <time>2021-07-25 16:12:38</time>
      </trkpt>
      <trkpt lat="42.83046" lon="-2.56938">
        <ele>534.8</ele>
        <time>2021-07-25 16:12:42</time>
      </trkpt>
      <trkpt lat="42.83046" lon="-2.56938">
        <ele>534.6</ele>
        <time>2021-07-25 16:12:46</time>
      </trkpt>
      <trkpt lat="42.83046" lon="-2.56938">
        <ele>534.6</ele>
        <time>2021-07-25 16:12:50</time>
      </trkpt>
      <trkpt lat="42.83046" lon="-2.56938">
        <ele>534.4</ele>
        <time>2021-07-25 16:12:54</time>
      </trkpt>
      <trkpt lat="42.83046" lon="-2.56938">
        <ele>534.8</ele>
        <time>2021-07-25 16:12:58</time>
      </trkpt>
      <trkpt lat="42.83046" lon="-2.56938">
        <ele>534.6</ele>
        <time>2021-07-25 16:13:02</time>
      </trkpt>
      <trkpt lat="42.83046" lon="-2.56938">
        <ele>534.8</ele>
        <time>2021-07-25 16:13:06</time>
      </trkpt>
      <trkpt lat="42.83046" lon="-2.56938">
        <ele>534.4</ele>
        <time>2021-07-25 16:13:10</time>
      </trkpt>
      <trkpt lat="42.83046" lon="-2.56938">
        <ele>534.6</ele>
        <time>2021-07-25 16:13:14</time>
      </trkpt>
      <trkpt lat="42.83046" lon="-2.56938">
        <ele>534.8</ele>
        <time>2021-07-25 16:13:18</time>
      </trkpt>
      <trkpt lat="42.83046" lon="-2.56938">
        <ele>534.8</ele>
        <time>2021-07-25 16:13:22</time>
      </trkpt>
      <trkpt lat="42.83046" lon="-2.56938">
        <ele>535</ele>
        <time>2021-07-25 16:13:26</time>
      </trkpt>
      <trkpt lat="42.83046" lon="-2.56938">
        <ele>535</ele>
        <time>2021-07-25 16:13:30</time>
      </trkpt>
      <trkpt lat="42.83046" lon="-2.56938">
        <ele>534.6</ele>
        <time>2021-07-25 16:13:34</time>
      </trkpt>
      <trkpt lat="42.83046" lon="-2.56938">
        <ele>534.8</ele>
        <time>2021-07-25 16:13:38</time>
      </trkpt>
      <trkpt lat="42.83046" lon="-2.56938">
        <ele>535</ele>
        <time>2021-07-25 16:13:42</time>
      </trkpt>
      <trkpt lat="42.83046" lon="-2.56938">
        <ele>534.4</ele>
        <time>2021-07-25 16:13:46</time>
      </trkpt>
      <trkpt lat="42.83046" lon="-2.56938">
        <ele>534.4</ele>
        <time>2021-07-25 16:13:50</time>
      </trkpt>
      <trkpt lat="42.83046" lon="-2.56938">
        <ele>534.4</ele>
        <time>2021-07-25 16:13:54</time>
      </trkpt>
      <trkpt lat="42.83046" lon="-2.56938">
        <ele>534.8</ele>
        <time>2021-07-25 16:13:58</time>
      </trkpt>
      <trkpt lat="42.83046" lon="-2.56938">
        <ele>534.2</ele>
        <time>2021-07-25 16:14:02</time>
      </trkpt>
      <trkpt lat="42.83046" lon="-2.56938">
        <ele>534.4</ele>
        <time>2021-07-25 16:14:06</time>
      </trkpt>
      <trkpt lat="42.83046" lon="-2.56938">
        <ele>534.4</ele>
        <time>2021-07-25 16:14:10</time>
      </trkpt>
      <trkpt lat="42.83046" lon="-2.56938">
        <ele>534.2</ele>
        <time>2021-07-25 16:14:14</time>
      </trkpt>
      <trkpt lat="42.83046" lon="-2.56938">
        <ele>534.4</ele>
        <time>2021-07-25 16:14:18</time>
      </trkpt>
      <trkpt lat="42.83046" lon="-2.56938">
        <ele>534.6</ele>
        <time>2021-07-25 16:14:22</time>
      </trkpt>
      <trkpt lat="42.83046" lon="-2.56938">
        <ele>534.8</ele>
        <time>2021-07-25 16:14:26</time>
      </trkpt>
      <trkpt lat="42.83046" lon="-2.56938">
        <ele>534.8</ele>
        <time>2021-07-25 16:14:30</time>
      </trkpt>
      <trkpt lat="42.83046" lon="-2.56938">
        <ele>534.8</ele>
        <time>2021-07-25 16:14:34</time>
      </trkpt>
      <trkpt lat="42.83046" lon="-2.56938">
        <ele>534.8</ele>
        <time>2021-07-25 16:14:38</time>
      </trkpt>
      <trkpt lat="42.83046" lon="-2.56938">
        <ele>534.2</ele>
        <time>2021-07-25 16:14:42</time>
      </trkpt>
      <trkpt lat="42.83046" lon="-2.56938">
        <ele>534.4</ele>
        <time>2021-07-25 16:14:46</time>
      </trkpt>
      <trkpt lat="42.83046" lon="-2.56938">
        <ele>534.6</ele>
        <time>2021-07-25 16:14:50</time>
      </trkpt>
      <trkpt lat="42.83046" lon="-2.56938">
        <ele>534.2</ele>
        <time>2021-07-25 16:14:54</time>
      </trkpt>
      <trkpt lat="42.83046" lon="-2.56938">
        <ele>534.4</ele>
        <time>2021-07-25 16:14:58</time>
      </trkpt>
      <trkpt lat="42.83046" lon="-2.56938">
        <ele>534.6</ele>
        <time>2021-07-25 16:15:02</time>
      </trkpt>
      <trkpt lat="42.83046" lon="-2.56938">
        <ele>534.2</ele>
        <time>2021-07-25 16:15:06</time>
      </trkpt>
      <trkpt lat="42.83046" lon="-2.56938">
        <ele>534.8</ele>
        <time>2021-07-25 16:15:10</time>
      </trkpt>
      <trkpt lat="42.83046" lon="-2.56938">
        <ele>534.6</ele>
        <time>2021-07-25 16:15:14</time>
      </trkpt>
      <trkpt lat="42.83046" lon="-2.56938">
        <ele>534.6</ele>
        <time>2021-07-25 16:15:18</time>
      </trkpt>
      <trkpt lat="42.83046" lon="-2.56938">
        <ele>534.2</ele>
        <time>2021-07-25 16:15:22</time>
      </trkpt>
      <trkpt lat="42.83046" lon="-2.56938">
        <ele>534.2</ele>
        <time>2021-07-25 16:15:26</time>
      </trkpt>
      <trkpt lat="42.83046" lon="-2.56938">
        <ele>534.6</ele>
        <time>2021-07-25 16:15:30</time>
      </trkpt>
      <trkpt lat="42.83046" lon="-2.56938">
        <ele>534.4</ele>
        <time>2021-07-25 16:15:34</time>
      </trkpt>
      <trkpt lat="42.83046" lon="-2.56938">
        <ele>534</ele>
        <time>2021-07-25 16:15:38</time>
      </trkpt>
      <trkpt lat="42.83046" lon="-2.56938">
        <ele>533.6</ele>
        <time>2021-07-25 16:15:42</time>
      </trkpt>
      <trkpt lat="42.83046" lon="-2.56938">
        <ele>534</ele>
        <time>2021-07-25 16:15:46</time>
      </trkpt>
      <trkpt lat="42.83046" lon="-2.56938">
        <ele>534.2</ele>
        <time>2021-07-25 16:15:50</time>
      </trkpt>
      <trkpt lat="42.83046" lon="-2.56938">
        <ele>534.2</ele>
        <time>2021-07-25 16:15:54</time>
      </trkpt>
      <trkpt lat="42.83046" lon="-2.56938">
        <ele>533.8</ele>
        <time>2021-07-25 16:15:58</time>
      </trkpt>
      <trkpt lat="42.83046" lon="-2.56938">
        <ele>533.8</ele>
        <time>2021-07-25 16:16:02</time>
      </trkpt>
      <trkpt lat="42.83046" lon="-2.56938">
        <ele>534</ele>
        <time>2021-07-25 16:16:06</time>
      </trkpt>
      <trkpt lat="42.83046" lon="-2.56938">
        <ele>534</ele>
        <time>2021-07-25 16:16:10</time>
      </trkpt>
      <trkpt lat="42.83046" lon="-2.56938">
        <ele>534</ele>
        <time>2021-07-25 16:16:14</time>
      </trkpt>
      <trkpt lat="42.83046" lon="-2.56938">
        <ele>534.2</ele>
        <time>2021-07-25 16:16:18</time>
      </trkpt>
      <trkpt lat="42.83046" lon="-2.56938">
        <ele>534</ele>
        <time>2021-07-25 16:16:22</time>
      </trkpt>
      <trkpt lat="42.83046" lon="-2.56938">
        <ele>534</ele>
        <time>2021-07-25 16:16:26</time>
      </trkpt>
      <trkpt lat="42.83046" lon="-2.56938">
        <ele>534.2</ele>
        <time>2021-07-25 16:16:30</time>
      </trkpt>
      <trkpt lat="42.83046" lon="-2.56938">
        <ele>534</ele>
        <time>2021-07-25 16:16:34</time>
      </trkpt>
      <trkpt lat="42.83046" lon="-2.56938">
        <ele>533.8</ele>
        <time>2021-07-25 16:16:38</time>
      </trkpt>
      <trkpt lat="42.83046" lon="-2.56938">
        <ele>533.8</ele>
        <time>2021-07-25 16:16:42</time>
      </trkpt>
      <trkpt lat="42.83046" lon="-2.56938">
        <ele>533.8</ele>
        <time>2021-07-25 16:16:46</time>
      </trkpt>
      <trkpt lat="42.83046" lon="-2.56938">
        <ele>533.8</ele>
        <time>2021-07-25 16:16:50</time>
      </trkpt>
      <trkpt lat="42.83046" lon="-2.56938">
        <ele>533.8</ele>
        <time>2021-07-25 16:16:54</time>
      </trkpt>
      <trkpt lat="42.83046" lon="-2.56938">
        <ele>533.8</ele>
        <time>2021-07-25 16:16:58</time>
      </trkpt>
      <trkpt lat="42.83046" lon="-2.56938">
        <ele>533.4</ele>
        <time>2021-07-25 16:17:02</time>
      </trkpt>
      <trkpt lat="42.83046" lon="-2.56938">
        <ele>534</ele>
        <time>2021-07-25 16:17:06</time>
      </trkpt>
      <trkpt lat="42.83046" lon="-2.56938">
        <ele>533.8</ele>
        <time>2021-07-25 16:17:10</time>
      </trkpt>
      <trkpt lat="42.83046" lon="-2.56938">
        <ele>533.2</ele>
        <time>2021-07-25 16:17:14</time>
      </trkpt>
      <trkpt lat="42.83046" lon="-2.56938">
        <ele>533.8</ele>
        <time>2021-07-25 16:17:18</time>
      </trkpt>
      <trkpt lat="42.83046" lon="-2.56938">
        <ele>533.6</ele>
        <time>2021-07-25 16:17:22</time>
      </trkpt>
      <trkpt lat="42.83046" lon="-2.56938">
        <ele>533.6</ele>
        <time>2021-07-25 16:17:26</time>
      </trkpt>
      <trkpt lat="42.83046" lon="-2.56938">
        <ele>533.8</ele>
        <time>2021-07-25 16:17:30</time>
      </trkpt>
      <trkpt lat="42.83046" lon="-2.56938">
        <ele>533.6</ele>
        <time>2021-07-25 16:17:34</time>
      </trkpt>
      <trkpt lat="42.83046" lon="-2.56938">
        <ele>533.8</ele>
        <time>2021-07-25 16:17:38</time>
      </trkpt>
      <trkpt lat="42.83046" lon="-2.56938">
        <ele>534.2</ele>
        <time>2021-07-25 16:17:42</time>
      </trkpt>
      <trkpt lat="42.83046" lon="-2.56938">
        <ele>534</ele>
        <time>2021-07-25 16:17:46</time>
      </trkpt>
      <trkpt lat="42.83046" lon="-2.56938">
        <ele>534.2</ele>
        <time>2021-07-25 16:17:50</time>
      </trkpt>
      <trkpt lat="42.83046" lon="-2.56938">
        <ele>534</ele>
        <time>2021-07-25 16:17:54</time>
      </trkpt>
      <trkpt lat="42.83046" lon="-2.56938">
        <ele>534</ele>
        <time>2021-07-25 16:17:58</time>
      </trkpt>
      <trkpt lat="42.83046" lon="-2.56938">
        <ele>534.2</ele>
        <time>2021-07-25 16:18:02</time>
      </trkpt>
      <trkpt lat="42.83046" lon="-2.56938">
        <ele>534</ele>
        <time>2021-07-25 16:18:06</time>
      </trkpt>
      <trkpt lat="42.83046" lon="-2.56938">
        <ele>534</ele>
        <time>2021-07-25 16:18:10</time>
      </trkpt>
      <trkpt lat="42.83046" lon="-2.56938">
        <ele>533.8</ele>
        <time>2021-07-25 16:18:14</time>
      </trkpt>
      <trkpt lat="42.83046" lon="-2.56938">
        <ele>534</ele>
        <time>2021-07-25 16:18:18</time>
      </trkpt>
      <trkpt lat="42.83046" lon="-2.56938">
        <ele>534</ele>
        <time>2021-07-25 16:18:22</time>
      </trkpt>
      <trkpt lat="42.83046" lon="-2.56938">
        <ele>533.8</ele>
        <time>2021-07-25 16:18:26</time>
      </trkpt>
      <trkpt lat="42.83046" lon="-2.56938">
        <ele>534</ele>
        <time>2021-07-25 16:18:30</time>
      </trkpt>
      <trkpt lat="42.83046" lon="-2.56938">
        <ele>534</ele>
        <time>2021-07-25 16:18:34</time>
      </trkpt>
      <trkpt lat="42.83046" lon="-2.56938">
        <ele>534</ele>
        <time>2021-07-25 16:18:38</time>
      </trkpt>
      <trkpt lat="42.83046" lon="-2.56938">
        <ele>534</ele>
        <time>2021-07-25 16:18:42</time>
      </trkpt>
      <trkpt lat="42.83046" lon="-2.56938">
        <ele>534.2</ele>
        <time>2021-07-25 16:18:46</time>
      </trkpt>
      <trkpt lat="42.83046" lon="-2.56938">
        <ele>534</ele>
        <time>2021-07-25 16:18:50</time>
      </trkpt>
      <trkpt lat="42.83046" lon="-2.56938">
        <ele>534</ele>
        <time>2021-07-25 16:18:54</time>
      </trkpt>
      <trkpt lat="42.83046" lon="-2.56938">
        <ele>533.6</ele>
        <time>2021-07-25 16:18:58</time>
      </trkpt>
      <trkpt lat="42.83046" lon="-2.56938">
        <ele>533.8</ele>
        <time>2021-07-25 16:19:02</time>
      </trkpt>
      <trkpt lat="42.83046" lon="-2.56938">
        <ele>533.8</ele>
        <time>2021-07-25 16:19:06</time>
      </trkpt>
      <trkpt lat="42.83046" lon="-2.56938">
        <ele>533.2</ele>
        <time>2021-07-25 16:19:10</time>
      </trkpt>
      <trkpt lat="42.83046" lon="-2.56938">
        <ele>533.4</ele>
        <time>2021-07-25 16:19:14</time>
      </trkpt>
      <trkpt lat="42.83046" lon="-2.56938">
        <ele>533.4</ele>
        <time>2021-07-25 16:19:18</time>
      </trkpt>
      <trkpt lat="42.83046" lon="-2.56938">
        <ele>533.2</ele>
        <time>2021-07-25 16:19:22</time>
      </trkpt>
      <trkpt lat="42.83046" lon="-2.56938">
        <ele>533.4</ele>
        <time>2021-07-25 16:19:26</time>
      </trkpt>
      <trkpt lat="42.83046" lon="-2.56938">
        <ele>533.4</ele>
        <time>2021-07-25 16:19:30</time>
      </trkpt>
      <trkpt lat="42.83046" lon="-2.56938">
        <ele>533.6</ele>
        <time>2021-07-25 16:19:34</time>
      </trkpt>
      <trkpt lat="42.83046" lon="-2.56938">
        <ele>533.8</ele>
        <time>2021-07-25 16:19:38</time>
      </trkpt>
      <trkpt lat="42.83046" lon="-2.56938">
        <ele>533.4</ele>
        <time>2021-07-25 16:19:42</time>
      </trkpt>
      <trkpt lat="42.83046" lon="-2.56938">
        <ele>533.6</ele>
        <time>2021-07-25 16:19:46</time>
      </trkpt>
      <trkpt lat="42.83046" lon="-2.56938">
        <ele>533.8</ele>
        <time>2021-07-25 16:19:50</time>
      </trkpt>
      <trkpt lat="42.83046" lon="-2.56938">
        <ele>534</ele>
        <time>2021-07-25 16:19:54</time>
      </trkpt>
      <trkpt lat="42.83046" lon="-2.56938">
        <ele>533.8</ele>
        <time>2021-07-25 16:19:58</time>
      </trkpt>
      <trkpt lat="42.83046" lon="-2.56938">
        <ele>534</ele>
        <time>2021-07-25 16:20:02</time>
      </trkpt>
      <trkpt lat="42.83046" lon="-2.56938">
        <ele>533.8</ele>
        <time>2021-07-25 16:20:06</time>
      </trkpt>
      <trkpt lat="42.83046" lon="-2.56938">
        <ele>533.8</ele>
        <time>2021-07-25 16:20:10</time>
      </trkpt>
      <trkpt lat="42.83046" lon="-2.56938">
        <ele>533.6</ele>
        <time>2021-07-25 16:20:14</time>
      </trkpt>
      <trkpt lat="42.83046" lon="-2.56938">
        <ele>534.2</ele>
        <time>2021-07-25 16:20:18</time>
      </trkpt>
      <trkpt lat="42.83046" lon="-2.56938">
        <ele>534</ele>
        <time>2021-07-25 16:20:22</time>
      </trkpt>
      <trkpt lat="42.83046" lon="-2.56938">
        <ele>534</ele>
        <time>2021-07-25 16:20:26</time>
      </trkpt>
      <trkpt lat="42.83046" lon="-2.56938">
        <ele>534</ele>
        <time>2021-07-25 16:20:30</time>
      </trkpt>
      <trkpt lat="42.83046" lon="-2.56938">
        <ele>534</ele>
        <time>2021-07-25 16:20:34</time>
      </trkpt>
      <trkpt lat="42.83046" lon="-2.56938">
        <ele>534.2</ele>
        <time>2021-07-25 16:20:38</time>
      </trkpt>
      <trkpt lat="42.83046" lon="-2.56938">
        <ele>534</ele>
        <time>2021-07-25 16:20:42</time>
      </trkpt>
      <trkpt lat="42.83046" lon="-2.56938">
        <ele>534.2</ele>
        <time>2021-07-25 16:20:46</time>
      </trkpt>
      <trkpt lat="42.83046" lon="-2.56938">
        <ele>534.2</ele>
        <time>2021-07-25 16:20:50</time>
      </trkpt>
      <trkpt lat="42.83046" lon="-2.56938">
        <ele>534.2</ele>
        <time>2021-07-25 16:20:54</time>
      </trkpt>
      <trkpt lat="42.83046" lon="-2.56938">
        <ele>534.2</ele>
        <time>2021-07-25 16:20:58</time>
      </trkpt>
      <trkpt lat="42.83046" lon="-2.56938">
        <ele>534</ele>
        <time>2021-07-25 16:21:02</time>
      </trkpt>
      <trkpt lat="42.83046" lon="-2.56938">
        <ele>534</ele>
        <time>2021-07-25 16:21:06</time>
      </trkpt>
      <trkpt lat="42.83046" lon="-2.56938">
        <ele>534.2</ele>
        <time>2021-07-25 16:21:10</time>
      </trkpt>
      <trkpt lat="42.83046" lon="-2.56938">
        <ele>534</ele>
        <time>2021-07-25 16:21:14</time>
      </trkpt>
      <trkpt lat="42.83046" lon="-2.56938">
        <ele>534</ele>
        <time>2021-07-25 16:21:18</time>
      </trkpt>
      <trkpt lat="42.83046" lon="-2.56938">
        <ele>534.4</ele>
        <time>2021-07-25 16:21:22</time>
      </trkpt>
      <trkpt lat="42.83046" lon="-2.56938">
        <ele>534</ele>
        <time>2021-07-25 16:21:26</time>
      </trkpt>
      <trkpt lat="42.83046" lon="-2.56938">
        <ele>534</ele>
        <time>2021-07-25 16:21:30</time>
      </trkpt>
      <trkpt lat="42.83046" lon="-2.56938">
        <ele>534</ele>
        <time>2021-07-25 16:21:34</time>
      </trkpt>
      <trkpt lat="42.83046" lon="-2.56938">
        <ele>534</ele>
        <time>2021-07-25 16:21:38</time>
      </trkpt>
      <trkpt lat="42.83046" lon="-2.56938">
        <ele>534</ele>
        <time>2021-07-25 16:21:42</time>
      </trkpt>
      <trkpt lat="42.83046" lon="-2.56938">
        <ele>534</ele>
        <time>2021-07-25 16:21:46</time>
      </trkpt>
      <trkpt lat="42.83046" lon="-2.56938">
        <ele>534.6</ele>
        <time>2021-07-25 16:21:50</time>
      </trkpt>
      <trkpt lat="42.83046" lon="-2.56938">
        <ele>534.6</ele>
        <time>2021-07-25 16:21:54</time>
      </trkpt>
      <trkpt lat="42.83046" lon="-2.56938">
        <ele>534.6</ele>
        <time>2021-07-25 16:21:58</time>
      </trkpt>
      <trkpt lat="42.83046" lon="-2.56938">
        <ele>534</ele>
        <time>2021-07-25 16:22:02</time>
      </trkpt>
      <trkpt lat="42.83046" lon="-2.56938">
        <ele>534</ele>
        <time>2021-07-25 16:22:06</time>
      </trkpt>
      <trkpt lat="42.83046" lon="-2.56938">
        <ele>533.8</ele>
        <time>2021-07-25 16:22:10</time>
      </trkpt>
      <trkpt lat="42.83046" lon="-2.56938">
        <ele>534</ele>
        <time>2021-07-25 16:22:14</time>
      </trkpt>
      <trkpt lat="42.83046" lon="-2.56938">
        <ele>534</ele>
        <time>2021-07-25 16:22:18</time>
      </trkpt>
      <trkpt lat="42.83046" lon="-2.56938">
        <ele>534.2</ele>
        <time>2021-07-25 16:22:22</time>
      </trkpt>
      <trkpt lat="42.83046" lon="-2.56938">
        <ele>534</ele>
        <time>2021-07-25 16:22:26</time>
      </trkpt>
      <trkpt lat="42.83046" lon="-2.56938">
        <ele>534.4</ele>
        <time>2021-07-25 16:22:30</time>
      </trkpt>
      <trkpt lat="42.83046" lon="-2.56938">
        <ele>534</ele>
        <time>2021-07-25 16:22:34</time>
      </trkpt>
      <trkpt lat="42.83046" lon="-2.56938">
        <ele>534</ele>
        <time>2021-07-25 16:22:38</time>
      </trkpt>
      <trkpt lat="42.83046" lon="-2.56938">
        <ele>534.2</ele>
        <time>2021-07-25 16:22:42</time>
      </trkpt>
      <trkpt lat="42.83046" lon="-2.56938">
        <ele>534.4</ele>
        <time>2021-07-25 16:22:46</time>
      </trkpt>
      <trkpt lat="42.83046" lon="-2.56938">
        <ele>534.2</ele>
        <time>2021-07-25 16:22:50</time>
      </trkpt>
      <trkpt lat="42.83046" lon="-2.56938">
        <ele>534.2</ele>
        <time>2021-07-25 16:22:54</time>
      </trkpt>
      <trkpt lat="42.83046" lon="-2.56938">
        <ele>533.8</ele>
        <time>2021-07-25 16:22:58</time>
      </trkpt>
      <trkpt lat="42.83046" lon="-2.56938">
        <ele>533.8</ele>
        <time>2021-07-25 16:23:02</time>
      </trkpt>
      <trkpt lat="42.83046" lon="-2.56938">
        <ele>534</ele>
        <time>2021-07-25 16:23:06</time>
      </trkpt>
      <trkpt lat="42.83046" lon="-2.56938">
        <ele>534</ele>
        <time>2021-07-25 16:23:10</time>
      </trkpt>
      <trkpt lat="42.83046" lon="-2.56938">
        <ele>533.8</ele>
        <time>2021-07-25 16:23:14</time>
      </trkpt>
      <trkpt lat="42.83046" lon="-2.56938">
        <ele>534</ele>
        <time>2021-07-25 16:23:18</time>
      </trkpt>
      <trkpt lat="42.83046" lon="-2.56938">
        <ele>533.6</ele>
        <time>2021-07-25 16:23:22</time>
      </trkpt>
      <trkpt lat="42.83046" lon="-2.56938">
        <ele>534.4</ele>
        <time>2021-07-25 16:23:26</time>
      </trkpt>
      <trkpt lat="42.83046" lon="-2.56938">
        <ele>533.8</ele>
        <time>2021-07-25 16:23:30</time>
      </trkpt>
      <trkpt lat="42.83046" lon="-2.56938">
        <ele>533.8</ele>
        <time>2021-07-25 16:23:34</time>
      </trkpt>
      <trkpt lat="42.83046" lon="-2.56938">
        <ele>533.8</ele>
        <time>2021-07-25 16:23:38</time>
      </trkpt>
      <trkpt lat="42.83046" lon="-2.56938">
        <ele>534</ele>
        <time>2021-07-25 16:23:42</time>
      </trkpt>
      <trkpt lat="42.83046" lon="-2.56938">
        <ele>534</ele>
        <time>2021-07-25 16:23:46</time>
      </trkpt>
      <trkpt lat="42.83046" lon="-2.56938">
        <ele>533.4</ele>
        <time>2021-07-25 16:23:50</time>
      </trkpt>
      <trkpt lat="42.83046" lon="-2.56938">
        <ele>533.8</ele>
        <time>2021-07-25 16:23:54</time>
      </trkpt>
      <trkpt lat="42.83046" lon="-2.56938">
        <ele>533.6</ele>
        <time>2021-07-25 16:23:58</time>
      </trkpt>
      <trkpt lat="42.83046" lon="-2.56938">
        <ele>533.6</ele>
        <time>2021-07-25 16:24:02</time>
      </trkpt>
      <trkpt lat="42.83046" lon="-2.56938">
        <ele>533.8</ele>
        <time>2021-07-25 16:24:06</time>
      </trkpt>
      <trkpt lat="42.83046" lon="-2.56938">
        <ele>534</ele>
        <time>2021-07-25 16:24:10</time>
      </trkpt>
      <trkpt lat="42.83046" lon="-2.56938">
        <ele>533.6</ele>
        <time>2021-07-25 16:24:14</time>
      </trkpt>
      <trkpt lat="42.83046" lon="-2.56938">
        <ele>534</ele>
        <time>2021-07-25 16:24:18</time>
      </trkpt>
      <trkpt lat="42.83046" lon="-2.56938">
        <ele>533.6</ele>
        <time>2021-07-25 16:24:22</time>
      </trkpt>
      <trkpt lat="42.83046" lon="-2.56938">
        <ele>534</ele>
        <time>2021-07-25 16:24:26</time>
      </trkpt>
      <trkpt lat="42.83046" lon="-2.56938">
        <ele>533.8</ele>
        <time>2021-07-25 16:24:30</time>
      </trkpt>
      <trkpt lat="42.83046" lon="-2.56938">
        <ele>534</ele>
        <time>2021-07-25 16:24:34</time>
      </trkpt>
      <trkpt lat="42.83046" lon="-2.56938">
        <ele>533.8</ele>
        <time>2021-07-25 16:24:38</time>
      </trkpt>
      <trkpt lat="42.83046" lon="-2.56938">
        <ele>533.8</ele>
        <time>2021-07-25 16:24:42</time>
      </trkpt>
      <trkpt lat="42.83046" lon="-2.56938">
        <ele>534</ele>
        <time>2021-07-25 16:24:46</time>
      </trkpt>
      <trkpt lat="42.83046" lon="-2.56938">
        <ele>533.8</ele>
        <time>2021-07-25 16:24:50</time>
      </trkpt>
      <trkpt lat="42.83046" lon="-2.56938">
        <ele>534</ele>
        <time>2021-07-25 16:24:54</time>
      </trkpt>
      <trkpt lat="42.83046" lon="-2.56938">
        <ele>533.6</ele>
        <time>2021-07-25 16:24:58</time>
      </trkpt>
      <trkpt lat="42.83046" lon="-2.56938">
        <ele>534</ele>
        <time>2021-07-25 16:25:02</time>
      </trkpt>
      <trkpt lat="42.83046" lon="-2.56938">
        <ele>533.8</ele>
        <time>2021-07-25 16:25:06</time>
      </trkpt>
      <trkpt lat="42.83046" lon="-2.56938">
        <ele>533.8</ele>
        <time>2021-07-25 16:25:10</time>
      </trkpt>
      <trkpt lat="42.83046" lon="-2.56938">
        <ele>533.8</ele>
        <time>2021-07-25 16:25:14</time>
      </trkpt>
      <trkpt lat="42.83046" lon="-2.56938">
        <ele>534</ele>
        <time>2021-07-25 16:25:18</time>
      </trkpt>
      <trkpt lat="42.83046" lon="-2.56938">
        <ele>534.2</ele>
        <time>2021-07-25 16:25:22</time>
      </trkpt>
      <trkpt lat="42.83046" lon="-2.56938">
        <ele>534.2</ele>
        <time>2021-07-25 16:25:26</time>
      </trkpt>
      <trkpt lat="42.83046" lon="-2.56938">
        <ele>534.2</ele>
        <time>2021-07-25 16:25:30</time>
      </trkpt>
      <trkpt lat="42.83046" lon="-2.56938">
        <ele>534.2</ele>
        <time>2021-07-25 16:25:34</time>
      </trkpt>
      <trkpt lat="42.83046" lon="-2.56938">
        <ele>534.4</ele>
        <time>2021-07-25 16:25:38</time>
      </trkpt>
      <trkpt lat="42.83046" lon="-2.56938">
        <ele>534.2</ele>
        <time>2021-07-25 16:25:42</time>
      </trkpt>
      <trkpt lat="42.83046" lon="-2.56938">
        <ele>534.2</ele>
        <time>2021-07-25 16:25:46</time>
      </trkpt>
      <trkpt lat="42.83046" lon="-2.56938">
        <ele>534</ele>
        <time>2021-07-25 16:25:50</time>
      </trkpt>
      <trkpt lat="42.83046" lon="-2.56938">
        <ele>533.8</ele>
        <time>2021-07-25 16:25:54</time>
      </trkpt>
      <trkpt lat="42.83046" lon="-2.56938">
        <ele>534</ele>
        <time>2021-07-25 16:25:58</time>
      </trkpt>
      <trkpt lat="42.83046" lon="-2.56938">
        <ele>534</ele>
        <time>2021-07-25 16:26:02</time>
      </trkpt>
      <trkpt lat="42.83046" lon="-2.56938">
        <ele>534</ele>
        <time>2021-07-25 16:26:06</time>
      </trkpt>
      <trkpt lat="42.83046" lon="-2.56938">
        <ele>533.4</ele>
        <time>2021-07-25 16:26:10</time>
      </trkpt>
      <trkpt lat="42.83046" lon="-2.56938">
        <ele>533.8</ele>
        <time>2021-07-25 16:26:14</time>
      </trkpt>
      <trkpt lat="42.83046" lon="-2.56938">
        <ele>533.6</ele>
        <time>2021-07-25 16:26:18</time>
      </trkpt>
      <trkpt lat="42.83046" lon="-2.56938">
        <ele>533.6</ele>
        <time>2021-07-25 16:26:22</time>
      </trkpt>
      <trkpt lat="42.83046" lon="-2.56938">
        <ele>533.8</ele>
        <time>2021-07-25 16:26:26</time>
      </trkpt>
      <trkpt lat="42.83046" lon="-2.56938">
        <ele>534</ele>
        <time>2021-07-25 16:26:30</time>
      </trkpt>
      <trkpt lat="42.83046" lon="-2.56938">
        <ele>534</ele>
        <time>2021-07-25 16:26:34</time>
      </trkpt>
      <trkpt lat="42.83046" lon="-2.56938">
        <ele>533.8</ele>
        <time>2021-07-25 16:26:38</time>
      </trkpt>
      <trkpt lat="42.83046" lon="-2.56938">
        <ele>533.6</ele>
        <time>2021-07-25 16:26:42</time>
      </trkpt>
      <trkpt lat="42.83046" lon="-2.56938">
        <ele>534</ele>
        <time>2021-07-25 16:26:46</time>
      </trkpt>
      <trkpt lat="42.83046" lon="-2.56938">
        <ele>533.4</ele>
        <time>2021-07-25 16:26:50</time>
      </trkpt>
      <trkpt lat="42.83046" lon="-2.56938">
        <ele>534</ele>
        <time>2021-07-25 16:26:54</time>
      </trkpt>
      <trkpt lat="42.83046" lon="-2.56938">
        <ele>534</ele>
        <time>2021-07-25 16:26:58</time>
      </trkpt>
      <trkpt lat="42.83046" lon="-2.56938">
        <ele>533.8</ele>
        <time>2021-07-25 16:27:02</time>
      </trkpt>
      <trkpt lat="42.83046" lon="-2.56938">
        <ele>534</ele>
        <time>2021-07-25 16:27:06</time>
      </trkpt>
      <trkpt lat="42.83046" lon="-2.56938">
        <ele>534</ele>
        <time>2021-07-25 16:27:10</time>
      </trkpt>
      <trkpt lat="42.83046" lon="-2.56938">
        <ele>534</ele>
        <time>2021-07-25 16:27:14</time>
      </trkpt>
      <trkpt lat="42.83046" lon="-2.56938">
        <ele>534</ele>
        <time>2021-07-25 16:27:18</time>
      </trkpt>
      <trkpt lat="42.83046" lon="-2.56938">
        <ele>534</ele>
        <time>2021-07-25 16:27:22</time>
      </trkpt>
      <trkpt lat="42.83046" lon="-2.56938">
        <ele>534.2</ele>
        <time>2021-07-25 16:27:26</time>
      </trkpt>
      <trkpt lat="42.83046" lon="-2.56938">
        <ele>533.8</ele>
        <time>2021-07-25 16:27:30</time>
      </trkpt>
      <trkpt lat="42.83046" lon="-2.56938">
        <ele>533.8</ele>
        <time>2021-07-25 16:27:34</time>
      </trkpt>
      <trkpt lat="42.83046" lon="-2.56938">
        <ele>534.2</ele>
        <time>2021-07-25 16:27:38</time>
      </trkpt>
      <trkpt lat="42.83046" lon="-2.56938">
        <ele>534.2</ele>
        <time>2021-07-25 16:27:42</time>
      </trkpt>
      <trkpt lat="42.83046" lon="-2.56938">
        <ele>534.2</ele>
        <time>2021-07-25 16:27:46</time>
      </trkpt>
      <trkpt lat="42.83046" lon="-2.56938">
        <ele>534.6</ele>
        <time>2021-07-25 16:27:50</time>
      </trkpt>
      <trkpt lat="42.83046" lon="-2.56938">
        <ele>534.8</ele>
        <time>2021-07-25 16:27:54</time>
      </trkpt>
      <trkpt lat="42.83046" lon="-2.56938">
        <ele>534.4</ele>
        <time>2021-07-25 16:27:58</time>
      </trkpt>
      <trkpt lat="42.83046" lon="-2.56938">
        <ele>534.4</ele>
        <time>2021-07-25 16:28:02</time>
      </trkpt>
      <trkpt lat="42.83046" lon="-2.56938">
        <ele>534.4</ele>
        <time>2021-07-25 16:28:06</time>
      </trkpt>
      <trkpt lat="42.83046" lon="-2.56938">
        <ele>534.8</ele>
        <time>2021-07-25 16:28:10</time>
      </trkpt>
      <trkpt lat="42.83046" lon="-2.56938">
        <ele>534</ele>
        <time>2021-07-25 16:28:14</time>
      </trkpt>
      <trkpt lat="42.83046" lon="-2.56938">
        <ele>534</ele>
        <time>2021-07-25 16:28:18</time>
      </trkpt>
      <trkpt lat="42.83046" lon="-2.56938">
        <ele>534.4</ele>
        <time>2021-07-25 16:28:22</time>
      </trkpt>
      <trkpt lat="42.83046" lon="-2.56938">
        <ele>534</ele>
        <time>2021-07-25 16:28:26</time>
      </trkpt>
      <trkpt lat="42.83046" lon="-2.56938">
        <ele>534.2</ele>
        <time>2021-07-25 16:28:30</time>
      </trkpt>
      <trkpt lat="42.83046" lon="-2.56938">
        <ele>534</ele>
        <time>2021-07-25 16:28:34</time>
      </trkpt>
      <trkpt lat="42.83046" lon="-2.56938">
        <ele>534.2</ele>
        <time>2021-07-25 16:28:38</time>
      </trkpt>
      <trkpt lat="42.83046" lon="-2.56938">
        <ele>534</ele>
        <time>2021-07-25 16:28:42</time>
      </trkpt>
      <trkpt lat="42.83046" lon="-2.56938">
        <ele>534.2</ele>
        <time>2021-07-25 16:28:46</time>
      </trkpt>
      <trkpt lat="42.83046" lon="-2.56938">
        <ele>534</ele>
        <time>2021-07-25 16:28:50</time>
      </trkpt>
      <trkpt lat="42.83046" lon="-2.56938">
        <ele>534</ele>
        <time>2021-07-25 16:28:54</time>
      </trkpt>
      <trkpt lat="42.83046" lon="-2.56938">
        <ele>534</ele>
        <time>2021-07-25 16:28:58</time>
      </trkpt>
      <trkpt lat="42.83046" lon="-2.56938">
        <ele>534</ele>
        <time>2021-07-25 16:29:02</time>
      </trkpt>
      <trkpt lat="42.83046" lon="-2.56938">
        <ele>534.2</ele>
        <time>2021-07-25 16:29:06</time>
      </trkpt>
      <trkpt lat="42.83046" lon="-2.56938">
        <ele>534.4</ele>
        <time>2021-07-25 16:29:10</time>
      </trkpt>
      <trkpt lat="42.83046" lon="-2.56938">
        <ele>534.8</ele>
        <time>2021-07-25 16:29:14</time>
      </trkpt>
      <trkpt lat="42.83046" lon="-2.56938">
        <ele>534.4</ele>
        <time>2021-07-25 16:29:18</time>
      </trkpt>
      <trkpt lat="42.83046" lon="-2.56938">
        <ele>534.6</ele>
        <time>2021-07-25 16:29:22</time>
      </trkpt>
      <trkpt lat="42.83046" lon="-2.56938">
        <ele>534.4</ele>
        <time>2021-07-25 16:29:26</time>
      </trkpt>
      <trkpt lat="42.83046" lon="-2.56938">
        <ele>534.6</ele>
        <time>2021-07-25 16:29:30</time>
      </trkpt>
      <trkpt lat="42.83046" lon="-2.56938">
        <ele>534.8</ele>
        <time>2021-07-25 16:29:34</time>
      </trkpt>
      <trkpt lat="42.83046" lon="-2.56938">
        <ele>534.8</ele>
        <time>2021-07-25 16:29:38</time>
      </trkpt>
      <trkpt lat="42.83046" lon="-2.56938">
        <ele>534.4</ele>
        <time>2021-07-25 16:29:42</time>
      </trkpt>
      <trkpt lat="42.83046" lon="-2.56938">
        <ele>534.6</ele>
        <time>2021-07-25 16:29:46</time>
      </trkpt>
      <trkpt lat="42.83046" lon="-2.56938">
        <ele>534.2</ele>
        <time>2021-07-25 16:29:50</time>
      </trkpt>
      <trkpt lat="42.83046" lon="-2.56938">
        <ele>534</ele>
        <time>2021-07-25 16:29:54</time>
      </trkpt>
      <trkpt lat="42.83046" lon="-2.56938">
        <ele>534.6</ele>
        <time>2021-07-25 16:29:58</time>
      </trkpt>
      <trkpt lat="42.83046" lon="-2.56938">
        <ele>534.6</ele>
        <time>2021-07-25 16:30:02</time>
      </trkpt>
      <trkpt lat="42.83046" lon="-2.56938">
        <ele>534.8</ele>
        <time>2021-07-25 16:30:06</time>
      </trkpt>
      <trkpt lat="42.83046" lon="-2.56938">
        <ele>534.6</ele>
        <time>2021-07-25 16:30:10</time>
      </trkpt>
      <trkpt lat="42.83046" lon="-2.56938">
        <ele>534.4</ele>
        <time>2021-07-25 16:30:14</time>
      </trkpt>
      <trkpt lat="42.83046" lon="-2.56938">
        <ele>534.8</ele>
        <time>2021-07-25 16:30:18</time>
      </trkpt>
      <trkpt lat="42.83046" lon="-2.56938">
        <ele>534.8</ele>
        <time>2021-07-25 16:30:22</time>
      </trkpt>
      <trkpt lat="42.83046" lon="-2.56938">
        <ele>534.6</ele>
        <time>2021-07-25 16:30:26</time>
      </trkpt>
      <trkpt lat="42.83046" lon="-2.56938">
        <ele>534.6</ele>
        <time>2021-07-25 16:30:30</time>
      </trkpt>
      <trkpt lat="42.83046" lon="-2.56938">
        <ele>534.4</ele>
        <time>2021-07-25 16:30:34</time>
      </trkpt>
      <trkpt lat="42.83046" lon="-2.56938">
        <ele>534.2</ele>
        <time>2021-07-25 16:30:38</time>
      </trkpt>
      <trkpt lat="42.83046" lon="-2.56938">
        <ele>534.2</ele>
        <time>2021-07-25 16:30:42</time>
      </trkpt>
      <trkpt lat="42.83046" lon="-2.56938">
        <ele>534</ele>
        <time>2021-07-25 16:30:46</time>
      </trkpt>
      <trkpt lat="42.83046" lon="-2.56938">
        <ele>534</ele>
        <time>2021-07-25 16:30:50</time>
      </trkpt>
      <trkpt lat="42.83046" lon="-2.56938">
        <ele>534.2</ele>
        <time>2021-07-25 16:30:54</time>
      </trkpt>
      <trkpt lat="42.83046" lon="-2.56938">
        <ele>534.8</ele>
        <time>2021-07-25 16:30:58</time>
      </trkpt>
      <trkpt lat="42.83046" lon="-2.56938">
        <ele>534</ele>
        <time>2021-07-25 16:31:02</time>
      </trkpt>
      <trkpt lat="42.83046" lon="-2.56938">
        <ele>534</ele>
        <time>2021-07-25 16:31:06</time>
      </trkpt>
      <trkpt lat="42.83046" lon="-2.56938">
        <ele>534.4</ele>
        <time>2021-07-25 16:31:10</time>
      </trkpt>
      <trkpt lat="42.83046" lon="-2.56938">
        <ele>534.2</ele>
        <time>2021-07-25 16:31:14</time>
      </trkpt>
      <trkpt lat="42.83046" lon="-2.56938">
        <ele>534</ele>
        <time>2021-07-25 16:31:18</time>
      </trkpt>
      <trkpt lat="42.83046" lon="-2.56938">
        <ele>534.4</ele>
        <time>2021-07-25 16:31:22</time>
      </trkpt>
      <trkpt lat="42.83046" lon="-2.56938">
        <ele>534.6</ele>
        <time>2021-07-25 16:31:26</time>
      </trkpt>
      <trkpt lat="42.83046" lon="-2.56938">
        <ele>534.4</ele>
        <time>2021-07-25 16:31:30</time>
      </trkpt>
      <trkpt lat="42.83046" lon="-2.56938">
        <ele>534.2</ele>
        <time>2021-07-25 16:31:34</time>
      </trkpt>
      <trkpt lat="42.83046" lon="-2.56938">
        <ele>534.8</ele>
        <time>2021-07-25 16:31:38</time>
      </trkpt>
      <trkpt lat="42.83046" lon="-2.56938">
        <ele>534.6</ele>
        <time>2021-07-25 16:31:42</time>
      </trkpt>
      <trkpt lat="42.83046" lon="-2.56938">
        <ele>534.4</ele>
        <time>2021-07-25 16:31:46</time>
      </trkpt>
      <trkpt lat="42.83046" lon="-2.56938">
        <ele>534.4</ele>
        <time>2021-07-25 16:31:50</time>
      </trkpt>
      <trkpt lat="42.83046" lon="-2.56938">
        <ele>534.4</ele>
        <time>2021-07-25 16:31:54</time>
      </trkpt>
      <trkpt lat="42.83046" lon="-2.56938">
        <ele>534</ele>
        <time>2021-07-25 16:31:58</time>
      </trkpt>
      <trkpt lat="42.83046" lon="-2.56938">
        <ele>534.6</ele>
        <time>2021-07-25 16:32:02</time>
      </trkpt>
      <trkpt lat="42.83046" lon="-2.56938">
        <ele>534.4</ele>
        <time>2021-07-25 16:32:06</time>
      </trkpt>
      <trkpt lat="42.83046" lon="-2.56938">
        <ele>534.2</ele>
        <time>2021-07-25 16:32:10</time>
      </trkpt>
      <trkpt lat="42.83046" lon="-2.56938">
        <ele>534.2</ele>
        <time>2021-07-25 16:32:14</time>
      </trkpt>
      <trkpt lat="42.83046" lon="-2.56938">
        <ele>534.8</ele>
        <time>2021-07-25 16:32:18</time>
      </trkpt>
      <trkpt lat="42.83046" lon="-2.56938">
        <ele>534.8</ele>
        <time>2021-07-25 16:32:22</time>
      </trkpt>
      <trkpt lat="42.83046" lon="-2.56938">
        <ele>534.6</ele>
        <time>2021-07-25 16:32:26</time>
      </trkpt>
      <trkpt lat="42.83046" lon="-2.56938">
        <ele>534.8</ele>
        <time>2021-07-25 16:32:30</time>
      </trkpt>
      <trkpt lat="42.83046" lon="-2.56938">
        <ele>534.2</ele>
        <time>2021-07-25 16:32:34</time>
      </trkpt>
      <trkpt lat="42.83046" lon="-2.56938">
        <ele>534</ele>
        <time>2021-07-25 16:32:38</time>
      </trkpt>
      <trkpt lat="42.83046" lon="-2.56938">
        <ele>534.4</ele>
        <time>2021-07-25 16:32:42</time>
      </trkpt>
      <trkpt lat="42.83046" lon="-2.56938">
        <ele>534.4</ele>
        <time>2021-07-25 16:32:46</time>
      </trkpt>
      <trkpt lat="42.83046" lon="-2.56938">
        <ele>534</ele>
        <time>2021-07-25 16:32:50</time>
      </trkpt>
      <trkpt lat="42.83046" lon="-2.56938">
        <ele>534.6</ele>
        <time>2021-07-25 16:32:54</time>
      </trkpt>
      <trkpt lat="42.83046" lon="-2.56938">
        <ele>534</ele>
        <time>2021-07-25 16:32:58</time>
      </trkpt>
      <trkpt lat="42.83046" lon="-2.56938">
        <ele>534.4</ele>
        <time>2021-07-25 16:33:02</time>
      </trkpt>
      <trkpt lat="42.83046" lon="-2.56938">
        <ele>534</ele>
        <time>2021-07-25 16:33:06</time>
      </trkpt>
      <trkpt lat="42.83046" lon="-2.56938">
        <ele>534</ele>
        <time>2021-07-25 16:33:10</time>
      </trkpt>
      <trkpt lat="42.83046" lon="-2.56938">
        <ele>533.8</ele>
        <time>2021-07-25 16:33:14</time>
      </trkpt>
      <trkpt lat="42.83046" lon="-2.56938">
        <ele>534</ele>
        <time>2021-07-25 16:33:18</time>
      </trkpt>
      <trkpt lat="42.83046" lon="-2.56938">
        <ele>534.6</ele>
        <time>2021-07-25 16:33:22</time>
      </trkpt>
      <trkpt lat="42.83046" lon="-2.56938">
        <ele>534.2</ele>
        <time>2021-07-25 16:33:26</time>
      </trkpt>
      <trkpt lat="42.83046" lon="-2.56938">
        <ele>533.8</ele>
        <time>2021-07-25 16:33:30</time>
      </trkpt>
      <trkpt lat="42.83046" lon="-2.56938">
        <ele>534</ele>
        <time>2021-07-25 16:33:34</time>
      </trkpt>
      <trkpt lat="42.83046" lon="-2.56938">
        <ele>534</ele>
        <time>2021-07-25 16:33:38</time>
      </trkpt>
      <trkpt lat="42.83046" lon="-2.56938">
        <ele>533.8</ele>
        <time>2021-07-25 16:33:42</time>
      </trkpt>
      <trkpt lat="42.83046" lon="-2.56938">
        <ele>533.4</ele>
        <time>2021-07-25 16:33:46</time>
      </trkpt>
      <trkpt lat="42.83046" lon="-2.56938">
        <ele>533.6</ele>
        <time>2021-07-25 16:33:50</time>
      </trkpt>
      <trkpt lat="42.83046" lon="-2.56938">
        <ele>533.6</ele>
        <time>2021-07-25 16:33:54</time>
      </trkpt>
      <trkpt lat="42.83046" lon="-2.56938">
        <ele>533.6</ele>
        <time>2021-07-25 16:33:58</time>
      </trkpt>
      <trkpt lat="42.83046" lon="-2.56938">
        <ele>533.8</ele>
        <time>2021-07-25 16:34:02</time>
      </trkpt>
      <trkpt lat="42.83046" lon="-2.56938">
        <ele>533.8</ele>
        <time>2021-07-25 16:34:06</time>
      </trkpt>
      <trkpt lat="42.83046" lon="-2.56938">
        <ele>533.6</ele>
        <time>2021-07-25 16:34:10</time>
      </trkpt>
      <trkpt lat="42.83046" lon="-2.56938">
        <ele>533.6</ele>
        <time>2021-07-25 16:34:14</time>
      </trkpt>
      <trkpt lat="42.83046" lon="-2.56936">
        <ele>533.2</ele>
        <time>2021-07-25 16:34:18</time>
      </trkpt>
      <trkpt lat="42.83047" lon="-2.56937">
        <ele>533.8</ele>
        <time>2021-07-25 16:34:22</time>
      </trkpt>
      <trkpt lat="42.83047" lon="-2.56939">
        <ele>533.4</ele>
        <time>2021-07-25 16:34:26</time>
      </trkpt>
      <trkpt lat="42.83051" lon="-2.56945">
        <ele>532.6</ele>
        <time>2021-07-25 16:34:30</time>
      </trkpt>
      <trkpt lat="42.83057" lon="-2.56951">
        <ele>532.6</ele>
        <time>2021-07-25 16:34:34</time>
      </trkpt>
      <trkpt lat="42.83065" lon="-2.56958">
        <ele>532.4</ele>
        <time>2021-07-25 16:34:38</time>
      </trkpt>
      <trkpt lat="42.83066" lon="-2.5697">
        <ele>532.4</ele>
        <time>2021-07-25 16:34:42</time>
      </trkpt>
      <trkpt lat="42.83058" lon="-2.56979">
        <ele>532.8</ele>
        <time>2021-07-25 16:34:46</time>
      </trkpt>
      <trkpt lat="42.8305" lon="-2.56987">
        <ele>533</ele>
        <time>2021-07-25 16:34:50</time>
      </trkpt>
      <trkpt lat="42.83042" lon="-2.56994">
        <ele>532.6</ele>
        <time>2021-07-25 16:34:54</time>
      </trkpt>
      <trkpt lat="42.83033" lon="-2.57004">
        <ele>532.4</ele>
        <time>2021-07-25 16:34:58</time>
      </trkpt>
      <trkpt lat="42.83025" lon="-2.57012">
        <ele>532.8</ele>
        <time>2021-07-25 16:35:02</time>
      </trkpt>
      <trkpt lat="42.83017" lon="-2.57021">
        <ele>532.8</ele>
        <time>2021-07-25 16:35:06</time>
      </trkpt>
      <trkpt lat="42.83008" lon="-2.57029">
        <ele>533.2</ele>
        <time>2021-07-25 16:35:10</time>
      </trkpt>
      <trkpt lat="42.83" lon="-2.57038">
        <ele>533.8</ele>
        <time>2021-07-25 16:35:14</time>
      </trkpt>
      <trkpt lat="42.82994" lon="-2.57043">
        <ele>534</ele>
        <time>2021-07-25 16:35:18</time>
      </trkpt>
      <trkpt lat="42.82991" lon="-2.57046">
        <ele>534</ele>
        <time>2021-07-25 16:35:22</time>
      </trkpt>
      <trkpt lat="42.82991" lon="-2.57048">
        <ele>534</ele>
        <time>2021-07-25 16:35:26</time>
      </trkpt>
      <trkpt lat="42.82988" lon="-2.57051">
        <ele>534.2</ele>
        <time>2021-07-25 16:35:30</time>
      </trkpt>
      <trkpt lat="42.82984" lon="-2.57055">
        <ele>534.8</ele>
        <time>2021-07-25 16:35:34</time>
      </trkpt>
      <trkpt lat="42.8298" lon="-2.57061">
        <ele>535</ele>
        <time>2021-07-25 16:35:38</time>
      </trkpt>
      <trkpt lat="42.82975" lon="-2.57066">
        <ele>535.4</ele>
        <time>2021-07-25 16:35:42</time>
      </trkpt>
      <trkpt lat="42.8297" lon="-2.57073">
        <ele>536.2</ele>
        <time>2021-07-25 16:35:46</time>
      </trkpt>
      <trkpt lat="42.82964" lon="-2.5708">
        <ele>536.4</ele>
        <time>2021-07-25 16:35:50</time>
      </trkpt>
      <trkpt lat="42.82959" lon="-2.57084">
        <ele>537.2</ele>
        <time>2021-07-25 16:35:54</time>
      </trkpt>
      <trkpt lat="42.82954" lon="-2.57088">
        <ele>537.8</ele>
        <time>2021-07-25 16:35:58</time>
      </trkpt>
      <trkpt lat="42.82948" lon="-2.57092">
        <ele>537.6</ele>
        <time>2021-07-25 16:36:02</time>
      </trkpt>
      <trkpt lat="42.82942" lon="-2.57094">
        <ele>538.4</ele>
        <time>2021-07-25 16:36:06</time>
      </trkpt>
      <trkpt lat="42.82938" lon="-2.5709">
        <ele>537.8</ele>
        <time>2021-07-25 16:36:10</time>
      </trkpt>
      <trkpt lat="42.82935" lon="-2.57093">
        <ele>537.8</ele>
        <time>2021-07-25 16:36:14</time>
      </trkpt>
      <trkpt lat="42.82935" lon="-2.57103">
        <ele>535.6</ele>
        <time>2021-07-25 16:36:18</time>
      </trkpt>
      <trkpt lat="42.82932" lon="-2.57118">
        <ele>535.4</ele>
        <time>2021-07-25 16:36:22</time>
      </trkpt>
      <trkpt lat="42.82927" lon="-2.57136">
        <ele>536.2</ele>
        <time>2021-07-25 16:36:26</time>
      </trkpt>
      <trkpt lat="42.82923" lon="-2.57153">
        <ele>536.2</ele>
        <time>2021-07-25 16:36:30</time>
      </trkpt>
      <trkpt lat="42.82919" lon="-2.57169">
        <ele>535.8</ele>
        <time>2021-07-25 16:36:34</time>
      </trkpt>
      <trkpt lat="42.82915" lon="-2.57185">
        <ele>535.6</ele>
        <time>2021-07-25 16:36:38</time>
      </trkpt>
      <trkpt lat="42.82911" lon="-2.57202">
        <ele>536</ele>
        <time>2021-07-25 16:36:42</time>
      </trkpt>
      <trkpt lat="42.82908" lon="-2.57218">
        <ele>536.2</ele>
        <time>2021-07-25 16:36:46</time>
      </trkpt>
      <trkpt lat="42.82904" lon="-2.57233">
        <ele>536</ele>
        <time>2021-07-25 16:36:50</time>
      </trkpt>
      <trkpt lat="42.82901" lon="-2.57249">
        <ele>536.2</ele>
        <time>2021-07-25 16:36:54</time>
      </trkpt>
      <trkpt lat="42.82897" lon="-2.57266">
        <ele>535.8</ele>
        <time>2021-07-25 16:36:58</time>
      </trkpt>
      <trkpt lat="42.82893" lon="-2.57283">
        <ele>535.8</ele>
        <time>2021-07-25 16:37:02</time>
      </trkpt>
      <trkpt lat="42.82889" lon="-2.57299">
        <ele>535.8</ele>
        <time>2021-07-25 16:37:06</time>
      </trkpt>
      <trkpt lat="42.82885" lon="-2.57316">
        <ele>536.2</ele>
        <time>2021-07-25 16:37:10</time>
      </trkpt>
      <trkpt lat="42.8288" lon="-2.57334">
        <ele>536.4</ele>
        <time>2021-07-25 16:37:14</time>
      </trkpt>
      <trkpt lat="42.82875" lon="-2.57351">
        <ele>536.2</ele>
        <time>2021-07-25 16:37:18</time>
      </trkpt>
      <trkpt lat="42.82871" lon="-2.57368">
        <ele>536</ele>
        <time>2021-07-25 16:37:22</time>
      </trkpt>
      <trkpt lat="42.82867" lon="-2.57385">
        <ele>535.8</ele>
        <time>2021-07-25 16:37:26</time>
      </trkpt>
      <trkpt lat="42.82862" lon="-2.57403">
        <ele>536.2</ele>
        <time>2021-07-25 16:37:30</time>
      </trkpt>
      <trkpt lat="42.82858" lon="-2.57421">
        <ele>535.6</ele>
        <time>2021-07-25 16:37:34</time>
      </trkpt>
      <trkpt lat="42.82853" lon="-2.57438">
        <ele>535.8</ele>
        <time>2021-07-25 16:37:38</time>
      </trkpt>
      <trkpt lat="42.82849" lon="-2.57456">
        <ele>535.4</ele>
        <time>2021-07-25 16:37:42</time>
      </trkpt>
      <trkpt lat="42.82845" lon="-2.57474">
        <ele>535.4</ele>
        <time>2021-07-25 16:37:46</time>
      </trkpt>
      <trkpt lat="42.8284" lon="-2.57493">
        <ele>535.2</ele>
        <time>2021-07-25 16:37:50</time>
      </trkpt>
      <trkpt lat="42.82835" lon="-2.57512">
        <ele>535</ele>
        <time>2021-07-25 16:37:54</time>
      </trkpt>
      <trkpt lat="42.82831" lon="-2.5753">
        <ele>535.2</ele>
        <time>2021-07-25 16:37:58</time>
      </trkpt>
      <trkpt lat="42.82826" lon="-2.57548">
        <ele>535.2</ele>
        <time>2021-07-25 16:38:02</time>
      </trkpt>
      <trkpt lat="42.82822" lon="-2.57566">
        <ele>534.8</ele>
        <time>2021-07-25 16:38:06</time>
      </trkpt>
      <trkpt lat="42.82817" lon="-2.57584">
        <ele>535.2</ele>
        <time>2021-07-25 16:38:10</time>
      </trkpt>
      <trkpt lat="42.82814" lon="-2.576">
        <ele>535.2</ele>
        <time>2021-07-25 16:38:14</time>
      </trkpt>
      <trkpt lat="42.8281" lon="-2.57617">
        <ele>535.4</ele>
        <time>2021-07-25 16:38:18</time>
      </trkpt>
      <trkpt lat="42.82806" lon="-2.57633">
        <ele>534.8</ele>
        <time>2021-07-25 16:38:22</time>
      </trkpt>
      <trkpt lat="42.82801" lon="-2.57651">
        <ele>535.4</ele>
        <time>2021-07-25 16:38:26</time>
      </trkpt>
      <trkpt lat="42.82797" lon="-2.57668">
        <ele>535.4</ele>
        <time>2021-07-25 16:38:30</time>
      </trkpt>
      <trkpt lat="42.82793" lon="-2.57687">
        <ele>535.2</ele>
        <time>2021-07-25 16:38:34</time>
      </trkpt>
      <trkpt lat="42.82789" lon="-2.57704">
        <ele>535.4</ele>
        <time>2021-07-25 16:38:38</time>
      </trkpt>
      <trkpt lat="42.82785" lon="-2.57721">
        <ele>535.8</ele>
        <time>2021-07-25 16:38:42</time>
      </trkpt>
      <trkpt lat="42.82782" lon="-2.57736">
        <ele>535.4</ele>
        <time>2021-07-25 16:38:46</time>
      </trkpt>
      <trkpt lat="42.82777" lon="-2.57753">
        <ele>535.4</ele>
        <time>2021-07-25 16:38:50</time>
      </trkpt>
      <trkpt lat="42.82774" lon="-2.57771">
        <ele>535</ele>
        <time>2021-07-25 16:38:54</time>
      </trkpt>
      <trkpt lat="42.82771" lon="-2.57787">
        <ele>535.2</ele>
        <time>2021-07-25 16:38:58</time>
      </trkpt>
      <trkpt lat="42.82769" lon="-2.57804">
        <ele>535.2</ele>
        <time>2021-07-25 16:39:02</time>
      </trkpt>
      <trkpt lat="42.82769" lon="-2.57821">
        <ele>535.4</ele>
        <time>2021-07-25 16:39:06</time>
      </trkpt>
      <trkpt lat="42.82769" lon="-2.57838">
        <ele>535.4</ele>
        <time>2021-07-25 16:39:10</time>
      </trkpt>
      <trkpt lat="42.82768" lon="-2.57856">
        <ele>535.4</ele>
        <time>2021-07-25 16:39:14</time>
      </trkpt>
      <trkpt lat="42.82769" lon="-2.57873">
        <ele>535.4</ele>
        <time>2021-07-25 16:39:18</time>
      </trkpt>
      <trkpt lat="42.8277" lon="-2.57892">
        <ele>535</ele>
        <time>2021-07-25 16:39:22</time>
      </trkpt>
      <trkpt lat="42.82771" lon="-2.57912">
        <ele>535.4</ele>
        <time>2021-07-25 16:39:26</time>
      </trkpt>
      <trkpt lat="42.82772" lon="-2.57933">
        <ele>535.4</ele>
        <time>2021-07-25 16:39:30</time>
      </trkpt>
      <trkpt lat="42.82773" lon="-2.57952">
        <ele>534.8</ele>
        <time>2021-07-25 16:39:34</time>
      </trkpt>
      <trkpt lat="42.82775" lon="-2.57971">
        <ele>535</ele>
        <time>2021-07-25 16:39:38</time>
      </trkpt>
      <trkpt lat="42.82775" lon="-2.5799">
        <ele>535.4</ele>
        <time>2021-07-25 16:39:42</time>
      </trkpt>
      <trkpt lat="42.82776" lon="-2.58008">
        <ele>534.8</ele>
        <time>2021-07-25 16:39:46</time>
      </trkpt>
      <trkpt lat="42.82777" lon="-2.58027">
        <ele>534.8</ele>
        <time>2021-07-25 16:39:50</time>
      </trkpt>
      <trkpt lat="42.82779" lon="-2.58046">
        <ele>534.4</ele>
        <time>2021-07-25 16:39:54</time>
      </trkpt>
      <trkpt lat="42.8278" lon="-2.58065">
        <ele>534.2</ele>
        <time>2021-07-25 16:39:58</time>
      </trkpt>
      <trkpt lat="42.82781" lon="-2.58085">
        <ele>534.2</ele>
        <time>2021-07-25 16:40:02</time>
      </trkpt>
      <trkpt lat="42.82782" lon="-2.58105">
        <ele>534</ele>
        <time>2021-07-25 16:40:06</time>
      </trkpt>
      <trkpt lat="42.82784" lon="-2.58124">
        <ele>534.2</ele>
        <time>2021-07-25 16:40:10</time>
      </trkpt>
      <trkpt lat="42.82785" lon="-2.58142">
        <ele>534</ele>
        <time>2021-07-25 16:40:14</time>
      </trkpt>
      <trkpt lat="42.82786" lon="-2.58161">
        <ele>534.2</ele>
        <time>2021-07-25 16:40:18</time>
      </trkpt>
      <trkpt lat="42.82788" lon="-2.58177">
        <ele>534.2</ele>
        <time>2021-07-25 16:40:22</time>
      </trkpt>
      <trkpt lat="42.82788" lon="-2.58193">
        <ele>534.6</ele>
        <time>2021-07-25 16:40:26</time>
      </trkpt>
      <trkpt lat="42.82789" lon="-2.58211">
        <ele>534.6</ele>
        <time>2021-07-25 16:40:30</time>
      </trkpt>
      <trkpt lat="42.82791" lon="-2.5823">
        <ele>534.6</ele>
        <time>2021-07-25 16:40:34</time>
      </trkpt>
      <trkpt lat="42.82791" lon="-2.5825">
        <ele>534.6</ele>
        <time>2021-07-25 16:40:38</time>
      </trkpt>
      <trkpt lat="42.82793" lon="-2.5827">
        <ele>534.6</ele>
        <time>2021-07-25 16:40:42</time>
      </trkpt>
      <trkpt lat="42.82794" lon="-2.58289">
        <ele>534.4</ele>
        <time>2021-07-25 16:40:46</time>
      </trkpt>
      <trkpt lat="42.82796" lon="-2.58308">
        <ele>534.6</ele>
        <time>2021-07-25 16:40:50</time>
      </trkpt>
      <trkpt lat="42.82797" lon="-2.58327">
        <ele>534.6</ele>
        <time>2021-07-25 16:40:54</time>
      </trkpt>
      <trkpt lat="42.82798" lon="-2.58347">
        <ele>534.6</ele>
        <time>2021-07-25 16:40:58</time>
      </trkpt>
      <trkpt lat="42.828" lon="-2.58366">
        <ele>534.2</ele>
        <time>2021-07-25 16:41:02</time>
      </trkpt>
      <trkpt lat="42.828" lon="-2.58386">
        <ele>534.8</ele>
        <time>2021-07-25 16:41:06</time>
      </trkpt>
      <trkpt lat="42.82802" lon="-2.58407">
        <ele>534.4</ele>
        <time>2021-07-25 16:41:10</time>
      </trkpt>
      <trkpt lat="42.82803" lon="-2.58429">
        <ele>534</ele>
        <time>2021-07-25 16:41:14</time>
      </trkpt>
      <trkpt lat="42.82804" lon="-2.58449">
        <ele>534</ele>
        <time>2021-07-25 16:41:18</time>
      </trkpt>
      <trkpt lat="42.82805" lon="-2.5847">
        <ele>534</ele>
        <time>2021-07-25 16:41:22</time>
      </trkpt>
      <trkpt lat="42.82807" lon="-2.58489">
        <ele>534</ele>
        <time>2021-07-25 16:41:26</time>
      </trkpt>
      <trkpt lat="42.82808" lon="-2.58507">
        <ele>534</ele>
        <time>2021-07-25 16:41:30</time>
      </trkpt>
      <trkpt lat="42.82809" lon="-2.58528">
        <ele>534</ele>
        <time>2021-07-25 16:41:34</time>
      </trkpt>
      <trkpt lat="42.82811" lon="-2.58547">
        <ele>534</ele>
        <time>2021-07-25 16:41:38</time>
      </trkpt>
      <trkpt lat="42.82812" lon="-2.58568">
        <ele>534.2</ele>
        <time>2021-07-25 16:41:42</time>
      </trkpt>
      <trkpt lat="42.82813" lon="-2.58588">
        <ele>534.4</ele>
        <time>2021-07-25 16:41:46</time>
      </trkpt>
      <trkpt lat="42.82814" lon="-2.58606">
        <ele>534.4</ele>
        <time>2021-07-25 16:41:50</time>
      </trkpt>
      <trkpt lat="42.82816" lon="-2.58627">
        <ele>534.4</ele>
        <time>2021-07-25 16:41:54</time>
      </trkpt>
      <trkpt lat="42.82816" lon="-2.58646">
        <ele>534.8</ele>
        <time>2021-07-25 16:41:58</time>
      </trkpt>
      <trkpt lat="42.82817" lon="-2.58665">
        <ele>534</ele>
        <time>2021-07-25 16:42:02</time>
      </trkpt>
      <trkpt lat="42.82819" lon="-2.58685">
        <ele>534</ele>
        <time>2021-07-25 16:42:06</time>
      </trkpt>
      <trkpt lat="42.8282" lon="-2.58705">
        <ele>534</ele>
        <time>2021-07-25 16:42:10</time>
      </trkpt>
      <trkpt lat="42.82821" lon="-2.58724">
        <ele>534.6</ele>
        <time>2021-07-25 16:42:14</time>
      </trkpt>
      <trkpt lat="42.82822" lon="-2.5874">
        <ele>534.8</ele>
        <time>2021-07-25 16:42:18</time>
      </trkpt>
      <trkpt lat="42.82823" lon="-2.58756">
        <ele>534.8</ele>
        <time>2021-07-25 16:42:22</time>
      </trkpt>
      <trkpt lat="42.82823" lon="-2.58772">
        <ele>534.4</ele>
        <time>2021-07-25 16:42:26</time>
      </trkpt>
      <trkpt lat="42.82824" lon="-2.58789">
        <ele>534.8</ele>
        <time>2021-07-25 16:42:30</time>
      </trkpt>
      <trkpt lat="42.82825" lon="-2.58806">
        <ele>535</ele>
        <time>2021-07-25 16:42:34</time>
      </trkpt>
      <trkpt lat="42.82826" lon="-2.58822">
        <ele>534.8</ele>
        <time>2021-07-25 16:42:38</time>
      </trkpt>
      <trkpt lat="42.82827" lon="-2.58838">
        <ele>534.6</ele>
        <time>2021-07-25 16:42:42</time>
      </trkpt>
      <trkpt lat="42.82829" lon="-2.58856">
        <ele>534.6</ele>
        <time>2021-07-25 16:42:46</time>
      </trkpt>
      <trkpt lat="42.8283" lon="-2.58875">
        <ele>533.8</ele>
        <time>2021-07-25 16:42:50</time>
      </trkpt>
      <trkpt lat="42.82832" lon="-2.58894">
        <ele>534.2</ele>
        <time>2021-07-25 16:42:54</time>
      </trkpt>
      <trkpt lat="42.82833" lon="-2.58911">
        <ele>534.6</ele>
        <time>2021-07-25 16:42:58</time>
      </trkpt>
      <trkpt lat="42.82834" lon="-2.58928">
        <ele>534.6</ele>
        <time>2021-07-25 16:43:02</time>
      </trkpt>
      <trkpt lat="42.82835" lon="-2.58944">
        <ele>534.6</ele>
        <time>2021-07-25 16:43:06</time>
      </trkpt>
      <trkpt lat="42.82836" lon="-2.58962">
        <ele>534.8</ele>
        <time>2021-07-25 16:43:10</time>
      </trkpt>
      <trkpt lat="42.82837" lon="-2.58979">
        <ele>535.6</ele>
        <time>2021-07-25 16:43:14</time>
      </trkpt>
      <trkpt lat="42.82838" lon="-2.58995">
        <ele>535.4</ele>
        <time>2021-07-25 16:43:18</time>
      </trkpt>
      <trkpt lat="42.82838" lon="-2.59011">
        <ele>535</ele>
        <time>2021-07-25 16:43:22</time>
      </trkpt>
      <trkpt lat="42.82839" lon="-2.59029">
        <ele>534.8</ele>
        <time>2021-07-25 16:43:26</time>
      </trkpt>
      <trkpt lat="42.8284" lon="-2.59048">
        <ele>535</ele>
        <time>2021-07-25 16:43:30</time>
      </trkpt>
      <trkpt lat="42.82841" lon="-2.59066">
        <ele>535.4</ele>
        <time>2021-07-25 16:43:34</time>
      </trkpt>
      <trkpt lat="42.82842" lon="-2.59084">
        <ele>535</ele>
        <time>2021-07-25 16:43:38</time>
      </trkpt>
      <trkpt lat="42.82843" lon="-2.59103">
        <ele>534.6</ele>
        <time>2021-07-25 16:43:42</time>
      </trkpt>
      <trkpt lat="42.82843" lon="-2.59123">
        <ele>535</ele>
        <time>2021-07-25 16:43:46</time>
      </trkpt>
      <trkpt lat="42.82845" lon="-2.59143">
        <ele>534.4</ele>
        <time>2021-07-25 16:43:50</time>
      </trkpt>
      <trkpt lat="42.82847" lon="-2.59162">
        <ele>534.4</ele>
        <time>2021-07-25 16:43:54</time>
      </trkpt>
      <trkpt lat="42.82848" lon="-2.59181">
        <ele>534.4</ele>
        <time>2021-07-25 16:43:58</time>
      </trkpt>
      <trkpt lat="42.82849" lon="-2.59199">
        <ele>534.2</ele>
        <time>2021-07-25 16:44:02</time>
      </trkpt>
      <trkpt lat="42.82851" lon="-2.59217">
        <ele>534.6</ele>
        <time>2021-07-25 16:44:06</time>
      </trkpt>
      <trkpt lat="42.82851" lon="-2.59235">
        <ele>534</ele>
        <time>2021-07-25 16:44:10</time>
      </trkpt>
      <trkpt lat="42.82853" lon="-2.59252">
        <ele>534.4</ele>
        <time>2021-07-25 16:44:14</time>
      </trkpt>
      <trkpt lat="42.82854" lon="-2.59269">
        <ele>534.2</ele>
        <time>2021-07-25 16:44:18</time>
      </trkpt>
      <trkpt lat="42.82855" lon="-2.59286">
        <ele>535</ele>
        <time>2021-07-25 16:44:22</time>
      </trkpt>
      <trkpt lat="42.82857" lon="-2.59304">
        <ele>535.4</ele>
        <time>2021-07-25 16:44:26</time>
      </trkpt>
      <trkpt lat="42.82858" lon="-2.59322">
        <ele>534.6</ele>
        <time>2021-07-25 16:44:30</time>
      </trkpt>
      <trkpt lat="42.82859" lon="-2.59341">
        <ele>534.8</ele>
        <time>2021-07-25 16:44:34</time>
      </trkpt>
      <trkpt lat="42.82861" lon="-2.59361">
        <ele>534.4</ele>
        <time>2021-07-25 16:44:38</time>
      </trkpt>
      <trkpt lat="42.82863" lon="-2.59382">
        <ele>534.4</ele>
        <time>2021-07-25 16:44:42</time>
      </trkpt>
      <trkpt lat="42.82865" lon="-2.59401">
        <ele>533.8</ele>
        <time>2021-07-25 16:44:46</time>
      </trkpt>
      <trkpt lat="42.82866" lon="-2.59421">
        <ele>534</ele>
        <time>2021-07-25 16:44:50</time>
      </trkpt>
      <trkpt lat="42.82867" lon="-2.59439">
        <ele>534.6</ele>
        <time>2021-07-25 16:44:54</time>
      </trkpt>
      <trkpt lat="42.82868" lon="-2.59457">
        <ele>534.2</ele>
        <time>2021-07-25 16:44:58</time>
      </trkpt>
      <trkpt lat="42.82868" lon="-2.59475">
        <ele>534</ele>
        <time>2021-07-25 16:45:02</time>
      </trkpt>
      <trkpt lat="42.8287" lon="-2.59491">
        <ele>534.8</ele>
        <time>2021-07-25 16:45:06</time>
      </trkpt>
      <trkpt lat="42.8287" lon="-2.59507">
        <ele>534.2</ele>
        <time>2021-07-25 16:45:10</time>
      </trkpt>
      <trkpt lat="42.82871" lon="-2.59524">
        <ele>534.4</ele>
        <time>2021-07-25 16:45:14</time>
      </trkpt>
      <trkpt lat="42.82872" lon="-2.59543">
        <ele>534.2</ele>
        <time>2021-07-25 16:45:18</time>
      </trkpt>
      <trkpt lat="42.82873" lon="-2.59561">
        <ele>533.6</ele>
        <time>2021-07-25 16:45:22</time>
      </trkpt>
      <trkpt lat="42.82874" lon="-2.5958">
        <ele>533.4</ele>
        <time>2021-07-25 16:45:26</time>
      </trkpt>
      <trkpt lat="42.82874" lon="-2.596">
        <ele>533.4</ele>
        <time>2021-07-25 16:45:30</time>
      </trkpt>
      <trkpt lat="42.82876" lon="-2.5962">
        <ele>533.6</ele>
        <time>2021-07-25 16:45:34</time>
      </trkpt>
      <trkpt lat="42.82878" lon="-2.59641">
        <ele>533.2</ele>
        <time>2021-07-25 16:45:38</time>
      </trkpt>
      <trkpt lat="42.82879" lon="-2.59663">
        <ele>532.6</ele>
        <time>2021-07-25 16:45:42</time>
      </trkpt>
      <trkpt lat="42.8288" lon="-2.59685">
        <ele>532.6</ele>
        <time>2021-07-25 16:45:46</time>
      </trkpt>
      <trkpt lat="42.82882" lon="-2.59707">
        <ele>532.2</ele>
        <time>2021-07-25 16:45:50</time>
      </trkpt>
      <trkpt lat="42.82883" lon="-2.5973">
        <ele>532.6</ele>
        <time>2021-07-25 16:45:54</time>
      </trkpt>
      <trkpt lat="42.82885" lon="-2.59753">
        <ele>531.8</ele>
        <time>2021-07-25 16:45:58</time>
      </trkpt>
      <trkpt lat="42.82886" lon="-2.59776">
        <ele>530.6</ele>
        <time>2021-07-25 16:46:02</time>
      </trkpt>
      <trkpt lat="42.82888" lon="-2.59798">
        <ele>531.8</ele>
        <time>2021-07-25 16:46:06</time>
      </trkpt>
      <trkpt lat="42.82889" lon="-2.59819">
        <ele>530.6</ele>
        <time>2021-07-25 16:46:10</time>
      </trkpt>
      <trkpt lat="42.82891" lon="-2.59839">
        <ele>530.6</ele>
        <time>2021-07-25 16:46:14</time>
      </trkpt>
      <trkpt lat="42.82892" lon="-2.5986">
        <ele>530.6</ele>
        <time>2021-07-25 16:46:18</time>
      </trkpt>
      <trkpt lat="42.82893" lon="-2.59881">
        <ele>530.2</ele>
        <time>2021-07-25 16:46:22</time>
      </trkpt>
      <trkpt lat="42.82895" lon="-2.59902">
        <ele>530.6</ele>
        <time>2021-07-25 16:46:26</time>
      </trkpt>
      <trkpt lat="42.82896" lon="-2.59924">
        <ele>530.2</ele>
        <time>2021-07-25 16:46:30</time>
      </trkpt>
      <trkpt lat="42.82897" lon="-2.59946">
        <ele>530.6</ele>
        <time>2021-07-25 16:46:34</time>
      </trkpt>
      <trkpt lat="42.82898" lon="-2.59967">
        <ele>531.2</ele>
        <time>2021-07-25 16:46:38</time>
      </trkpt>
      <trkpt lat="42.82899" lon="-2.59986">
        <ele>529.2</ele>
        <time>2021-07-25 16:46:42</time>
      </trkpt>
      <trkpt lat="42.829" lon="-2.60008">
        <ele>528.6</ele>
        <time>2021-07-25 16:46:46</time>
      </trkpt>
      <trkpt lat="42.82901" lon="-2.6003">
        <ele>529.2</ele>
        <time>2021-07-25 16:46:50</time>
      </trkpt>
      <trkpt lat="42.82902" lon="-2.60052">
        <ele>528.4</ele>
        <time>2021-07-25 16:46:54</time>
      </trkpt>
      <trkpt lat="42.82904" lon="-2.60074">
        <ele>528.2</ele>
        <time>2021-07-25 16:46:58</time>
      </trkpt>
      <trkpt lat="42.82905" lon="-2.60097">
        <ele>528.2</ele>
        <time>2021-07-25 16:47:02</time>
      </trkpt>
      <trkpt lat="42.82906" lon="-2.6012">
        <ele>527.8</ele>
        <time>2021-07-25 16:47:06</time>
      </trkpt>
      <trkpt lat="42.82907" lon="-2.60143">
        <ele>527.8</ele>
        <time>2021-07-25 16:47:10</time>
      </trkpt>
      <trkpt lat="42.82909" lon="-2.60165">
        <ele>527.8</ele>
        <time>2021-07-25 16:47:14</time>
      </trkpt>
      <trkpt lat="42.8291" lon="-2.60188">
        <ele>527.6</ele>
        <time>2021-07-25 16:47:18</time>
      </trkpt>
      <trkpt lat="42.82911" lon="-2.60212">
        <ele>526.8</ele>
        <time>2021-07-25 16:47:22</time>
      </trkpt>
      <trkpt lat="42.82912" lon="-2.60235">
        <ele>527.2</ele>
        <time>2021-07-25 16:47:26</time>
      </trkpt>
      <trkpt lat="42.82913" lon="-2.60259">
        <ele>526.2</ele>
        <time>2021-07-25 16:47:30</time>
      </trkpt>
      <trkpt lat="42.82915" lon="-2.60282">
        <ele>527</ele>
        <time>2021-07-25 16:47:34</time>
      </trkpt>
      <trkpt lat="42.82916" lon="-2.60307">
        <ele>527</ele>
        <time>2021-07-25 16:47:38</time>
      </trkpt>
      <trkpt lat="42.82918" lon="-2.60331">
        <ele>525.6</ele>
        <time>2021-07-25 16:47:42</time>
      </trkpt>
      <trkpt lat="42.8292" lon="-2.60355">
        <ele>525.6</ele>
        <time>2021-07-25 16:47:46</time>
      </trkpt>
      <trkpt lat="42.82921" lon="-2.60378">
        <ele>526.4</ele>
        <time>2021-07-25 16:47:50</time>
      </trkpt>
      <trkpt lat="42.82922" lon="-2.604">
        <ele>525.6</ele>
        <time>2021-07-25 16:47:54</time>
      </trkpt>
      <trkpt lat="42.82924" lon="-2.60422">
        <ele>526</ele>
        <time>2021-07-25 16:47:58</time>
      </trkpt>
      <trkpt lat="42.82925" lon="-2.60444">
        <ele>525.4</ele>
        <time>2021-07-25 16:48:02</time>
      </trkpt>
      <trkpt lat="42.82926" lon="-2.60467">
        <ele>524.8</ele>
        <time>2021-07-25 16:48:06</time>
      </trkpt>
      <trkpt lat="42.82928" lon="-2.6049">
        <ele>525.4</ele>
        <time>2021-07-25 16:48:10</time>
      </trkpt>
      <trkpt lat="42.82929" lon="-2.60511">
        <ele>525</ele>
        <time>2021-07-25 16:48:14</time>
      </trkpt>
      <trkpt lat="42.8293" lon="-2.60532">
        <ele>524.2</ele>
        <time>2021-07-25 16:48:18</time>
      </trkpt>
      <trkpt lat="42.82931" lon="-2.60553">
        <ele>524.2</ele>
        <time>2021-07-25 16:48:22</time>
      </trkpt>
      <trkpt lat="42.82933" lon="-2.60574">
        <ele>524.4</ele>
        <time>2021-07-25 16:48:26</time>
      </trkpt>
      <trkpt lat="42.82934" lon="-2.60594">
        <ele>523.8</ele>
        <time>2021-07-25 16:48:30</time>
      </trkpt>
      <trkpt lat="42.82935" lon="-2.60614">
        <ele>523.8</ele>
        <time>2021-07-25 16:48:34</time>
      </trkpt>
      <trkpt lat="42.82937" lon="-2.60635">
        <ele>523.8</ele>
        <time>2021-07-25 16:48:38</time>
      </trkpt>
      <trkpt lat="42.82938" lon="-2.60657">
        <ele>523.2</ele>
        <time>2021-07-25 16:48:42</time>
      </trkpt>
      <trkpt lat="42.82939" lon="-2.60678">
        <ele>523</ele>
        <time>2021-07-25 16:48:46</time>
      </trkpt>
      <trkpt lat="42.82941" lon="-2.60699">
        <ele>523.2</ele>
        <time>2021-07-25 16:48:50</time>
      </trkpt>
      <trkpt lat="42.82943" lon="-2.60722">
        <ele>522.4</ele>
        <time>2021-07-25 16:48:54</time>
      </trkpt>
      <trkpt lat="42.82944" lon="-2.60747">
        <ele>522.6</ele>
        <time>2021-07-25 16:48:58</time>
      </trkpt>
      <trkpt lat="42.82946" lon="-2.60772">
        <ele>522.8</ele>
        <time>2021-07-25 16:49:02</time>
      </trkpt>
      <trkpt lat="42.82947" lon="-2.60797">
        <ele>522</ele>
        <time>2021-07-25 16:49:06</time>
      </trkpt>
      <trkpt lat="42.82949" lon="-2.60823">
        <ele>521.6</ele>
        <time>2021-07-25 16:49:10</time>
      </trkpt>
      <trkpt lat="42.8295" lon="-2.60849">
        <ele>521</ele>
        <time>2021-07-25 16:49:14</time>
      </trkpt>
      <trkpt lat="42.82952" lon="-2.60875">
        <ele>521</ele>
        <time>2021-07-25 16:49:18</time>
      </trkpt>
      <trkpt lat="42.82952" lon="-2.60901">
        <ele>521</ele>
        <time>2021-07-25 16:49:22</time>
      </trkpt>
      <trkpt lat="42.82953" lon="-2.60927">
        <ele>520.4</ele>
        <time>2021-07-25 16:49:26</time>
      </trkpt>
      <trkpt lat="42.82954" lon="-2.60953">
        <ele>520.4</ele>
        <time>2021-07-25 16:49:30</time>
      </trkpt>
      <trkpt lat="42.82954" lon="-2.60979">
        <ele>520.4</ele>
        <time>2021-07-25 16:49:34</time>
      </trkpt>
      <trkpt lat="42.82955" lon="-2.61006">
        <ele>520</ele>
        <time>2021-07-25 16:49:38</time>
      </trkpt>
      <trkpt lat="42.82955" lon="-2.61032">
        <ele>520.4</ele>
        <time>2021-07-25 16:49:42</time>
      </trkpt>
      <trkpt lat="42.82954" lon="-2.61057">
        <ele>519.2</ele>
        <time>2021-07-25 16:49:46</time>
      </trkpt>
      <trkpt lat="42.82954" lon="-2.61082">
        <ele>519.4</ele>
        <time>2021-07-25 16:49:50</time>
      </trkpt>
      <trkpt lat="42.82954" lon="-2.61108">
        <ele>519.2</ele>
        <time>2021-07-25 16:49:54</time>
      </trkpt>
      <trkpt lat="42.82954" lon="-2.61133">
        <ele>519.4</ele>
        <time>2021-07-25 16:49:58</time>
      </trkpt>
      <trkpt lat="42.82955" lon="-2.61159">
        <ele>519</ele>
        <time>2021-07-25 16:50:02</time>
      </trkpt>
      <trkpt lat="42.82954" lon="-2.61184">
        <ele>519</ele>
        <time>2021-07-25 16:50:06</time>
      </trkpt>
      <trkpt lat="42.82954" lon="-2.61209">
        <ele>519.8</ele>
        <time>2021-07-25 16:50:10</time>
      </trkpt>
      <trkpt lat="42.82954" lon="-2.61232">
        <ele>519.6</ele>
        <time>2021-07-25 16:50:14</time>
      </trkpt>
      <trkpt lat="42.82954" lon="-2.61254">
        <ele>519.6</ele>
        <time>2021-07-25 16:50:18</time>
      </trkpt>
      <trkpt lat="42.82953" lon="-2.61276">
        <ele>519.4</ele>
        <time>2021-07-25 16:50:22</time>
      </trkpt>
      <trkpt lat="42.82954" lon="-2.61298">
        <ele>519.6</ele>
        <time>2021-07-25 16:50:26</time>
      </trkpt>
      <trkpt lat="42.82954" lon="-2.61321">
        <ele>518.8</ele>
        <time>2021-07-25 16:50:30</time>
      </trkpt>
      <trkpt lat="42.82954" lon="-2.61344">
        <ele>519</ele>
        <time>2021-07-25 16:50:34</time>
      </trkpt>
      <trkpt lat="42.82954" lon="-2.61367">
        <ele>518.6</ele>
        <time>2021-07-25 16:50:38</time>
      </trkpt>
      <trkpt lat="42.82953" lon="-2.61389">
        <ele>518.2</ele>
        <time>2021-07-25 16:50:42</time>
      </trkpt>
      <trkpt lat="42.82954" lon="-2.61412">
        <ele>519.2</ele>
        <time>2021-07-25 16:50:46</time>
      </trkpt>
      <trkpt lat="42.82953" lon="-2.61434">
        <ele>519.4</ele>
        <time>2021-07-25 16:50:50</time>
      </trkpt>
      <trkpt lat="42.82954" lon="-2.61456">
        <ele>519.4</ele>
        <time>2021-07-25 16:50:54</time>
      </trkpt>
      <trkpt lat="42.82953" lon="-2.61479">
        <ele>519.2</ele>
        <time>2021-07-25 16:50:58</time>
      </trkpt>
      <trkpt lat="42.82953" lon="-2.61502">
        <ele>519</ele>
        <time>2021-07-25 16:51:02</time>
      </trkpt>
      <trkpt lat="42.82953" lon="-2.61525">
        <ele>519.6</ele>
        <time>2021-07-25 16:51:06</time>
      </trkpt>
      <trkpt lat="42.82953" lon="-2.61548">
        <ele>519.2</ele>
        <time>2021-07-25 16:51:10</time>
      </trkpt>
      <trkpt lat="42.82953" lon="-2.6157">
        <ele>519.4</ele>
        <time>2021-07-25 16:51:14</time>
      </trkpt>
      <trkpt lat="42.82953" lon="-2.61593">
        <ele>519.8</ele>
        <time>2021-07-25 16:51:18</time>
      </trkpt>
      <trkpt lat="42.82952" lon="-2.61617">
        <ele>519.4</ele>
        <time>2021-07-25 16:51:22</time>
      </trkpt>
      <trkpt lat="42.82952" lon="-2.6164">
        <ele>519.2</ele>
        <time>2021-07-25 16:51:26</time>
      </trkpt>
      <trkpt lat="42.82952" lon="-2.61664">
        <ele>519</ele>
        <time>2021-07-25 16:51:30</time>
      </trkpt>
      <trkpt lat="42.82952" lon="-2.61688">
        <ele>518.8</ele>
        <time>2021-07-25 16:51:34</time>
      </trkpt>
      <trkpt lat="42.82952" lon="-2.61712">
        <ele>519</ele>
        <time>2021-07-25 16:51:38</time>
      </trkpt>
      <trkpt lat="42.82952" lon="-2.61736">
        <ele>519</ele>
        <time>2021-07-25 16:51:42</time>
      </trkpt>
      <trkpt lat="42.82952" lon="-2.6176">
        <ele>519.2</ele>
        <time>2021-07-25 16:51:46</time>
      </trkpt>
      <trkpt lat="42.82951" lon="-2.61783">
        <ele>519.4</ele>
        <time>2021-07-25 16:51:50</time>
      </trkpt>
      <trkpt lat="42.82951" lon="-2.61808">
        <ele>518.4</ele>
        <time>2021-07-25 16:51:54</time>
      </trkpt>
      <trkpt lat="42.82952" lon="-2.61832">
        <ele>518.8</ele>
        <time>2021-07-25 16:51:58</time>
      </trkpt>
      <trkpt lat="42.82951" lon="-2.61856">
        <ele>519.2</ele>
        <time>2021-07-25 16:52:02</time>
      </trkpt>
      <trkpt lat="42.82951" lon="-2.6188">
        <ele>519.4</ele>
        <time>2021-07-25 16:52:06</time>
      </trkpt>
      <trkpt lat="42.82951" lon="-2.61904">
        <ele>518.8</ele>
        <time>2021-07-25 16:52:10</time>
      </trkpt>
      <trkpt lat="42.82951" lon="-2.61929">
        <ele>519.4</ele>
        <time>2021-07-25 16:52:14</time>
      </trkpt>
      <trkpt lat="42.82951" lon="-2.61955">
        <ele>519.2</ele>
        <time>2021-07-25 16:52:18</time>
      </trkpt>
      <trkpt lat="42.82951" lon="-2.6198">
        <ele>519.4</ele>
        <time>2021-07-25 16:52:22</time>
      </trkpt>
      <trkpt lat="42.82951" lon="-2.62005">
        <ele>519.4</ele>
        <time>2021-07-25 16:52:26</time>
      </trkpt>
      <trkpt lat="42.82951" lon="-2.62029">
        <ele>519.4</ele>
        <time>2021-07-25 16:52:30</time>
      </trkpt>
      <trkpt lat="42.82951" lon="-2.62054">
        <ele>519.4</ele>
        <time>2021-07-25 16:52:34</time>
      </trkpt>
      <trkpt lat="42.82951" lon="-2.62079">
        <ele>519.4</ele>
        <time>2021-07-25 16:52:38</time>
      </trkpt>
      <trkpt lat="42.82951" lon="-2.62104">
        <ele>519.8</ele>
        <time>2021-07-25 16:52:42</time>
      </trkpt>
      <trkpt lat="42.82951" lon="-2.62128">
        <ele>519</ele>
        <time>2021-07-25 16:52:46</time>
      </trkpt>
      <trkpt lat="42.82951" lon="-2.62153">
        <ele>519</ele>
        <time>2021-07-25 16:52:50</time>
      </trkpt>
      <trkpt lat="42.8295" lon="-2.62177">
        <ele>518.4</ele>
        <time>2021-07-25 16:52:54</time>
      </trkpt>
      <trkpt lat="42.82951" lon="-2.62201">
        <ele>517.8</ele>
        <time>2021-07-25 16:52:58</time>
      </trkpt>
      <trkpt lat="42.82951" lon="-2.62225">
        <ele>518.6</ele>
        <time>2021-07-25 16:53:02</time>
      </trkpt>
      <trkpt lat="42.82951" lon="-2.62248">
        <ele>519.2</ele>
        <time>2021-07-25 16:53:06</time>
      </trkpt>
      <trkpt lat="42.82951" lon="-2.6227">
        <ele>519</ele>
        <time>2021-07-25 16:53:10</time>
      </trkpt>
      <trkpt lat="42.82951" lon="-2.62294">
        <ele>518.2</ele>
        <time>2021-07-25 16:53:14</time>
      </trkpt>
      <trkpt lat="42.82951" lon="-2.62317">
        <ele>518.4</ele>
        <time>2021-07-25 16:53:18</time>
      </trkpt>
      <trkpt lat="42.82951" lon="-2.62339">
        <ele>517.8</ele>
        <time>2021-07-25 16:53:22</time>
      </trkpt>
      <trkpt lat="42.8295" lon="-2.62361">
        <ele>518.6</ele>
        <time>2021-07-25 16:53:26</time>
      </trkpt>
      <trkpt lat="42.8295" lon="-2.62383">
        <ele>518.6</ele>
        <time>2021-07-25 16:53:30</time>
      </trkpt>
      <trkpt lat="42.82949" lon="-2.62405">
        <ele>519.6</ele>
        <time>2021-07-25 16:53:34</time>
      </trkpt>
      <trkpt lat="42.8295" lon="-2.62426">
        <ele>519.4</ele>
        <time>2021-07-25 16:53:38</time>
      </trkpt>
      <trkpt lat="42.82949" lon="-2.62446">
        <ele>519.2</ele>
        <time>2021-07-25 16:53:42</time>
      </trkpt>
      <trkpt lat="42.8295" lon="-2.62465">
        <ele>520.6</ele>
        <time>2021-07-25 16:53:46</time>
      </trkpt>
      <trkpt lat="42.82949" lon="-2.6248">
        <ele>521.2</ele>
        <time>2021-07-25 16:53:50</time>
      </trkpt>
      <trkpt lat="42.82949" lon="-2.62492">
        <ele>521.6</ele>
        <time>2021-07-25 16:53:54</time>
      </trkpt>
      <trkpt lat="42.82949" lon="-2.62503">
        <ele>522.6</ele>
        <time>2021-07-25 16:53:58</time>
      </trkpt>
      <trkpt lat="42.82949" lon="-2.62511">
        <ele>522.2</ele>
        <time>2021-07-25 16:54:02</time>
      </trkpt>
      <trkpt lat="42.82949" lon="-2.6252">
        <ele>522.4</ele>
        <time>2021-07-25 16:54:06</time>
      </trkpt>
      <trkpt lat="42.82949" lon="-2.62529">
        <ele>522.2</ele>
        <time>2021-07-25 16:54:10</time>
      </trkpt>
      <trkpt lat="42.82949" lon="-2.62543">
        <ele>520.4</ele>
        <time>2021-07-25 16:54:14</time>
      </trkpt>
      <trkpt lat="42.82949" lon="-2.62566">
        <ele>518.8</ele>
        <time>2021-07-25 16:54:18</time>
      </trkpt>
      <trkpt lat="42.8295" lon="-2.62596">
        <ele>517.8</ele>
        <time>2021-07-25 16:54:22</time>
      </trkpt>
      <trkpt lat="42.82951" lon="-2.62628">
        <ele>517.8</ele>
        <time>2021-07-25 16:54:26</time>
      </trkpt>
      <trkpt lat="42.8295" lon="-2.62658">
        <ele>518</ele>
        <time>2021-07-25 16:54:30</time>
      </trkpt>
      <trkpt lat="42.8295" lon="-2.62683">
        <ele>518.4</ele>
        <time>2021-07-25 16:54:34</time>
      </trkpt>
      <trkpt lat="42.8295" lon="-2.62706">
        <ele>518</ele>
        <time>2021-07-25 16:54:38</time>
      </trkpt>
      <trkpt lat="42.82949" lon="-2.62729">
        <ele>518</ele>
        <time>2021-07-25 16:54:42</time>
      </trkpt>
      <trkpt lat="42.82949" lon="-2.62753">
        <ele>518</ele>
        <time>2021-07-25 16:54:46</time>
      </trkpt>
      <trkpt lat="42.8295" lon="-2.62775">
        <ele>518</ele>
        <time>2021-07-25 16:54:50</time>
      </trkpt>
      <trkpt lat="42.8295" lon="-2.62798">
        <ele>518</ele>
        <time>2021-07-25 16:54:54</time>
      </trkpt>
      <trkpt lat="42.82949" lon="-2.62819">
        <ele>518.2</ele>
        <time>2021-07-25 16:54:58</time>
      </trkpt>
      <trkpt lat="42.82949" lon="-2.6284">
        <ele>517.8</ele>
        <time>2021-07-25 16:55:02</time>
      </trkpt>
      <trkpt lat="42.82949" lon="-2.62862">
        <ele>517.6</ele>
        <time>2021-07-25 16:55:06</time>
      </trkpt>
      <trkpt lat="42.82949" lon="-2.62883">
        <ele>517.6</ele>
        <time>2021-07-25 16:55:10</time>
      </trkpt>
      <trkpt lat="42.82948" lon="-2.62904">
        <ele>518</ele>
        <time>2021-07-25 16:55:14</time>
      </trkpt>
      <trkpt lat="42.82948" lon="-2.62923">
        <ele>518.2</ele>
        <time>2021-07-25 16:55:18</time>
      </trkpt>
      <trkpt lat="42.8295" lon="-2.62937">
        <ele>515.8</ele>
        <time>2021-07-25 16:55:22</time>
      </trkpt>
      <trkpt lat="42.82961" lon="-2.62933">
        <ele>516.2</ele>
        <time>2021-07-25 16:55:26</time>
      </trkpt>
      <trkpt lat="42.82974" lon="-2.62927">
        <ele>514.6</ele>
        <time>2021-07-25 16:55:30</time>
      </trkpt>
      <trkpt lat="42.82989" lon="-2.6292">
        <ele>513.8</ele>
        <time>2021-07-25 16:55:34</time>
      </trkpt>
      <trkpt lat="42.83005" lon="-2.62916">
        <ele>513.8</ele>
        <time>2021-07-25 16:55:38</time>
      </trkpt>
      <trkpt lat="42.83021" lon="-2.62914">
        <ele>513.8</ele>
        <time>2021-07-25 16:55:42</time>
      </trkpt>
      <trkpt lat="42.83036" lon="-2.62913">
        <ele>513.8</ele>
        <time>2021-07-25 16:55:46</time>
      </trkpt>
      <trkpt lat="42.83047" lon="-2.6291">
        <ele>514.2</ele>
        <time>2021-07-25 16:55:50</time>
      </trkpt>
      <trkpt lat="42.8305" lon="-2.62893">
        <ele>514</ele>
        <time>2021-07-25 16:55:54</time>
      </trkpt>
      <trkpt lat="42.83055" lon="-2.62875">
        <ele>513.2</ele>
        <time>2021-07-25 16:55:58</time>
      </trkpt>
      <trkpt lat="42.83062" lon="-2.62855">
        <ele>513.2</ele>
        <time>2021-07-25 16:56:02</time>
      </trkpt>
      <trkpt lat="42.83069" lon="-2.62835">
        <ele>512</ele>
        <time>2021-07-25 16:56:06</time>
      </trkpt>
      <trkpt lat="42.83079" lon="-2.62819">
        <ele>513.2</ele>
        <time>2021-07-25 16:56:10</time>
      </trkpt>
      <trkpt lat="42.83093" lon="-2.62816">
        <ele>513.2</ele>
        <time>2021-07-25 16:56:14</time>
      </trkpt>
      <trkpt lat="42.83106" lon="-2.62816">
        <ele>512.2</ele>
        <time>2021-07-25 16:56:18</time>
      </trkpt>
      <trkpt lat="42.83117" lon="-2.62814">
        <ele>512.4</ele>
        <time>2021-07-25 16:56:22</time>
      </trkpt>
      <trkpt lat="42.83128" lon="-2.62813">
        <ele>512.4</ele>
        <time>2021-07-25 16:56:26</time>
      </trkpt>
      <trkpt lat="42.83137" lon="-2.62811">
        <ele>513.8</ele>
        <time>2021-07-25 16:56:30</time>
      </trkpt>
      <trkpt lat="42.83137" lon="-2.62811">
        <ele>513.8</ele>
        <time>2021-07-25 16:56:34</time>
      </trkpt>
      <trkpt lat="42.83137" lon="-2.62811">
        <ele>513.6</ele>
        <time>2021-07-25 16:56:38</time>
      </trkpt>
      <trkpt lat="42.83137" lon="-2.62811">
        <ele>513.4</ele>
        <time>2021-07-25 16:56:42</time>
      </trkpt>
      <trkpt lat="42.83137" lon="-2.62811">
        <ele>513.2</ele>
        <time>2021-07-25 16:56:46</time>
      </trkpt>
      <trkpt lat="42.83137" lon="-2.62811">
        <ele>513.6</ele>
        <time>2021-07-25 16:56:50</time>
      </trkpt>
      <trkpt lat="42.83137" lon="-2.62811">
        <ele>514</ele>
        <time>2021-07-25 16:56:54</time>
      </trkpt>
      <trkpt lat="42.83137" lon="-2.62811">
        <ele>513.6</ele>
        <time>2021-07-25 16:56:58</time>
      </trkpt>
      <trkpt lat="42.83137" lon="-2.62811">
        <ele>513.6</ele>
        <time>2021-07-25 16:57:02</time>
      </trkpt>
      <trkpt lat="42.83137" lon="-2.62811">
        <ele>513.4</ele>
        <time>2021-07-25 16:57:06</time>
      </trkpt>
      <trkpt lat="42.83137" lon="-2.62811">
        <ele>513.6</ele>
        <time>2021-07-25 16:57:10</time>
      </trkpt>
      <trkpt lat="42.83137" lon="-2.62811">
        <ele>513.6</ele>
        <time>2021-07-25 16:57:14</time>
      </trkpt>
      <trkpt lat="42.83137" lon="-2.62811">
        <ele>513.8</ele>
        <time>2021-07-25 16:57:18</time>
      </trkpt>
      <trkpt lat="42.83137" lon="-2.62811">
        <ele>513.8</ele>
        <time>2021-07-25 16:57:22</time>
      </trkpt>
      <trkpt lat="42.83137" lon="-2.62811">
        <ele>513.8</ele>
        <time>2021-07-25 16:57:26</time>
      </trkpt>
      <trkpt lat="42.83137" lon="-2.62811">
        <ele>513.8</ele>
        <time>2021-07-25 16:57:30</time>
      </trkpt>
      <trkpt lat="42.83137" lon="-2.62811">
        <ele>513.8</ele>
        <time>2021-07-25 16:57:34</time>
      </trkpt>
      <trkpt lat="42.83137" lon="-2.62811">
        <ele>513.8</ele>
        <time>2021-07-25 16:57:38</time>
      </trkpt>
      <trkpt lat="42.83137" lon="-2.62811">
        <ele>513.4</ele>
        <time>2021-07-25 16:57:42</time>
      </trkpt>
      <trkpt lat="42.83137" lon="-2.62811">
        <ele>513.4</ele>
        <time>2021-07-25 16:57:46</time>
      </trkpt>
      <trkpt lat="42.83137" lon="-2.62811">
        <ele>513.4</ele>
        <time>2021-07-25 16:57:50</time>
      </trkpt>
      <trkpt lat="42.83137" lon="-2.62811">
        <ele>514</ele>
        <time>2021-07-25 16:57:54</time>
      </trkpt>
      <trkpt lat="42.83137" lon="-2.62811">
        <ele>513.8</ele>
        <time>2021-07-25 16:57:58</time>
      </trkpt>
      <trkpt lat="42.83137" lon="-2.62811">
        <ele>513.6</ele>
        <time>2021-07-25 16:58:02</time>
      </trkpt>
      <trkpt lat="42.83137" lon="-2.62811">
        <ele>513.6</ele>
        <time>2021-07-25 16:58:06</time>
      </trkpt>
      <trkpt lat="42.83137" lon="-2.62811">
        <ele>513.6</ele>
        <time>2021-07-25 16:58:10</time>
      </trkpt>
      <trkpt lat="42.83137" lon="-2.62811">
        <ele>514</ele>
        <time>2021-07-25 16:58:14</time>
      </trkpt>
      <trkpt lat="42.83137" lon="-2.62811">
        <ele>514.2</ele>
        <time>2021-07-25 16:58:18</time>
      </trkpt>
      <trkpt lat="42.83137" lon="-2.62811">
        <ele>514</ele>
        <time>2021-07-25 16:58:22</time>
      </trkpt>
      <trkpt lat="42.83137" lon="-2.62811">
        <ele>514</ele>
        <time>2021-07-25 16:58:26</time>
      </trkpt>
      <trkpt lat="42.83137" lon="-2.62811">
        <ele>513.8</ele>
        <time>2021-07-25 16:58:30</time>
      </trkpt>
      <trkpt lat="42.83137" lon="-2.62811">
        <ele>514</ele>
        <time>2021-07-25 16:58:34</time>
      </trkpt>
      <trkpt lat="42.83137" lon="-2.62811">
        <ele>513.8</ele>
        <time>2021-07-25 16:58:38</time>
      </trkpt>
      <trkpt lat="42.83137" lon="-2.62811">
        <ele>513.8</ele>
        <time>2021-07-25 16:58:42</time>
      </trkpt>
      <trkpt lat="42.83137" lon="-2.62811">
        <ele>513.8</ele>
        <time>2021-07-25 16:58:46</time>
      </trkpt>
      <trkpt lat="42.83137" lon="-2.62811">
        <ele>514</ele>
        <time>2021-07-25 16:58:50</time>
      </trkpt>
      <trkpt lat="42.83137" lon="-2.62811">
        <ele>514</ele>
        <time>2021-07-25 16:58:54</time>
      </trkpt>
      <trkpt lat="42.83137" lon="-2.62811">
        <ele>513.8</ele>
        <time>2021-07-25 16:58:58</time>
      </trkpt>
      <trkpt lat="42.83137" lon="-2.62811">
        <ele>513.8</ele>
        <time>2021-07-25 16:59:02</time>
      </trkpt>
      <trkpt lat="42.83137" lon="-2.62811">
        <ele>514.2</ele>
        <time>2021-07-25 16:59:06</time>
      </trkpt>
      <trkpt lat="42.83137" lon="-2.62811">
        <ele>513.8</ele>
        <time>2021-07-25 16:59:10</time>
      </trkpt>
      <trkpt lat="42.83137" lon="-2.62811">
        <ele>513.8</ele>
        <time>2021-07-25 16:59:14</time>
      </trkpt>
      <trkpt lat="42.83137" lon="-2.62811">
        <ele>514</ele>
        <time>2021-07-25 16:59:18</time>
      </trkpt>
      <trkpt lat="42.83137" lon="-2.62811">
        <ele>513.8</ele>
        <time>2021-07-25 16:59:22</time>
      </trkpt>
      <trkpt lat="42.83137" lon="-2.62811">
        <ele>514.2</ele>
        <time>2021-07-25 16:59:26</time>
      </trkpt>
      <trkpt lat="42.83137" lon="-2.62811">
        <ele>514.2</ele>
        <time>2021-07-25 16:59:30</time>
      </trkpt>
      <trkpt lat="42.83137" lon="-2.62811">
        <ele>514</ele>
        <time>2021-07-25 16:59:34</time>
      </trkpt>
      <trkpt lat="42.83137" lon="-2.62811">
        <ele>514</ele>
        <time>2021-07-25 16:59:38</time>
      </trkpt>
      <trkpt lat="42.83137" lon="-2.62811">
        <ele>514.2</ele>
        <time>2021-07-25 16:59:42</time>
      </trkpt>
      <trkpt lat="42.83137" lon="-2.62811">
        <ele>514</ele>
        <time>2021-07-25 16:59:46</time>
      </trkpt>
      <trkpt lat="42.83137" lon="-2.62811">
        <ele>514.2</ele>
        <time>2021-07-25 16:59:50</time>
      </trkpt>
      <trkpt lat="42.83137" lon="-2.62811">
        <ele>514</ele>
        <time>2021-07-25 16:59:54</time>
      </trkpt>
      <trkpt lat="42.83137" lon="-2.62811">
        <ele>513.8</ele>
        <time>2021-07-25 16:59:58</time>
      </trkpt>
      <trkpt lat="42.83137" lon="-2.62811">
        <ele>513.8</ele>
        <time>2021-07-25 17:00:02</time>
      </trkpt>
      <trkpt lat="42.83137" lon="-2.62811">
        <ele>514</ele>
        <time>2021-07-25 17:00:06</time>
      </trkpt>
      <trkpt lat="42.83137" lon="-2.62811">
        <ele>513.8</ele>
        <time>2021-07-25 17:00:10</time>
      </trkpt>
      <trkpt lat="42.83137" lon="-2.62811">
        <ele>514</ele>
        <time>2021-07-25 17:00:14</time>
      </trkpt>
      <trkpt lat="42.83137" lon="-2.62811">
        <ele>514</ele>
        <time>2021-07-25 17:00:18</time>
      </trkpt>
      <trkpt lat="42.83137" lon="-2.62811">
        <ele>514</ele>
        <time>2021-07-25 17:00:22</time>
      </trkpt>
      <trkpt lat="42.83137" lon="-2.62811">
        <ele>514</ele>
        <time>2021-07-25 17:00:26</time>
      </trkpt>
      <trkpt lat="42.83137" lon="-2.62811">
        <ele>513.6</ele>
        <time>2021-07-25 17:00:30</time>
      </trkpt>
      <trkpt lat="42.83137" lon="-2.62811">
        <ele>514.2</ele>
        <time>2021-07-25 17:00:34</time>
      </trkpt>
      <trkpt lat="42.83137" lon="-2.62811">
        <ele>513.8</ele>
        <time>2021-07-25 17:00:38</time>
      </trkpt>
      <trkpt lat="42.83137" lon="-2.62811">
        <ele>514.4</ele>
        <time>2021-07-25 17:00:42</time>
      </trkpt>
      <trkpt lat="42.83137" lon="-2.62811">
        <ele>514.2</ele>
        <time>2021-07-25 17:00:46</time>
      </trkpt>
      <trkpt lat="42.83137" lon="-2.62811">
        <ele>514</ele>
        <time>2021-07-25 17:00:50</time>
      </trkpt>
      <trkpt lat="42.83137" lon="-2.62811">
        <ele>514.2</ele>
        <time>2021-07-25 17:00:54</time>
      </trkpt>
      <trkpt lat="42.83137" lon="-2.62811">
        <ele>514.6</ele>
        <time>2021-07-25 17:00:58</time>
      </trkpt>
      <trkpt lat="42.83137" lon="-2.62811">
        <ele>514.6</ele>
        <time>2021-07-25 17:01:02</time>
      </trkpt>
      <trkpt lat="42.83137" lon="-2.62811">
        <ele>514.6</ele>
        <time>2021-07-25 17:01:06</time>
      </trkpt>
      <trkpt lat="42.83137" lon="-2.62811">
        <ele>514.2</ele>
        <time>2021-07-25 17:01:10</time>
      </trkpt>
      <trkpt lat="42.83137" lon="-2.62811">
        <ele>514.6</ele>
        <time>2021-07-25 17:01:14</time>
      </trkpt>
      <trkpt lat="42.83137" lon="-2.62811">
        <ele>514.4</ele>
        <time>2021-07-25 17:01:18</time>
      </trkpt>
      <trkpt lat="42.83137" lon="-2.62811">
        <ele>514.4</ele>
        <time>2021-07-25 17:01:22</time>
      </trkpt>
      <trkpt lat="42.83137" lon="-2.62811">
        <ele>514.4</ele>
        <time>2021-07-25 17:01:26</time>
      </trkpt>
      <trkpt lat="42.83137" lon="-2.62811">
        <ele>514.6</ele>
        <time>2021-07-25 17:01:30</time>
      </trkpt>
      <trkpt lat="42.83137" lon="-2.62811">
        <ele>514.4</ele>
        <time>2021-07-25 17:01:34</time>
      </trkpt>
      <trkpt lat="42.83137" lon="-2.62811">
        <ele>514.6</ele>
        <time>2021-07-25 17:01:38</time>
      </trkpt>
      <trkpt lat="42.83137" lon="-2.62811">
        <ele>514.6</ele>
        <time>2021-07-25 17:01:42</time>
      </trkpt>
      <trkpt lat="42.83137" lon="-2.62811">
        <ele>514.8</ele>
        <time>2021-07-25 17:01:46</time>
      </trkpt>
      <trkpt lat="42.83137" lon="-2.62811">
        <ele>514.8</ele>
        <time>2021-07-25 17:01:50</time>
      </trkpt>
      <trkpt lat="42.83137" lon="-2.62811">
        <ele>514.6</ele>
        <time>2021-07-25 17:01:54</time>
      </trkpt>
      <trkpt lat="42.83137" lon="-2.62811">
        <ele>514.6</ele>
        <time>2021-07-25 17:01:58</time>
      </trkpt>
      <trkpt lat="42.83137" lon="-2.62811">
        <ele>514.6</ele>
        <time>2021-07-25 17:02:02</time>
      </trkpt>
      <trkpt lat="42.83137" lon="-2.62811">
        <ele>514.6</ele>
        <time>2021-07-25 17:02:06</time>
      </trkpt>
      <trkpt lat="42.83137" lon="-2.62811">
        <ele>515.2</ele>
        <time>2021-07-25 17:02:10</time>
      </trkpt>
      <trkpt lat="42.83137" lon="-2.62811">
        <ele>514.6</ele>
        <time>2021-07-25 17:02:14</time>
      </trkpt>
      <trkpt lat="42.83137" lon="-2.62811">
        <ele>515</ele>
        <time>2021-07-25 17:02:18</time>
      </trkpt>
      <trkpt lat="42.83137" lon="-2.62811">
        <ele>515.2</ele>
        <time>2021-07-25 17:02:22</time>
      </trkpt>
      <trkpt lat="42.83137" lon="-2.62811">
        <ele>515.4</ele>
        <time>2021-07-25 17:02:26</time>
      </trkpt>
      <trkpt lat="42.83137" lon="-2.62811">
        <ele>515.6</ele>
        <time>2021-07-25 17:02:30</time>
      </trkpt>
      <trkpt lat="42.83137" lon="-2.62811">
        <ele>515.8</ele>
        <time>2021-07-25 17:02:34</time>
      </trkpt>
      <trkpt lat="42.83137" lon="-2.62811">
        <ele>515.2</ele>
        <time>2021-07-25 17:02:38</time>
      </trkpt>
      <trkpt lat="42.83137" lon="-2.62811">
        <ele>515.2</ele>
        <time>2021-07-25 17:02:42</time>
      </trkpt>
      <trkpt lat="42.83137" lon="-2.62811">
        <ele>515</ele>
        <time>2021-07-25 17:02:46</time>
      </trkpt>
      <trkpt lat="42.83137" lon="-2.62811">
        <ele>515</ele>
        <time>2021-07-25 17:02:50</time>
      </trkpt>
      <trkpt lat="42.83137" lon="-2.62811">
        <ele>515.8</ele>
        <time>2021-07-25 17:02:54</time>
      </trkpt>
      <trkpt lat="42.83137" lon="-2.62811">
        <ele>515.2</ele>
        <time>2021-07-25 17:02:58</time>
      </trkpt>
      <trkpt lat="42.83137" lon="-2.62811">
        <ele>515.6</ele>
        <time>2021-07-25 17:03:02</time>
      </trkpt>
      <trkpt lat="42.83137" lon="-2.62811">
        <ele>516</ele>
        <time>2021-07-25 17:03:06</time>
      </trkpt>
      <trkpt lat="42.83137" lon="-2.62811">
        <ele>515.8</ele>
        <time>2021-07-25 17:03:10</time>
      </trkpt>
      <trkpt lat="42.83137" lon="-2.62811">
        <ele>515.8</ele>
        <time>2021-07-25 17:03:14</time>
      </trkpt>
      <trkpt lat="42.83137" lon="-2.62811">
        <ele>515.8</ele>
        <time>2021-07-25 17:03:18</time>
      </trkpt>
      <trkpt lat="42.83137" lon="-2.62811">
        <ele>515.8</ele>
        <time>2021-07-25 17:03:22</time>
      </trkpt>
      <trkpt lat="42.83137" lon="-2.62811">
        <ele>515.8</ele>
        <time>2021-07-25 17:03:26</time>
      </trkpt>
      <trkpt lat="42.83137" lon="-2.62811">
        <ele>515.8</ele>
        <time>2021-07-25 17:03:30</time>
      </trkpt>
      <trkpt lat="42.83137" lon="-2.62811">
        <ele>516</ele>
        <time>2021-07-25 17:03:34</time>
      </trkpt>
      <trkpt lat="42.83137" lon="-2.62811">
        <ele>515.8</ele>
        <time>2021-07-25 17:03:38</time>
      </trkpt>
      <trkpt lat="42.83137" lon="-2.62811">
        <ele>515.8</ele>
        <time>2021-07-25 17:03:42</time>
      </trkpt>
      <trkpt lat="42.83137" lon="-2.62811">
        <ele>515.8</ele>
        <time>2021-07-25 17:03:46</time>
      </trkpt>
      <trkpt lat="42.83137" lon="-2.62811">
        <ele>516.2</ele>
        <time>2021-07-25 17:03:50</time>
      </trkpt>
      <trkpt lat="42.83137" lon="-2.62811">
        <ele>515.8</ele>
        <time>2021-07-25 17:03:54</time>
      </trkpt>
      <trkpt lat="42.83137" lon="-2.62811">
        <ele>515.8</ele>
        <time>2021-07-25 17:03:58</time>
      </trkpt>
      <trkpt lat="42.83137" lon="-2.62811">
        <ele>515.8</ele>
        <time>2021-07-25 17:04:02</time>
      </trkpt>
      <trkpt lat="42.83137" lon="-2.62811">
        <ele>515.8</ele>
        <time>2021-07-25 17:04:06</time>
      </trkpt>
      <trkpt lat="42.83137" lon="-2.62811">
        <ele>516</ele>
        <time>2021-07-25 17:04:10</time>
      </trkpt>
      <trkpt lat="42.83137" lon="-2.62811">
        <ele>515.4</ele>
        <time>2021-07-25 17:04:14</time>
      </trkpt>
      <trkpt lat="42.83137" lon="-2.62811">
        <ele>516</ele>
        <time>2021-07-25 17:04:18</time>
      </trkpt>
      <trkpt lat="42.83137" lon="-2.62811">
        <ele>515.8</ele>
        <time>2021-07-25 17:04:22</time>
      </trkpt>
      <trkpt lat="42.83137" lon="-2.62811">
        <ele>515.8</ele>
        <time>2021-07-25 17:04:26</time>
      </trkpt>
      <trkpt lat="42.83137" lon="-2.62811">
        <ele>515.8</ele>
        <time>2021-07-25 17:04:30</time>
      </trkpt>
      <trkpt lat="42.83137" lon="-2.62811">
        <ele>516</ele>
        <time>2021-07-25 17:04:34</time>
      </trkpt>
      <trkpt lat="42.83137" lon="-2.62811">
        <ele>516</ele>
        <time>2021-07-25 17:04:38</time>
      </trkpt>
      <trkpt lat="42.83137" lon="-2.62811">
        <ele>516</ele>
        <time>2021-07-25 17:04:42</time>
      </trkpt>
      <trkpt lat="42.83137" lon="-2.62811">
        <ele>516.4</ele>
        <time>2021-07-25 17:04:46</time>
      </trkpt>
      <trkpt lat="42.83137" lon="-2.62811">
        <ele>516</ele>
        <time>2021-07-25 17:04:50</time>
      </trkpt>
      <trkpt lat="42.83137" lon="-2.62811">
        <ele>516.2</ele>
        <time>2021-07-25 17:04:54</time>
      </trkpt>
      <trkpt lat="42.83137" lon="-2.62811">
        <ele>515.8</ele>
        <time>2021-07-25 17:04:58</time>
      </trkpt>
      <trkpt lat="42.83137" lon="-2.62811">
        <ele>516.4</ele>
        <time>2021-07-25 17:05:02</time>
      </trkpt>
      <trkpt lat="42.83137" lon="-2.62811">
        <ele>516</ele>
        <time>2021-07-25 17:05:06</time>
      </trkpt>
      <trkpt lat="42.83137" lon="-2.62811">
        <ele>515.8</ele>
        <time>2021-07-25 17:05:10</time>
      </trkpt>
      <trkpt lat="42.83137" lon="-2.62811">
        <ele>516.2</ele>
        <time>2021-07-25 17:05:14</time>
      </trkpt>
      <trkpt lat="42.83137" lon="-2.62811">
        <ele>516.6</ele>
        <time>2021-07-25 17:05:18</time>
      </trkpt>
      <trkpt lat="42.83137" lon="-2.62811">
        <ele>516.8</ele>
        <time>2021-07-25 17:05:22</time>
      </trkpt>
      <trkpt lat="42.83137" lon="-2.62811">
        <ele>516.6</ele>
        <time>2021-07-25 17:05:26</time>
      </trkpt>
      <trkpt lat="42.83137" lon="-2.62811">
        <ele>516.2</ele>
        <time>2021-07-25 17:05:30</time>
      </trkpt>
      <trkpt lat="42.83137" lon="-2.62811">
        <ele>516.6</ele>
        <time>2021-07-25 17:05:34</time>
      </trkpt>
      <trkpt lat="42.83137" lon="-2.62811">
        <ele>516.4</ele>
        <time>2021-07-25 17:05:38</time>
      </trkpt>
      <trkpt lat="42.83137" lon="-2.62811">
        <ele>516</ele>
        <time>2021-07-25 17:05:42</time>
      </trkpt>
      <trkpt lat="42.83137" lon="-2.62811">
        <ele>516</ele>
        <time>2021-07-25 17:05:46</time>
      </trkpt>
      <trkpt lat="42.83137" lon="-2.62811">
        <ele>516.6</ele>
        <time>2021-07-25 17:05:50</time>
      </trkpt>
      <trkpt lat="42.83137" lon="-2.62811">
        <ele>516</ele>
        <time>2021-07-25 17:05:54</time>
      </trkpt>
      <trkpt lat="42.83137" lon="-2.62811">
        <ele>516.4</ele>
        <time>2021-07-25 17:05:58</time>
      </trkpt>
      <trkpt lat="42.83137" lon="-2.62811">
        <ele>516.2</ele>
        <time>2021-07-25 17:06:02</time>
      </trkpt>
      <trkpt lat="42.83137" lon="-2.62811">
        <ele>516</ele>
        <time>2021-07-25 17:06:06</time>
      </trkpt>
      <trkpt lat="42.83137" lon="-2.62811">
        <ele>516</ele>
        <time>2021-07-25 17:06:10</time>
      </trkpt>
      <trkpt lat="42.83137" lon="-2.62811">
        <ele>516.2</ele>
        <time>2021-07-25 17:06:14</time>
      </trkpt>
      <trkpt lat="42.83137" lon="-2.62811">
        <ele>516.4</ele>
        <time>2021-07-25 17:06:18</time>
      </trkpt>
    </trkseg>
  </trk>
</gpx>
